<?xml version='1.0' encoding='UTF-8'?><gpx version="1.1" creator="JPX - https://github.com/jenetics/jpx" xmlns="http://www.topografix.com/GPX/1/1"><trk><trkseg><trkpt lat="44.69938398270705" lon="8.037698271068459"><ele>175.0</ele><time>2026-04-12T07:06:16Z</time></trkpt><trkpt lat="44.69932047614337" lon="8.03769911590023"><ele>175.0</ele><time>2026-04-12T07:06:56Z</time></trkpt><trkpt lat="44.69923496358565" lon="8.03771766060121"><ele>175.0</ele><time>2026-04-12T07:07:01Z</time></trkpt><trkpt lat="44.69915614335326" lon="8.037697336933144"><ele>175.0</ele><time>2026-04-12T07:07:05Z</time></trkpt><trkpt lat="44.69908397546364" lon="8.037656884584267"><ele>175.0</ele><time>2026-04-12T07:07:09Z</time></trkpt><trkpt lat="44.69901857745585" lon="8.037604255954147"><ele>175.0</ele><time>2026-04-12T07:07:14Z</time></trkpt><trkpt lat="44.69895410938856" lon="8.037613763423149"><ele>175.0</ele><time>2026-04-12T07:07:19Z</time></trkpt><trkpt lat="44.698865026000135" lon="8.03760211947373"><ele>175.0</ele><time>2026-04-12T07:07:22Z</time></trkpt><trkpt lat="44.69877916793025" lon="8.037591962582955"><ele>175.0</ele><time>2026-04-12T07:07:26Z</time></trkpt><trkpt lat="44.698703488001975" lon="8.037604202207216"><ele>175.0</ele><time>2026-04-12T07:07:30Z</time></trkpt><trkpt lat="44.698626127782596" lon="8.037617977373532"><ele>175.0</ele><time>2026-04-12T07:07:34Z</time></trkpt><trkpt lat="44.69854958981352" lon="8.037601046604419"><ele>175.0</ele><time>2026-04-12T07:07:38Z</time></trkpt><trkpt lat="44.698479744882505" lon="8.037575101048791"><ele>175.0</ele><time>2026-04-12T07:07:41Z</time></trkpt><trkpt lat="44.69841251039369" lon="8.037553966338242"><ele>174.83333333333334</ele><time>2026-04-12T07:07:44Z</time></trkpt><trkpt lat="44.69834734308814" lon="8.037542175943015"><ele>174.66666666666669</ele><time>2026-04-12T07:07:47Z</time></trkpt><trkpt lat="44.698288835233406" lon="8.03744934180257"><ele>174.5</ele><time>2026-04-12T07:07:53Z</time></trkpt><trkpt lat="44.69828589828697" lon="8.03735002276651"><ele>174.33333333333334</ele><time>2026-04-12T07:07:56Z</time></trkpt><trkpt lat="44.698270735236925" lon="8.037245285489128"><ele>174.16666666666666</ele><time>2026-04-12T07:08:00Z</time></trkpt><trkpt lat="44.69828405702577" lon="8.03712791985685"><ele>174.0</ele><time>2026-04-12T07:08:05Z</time></trkpt><trkpt lat="44.69828870259313" lon="8.037001073711933"><ele>174.0</ele><time>2026-04-12T07:08:08Z</time></trkpt><trkpt lat="44.698293617371895" lon="8.036885662915475"><ele>174.0</ele><time>2026-04-12T07:08:11Z</time></trkpt><trkpt lat="44.69827871281454" lon="8.03678400571117"><ele>174.0</ele><time>2026-04-12T07:08:14Z</time></trkpt><trkpt lat="44.698271589549776" lon="8.036684306352829"><ele>174.0</ele><time>2026-04-12T07:08:17Z</time></trkpt><trkpt lat="44.69826272416275" lon="8.036564171363905"><ele>174.0</ele><time>2026-04-12T07:08:20Z</time></trkpt><trkpt lat="44.69826764857631" lon="8.036438313193132"><ele>174.0</ele><time>2026-04-12T07:08:23Z</time></trkpt><trkpt lat="44.698288209106714" lon="8.036335920763335"><ele>173.85714285714286</ele><time>2026-04-12T07:08:26Z</time></trkpt><trkpt lat="44.698330729873085" lon="8.036261876306403"><ele>173.71428571428572</ele><time>2026-04-12T07:08:29Z</time></trkpt><trkpt lat="44.69835724513222" lon="8.036166112879261"><ele>173.57142857142856</ele><time>2026-04-12T07:08:32Z</time></trkpt><trkpt lat="44.69838689460044" lon="8.036062755316253"><ele>173.42857142857144</ele><time>2026-04-12T07:08:35Z</time></trkpt><trkpt lat="44.698405814871144" lon="8.035950826504996"><ele>173.2857142857143</ele><time>2026-04-12T07:08:38Z</time></trkpt><trkpt lat="44.698397151519025" lon="8.035839901832514"><ele>173.14285714285714</ele><time>2026-04-12T07:08:41Z</time></trkpt><trkpt lat="44.69843117172403" lon="8.035756400911637"><ele>173.0</ele><time>2026-04-12T07:08:44Z</time></trkpt><trkpt lat="44.698465271751026" lon="8.035665750317122"><ele>173.5</ele><time>2026-04-12T07:08:48Z</time></trkpt><trkpt lat="44.698491152159946" lon="8.035555352494804"><ele>174.0</ele><time>2026-04-12T07:08:51Z</time></trkpt><trkpt lat="44.698516836527425" lon="8.03543617349132"><ele>174.5</ele><time>2026-04-12T07:08:54Z</time></trkpt><trkpt lat="44.698524976787915" lon="8.035338498391408"><ele>175.0</ele><time>2026-04-12T07:08:57Z</time></trkpt><trkpt lat="44.69850924435645" lon="8.03523473113775"><ele>175.5</ele><time>2026-04-12T07:09:00Z</time></trkpt><trkpt lat="44.698517033377755" lon="8.03512982178167"><ele>176.0</ele><time>2026-04-12T07:09:03Z</time></trkpt><trkpt lat="44.698499449325986" lon="8.035011927198026"><ele>176.33333333333331</ele><time>2026-04-12T07:09:06Z</time></trkpt><trkpt lat="44.698501250972676" lon="8.034904831751938"><ele>176.66666666666666</ele><time>2026-04-12T07:09:09Z</time></trkpt><trkpt lat="44.69850678855307" lon="8.034797289209287"><ele>177.0</ele><time>2026-04-12T07:09:13Z</time></trkpt><trkpt lat="44.698512711533596" lon="8.034681739879787"><ele>177.33333333333334</ele><time>2026-04-12T07:09:17Z</time></trkpt><trkpt lat="44.698514062125405" lon="8.034570395649421"><ele>177.66666666666669</ele><time>2026-04-12T07:09:21Z</time></trkpt><trkpt lat="44.69851540668075" lon="8.03446993431706"><ele>178.0</ele><time>2026-04-12T07:09:25Z</time></trkpt><trkpt lat="44.69850941266035" lon="8.034369425373626"><ele>177.99999999999997</ele><time>2026-04-12T07:09:28Z</time></trkpt><trkpt lat="44.69850461408356" lon="8.034253938957603"><ele>178.0</ele><time>2026-04-12T07:09:31Z</time></trkpt><trkpt lat="44.698503629820145" lon="8.034156542435753"><ele>178.0</ele><time>2026-04-12T07:09:34Z</time></trkpt><trkpt lat="44.698494798238" lon="8.034049061838441"><ele>178.0</ele><time>2026-04-12T07:09:37Z</time></trkpt><trkpt lat="44.698529984616684" lon="8.03395540241532"><ele>178.0</ele><time>2026-04-12T07:09:41Z</time></trkpt><trkpt lat="44.698565367816116" lon="8.033860905081779"><ele>177.99999999999997</ele><time>2026-04-12T07:09:44Z</time></trkpt><trkpt lat="44.698579553836126" lon="8.033769601809405"><ele>178.0</ele><time>2026-04-12T07:09:46Z</time></trkpt><trkpt lat="44.698585312409605" lon="8.033678017297415"><ele>177.83333333333334</ele><time>2026-04-12T07:09:48Z</time></trkpt><trkpt lat="44.698598427448914" lon="8.03357566795123"><ele>177.66666666666669</ele><time>2026-04-12T07:09:51Z</time></trkpt><trkpt lat="44.698591745498746" lon="8.033471245597088"><ele>177.5</ele><time>2026-04-12T07:09:53Z</time></trkpt><trkpt lat="44.698583760140586" lon="8.033343708088264"><ele>177.33333333333334</ele><time>2026-04-12T07:09:56Z</time></trkpt><trkpt lat="44.698516468457115" lon="8.033271636705695"><ele>177.16666666666666</ele><time>2026-04-12T07:09:59Z</time></trkpt><trkpt lat="44.69843742997819" lon="8.03325424629529"><ele>177.0</ele><time>2026-04-12T07:10:02Z</time></trkpt><trkpt lat="44.69835462737714" lon="8.033225796465127"><ele>176.66666666666666</ele><time>2026-04-12T07:10:05Z</time></trkpt><trkpt lat="44.69827819718367" lon="8.033189482106573"><ele>176.33333333333334</ele><time>2026-04-12T07:10:08Z</time></trkpt><trkpt lat="44.69820271350446" lon="8.03314429642134"><ele>176.0</ele><time>2026-04-12T07:10:11Z</time></trkpt><trkpt lat="44.698125203485375" lon="8.03310856221385"><ele>175.66666666666669</ele><time>2026-04-12T07:10:14Z</time></trkpt><trkpt lat="44.698050978172844" lon="8.033077147319311"><ele>175.33333333333334</ele><time>2026-04-12T07:10:17Z</time></trkpt><trkpt lat="44.697970416478945" lon="8.033080210366597"><ele>175.0</ele><time>2026-04-12T07:10:20Z</time></trkpt><trkpt lat="44.69790298837251" lon="8.033054528338992"><ele>175.0</ele><time>2026-04-12T07:10:23Z</time></trkpt><trkpt lat="44.69783800863748" lon="8.033035926871722"><ele>175.0</ele><time>2026-04-12T07:10:25Z</time></trkpt><trkpt lat="44.69774739362482" lon="8.03301090328057"><ele>175.0</ele><time>2026-04-12T07:10:28Z</time></trkpt><trkpt lat="44.6976818043839" lon="8.032999013082136"><ele>175.0</ele><time>2026-04-12T07:10:30Z</time></trkpt><trkpt lat="44.697608835935945" lon="8.032986767062779"><ele>175.0</ele><time>2026-04-12T07:10:32Z</time></trkpt><trkpt lat="44.69753024731903" lon="8.032984117991129"><ele>175.0</ele><time>2026-04-12T07:10:34Z</time></trkpt><trkpt lat="44.697463506219904" lon="8.032985108650102"><ele>175.0</ele><time>2026-04-12T07:10:36Z</time></trkpt><trkpt lat="44.697394406655185" lon="8.032972306989603"><ele>175.33333333333334</ele><time>2026-04-12T07:10:38Z</time></trkpt><trkpt lat="44.697334447988" lon="8.032942691011907"><ele>175.66666666666669</ele><time>2026-04-12T07:10:40Z</time></trkpt><trkpt lat="44.69726591554628" lon="8.032880757991636"><ele>176.0</ele><time>2026-04-12T07:10:43Z</time></trkpt><trkpt lat="44.697181952296084" lon="8.032889637583935"><ele>176.33333333333334</ele><time>2026-04-12T07:10:45Z</time></trkpt><trkpt lat="44.697103379367604" lon="8.032892585350382"><ele>176.66666666666666</ele><time>2026-04-12T07:10:47Z</time></trkpt><trkpt lat="44.69701293450631" lon="8.032894315650392"><ele>177.0</ele><time>2026-04-12T07:10:50Z</time></trkpt><trkpt lat="44.69695011465174" lon="8.03288502828914"><ele>176.0</ele><time>2026-04-12T07:10:52Z</time></trkpt><trkpt lat="44.696887500278265" lon="8.032853442742299"><ele>175.0</ele><time>2026-04-12T07:10:54Z</time></trkpt><trkpt lat="44.69680956447245" lon="8.032858960453966"><ele>174.0</ele><time>2026-04-12T07:10:56Z</time></trkpt><trkpt lat="44.69672605174989" lon="8.032821337733338"><ele>173.0</ele><time>2026-04-12T07:10:59Z</time></trkpt><trkpt lat="44.696669950393584" lon="8.032721008397946"><ele>172.0</ele><time>2026-04-12T07:11:02Z</time></trkpt><trkpt lat="44.69661077591941" lon="8.03264561322646"><ele>171.0</ele><time>2026-04-12T07:11:05Z</time></trkpt><trkpt lat="44.696560127043405" lon="8.032579629103592"><ele>171.0</ele><time>2026-04-12T07:11:08Z</time></trkpt><trkpt lat="44.696494324026716" lon="8.032537795681106"><ele>171.0</ele><time>2026-04-12T07:11:11Z</time></trkpt><trkpt lat="44.69642935918777" lon="8.032509272265123"><ele>171.0</ele><time>2026-04-12T07:11:14Z</time></trkpt><trkpt lat="44.6963760777364" lon="8.032420384396437"><ele>171.0</ele><time>2026-04-12T07:11:18Z</time></trkpt><trkpt lat="44.69632122258541" lon="8.032344439910588"><ele>171.0</ele><time>2026-04-12T07:11:21Z</time></trkpt><trkpt lat="44.69626624983987" lon="8.032265064789806"><ele>171.0</ele><time>2026-04-12T07:11:24Z</time></trkpt><trkpt lat="44.696218266272176" lon="8.032183340857939"><ele>170.66666666666666</ele><time>2026-04-12T07:11:27Z</time></trkpt><trkpt lat="44.69617458237829" lon="8.032082804485965"><ele>170.33333333333334</ele><time>2026-04-12T07:11:30Z</time></trkpt><trkpt lat="44.69613923305555" lon="8.032007502365023"><ele>170.0</ele><time>2026-04-12T07:11:32Z</time></trkpt><trkpt lat="44.69610388895788" lon="8.031909662170486"><ele>169.66666666666669</ele><time>2026-04-12T07:11:34Z</time></trkpt><trkpt lat="44.696115758419765" lon="8.031803210161572"><ele>169.33333333333334</ele><time>2026-04-12T07:11:36Z</time></trkpt><trkpt lat="44.696181262346265" lon="8.031728789186142"><ele>169.0</ele><time>2026-04-12T07:11:38Z</time></trkpt><trkpt lat="44.696249177339276" lon="8.03166644167461"><ele>169.39999999999998</ele><time>2026-04-12T07:11:40Z</time></trkpt><trkpt lat="44.69627977422839" lon="8.031540349254387"><ele>169.8</ele><time>2026-04-12T07:11:43Z</time></trkpt><trkpt lat="44.69623098780049" lon="8.031443506605354"><ele>170.2</ele><time>2026-04-12T07:11:45Z</time></trkpt><trkpt lat="44.69614677384554" lon="8.03138975071292"><ele>170.60000000000002</ele><time>2026-04-12T07:11:47Z</time></trkpt><trkpt lat="44.69604741865741" lon="8.031378832487144"><ele>171.0</ele><time>2026-04-12T07:11:49Z</time></trkpt><trkpt lat="44.695959429460416" lon="8.031425936618241"><ele>171.0</ele><time>2026-04-12T07:11:51Z</time></trkpt><trkpt lat="44.695894342252096" lon="8.031483935964694"><ele>171.0</ele><time>2026-04-12T07:11:53Z</time></trkpt><trkpt lat="44.695843984208054" lon="8.031547622685787"><ele>171.0</ele><time>2026-04-12T07:11:55Z</time></trkpt><trkpt lat="44.695790627929235" lon="8.031608372133288"><ele>171.0</ele><time>2026-04-12T07:11:57Z</time></trkpt><trkpt lat="44.69572720866035" lon="8.031652530572554"><ele>171.0</ele><time>2026-04-12T07:11:59Z</time></trkpt><trkpt lat="44.69565015986928" lon="8.031642559027576"><ele>171.0</ele><time>2026-04-12T07:12:01Z</time></trkpt><trkpt lat="44.695587445768545" lon="8.031549356091013"><ele>171.0</ele><time>2026-04-12T07:12:03Z</time></trkpt><trkpt lat="44.695546603359006" lon="8.031442277779194"><ele>171.0</ele><time>2026-04-12T07:12:05Z</time></trkpt><trkpt lat="44.69549912224204" lon="8.03133429517799"><ele>171.0</ele><time>2026-04-12T07:12:07Z</time></trkpt><trkpt lat="44.695443226798986" lon="8.03122635029235"><ele>171.0</ele><time>2026-04-12T07:12:09Z</time></trkpt><trkpt lat="44.69538806365947" lon="8.031109834547042"><ele>171.0</ele><time>2026-04-12T07:12:11Z</time></trkpt><trkpt lat="44.69532880173031" lon="8.030998614130171"><ele>171.0</ele><time>2026-04-12T07:12:13Z</time></trkpt><trkpt lat="44.69527173592088" lon="8.030892652675814"><ele>171.0</ele><time>2026-04-12T07:12:15Z</time></trkpt><trkpt lat="44.695217711624075" lon="8.03078390309612"><ele>171.0</ele><time>2026-04-12T07:12:17Z</time></trkpt><trkpt lat="44.69516058653558" lon="8.03067565518557"><ele>171.0</ele><time>2026-04-12T07:12:19Z</time></trkpt><trkpt lat="44.695105293000005" lon="8.030572800616271"><ele>171.0</ele><time>2026-04-12T07:12:21Z</time></trkpt><trkpt lat="44.69506052609182" lon="8.030457832462922"><ele>171.33333333333334</ele><time>2026-04-12T07:12:23Z</time></trkpt><trkpt lat="44.69500740464224" lon="8.030352514599427"><ele>171.66666666666666</ele><time>2026-04-12T07:12:25Z</time></trkpt><trkpt lat="44.69495052870207" lon="8.030252502838342"><ele>172.0</ele><time>2026-04-12T07:12:27Z</time></trkpt><trkpt lat="44.69488548623948" lon="8.030190661325321"><ele>172.33333333333331</ele><time>2026-04-12T07:12:29Z</time></trkpt><trkpt lat="44.69483245298417" lon="8.030083257883913"><ele>172.66666666666666</ele><time>2026-04-12T07:12:31Z</time></trkpt><trkpt lat="44.6947842200427" lon="8.029979334079785"><ele>173.0</ele><time>2026-04-12T07:12:33Z</time></trkpt><trkpt lat="44.694739839782414" lon="8.029883381395427"><ele>173.33333333333331</ele><time>2026-04-12T07:12:35Z</time></trkpt><trkpt lat="44.69469732567914" lon="8.029797516556405"><ele>173.66666666666666</ele><time>2026-04-12T07:12:37Z</time></trkpt><trkpt lat="44.694659252273865" lon="8.029707769470226"><ele>174.0</ele><time>2026-04-12T07:12:39Z</time></trkpt><trkpt lat="44.694614045603764" lon="8.02962604398938"><ele>174.33333333333334</ele><time>2026-04-12T07:12:41Z</time></trkpt><trkpt lat="44.694593935053234" lon="8.029525763358908"><ele>174.66666666666669</ele><time>2026-04-12T07:12:43Z</time></trkpt><trkpt lat="44.69454160376288" lon="8.029417627562637"><ele>175.0</ele><time>2026-04-12T07:12:45Z</time></trkpt><trkpt lat="44.69449125887808" lon="8.029317380587946"><ele>175.0</ele><time>2026-04-12T07:12:47Z</time></trkpt><trkpt lat="44.69443855388212" lon="8.029226188670247"><ele>175.0</ele><time>2026-04-12T07:12:49Z</time></trkpt><trkpt lat="44.69438807683914" lon="8.02913476862248"><ele>175.0</ele><time>2026-04-12T07:12:51Z</time></trkpt><trkpt lat="44.694353019274175" lon="8.02903169122845"><ele>175.0</ele><time>2026-04-12T07:12:53Z</time></trkpt><trkpt lat="44.69429870874736" lon="8.028929406808388"><ele>175.0</ele><time>2026-04-12T07:12:55Z</time></trkpt><trkpt lat="44.694262187422936" lon="8.028830130052903"><ele>175.0</ele><time>2026-04-12T07:12:57Z</time></trkpt><trkpt lat="44.694216298873144" lon="8.028748926383324"><ele>174.85714285714286</ele><time>2026-04-12T07:12:59Z</time></trkpt><trkpt lat="44.69417293054216" lon="8.028669815417343"><ele>174.71428571428572</ele><time>2026-04-12T07:13:01Z</time></trkpt><trkpt lat="44.69413796164199" lon="8.028587891872464"><ele>174.57142857142856</ele><time>2026-04-12T07:13:03Z</time></trkpt><trkpt lat="44.694097514816136" lon="8.028517131786117"><ele>174.42857142857144</ele><time>2026-04-12T07:13:05Z</time></trkpt><trkpt lat="44.694061647459" lon="8.028434921634883"><ele>174.28571428571428</ele><time>2026-04-12T07:13:07Z</time></trkpt><trkpt lat="44.69402252924873" lon="8.028350645243618"><ele>174.14285714285714</ele><time>2026-04-12T07:13:09Z</time></trkpt><trkpt lat="44.69398248956566" lon="8.028271222223962"><ele>174.0</ele><time>2026-04-12T07:13:11Z</time></trkpt><trkpt lat="44.69394623001278" lon="8.028179290640574"><ele>174.0</ele><time>2026-04-12T07:13:13Z</time></trkpt><trkpt lat="44.693900657778705" lon="8.028096206226131"><ele>174.0</ele><time>2026-04-12T07:13:15Z</time></trkpt><trkpt lat="44.69386218188701" lon="8.028005217609454"><ele>174.0</ele><time>2026-04-12T07:13:17Z</time></trkpt><trkpt lat="44.693806448301835" lon="8.027934427349438"><ele>174.0</ele><time>2026-04-12T07:13:19Z</time></trkpt><trkpt lat="44.69375887638624" lon="8.027854723418955"><ele>174.0</ele><time>2026-04-12T07:13:21Z</time></trkpt><trkpt lat="44.69371548204694" lon="8.027758674221651"><ele>174.0</ele><time>2026-04-12T07:13:23Z</time></trkpt><trkpt lat="44.69367421553024" lon="8.027662691717653"><ele>174.0</ele><time>2026-04-12T07:13:25Z</time></trkpt><trkpt lat="44.69363295171072" lon="8.02756775206489"><ele>174.0</ele><time>2026-04-12T07:13:27Z</time></trkpt><trkpt lat="44.6935899305706" lon="8.027479326833452"><ele>174.0</ele><time>2026-04-12T07:13:29Z</time></trkpt><trkpt lat="44.693547312238636" lon="8.02738706398284"><ele>174.0</ele><time>2026-04-12T07:13:31Z</time></trkpt><trkpt lat="44.69350319413298" lon="8.027291724050178"><ele>174.0</ele><time>2026-04-12T07:13:33Z</time></trkpt><trkpt lat="44.69345868284723" lon="8.027197213603424"><ele>174.0</ele><time>2026-04-12T07:13:35Z</time></trkpt><trkpt lat="44.69342257009652" lon="8.027103332999058"><ele>174.16666666666666</ele><time>2026-04-12T07:13:37Z</time></trkpt><trkpt lat="44.69338631957863" lon="8.027014731615001"><ele>174.33333333333334</ele><time>2026-04-12T07:13:39Z</time></trkpt><trkpt lat="44.693347140378634" lon="8.026924506564146"><ele>174.5</ele><time>2026-04-12T07:13:41Z</time></trkpt><trkpt lat="44.693307866899254" lon="8.026827813985511"><ele>174.66666666666669</ele><time>2026-04-12T07:13:43Z</time></trkpt><trkpt lat="44.69326602568663" lon="8.026734947938438"><ele>174.83333333333334</ele><time>2026-04-12T07:13:45Z</time></trkpt><trkpt lat="44.69322362252348" lon="8.026642565922767"><ele>175.0</ele><time>2026-04-12T07:13:47Z</time></trkpt><trkpt lat="44.69317800134226" lon="8.026554302933762"><ele>174.66666666666669</ele><time>2026-04-12T07:13:49Z</time></trkpt><trkpt lat="44.69313992079775" lon="8.026464664425523"><ele>174.33333333333334</ele><time>2026-04-12T07:13:51Z</time></trkpt><trkpt lat="44.69309884117176" lon="8.026370753837472"><ele>174.0</ele><time>2026-04-12T07:13:53Z</time></trkpt><trkpt lat="44.69305302218307" lon="8.026271073613685"><ele>173.66666666666666</ele><time>2026-04-12T07:13:55Z</time></trkpt><trkpt lat="44.69300875892313" lon="8.026169882978234"><ele>173.33333333333331</ele><time>2026-04-12T07:13:57Z</time></trkpt><trkpt lat="44.692963066623754" lon="8.02607369705922"><ele>173.0</ele><time>2026-04-12T07:13:59Z</time></trkpt><trkpt lat="44.69291883956015" lon="8.025984193592503"><ele>173.0</ele><time>2026-04-12T07:14:01Z</time></trkpt><trkpt lat="44.69288175705036" lon="8.025896251981882"><ele>173.0</ele><time>2026-04-12T07:14:03Z</time></trkpt><trkpt lat="44.69284380436283" lon="8.025806676638249"><ele>173.0</ele><time>2026-04-12T07:14:05Z</time></trkpt><trkpt lat="44.69280625130142" lon="8.02571127329583"><ele>173.0</ele><time>2026-04-12T07:14:07Z</time></trkpt><trkpt lat="44.69276428339447" lon="8.02562145691613"><ele>173.0</ele><time>2026-04-12T07:14:09Z</time></trkpt><trkpt lat="44.69272713434032" lon="8.02553463085275"><ele>173.0</ele><time>2026-04-12T07:14:11Z</time></trkpt><trkpt lat="44.69268942180996" lon="8.025450421583043"><ele>173.0</ele><time>2026-04-12T07:14:13Z</time></trkpt><trkpt lat="44.69264914661925" lon="8.025363738914457"><ele>173.14285714285714</ele><time>2026-04-12T07:14:15Z</time></trkpt><trkpt lat="44.69260604678853" lon="8.025271232293976"><ele>173.2857142857143</ele><time>2026-04-12T07:14:17Z</time></trkpt><trkpt lat="44.69256993313897" lon="8.025179265534787"><ele>173.42857142857144</ele><time>2026-04-12T07:14:19Z</time></trkpt><trkpt lat="44.692543003519845" lon="8.025086352730789"><ele>173.57142857142856</ele><time>2026-04-12T07:14:21Z</time></trkpt><trkpt lat="44.69251489763236" lon="8.025002631448078"><ele>173.71428571428572</ele><time>2026-04-12T07:14:23Z</time></trkpt><trkpt lat="44.69247583583641" lon="8.024919837810396"><ele>173.85714285714286</ele><time>2026-04-12T07:14:25Z</time></trkpt><trkpt lat="44.69243142346736" lon="8.024835119008243"><ele>174.0</ele><time>2026-04-12T07:14:27Z</time></trkpt><trkpt lat="44.69239090318959" lon="8.02474536064851"><ele>174.0</ele><time>2026-04-12T07:14:29Z</time></trkpt><trkpt lat="44.69233892467516" lon="8.024664375301784"><ele>174.0</ele><time>2026-04-12T07:14:31Z</time></trkpt><trkpt lat="44.6923012185347" lon="8.0245704392915"><ele>174.0</ele><time>2026-04-12T07:14:33Z</time></trkpt><trkpt lat="44.69226785795148" lon="8.024465757755177"><ele>174.0</ele><time>2026-04-12T07:14:35Z</time></trkpt><trkpt lat="44.69226115160029" lon="8.024351368971569"><ele>174.0</ele><time>2026-04-12T07:14:37Z</time></trkpt><trkpt lat="44.69221823727924" lon="8.024257146118394"><ele>174.0</ele><time>2026-04-12T07:14:39Z</time></trkpt><trkpt lat="44.69217521022828" lon="8.0241767854184"><ele>174.16666666666666</ele><time>2026-04-12T07:14:41Z</time></trkpt><trkpt lat="44.69212982404637" lon="8.024106144024383"><ele>174.33333333333334</ele><time>2026-04-12T07:14:43Z</time></trkpt><trkpt lat="44.69210205386395" lon="8.024008966387331"><ele>174.5</ele><time>2026-04-12T07:14:45Z</time></trkpt><trkpt lat="44.69205546304961" lon="8.02392363307455"><ele>174.66666666666669</ele><time>2026-04-12T07:14:47Z</time></trkpt><trkpt lat="44.692016656854946" lon="8.023831032325377"><ele>174.83333333333334</ele><time>2026-04-12T07:14:49Z</time></trkpt><trkpt lat="44.691976634734544" lon="8.023736964038932"><ele>175.0</ele><time>2026-04-12T07:14:51Z</time></trkpt><trkpt lat="44.691932789597686" lon="8.02364336547402"><ele>175.33333333333334</ele><time>2026-04-12T07:14:53Z</time></trkpt><trkpt lat="44.691891283932804" lon="8.023552447002894"><ele>175.66666666666669</ele><time>2026-04-12T07:14:55Z</time></trkpt><trkpt lat="44.6918524925098" lon="8.023456330295462"><ele>176.0</ele><time>2026-04-12T07:14:57Z</time></trkpt><trkpt lat="44.69180960156009" lon="8.02336828214723"><ele>176.33333333333334</ele><time>2026-04-12T07:14:59Z</time></trkpt><trkpt lat="44.69176992477471" lon="8.023275281111433"><ele>176.66666666666666</ele><time>2026-04-12T07:15:01Z</time></trkpt><trkpt lat="44.69173008366468" lon="8.023201450327532"><ele>177.0</ele><time>2026-04-12T07:15:03Z</time></trkpt><trkpt lat="44.69168419134237" lon="8.023096129330535"><ele>177.2857142857143</ele><time>2026-04-12T07:15:06Z</time></trkpt><trkpt lat="44.69165988068306" lon="8.023013127336394"><ele>177.57142857142856</ele><time>2026-04-12T07:15:08Z</time></trkpt><trkpt lat="44.69164127914285" lon="8.022907980692938"><ele>177.85714285714286</ele><time>2026-04-12T07:15:11Z</time></trkpt><trkpt lat="44.69160353543982" lon="8.022836442992975"><ele>178.14285714285717</ele><time>2026-04-12T07:15:14Z</time></trkpt><trkpt lat="44.691557049137856" lon="8.022759862374068"><ele>178.42857142857144</ele><time>2026-04-12T07:15:18Z</time></trkpt><trkpt lat="44.69148227348456" lon="8.022704894187065"><ele>178.71428571428572</ele><time>2026-04-12T07:15:21Z</time></trkpt><trkpt lat="44.69144684485938" lon="8.022617212192566"><ele>179.0</ele><time>2026-04-12T07:15:23Z</time></trkpt><trkpt lat="44.69141007683274" lon="8.022534019696241"><ele>178.5</ele><time>2026-04-12T07:15:25Z</time></trkpt><trkpt lat="44.691361061744786" lon="8.022463761324463"><ele>178.0</ele><time>2026-04-12T07:15:28Z</time></trkpt><trkpt lat="44.691315010073666" lon="8.022359377573663"><ele>177.5</ele><time>2026-04-12T07:15:31Z</time></trkpt><trkpt lat="44.69126435390938" lon="8.022266009549163"><ele>177.0</ele><time>2026-04-12T07:15:34Z</time></trkpt><trkpt lat="44.691221211735304" lon="8.022151569204643"><ele>176.5</ele><time>2026-04-12T07:15:37Z</time></trkpt><trkpt lat="44.69117975674112" lon="8.02208148247805"><ele>176.0</ele><time>2026-04-12T07:15:39Z</time></trkpt><trkpt lat="44.691146864184084" lon="8.02199926430062"><ele>176.0</ele><time>2026-04-12T07:15:41Z</time></trkpt><trkpt lat="44.69110594151229" lon="8.021917888356676"><ele>176.0</ele><time>2026-04-12T07:15:43Z</time></trkpt><trkpt lat="44.69106286765215" lon="8.021832207817315"><ele>176.0</ele><time>2026-04-12T07:15:45Z</time></trkpt><trkpt lat="44.69102158693361" lon="8.02174022445614"><ele>176.0</ele><time>2026-04-12T07:15:47Z</time></trkpt><trkpt lat="44.69097621577897" lon="8.021650774505149"><ele>176.0</ele><time>2026-04-12T07:15:49Z</time></trkpt><trkpt lat="44.69093253399637" lon="8.021560413120927"><ele>176.0</ele><time>2026-04-12T07:15:51Z</time></trkpt><trkpt lat="44.6908912046591" lon="8.021468223264996"><ele>175.66666666666666</ele><time>2026-04-12T07:15:53Z</time></trkpt><trkpt lat="44.69084387566838" lon="8.021376565388097"><ele>175.33333333333331</ele><time>2026-04-12T07:15:55Z</time></trkpt><trkpt lat="44.69079329625004" lon="8.021285792671064"><ele>175.0</ele><time>2026-04-12T07:15:57Z</time></trkpt><trkpt lat="44.69074317853793" lon="8.021191087938945"><ele>174.66666666666666</ele><time>2026-04-12T07:15:59Z</time></trkpt><trkpt lat="44.690698420959144" lon="8.021088481043323"><ele>174.33333333333334</ele><time>2026-04-12T07:16:01Z</time></trkpt><trkpt lat="44.69064395754497" lon="8.020992107547572"><ele>174.0</ele><time>2026-04-12T07:16:03Z</time></trkpt><trkpt lat="44.6905907979505" lon="8.020897939044586"><ele>174.16666666666666</ele><time>2026-04-12T07:16:05Z</time></trkpt><trkpt lat="44.69054245231558" lon="8.020800586541528"><ele>174.33333333333334</ele><time>2026-04-12T07:16:07Z</time></trkpt><trkpt lat="44.69049272504425" lon="8.020704656005519"><ele>174.5</ele><time>2026-04-12T07:16:09Z</time></trkpt><trkpt lat="44.690434971069216" lon="8.02061690855037"><ele>174.66666666666669</ele><time>2026-04-12T07:16:11Z</time></trkpt><trkpt lat="44.690378834122136" lon="8.020530987220138"><ele>174.83333333333334</ele><time>2026-04-12T07:16:13Z</time></trkpt><trkpt lat="44.69033162237975" lon="8.020448551597232"><ele>175.0</ele><time>2026-04-12T07:16:15Z</time></trkpt><trkpt lat="44.690280228018885" lon="8.020369398863371"><ele>175.0</ele><time>2026-04-12T07:16:17Z</time></trkpt><trkpt lat="44.69022596276132" lon="8.020295703024248"><ele>175.0</ele><time>2026-04-12T07:16:19Z</time></trkpt><trkpt lat="44.690183819078726" lon="8.020218202974133"><ele>175.0</ele><time>2026-04-12T07:16:21Z</time></trkpt><trkpt lat="44.6901330820928" lon="8.02013717922942"><ele>175.0</ele><time>2026-04-12T07:16:23Z</time></trkpt><trkpt lat="44.69008216691793" lon="8.020055791150716"><ele>175.0</ele><time>2026-04-12T07:16:25Z</time></trkpt><trkpt lat="44.6900335302699" lon="8.019968219476677"><ele>175.0</ele><time>2026-04-12T07:16:27Z</time></trkpt><trkpt lat="44.68998209503196" lon="8.019881093671165"><ele>175.0</ele><time>2026-04-12T07:16:29Z</time></trkpt><trkpt lat="44.68993033492578" lon="8.019795124701039"><ele>175.0</ele><time>2026-04-12T07:16:31Z</time></trkpt><trkpt lat="44.68987833746276" lon="8.019706115421583"><ele>175.0</ele><time>2026-04-12T07:16:33Z</time></trkpt><trkpt lat="44.689826086942425" lon="8.019621177335456"><ele>175.0</ele><time>2026-04-12T07:16:35Z</time></trkpt><trkpt lat="44.68977598945451" lon="8.019535602897522"><ele>175.0</ele><time>2026-04-12T07:16:37Z</time></trkpt><trkpt lat="44.689728923175515" lon="8.019448507638877"><ele>175.0</ele><time>2026-04-12T07:16:39Z</time></trkpt><trkpt lat="44.68967758362392" lon="8.019369069081394"><ele>175.0</ele><time>2026-04-12T07:16:41Z</time></trkpt><trkpt lat="44.68963132194869" lon="8.019290489132603"><ele>175.0</ele><time>2026-04-12T07:16:43Z</time></trkpt><trkpt lat="44.68959165490673" lon="8.019216418517695"><ele>175.0</ele><time>2026-04-12T07:16:45Z</time></trkpt><trkpt lat="44.68954917690445" lon="8.019121326327742"><ele>175.0</ele><time>2026-04-12T07:16:48Z</time></trkpt><trkpt lat="44.68955063389916" lon="8.019004097793255"><ele>175.0</ele><time>2026-04-12T07:16:51Z</time></trkpt><trkpt lat="44.68951230546606" lon="8.018914808459378"><ele>175.0</ele><time>2026-04-12T07:16:53Z</time></trkpt><trkpt lat="44.6894626688602" lon="8.018833651778111"><ele>175.0</ele><time>2026-04-12T07:16:55Z</time></trkpt><trkpt lat="44.68943639113381" lon="8.018728776607182"><ele>175.0</ele><time>2026-04-12T07:16:57Z</time></trkpt><trkpt lat="44.689395672311726" lon="8.018640393158861"><ele>175.0</ele><time>2026-04-12T07:16:59Z</time></trkpt><trkpt lat="44.6893209105171" lon="8.018575187979055"><ele>175.0</ele><time>2026-04-12T07:17:01Z</time></trkpt><trkpt lat="44.68927282373327" lon="8.01850475477848"><ele>175.0</ele><time>2026-04-12T07:17:03Z</time></trkpt><trkpt lat="44.689236974059426" lon="8.018425512191332"><ele>175.0</ele><time>2026-04-12T07:17:05Z</time></trkpt><trkpt lat="44.68920306476776" lon="8.01834127642441"><ele>175.0</ele><time>2026-04-12T07:17:07Z</time></trkpt><trkpt lat="44.689169808935084" lon="8.018256701812293"><ele>175.0</ele><time>2026-04-12T07:17:09Z</time></trkpt><trkpt lat="44.689131535585396" lon="8.018169678127244"><ele>175.0</ele><time>2026-04-12T07:17:11Z</time></trkpt><trkpt lat="44.689086302194674" lon="8.018083281753313"><ele>175.0</ele><time>2026-04-12T07:17:13Z</time></trkpt><trkpt lat="44.68905172537013" lon="8.017981360136659"><ele>175.0</ele><time>2026-04-12T07:17:15Z</time></trkpt><trkpt lat="44.68900651499416" lon="8.017878048554172"><ele>175.0</ele><time>2026-04-12T07:17:17Z</time></trkpt><trkpt lat="44.688962935250686" lon="8.017765744372394"><ele>175.0</ele><time>2026-04-12T07:17:19Z</time></trkpt><trkpt lat="44.68890870946611" lon="8.01765644977981"><ele>175.0</ele><time>2026-04-12T07:17:21Z</time></trkpt><trkpt lat="44.68885872404552" lon="8.017544610294195"><ele>175.0</ele><time>2026-04-12T07:17:23Z</time></trkpt><trkpt lat="44.68881369259764" lon="8.017429209090594"><ele>175.0</ele><time>2026-04-12T07:17:25Z</time></trkpt><trkpt lat="44.68875809186155" lon="8.017317035360863"><ele>175.0</ele><time>2026-04-12T07:17:27Z</time></trkpt><trkpt lat="44.68870517194844" lon="8.01720267095646"><ele>175.0</ele><time>2026-04-12T07:17:29Z</time></trkpt><trkpt lat="44.68864652343197" lon="8.017091536147465"><ele>175.0</ele><time>2026-04-12T07:17:31Z</time></trkpt><trkpt lat="44.688599015868434" lon="8.016981935932062"><ele>175.0</ele><time>2026-04-12T07:17:33Z</time></trkpt><trkpt lat="44.68854631078335" lon="8.016872733726544"><ele>175.0</ele><time>2026-04-12T07:17:35Z</time></trkpt><trkpt lat="44.68849488441217" lon="8.016767027721977"><ele>175.0</ele><time>2026-04-12T07:17:37Z</time></trkpt><trkpt lat="44.68844848887782" lon="8.016651946511749"><ele>175.0</ele><time>2026-04-12T07:17:39Z</time></trkpt><trkpt lat="44.68838970811826" lon="8.016541628620345"><ele>175.2</ele><time>2026-04-12T07:17:41Z</time></trkpt><trkpt lat="44.68833929399656" lon="8.016432430937511"><ele>175.4</ele><time>2026-04-12T07:17:43Z</time></trkpt><trkpt lat="44.688284533565934" lon="8.016317569264448"><ele>175.60000000000002</ele><time>2026-04-12T07:17:45Z</time></trkpt><trkpt lat="44.688232859697635" lon="8.016219475849665"><ele>175.8</ele><time>2026-04-12T07:17:47Z</time></trkpt><trkpt lat="44.68817032261824" lon="8.01610093161486"><ele>176.0</ele><time>2026-04-12T07:17:49Z</time></trkpt><trkpt lat="44.688117385432754" lon="8.015992922030941"><ele>176.0</ele><time>2026-04-12T07:17:51Z</time></trkpt><trkpt lat="44.68806423384326" lon="8.015877011059686"><ele>176.0</ele><time>2026-04-12T07:17:53Z</time></trkpt><trkpt lat="44.68800560419218" lon="8.01577231935366"><ele>176.0</ele><time>2026-04-12T07:17:55Z</time></trkpt><trkpt lat="44.68795742740194" lon="8.01565624158947"><ele>176.0</ele><time>2026-04-12T07:17:57Z</time></trkpt><trkpt lat="44.68790278727852" lon="8.015544238172287"><ele>176.0</ele><time>2026-04-12T07:17:59Z</time></trkpt><trkpt lat="44.687844893738564" lon="8.015433020173313"><ele>175.60000000000002</ele><time>2026-04-12T07:18:01Z</time></trkpt><trkpt lat="44.68778962570191" lon="8.01532146320417"><ele>175.2</ele><time>2026-04-12T07:18:03Z</time></trkpt><trkpt lat="44.687735033574235" lon="8.015209291261762"><ele>174.8</ele><time>2026-04-12T07:18:05Z</time></trkpt><trkpt lat="44.68767814647861" lon="8.015095252199067"><ele>174.39999999999998</ele><time>2026-04-12T07:18:07Z</time></trkpt><trkpt lat="44.687624033972995" lon="8.014977330431284"><ele>174.0</ele><time>2026-04-12T07:18:09Z</time></trkpt><trkpt lat="44.68756999645373" lon="8.014871819566281"><ele>173.79999999999998</ele><time>2026-04-12T07:18:11Z</time></trkpt><trkpt lat="44.68751814568666" lon="8.014763613480167"><ele>173.6</ele><time>2026-04-12T07:18:13Z</time></trkpt><trkpt lat="44.68746913386461" lon="8.014656843789364"><ele>173.4</ele><time>2026-04-12T07:18:15Z</time></trkpt><trkpt lat="44.68742037457261" lon="8.014561600023146"><ele>173.2</ele><time>2026-04-12T07:18:17Z</time></trkpt><trkpt lat="44.68736454178341" lon="8.014459535590913"><ele>173.0</ele><time>2026-04-12T07:18:19Z</time></trkpt><trkpt lat="44.68730084663952" lon="8.014336503224989"><ele>173.0</ele><time>2026-04-12T07:18:21Z</time></trkpt><trkpt lat="44.6872373839313" lon="8.014201937676589"><ele>173.0</ele><time>2026-04-12T07:18:23Z</time></trkpt><trkpt lat="44.687172135704685" lon="8.01406702273156"><ele>173.0</ele><time>2026-04-12T07:18:25Z</time></trkpt><trkpt lat="44.68710917768321" lon="8.013935593189327"><ele>173.0</ele><time>2026-04-12T07:18:27Z</time></trkpt><trkpt lat="44.68704399152388" lon="8.013804472881686"><ele>173.25</ele><time>2026-04-12T07:18:29Z</time></trkpt><trkpt lat="44.68697929509451" lon="8.013665162949534"><ele>173.5</ele><time>2026-04-12T07:18:31Z</time></trkpt><trkpt lat="44.68691400632643" lon="8.013531820229863"><ele>173.75</ele><time>2026-04-12T07:18:33Z</time></trkpt><trkpt lat="44.68684876748999" lon="8.013394362032873"><ele>174.0</ele><time>2026-04-12T07:18:35Z</time></trkpt><trkpt lat="44.68678270425001" lon="8.01326025998645"><ele>174.0</ele><time>2026-04-12T07:18:37Z</time></trkpt><trkpt lat="44.68671773962049" lon="8.01312397710888"><ele>174.0</ele><time>2026-04-12T07:18:39Z</time></trkpt><trkpt lat="44.686651753852544" lon="8.012992094495646"><ele>174.0</ele><time>2026-04-12T07:18:41Z</time></trkpt><trkpt lat="44.6865876031477" lon="8.012854510095785"><ele>174.0</ele><time>2026-04-12T07:18:43Z</time></trkpt><trkpt lat="44.68652639860873" lon="8.012714063532998"><ele>174.0</ele><time>2026-04-12T07:18:45Z</time></trkpt><trkpt lat="44.68646768714348" lon="8.012574790630069"><ele>174.0</ele><time>2026-04-12T07:18:47Z</time></trkpt><trkpt lat="44.68640617205092" lon="8.01243556701707"><ele>174.0</ele><time>2026-04-12T07:18:49Z</time></trkpt><trkpt lat="44.68635625999686" lon="8.012293678775187"><ele>174.0</ele><time>2026-04-12T07:18:51Z</time></trkpt><trkpt lat="44.68629935806382" lon="8.012158881450913"><ele>174.2</ele><time>2026-04-12T07:18:53Z</time></trkpt><trkpt lat="44.686244046706086" lon="8.012032695219654"><ele>174.39999999999998</ele><time>2026-04-12T07:18:55Z</time></trkpt><trkpt lat="44.68619423791283" lon="8.011901488782085"><ele>174.6</ele><time>2026-04-12T07:18:57Z</time></trkpt><trkpt lat="44.68613856717455" lon="8.011771213744943"><ele>174.8</ele><time>2026-04-12T07:18:59Z</time></trkpt><trkpt lat="44.686081948352175" lon="8.011633471538103"><ele>175.0</ele><time>2026-04-12T07:19:01Z</time></trkpt><trkpt lat="44.68602455697876" lon="8.011492587826229"><ele>175.25</ele><time>2026-04-12T07:19:03Z</time></trkpt><trkpt lat="44.68596541226744" lon="8.01135280103215"><ele>175.5</ele><time>2026-04-12T07:19:05Z</time></trkpt><trkpt lat="44.68590612387331" lon="8.011214198904115"><ele>175.75</ele><time>2026-04-12T07:19:07Z</time></trkpt><trkpt lat="44.6858500206835" lon="8.011071745390785"><ele>176.0</ele><time>2026-04-12T07:19:09Z</time></trkpt><trkpt lat="44.68578945065635" lon="8.010931875051993"><ele>176.0</ele><time>2026-04-12T07:19:11Z</time></trkpt><trkpt lat="44.68573565090732" lon="8.010788702165422"><ele>176.0</ele><time>2026-04-12T07:19:13Z</time></trkpt><trkpt lat="44.68567460203432" lon="8.010650162913953"><ele>176.0</ele><time>2026-04-12T07:19:15Z</time></trkpt><trkpt lat="44.68561556466903" lon="8.010499501606878"><ele>176.0</ele><time>2026-04-12T07:19:17Z</time></trkpt><trkpt lat="44.68555397828765" lon="8.010354543299988"><ele>176.0</ele><time>2026-04-12T07:19:19Z</time></trkpt><trkpt lat="44.68549737412803" lon="8.010215803475573"><ele>176.0</ele><time>2026-04-12T07:19:21Z</time></trkpt><trkpt lat="44.68544406643491" lon="8.01008657069285"><ele>176.0</ele><time>2026-04-12T07:19:23Z</time></trkpt><trkpt lat="44.685391685253414" lon="8.009961094597308"><ele>176.0</ele><time>2026-04-12T07:19:25Z</time></trkpt><trkpt lat="44.68533857261778" lon="8.009833919847107"><ele>176.0</ele><time>2026-04-12T07:19:27Z</time></trkpt><trkpt lat="44.68528830859899" lon="8.009699444586932"><ele>175.75</ele><time>2026-04-12T07:19:29Z</time></trkpt><trkpt lat="44.68522721958674" lon="8.009563904788626"><ele>175.5</ele><time>2026-04-12T07:19:31Z</time></trkpt><trkpt lat="44.68517034702386" lon="8.009426925894507"><ele>175.25</ele><time>2026-04-12T07:19:33Z</time></trkpt><trkpt lat="44.68511331474655" lon="8.009282437859905"><ele>175.0</ele><time>2026-04-12T07:19:35Z</time></trkpt><trkpt lat="44.68505129556866" lon="8.009130806639963"><ele>175.75</ele><time>2026-04-12T07:19:37Z</time></trkpt><trkpt lat="44.68499427644651" lon="8.008978289962808"><ele>176.5</ele><time>2026-04-12T07:19:39Z</time></trkpt><trkpt lat="44.68493735377253" lon="8.00882335066764"><ele>177.25</ele><time>2026-04-12T07:19:41Z</time></trkpt><trkpt lat="44.68488792834375" lon="8.00866868728706"><ele>178.0</ele><time>2026-04-12T07:19:43Z</time></trkpt><trkpt lat="44.684845721913604" lon="8.00850893209673"><ele>177.99999999999997</ele><time>2026-04-12T07:19:45Z</time></trkpt><trkpt lat="44.68481985079881" lon="8.00842702418623"><ele>178.0</ele><time>2026-04-12T07:19:46Z</time></trkpt><trkpt lat="44.68479857579277" lon="8.008338240007289"><ele>178.0</ele><time>2026-04-12T07:19:47Z</time></trkpt><trkpt lat="44.684780915657875" lon="8.00824522137182"><ele>178.0</ele><time>2026-04-12T07:19:48Z</time></trkpt><trkpt lat="44.68476051106978" lon="8.008154306386041"><ele>178.0</ele><time>2026-04-12T07:19:49Z</time></trkpt><trkpt lat="44.68474189659821" lon="8.008064240409665"><ele>177.99999999999997</ele><time>2026-04-12T07:19:50Z</time></trkpt><trkpt lat="44.68472425517532" lon="8.007976266725745"><ele>178.0</ele><time>2026-04-12T07:19:51Z</time></trkpt><trkpt lat="44.68469313182571" lon="8.007815960416421"><ele>178.0</ele><time>2026-04-12T07:19:53Z</time></trkpt><trkpt lat="44.68466004502117" lon="8.00765944141484"><ele>178.0</ele><time>2026-04-12T07:19:55Z</time></trkpt><trkpt lat="44.68462735982351" lon="8.007503279456103"><ele>178.0</ele><time>2026-04-12T07:19:57Z</time></trkpt><trkpt lat="44.684596906944115" lon="8.007344819324478"><ele>178.0</ele><time>2026-04-12T07:19:59Z</time></trkpt><trkpt lat="44.68456491474628" lon="8.00719453894334"><ele>177.60000000000002</ele><time>2026-04-12T07:20:01Z</time></trkpt><trkpt lat="44.68453419130504" lon="8.007041948471379"><ele>177.20000000000002</ele><time>2026-04-12T07:20:03Z</time></trkpt><trkpt lat="44.68450507335816" lon="8.006892315989099"><ele>176.8</ele><time>2026-04-12T07:20:05Z</time></trkpt><trkpt lat="44.68448437022901" lon="8.006747093998799"><ele>176.4</ele><time>2026-04-12T07:20:07Z</time></trkpt><trkpt lat="44.68451509785544" lon="8.006589830316909"><ele>176.0</ele><time>2026-04-12T07:20:09Z</time></trkpt><trkpt lat="44.68459757531971" lon="8.006472722114255"><ele>175.83333333333331</ele><time>2026-04-12T07:20:11Z</time></trkpt><trkpt lat="44.68468602405188" lon="8.006360758870544"><ele>175.66666666666666</ele><time>2026-04-12T07:20:13Z</time></trkpt><trkpt lat="44.6847341423659" lon="8.006200448956175"><ele>175.5</ele><time>2026-04-12T07:20:15Z</time></trkpt><trkpt lat="44.68473265723467" lon="8.006108441586655"><ele>175.33333333333334</ele><time>2026-04-12T07:20:16Z</time></trkpt><trkpt lat="44.68471437358601" lon="8.006023620998631"><ele>175.16666666666669</ele><time>2026-04-12T07:20:17Z</time></trkpt><trkpt lat="44.68467916407793" lon="8.00594749403712"><ele>175.0</ele><time>2026-04-12T07:20:18Z</time></trkpt><trkpt lat="44.68459673737829" lon="8.005826909072585"><ele>175.0</ele><time>2026-04-12T07:20:20Z</time></trkpt><trkpt lat="44.68450653707853" lon="8.005724531052808"><ele>175.0</ele><time>2026-04-12T07:20:22Z</time></trkpt><trkpt lat="44.68442551103352" lon="8.005639150689976"><ele>175.0</ele><time>2026-04-12T07:20:24Z</time></trkpt><trkpt lat="44.684355104993294" lon="8.00556443191249"><ele>175.0</ele><time>2026-04-12T07:20:26Z</time></trkpt><trkpt lat="44.68429182604281" lon="8.005493361645614"><ele>175.0</ele><time>2026-04-12T07:20:27Z</time></trkpt><trkpt lat="44.684199412458085" lon="8.00537896532109"><ele>175.2</ele><time>2026-04-12T07:20:29Z</time></trkpt><trkpt lat="44.68412054312285" lon="8.005265809014455"><ele>175.4</ele><time>2026-04-12T07:20:31Z</time></trkpt><trkpt lat="44.684052011271845" lon="8.005155363646967"><ele>175.60000000000002</ele><time>2026-04-12T07:20:33Z</time></trkpt><trkpt lat="44.68398522131973" lon="8.005036302705474"><ele>175.8</ele><time>2026-04-12T07:20:35Z</time></trkpt><trkpt lat="44.68392267610327" lon="8.004905620310803"><ele>176.0</ele><time>2026-04-12T07:20:37Z</time></trkpt><trkpt lat="44.68385941607194" lon="8.004794982507493"><ele>176.0</ele><time>2026-04-12T07:20:39Z</time></trkpt><trkpt lat="44.68378311715394" lon="8.004691487769636"><ele>176.0</ele><time>2026-04-12T07:20:41Z</time></trkpt><trkpt lat="44.68371445599042" lon="8.004585128118896"><ele>176.0</ele><time>2026-04-12T07:20:43Z</time></trkpt><trkpt lat="44.68365660785251" lon="8.004457286473908"><ele>176.0</ele><time>2026-04-12T07:20:45Z</time></trkpt><trkpt lat="44.68359941459434" lon="8.004330413509194"><ele>176.0</ele><time>2026-04-12T07:20:47Z</time></trkpt><trkpt lat="44.683547852509776" lon="8.004205762459812"><ele>175.8</ele><time>2026-04-12T07:20:49Z</time></trkpt><trkpt lat="44.68350162869627" lon="8.004100314796759"><ele>175.60000000000002</ele><time>2026-04-12T07:20:51Z</time></trkpt><trkpt lat="44.68345255459463" lon="8.003990764665103"><ele>175.4</ele><time>2026-04-12T07:20:53Z</time></trkpt><trkpt lat="44.683399488134505" lon="8.003873275644288"><ele>175.2</ele><time>2026-04-12T07:20:55Z</time></trkpt><trkpt lat="44.68334751794558" lon="8.00376424714524"><ele>175.0</ele><time>2026-04-12T07:20:57Z</time></trkpt><trkpt lat="44.68329314208305" lon="8.003657334529288"><ele>175.0</ele><time>2026-04-12T07:20:59Z</time></trkpt><trkpt lat="44.6832425334823" lon="8.003538079807258"><ele>175.0</ele><time>2026-04-12T07:21:01Z</time></trkpt><trkpt lat="44.68318252392577" lon="8.003419365780179"><ele>175.0</ele><time>2026-04-12T07:21:03Z</time></trkpt><trkpt lat="44.6831220066263" lon="8.003297891468893"><ele>175.0</ele><time>2026-04-12T07:21:05Z</time></trkpt><trkpt lat="44.68306539471962" lon="8.003177090885963"><ele>175.0</ele><time>2026-04-12T07:21:07Z</time></trkpt><trkpt lat="44.683005724968055" lon="8.003062848582791"><ele>175.0</ele><time>2026-04-12T07:21:09Z</time></trkpt><trkpt lat="44.682943667585384" lon="8.002940246387526"><ele>175.0</ele><time>2026-04-12T07:21:11Z</time></trkpt><trkpt lat="44.682880348289096" lon="8.002815132638043"><ele>175.0</ele><time>2026-04-12T07:21:13Z</time></trkpt><trkpt lat="44.682823555161974" lon="8.002687350722915"><ele>175.0</ele><time>2026-04-12T07:21:15Z</time></trkpt><trkpt lat="44.682761891293126" lon="8.00256141861712"><ele>175.0</ele><time>2026-04-12T07:21:17Z</time></trkpt><trkpt lat="44.682695853287925" lon="8.002433466348847"><ele>175.0</ele><time>2026-04-12T07:21:19Z</time></trkpt><trkpt lat="44.682631924661614" lon="8.002297782432823"><ele>175.0</ele><time>2026-04-12T07:21:21Z</time></trkpt><trkpt lat="44.68256751497235" lon="8.002169313449688"><ele>175.0</ele><time>2026-04-12T07:21:23Z</time></trkpt><trkpt lat="44.68250628075133" lon="8.002040335506427"><ele>175.0</ele><time>2026-04-12T07:21:25Z</time></trkpt><trkpt lat="44.682445697537965" lon="8.001916225992808"><ele>175.0</ele><time>2026-04-12T07:21:27Z</time></trkpt><trkpt lat="44.68238506229815" lon="8.001792235066189"><ele>175.0</ele><time>2026-04-12T07:21:29Z</time></trkpt><trkpt lat="44.682330727014815" lon="8.001681025364629"><ele>175.0</ele><time>2026-04-12T07:21:31Z</time></trkpt><trkpt lat="44.682277142207724" lon="8.001576503605637"><ele>175.0</ele><time>2026-04-12T07:21:33Z</time></trkpt><trkpt lat="44.68222420966589" lon="8.001465432891992"><ele>175.0</ele><time>2026-04-12T07:21:35Z</time></trkpt><trkpt lat="44.68216362101555" lon="8.00135076419766"><ele>175.0</ele><time>2026-04-12T07:21:37Z</time></trkpt><trkpt lat="44.682104650887034" lon="8.0012270223937"><ele>175.0</ele><time>2026-04-12T07:21:39Z</time></trkpt><trkpt lat="44.68204284344866" lon="8.00109794656451"><ele>175.0</ele><time>2026-04-12T07:21:41Z</time></trkpt><trkpt lat="44.68197975663807" lon="8.000968223457166"><ele>175.0</ele><time>2026-04-12T07:21:43Z</time></trkpt><trkpt lat="44.6819129826175" lon="8.000833301735701"><ele>175.0</ele><time>2026-04-12T07:21:45Z</time></trkpt><trkpt lat="44.68184061167527" lon="8.000695384969589"><ele>175.5</ele><time>2026-04-12T07:21:47Z</time></trkpt><trkpt lat="44.68178138910873" lon="8.000564087417986"><ele>176.0</ele><time>2026-04-12T07:21:49Z</time></trkpt><trkpt lat="44.681715096575864" lon="8.000431423778853"><ele>176.5</ele><time>2026-04-12T07:21:51Z</time></trkpt><trkpt lat="44.681646494681324" lon="8.00029683163841"><ele>177.0</ele><time>2026-04-12T07:21:53Z</time></trkpt><trkpt lat="44.681577612190935" lon="8.000167606896266"><ele>177.0</ele><time>2026-04-12T07:21:55Z</time></trkpt><trkpt lat="44.68152317114399" lon="8.000038824828357"><ele>177.0</ele><time>2026-04-12T07:21:57Z</time></trkpt><trkpt lat="44.681465402749765" lon="7.99991159932492"><ele>177.0</ele><time>2026-04-12T07:21:59Z</time></trkpt><trkpt lat="44.68140174097187" lon="7.999784554124257"><ele>177.0</ele><time>2026-04-12T07:22:01Z</time></trkpt><trkpt lat="44.68133705275846" lon="7.999650294388674"><ele>177.0</ele><time>2026-04-12T07:22:03Z</time></trkpt><trkpt lat="44.68127207463696" lon="7.999518170116857"><ele>177.0</ele><time>2026-04-12T07:22:05Z</time></trkpt><trkpt lat="44.681206300154564" lon="7.999386475277847"><ele>177.0</ele><time>2026-04-12T07:22:07Z</time></trkpt><trkpt lat="44.681141070378104" lon="7.999249659940866"><ele>177.0</ele><time>2026-04-12T07:22:09Z</time></trkpt><trkpt lat="44.681073348533296" lon="7.999119068844529"><ele>177.0</ele><time>2026-04-12T07:22:11Z</time></trkpt><trkpt lat="44.68101061232135" lon="7.998990701456051"><ele>176.75</ele><time>2026-04-12T07:22:13Z</time></trkpt><trkpt lat="44.68094831116269" lon="7.998853774463755"><ele>176.5</ele><time>2026-04-12T07:22:15Z</time></trkpt><trkpt lat="44.6808840300778" lon="7.9987177266706855"><ele>176.25</ele><time>2026-04-12T07:22:17Z</time></trkpt><trkpt lat="44.68081942688675" lon="7.9985862757947785"><ele>176.0</ele><time>2026-04-12T07:22:19Z</time></trkpt><trkpt lat="44.68075557314618" lon="7.998456810605951"><ele>176.0</ele><time>2026-04-12T07:22:21Z</time></trkpt><trkpt lat="44.680693833897955" lon="7.998338807538312"><ele>176.0</ele><time>2026-04-12T07:22:23Z</time></trkpt><trkpt lat="44.68063073460059" lon="7.998207401827265"><ele>176.0</ele><time>2026-04-12T07:22:25Z</time></trkpt><trkpt lat="44.68056535278952" lon="7.998074573084201"><ele>176.0</ele><time>2026-04-12T07:22:27Z</time></trkpt><trkpt lat="44.68049636965906" lon="7.9979323664446005"><ele>176.20000000000002</ele><time>2026-04-12T07:22:29Z</time></trkpt><trkpt lat="44.680459485099455" lon="7.997859348529512"><ele>176.4</ele><time>2026-04-12T07:22:30Z</time></trkpt><trkpt lat="44.68038810322435" lon="7.997715914668005"><ele>176.6</ele><time>2026-04-12T07:22:32Z</time></trkpt><trkpt lat="44.68032429473787" lon="7.997572622348196"><ele>176.8</ele><time>2026-04-12T07:22:34Z</time></trkpt><trkpt lat="44.68028685049532" lon="7.997499807278651"><ele>177.0</ele><time>2026-04-12T07:22:35Z</time></trkpt><trkpt lat="44.68022316630333" lon="7.997364204145965"><ele>177.5</ele><time>2026-04-12T07:22:37Z</time></trkpt><trkpt lat="44.6801547991535" lon="7.997228275141616"><ele>178.0</ele><time>2026-04-12T07:22:39Z</time></trkpt><trkpt lat="44.680090210615184" lon="7.997098570849737"><ele>178.5</ele><time>2026-04-12T07:22:41Z</time></trkpt><trkpt lat="44.6800248704586" lon="7.996965625169863"><ele>179.0</ele><time>2026-04-12T07:22:43Z</time></trkpt><trkpt lat="44.67996404342767" lon="7.996835153972008"><ele>179.0</ele><time>2026-04-12T07:22:45Z</time></trkpt><trkpt lat="44.679898233965105" lon="7.996704111640308"><ele>179.0</ele><time>2026-04-12T07:22:47Z</time></trkpt><trkpt lat="44.67983503351848" lon="7.996566131420308"><ele>179.0</ele><time>2026-04-12T07:22:49Z</time></trkpt><trkpt lat="44.6797694684947" lon="7.996437822154008"><ele>179.0</ele><time>2026-04-12T07:22:51Z</time></trkpt><trkpt lat="44.679732814500426" lon="7.996362543433062"><ele>179.0</ele><time>2026-04-12T07:22:52Z</time></trkpt><trkpt lat="44.679659495713814" lon="7.996228442621465"><ele>179.25</ele><time>2026-04-12T07:22:54Z</time></trkpt><trkpt lat="44.679595731661045" lon="7.996091789390551"><ele>179.5</ele><time>2026-04-12T07:22:56Z</time></trkpt><trkpt lat="44.6795338617145" lon="7.995969320534528"><ele>179.75</ele><time>2026-04-12T07:22:58Z</time></trkpt><trkpt lat="44.679476888311164" lon="7.99582980248147"><ele>180.0</ele><time>2026-04-12T07:23:00Z</time></trkpt><trkpt lat="44.679411282745406" lon="7.99569432957606"><ele>180.25</ele><time>2026-04-12T07:23:02Z</time></trkpt><trkpt lat="44.67934417896882" lon="7.995557283454556"><ele>180.5</ele><time>2026-04-12T07:23:04Z</time></trkpt><trkpt lat="44.67927909322927" lon="7.995418157630598"><ele>180.75</ele><time>2026-04-12T07:23:06Z</time></trkpt><trkpt lat="44.67920751169491" lon="7.995282106529739"><ele>181.0</ele><time>2026-04-12T07:23:08Z</time></trkpt><trkpt lat="44.6791464375371" lon="7.995142558132968"><ele>181.0</ele><time>2026-04-12T07:23:10Z</time></trkpt><trkpt lat="44.679106972194226" lon="7.995070867214474"><ele>181.0</ele><time>2026-04-12T07:23:11Z</time></trkpt><trkpt lat="44.67903912383642" lon="7.994931416614188"><ele>181.0</ele><time>2026-04-12T07:23:13Z</time></trkpt><trkpt lat="44.678967828741335" lon="7.99478858570879"><ele>181.0</ele><time>2026-04-12T07:23:15Z</time></trkpt><trkpt lat="44.67890311693957" lon="7.9946517005922795"><ele>181.0</ele><time>2026-04-12T07:23:17Z</time></trkpt><trkpt lat="44.67883074191427" lon="7.99451168523923"><ele>181.0</ele><time>2026-04-12T07:23:19Z</time></trkpt><trkpt lat="44.678765874025096" lon="7.994369081704375"><ele>181.0</ele><time>2026-04-12T07:23:21Z</time></trkpt><trkpt lat="44.67872898652532" lon="7.9942971968051335"><ele>181.0</ele><time>2026-04-12T07:23:22Z</time></trkpt><trkpt lat="44.67866021829053" lon="7.994158429254948"><ele>181.0</ele><time>2026-04-12T07:23:24Z</time></trkpt><trkpt lat="44.67859244875079" lon="7.994018830438305"><ele>181.0</ele><time>2026-04-12T07:23:26Z</time></trkpt><trkpt lat="44.67852330795709" lon="7.99387920743813"><ele>180.75</ele><time>2026-04-12T07:23:28Z</time></trkpt><trkpt lat="44.67845847067997" lon="7.993740921234077"><ele>180.5</ele><time>2026-04-12T07:23:30Z</time></trkpt><trkpt lat="44.67839180026114" lon="7.993607638923664"><ele>180.25</ele><time>2026-04-12T07:23:32Z</time></trkpt><trkpt lat="44.67832913281761" lon="7.993475915484316"><ele>180.0</ele><time>2026-04-12T07:23:34Z</time></trkpt><trkpt lat="44.67826357200149" lon="7.993344896204671"><ele>179.5</ele><time>2026-04-12T07:23:36Z</time></trkpt><trkpt lat="44.67819503520457" lon="7.993205652726649"><ele>179.0</ele><time>2026-04-12T07:23:38Z</time></trkpt><trkpt lat="44.67812788939144" lon="7.9930648322675175"><ele>178.5</ele><time>2026-04-12T07:23:40Z</time></trkpt><trkpt lat="44.67805642431507" lon="7.99292808397183"><ele>178.0</ele><time>2026-04-12T07:23:42Z</time></trkpt><trkpt lat="44.67798892019198" lon="7.992789324250209"><ele>178.0</ele><time>2026-04-12T07:23:44Z</time></trkpt><trkpt lat="44.67791694776689" lon="7.9926571030599325"><ele>178.0</ele><time>2026-04-12T07:23:46Z</time></trkpt><trkpt lat="44.677843799726475" lon="7.9925266849398"><ele>178.0</ele><time>2026-04-12T07:23:48Z</time></trkpt><trkpt lat="44.67777383026154" lon="7.992392060977178"><ele>178.0</ele><time>2026-04-12T07:23:50Z</time></trkpt><trkpt lat="44.677701868845176" lon="7.992254876804361"><ele>178.0</ele><time>2026-04-12T07:23:52Z</time></trkpt><trkpt lat="44.67762526035419" lon="7.992123652423332"><ele>178.0</ele><time>2026-04-12T07:23:54Z</time></trkpt><trkpt lat="44.67758404223659" lon="7.992054613122433"><ele>178.0</ele><time>2026-04-12T07:23:55Z</time></trkpt><trkpt lat="44.6775447219322" lon="7.991983401322903"><ele>178.0</ele><time>2026-04-12T07:23:56Z</time></trkpt><trkpt lat="44.67750633485339" lon="7.991912187197952"><ele>178.0</ele><time>2026-04-12T07:23:57Z</time></trkpt><trkpt lat="44.67742879863104" lon="7.991774196014807"><ele>178.0</ele><time>2026-04-12T07:23:59Z</time></trkpt><trkpt lat="44.67734816856442" lon="7.991635456641595"><ele>178.0</ele><time>2026-04-12T07:24:01Z</time></trkpt><trkpt lat="44.677275078709194" lon="7.991499929102456"><ele>178.0</ele><time>2026-04-12T07:24:03Z</time></trkpt><trkpt lat="44.677204508584246" lon="7.991364192463479"><ele>178.0</ele><time>2026-04-12T07:24:05Z</time></trkpt><trkpt lat="44.677133017888245" lon="7.991231556566156"><ele>178.0</ele><time>2026-04-12T07:24:07Z</time></trkpt><trkpt lat="44.67706850839557" lon="7.991108700066983"><ele>178.0</ele><time>2026-04-12T07:24:09Z</time></trkpt><trkpt lat="44.677008275719714" lon="7.990990883162504"><ele>178.0</ele><time>2026-04-12T07:24:11Z</time></trkpt><trkpt lat="44.676947129219236" lon="7.990887175288889"><ele>178.0</ele><time>2026-04-12T07:24:13Z</time></trkpt><trkpt lat="44.67689115236087" lon="7.9907885149878695"><ele>178.0</ele><time>2026-04-12T07:24:15Z</time></trkpt><trkpt lat="44.6768311503014" lon="7.990677779964905"><ele>178.0</ele><time>2026-04-12T07:24:17Z</time></trkpt><trkpt lat="44.676802170466594" lon="7.9905471780992485"><ele>178.60000000000002</ele><time>2026-04-12T07:24:19Z</time></trkpt><trkpt lat="44.676761505390466" lon="7.990410914870713"><ele>179.20000000000002</ele><time>2026-04-12T07:24:21Z</time></trkpt><trkpt lat="44.676670104838685" lon="7.990326622928992"><ele>179.8</ele><time>2026-04-12T07:24:23Z</time></trkpt><trkpt lat="44.67656995590849" lon="7.990266889470519"><ele>180.4</ele><time>2026-04-12T07:24:25Z</time></trkpt><trkpt lat="44.67645013774609" lon="7.990240239135801"><ele>181.0</ele><time>2026-04-12T07:24:27Z</time></trkpt><trkpt lat="44.67639100283357" lon="7.990205785097612"><ele>181.0</ele><time>2026-04-12T07:24:28Z</time></trkpt><trkpt lat="44.676334669724106" lon="7.990159586657806"><ele>181.0</ele><time>2026-04-12T07:24:29Z</time></trkpt><trkpt lat="44.67622602145442" lon="7.990070376518019"><ele>181.0</ele><time>2026-04-12T07:24:31Z</time></trkpt><trkpt lat="44.6761184482012" lon="7.989998880498603"><ele>181.0</ele><time>2026-04-12T07:24:33Z</time></trkpt><trkpt lat="44.67600812377404" lon="7.989932991322898"><ele>181.0</ele><time>2026-04-12T07:24:35Z</time></trkpt><trkpt lat="44.67589715751832" lon="7.989859004285768"><ele>181.25</ele><time>2026-04-12T07:24:37Z</time></trkpt><trkpt lat="44.67578575506747" lon="7.98978844122234"><ele>181.5</ele><time>2026-04-12T07:24:39Z</time></trkpt><trkpt lat="44.675673312834654" lon="7.989719659647683"><ele>181.75</ele><time>2026-04-12T07:24:41Z</time></trkpt><trkpt lat="44.67556482215783" lon="7.989653313399936"><ele>182.0</ele><time>2026-04-12T07:24:43Z</time></trkpt><trkpt lat="44.675459012731054" lon="7.989593042643731"><ele>182.0</ele><time>2026-04-12T07:24:45Z</time></trkpt><trkpt lat="44.67535427532468" lon="7.989521363933399"><ele>182.0</ele><time>2026-04-12T07:24:47Z</time></trkpt><trkpt lat="44.675248039976665" lon="7.9894548543507184"><ele>182.0</ele><time>2026-04-12T07:24:49Z</time></trkpt><trkpt lat="44.675144118687626" lon="7.98938961852149"><ele>182.0</ele><time>2026-04-12T07:24:51Z</time></trkpt><trkpt lat="44.67503561896257" lon="7.989323175683924"><ele>182.25</ele><time>2026-04-12T07:24:53Z</time></trkpt><trkpt lat="44.6749314350118" lon="7.989258650863087"><ele>182.5</ele><time>2026-04-12T07:24:55Z</time></trkpt><trkpt lat="44.674824800929876" lon="7.989195554280837"><ele>182.75</ele><time>2026-04-12T07:24:57Z</time></trkpt><trkpt lat="44.67471251779802" lon="7.989140147197351"><ele>183.0</ele><time>2026-04-12T07:24:59Z</time></trkpt><trkpt lat="44.674599512306315" lon="7.989096902094608"><ele>183.0</ele><time>2026-04-12T07:25:01Z</time></trkpt><trkpt lat="44.67448235181225" lon="7.989060896222893"><ele>183.0</ele><time>2026-04-12T07:25:03Z</time></trkpt><trkpt lat="44.67436635701732" lon="7.989034184696691"><ele>183.0</ele><time>2026-04-12T07:25:05Z</time></trkpt><trkpt lat="44.67424866468266" lon="7.989011759093"><ele>183.0</ele><time>2026-04-12T07:25:07Z</time></trkpt><trkpt lat="44.67412616150373" lon="7.988998131545004"><ele>183.16666666666666</ele><time>2026-04-12T07:25:09Z</time></trkpt><trkpt lat="44.674061463413025" lon="7.9889934536402265"><ele>183.33333333333334</ele><time>2026-04-12T07:25:10Z</time></trkpt><trkpt lat="44.673997919479966" lon="7.9889898183723655"><ele>183.5</ele><time>2026-04-12T07:25:11Z</time></trkpt><trkpt lat="44.673934279048844" lon="7.988988464869083"><ele>183.66666666666669</ele><time>2026-04-12T07:25:12Z</time></trkpt><trkpt lat="44.673810975696156" lon="7.9889852993324855"><ele>183.83333333333334</ele><time>2026-04-12T07:25:14Z</time></trkpt><trkpt lat="44.67369258518358" lon="7.988982648559188"><ele>184.0</ele><time>2026-04-12T07:25:16Z</time></trkpt><trkpt lat="44.673579711159725" lon="7.9889820174574995"><ele>183.5</ele><time>2026-04-12T07:25:18Z</time></trkpt><trkpt lat="44.67346237339567" lon="7.988981366052611"><ele>183.0</ele><time>2026-04-12T07:25:20Z</time></trkpt><trkpt lat="44.673349630714156" lon="7.988977610138864"><ele>182.5</ele><time>2026-04-12T07:25:22Z</time></trkpt><trkpt lat="44.67323201597634" lon="7.988962095451433"><ele>182.0</ele><time>2026-04-12T07:25:24Z</time></trkpt><trkpt lat="44.673118536032575" lon="7.988946340734505"><ele>182.0</ele><time>2026-04-12T07:25:26Z</time></trkpt><trkpt lat="44.67300294088103" lon="7.988921704409823"><ele>182.0</ele><time>2026-04-12T07:25:28Z</time></trkpt><trkpt lat="44.672891146143634" lon="7.9888859312951475"><ele>182.0</ele><time>2026-04-12T07:25:30Z</time></trkpt><trkpt lat="44.67278238818536" lon="7.988845427736807"><ele>182.0</ele><time>2026-04-12T07:25:32Z</time></trkpt><trkpt lat="44.672682773173825" lon="7.98879466210057"><ele>182.0</ele><time>2026-04-12T07:25:34Z</time></trkpt><trkpt lat="44.67258222340738" lon="7.98874018001546"><ele>182.0</ele><time>2026-04-12T07:25:36Z</time></trkpt><trkpt lat="44.67248872136602" lon="7.988686355046293"><ele>182.0</ele><time>2026-04-12T07:25:38Z</time></trkpt><trkpt lat="44.67239003765766" lon="7.988624202786069"><ele>182.0</ele><time>2026-04-12T07:25:40Z</time></trkpt><trkpt lat="44.67228825217277" lon="7.988566762210687"><ele>182.0</ele><time>2026-04-12T07:25:42Z</time></trkpt><trkpt lat="44.67217934512379" lon="7.98851913799171"><ele>182.0</ele><time>2026-04-12T07:25:44Z</time></trkpt><trkpt lat="44.67207335621629" lon="7.9884611703741335"><ele>182.0</ele><time>2026-04-12T07:25:46Z</time></trkpt><trkpt lat="44.67197265683597" lon="7.988402299519101"><ele>182.0</ele><time>2026-04-12T07:25:48Z</time></trkpt><trkpt lat="44.67186876397471" lon="7.988340056003934"><ele>182.0</ele><time>2026-04-12T07:25:50Z</time></trkpt><trkpt lat="44.671766480728884" lon="7.988268211473527"><ele>182.6</ele><time>2026-04-12T07:25:52Z</time></trkpt><trkpt lat="44.671677937306725" lon="7.988195863319614"><ele>183.2</ele><time>2026-04-12T07:25:54Z</time></trkpt><trkpt lat="44.671588455223635" lon="7.988116660411812"><ele>183.8</ele><time>2026-04-12T07:25:56Z</time></trkpt><trkpt lat="44.67149849293372" lon="7.988039176817772"><ele>184.4</ele><time>2026-04-12T07:25:58Z</time></trkpt><trkpt lat="44.67141075697171" lon="7.987943260676837"><ele>185.0</ele><time>2026-04-12T07:26:00Z</time></trkpt><trkpt lat="44.67131914375714" lon="7.987850961642096"><ele>185.0</ele><time>2026-04-12T07:26:02Z</time></trkpt><trkpt lat="44.67123007475577" lon="7.987761031162503"><ele>185.0</ele><time>2026-04-12T07:26:04Z</time></trkpt><trkpt lat="44.67112845617819" lon="7.987688358332584"><ele>185.0</ele><time>2026-04-12T07:26:06Z</time></trkpt><trkpt lat="44.671017303613205" lon="7.987624710103376"><ele>185.0</ele><time>2026-04-12T07:26:08Z</time></trkpt><trkpt lat="44.67089814675505" lon="7.987572138176197"><ele>185.0</ele><time>2026-04-12T07:26:10Z</time></trkpt><trkpt lat="44.6707788312771" lon="7.987518035288056"><ele>185.0</ele><time>2026-04-12T07:26:12Z</time></trkpt><trkpt lat="44.67066011347144" lon="7.9874728325629025"><ele>185.0</ele><time>2026-04-12T07:26:14Z</time></trkpt><trkpt lat="44.6705560345156" lon="7.987427682678773"><ele>185.0</ele><time>2026-04-12T07:26:16Z</time></trkpt><trkpt lat="44.67046107036858" lon="7.98738215891978"><ele>185.0</ele><time>2026-04-12T07:26:18Z</time></trkpt><trkpt lat="44.67036416033639" lon="7.987337950004215"><ele>185.0</ele><time>2026-04-12T07:26:20Z</time></trkpt><trkpt lat="44.670263256453424" lon="7.987294152112781"><ele>185.0</ele><time>2026-04-12T07:26:22Z</time></trkpt><trkpt lat="44.67016537515418" lon="7.987258567424302"><ele>185.0</ele><time>2026-04-12T07:26:24Z</time></trkpt><trkpt lat="44.670067126792084" lon="7.987214464502137"><ele>185.0</ele><time>2026-04-12T07:26:26Z</time></trkpt><trkpt lat="44.669960132286384" lon="7.987182026841037"><ele>185.0</ele><time>2026-04-12T07:26:28Z</time></trkpt><trkpt lat="44.66985071141926" lon="7.987151382385232"><ele>185.0</ele><time>2026-04-12T07:26:30Z</time></trkpt><trkpt lat="44.669786670528" lon="7.987141641385312"><ele>185.0</ele><time>2026-04-12T07:26:31Z</time></trkpt><trkpt lat="44.66967287633029" lon="7.987121476801555"><ele>185.0</ele><time>2026-04-12T07:26:33Z</time></trkpt><trkpt lat="44.66955567863298" lon="7.987103057516094"><ele>185.0</ele><time>2026-04-12T07:26:35Z</time></trkpt><trkpt lat="44.669438110288425" lon="7.987084690690227"><ele>185.25</ele><time>2026-04-12T07:26:37Z</time></trkpt><trkpt lat="44.669321452922716" lon="7.987067313727967"><ele>185.5</ele><time>2026-04-12T07:26:39Z</time></trkpt><trkpt lat="44.669208854499296" lon="7.987046553137352"><ele>185.75</ele><time>2026-04-12T07:26:41Z</time></trkpt><trkpt lat="44.669100483027904" lon="7.987029275790739"><ele>186.0</ele><time>2026-04-12T07:26:43Z</time></trkpt><trkpt lat="44.668985855087094" lon="7.987009114073623"><ele>186.0</ele><time>2026-04-12T07:26:45Z</time></trkpt><trkpt lat="44.6688733991456" lon="7.986992322586174"><ele>186.0</ele><time>2026-04-12T07:26:47Z</time></trkpt><trkpt lat="44.668759396509856" lon="7.98696122528318"><ele>186.0</ele><time>2026-04-12T07:26:49Z</time></trkpt><trkpt lat="44.668649930932645" lon="7.986923108653511"><ele>186.0</ele><time>2026-04-12T07:26:51Z</time></trkpt><trkpt lat="44.6685416577769" lon="7.986862226553469"><ele>186.20000000000002</ele><time>2026-04-12T07:26:53Z</time></trkpt><trkpt lat="44.66843797523309" lon="7.986795435862533"><ele>186.4</ele><time>2026-04-12T07:26:55Z</time></trkpt><trkpt lat="44.668341501469484" lon="7.986720152665517"><ele>186.6</ele><time>2026-04-12T07:26:57Z</time></trkpt><trkpt lat="44.668251505214805" lon="7.986639006760682"><ele>186.8</ele><time>2026-04-12T07:26:59Z</time></trkpt><trkpt lat="44.66816414620712" lon="7.986553295441775"><ele>187.0</ele><time>2026-04-12T07:27:01Z</time></trkpt><trkpt lat="44.668080056324854" lon="7.986464026377546"><ele>187.0</ele><time>2026-04-12T07:27:03Z</time></trkpt><trkpt lat="44.66798478957925" lon="7.986360883681231"><ele>187.0</ele><time>2026-04-12T07:27:05Z</time></trkpt><trkpt lat="44.66790151820246" lon="7.986264762108094"><ele>187.0</ele><time>2026-04-12T07:27:07Z</time></trkpt><trkpt lat="44.66781376684689" lon="7.986165422127038"><ele>187.0</ele><time>2026-04-12T07:27:09Z</time></trkpt><trkpt lat="44.66772860681743" lon="7.986068598158984"><ele>187.0</ele><time>2026-04-12T07:27:11Z</time></trkpt><trkpt lat="44.66764314819161" lon="7.985972473816233"><ele>187.0</ele><time>2026-04-12T07:27:13Z</time></trkpt><trkpt lat="44.667559049055555" lon="7.98587146442494"><ele>187.0</ele><time>2026-04-12T07:27:15Z</time></trkpt><trkpt lat="44.667471420321995" lon="7.985774807222703"><ele>187.0</ele><time>2026-04-12T07:27:17Z</time></trkpt><trkpt lat="44.66738173463533" lon="7.985680870223676"><ele>187.0</ele><time>2026-04-12T07:27:19Z</time></trkpt><trkpt lat="44.66729346856036" lon="7.98558597452449"><ele>187.0</ele><time>2026-04-12T07:27:21Z</time></trkpt><trkpt lat="44.66721164319101" lon="7.985496600541802"><ele>187.0</ele><time>2026-04-12T07:27:23Z</time></trkpt><trkpt lat="44.66713610587502" lon="7.985395186730058"><ele>187.0</ele><time>2026-04-12T07:27:25Z</time></trkpt><trkpt lat="44.667051786291836" lon="7.985305033074004"><ele>187.0</ele><time>2026-04-12T07:27:27Z</time></trkpt><trkpt lat="44.66698496285775" lon="7.985205484974695"><ele>187.0</ele><time>2026-04-12T07:27:29Z</time></trkpt><trkpt lat="44.666919258930214" lon="7.985096061314541"><ele>187.0</ele><time>2026-04-12T07:27:31Z</time></trkpt><trkpt lat="44.666856171432634" lon="7.984982735443334"><ele>187.0</ele><time>2026-04-12T07:27:33Z</time></trkpt><trkpt lat="44.66679420359543" lon="7.984875684921137"><ele>187.0</ele><time>2026-04-12T07:27:35Z</time></trkpt><trkpt lat="44.66674428169713" lon="7.984740492233439"><ele>187.0</ele><time>2026-04-12T07:27:37Z</time></trkpt><trkpt lat="44.66668479627333" lon="7.98461310217014"><ele>187.0</ele><time>2026-04-12T07:27:39Z</time></trkpt><trkpt lat="44.666632283406415" lon="7.984475481634017"><ele>187.0</ele><time>2026-04-12T07:27:41Z</time></trkpt><trkpt lat="44.666576323011824" lon="7.984344879259836"><ele>187.0</ele><time>2026-04-12T07:27:43Z</time></trkpt><trkpt lat="44.666518435564576" lon="7.984213883427382"><ele>187.0</ele><time>2026-04-12T07:27:45Z</time></trkpt><trkpt lat="44.66645963781317" lon="7.984076334037013"><ele>187.0</ele><time>2026-04-12T07:27:47Z</time></trkpt><trkpt lat="44.666404226556104" lon="7.983947002688988"><ele>187.0</ele><time>2026-04-12T07:27:49Z</time></trkpt><trkpt lat="44.66634769565809" lon="7.983816147529676"><ele>187.0</ele><time>2026-04-12T07:27:51Z</time></trkpt><trkpt lat="44.66628427847324" lon="7.983688902722883"><ele>187.0</ele><time>2026-04-12T07:27:53Z</time></trkpt><trkpt lat="44.66623459019088" lon="7.983566800829802"><ele>187.0</ele><time>2026-04-12T07:27:55Z</time></trkpt><trkpt lat="44.66617529500794" lon="7.983445605875065"><ele>187.0</ele><time>2026-04-12T07:27:57Z</time></trkpt><trkpt lat="44.666100912756654" lon="7.983335447444871"><ele>187.0</ele><time>2026-04-12T07:27:59Z</time></trkpt><trkpt lat="44.66601899577617" lon="7.983261166610498"><ele>187.0</ele><time>2026-04-12T07:28:01Z</time></trkpt><trkpt lat="44.66592711936622" lon="7.98318027051607"><ele>187.0</ele><time>2026-04-12T07:28:03Z</time></trkpt><trkpt lat="44.6658318219411" lon="7.983108755292335"><ele>187.0</ele><time>2026-04-12T07:28:05Z</time></trkpt><trkpt lat="44.665735671038014" lon="7.983044513719969"><ele>187.0</ele><time>2026-04-12T07:28:07Z</time></trkpt><trkpt lat="44.66564298711444" lon="7.982987284830497"><ele>187.0</ele><time>2026-04-12T07:28:09Z</time></trkpt><trkpt lat="44.66555063819597" lon="7.982919535726608"><ele>187.0</ele><time>2026-04-12T07:28:11Z</time></trkpt><trkpt lat="44.66546327465771" lon="7.982863140716376"><ele>187.0</ele><time>2026-04-12T07:28:13Z</time></trkpt><trkpt lat="44.66537300911193" lon="7.982801174204144"><ele>187.0</ele><time>2026-04-12T07:28:15Z</time></trkpt><trkpt lat="44.66528144820732" lon="7.98273863941221"><ele>187.0</ele><time>2026-04-12T07:28:17Z</time></trkpt><trkpt lat="44.66519095035998" lon="7.982666538135285"><ele>187.0</ele><time>2026-04-12T07:28:19Z</time></trkpt><trkpt lat="44.66509683713816" lon="7.982607799548983"><ele>187.6</ele><time>2026-04-12T07:28:21Z</time></trkpt><trkpt lat="44.66501288365191" lon="7.982545735153437"><ele>188.2</ele><time>2026-04-12T07:28:23Z</time></trkpt><trkpt lat="44.66491258591588" lon="7.982485316113273"><ele>188.8</ele><time>2026-04-12T07:28:25Z</time></trkpt><trkpt lat="44.66481806717579" lon="7.982430204206785"><ele>189.4</ele><time>2026-04-12T07:28:27Z</time></trkpt><trkpt lat="44.66472358575722" lon="7.982383210584021"><ele>190.0</ele><time>2026-04-12T07:28:29Z</time></trkpt><trkpt lat="44.66462832568911" lon="7.982320748034228"><ele>190.0</ele><time>2026-04-12T07:28:31Z</time></trkpt><trkpt lat="44.66453158409988" lon="7.982264041523789"><ele>190.0</ele><time>2026-04-12T07:28:33Z</time></trkpt><trkpt lat="44.664436463791056" lon="7.982206551009692"><ele>190.0</ele><time>2026-04-12T07:28:35Z</time></trkpt><trkpt lat="44.66434324291362" lon="7.982148396633118"><ele>190.0</ele><time>2026-04-12T07:28:37Z</time></trkpt><trkpt lat="44.66425079979884" lon="7.982088227870945"><ele>190.0</ele><time>2026-04-12T07:28:39Z</time></trkpt><trkpt lat="44.664157802146086" lon="7.982027538347995"><ele>190.0</ele><time>2026-04-12T07:28:41Z</time></trkpt><trkpt lat="44.66406956806381" lon="7.981967418943444"><ele>190.0</ele><time>2026-04-12T07:28:43Z</time></trkpt><trkpt lat="44.663974399585165" lon="7.981900972722177"><ele>190.0</ele><time>2026-04-12T07:28:45Z</time></trkpt><trkpt lat="44.66387517555165" lon="7.9818405031445385"><ele>190.0</ele><time>2026-04-12T07:28:47Z</time></trkpt><trkpt lat="44.663795598631275" lon="7.981779213106864"><ele>190.0</ele><time>2026-04-12T07:28:49Z</time></trkpt><trkpt lat="44.66370367147656" lon="7.981722378626806"><ele>190.0</ele><time>2026-04-12T07:28:51Z</time></trkpt><trkpt lat="44.663613840337874" lon="7.981661048412494"><ele>190.0</ele><time>2026-04-12T07:28:53Z</time></trkpt><trkpt lat="44.6635227879269" lon="7.981603438317146"><ele>190.0</ele><time>2026-04-12T07:28:55Z</time></trkpt><trkpt lat="44.66343332936215" lon="7.981544657017447"><ele>190.0</ele><time>2026-04-12T07:28:57Z</time></trkpt><trkpt lat="44.66334261178684" lon="7.981485210438262"><ele>190.0</ele><time>2026-04-12T07:28:59Z</time></trkpt><trkpt lat="44.66325288519144" lon="7.981423857692487"><ele>190.0</ele><time>2026-04-12T07:29:01Z</time></trkpt><trkpt lat="44.663161464185436" lon="7.981366942236091"><ele>190.0</ele><time>2026-04-12T07:29:03Z</time></trkpt><trkpt lat="44.663068782058645" lon="7.981302746841537"><ele>190.0</ele><time>2026-04-12T07:29:05Z</time></trkpt><trkpt lat="44.66297676224904" lon="7.981246116700945"><ele>190.0</ele><time>2026-04-12T07:29:07Z</time></trkpt><trkpt lat="44.66288813575883" lon="7.981187101102165"><ele>190.0</ele><time>2026-04-12T07:29:09Z</time></trkpt><trkpt lat="44.662801662340854" lon="7.98112861610565"><ele>190.2</ele><time>2026-04-12T07:29:11Z</time></trkpt><trkpt lat="44.66271179443739" lon="7.981072438368779"><ele>190.4</ele><time>2026-04-12T07:29:13Z</time></trkpt><trkpt lat="44.6626239817016" lon="7.981011867477919"><ele>190.60000000000002</ele><time>2026-04-12T07:29:15Z</time></trkpt><trkpt lat="44.66253383237106" lon="7.980953845711661"><ele>190.8</ele><time>2026-04-12T07:29:17Z</time></trkpt><trkpt lat="44.662444710770934" lon="7.980895171795119"><ele>191.0</ele><time>2026-04-12T07:29:19Z</time></trkpt><trkpt lat="44.66235484651947" lon="7.980837423136854"><ele>191.20000000000002</ele><time>2026-04-12T07:29:21Z</time></trkpt><trkpt lat="44.66226510288731" lon="7.980777494069562"><ele>191.4</ele><time>2026-04-12T07:29:23Z</time></trkpt><trkpt lat="44.66217389908207" lon="7.9807167422210865"><ele>191.6</ele><time>2026-04-12T07:29:25Z</time></trkpt><trkpt lat="44.662083747640565" lon="7.980651047064314"><ele>191.8</ele><time>2026-04-12T07:29:27Z</time></trkpt><trkpt lat="44.66199272798835" lon="7.980594778263561"><ele>192.0</ele><time>2026-04-12T07:29:29Z</time></trkpt><trkpt lat="44.66190194030742" lon="7.980534130927846"><ele>192.0</ele><time>2026-04-12T07:29:31Z</time></trkpt><trkpt lat="44.66181290100731" lon="7.980475101199999"><ele>192.0</ele><time>2026-04-12T07:29:33Z</time></trkpt><trkpt lat="44.66172339034099" lon="7.980413837178289"><ele>192.0</ele><time>2026-04-12T07:29:35Z</time></trkpt><trkpt lat="44.66163355850374" lon="7.980354483189096"><ele>192.0</ele><time>2026-04-12T07:29:37Z</time></trkpt><trkpt lat="44.66155087662202" lon="7.980297879437838"><ele>192.0</ele><time>2026-04-12T07:29:39Z</time></trkpt><trkpt lat="44.66146333022527" lon="7.98023653302228"><ele>192.0</ele><time>2026-04-12T07:29:41Z</time></trkpt><trkpt lat="44.661388545990654" lon="7.980165406913399"><ele>192.0</ele><time>2026-04-12T07:29:43Z</time></trkpt><trkpt lat="44.66135431158398" lon="7.980039735796488"><ele>192.0</ele><time>2026-04-12T07:29:45Z</time></trkpt><trkpt lat="44.661306382139415" lon="7.9799220363413434"><ele>192.0</ele><time>2026-04-12T07:29:47Z</time></trkpt><trkpt lat="44.66121441220219" lon="7.979867232141638"><ele>192.0</ele><time>2026-04-12T07:29:49Z</time></trkpt><trkpt lat="44.66111715281788" lon="7.979917024759774"><ele>192.39999999999998</ele><time>2026-04-12T07:29:51Z</time></trkpt><trkpt lat="44.6610503675842" lon="7.980025114186714"><ele>192.79999999999998</ele><time>2026-04-12T07:29:53Z</time></trkpt><trkpt lat="44.660969940056816" lon="7.980098270517156"><ele>193.2</ele><time>2026-04-12T07:29:55Z</time></trkpt><trkpt lat="44.66087126411049" lon="7.980102530103664"><ele>193.6</ele><time>2026-04-12T07:29:57Z</time></trkpt><trkpt lat="44.66077309510887" lon="7.980117833372366"><ele>194.0</ele><time>2026-04-12T07:29:59Z</time></trkpt><trkpt lat="44.6606700004701" lon="7.980130627414204"><ele>194.0</ele><time>2026-04-12T07:30:01Z</time></trkpt><trkpt lat="44.660568066596134" lon="7.980139305350614"><ele>194.0</ele><time>2026-04-12T07:30:03Z</time></trkpt><trkpt lat="44.660464380304106" lon="7.980156633248871"><ele>194.0</ele><time>2026-04-12T07:30:05Z</time></trkpt><trkpt lat="44.66036159189479" lon="7.980166457310741"><ele>194.0</ele><time>2026-04-12T07:30:07Z</time></trkpt><trkpt lat="44.660258616897956" lon="7.9801830102654225"><ele>194.0</ele><time>2026-04-12T07:30:09Z</time></trkpt><trkpt lat="44.66015555054194" lon="7.980196543394059"><ele>193.6</ele><time>2026-04-12T07:30:11Z</time></trkpt><trkpt lat="44.66005390265265" lon="7.9802121046291825"><ele>193.2</ele><time>2026-04-12T07:30:13Z</time></trkpt><trkpt lat="44.65996371080822" lon="7.980225072566951"><ele>192.79999999999998</ele><time>2026-04-12T07:30:15Z</time></trkpt><trkpt lat="44.65985591852266" lon="7.980236087005809"><ele>192.39999999999998</ele><time>2026-04-12T07:30:17Z</time></trkpt><trkpt lat="44.65975599207387" lon="7.980250252563338"><ele>192.0</ele><time>2026-04-12T07:30:19Z</time></trkpt><trkpt lat="44.65965607054132" lon="7.980260465711096"><ele>192.0</ele><time>2026-04-12T07:30:21Z</time></trkpt><trkpt lat="44.65955397862012" lon="7.980276067659515"><ele>192.0</ele><time>2026-04-12T07:30:23Z</time></trkpt><trkpt lat="44.65945278243012" lon="7.980294229481929"><ele>192.0</ele><time>2026-04-12T07:30:25Z</time></trkpt><trkpt lat="44.659351281761765" lon="7.9803139378547625"><ele>192.0</ele><time>2026-04-12T07:30:27Z</time></trkpt><trkpt lat="44.65925180125093" lon="7.980332638412371"><ele>192.0</ele><time>2026-04-12T07:30:29Z</time></trkpt><trkpt lat="44.659152695088295" lon="7.980355296575205"><ele>192.2</ele><time>2026-04-12T07:30:31Z</time></trkpt><trkpt lat="44.65905198991367" lon="7.980376727115376"><ele>192.39999999999998</ele><time>2026-04-12T07:30:33Z</time></trkpt><trkpt lat="44.6589555415921" lon="7.980418255085338"><ele>192.60000000000002</ele><time>2026-04-12T07:30:35Z</time></trkpt><trkpt lat="44.65885578061991" lon="7.980435668177034"><ele>192.8</ele><time>2026-04-12T07:30:37Z</time></trkpt><trkpt lat="44.65875499419507" lon="7.980479912782884"><ele>193.0</ele><time>2026-04-12T07:30:39Z</time></trkpt><trkpt lat="44.65865887494872" lon="7.980517397988488"><ele>193.4</ele><time>2026-04-12T07:30:41Z</time></trkpt><trkpt lat="44.65856321107458" lon="7.980549359166449"><ele>193.8</ele><time>2026-04-12T07:30:43Z</time></trkpt><trkpt lat="44.65846453572495" lon="7.980585258079705"><ele>194.2</ele><time>2026-04-12T07:30:45Z</time></trkpt><trkpt lat="44.65837007545103" lon="7.980627077079202"><ele>194.6</ele><time>2026-04-12T07:30:47Z</time></trkpt><trkpt lat="44.65826684353517" lon="7.980639642681655"><ele>195.0</ele><time>2026-04-12T07:30:49Z</time></trkpt><trkpt lat="44.6581636943214" lon="7.980647863136725"><ele>195.0</ele><time>2026-04-12T07:30:51Z</time></trkpt><trkpt lat="44.65806064805965" lon="7.980645306830137"><ele>195.0</ele><time>2026-04-12T07:30:53Z</time></trkpt><trkpt lat="44.65795723125582" lon="7.980651142266401"><ele>195.0</ele><time>2026-04-12T07:30:55Z</time></trkpt><trkpt lat="44.657855846459704" lon="7.980649001855702"><ele>195.0</ele><time>2026-04-12T07:30:57Z</time></trkpt><trkpt lat="44.657761280454224" lon="7.980655439121656"><ele>195.0</ele><time>2026-04-12T07:30:59Z</time></trkpt><trkpt lat="44.65766760244892" lon="7.980650646603349"><ele>195.0</ele><time>2026-04-12T07:31:01Z</time></trkpt><trkpt lat="44.65756830079717" lon="7.980653884922822"><ele>195.0</ele><time>2026-04-12T07:31:03Z</time></trkpt><trkpt lat="44.657466196401614" lon="7.980654875933981"><ele>195.0</ele><time>2026-04-12T07:31:05Z</time></trkpt><trkpt lat="44.657369941204934" lon="7.9806509320626375"><ele>195.0</ele><time>2026-04-12T07:31:07Z</time></trkpt><trkpt lat="44.657267511956945" lon="7.9806544532964105"><ele>195.0</ele><time>2026-04-12T07:31:09Z</time></trkpt><trkpt lat="44.657170288396024" lon="7.980655817468178"><ele>195.0</ele><time>2026-04-12T07:31:11Z</time></trkpt><trkpt lat="44.657072482914664" lon="7.980655615482037"><ele>195.0</ele><time>2026-04-12T07:31:13Z</time></trkpt><trkpt lat="44.656969120688984" lon="7.980660527868808"><ele>195.0</ele><time>2026-04-12T07:31:15Z</time></trkpt><trkpt lat="44.65686623642767" lon="7.980659346107796"><ele>195.0</ele><time>2026-04-12T07:31:17Z</time></trkpt><trkpt lat="44.656759861699605" lon="7.980664605021305"><ele>195.0</ele><time>2026-04-12T07:31:19Z</time></trkpt><trkpt lat="44.65665516149222" lon="7.98066229989573"><ele>195.2</ele><time>2026-04-12T07:31:21Z</time></trkpt><trkpt lat="44.65654650029219" lon="7.9806652063971395"><ele>195.4</ele><time>2026-04-12T07:31:23Z</time></trkpt><trkpt lat="44.65644026951267" lon="7.980658444646788"><ele>195.60000000000002</ele><time>2026-04-12T07:31:25Z</time></trkpt><trkpt lat="44.656331333433144" lon="7.980651599739677"><ele>195.8</ele><time>2026-04-12T07:31:27Z</time></trkpt><trkpt lat="44.65623147785847" lon="7.980640191262788"><ele>196.0</ele><time>2026-04-12T07:31:29Z</time></trkpt><trkpt lat="44.6561294083194" lon="7.980622863708406"><ele>195.8</ele><time>2026-04-12T07:31:31Z</time></trkpt><trkpt lat="44.65602514326148" lon="7.98059944645265"><ele>195.60000000000002</ele><time>2026-04-12T07:31:33Z</time></trkpt><trkpt lat="44.65592351424932" lon="7.980570973517928"><ele>195.4</ele><time>2026-04-12T07:31:35Z</time></trkpt><trkpt lat="44.655820804586426" lon="7.980524705824439"><ele>195.2</ele><time>2026-04-12T07:31:37Z</time></trkpt><trkpt lat="44.655718122401716" lon="7.980474980898046"><ele>195.0</ele><time>2026-04-12T07:31:39Z</time></trkpt><trkpt lat="44.65561570428484" lon="7.980417338409195"><ele>195.0</ele><time>2026-04-12T07:31:41Z</time></trkpt><trkpt lat="44.65551185728945" lon="7.98036816191641"><ele>195.0</ele><time>2026-04-12T07:31:43Z</time></trkpt><trkpt lat="44.65541022437197" lon="7.980314605188969"><ele>195.0</ele><time>2026-04-12T07:31:45Z</time></trkpt><trkpt lat="44.655311380321784" lon="7.980265995680627"><ele>195.0</ele><time>2026-04-12T07:31:47Z</time></trkpt><trkpt lat="44.65520851485204" lon="7.980214487202819"><ele>195.0</ele><time>2026-04-12T07:31:49Z</time></trkpt><trkpt lat="44.65510391443963" lon="7.980163282892393"><ele>194.6</ele><time>2026-04-12T07:31:51Z</time></trkpt><trkpt lat="44.65500431127211" lon="7.980113826204856"><ele>194.2</ele><time>2026-04-12T07:31:53Z</time></trkpt><trkpt lat="44.65490535245242" lon="7.980063377503094"><ele>193.8</ele><time>2026-04-12T07:31:55Z</time></trkpt><trkpt lat="44.65479897666118" lon="7.980017734613988"><ele>193.4</ele><time>2026-04-12T07:31:57Z</time></trkpt><trkpt lat="44.65469350544032" lon="7.979967149524076"><ele>193.0</ele><time>2026-04-12T07:31:59Z</time></trkpt><trkpt lat="44.65458873640704" lon="7.979926761310591"><ele>192.8</ele><time>2026-04-12T07:32:01Z</time></trkpt><trkpt lat="44.654484517636774" lon="7.979877272672412"><ele>192.60000000000002</ele><time>2026-04-12T07:32:03Z</time></trkpt><trkpt lat="44.65437642520096" lon="7.97982616852758"><ele>192.39999999999998</ele><time>2026-04-12T07:32:05Z</time></trkpt><trkpt lat="44.65426340463986" lon="7.97977519958696"><ele>192.2</ele><time>2026-04-12T07:32:07Z</time></trkpt><trkpt lat="44.65420080557207" lon="7.979746207148538"><ele>192.0</ele><time>2026-04-12T07:32:08Z</time></trkpt><trkpt lat="44.654077933484686" lon="7.9797024018134595"><ele>192.28571428571428</ele><time>2026-04-12T07:32:10Z</time></trkpt><trkpt lat="44.6540155679552" lon="7.979674248038213"><ele>192.57142857142856</ele><time>2026-04-12T07:32:11Z</time></trkpt><trkpt lat="44.65395221151282" lon="7.979644803926782"><ele>192.85714285714283</ele><time>2026-04-12T07:32:12Z</time></trkpt><trkpt lat="44.65388933055297" lon="7.979613442609343"><ele>193.14285714285714</ele><time>2026-04-12T07:32:13Z</time></trkpt><trkpt lat="44.65382242869667" lon="7.9795889595144525"><ele>193.42857142857144</ele><time>2026-04-12T07:32:14Z</time></trkpt><trkpt lat="44.65375767819302" lon="7.979561421896086"><ele>193.7142857142857</ele><time>2026-04-12T07:32:15Z</time></trkpt><trkpt lat="44.653691897409516" lon="7.979529461875976"><ele>194.0</ele><time>2026-04-12T07:32:16Z</time></trkpt><trkpt lat="44.65362830350507" lon="7.979498084290499"><ele>194.28571428571428</ele><time>2026-04-12T07:32:17Z</time></trkpt><trkpt lat="44.65356538419831" lon="7.979466240634814"><ele>194.57142857142858</ele><time>2026-04-12T07:32:18Z</time></trkpt><trkpt lat="44.6535050573208" lon="7.979434345790192"><ele>194.85714285714286</ele><time>2026-04-12T07:32:19Z</time></trkpt><trkpt lat="44.65344411149609" lon="7.979409012842892"><ele>195.14285714285714</ele><time>2026-04-12T07:32:20Z</time></trkpt><trkpt lat="44.65338222815925" lon="7.979387113163596"><ele>195.42857142857144</ele><time>2026-04-12T07:32:21Z</time></trkpt><trkpt lat="44.65332164230799" lon="7.979358598789809"><ele>195.71428571428572</ele><time>2026-04-12T07:32:22Z</time></trkpt><trkpt lat="44.653259866305945" lon="7.979329794617609"><ele>196.0</ele><time>2026-04-12T07:32:23Z</time></trkpt><trkpt lat="44.65319907656205" lon="7.9793024189795645"><ele>196.0</ele><time>2026-04-12T07:32:24Z</time></trkpt><trkpt lat="44.65308153074139" lon="7.9792361892808445"><ele>196.0</ele><time>2026-04-12T07:32:26Z</time></trkpt><trkpt lat="44.653021921549474" lon="7.979195571819443"><ele>196.0</ele><time>2026-04-12T07:32:27Z</time></trkpt><trkpt lat="44.65290908099927" lon="7.979126471773274"><ele>196.0</ele><time>2026-04-12T07:32:29Z</time></trkpt><trkpt lat="44.65285104991227" lon="7.979091939756366"><ele>196.0</ele><time>2026-04-12T07:32:30Z</time></trkpt><trkpt lat="44.65273618922675" lon="7.979034152358483"><ele>196.0</ele><time>2026-04-12T07:32:32Z</time></trkpt><trkpt lat="44.65262330974841" lon="7.978981803997584"><ele>196.0</ele><time>2026-04-12T07:32:34Z</time></trkpt><trkpt lat="44.65250872859525" lon="7.9789551747819"><ele>196.0</ele><time>2026-04-12T07:32:36Z</time></trkpt><trkpt lat="44.65239628386841" lon="7.978940705463216"><ele>196.0</ele><time>2026-04-12T07:32:38Z</time></trkpt><trkpt lat="44.6522865635819" lon="7.978912137377219"><ele>196.0</ele><time>2026-04-12T07:32:40Z</time></trkpt><trkpt lat="44.65219082125228" lon="7.9788680901309075"><ele>196.0</ele><time>2026-04-12T07:32:42Z</time></trkpt><trkpt lat="44.6520830091188" lon="7.978860743307064"><ele>196.0</ele><time>2026-04-12T07:32:44Z</time></trkpt><trkpt lat="44.65198198208338" lon="7.978885287112597"><ele>196.0</ele><time>2026-04-12T07:32:46Z</time></trkpt><trkpt lat="44.651882704631255" lon="7.978912369800885"><ele>196.0</ele><time>2026-04-12T07:32:48Z</time></trkpt><trkpt lat="44.65178532303067" lon="7.978965536799046"><ele>195.8</ele><time>2026-04-12T07:32:50Z</time></trkpt><trkpt lat="44.65168805486971" lon="7.979017803953686"><ele>195.60000000000002</ele><time>2026-04-12T07:32:52Z</time></trkpt><trkpt lat="44.651597318392106" lon="7.979085638581058"><ele>195.4</ele><time>2026-04-12T07:32:54Z</time></trkpt><trkpt lat="44.651502495637416" lon="7.979154484596446"><ele>195.2</ele><time>2026-04-12T07:32:56Z</time></trkpt><trkpt lat="44.65140989668597" lon="7.979217388375516"><ele>195.0</ele><time>2026-04-12T07:32:58Z</time></trkpt><trkpt lat="44.6513157591049" lon="7.979272068282407"><ele>195.0</ele><time>2026-04-12T07:33:00Z</time></trkpt><trkpt lat="44.6512242181799" lon="7.979319248635598"><ele>195.0</ele><time>2026-04-12T07:33:02Z</time></trkpt><trkpt lat="44.6511304539449" lon="7.979349039606354"><ele>195.0</ele><time>2026-04-12T07:33:04Z</time></trkpt><trkpt lat="44.65103124739803" lon="7.979379316752481"><ele>195.0</ele><time>2026-04-12T07:33:06Z</time></trkpt><trkpt lat="44.65093730409114" lon="7.979413924831464"><ele>195.0</ele><time>2026-04-12T07:33:08Z</time></trkpt><trkpt lat="44.650842167764694" lon="7.979423131194115"><ele>195.4</ele><time>2026-04-12T07:33:10Z</time></trkpt><trkpt lat="44.65074767071869" lon="7.9794255729337324"><ele>195.8</ele><time>2026-04-12T07:33:12Z</time></trkpt><trkpt lat="44.6506512320397" lon="7.979423675111714"><ele>196.2</ele><time>2026-04-12T07:33:14Z</time></trkpt><trkpt lat="44.650553342920695" lon="7.9794152693485"><ele>196.6</ele><time>2026-04-12T07:33:16Z</time></trkpt><trkpt lat="44.65045697968973" lon="7.979407727890697"><ele>197.0</ele><time>2026-04-12T07:33:18Z</time></trkpt><trkpt lat="44.65036158990602" lon="7.9793929542241715"><ele>197.0</ele><time>2026-04-12T07:33:20Z</time></trkpt><trkpt lat="44.65026777813283" lon="7.97938152774319"><ele>197.0</ele><time>2026-04-12T07:33:22Z</time></trkpt><trkpt lat="44.650174451473234" lon="7.979373640787616"><ele>197.0</ele><time>2026-04-12T07:33:24Z</time></trkpt><trkpt lat="44.65008364771849" lon="7.979355786293806"><ele>197.0</ele><time>2026-04-12T07:33:26Z</time></trkpt><trkpt lat="44.649987330959995" lon="7.979352535280098"><ele>197.0</ele><time>2026-04-12T07:33:28Z</time></trkpt><trkpt lat="44.649892174689995" lon="7.97935191645136"><ele>197.0</ele><time>2026-04-12T07:33:30Z</time></trkpt><trkpt lat="44.64979191515938" lon="7.9793557525328636"><ele>197.0</ele><time>2026-04-12T07:33:32Z</time></trkpt><trkpt lat="44.64969725492329" lon="7.979355886075456"><ele>197.0</ele><time>2026-04-12T07:33:34Z</time></trkpt><trkpt lat="44.64959600047182" lon="7.9793604194767935"><ele>197.0</ele><time>2026-04-12T07:33:36Z</time></trkpt><trkpt lat="44.649496080889385" lon="7.979360867959756"><ele>197.0</ele><time>2026-04-12T07:33:38Z</time></trkpt><trkpt lat="44.64939235452901" lon="7.979358692223232"><ele>197.0</ele><time>2026-04-12T07:33:40Z</time></trkpt><trkpt lat="44.6492894388341" lon="7.979352355568644"><ele>197.0</ele><time>2026-04-12T07:33:42Z</time></trkpt><trkpt lat="44.64918855074018" lon="7.9793358578853555"><ele>197.0</ele><time>2026-04-12T07:33:44Z</time></trkpt><trkpt lat="44.64909001998272" lon="7.979313515692752"><ele>197.0</ele><time>2026-04-12T07:33:46Z</time></trkpt><trkpt lat="44.648992964731484" lon="7.979286626960828"><ele>197.0</ele><time>2026-04-12T07:33:48Z</time></trkpt><trkpt lat="44.64889623770172" lon="7.979249727265287"><ele>197.0</ele><time>2026-04-12T07:33:50Z</time></trkpt><trkpt lat="44.64879933925264" lon="7.979211367782999"><ele>197.0</ele><time>2026-04-12T07:33:52Z</time></trkpt><trkpt lat="44.64870130073163" lon="7.979167608079787"><ele>197.0</ele><time>2026-04-12T07:33:54Z</time></trkpt><trkpt lat="44.648606890513896" lon="7.979123395680811"><ele>197.0</ele><time>2026-04-12T07:33:56Z</time></trkpt><trkpt lat="44.64850702950167" lon="7.979091892636237"><ele>197.0</ele><time>2026-04-12T07:33:58Z</time></trkpt><trkpt lat="44.64841025465181" lon="7.979041610998837"><ele>197.2</ele><time>2026-04-12T07:34:00Z</time></trkpt><trkpt lat="44.64830759210915" lon="7.979001968773476"><ele>197.39999999999998</ele><time>2026-04-12T07:34:02Z</time></trkpt><trkpt lat="44.64820856846339" lon="7.9789604960599805"><ele>197.60000000000002</ele><time>2026-04-12T07:34:04Z</time></trkpt><trkpt lat="44.64810810495259" lon="7.978919063704986"><ele>197.8</ele><time>2026-04-12T07:34:06Z</time></trkpt><trkpt lat="44.648007428026865" lon="7.978875825071225"><ele>198.0</ele><time>2026-04-12T07:34:08Z</time></trkpt><trkpt lat="44.64790366425664" lon="7.978832481172672"><ele>198.0</ele><time>2026-04-12T07:34:10Z</time></trkpt><trkpt lat="44.64779978876174" lon="7.978786796056163"><ele>198.0</ele><time>2026-04-12T07:34:12Z</time></trkpt><trkpt lat="44.64769655032371" lon="7.978743306921392"><ele>198.0</ele><time>2026-04-12T07:34:14Z</time></trkpt><trkpt lat="44.64758971336041" lon="7.978704539126127"><ele>198.0</ele><time>2026-04-12T07:34:16Z</time></trkpt><trkpt lat="44.64748809853994" lon="7.978661940254869"><ele>198.0</ele><time>2026-04-12T07:34:18Z</time></trkpt><trkpt lat="44.64738545008688" lon="7.9786191014657835"><ele>198.4</ele><time>2026-04-12T07:34:20Z</time></trkpt><trkpt lat="44.647283141393736" lon="7.978569742121546"><ele>198.8</ele><time>2026-04-12T07:34:22Z</time></trkpt><trkpt lat="44.647187340692504" lon="7.9785120219077434"><ele>199.2</ele><time>2026-04-12T07:34:24Z</time></trkpt><trkpt lat="44.64709522501681" lon="7.978457847306588"><ele>199.6</ele><time>2026-04-12T07:34:26Z</time></trkpt><trkpt lat="44.647014609252075" lon="7.978398141098775"><ele>200.0</ele><time>2026-04-12T07:34:28Z</time></trkpt><trkpt lat="44.646956311784976" lon="7.978307105425805"><ele>200.0</ele><time>2026-04-12T07:34:30Z</time></trkpt><trkpt lat="44.64691848205182" lon="7.978201903498589"><ele>200.0</ele><time>2026-04-12T07:34:32Z</time></trkpt><trkpt lat="44.64689266431151" lon="7.978085473518065"><ele>200.0</ele><time>2026-04-12T07:34:34Z</time></trkpt><trkpt lat="44.64686195644577" lon="7.977966112771878"><ele>200.0</ele><time>2026-04-12T07:34:36Z</time></trkpt><trkpt lat="44.646796562257286" lon="7.977865556993205"><ele>200.0</ele><time>2026-04-12T07:34:38Z</time></trkpt><trkpt lat="44.646705501908265" lon="7.977831602001793"><ele>200.0</ele><time>2026-04-12T07:34:40Z</time></trkpt><trkpt lat="44.64661430331627" lon="7.977882839483689"><ele>200.0</ele><time>2026-04-12T07:34:42Z</time></trkpt><trkpt lat="44.64656146317065" lon="7.977998647232204"><ele>200.0</ele><time>2026-04-12T07:34:44Z</time></trkpt><trkpt lat="44.646520514799384" lon="7.978115854749027"><ele>200.0</ele><time>2026-04-12T07:34:46Z</time></trkpt><trkpt lat="44.64646914430007" lon="7.978215718769485"><ele>200.0</ele><time>2026-04-12T07:34:48Z</time></trkpt><trkpt lat="44.64638297863937" lon="7.978266616211108"><ele>200.0</ele><time>2026-04-12T07:34:50Z</time></trkpt><trkpt lat="44.64629093201031" lon="7.978305358027117"><ele>200.0</ele><time>2026-04-12T07:34:52Z</time></trkpt><trkpt lat="44.64620089124394" lon="7.978359237662144"><ele>200.0</ele><time>2026-04-12T07:34:54Z</time></trkpt><trkpt lat="44.64610673736383" lon="7.978412453367319"><ele>200.0</ele><time>2026-04-12T07:34:56Z</time></trkpt><trkpt lat="44.64601424516519" lon="7.97845852706048"><ele>200.0</ele><time>2026-04-12T07:34:58Z</time></trkpt><trkpt lat="44.64592725182806" lon="7.978501835609692"><ele>201.50000000000003</ele><time>2026-04-12T07:35:00Z</time></trkpt><trkpt lat="44.64584218761808" lon="7.978549017994564"><ele>203.0</ele><time>2026-04-12T07:35:02Z</time></trkpt><trkpt lat="44.64576008881476" lon="7.978602644138402"><ele>204.5</ele><time>2026-04-12T07:35:04Z</time></trkpt><trkpt lat="44.645676197257" lon="7.978633645434944"><ele>206.0</ele><time>2026-04-12T07:35:06Z</time></trkpt><trkpt lat="44.64559508724834" lon="7.978679250686671"><ele>207.50000000000003</ele><time>2026-04-12T07:35:08Z</time></trkpt><trkpt lat="44.64551278461016" lon="7.978721946405811"><ele>209.0</ele><time>2026-04-12T07:35:10Z</time></trkpt><trkpt lat="44.64543160975433" lon="7.978759655678714"><ele>209.0</ele><time>2026-04-12T07:35:12Z</time></trkpt><trkpt lat="44.645351086270246" lon="7.978813730376422"><ele>209.0</ele><time>2026-04-12T07:35:14Z</time></trkpt><trkpt lat="44.64527014333594" lon="7.978851700473201"><ele>209.0</ele><time>2026-04-12T07:35:16Z</time></trkpt><trkpt lat="44.64517596867386" lon="7.978905612139605"><ele>209.0</ele><time>2026-04-12T07:35:18Z</time></trkpt><trkpt lat="44.64507644160226" lon="7.9789649843782655"><ele>209.0</ele><time>2026-04-12T07:35:20Z</time></trkpt><trkpt lat="44.6449747323093" lon="7.9790174582952185"><ele>208.2</ele><time>2026-04-12T07:35:22Z</time></trkpt><trkpt lat="44.644859784132336" lon="7.979058113412565"><ele>207.39999999999998</ele><time>2026-04-12T07:35:24Z</time></trkpt><trkpt lat="44.644740468930614" lon="7.97911704832077"><ele>206.6</ele><time>2026-04-12T07:35:26Z</time></trkpt><trkpt lat="44.64467631250943" lon="7.979148423572468"><ele>205.8</ele><time>2026-04-12T07:35:27Z</time></trkpt><trkpt lat="44.64461058995876" lon="7.979188335825893"><ele>205.0</ele><time>2026-04-12T07:35:28Z</time></trkpt><trkpt lat="44.64454754388021" lon="7.979230493259646"><ele>206.0</ele><time>2026-04-12T07:35:29Z</time></trkpt><trkpt lat="44.644479254094016" lon="7.9792706944674165"><ele>207.0</ele><time>2026-04-12T07:35:30Z</time></trkpt><trkpt lat="44.644414361119544" lon="7.979306824298036"><ele>208.0</ele><time>2026-04-12T07:35:31Z</time></trkpt><trkpt lat="44.64434706022605" lon="7.979345113081236"><ele>209.0</ele><time>2026-04-12T07:35:32Z</time></trkpt><trkpt lat="44.64428220609418" lon="7.979388328122931"><ele>210.0</ele><time>2026-04-12T07:35:33Z</time></trkpt><trkpt lat="44.6442210203225" lon="7.979440923535722"><ele>211.0</ele><time>2026-04-12T07:35:34Z</time></trkpt><trkpt lat="44.644158156889375" lon="7.97949360148277"><ele>212.0</ele><time>2026-04-12T07:35:35Z</time></trkpt><trkpt lat="44.64409606786853" lon="7.9795438013470505"><ele>212.0</ele><time>2026-04-12T07:35:36Z</time></trkpt><trkpt lat="44.64403332032277" lon="7.9795990629718325"><ele>212.0</ele><time>2026-04-12T07:35:37Z</time></trkpt><trkpt lat="44.643974923983315" lon="7.9796655924745625"><ele>212.0</ele><time>2026-04-12T07:35:38Z</time></trkpt><trkpt lat="44.64392052261917" lon="7.979734348546149"><ele>212.0</ele><time>2026-04-12T07:35:39Z</time></trkpt><trkpt lat="44.643866629038804" lon="7.979799924828771"><ele>212.0</ele><time>2026-04-12T07:35:40Z</time></trkpt><trkpt lat="44.643811522911314" lon="7.979867306464604"><ele>212.0</ele><time>2026-04-12T07:35:41Z</time></trkpt><trkpt lat="44.6437568022201" lon="7.979930847504487"><ele>212.0</ele><time>2026-04-12T07:35:42Z</time></trkpt><trkpt lat="44.6437051846175" lon="7.979992900087192"><ele>211.39999999999998</ele><time>2026-04-12T07:35:43Z</time></trkpt><trkpt lat="44.643653313892074" lon="7.980048218914423"><ele>210.79999999999998</ele><time>2026-04-12T07:35:44Z</time></trkpt><trkpt lat="44.64356407729432" lon="7.980163798897625"><ele>210.2</ele><time>2026-04-12T07:35:46Z</time></trkpt><trkpt lat="44.64347690264592" lon="7.980274216537127"><ele>209.6</ele><time>2026-04-12T07:35:48Z</time></trkpt><trkpt lat="44.64338525307032" lon="7.980370953528684"><ele>209.0</ele><time>2026-04-12T07:35:50Z</time></trkpt><trkpt lat="44.64330243513805" lon="7.980474359525963"><ele>209.00000000000003</ele><time>2026-04-12T07:35:52Z</time></trkpt><trkpt lat="44.64322740441738" lon="7.980567324809818"><ele>209.0</ele><time>2026-04-12T07:35:54Z</time></trkpt><trkpt lat="44.64315453298126" lon="7.980654340014175"><ele>209.0</ele><time>2026-04-12T07:35:56Z</time></trkpt><trkpt lat="44.64308328078492" lon="7.980731618561873"><ele>209.0</ele><time>2026-04-12T07:35:58Z</time></trkpt><trkpt lat="44.643014432780376" lon="7.980787469248474"><ele>209.00000000000003</ele><time>2026-04-12T07:36:00Z</time></trkpt><trkpt lat="44.642949648911035" lon="7.980848657123022"><ele>209.0</ele><time>2026-04-12T07:36:02Z</time></trkpt><trkpt lat="44.64288011304853" lon="7.980896682785603"><ele>209.00000000000003</ele><time>2026-04-12T07:36:04Z</time></trkpt><trkpt lat="44.642807305688535" lon="7.980945482074676"><ele>209.0</ele><time>2026-04-12T07:36:06Z</time></trkpt><trkpt lat="44.64273629992283" lon="7.980991485948541"><ele>209.0</ele><time>2026-04-12T07:36:08Z</time></trkpt><trkpt lat="44.64266407417877" lon="7.981045703818661"><ele>209.0</ele><time>2026-04-12T07:36:10Z</time></trkpt><trkpt lat="44.642590554860945" lon="7.981096553988158"><ele>209.00000000000003</ele><time>2026-04-12T07:36:12Z</time></trkpt><trkpt lat="44.64251112751321" lon="7.981149800155633"><ele>209.0</ele><time>2026-04-12T07:36:14Z</time></trkpt><trkpt lat="44.64244208126814" lon="7.981209408838837"><ele>209.0</ele><time>2026-04-12T07:36:16Z</time></trkpt><trkpt lat="44.64237401939961" lon="7.981278091508714"><ele>209.0</ele><time>2026-04-12T07:36:18Z</time></trkpt><trkpt lat="44.642304882505165" lon="7.981355526887656"><ele>209.0</ele><time>2026-04-12T07:36:20Z</time></trkpt><trkpt lat="44.64223664507133" lon="7.981451304264093"><ele>209.0</ele><time>2026-04-12T07:36:22Z</time></trkpt><trkpt lat="44.64216642937923" lon="7.981547977175457"><ele>209.0</ele><time>2026-04-12T07:36:24Z</time></trkpt><trkpt lat="44.642089000374675" lon="7.9816374768477605"><ele>209.0</ele><time>2026-04-12T07:36:26Z</time></trkpt><trkpt lat="44.64201236557124" lon="7.981721896445144"><ele>209.0</ele><time>2026-04-12T07:36:28Z</time></trkpt><trkpt lat="44.641926701687744" lon="7.981790734752181"><ele>209.0</ele><time>2026-04-12T07:36:30Z</time></trkpt><trkpt lat="44.64185891241458" lon="7.981869744868598"><ele>209.0</ele><time>2026-04-12T07:36:32Z</time></trkpt><trkpt lat="44.641783885087214" lon="7.981936697272552"><ele>209.0</ele><time>2026-04-12T07:36:34Z</time></trkpt><trkpt lat="44.64169706243428" lon="7.981962049257427"><ele>209.00000000000003</ele><time>2026-04-12T07:36:36Z</time></trkpt><trkpt lat="44.641618514697825" lon="7.982015512712454"><ele>209.0</ele><time>2026-04-12T07:36:38Z</time></trkpt><trkpt lat="44.64153982065258" lon="7.982054339631672"><ele>209.0</ele><time>2026-04-12T07:36:40Z</time></trkpt><trkpt lat="44.64146278700985" lon="7.982091562593138"><ele>209.0</ele><time>2026-04-12T07:36:42Z</time></trkpt><trkpt lat="44.64139174836558" lon="7.982128359307989"><ele>209.00000000000003</ele><time>2026-04-12T07:36:44Z</time></trkpt><trkpt lat="44.641312134109285" lon="7.982154348713575"><ele>209.0</ele><time>2026-04-12T07:36:46Z</time></trkpt><trkpt lat="44.64122848804163" lon="7.98217986960014"><ele>209.00000000000003</ele><time>2026-04-12T07:36:48Z</time></trkpt><trkpt lat="44.64114435349179" lon="7.982205310911674"><ele>209.0</ele><time>2026-04-12T07:36:50Z</time></trkpt><trkpt lat="44.641064511199666" lon="7.982231718261809"><ele>209.0</ele><time>2026-04-12T07:36:52Z</time></trkpt><trkpt lat="44.64099140069495" lon="7.982261773970005"><ele>209.0</ele><time>2026-04-12T07:36:54Z</time></trkpt><trkpt lat="44.640924178247325" lon="7.982283224288681"><ele>209.00000000000003</ele><time>2026-04-12T07:36:56Z</time></trkpt><trkpt lat="44.64085502408586" lon="7.982306589012372"><ele>209.0</ele><time>2026-04-12T07:36:58Z</time></trkpt><trkpt lat="44.64078312983076" lon="7.982331091297925"><ele>208.85714285714286</ele><time>2026-04-12T07:37:00Z</time></trkpt><trkpt lat="44.64071034105868" lon="7.982357949426559"><ele>208.71428571428572</ele><time>2026-04-12T07:37:02Z</time></trkpt><trkpt lat="44.64063750076809" lon="7.982383401340022"><ele>208.57142857142856</ele><time>2026-04-12T07:37:04Z</time></trkpt><trkpt lat="44.640567910186284" lon="7.982416045094826"><ele>208.42857142857144</ele><time>2026-04-12T07:37:06Z</time></trkpt><trkpt lat="44.640502935016215" lon="7.982445069845016"><ele>208.2857142857143</ele><time>2026-04-12T07:37:08Z</time></trkpt><trkpt lat="44.64041689681268" lon="7.9824722708966815"><ele>208.14285714285714</ele><time>2026-04-12T07:37:11Z</time></trkpt><trkpt lat="44.6403525383906" lon="7.982486801728808"><ele>208.0</ele><time>2026-04-12T07:37:13Z</time></trkpt><trkpt lat="44.64026424539322" lon="7.982510384300051"><ele>209.42857142857142</ele><time>2026-04-12T07:37:16Z</time></trkpt><trkpt lat="44.640199592264786" lon="7.9825351054062"><ele>210.85714285714286</ele><time>2026-04-12T07:37:19Z</time></trkpt><trkpt lat="44.640138027433416" lon="7.982562817424633"><ele>212.28571428571428</ele><time>2026-04-12T07:37:22Z</time></trkpt><trkpt lat="44.6400758330292" lon="7.982578490956457"><ele>213.71428571428572</ele><time>2026-04-12T07:37:24Z</time></trkpt><trkpt lat="44.64000473672093" lon="7.9826021366657445"><ele>215.14285714285717</ele><time>2026-04-12T07:37:26Z</time></trkpt><trkpt lat="44.63993123463974" lon="7.982630891745255"><ele>216.57142857142858</ele><time>2026-04-12T07:37:28Z</time></trkpt><trkpt lat="44.63985044913939" lon="7.982649139038044"><ele>218.0</ele><time>2026-04-12T07:37:30Z</time></trkpt><trkpt lat="44.63977757160713" lon="7.982671996030376"><ele>218.00000000000003</ele><time>2026-04-12T07:37:32Z</time></trkpt><trkpt lat="44.639703943476796" lon="7.982673669682491"><ele>218.0</ele><time>2026-04-12T07:37:34Z</time></trkpt><trkpt lat="44.639630553675936" lon="7.982688408720934"><ele>218.0</ele><time>2026-04-12T07:37:36Z</time></trkpt><trkpt lat="44.639552453295636" lon="7.982698024435041"><ele>218.0</ele><time>2026-04-12T07:37:38Z</time></trkpt><trkpt lat="44.63947899180373" lon="7.98271776235299"><ele>218.00000000000003</ele><time>2026-04-12T07:37:40Z</time></trkpt><trkpt lat="44.6394036889429" lon="7.982710405060912"><ele>218.0</ele><time>2026-04-12T07:37:42Z</time></trkpt><trkpt lat="44.639326001711126" lon="7.982717398897069"><ele>217.71428571428572</ele><time>2026-04-12T07:37:44Z</time></trkpt><trkpt lat="44.63925522791759" lon="7.98273151814177"><ele>217.42857142857144</ele><time>2026-04-12T07:37:46Z</time></trkpt><trkpt lat="44.63917735257272" lon="7.982736317153852"><ele>217.14285714285714</ele><time>2026-04-12T07:37:48Z</time></trkpt><trkpt lat="44.63910349788518" lon="7.9827425009812325"><ele>216.85714285714286</ele><time>2026-04-12T07:37:50Z</time></trkpt><trkpt lat="44.63902989537201" lon="7.982753775621166"><ele>216.57142857142856</ele><time>2026-04-12T07:37:52Z</time></trkpt><trkpt lat="44.63895473643968" lon="7.982763822626846"><ele>216.28571428571428</ele><time>2026-04-12T07:37:54Z</time></trkpt><trkpt lat="44.63888116626308" lon="7.982773662683541"><ele>216.0</ele><time>2026-04-12T07:37:56Z</time></trkpt><trkpt lat="44.638808581256384" lon="7.982787474218634"><ele>216.0</ele><time>2026-04-12T07:37:58Z</time></trkpt><trkpt lat="44.63872912945617" lon="7.9827969941175345"><ele>216.0</ele><time>2026-04-12T07:38:00Z</time></trkpt><trkpt lat="44.63864852355158" lon="7.982831178034809"><ele>216.0</ele><time>2026-04-12T07:38:02Z</time></trkpt><trkpt lat="44.63856322016714" lon="7.982861735297397"><ele>216.0</ele><time>2026-04-12T07:38:04Z</time></trkpt><trkpt lat="44.63847921675127" lon="7.982905138694695"><ele>216.0</ele><time>2026-04-12T07:38:06Z</time></trkpt><trkpt lat="44.63840610557982" lon="7.982946713345394"><ele>216.0</ele><time>2026-04-12T07:38:08Z</time></trkpt><trkpt lat="44.6383435672362" lon="7.982983872184403"><ele>216.0</ele><time>2026-04-12T07:38:12Z</time></trkpt><trkpt lat="44.638417684498634" lon="7.982993861338031"><ele>216.0</ele><time>2026-04-12T07:38:17Z</time></trkpt><trkpt lat="44.6384959918711" lon="7.982939387922958"><ele>216.0</ele><time>2026-04-12T07:38:21Z</time></trkpt><trkpt lat="44.638577060008295" lon="7.9829125849827856"><ele>216.0</ele><time>2026-04-12T07:38:24Z</time></trkpt><trkpt lat="44.638659749864864" lon="7.982860192293546"><ele>216.0</ele><time>2026-04-12T07:38:27Z</time></trkpt><trkpt lat="44.63874438459108" lon="7.982834547535389"><ele>216.0</ele><time>2026-04-12T07:38:30Z</time></trkpt><trkpt lat="44.638815132512015" lon="7.98278850694609"><ele>216.0</ele><time>2026-04-12T07:38:33Z</time></trkpt><trkpt lat="44.638774389643395" lon="7.982883435531771"><ele>216.0</ele><time>2026-04-12T07:38:39Z</time></trkpt><trkpt lat="44.63870542176155" lon="7.982926210468682"><ele>216.0</ele><time>2026-04-12T07:38:44Z</time></trkpt><trkpt lat="44.63864823984664" lon="7.982974255759312"><ele>216.0</ele><time>2026-04-12T07:38:49Z</time></trkpt><trkpt lat="44.63858880434124" lon="7.983019913645219"><ele>216.0</ele><time>2026-04-12T07:38:53Z</time></trkpt><trkpt lat="44.638535706962145" lon="7.983086382233718"><ele>216.0</ele><time>2026-04-12T07:38:56Z</time></trkpt><trkpt lat="44.638482235934084" lon="7.983153805915853"><ele>216.0</ele><time>2026-04-12T07:38:59Z</time></trkpt><trkpt lat="44.638428991956005" lon="7.983216439748686"><ele>215.5</ele><time>2026-04-12T07:39:02Z</time></trkpt><trkpt lat="44.63838746267618" lon="7.983302385150641"><ele>215.0</ele><time>2026-04-12T07:39:05Z</time></trkpt><trkpt lat="44.63835605480066" lon="7.98339966341201"><ele>214.5</ele><time>2026-04-12T07:39:08Z</time></trkpt><trkpt lat="44.63832256630332" lon="7.983501022221759"><ele>214.0</ele><time>2026-04-12T07:39:11Z</time></trkpt><trkpt lat="44.63828107794381" lon="7.983598802432247"><ele>213.5</ele><time>2026-04-12T07:39:14Z</time></trkpt><trkpt lat="44.63824723256215" lon="7.983711317927729"><ele>213.0</ele><time>2026-04-12T07:39:17Z</time></trkpt><trkpt lat="44.63822528328886" lon="7.983828254959403"><ele>214.16666666666666</ele><time>2026-04-12T07:39:20Z</time></trkpt><trkpt lat="44.638201013642835" lon="7.983945643081202"><ele>215.33333333333331</ele><time>2026-04-12T07:39:23Z</time></trkpt><trkpt lat="44.63818252213794" lon="7.984063433214309"><ele>216.5</ele><time>2026-04-12T07:39:26Z</time></trkpt><trkpt lat="44.63817044694785" lon="7.984186225085803"><ele>217.66666666666666</ele><time>2026-04-12T07:39:29Z</time></trkpt><trkpt lat="44.6381615089017" lon="7.984307480467446"><ele>218.83333333333331</ele><time>2026-04-12T07:39:32Z</time></trkpt><trkpt lat="44.63816858977426" lon="7.984432890816964"><ele>220.0</ele><time>2026-04-12T07:39:35Z</time></trkpt><trkpt lat="44.638173942847466" lon="7.984553383303775"><ele>220.49999999999997</ele><time>2026-04-12T07:39:38Z</time></trkpt><trkpt lat="44.63818304745836" lon="7.984675600572359"><ele>221.0</ele><time>2026-04-12T07:39:41Z</time></trkpt><trkpt lat="44.638202375079665" lon="7.9847948482502895"><ele>221.5</ele><time>2026-04-12T07:39:44Z</time></trkpt><trkpt lat="44.638235433275156" lon="7.984901066270022"><ele>222.0</ele><time>2026-04-12T07:39:47Z</time></trkpt><trkpt lat="44.63825793380635" lon="7.985024496160826"><ele>222.49999999999997</ele><time>2026-04-12T07:39:50Z</time></trkpt><trkpt lat="44.63829477589957" lon="7.985126863013126"><ele>223.0</ele><time>2026-04-12T07:39:53Z</time></trkpt><trkpt lat="44.638331009797575" lon="7.985226832029564"><ele>223.49999999999997</ele><time>2026-04-12T07:39:56Z</time></trkpt><trkpt lat="44.63836669625136" lon="7.98532766685946"><ele>224.0</ele><time>2026-04-12T07:39:59Z</time></trkpt><trkpt lat="44.638402282853555" lon="7.985420417402522"><ele>224.5</ele><time>2026-04-12T07:40:02Z</time></trkpt><trkpt lat="44.63844740124325" lon="7.9855052040289465"><ele>225.0</ele><time>2026-04-12T07:40:05Z</time></trkpt><trkpt lat="44.63847502777422" lon="7.9856055958916645"><ele>225.49999999999997</ele><time>2026-04-12T07:40:08Z</time></trkpt><trkpt lat="44.638493890848146" lon="7.985716167913938"><ele>226.0</ele><time>2026-04-12T07:40:11Z</time></trkpt><trkpt lat="44.63850623337132" lon="7.985828258412918"><ele>226.66666666666666</ele><time>2026-04-12T07:40:14Z</time></trkpt><trkpt lat="44.63852305205564" lon="7.985937290175836"><ele>227.33333333333331</ele><time>2026-04-12T07:40:17Z</time></trkpt><trkpt lat="44.63854390097561" lon="7.986046733280643"><ele>228.0</ele><time>2026-04-12T07:40:20Z</time></trkpt><trkpt lat="44.63855876341255" lon="7.9861575299521"><ele>228.66666666666669</ele><time>2026-04-12T07:40:23Z</time></trkpt><trkpt lat="44.63856863828494" lon="7.986257874499001"><ele>229.33333333333334</ele><time>2026-04-12T07:40:26Z</time></trkpt><trkpt lat="44.63857379981016" lon="7.9863611119536495"><ele>230.0</ele><time>2026-04-12T07:40:29Z</time></trkpt><trkpt lat="44.638566944380166" lon="7.986467086564877"><ele>229.99999999999997</ele><time>2026-04-12T07:40:32Z</time></trkpt><trkpt lat="44.63856740973812" lon="7.986574461749133"><ele>230.0</ele><time>2026-04-12T07:40:35Z</time></trkpt><trkpt lat="44.638569070169865" lon="7.986679105466697"><ele>229.99999999999997</ele><time>2026-04-12T07:40:38Z</time></trkpt><trkpt lat="44.63855923112715" lon="7.986783321192754"><ele>229.99999999999997</ele><time>2026-04-12T07:40:41Z</time></trkpt><trkpt lat="44.63856097288455" lon="7.986888090411784"><ele>230.0</ele><time>2026-04-12T07:40:44Z</time></trkpt><trkpt lat="44.638553847351766" lon="7.986991483622795"><ele>229.99999999999997</ele><time>2026-04-12T07:40:47Z</time></trkpt><trkpt lat="44.638558434508234" lon="7.987095681190989"><ele>229.99999999999997</ele><time>2026-04-12T07:40:50Z</time></trkpt><trkpt lat="44.638549168319386" lon="7.987196885639248"><ele>230.16666666666669</ele><time>2026-04-12T07:40:53Z</time></trkpt><trkpt lat="44.63853650842463" lon="7.9872976997299014"><ele>230.33333333333334</ele><time>2026-04-12T07:40:56Z</time></trkpt><trkpt lat="44.6385342366491" lon="7.987407200609715"><ele>230.5</ele><time>2026-04-12T07:40:59Z</time></trkpt><trkpt lat="44.63852615246345" lon="7.9875062616898145"><ele>230.66666666666669</ele><time>2026-04-12T07:41:02Z</time></trkpt><trkpt lat="44.63853759475967" lon="7.987605588509384"><ele>230.83333333333334</ele><time>2026-04-12T07:41:05Z</time></trkpt><trkpt lat="44.638535978964526" lon="7.987722791606766"><ele>231.0</ele><time>2026-04-12T07:41:09Z</time></trkpt><trkpt lat="44.638569900066024" lon="7.987828057603198"><ele>231.71428571428572</ele><time>2026-04-12T07:41:13Z</time></trkpt><trkpt lat="44.63855019378427" lon="7.987934855744896"><ele>232.42857142857144</ele><time>2026-04-12T07:41:17Z</time></trkpt><trkpt lat="44.638536016560245" lon="7.988046317062773"><ele>233.14285714285714</ele><time>2026-04-12T07:41:22Z</time></trkpt><trkpt lat="44.63853649032099" lon="7.9881437725287165"><ele>233.85714285714286</ele><time>2026-04-12T07:41:26Z</time></trkpt><trkpt lat="44.638611701221706" lon="7.988144041676775"><ele>234.57142857142858</ele><time>2026-04-12T07:41:29Z</time></trkpt><trkpt lat="44.63864709556896" lon="7.988061343206371"><ele>235.28571428571428</ele><time>2026-04-12T07:41:32Z</time></trkpt><trkpt lat="44.63865946559611" lon="7.987973271755498"><ele>236.0</ele><time>2026-04-12T07:41:35Z</time></trkpt><trkpt lat="44.638693144067595" lon="7.987880054894493"><ele>238.00000000000003</ele><time>2026-04-12T07:41:39Z</time></trkpt><trkpt lat="44.638713083365154" lon="7.9877643094690916"><ele>240.0</ele><time>2026-04-12T07:41:43Z</time></trkpt><trkpt lat="44.638733181585394" lon="7.987670103155733"><ele>242.0</ele><time>2026-04-12T07:41:46Z</time></trkpt><trkpt lat="44.638750099854036" lon="7.987559552538981"><ele>244.0</ele><time>2026-04-12T07:41:49Z</time></trkpt><trkpt lat="44.63877129912058" lon="7.98744335987659"><ele>246.00000000000003</ele><time>2026-04-12T07:41:52Z</time></trkpt><trkpt lat="44.63878243861953" lon="7.987324265957019"><ele>248.0</ele><time>2026-04-12T07:41:55Z</time></trkpt><trkpt lat="44.638812588843635" lon="7.987207839694008"><ele>248.00000000000003</ele><time>2026-04-12T07:41:58Z</time></trkpt><trkpt lat="44.63883507198777" lon="7.987091027822057"><ele>248.0</ele><time>2026-04-12T07:42:01Z</time></trkpt><trkpt lat="44.63885144137196" lon="7.9869683123005615"><ele>248.0</ele><time>2026-04-12T07:42:04Z</time></trkpt><trkpt lat="44.63885955683567" lon="7.986844452213615"><ele>248.0</ele><time>2026-04-12T07:42:07Z</time></trkpt><trkpt lat="44.63885708827707" lon="7.986733431187397"><ele>248.00000000000003</ele><time>2026-04-12T07:42:10Z</time></trkpt><trkpt lat="44.638874256601746" lon="7.9866245751480385"><ele>248.0</ele><time>2026-04-12T07:42:13Z</time></trkpt><trkpt lat="44.638892208140945" lon="7.9865059241498395"><ele>247.33333333333334</ele><time>2026-04-12T07:42:16Z</time></trkpt><trkpt lat="44.63890921931773" lon="7.986390566183419"><ele>246.66666666666669</ele><time>2026-04-12T07:42:19Z</time></trkpt><trkpt lat="44.63892602606952" lon="7.986265971773631"><ele>246.0</ele><time>2026-04-12T07:42:22Z</time></trkpt><trkpt lat="44.638936043022944" lon="7.986148618683202"><ele>245.33333333333331</ele><time>2026-04-12T07:42:25Z</time></trkpt><trkpt lat="44.63895099987152" lon="7.986059859097025"><ele>244.66666666666666</ele><time>2026-04-12T07:42:27Z</time></trkpt><trkpt lat="44.638952113033724" lon="7.985925967745792"><ele>244.0</ele><time>2026-04-12T07:42:30Z</time></trkpt><trkpt lat="44.63898132255488" lon="7.985825805293539"><ele>243.28571428571425</ele><time>2026-04-12T07:42:33Z</time></trkpt><trkpt lat="44.639010619948124" lon="7.985740563554548"><ele>242.57142857142856</ele><time>2026-04-12T07:42:36Z</time></trkpt><trkpt lat="44.63901507619429" lon="7.985637912024277"><ele>241.85714285714286</ele><time>2026-04-12T07:42:40Z</time></trkpt><trkpt lat="44.638996543173704" lon="7.985531972683794"><ele>241.14285714285714</ele><time>2026-04-12T07:42:45Z</time></trkpt><trkpt lat="44.63897312145431" lon="7.9854474488183635"><ele>240.42857142857144</ele><time>2026-04-12T07:42:49Z</time></trkpt><trkpt lat="44.638964399592055" lon="7.985339516483453"><ele>239.71428571428575</ele><time>2026-04-12T07:42:53Z</time></trkpt><trkpt lat="44.63893988380467" lon="7.9852503450888985"><ele>239.00000000000003</ele><time>2026-04-12T07:42:57Z</time></trkpt><trkpt lat="44.63890290573421" lon="7.985168025533182"><ele>239.00000000000003</ele><time>2026-04-12T07:43:03Z</time></trkpt><trkpt lat="44.638887262856365" lon="7.985073574670157"><ele>239.0</ele><time>2026-04-12T07:43:08Z</time></trkpt><trkpt lat="44.63886163369928" lon="7.984972454647267"><ele>239.00000000000003</ele><time>2026-04-12T07:43:13Z</time></trkpt><trkpt lat="44.638838338141646" lon="7.9848781530671715"><ele>239.00000000000003</ele><time>2026-04-12T07:43:18Z</time></trkpt><trkpt lat="44.638827780767244" lon="7.984784515560848"><ele>239.0</ele><time>2026-04-12T07:43:22Z</time></trkpt><trkpt lat="44.6388352042331" lon="7.984691995585967"><ele>239.00000000000003</ele><time>2026-04-12T07:43:26Z</time></trkpt><trkpt lat="44.638860507602715" lon="7.9845975620771075"><ele>239.00000000000003</ele><time>2026-04-12T07:43:30Z</time></trkpt><trkpt lat="44.63891371889955" lon="7.984537398510753"><ele>239.28571428571433</ele><time>2026-04-12T07:43:34Z</time></trkpt><trkpt lat="44.638976058587474" lon="7.984499330481713"><ele>239.57142857142858</ele><time>2026-04-12T07:43:38Z</time></trkpt><trkpt lat="44.63905442580007" lon="7.9844911323568635"><ele>239.8571428571429</ele><time>2026-04-12T07:43:42Z</time></trkpt><trkpt lat="44.63912301350824" lon="7.984509034721511"><ele>240.14285714285717</ele><time>2026-04-12T07:43:46Z</time></trkpt><trkpt lat="44.639188027734946" lon="7.984550631691771"><ele>240.42857142857144</ele><time>2026-04-12T07:43:50Z</time></trkpt><trkpt lat="44.639254205445454" lon="7.984596563589482"><ele>240.71428571428572</ele><time>2026-04-12T07:43:54Z</time></trkpt><trkpt lat="44.6393258154865" lon="7.984647473934825"><ele>241.0</ele><time>2026-04-12T07:43:58Z</time></trkpt><trkpt lat="44.63939196952515" lon="7.984694885773815"><ele>241.0</ele><time>2026-04-12T07:44:02Z</time></trkpt><trkpt lat="44.63945967465525" lon="7.984737189813646"><ele>241.00000000000003</ele><time>2026-04-12T07:44:06Z</time></trkpt><trkpt lat="44.639527251395585" lon="7.984766064407952"><ele>241.0</ele><time>2026-04-12T07:44:10Z</time></trkpt><trkpt lat="44.63959263284713" lon="7.984792222301535"><ele>241.0</ele><time>2026-04-12T07:44:14Z</time></trkpt><trkpt lat="44.63966504022067" lon="7.984790976618833"><ele>241.00000000000003</ele><time>2026-04-12T07:44:18Z</time></trkpt><trkpt lat="44.63972824908564" lon="7.98476783645237"><ele>241.0</ele><time>2026-04-12T07:44:22Z</time></trkpt><trkpt lat="44.63979661477214" lon="7.984767108428796"><ele>241.0</ele><time>2026-04-12T07:44:26Z</time></trkpt><trkpt lat="44.639880112865406" lon="7.984761609442433"><ele>241.99999999999997</ele><time>2026-04-12T07:44:30Z</time></trkpt><trkpt lat="44.639960386078286" lon="7.984741249372932"><ele>243.0</ele><time>2026-04-12T07:44:34Z</time></trkpt><trkpt lat="44.64003534180915" lon="7.984712303514975"><ele>244.0</ele><time>2026-04-12T07:44:37Z</time></trkpt><trkpt lat="44.64011533340857" lon="7.984689857483829"><ele>245.0</ele><time>2026-04-12T07:44:40Z</time></trkpt><trkpt lat="44.64020348534609" lon="7.9846641473402915"><ele>245.99999999999997</ele><time>2026-04-12T07:44:43Z</time></trkpt><trkpt lat="44.64029689013375" lon="7.9846335262437655"><ele>247.0</ele><time>2026-04-12T07:44:46Z</time></trkpt><trkpt lat="44.640368898841125" lon="7.984627427049747"><ele>246.99999999999997</ele><time>2026-04-12T07:44:48Z</time></trkpt><trkpt lat="44.64043479270248" lon="7.984620411787436"><ele>247.0</ele><time>2026-04-12T07:44:50Z</time></trkpt><trkpt lat="44.64050476599314" lon="7.984627745600099"><ele>247.0</ele><time>2026-04-12T07:44:52Z</time></trkpt><trkpt lat="44.640572798799866" lon="7.984628589364112"><ele>247.0</ele><time>2026-04-12T07:44:54Z</time></trkpt><trkpt lat="44.640661228049446" lon="7.984638921484838"><ele>246.99999999999997</ele><time>2026-04-12T07:44:57Z</time></trkpt><trkpt lat="44.64073411579507" lon="7.984678319911675"><ele>247.0</ele><time>2026-04-12T07:45:00Z</time></trkpt><trkpt lat="44.64077791633916" lon="7.984777628528701"><ele>247.0</ele><time>2026-04-12T07:45:04Z</time></trkpt><trkpt lat="44.6407969271924" lon="7.984869691189028"><ele>247.0</ele><time>2026-04-12T07:45:07Z</time></trkpt><trkpt lat="44.64080786896205" lon="7.984964323656511"><ele>247.0</ele><time>2026-04-12T07:45:10Z</time></trkpt><trkpt lat="44.64080589873682" lon="7.985064297558215"><ele>247.0</ele><time>2026-04-12T07:45:13Z</time></trkpt><trkpt lat="44.64079908303596" lon="7.985155588446177"><ele>247.0</ele><time>2026-04-12T07:45:16Z</time></trkpt><trkpt lat="44.64077749892224" lon="7.985242381758862"><ele>247.0</ele><time>2026-04-12T07:45:19Z</time></trkpt><trkpt lat="44.64075582572121" lon="7.98533212434552"><ele>247.0</ele><time>2026-04-12T07:45:22Z</time></trkpt><trkpt lat="44.64074651145978" lon="7.985422359321271"><ele>248.16666666666666</ele><time>2026-04-12T07:45:25Z</time></trkpt><trkpt lat="44.64073500433373" lon="7.9855385293177195"><ele>249.33333333333331</ele><time>2026-04-12T07:45:29Z</time></trkpt><trkpt lat="44.64073456796879" lon="7.9856571088229265"><ele>250.5</ele><time>2026-04-12T07:45:33Z</time></trkpt><trkpt lat="44.64073102995896" lon="7.985752314535506"><ele>251.66666666666669</ele><time>2026-04-12T07:45:36Z</time></trkpt><trkpt lat="44.64074267074328" lon="7.985867709379395"><ele>252.83333333333334</ele><time>2026-04-12T07:45:40Z</time></trkpt><trkpt lat="44.6407598956134" lon="7.985958667295269"><ele>254.0</ele><time>2026-04-12T07:45:43Z</time></trkpt><trkpt lat="44.6407723731341" lon="7.9860540040141"><ele>255.71428571428572</ele><time>2026-04-12T07:45:46Z</time></trkpt><trkpt lat="44.64079936635707" lon="7.986144761602423"><ele>257.42857142857144</ele><time>2026-04-12T07:45:49Z</time></trkpt><trkpt lat="44.64082610382191" lon="7.986236134906366"><ele>259.1428571428571</ele><time>2026-04-12T07:45:52Z</time></trkpt><trkpt lat="44.640856659890375" lon="7.9863229281206936"><ele>260.8571428571429</ele><time>2026-04-12T07:45:55Z</time></trkpt><trkpt lat="44.6409005183116" lon="7.9864003959946785"><ele>262.57142857142856</ele><time>2026-04-12T07:45:58Z</time></trkpt><trkpt lat="44.64095119968364" lon="7.986468645365459"><ele>264.2857142857143</ele><time>2026-04-12T07:46:01Z</time></trkpt><trkpt lat="44.641008273749684" lon="7.986525593415306"><ele>266.0</ele><time>2026-04-12T07:46:04Z</time></trkpt><trkpt lat="44.64106734972763" lon="7.986567739851024"><ele>266.14285714285717</ele><time>2026-04-12T07:46:07Z</time></trkpt><trkpt lat="44.641135621134744" lon="7.986599371791359"><ele>266.2857142857143</ele><time>2026-04-12T07:46:10Z</time></trkpt><trkpt lat="44.64119890686769" lon="7.986631392735095"><ele>266.42857142857144</ele><time>2026-04-12T07:46:13Z</time></trkpt><trkpt lat="44.641261745342376" lon="7.986656593327769"><ele>266.57142857142856</ele><time>2026-04-12T07:46:16Z</time></trkpt><trkpt lat="44.64133099350314" lon="7.986674577603356"><ele>266.7142857142857</ele><time>2026-04-12T07:46:19Z</time></trkpt><trkpt lat="44.64140275788903" lon="7.986695498647052"><ele>266.8571428571429</ele><time>2026-04-12T07:46:22Z</time></trkpt><trkpt lat="44.64147432532364" lon="7.9867204902625195"><ele>267.0</ele><time>2026-04-12T07:46:25Z</time></trkpt><trkpt lat="44.641550226837225" lon="7.986742091509984"><ele>267.00000000000006</ele><time>2026-04-12T07:46:28Z</time></trkpt><trkpt lat="44.6416218907362" lon="7.986765410777555"><ele>267.0</ele><time>2026-04-12T07:46:31Z</time></trkpt><trkpt lat="44.64169153908218" lon="7.986785540282705"><ele>267.0</ele><time>2026-04-12T07:46:34Z</time></trkpt><trkpt lat="44.64175468241025" lon="7.9868056878520095"><ele>267.0</ele><time>2026-04-12T07:46:37Z</time></trkpt><trkpt lat="44.641818230017556" lon="7.986834260073981"><ele>267.0</ele><time>2026-04-12T07:46:42Z</time></trkpt><trkpt lat="44.64187406517066" lon="7.986786312996248"><ele>267.00000000000006</ele><time>2026-04-12T07:46:48Z</time></trkpt><trkpt lat="44.64183768658645" lon="7.986861705982583"><ele>267.0</ele><time>2026-04-12T07:47:42Z</time></trkpt><trkpt lat="44.64183557339385" lon="7.986964148021768"><ele>267.0</ele><time>2026-04-12T07:47:45Z</time></trkpt><trkpt lat="44.64180721591671" lon="7.987064896165919"><ele>267.0</ele><time>2026-04-12T07:47:48Z</time></trkpt><trkpt lat="44.64178688017525" lon="7.987164557158068"><ele>267.0</ele><time>2026-04-12T07:47:51Z</time></trkpt><trkpt lat="44.64176157788324" lon="7.987276694429144"><ele>267.0</ele><time>2026-04-12T07:47:54Z</time></trkpt><trkpt lat="44.64173964130253" lon="7.987375740768193"><ele>267.0</ele><time>2026-04-12T07:47:57Z</time></trkpt><trkpt lat="44.64171395353242" lon="7.987490394259467"><ele>267.0</ele><time>2026-04-12T07:48:00Z</time></trkpt><trkpt lat="44.64169024657994" lon="7.987590732314981"><ele>267.00000000000006</ele><time>2026-04-12T07:48:03Z</time></trkpt><trkpt lat="44.64166432952475" lon="7.987698027056797"><ele>267.0</ele><time>2026-04-12T07:48:06Z</time></trkpt><trkpt lat="44.641642267235504" lon="7.987799472822668"><ele>267.0</ele><time>2026-04-12T07:48:09Z</time></trkpt><trkpt lat="44.64162217215032" lon="7.987894796374257"><ele>267.0</ele><time>2026-04-12T07:48:12Z</time></trkpt><trkpt lat="44.64159795330484" lon="7.987995006598192"><ele>267.0</ele><time>2026-04-12T07:48:15Z</time></trkpt><trkpt lat="44.641577739009094" lon="7.988082057183362"><ele>267.00000000000006</ele><time>2026-04-12T07:48:18Z</time></trkpt><trkpt lat="44.64155340867226" lon="7.988191613461632"><ele>267.0</ele><time>2026-04-12T07:48:22Z</time></trkpt><trkpt lat="44.64153356218863" lon="7.9882777759550745"><ele>266.5714285714286</ele><time>2026-04-12T07:48:25Z</time></trkpt><trkpt lat="44.64150836710351" lon="7.988386422840777"><ele>266.14285714285717</ele><time>2026-04-12T07:48:29Z</time></trkpt><trkpt lat="44.64149122712962" lon="7.98847578692484"><ele>265.7142857142857</ele><time>2026-04-12T07:48:32Z</time></trkpt><trkpt lat="44.641465003049866" lon="7.9885841515335265"><ele>265.28571428571433</ele><time>2026-04-12T07:48:36Z</time></trkpt><trkpt lat="44.64144142111244" lon="7.988669868683162"><ele>264.8571428571429</ele><time>2026-04-12T07:48:39Z</time></trkpt><trkpt lat="44.641421351453936" lon="7.988755911641936"><ele>264.42857142857144</ele><time>2026-04-12T07:48:42Z</time></trkpt><trkpt lat="44.64139975579894" lon="7.988839957245321"><ele>264.0</ele><time>2026-04-12T07:48:45Z</time></trkpt><trkpt lat="44.64137665237399" lon="7.9889516002528955"><ele>264.0</ele><time>2026-04-12T07:48:49Z</time></trkpt><trkpt lat="44.64134814411098" lon="7.989032423302382"><ele>264.0</ele><time>2026-04-12T07:48:52Z</time></trkpt><trkpt lat="44.641322717370606" lon="7.989139406357183"><ele>264.0</ele><time>2026-04-12T07:48:56Z</time></trkpt><trkpt lat="44.6412924246203" lon="7.989237268007553"><ele>264.0</ele><time>2026-04-12T07:49:00Z</time></trkpt><trkpt lat="44.64127134111535" lon="7.989347768585598"><ele>264.0</ele><time>2026-04-12T07:49:04Z</time></trkpt><trkpt lat="44.64124124694849" lon="7.989454274870477"><ele>264.0</ele><time>2026-04-12T07:49:08Z</time></trkpt><trkpt lat="44.64120724874288" lon="7.989550684458312"><ele>262.6666666666667</ele><time>2026-04-12T07:49:11Z</time></trkpt><trkpt lat="44.64115759307184" lon="7.989632328798421"><ele>261.3333333333333</ele><time>2026-04-12T07:49:14Z</time></trkpt><trkpt lat="44.64108667802057" lon="7.989703206346919"><ele>260.0</ele><time>2026-04-12T07:49:17Z</time></trkpt><trkpt lat="44.64100648698681" lon="7.989763099323913"><ele>258.66666666666663</ele><time>2026-04-12T07:49:20Z</time></trkpt><trkpt lat="44.640950374712034" lon="7.989804328612784"><ele>257.3333333333333</ele><time>2026-04-12T07:49:22Z</time></trkpt><trkpt lat="44.640869419844265" lon="7.98985858911842"><ele>256.0</ele><time>2026-04-12T07:49:25Z</time></trkpt><trkpt lat="44.6407871920948" lon="7.989914476437848"><ele>256.8333333333333</ele><time>2026-04-12T07:49:28Z</time></trkpt><trkpt lat="44.64070293070491" lon="7.989976965198913"><ele>257.66666666666663</ele><time>2026-04-12T07:49:31Z</time></trkpt><trkpt lat="44.6406467116746" lon="7.990021070974225"><ele>258.5</ele><time>2026-04-12T07:49:33Z</time></trkpt><trkpt lat="44.6405563952656" lon="7.990070848427354"><ele>259.3333333333333</ele><time>2026-04-12T07:49:36Z</time></trkpt><trkpt lat="44.640497402096855" lon="7.9901167471448"><ele>260.1666666666667</ele><time>2026-04-12T07:49:38Z</time></trkpt><trkpt lat="44.640435681246636" lon="7.990151484061951"><ele>261.0</ele><time>2026-04-12T07:49:40Z</time></trkpt><trkpt lat="44.64037719009614" lon="7.990198688303226"><ele>264.1666666666667</ele><time>2026-04-12T07:49:42Z</time></trkpt><trkpt lat="44.6402989056077" lon="7.9902500091903415"><ele>267.3333333333333</ele><time>2026-04-12T07:49:45Z</time></trkpt><trkpt lat="44.64022369452906" lon="7.990301874697941"><ele>270.5</ele><time>2026-04-12T07:49:48Z</time></trkpt><trkpt lat="44.64014735629327" lon="7.990351957162013"><ele>273.66666666666663</ele><time>2026-04-12T07:49:51Z</time></trkpt><trkpt lat="44.640073792173986" lon="7.990400642625347"><ele>276.8333333333333</ele><time>2026-04-12T07:49:54Z</time></trkpt><trkpt lat="44.640004960731574" lon="7.99045694050987"><ele>280.0</ele><time>2026-04-12T07:49:57Z</time></trkpt><trkpt lat="44.6399399515101" lon="7.990516884372519"><ele>280.0</ele><time>2026-04-12T07:50:00Z</time></trkpt><trkpt lat="44.63987560178962" lon="7.990583750885886"><ele>280.0</ele><time>2026-04-12T07:50:03Z</time></trkpt><trkpt lat="44.639812503408955" lon="7.990642038860025"><ele>280.0</ele><time>2026-04-12T07:50:06Z</time></trkpt><trkpt lat="44.639752546845344" lon="7.990694926859953"><ele>280.0</ele><time>2026-04-12T07:50:09Z</time></trkpt><trkpt lat="44.639687539863914" lon="7.990731841979973"><ele>280.0</ele><time>2026-04-12T07:50:12Z</time></trkpt><trkpt lat="44.639621513660416" lon="7.990760970557923"><ele>280.0</ele><time>2026-04-12T07:50:15Z</time></trkpt><trkpt lat="44.63956564853636" lon="7.9906991559881515"><ele>280.0</ele><time>2026-04-12T07:50:18Z</time></trkpt><trkpt lat="44.639519144239785" lon="7.990607338266078"><ele>280.8333333333333</ele><time>2026-04-12T07:50:21Z</time></trkpt><trkpt lat="44.63942980129917" lon="7.990629899581347"><ele>281.66666666666663</ele><time>2026-04-12T07:50:24Z</time></trkpt><trkpt lat="44.63937283477286" lon="7.990701011560697"><ele>282.5</ele><time>2026-04-12T07:50:27Z</time></trkpt><trkpt lat="44.63930851862873" lon="7.99076493357712"><ele>283.3333333333333</ele><time>2026-04-12T07:50:30Z</time></trkpt><trkpt lat="44.639249205419425" lon="7.990832413457992"><ele>284.1666666666667</ele><time>2026-04-12T07:50:33Z</time></trkpt><trkpt lat="44.63919114194789" lon="7.990901948455454"><ele>285.0</ele><time>2026-04-12T07:50:36Z</time></trkpt><trkpt lat="44.639153252736584" lon="7.990996709783678"><ele>286.2857142857143</ele><time>2026-04-12T07:50:40Z</time></trkpt><trkpt lat="44.639113960128014" lon="7.991073752462088"><ele>287.57142857142856</ele><time>2026-04-12T07:50:43Z</time></trkpt><trkpt lat="44.63907295597885" lon="7.9911555845759255"><ele>288.8571428571429</ele><time>2026-04-12T07:50:46Z</time></trkpt><trkpt lat="44.63903539656541" lon="7.9912344982820755"><ele>290.1428571428571</ele><time>2026-04-12T07:50:49Z</time></trkpt><trkpt lat="44.63899817907568" lon="7.991323506140521"><ele>291.42857142857144</ele><time>2026-04-12T07:50:52Z</time></trkpt><trkpt lat="44.63895770075102" lon="7.991408016808079"><ele>292.7142857142857</ele><time>2026-04-12T07:50:55Z</time></trkpt><trkpt lat="44.63892352769408" lon="7.991482671510127"><ele>294.0</ele><time>2026-04-12T07:50:58Z</time></trkpt><trkpt lat="44.63887840928068" lon="7.991577148012378"><ele>294.0</ele><time>2026-04-12T07:51:02Z</time></trkpt><trkpt lat="44.63884547735801" lon="7.99165882935884"><ele>294.0</ele><time>2026-04-12T07:51:05Z</time></trkpt><trkpt lat="44.638802376450535" lon="7.991745447377706"><ele>294.0</ele><time>2026-04-12T07:51:09Z</time></trkpt><trkpt lat="44.63875900170324" lon="7.991836091768613"><ele>294.0</ele><time>2026-04-12T07:51:13Z</time></trkpt><trkpt lat="44.638714372616725" lon="7.991933886692628"><ele>294.0</ele><time>2026-04-12T07:51:17Z</time></trkpt><trkpt lat="44.638672309183725" lon="7.992016585996695"><ele>294.0</ele><time>2026-04-12T07:51:21Z</time></trkpt><trkpt lat="44.638630489863274" lon="7.9921028831533585"><ele>294.0</ele><time>2026-04-12T07:51:25Z</time></trkpt><trkpt lat="44.63859100452422" lon="7.992196326154996"><ele>293.8333333333333</ele><time>2026-04-12T07:51:29Z</time></trkpt><trkpt lat="44.638553062261664" lon="7.992283352314635"><ele>293.6666666666667</ele><time>2026-04-12T07:51:33Z</time></trkpt><trkpt lat="44.6385184595486" lon="7.992374927880866"><ele>293.5</ele><time>2026-04-12T07:51:38Z</time></trkpt><trkpt lat="44.638478961525266" lon="7.992460858043502"><ele>293.33333333333337</ele><time>2026-04-12T07:51:41Z</time></trkpt><trkpt lat="44.63842037310602" lon="7.992549230232089"><ele>293.1666666666667</ele><time>2026-04-12T07:51:43Z</time></trkpt><trkpt lat="44.63834423397264" lon="7.992643870941269"><ele>293.0</ele><time>2026-04-12T07:51:45Z</time></trkpt><trkpt lat="44.638262337450485" lon="7.9927511186508395"><ele>292.2</ele><time>2026-04-12T07:51:47Z</time></trkpt><trkpt lat="44.63817760356662" lon="7.99285832526356"><ele>291.4</ele><time>2026-04-12T07:51:49Z</time></trkpt><trkpt lat="44.63809531399465" lon="7.992966275211655"><ele>290.59999999999997</ele><time>2026-04-12T07:51:51Z</time></trkpt><trkpt lat="44.638015782515645" lon="7.99307407135235"><ele>289.8</ele><time>2026-04-12T07:51:53Z</time></trkpt><trkpt lat="44.63794752484253" lon="7.993180836475529"><ele>289.0</ele><time>2026-04-12T07:51:55Z</time></trkpt><trkpt lat="44.63788957860288" lon="7.993288558302054"><ele>288.16666666666663</ele><time>2026-04-12T07:51:57Z</time></trkpt><trkpt lat="44.63785194486284" lon="7.993368712700389"><ele>287.3333333333333</ele><time>2026-04-12T07:51:59Z</time></trkpt><trkpt lat="44.637804608931404" lon="7.993450628549147"><ele>286.5</ele><time>2026-04-12T07:52:02Z</time></trkpt><trkpt lat="44.63774542378755" lon="7.9935410845165356"><ele>285.6666666666667</ele><time>2026-04-12T07:52:05Z</time></trkpt><trkpt lat="44.63769688372521" lon="7.993634924453031"><ele>284.83333333333337</ele><time>2026-04-12T07:52:08Z</time></trkpt><trkpt lat="44.637643316784526" lon="7.993724242740035"><ele>284.0</ele><time>2026-04-12T07:52:11Z</time></trkpt><trkpt lat="44.63760568298392" lon="7.993810317946328"><ele>286.2857142857143</ele><time>2026-04-12T07:52:14Z</time></trkpt><trkpt lat="44.6375665468957" lon="7.993883138285319"><ele>288.57142857142856</ele><time>2026-04-12T07:52:17Z</time></trkpt><trkpt lat="44.637529639985814" lon="7.993958558000286"><ele>290.85714285714283</ele><time>2026-04-12T07:52:20Z</time></trkpt><trkpt lat="44.63748248055981" lon="7.994052975047266"><ele>293.1428571428571</ele><time>2026-04-12T07:52:24Z</time></trkpt><trkpt lat="44.63743216042975" lon="7.994138780524624"><ele>295.42857142857144</ele><time>2026-04-12T07:52:28Z</time></trkpt><trkpt lat="44.63736970795743" lon="7.9942123972848105"><ele>297.71428571428567</ele><time>2026-04-12T07:52:32Z</time></trkpt><trkpt lat="44.63734757254804" lon="7.994303844342351"><ele>300.0</ele><time>2026-04-12T07:52:35Z</time></trkpt><trkpt lat="44.63731652934542" lon="7.994401958150115"><ele>300.2857142857143</ele><time>2026-04-12T07:52:39Z</time></trkpt><trkpt lat="44.63729512443675" lon="7.994488699595358"><ele>300.57142857142856</ele><time>2026-04-12T07:52:43Z</time></trkpt><trkpt lat="44.63726223378378" lon="7.994568076023361"><ele>300.8571428571429</ele><time>2026-04-12T07:52:47Z</time></trkpt><trkpt lat="44.637238291935695" lon="7.994659475607271"><ele>301.1428571428571</ele><time>2026-04-12T07:52:53Z</time></trkpt><trkpt lat="44.63716095470381" lon="7.994713359366344"><ele>301.42857142857144</ele><time>2026-04-12T07:52:57Z</time></trkpt><trkpt lat="44.637105369871634" lon="7.994758413004894"><ele>301.7142857142857</ele><time>2026-04-12T07:53:00Z</time></trkpt><trkpt lat="44.637038147688706" lon="7.994812475587675"><ele>302.0</ele><time>2026-04-12T07:53:03Z</time></trkpt><trkpt lat="44.63696053570952" lon="7.994861658834143"><ele>302.5714285714286</ele><time>2026-04-12T07:53:06Z</time></trkpt><trkpt lat="44.63689867235259" lon="7.994930443920211"><ele>303.14285714285717</ele><time>2026-04-12T07:53:09Z</time></trkpt><trkpt lat="44.636828267264846" lon="7.994967748201468"><ele>303.7142857142857</ele><time>2026-04-12T07:53:12Z</time></trkpt><trkpt lat="44.63675577247619" lon="7.994983860657418"><ele>304.28571428571433</ele><time>2026-04-12T07:53:15Z</time></trkpt><trkpt lat="44.63668982387392" lon="7.994990377781725"><ele>304.8571428571429</ele><time>2026-04-12T07:53:18Z</time></trkpt><trkpt lat="44.63662483698856" lon="7.995009471690266"><ele>305.42857142857144</ele><time>2026-04-12T07:53:21Z</time></trkpt><trkpt lat="44.63655673736473" lon="7.995038285032715"><ele>306.0</ele><time>2026-04-12T07:53:24Z</time></trkpt><trkpt lat="44.63649062843035" lon="7.995076419008146"><ele>306.1428571428571</ele><time>2026-04-12T07:53:27Z</time></trkpt><trkpt lat="44.63640688166672" lon="7.995094463790063"><ele>306.2857142857143</ele><time>2026-04-12T07:53:31Z</time></trkpt><trkpt lat="44.636334654882035" lon="7.995144909301794"><ele>306.42857142857144</ele><time>2026-04-12T07:53:35Z</time></trkpt><trkpt lat="44.636272638555965" lon="7.995186493458275"><ele>306.57142857142856</ele><time>2026-04-12T07:53:38Z</time></trkpt><trkpt lat="44.63620802057735" lon="7.995232197427753"><ele>306.7142857142857</ele><time>2026-04-12T07:53:42Z</time></trkpt><trkpt lat="44.636143867564435" lon="7.995263897334382"><ele>306.85714285714283</ele><time>2026-04-12T07:53:45Z</time></trkpt><trkpt lat="44.63607978705021" lon="7.995287003778626"><ele>307.0</ele><time>2026-04-12T07:53:48Z</time></trkpt><trkpt lat="44.635998620183955" lon="7.99525900904117"><ele>306.99999999999994</ele><time>2026-04-12T07:53:52Z</time></trkpt><trkpt lat="44.635933101696764" lon="7.995244782889332"><ele>307.0</ele><time>2026-04-12T07:53:57Z</time></trkpt><trkpt lat="44.63588435869355" lon="7.995182898886382"><ele>307.0</ele><time>2026-04-12T07:54:00Z</time></trkpt><trkpt lat="44.635828041887684" lon="7.99512860655482"><ele>307.0</ele><time>2026-04-12T07:54:03Z</time></trkpt><trkpt lat="44.635771916601506" lon="7.995084297632973"><ele>307.0</ele><time>2026-04-12T07:54:06Z</time></trkpt><trkpt lat="44.63570586942684" lon="7.995029259529558"><ele>306.99999999999994</ele><time>2026-04-12T07:54:09Z</time></trkpt><trkpt lat="44.635646818133836" lon="7.994983692042827"><ele>307.0</ele><time>2026-04-12T07:54:12Z</time></trkpt><trkpt lat="44.6355929679031" lon="7.994927187444878"><ele>307.66666666666663</ele><time>2026-04-12T07:54:15Z</time></trkpt><trkpt lat="44.635534615180894" lon="7.9948738948344396"><ele>308.3333333333333</ele><time>2026-04-12T07:54:18Z</time></trkpt><trkpt lat="44.63547056177492" lon="7.994810993950789"><ele>309.0</ele><time>2026-04-12T07:54:21Z</time></trkpt><trkpt lat="44.63541414855982" lon="7.994735723126614"><ele>309.6666666666667</ele><time>2026-04-12T07:54:24Z</time></trkpt><trkpt lat="44.635360220246795" lon="7.9946298310226265"><ele>310.33333333333337</ele><time>2026-04-12T07:54:27Z</time></trkpt><trkpt lat="44.63531384332459" lon="7.994523115109908"><ele>311.0</ele><time>2026-04-12T07:54:30Z</time></trkpt><trkpt lat="44.63526981000724" lon="7.994410936561109"><ele>311.0</ele><time>2026-04-12T07:54:33Z</time></trkpt><trkpt lat="44.63522399376381" lon="7.994312355525435"><ele>311.0</ele><time>2026-04-12T07:54:36Z</time></trkpt><trkpt lat="44.63517571361909" lon="7.9942187100081155"><ele>311.0</ele><time>2026-04-12T07:54:39Z</time></trkpt><trkpt lat="44.63510579420575" lon="7.9941391206841965"><ele>311.0</ele><time>2026-04-12T07:54:42Z</time></trkpt><trkpt lat="44.63504828268576" lon="7.994100502589836"><ele>311.0</ele><time>2026-04-12T07:54:44Z</time></trkpt><trkpt lat="44.63498888259309" lon="7.994060790454463"><ele>311.0</ele><time>2026-04-12T07:54:46Z</time></trkpt><trkpt lat="44.63492434230476" lon="7.994013805420869"><ele>311.0</ele><time>2026-04-12T07:54:48Z</time></trkpt><trkpt lat="44.63485519126463" lon="7.993979073096862"><ele>311.0</ele><time>2026-04-12T07:54:50Z</time></trkpt><trkpt lat="44.634784618520946" lon="7.993950619774464"><ele>311.0</ele><time>2026-04-12T07:54:52Z</time></trkpt><trkpt lat="44.63471110499649" lon="7.99392872327779"><ele>311.0</ele><time>2026-04-12T07:54:54Z</time></trkpt><trkpt lat="44.63464220607802" lon="7.993909101097613"><ele>311.0</ele><time>2026-04-12T07:54:56Z</time></trkpt><trkpt lat="44.63457250220931" lon="7.993885563684307"><ele>311.0</ele><time>2026-04-12T07:54:58Z</time></trkpt><trkpt lat="44.634497100984916" lon="7.993856734718293"><ele>311.0</ele><time>2026-04-12T07:55:00Z</time></trkpt><trkpt lat="44.634429185077735" lon="7.993829742554389"><ele>310.1666666666667</ele><time>2026-04-12T07:55:02Z</time></trkpt><trkpt lat="44.63436691589663" lon="7.993783845106826"><ele>309.33333333333337</ele><time>2026-04-12T07:55:04Z</time></trkpt><trkpt lat="44.634283656489295" lon="7.993730817424329"><ele>308.5</ele><time>2026-04-12T07:55:07Z</time></trkpt><trkpt lat="44.63422941046233" lon="7.993683391274467"><ele>307.6666666666667</ele><time>2026-04-12T07:55:09Z</time></trkpt><trkpt lat="44.63415801540631" lon="7.993610366582087"><ele>306.8333333333333</ele><time>2026-04-12T07:55:12Z</time></trkpt><trkpt lat="44.634092045155896" lon="7.993547988278823"><ele>306.0</ele><time>2026-04-12T07:55:15Z</time></trkpt><trkpt lat="44.6340263779784" lon="7.993487654817379"><ele>306.0</ele><time>2026-04-12T07:55:18Z</time></trkpt><trkpt lat="44.63397236723135" lon="7.993422366004192"><ele>306.0</ele><time>2026-04-12T07:55:21Z</time></trkpt><trkpt lat="44.63390822026152" lon="7.993358712725035"><ele>306.0</ele><time>2026-04-12T07:55:24Z</time></trkpt><trkpt lat="44.63384503677296" lon="7.993290836709553"><ele>306.0</ele><time>2026-04-12T07:55:27Z</time></trkpt><trkpt lat="44.6337781151007" lon="7.993237816420446"><ele>306.0</ele><time>2026-04-12T07:55:32Z</time></trkpt><trkpt lat="44.6337156738071" lon="7.993194840837408"><ele>306.0</ele><time>2026-04-12T07:55:39Z</time></trkpt><trkpt lat="44.63365296218551" lon="7.993139637702265"><ele>306.2857142857143</ele><time>2026-04-12T07:55:43Z</time></trkpt><trkpt lat="44.633598759917916" lon="7.993092243521611"><ele>306.57142857142856</ele><time>2026-04-12T07:55:46Z</time></trkpt><trkpt lat="44.63354144313336" lon="7.993049602690472"><ele>306.8571428571429</ele><time>2026-04-12T07:55:49Z</time></trkpt><trkpt lat="44.633476802003784" lon="7.993002354329309"><ele>307.1428571428571</ele><time>2026-04-12T07:55:53Z</time></trkpt><trkpt lat="44.63341355301841" lon="7.992957743936591"><ele>307.42857142857144</ele><time>2026-04-12T07:55:56Z</time></trkpt><trkpt lat="44.63334250297574" lon="7.992907171435044"><ele>307.7142857142857</ele><time>2026-04-12T07:55:59Z</time></trkpt><trkpt lat="44.633279292220024" lon="7.992851388033845"><ele>308.0</ele><time>2026-04-12T07:56:02Z</time></trkpt><trkpt lat="44.63321885694368" lon="7.992792983059141"><ele>308.0</ele><time>2026-04-12T07:56:05Z</time></trkpt><trkpt lat="44.63314681355244" lon="7.992760705940424"><ele>308.0</ele><time>2026-04-12T07:56:09Z</time></trkpt><trkpt lat="44.63307805239771" lon="7.9927684157770145"><ele>308.0</ele><time>2026-04-12T07:56:12Z</time></trkpt><trkpt lat="44.633007203759114" lon="7.992795121621335"><ele>308.0</ele><time>2026-04-12T07:56:16Z</time></trkpt><trkpt lat="44.63293829825719" lon="7.992767591714815"><ele>308.0</ele><time>2026-04-12T07:56:21Z</time></trkpt><trkpt lat="44.632868887815754" lon="7.992752647456725"><ele>308.0</ele><time>2026-04-12T07:56:25Z</time></trkpt><trkpt lat="44.63280405059937" lon="7.992755051614864"><ele>308.0</ele><time>2026-04-12T07:56:31Z</time></trkpt><trkpt lat="44.63272283803491" lon="7.99275326389501"><ele>307.0</ele><time>2026-04-12T07:56:35Z</time></trkpt><trkpt lat="44.63264177763071" lon="7.992749164786228"><ele>306.0</ele><time>2026-04-12T07:56:39Z</time></trkpt><trkpt lat="44.63256394302479" lon="7.992720079454628"><ele>305.0</ele><time>2026-04-12T07:56:42Z</time></trkpt><trkpt lat="44.63248329038013" lon="7.992724544973167"><ele>304.0</ele><time>2026-04-12T07:56:45Z</time></trkpt><trkpt lat="44.63241215589939" lon="7.992703167028168"><ele>303.0</ele><time>2026-04-12T07:56:48Z</time></trkpt><trkpt lat="44.63233557688476" lon="7.9926862241497805"><ele>302.0</ele><time>2026-04-12T07:56:51Z</time></trkpt><trkpt lat="44.632263125890056" lon="7.992667940812661"><ele>302.0</ele><time>2026-04-12T07:56:54Z</time></trkpt><trkpt lat="44.632189144771665" lon="7.992632319880732"><ele>302.0</ele><time>2026-04-12T07:56:57Z</time></trkpt><trkpt lat="44.632118701781415" lon="7.992598490437408"><ele>302.0</ele><time>2026-04-12T07:56:59Z</time></trkpt><trkpt lat="44.63203963282236" lon="7.992565008322065"><ele>302.0</ele><time>2026-04-12T07:57:02Z</time></trkpt><trkpt lat="44.63197030166037" lon="7.992535842627479"><ele>302.0</ele><time>2026-04-12T07:57:05Z</time></trkpt><trkpt lat="44.63197438232591" lon="7.992440952018113"><ele>302.0</ele><time>2026-04-12T07:57:10Z</time></trkpt><trkpt lat="44.6320347490327" lon="7.992373525976652"><ele>302.83333333333337</ele><time>2026-04-12T07:57:13Z</time></trkpt><trkpt lat="44.63210017525259" lon="7.992276631697192"><ele>303.6666666666667</ele><time>2026-04-12T07:57:16Z</time></trkpt><trkpt lat="44.632142956140136" lon="7.9921951258501815"><ele>304.5</ele><time>2026-04-12T07:57:19Z</time></trkpt><trkpt lat="44.63216872278581" lon="7.992073599092646"><ele>305.3333333333333</ele><time>2026-04-12T07:57:23Z</time></trkpt><trkpt lat="44.63217770058542" lon="7.991952700595284"><ele>306.16666666666663</ele><time>2026-04-12T07:57:26Z</time></trkpt><trkpt lat="44.63215528307254" lon="7.9918305745632825"><ele>307.0</ele><time>2026-04-12T07:57:29Z</time></trkpt><trkpt lat="44.63212453705439" lon="7.991741966142373"><ele>306.0</ele><time>2026-04-12T07:57:32Z</time></trkpt><trkpt lat="44.63208038241649" lon="7.991650533320691"><ele>305.0</ele><time>2026-04-12T07:57:36Z</time></trkpt><trkpt lat="44.6320380200273" lon="7.991567326027773"><ele>304.0</ele><time>2026-04-12T07:57:39Z</time></trkpt><trkpt lat="44.63197332196111" lon="7.9914737237770765"><ele>303.0</ele><time>2026-04-12T07:57:42Z</time></trkpt><trkpt lat="44.63190696631469" lon="7.991391877462355"><ele>302.0</ele><time>2026-04-12T07:57:45Z</time></trkpt><trkpt lat="44.63185053562204" lon="7.991338738733109"><ele>301.0</ele><time>2026-04-12T07:57:47Z</time></trkpt><trkpt lat="44.63178102918545" lon="7.991280921197672"><ele>301.0</ele><time>2026-04-12T07:57:49Z</time></trkpt><trkpt lat="44.63171543717542" lon="7.991230929479402"><ele>301.0</ele><time>2026-04-12T07:57:51Z</time></trkpt><trkpt lat="44.63164044657708" lon="7.991174169495527"><ele>301.0</ele><time>2026-04-12T07:57:53Z</time></trkpt><trkpt lat="44.631556884231664" lon="7.991098171234817"><ele>301.0</ele><time>2026-04-12T07:57:55Z</time></trkpt><trkpt lat="44.631463871649274" lon="7.99100827790472"><ele>301.0</ele><time>2026-04-12T07:57:57Z</time></trkpt><trkpt lat="44.631368579260545" lon="7.990888055715318"><ele>299.42857142857144</ele><time>2026-04-12T07:57:59Z</time></trkpt><trkpt lat="44.6313270239487" lon="7.990812592160974"><ele>297.8571428571429</ele><time>2026-04-12T07:58:00Z</time></trkpt><trkpt lat="44.63129010523262" lon="7.990724362166848"><ele>296.2857142857143</ele><time>2026-04-12T07:58:01Z</time></trkpt><trkpt lat="44.6312568645827" lon="7.990631464002644"><ele>294.7142857142857</ele><time>2026-04-12T07:58:02Z</time></trkpt><trkpt lat="44.631229841062655" lon="7.990530729878202"><ele>293.14285714285717</ele><time>2026-04-12T07:58:03Z</time></trkpt><trkpt lat="44.63120491339023" lon="7.990426497079379"><ele>291.57142857142856</ele><time>2026-04-12T07:58:04Z</time></trkpt><trkpt lat="44.63118095058014" lon="7.990320320408493"><ele>290.0</ele><time>2026-04-12T07:58:05Z</time></trkpt><trkpt lat="44.631154676582895" lon="7.990211261376066"><ele>290.1666666666667</ele><time>2026-04-12T07:58:06Z</time></trkpt><trkpt lat="44.63113104318649" lon="7.990098176604392"><ele>290.33333333333337</ele><time>2026-04-12T07:58:07Z</time></trkpt><trkpt lat="44.63110774886001" lon="7.989981268195162"><ele>290.5</ele><time>2026-04-12T07:58:08Z</time></trkpt><trkpt lat="44.631077231838766" lon="7.989861829552503"><ele>290.6666666666667</ele><time>2026-04-12T07:58:09Z</time></trkpt><trkpt lat="44.631047847835575" lon="7.989740707548825"><ele>290.8333333333333</ele><time>2026-04-12T07:58:10Z</time></trkpt><trkpt lat="44.63102322184998" lon="7.989612505314699"><ele>291.0</ele><time>2026-04-12T07:58:11Z</time></trkpt><trkpt lat="44.630993182061516" lon="7.989484474443212"><ele>291.0</ele><time>2026-04-12T07:58:12Z</time></trkpt><trkpt lat="44.63096137573572" lon="7.989353779269475"><ele>291.0</ele><time>2026-04-12T07:58:13Z</time></trkpt><trkpt lat="44.63093111684188" lon="7.989219589293258"><ele>291.0</ele><time>2026-04-12T07:58:14Z</time></trkpt><trkpt lat="44.6309012883329" lon="7.989088680009205"><ele>291.0</ele><time>2026-04-12T07:58:15Z</time></trkpt><trkpt lat="44.630871495972315" lon="7.988963215446287"><ele>291.0</ele><time>2026-04-12T07:58:16Z</time></trkpt><trkpt lat="44.63083943344625" lon="7.988838313198699"><ele>289.6</ele><time>2026-04-12T07:58:17Z</time></trkpt><trkpt lat="44.630808871701234" lon="7.988712839339976"><ele>288.20000000000005</ele><time>2026-04-12T07:58:18Z</time></trkpt><trkpt lat="44.630779995067904" lon="7.988590416319887"><ele>286.79999999999995</ele><time>2026-04-12T07:58:19Z</time></trkpt><trkpt lat="44.63075045352073" lon="7.988468492759608"><ele>285.4</ele><time>2026-04-12T07:58:20Z</time></trkpt><trkpt lat="44.63072139077753" lon="7.988346995459405"><ele>284.0</ele><time>2026-04-12T07:58:21Z</time></trkpt><trkpt lat="44.630692767286135" lon="7.9882219905822645"><ele>282.4</ele><time>2026-04-12T07:58:22Z</time></trkpt><trkpt lat="44.6306725556929" lon="7.98809303152794"><ele>280.79999999999995</ele><time>2026-04-12T07:58:23Z</time></trkpt><trkpt lat="44.630659559878566" lon="7.987961578586695"><ele>279.20000000000005</ele><time>2026-04-12T07:58:24Z</time></trkpt><trkpt lat="44.630660148295135" lon="7.98782542203897"><ele>277.6</ele><time>2026-04-12T07:58:25Z</time></trkpt><trkpt lat="44.63067321303877" lon="7.987686789096019"><ele>276.0</ele><time>2026-04-12T07:58:26Z</time></trkpt><trkpt lat="44.630689736685035" lon="7.987545228262572"><ele>275.6</ele><time>2026-04-12T07:58:27Z</time></trkpt><trkpt lat="44.63071085787989" lon="7.987402811616992"><ele>275.20000000000005</ele><time>2026-04-12T07:58:28Z</time></trkpt><trkpt lat="44.63074000733925" lon="7.987268791106681"><ele>274.79999999999995</ele><time>2026-04-12T07:58:29Z</time></trkpt><trkpt lat="44.630778095756234" lon="7.987150769414688"><ele>274.4</ele><time>2026-04-12T07:58:30Z</time></trkpt><trkpt lat="44.630823997644775" lon="7.987046777617667"><ele>274.0</ele><time>2026-04-12T07:58:31Z</time></trkpt><trkpt lat="44.630879444304696" lon="7.986962723050632"><ele>274.0</ele><time>2026-04-12T07:58:32Z</time></trkpt><trkpt lat="44.6309581900279" lon="7.986902618615619"><ele>274.0</ele><time>2026-04-12T07:58:33Z</time></trkpt><trkpt lat="44.63104871886686" lon="7.986865163513709"><ele>274.0</ele><time>2026-04-12T07:58:34Z</time></trkpt><trkpt lat="44.63114618021662" lon="7.986853819515335"><ele>274.0</ele><time>2026-04-12T07:58:35Z</time></trkpt><trkpt lat="44.63124383920722" lon="7.986857151083462"><ele>274.0</ele><time>2026-04-12T07:58:36Z</time></trkpt><trkpt lat="44.6313307130406" lon="7.986842928170136"><ele>270.4</ele><time>2026-04-12T07:58:37Z</time></trkpt><trkpt lat="44.631396105040075" lon="7.986829692202839"><ele>266.79999999999995</ele><time>2026-04-12T07:58:38Z</time></trkpt><trkpt lat="44.63145931542423" lon="7.986694956599201"><ele>263.20000000000005</ele><time>2026-04-12T07:58:40Z</time></trkpt><trkpt lat="44.631392131114666" lon="7.986552890258272"><ele>259.6</ele><time>2026-04-12T07:58:42Z</time></trkpt><trkpt lat="44.631321085792315" lon="7.986508788326206"><ele>256.0</ele><time>2026-04-12T07:58:43Z</time></trkpt><trkpt lat="44.631250678002466" lon="7.986503598667306"><ele>255.83333333333331</ele><time>2026-04-12T07:58:44Z</time></trkpt><trkpt lat="44.631174904355966" lon="7.98654517708145"><ele>255.66666666666666</ele><time>2026-04-12T07:58:45Z</time></trkpt><trkpt lat="44.631098085374326" lon="7.986574452792796"><ele>255.5</ele><time>2026-04-12T07:58:46Z</time></trkpt><trkpt lat="44.63102159682958" lon="7.986584080607752"><ele>255.33333333333331</ele><time>2026-04-12T07:58:47Z</time></trkpt><trkpt lat="44.63092971014634" lon="7.986591265080821"><ele>255.16666666666666</ele><time>2026-04-12T07:58:48Z</time></trkpt><trkpt lat="44.63084380129683" lon="7.986600990584856"><ele>255.0</ele><time>2026-04-12T07:58:49Z</time></trkpt><trkpt lat="44.63075935828382" lon="7.986627469643096"><ele>258.8</ele><time>2026-04-12T07:58:50Z</time></trkpt><trkpt lat="44.6306758415282" lon="7.986683371078704"><ele>262.6</ele><time>2026-04-12T07:58:51Z</time></trkpt><trkpt lat="44.63059725992344" lon="7.98676122605073"><ele>266.4</ele><time>2026-04-12T07:58:52Z</time></trkpt><trkpt lat="44.63052209387219" lon="7.986856155953318"><ele>270.2</ele><time>2026-04-12T07:58:53Z</time></trkpt><trkpt lat="44.630456274195076" lon="7.986969346212591"><ele>274.0</ele><time>2026-04-12T07:58:54Z</time></trkpt><trkpt lat="44.630394560235075" lon="7.987091589465072"><ele>274.0</ele><time>2026-04-12T07:58:55Z</time></trkpt><trkpt lat="44.63034364479129" lon="7.987208295418805"><ele>274.0</ele><time>2026-04-12T07:58:56Z</time></trkpt><trkpt lat="44.6302950825279" lon="7.98730351746171"><ele>274.0</ele><time>2026-04-12T07:58:57Z</time></trkpt><trkpt lat="44.63025214412025" lon="7.987387674310659"><ele>274.0</ele><time>2026-04-12T07:58:58Z</time></trkpt><trkpt lat="44.63021655891409" lon="7.9874655072736225"><ele>274.0</ele><time>2026-04-12T07:58:59Z</time></trkpt><trkpt lat="44.63013057784355" lon="7.98754549004848"><ele>274.0</ele><time>2026-04-12T07:59:01Z</time></trkpt><trkpt lat="44.630052916575536" lon="7.987442151125518"><ele>271.00000000000006</ele><time>2026-04-12T07:59:03Z</time></trkpt><trkpt lat="44.63005131196797" lon="7.98734011409984"><ele>268.0</ele><time>2026-04-12T07:59:04Z</time></trkpt><trkpt lat="44.63007538927583" lon="7.987247835429669"><ele>265.0</ele><time>2026-04-12T07:59:05Z</time></trkpt><trkpt lat="44.63010972314805" lon="7.987165536059622"><ele>262.0</ele><time>2026-04-12T07:59:06Z</time></trkpt><trkpt lat="44.63014869330752" lon="7.987074915258351"><ele>259.0</ele><time>2026-04-12T07:59:07Z</time></trkpt><trkpt lat="44.630188348310526" lon="7.986984805703951"><ele>256.00000000000006</ele><time>2026-04-12T07:59:08Z</time></trkpt><trkpt lat="44.63022251079447" lon="7.986882502820601"><ele>253.00000000000003</ele><time>2026-04-12T07:59:09Z</time></trkpt><trkpt lat="44.630263732552564" lon="7.986775079535657"><ele>254.60000000000002</ele><time>2026-04-12T07:59:10Z</time></trkpt><trkpt lat="44.63030693902838" lon="7.986661633616345"><ele>256.20000000000005</ele><time>2026-04-12T07:59:11Z</time></trkpt><trkpt lat="44.63035269187247" lon="7.986545968901256"><ele>257.8</ele><time>2026-04-12T07:59:12Z</time></trkpt><trkpt lat="44.63040221045483" lon="7.986427627215516"><ele>259.40000000000003</ele><time>2026-04-12T07:59:13Z</time></trkpt><trkpt lat="44.630457011574755" lon="7.986312528040721"><ele>261.0</ele><time>2026-04-12T07:59:14Z</time></trkpt><trkpt lat="44.630516291518816" lon="7.9862070093400925"><ele>261.0</ele><time>2026-04-12T07:59:15Z</time></trkpt><trkpt lat="44.630588303145494" lon="7.986114862827737"><ele>261.0</ele><time>2026-04-12T07:59:16Z</time></trkpt><trkpt lat="44.63067245139476" lon="7.986034725344034"><ele>261.0</ele><time>2026-04-12T07:59:17Z</time></trkpt><trkpt lat="44.630767507165935" lon="7.985967136152353"><ele>261.0</ele><time>2026-04-12T07:59:18Z</time></trkpt><trkpt lat="44.63086921228526" lon="7.9859138438193"><ele>261.0</ele><time>2026-04-12T07:59:19Z</time></trkpt><trkpt lat="44.63097507776424" lon="7.985873715498071"><ele>255.25</ele><time>2026-04-12T07:59:20Z</time></trkpt><trkpt lat="44.631082239558886" lon="7.985834874134519"><ele>249.5</ele><time>2026-04-12T07:59:21Z</time></trkpt><trkpt lat="44.63118898197428" lon="7.985782501035182"><ele>243.75</ele><time>2026-04-12T07:59:22Z</time></trkpt><trkpt lat="44.63130121382721" lon="7.98573745862235"><ele>238.0</ele><time>2026-04-12T07:59:23Z</time></trkpt><trkpt lat="44.6314107534126" lon="7.985691072552399"><ele>238.0</ele><time>2026-04-12T07:59:24Z</time></trkpt><trkpt lat="44.63151666973457" lon="7.985642171654515"><ele>238.0</ele><time>2026-04-12T07:59:25Z</time></trkpt><trkpt lat="44.63162200354861" lon="7.985597209513009"><ele>238.0</ele><time>2026-04-12T07:59:26Z</time></trkpt><trkpt lat="44.63172450870826" lon="7.985576413020843"><ele>238.0</ele><time>2026-04-12T07:59:27Z</time></trkpt><trkpt lat="44.63182773384871" lon="7.985584642596209"><ele>238.0</ele><time>2026-04-12T07:59:28Z</time></trkpt><trkpt lat="44.63193558586746" lon="7.985610411896733"><ele>236.25</ele><time>2026-04-12T07:59:29Z</time></trkpt><trkpt lat="44.63204197081783" lon="7.985659204275741"><ele>234.5</ele><time>2026-04-12T07:59:30Z</time></trkpt><trkpt lat="44.63214166374778" lon="7.98575344606048"><ele>232.75</ele><time>2026-04-12T07:59:31Z</time></trkpt><trkpt lat="44.63223871851285" lon="7.9858452334753105"><ele>231.0</ele><time>2026-04-12T07:59:32Z</time></trkpt><trkpt lat="44.63232694278252" lon="7.985942939134545"><ele>231.0</ele><time>2026-04-12T07:59:33Z</time></trkpt><trkpt lat="44.632407010909496" lon="7.986029126799164"><ele>231.0</ele><time>2026-04-12T07:59:34Z</time></trkpt><trkpt lat="44.632483960378046" lon="7.986099990093554"><ele>231.0</ele><time>2026-04-12T07:59:35Z</time></trkpt><trkpt lat="44.63255198882525" lon="7.986170259489453"><ele>231.0</ele><time>2026-04-12T07:59:36Z</time></trkpt><trkpt lat="44.63262325754056" lon="7.986214686462061"><ele>231.0</ele><time>2026-04-12T07:59:37Z</time></trkpt><trkpt lat="44.632700664368485" lon="7.986216508757453"><ele>231.0</ele><time>2026-04-12T07:59:38Z</time></trkpt><trkpt lat="44.63277868693306" lon="7.986182467061703"><ele>230.0</ele><time>2026-04-12T07:59:39Z</time></trkpt><trkpt lat="44.6328481721385" lon="7.986120942088569"><ele>229.00000000000003</ele><time>2026-04-12T07:59:40Z</time></trkpt><trkpt lat="44.63290401104685" lon="7.986024186069512"><ele>228.00000000000003</ele><time>2026-04-12T07:59:41Z</time></trkpt><trkpt lat="44.63294770152554" lon="7.9859073201622195"><ele>227.0</ele><time>2026-04-12T07:59:42Z</time></trkpt><trkpt lat="44.63298670712124" lon="7.985784611281898"><ele>226.0</ele><time>2026-04-12T07:59:43Z</time></trkpt><trkpt lat="44.6330335359019" lon="7.985667561169621"><ele>225.20000000000002</ele><time>2026-04-12T07:59:44Z</time></trkpt><trkpt lat="44.63308035196723" lon="7.9855441260039415"><ele>224.40000000000003</ele><time>2026-04-12T07:59:45Z</time></trkpt><trkpt lat="44.633118037766906" lon="7.985430407603758"><ele>223.6</ele><time>2026-04-12T07:59:46Z</time></trkpt><trkpt lat="44.633161834076155" lon="7.985333757367929"><ele>222.8</ele><time>2026-04-12T07:59:47Z</time></trkpt><trkpt lat="44.63319819124697" lon="7.985249309755926"><ele>222.0</ele><time>2026-04-12T07:59:48Z</time></trkpt><trkpt lat="44.63326433718761" lon="7.985126068745513"><ele>222.0</ele><time>2026-04-12T07:59:50Z</time></trkpt><trkpt lat="44.633306567113145" lon="7.98503869192987"><ele>222.0</ele><time>2026-04-12T07:59:52Z</time></trkpt><trkpt lat="44.63327103114007" lon="7.984924162037618"><ele>222.0</ele><time>2026-04-12T07:59:55Z</time></trkpt><trkpt lat="44.63320102467816" lon="7.98488643760667"><ele>222.0</ele><time>2026-04-12T07:59:57Z</time></trkpt><trkpt lat="44.63312777260111" lon="7.984881616229343"><ele>222.0</ele><time>2026-04-12T08:00:00Z</time></trkpt><trkpt lat="44.63304828966197" lon="7.984854069181191"><ele>222.0</ele><time>2026-04-12T08:00:03Z</time></trkpt><trkpt lat="44.63295894954486" lon="7.984846381881486"><ele>221.16666666666666</ele><time>2026-04-12T08:00:06Z</time></trkpt><trkpt lat="44.63287918679054" lon="7.984833105812914"><ele>220.33333333333331</ele><time>2026-04-12T08:00:10Z</time></trkpt><trkpt lat="44.63280274524749" lon="7.9848167740577525"><ele>219.5</ele><time>2026-04-12T08:00:14Z</time></trkpt><trkpt lat="44.63272696609364" lon="7.9848105114904975"><ele>218.66666666666666</ele><time>2026-04-12T08:00:18Z</time></trkpt><trkpt lat="44.63266043837956" lon="7.984816921934606"><ele>217.83333333333331</ele><time>2026-04-12T08:00:22Z</time></trkpt><trkpt lat="44.63258432582702" lon="7.984814070475592"><ele>217.0</ele><time>2026-04-12T08:00:27Z</time></trkpt><trkpt lat="44.63251042794583" lon="7.984786990501552"><ele>216.85714285714286</ele><time>2026-04-12T08:00:45Z</time></trkpt><trkpt lat="44.6324223612043" lon="7.984796948952068"><ele>216.71428571428572</ele><time>2026-04-12T08:00:48Z</time></trkpt><trkpt lat="44.632359787786235" lon="7.984811906401872"><ele>216.57142857142856</ele><time>2026-04-12T08:00:50Z</time></trkpt><trkpt lat="44.63229270664757" lon="7.984817698235723"><ele>216.42857142857144</ele><time>2026-04-12T08:00:52Z</time></trkpt><trkpt lat="44.63222019750197" lon="7.984816935936838"><ele>216.28571428571428</ele><time>2026-04-12T08:00:54Z</time></trkpt><trkpt lat="44.63214188321104" lon="7.984826594824072"><ele>216.14285714285714</ele><time>2026-04-12T08:00:56Z</time></trkpt><trkpt lat="44.632063314510354" lon="7.984828535821069"><ele>216.0</ele><time>2026-04-12T08:00:58Z</time></trkpt><trkpt lat="44.631980741483325" lon="7.98483909793599"><ele>216.66666666666666</ele><time>2026-04-12T08:01:00Z</time></trkpt><trkpt lat="44.63189934908184" lon="7.984852740516524"><ele>217.33333333333331</ele><time>2026-04-12T08:01:02Z</time></trkpt><trkpt lat="44.63181905342569" lon="7.984861951931138"><ele>218.0</ele><time>2026-04-12T08:01:04Z</time></trkpt><trkpt lat="44.63173503169082" lon="7.984857086284416"><ele>218.66666666666666</ele><time>2026-04-12T08:01:06Z</time></trkpt><trkpt lat="44.63165350163182" lon="7.9848656922918835"><ele>219.33333333333331</ele><time>2026-04-12T08:01:08Z</time></trkpt><trkpt lat="44.631571642693046" lon="7.984880660956784"><ele>220.0</ele><time>2026-04-12T08:01:10Z</time></trkpt><trkpt lat="44.63149185194889" lon="7.984880147105691"><ele>219.99999999999997</ele><time>2026-04-12T08:01:12Z</time></trkpt><trkpt lat="44.631408680806054" lon="7.9848925646674935"><ele>220.0</ele><time>2026-04-12T08:01:14Z</time></trkpt><trkpt lat="44.63132570926935" lon="7.9848955341014065"><ele>220.0</ele><time>2026-04-12T08:01:16Z</time></trkpt><trkpt lat="44.63125296703882" lon="7.984902065805457"><ele>220.0</ele><time>2026-04-12T08:01:18Z</time></trkpt><trkpt lat="44.631186989574495" lon="7.984913455331174"><ele>219.99999999999997</ele><time>2026-04-12T08:01:20Z</time></trkpt><trkpt lat="44.63111279759622" lon="7.984925379934569"><ele>220.0</ele><time>2026-04-12T08:01:22Z</time></trkpt><trkpt lat="44.631033378078364" lon="7.9849301673018465"><ele>219.83333333333331</ele><time>2026-04-12T08:01:24Z</time></trkpt><trkpt lat="44.63095097371955" lon="7.984937304031485"><ele>219.66666666666666</ele><time>2026-04-12T08:01:26Z</time></trkpt><trkpt lat="44.63086734229775" lon="7.984949329191458"><ele>219.5</ele><time>2026-04-12T08:01:28Z</time></trkpt><trkpt lat="44.63078458073941" lon="7.984952330614195"><ele>219.33333333333331</ele><time>2026-04-12T08:01:30Z</time></trkpt><trkpt lat="44.63069908295322" lon="7.984956287617066"><ele>219.16666666666666</ele><time>2026-04-12T08:01:32Z</time></trkpt><trkpt lat="44.630617976412054" lon="7.984949272067198"><ele>219.0</ele><time>2026-04-12T08:01:34Z</time></trkpt><trkpt lat="44.63053549307713" lon="7.984940009424684"><ele>219.0</ele><time>2026-04-12T08:01:36Z</time></trkpt><trkpt lat="44.63044718295846" lon="7.98492351113674"><ele>219.0</ele><time>2026-04-12T08:01:38Z</time></trkpt><trkpt lat="44.63035973979042" lon="7.984891871555712"><ele>219.0</ele><time>2026-04-12T08:01:40Z</time></trkpt><trkpt lat="44.630275292539814" lon="7.984864940357413"><ele>219.0</ele><time>2026-04-12T08:01:42Z</time></trkpt><trkpt lat="44.63019556987426" lon="7.984833177757988"><ele>219.0</ele><time>2026-04-12T08:01:44Z</time></trkpt><trkpt lat="44.63012017210375" lon="7.984798225736445"><ele>219.0</ele><time>2026-04-12T08:01:46Z</time></trkpt><trkpt lat="44.63003850395301" lon="7.984761295542659"><ele>218.83333333333334</ele><time>2026-04-12T08:01:48Z</time></trkpt><trkpt lat="44.629950835777706" lon="7.984733826756329"><ele>218.66666666666669</ele><time>2026-04-12T08:01:50Z</time></trkpt><trkpt lat="44.629864351032204" lon="7.984707361273418"><ele>218.5</ele><time>2026-04-12T08:01:52Z</time></trkpt><trkpt lat="44.62977116294325" lon="7.984694431372149"><ele>218.33333333333334</ele><time>2026-04-12T08:01:54Z</time></trkpt><trkpt lat="44.629686594305305" lon="7.984692664865296"><ele>218.16666666666669</ele><time>2026-04-12T08:01:56Z</time></trkpt><trkpt lat="44.62959504682887" lon="7.984690077228225"><ele>218.0</ele><time>2026-04-12T08:01:58Z</time></trkpt><trkpt lat="44.62950131895573" lon="7.9846871633409835"><ele>218.4</ele><time>2026-04-12T08:02:00Z</time></trkpt><trkpt lat="44.62940464291532" lon="7.984695452932338"><ele>218.8</ele><time>2026-04-12T08:02:02Z</time></trkpt><trkpt lat="44.62930936221423" lon="7.984707619356373"><ele>219.2</ele><time>2026-04-12T08:02:04Z</time></trkpt><trkpt lat="44.62921806195139" lon="7.984717685086041"><ele>219.6</ele><time>2026-04-12T08:02:06Z</time></trkpt><trkpt lat="44.6291235968921" lon="7.984726099292158"><ele>220.0</ele><time>2026-04-12T08:02:08Z</time></trkpt><trkpt lat="44.62902709236468" lon="7.984724255599599"><ele>220.0</ele><time>2026-04-12T08:02:10Z</time></trkpt><trkpt lat="44.62893039874746" lon="7.984722407251985"><ele>220.0</ele><time>2026-04-12T08:02:12Z</time></trkpt><trkpt lat="44.62883540081996" lon="7.98472196363682"><ele>220.0</ele><time>2026-04-12T08:02:14Z</time></trkpt><trkpt lat="44.62873741197317" lon="7.984719235196424"><ele>220.0</ele><time>2026-04-12T08:02:16Z</time></trkpt><trkpt lat="44.62864166399798" lon="7.9847239111791035"><ele>220.0</ele><time>2026-04-12T08:02:18Z</time></trkpt><trkpt lat="44.628547082069694" lon="7.984744752117383"><ele>219.8</ele><time>2026-04-12T08:02:20Z</time></trkpt><trkpt lat="44.62845504331843" lon="7.984764757924361"><ele>219.6</ele><time>2026-04-12T08:02:22Z</time></trkpt><trkpt lat="44.6283615634052" lon="7.984792407561952"><ele>219.39999999999998</ele><time>2026-04-12T08:02:24Z</time></trkpt><trkpt lat="44.628272664348785" lon="7.984817344062429"><ele>219.2</ele><time>2026-04-12T08:02:26Z</time></trkpt><trkpt lat="44.628180180332194" lon="7.984843372868526"><ele>219.0</ele><time>2026-04-12T08:02:28Z</time></trkpt><trkpt lat="44.62809005492087" lon="7.984876595917189"><ele>219.0</ele><time>2026-04-12T08:02:30Z</time></trkpt><trkpt lat="44.6279951523779" lon="7.9848979319221165"><ele>218.99999999999997</ele><time>2026-04-12T08:02:32Z</time></trkpt><trkpt lat="44.627900373366636" lon="7.984917465730978"><ele>218.99999999999997</ele><time>2026-04-12T08:02:34Z</time></trkpt><trkpt lat="44.62780285494548" lon="7.984942813428508"><ele>219.0</ele><time>2026-04-12T08:02:36Z</time></trkpt><trkpt lat="44.62770529326165" lon="7.984963758134079"><ele>219.0</ele><time>2026-04-12T08:02:38Z</time></trkpt><trkpt lat="44.627605237815594" lon="7.984987162187239"><ele>220.39999999999998</ele><time>2026-04-12T08:02:40Z</time></trkpt><trkpt lat="44.62750286187581" lon="7.985012902743476"><ele>221.79999999999998</ele><time>2026-04-12T08:02:42Z</time></trkpt><trkpt lat="44.627398255201776" lon="7.9850325174599766"><ele>223.20000000000002</ele><time>2026-04-12T08:02:44Z</time></trkpt><trkpt lat="44.62729416730826" lon="7.9850614063966425"><ele>224.60000000000002</ele><time>2026-04-12T08:02:46Z</time></trkpt><trkpt lat="44.62718688285112" lon="7.9850881783119485"><ele>226.0</ele><time>2026-04-12T08:02:48Z</time></trkpt><trkpt lat="44.62708031238108" lon="7.985116230282599"><ele>225.20000000000002</ele><time>2026-04-12T08:02:50Z</time></trkpt><trkpt lat="44.62697382218102" lon="7.9851459516311065"><ele>224.40000000000003</ele><time>2026-04-12T08:02:52Z</time></trkpt><trkpt lat="44.626864288090474" lon="7.9851724817187595"><ele>223.6</ele><time>2026-04-12T08:02:54Z</time></trkpt><trkpt lat="44.626756977027824" lon="7.9852035492857585"><ele>222.8</ele><time>2026-04-12T08:02:56Z</time></trkpt><trkpt lat="44.62664862488822" lon="7.9852304303567125"><ele>222.0</ele><time>2026-04-12T08:02:58Z</time></trkpt><trkpt lat="44.6265416816443" lon="7.985263045220453"><ele>222.0</ele><time>2026-04-12T08:03:00Z</time></trkpt><trkpt lat="44.62643615897697" lon="7.985290475431594"><ele>222.0</ele><time>2026-04-12T08:03:02Z</time></trkpt><trkpt lat="44.62633123338451" lon="7.985322679698503"><ele>222.0</ele><time>2026-04-12T08:03:04Z</time></trkpt><trkpt lat="44.626228310700405" lon="7.985367111330721"><ele>222.0</ele><time>2026-04-12T08:03:06Z</time></trkpt><trkpt lat="44.62612928914905" lon="7.985420294355417"><ele>222.0</ele><time>2026-04-12T08:03:08Z</time></trkpt><trkpt lat="44.62603607243885" lon="7.985488037731366"><ele>221.6</ele><time>2026-04-12T08:03:10Z</time></trkpt><trkpt lat="44.62594608363161" lon="7.985566797071956"><ele>221.2</ele><time>2026-04-12T08:03:12Z</time></trkpt><trkpt lat="44.625859109865466" lon="7.985646749405696"><ele>220.8</ele><time>2026-04-12T08:03:14Z</time></trkpt><trkpt lat="44.62577596838235" lon="7.985728057448261"><ele>220.4</ele><time>2026-04-12T08:03:16Z</time></trkpt><trkpt lat="44.62569225897463" lon="7.985805483485986"><ele>220.0</ele><time>2026-04-12T08:03:18Z</time></trkpt><trkpt lat="44.6256129621234" lon="7.985880731826464"><ele>220.6</ele><time>2026-04-12T08:03:20Z</time></trkpt><trkpt lat="44.62553272050911" lon="7.985952056586399"><ele>221.2</ele><time>2026-04-12T08:03:22Z</time></trkpt><trkpt lat="44.62545115396363" lon="7.9860157204911095"><ele>221.8</ele><time>2026-04-12T08:03:24Z</time></trkpt><trkpt lat="44.625366582250656" lon="7.986079985570495"><ele>222.4</ele><time>2026-04-12T08:03:26Z</time></trkpt><trkpt lat="44.625279788067836" lon="7.986122841503738"><ele>223.0</ele><time>2026-04-12T08:03:28Z</time></trkpt><trkpt lat="44.625185048837125" lon="7.986151763159798"><ele>223.0</ele><time>2026-04-12T08:03:30Z</time></trkpt><trkpt lat="44.62508726855819" lon="7.986171924043822"><ele>223.0</ele><time>2026-04-12T08:03:32Z</time></trkpt><trkpt lat="44.624979837619435" lon="7.986188598380203"><ele>223.0</ele><time>2026-04-12T08:03:34Z</time></trkpt><trkpt lat="44.62486980457041" lon="7.986197363118185"><ele>223.0</ele><time>2026-04-12T08:03:36Z</time></trkpt><trkpt lat="44.62475832039041" lon="7.986212756184923"><ele>223.0</ele><time>2026-04-12T08:03:38Z</time></trkpt><trkpt lat="44.62464439566051" lon="7.9862202702339316"><ele>223.0</ele><time>2026-04-12T08:03:40Z</time></trkpt><trkpt lat="44.624525556999366" lon="7.986212915490913"><ele>223.0</ele><time>2026-04-12T08:03:42Z</time></trkpt><trkpt lat="44.62441318728889" lon="7.986165555221967"><ele>223.0</ele><time>2026-04-12T08:03:44Z</time></trkpt><trkpt lat="44.6242988401029" lon="7.986129758040074"><ele>223.0</ele><time>2026-04-12T08:03:46Z</time></trkpt><trkpt lat="44.624185679021785" lon="7.986082169524366"><ele>223.25</ele><time>2026-04-12T08:03:48Z</time></trkpt><trkpt lat="44.6240752436334" lon="7.98601191677751"><ele>223.5</ele><time>2026-04-12T08:03:50Z</time></trkpt><trkpt lat="44.623973966030064" lon="7.985914434907767"><ele>223.75</ele><time>2026-04-12T08:03:52Z</time></trkpt><trkpt lat="44.62388161001001" lon="7.9858102020148545"><ele>224.0</ele><time>2026-04-12T08:03:54Z</time></trkpt><trkpt lat="44.6237839126159" lon="7.985711631197309"><ele>223.39999999999998</ele><time>2026-04-12T08:03:56Z</time></trkpt><trkpt lat="44.62369633709772" lon="7.985605722740684"><ele>222.79999999999998</ele><time>2026-04-12T08:03:58Z</time></trkpt><trkpt lat="44.623645598158994" lon="7.98554662439183"><ele>222.20000000000002</ele><time>2026-04-12T08:03:59Z</time></trkpt><trkpt lat="44.623561453871226" lon="7.985430865512065"><ele>221.60000000000002</ele><time>2026-04-12T08:04:01Z</time></trkpt><trkpt lat="44.62354533606934" lon="7.985283158266329"><ele>221.0</ele><time>2026-04-12T08:04:03Z</time></trkpt><trkpt lat="44.62351825929536" lon="7.985137971483609"><ele>221.20000000000002</ele><time>2026-04-12T08:04:05Z</time></trkpt><trkpt lat="44.62348922923687" lon="7.984995337427418"><ele>221.40000000000003</ele><time>2026-04-12T08:04:07Z</time></trkpt><trkpt lat="44.62346906919182" lon="7.984854786843551"><ele>221.6</ele><time>2026-04-12T08:04:09Z</time></trkpt><trkpt lat="44.62344250964569" lon="7.9847240709826055"><ele>221.8</ele><time>2026-04-12T08:04:11Z</time></trkpt><trkpt lat="44.62340889798907" lon="7.984602895017405"><ele>222.0</ele><time>2026-04-12T08:04:13Z</time></trkpt><trkpt lat="44.623366086063186" lon="7.984496308752539"><ele>222.0</ele><time>2026-04-12T08:04:15Z</time></trkpt><trkpt lat="44.62330608994163" lon="7.984418259128241"><ele>222.0</ele><time>2026-04-12T08:04:17Z</time></trkpt><trkpt lat="44.6232432558344" lon="7.984352664447284"><ele>222.0</ele><time>2026-04-12T08:04:19Z</time></trkpt><trkpt lat="44.623181672592665" lon="7.984314349631058"><ele>222.0</ele><time>2026-04-12T08:04:23Z</time></trkpt><trkpt lat="44.62311150879641" lon="7.984297020435329"><ele>222.0</ele><time>2026-04-12T08:04:26Z</time></trkpt><trkpt lat="44.62303053848709" lon="7.984244287844173"><ele>222.0</ele><time>2026-04-12T08:04:29Z</time></trkpt><trkpt lat="44.62297055965445" lon="7.984216974122842"><ele>222.0</ele><time>2026-04-12T08:04:31Z</time></trkpt><trkpt lat="44.62288418483201" lon="7.984182521115542"><ele>222.0</ele><time>2026-04-12T08:04:34Z</time></trkpt><trkpt lat="44.622798091470635" lon="7.98414135462386"><ele>222.0</ele><time>2026-04-12T08:04:37Z</time></trkpt><trkpt lat="44.622708862042984" lon="7.984102695117781"><ele>222.0</ele><time>2026-04-12T08:04:40Z</time></trkpt><trkpt lat="44.62262082529173" lon="7.984065654268115"><ele>222.0</ele><time>2026-04-12T08:04:43Z</time></trkpt><trkpt lat="44.622555203568716" lon="7.984047600645383"><ele>222.0</ele><time>2026-04-12T08:04:45Z</time></trkpt><trkpt lat="44.622493148543455" lon="7.984026362396427"><ele>222.57142857142856</ele><time>2026-04-12T08:04:47Z</time></trkpt><trkpt lat="44.6224292003455" lon="7.984004897635243"><ele>223.14285714285717</ele><time>2026-04-12T08:04:49Z</time></trkpt><trkpt lat="44.62236462841385" lon="7.983983517213878"><ele>223.71428571428572</ele><time>2026-04-12T08:04:51Z</time></trkpt><trkpt lat="44.62229763647633" lon="7.983963723448814"><ele>224.28571428571428</ele><time>2026-04-12T08:04:53Z</time></trkpt><trkpt lat="44.622229712643765" lon="7.983943209557772"><ele>224.85714285714283</ele><time>2026-04-12T08:04:55Z</time></trkpt><trkpt lat="44.62216131787872" lon="7.983935368134575"><ele>225.42857142857144</ele><time>2026-04-12T08:04:57Z</time></trkpt><trkpt lat="44.62209038079458" lon="7.98393118195297"><ele>226.0</ele><time>2026-04-12T08:04:59Z</time></trkpt><trkpt lat="44.622019299020764" lon="7.983931710237581"><ele>225.99999999999997</ele><time>2026-04-12T08:05:01Z</time></trkpt><trkpt lat="44.621945633161594" lon="7.9839443973246755"><ele>226.0</ele><time>2026-04-12T08:05:03Z</time></trkpt><trkpt lat="44.62186767823494" lon="7.983952495417645"><ele>226.0</ele><time>2026-04-12T08:05:05Z</time></trkpt><trkpt lat="44.6217872269457" lon="7.9839783587516395"><ele>226.0</ele><time>2026-04-12T08:05:07Z</time></trkpt><trkpt lat="44.62170965328783" lon="7.984003565105957"><ele>225.99999999999997</ele><time>2026-04-12T08:05:09Z</time></trkpt><trkpt lat="44.62162911411529" lon="7.984031269458763"><ele>226.0</ele><time>2026-04-12T08:05:11Z</time></trkpt><trkpt lat="44.62154707533445" lon="7.984050315925792"><ele>226.0</ele><time>2026-04-12T08:05:13Z</time></trkpt><trkpt lat="44.62146078452459" lon="7.984063380692713"><ele>226.00000000000003</ele><time>2026-04-12T08:05:15Z</time></trkpt><trkpt lat="44.62136945709855" lon="7.984086633329336"><ele>226.00000000000003</ele><time>2026-04-12T08:05:17Z</time></trkpt><trkpt lat="44.621274397811675" lon="7.984099890925179"><ele>226.0</ele><time>2026-04-12T08:05:19Z</time></trkpt><trkpt lat="44.621177129345156" lon="7.984102336959831"><ele>226.0</ele><time>2026-04-12T08:05:21Z</time></trkpt><trkpt lat="44.62107519990487" lon="7.984120655088188"><ele>225.8</ele><time>2026-04-12T08:05:23Z</time></trkpt><trkpt lat="44.620976735327446" lon="7.984118491286088"><ele>225.60000000000002</ele><time>2026-04-12T08:05:25Z</time></trkpt><trkpt lat="44.62087658655845" lon="7.98410465763482"><ele>225.4</ele><time>2026-04-12T08:05:27Z</time></trkpt><trkpt lat="44.62077315855754" lon="7.984081612250503"><ele>225.2</ele><time>2026-04-12T08:05:29Z</time></trkpt><trkpt lat="44.62067333173353" lon="7.984064746843168"><ele>225.0</ele><time>2026-04-12T08:05:31Z</time></trkpt><trkpt lat="44.620582370271705" lon="7.984017715460561"><ele>225.0</ele><time>2026-04-12T08:05:33Z</time></trkpt><trkpt lat="44.62049044814148" lon="7.983993218773266"><ele>225.0</ele><time>2026-04-12T08:05:35Z</time></trkpt><trkpt lat="44.62041527045179" lon="7.98399338767229"><ele>225.0</ele><time>2026-04-12T08:05:37Z</time></trkpt><trkpt lat="44.62033424618482" lon="7.983989307399419"><ele>225.0</ele><time>2026-04-12T08:05:39Z</time></trkpt><trkpt lat="44.620261800608255" lon="7.983987436172445"><ele>225.0</ele><time>2026-04-12T08:05:41Z</time></trkpt><trkpt lat="44.620204143691325" lon="7.984023203564584"><ele>225.0</ele><time>2026-04-12T08:05:43Z</time></trkpt><trkpt lat="44.62012210557046" lon="7.984038275555396"><ele>224.8571428571429</ele><time>2026-04-12T08:05:46Z</time></trkpt><trkpt lat="44.62005241929047" lon="7.984058387676499"><ele>224.71428571428572</ele><time>2026-04-12T08:05:49Z</time></trkpt><trkpt lat="44.61998920415115" lon="7.984088086999347"><ele>224.57142857142858</ele><time>2026-04-12T08:05:52Z</time></trkpt><trkpt lat="44.61992687722561" lon="7.984116773643274"><ele>224.42857142857144</ele><time>2026-04-12T08:05:55Z</time></trkpt><trkpt lat="44.61987306170142" lon="7.984164878526884"><ele>224.28571428571428</ele><time>2026-04-12T08:05:58Z</time></trkpt><trkpt lat="44.6198043030908" lon="7.984178621169659"><ele>224.14285714285714</ele><time>2026-04-12T08:06:01Z</time></trkpt><trkpt lat="44.619733462450945" lon="7.98422034213256"><ele>224.0</ele><time>2026-04-12T08:06:04Z</time></trkpt><trkpt lat="44.61966406707745" lon="7.984243489153353"><ele>224.00000000000003</ele><time>2026-04-12T08:06:07Z</time></trkpt><trkpt lat="44.61958854149289" lon="7.984288957458365"><ele>224.0</ele><time>2026-04-12T08:06:10Z</time></trkpt><trkpt lat="44.61952974891544" lon="7.9843213072629755"><ele>224.0</ele><time>2026-04-12T08:06:12Z</time></trkpt><trkpt lat="44.61946963494645" lon="7.984365893811014"><ele>224.0</ele><time>2026-04-12T08:06:14Z</time></trkpt><trkpt lat="44.61940221206164" lon="7.9844063262911344"><ele>224.00000000000003</ele><time>2026-04-12T08:06:16Z</time></trkpt><trkpt lat="44.61932949490943" lon="7.984452732755767"><ele>224.0</ele><time>2026-04-12T08:06:18Z</time></trkpt><trkpt lat="44.61924952437874" lon="7.984496663680691"><ele>224.39999999999998</ele><time>2026-04-12T08:06:20Z</time></trkpt><trkpt lat="44.6191638630986" lon="7.9845400779085836"><ele>224.79999999999998</ele><time>2026-04-12T08:06:22Z</time></trkpt><trkpt lat="44.619080389004694" lon="7.984590356338649"><ele>225.20000000000002</ele><time>2026-04-12T08:06:24Z</time></trkpt><trkpt lat="44.618989031932195" lon="7.984632508882866"><ele>225.60000000000002</ele><time>2026-04-12T08:06:26Z</time></trkpt><trkpt lat="44.61889451468054" lon="7.984676826929419"><ele>226.0</ele><time>2026-04-12T08:06:28Z</time></trkpt><trkpt lat="44.61880608002122" lon="7.984733834602574"><ele>226.0</ele><time>2026-04-12T08:06:30Z</time></trkpt><trkpt lat="44.618717401863364" lon="7.984780360729674"><ele>226.00000000000003</ele><time>2026-04-12T08:06:32Z</time></trkpt><trkpt lat="44.61862731837579" lon="7.984829982412612"><ele>226.00000000000003</ele><time>2026-04-12T08:06:34Z</time></trkpt><trkpt lat="44.61853133752781" lon="7.9848871656492095"><ele>226.0</ele><time>2026-04-12T08:06:36Z</time></trkpt><trkpt lat="44.61844056155423" lon="7.984939379403812"><ele>226.0</ele><time>2026-04-12T08:06:38Z</time></trkpt><trkpt lat="44.618341925075434" lon="7.984991641628528"><ele>225.8</ele><time>2026-04-12T08:06:40Z</time></trkpt><trkpt lat="44.61824723325058" lon="7.985043008251842"><ele>225.60000000000002</ele><time>2026-04-12T08:06:42Z</time></trkpt><trkpt lat="44.61815265686144" lon="7.98510626061938"><ele>225.4</ele><time>2026-04-12T08:06:44Z</time></trkpt><trkpt lat="44.61804928055804" lon="7.985145274591011"><ele>225.2</ele><time>2026-04-12T08:06:46Z</time></trkpt><trkpt lat="44.61794179092698" lon="7.985180544652449"><ele>225.0</ele><time>2026-04-12T08:06:48Z</time></trkpt><trkpt lat="44.61783813619939" lon="7.985233063212649"><ele>225.5</ele><time>2026-04-12T08:06:50Z</time></trkpt><trkpt lat="44.6177253713086" lon="7.9852729735887555"><ele>226.0</ele><time>2026-04-12T08:06:52Z</time></trkpt><trkpt lat="44.617613680465574" lon="7.985320044227661"><ele>226.5</ele><time>2026-04-12T08:06:54Z</time></trkpt><trkpt lat="44.617505093319046" lon="7.985361139653807"><ele>227.0</ele><time>2026-04-12T08:06:56Z</time></trkpt><trkpt lat="44.6173962051854" lon="7.985402243190033"><ele>227.0</ele><time>2026-04-12T08:06:58Z</time></trkpt><trkpt lat="44.617284803151314" lon="7.985444347668424"><ele>227.0</ele><time>2026-04-12T08:07:00Z</time></trkpt><trkpt lat="44.61716836476289" lon="7.98545594682852"><ele>227.0</ele><time>2026-04-12T08:07:02Z</time></trkpt><trkpt lat="44.617049069858254" lon="7.985457370817529"><ele>227.0</ele><time>2026-04-12T08:07:04Z</time></trkpt><trkpt lat="44.616931174056155" lon="7.9854473172345735"><ele>227.39999999999998</ele><time>2026-04-12T08:07:06Z</time></trkpt><trkpt lat="44.616816405617556" lon="7.985439210323816"><ele>227.79999999999998</ele><time>2026-04-12T08:07:08Z</time></trkpt><trkpt lat="44.61670500881433" lon="7.985420308028314"><ele>228.2</ele><time>2026-04-12T08:07:10Z</time></trkpt><trkpt lat="44.616602440286854" lon="7.985415162941544"><ele>228.6</ele><time>2026-04-12T08:07:12Z</time></trkpt><trkpt lat="44.61650619661732" lon="7.985400966398349"><ele>229.0</ele><time>2026-04-12T08:07:14Z</time></trkpt><trkpt lat="44.61641708932592" lon="7.985384683748666"><ele>228.99999999999997</ele><time>2026-04-12T08:07:16Z</time></trkpt><trkpt lat="44.616338215185486" lon="7.985374526748483"><ele>229.0</ele><time>2026-04-12T08:07:18Z</time></trkpt><trkpt lat="44.61625846719957" lon="7.985365006408018"><ele>229.0</ele><time>2026-04-12T08:07:20Z</time></trkpt><trkpt lat="44.61618075036055" lon="7.985360388261534"><ele>229.0</ele><time>2026-04-12T08:07:22Z</time></trkpt><trkpt lat="44.61610564292893" lon="7.985352230845508"><ele>228.99999999999997</ele><time>2026-04-12T08:07:24Z</time></trkpt><trkpt lat="44.61601982749969" lon="7.985338440914956"><ele>229.0</ele><time>2026-04-12T08:07:27Z</time></trkpt><trkpt lat="44.61593253500298" lon="7.985321745088264"><ele>229.14285714285714</ele><time>2026-04-12T08:07:29Z</time></trkpt><trkpt lat="44.61586275601557" lon="7.985304206211025"><ele>229.28571428571428</ele><time>2026-04-12T08:07:31Z</time></trkpt><trkpt lat="44.61579365583954" lon="7.985290199142636"><ele>229.42857142857142</ele><time>2026-04-12T08:07:33Z</time></trkpt><trkpt lat="44.615723260935205" lon="7.985279865512554"><ele>229.57142857142856</ele><time>2026-04-12T08:07:35Z</time></trkpt><trkpt lat="44.61565366904128" lon="7.985262510882866"><ele>229.71428571428572</ele><time>2026-04-12T08:07:37Z</time></trkpt><trkpt lat="44.61558557291822" lon="7.9852516903694255"><ele>229.85714285714283</ele><time>2026-04-12T08:07:39Z</time></trkpt><trkpt lat="44.615516984276816" lon="7.985232624358234"><ele>229.99999999999997</ele><time>2026-04-12T08:07:41Z</time></trkpt><trkpt lat="44.615447590297485" lon="7.985207278866474"><ele>229.99999999999997</ele><time>2026-04-12T08:07:43Z</time></trkpt><trkpt lat="44.6153790797935" lon="7.985186792692609"><ele>230.0</ele><time>2026-04-12T08:07:45Z</time></trkpt><trkpt lat="44.61531245829727" lon="7.985167180439101"><ele>229.99999999999997</ele><time>2026-04-12T08:07:47Z</time></trkpt><trkpt lat="44.61524314809441" lon="7.985149000888442"><ele>229.99999999999997</ele><time>2026-04-12T08:07:49Z</time></trkpt><trkpt lat="44.615172329578634" lon="7.985131409622214"><ele>230.0</ele><time>2026-04-12T08:07:51Z</time></trkpt><trkpt lat="44.61509856259077" lon="7.985119282252574"><ele>229.99999999999997</ele><time>2026-04-12T08:07:53Z</time></trkpt><trkpt lat="44.61502364141401" lon="7.985112580932436"><ele>229.99999999999997</ele><time>2026-04-12T08:07:55Z</time></trkpt><trkpt lat="44.614946214351804" lon="7.985108081028252"><ele>229.99999999999997</ele><time>2026-04-12T08:07:57Z</time></trkpt><trkpt lat="44.6148710538222" lon="7.985107789130873"><ele>230.0</ele><time>2026-04-12T08:07:59Z</time></trkpt><trkpt lat="44.614796622818595" lon="7.985108241672575"><ele>229.99999999999997</ele><time>2026-04-12T08:08:01Z</time></trkpt><trkpt lat="44.61472555060341" lon="7.985108612254189"><ele>229.99999999999997</ele><time>2026-04-12T08:08:03Z</time></trkpt><trkpt lat="44.61465702846834" lon="7.985104555258505"><ele>230.0</ele><time>2026-04-12T08:08:05Z</time></trkpt><trkpt lat="44.61459001952796" lon="7.985102641923937"><ele>229.99999999999997</ele><time>2026-04-12T08:08:07Z</time></trkpt><trkpt lat="44.61452372295047" lon="7.98507382625949"><ele>229.99999999999997</ele><time>2026-04-12T08:08:09Z</time></trkpt><trkpt lat="44.61445418447914" lon="7.985057765400712"><ele>230.57142857142856</ele><time>2026-04-12T08:08:11Z</time></trkpt><trkpt lat="44.61438799153511" lon="7.985030582730859"><ele>231.14285714285714</ele><time>2026-04-12T08:08:13Z</time></trkpt><trkpt lat="44.614313342561516" lon="7.985028039837554"><ele>231.71428571428572</ele><time>2026-04-12T08:08:15Z</time></trkpt><trkpt lat="44.61424179623618" lon="7.98503399132634"><ele>232.28571428571428</ele><time>2026-04-12T08:08:17Z</time></trkpt><trkpt lat="44.61417283078685" lon="7.985061171898289"><ele>232.8571428571429</ele><time>2026-04-12T08:08:19Z</time></trkpt><trkpt lat="44.614105817344246" lon="7.985097130478166"><ele>233.42857142857144</ele><time>2026-04-12T08:08:21Z</time></trkpt><trkpt lat="44.61404221750362" lon="7.985131363924514"><ele>234.0</ele><time>2026-04-12T08:08:23Z</time></trkpt><trkpt lat="44.61397296264708" lon="7.985169804105382"><ele>234.0</ele><time>2026-04-12T08:08:25Z</time></trkpt><trkpt lat="44.61390986153417" lon="7.985196186706465"><ele>234.00000000000003</ele><time>2026-04-12T08:08:27Z</time></trkpt><trkpt lat="44.61384464436214" lon="7.985224125620912"><ele>234.0</ele><time>2026-04-12T08:08:29Z</time></trkpt><trkpt lat="44.613779515459456" lon="7.9852406241485365"><ele>234.0</ele><time>2026-04-12T08:08:31Z</time></trkpt><trkpt lat="44.613713218832984" lon="7.985251295419887"><ele>234.00000000000003</ele><time>2026-04-12T08:08:33Z</time></trkpt><trkpt lat="44.61364731059041" lon="7.985256334911607"><ele>234.0</ele><time>2026-04-12T08:08:35Z</time></trkpt><trkpt lat="44.61358162502214" lon="7.985243005217962"><ele>234.0</ele><time>2026-04-12T08:08:37Z</time></trkpt><trkpt lat="44.61351605619825" lon="7.985228069150206"><ele>234.71428571428572</ele><time>2026-04-12T08:08:39Z</time></trkpt><trkpt lat="44.61345064888822" lon="7.985203457215691"><ele>235.42857142857144</ele><time>2026-04-12T08:08:41Z</time></trkpt><trkpt lat="44.61338431606891" lon="7.985188665012287"><ele>236.14285714285717</ele><time>2026-04-12T08:08:43Z</time></trkpt><trkpt lat="44.61332017032914" lon="7.985165835363082"><ele>236.8571428571429</ele><time>2026-04-12T08:08:45Z</time></trkpt><trkpt lat="44.613252450109876" lon="7.985164302022945"><ele>237.57142857142858</ele><time>2026-04-12T08:08:47Z</time></trkpt><trkpt lat="44.613183922284485" lon="7.985175789662472"><ele>238.28571428571433</ele><time>2026-04-12T08:08:49Z</time></trkpt><trkpt lat="44.61311687710732" lon="7.9851902633247125"><ele>239.00000000000003</ele><time>2026-04-12T08:08:51Z</time></trkpt><trkpt lat="44.613058587864785" lon="7.9852326029151826"><ele>239.00000000000003</ele><time>2026-04-12T08:08:53Z</time></trkpt><trkpt lat="44.61297033003093" lon="7.985276610937087"><ele>239.0</ele><time>2026-04-12T08:08:56Z</time></trkpt><trkpt lat="44.61288336968682" lon="7.9853202410769715"><ele>239.0</ele><time>2026-04-12T08:08:59Z</time></trkpt><trkpt lat="44.61282480164701" lon="7.985360583668672"><ele>239.0</ele><time>2026-04-12T08:09:01Z</time></trkpt><trkpt lat="44.61276067547373" lon="7.98539665191736"><ele>239.00000000000003</ele><time>2026-04-12T08:09:03Z</time></trkpt><trkpt lat="44.61269300122863" lon="7.985422168630937"><ele>239.0</ele><time>2026-04-12T08:09:05Z</time></trkpt><trkpt lat="44.61262472689889" lon="7.9854487110280346"><ele>239.42857142857144</ele><time>2026-04-12T08:09:07Z</time></trkpt><trkpt lat="44.612559529509944" lon="7.985475751093552"><ele>239.85714285714286</ele><time>2026-04-12T08:09:09Z</time></trkpt><trkpt lat="44.61249419151594" lon="7.985492798745992"><ele>240.28571428571428</ele><time>2026-04-12T08:09:11Z</time></trkpt><trkpt lat="44.61242686056542" lon="7.985505231281637"><ele>240.71428571428572</ele><time>2026-04-12T08:09:13Z</time></trkpt><trkpt lat="44.61235919227352" lon="7.985516360429886"><ele>241.1428571428571</ele><time>2026-04-12T08:09:15Z</time></trkpt><trkpt lat="44.612292474669225" lon="7.985517871487493"><ele>241.57142857142856</ele><time>2026-04-12T08:09:17Z</time></trkpt><trkpt lat="44.61222657772431" lon="7.9855208487609834"><ele>242.0</ele><time>2026-04-12T08:09:19Z</time></trkpt><trkpt lat="44.61216144044376" lon="7.985521232589947"><ele>242.00000000000003</ele><time>2026-04-12T08:09:21Z</time></trkpt><trkpt lat="44.612065992626555" lon="7.985512218250595"><ele>242.0</ele><time>2026-04-12T08:09:24Z</time></trkpt><trkpt lat="44.61197497904442" lon="7.985485749200127"><ele>242.0</ele><time>2026-04-12T08:09:27Z</time></trkpt><trkpt lat="44.6118923213789" lon="7.985438221700488"><ele>242.0</ele><time>2026-04-12T08:09:30Z</time></trkpt><trkpt lat="44.611817997270094" lon="7.985388700250556"><ele>242.00000000000003</ele><time>2026-04-12T08:09:33Z</time></trkpt><trkpt lat="44.6117497297825" lon="7.98533702680326"><ele>242.0</ele><time>2026-04-12T08:09:36Z</time></trkpt><trkpt lat="44.61167096859752" lon="7.98528997722454"><ele>242.14285714285714</ele><time>2026-04-12T08:09:39Z</time></trkpt><trkpt lat="44.61159595411654" lon="7.985269310483914"><ele>242.28571428571428</ele><time>2026-04-12T08:09:42Z</time></trkpt><trkpt lat="44.61152688032654" lon="7.985276118404449"><ele>242.42857142857142</ele><time>2026-04-12T08:09:45Z</time></trkpt><trkpt lat="44.61146444832071" lon="7.985301468436489"><ele>242.57142857142856</ele><time>2026-04-12T08:09:48Z</time></trkpt><trkpt lat="44.61138439349673" lon="7.98532549755816"><ele>242.71428571428572</ele><time>2026-04-12T08:09:52Z</time></trkpt><trkpt lat="44.6113135704753" lon="7.985357880240597"><ele>242.85714285714283</ele><time>2026-04-12T08:09:56Z</time></trkpt><trkpt lat="44.61123517454505" lon="7.985387177477123"><ele>243.0</ele><time>2026-04-12T08:10:00Z</time></trkpt><trkpt lat="44.611156703671725" lon="7.985404923539327"><ele>243.85714285714283</ele><time>2026-04-12T08:10:04Z</time></trkpt><trkpt lat="44.611076656523785" lon="7.985415493264038"><ele>244.71428571428572</ele><time>2026-04-12T08:10:08Z</time></trkpt><trkpt lat="44.61099350839703" lon="7.985430287620099"><ele>245.57142857142856</ele><time>2026-04-12T08:10:12Z</time></trkpt><trkpt lat="44.61093087002208" lon="7.985413670117148"><ele>246.42857142857142</ele><time>2026-04-12T08:10:15Z</time></trkpt><trkpt lat="44.610866310329726" lon="7.985407211245145"><ele>247.28571428571428</ele><time>2026-04-12T08:10:18Z</time></trkpt><trkpt lat="44.610802810005005" lon="7.985396667777079"><ele>248.14285714285714</ele><time>2026-04-12T08:10:21Z</time></trkpt><trkpt lat="44.61073940803936" lon="7.985387161406553"><ele>249.0</ele><time>2026-04-12T08:10:24Z</time></trkpt><trkpt lat="44.610655660244035" lon="7.985377348492615"><ele>249.0</ele><time>2026-04-12T08:10:28Z</time></trkpt><trkpt lat="44.610572294276096" lon="7.985360268078597"><ele>248.99999999999997</ele><time>2026-04-12T08:10:32Z</time></trkpt><trkpt lat="44.610489055168124" lon="7.985362753979035"><ele>249.0</ele><time>2026-04-12T08:10:36Z</time></trkpt><trkpt lat="44.61042688626801" lon="7.985342384710364"><ele>249.0</ele><time>2026-04-12T08:10:39Z</time></trkpt><trkpt lat="44.610361802985" lon="7.985334751917012"><ele>248.99999999999997</ele><time>2026-04-12T08:10:42Z</time></trkpt><trkpt lat="44.61029790545015" lon="7.985322089897997"><ele>249.0</ele><time>2026-04-12T08:10:45Z</time></trkpt><trkpt lat="44.61023184209277" lon="7.985311097927636"><ele>249.0</ele><time>2026-04-12T08:10:48Z</time></trkpt><trkpt lat="44.610164934146326" lon="7.985305271089203"><ele>249.28571428571428</ele><time>2026-04-12T08:10:51Z</time></trkpt><trkpt lat="44.61009647497845" lon="7.985294657414138"><ele>249.57142857142856</ele><time>2026-04-12T08:10:54Z</time></trkpt><trkpt lat="44.610025875228274" lon="7.985283866812232"><ele>249.85714285714283</ele><time>2026-04-12T08:10:57Z</time></trkpt><trkpt lat="44.60995482489779" lon="7.9852714213155656"><ele>250.1428571428571</ele><time>2026-04-12T08:11:00Z</time></trkpt><trkpt lat="44.60988295369396" lon="7.985261238553372"><ele>250.42857142857142</ele><time>2026-04-12T08:11:03Z</time></trkpt><trkpt lat="44.609811903365035" lon="7.985250695912723"><ele>250.71428571428567</ele><time>2026-04-12T08:11:06Z</time></trkpt><trkpt lat="44.60974368165075" lon="7.985241394463801"><ele>250.99999999999997</ele><time>2026-04-12T08:11:09Z</time></trkpt><trkpt lat="44.609676411322475" lon="7.985230441219436"><ele>250.99999999999997</ele><time>2026-04-12T08:11:12Z</time></trkpt><trkpt lat="44.60961100973207" lon="7.985213499585514"><ele>251.0</ele><time>2026-04-12T08:11:15Z</time></trkpt><trkpt lat="44.60954506474014" lon="7.985191297830935"><ele>250.99999999999997</ele><time>2026-04-12T08:11:18Z</time></trkpt><trkpt lat="44.60948153622624" lon="7.985178782848896"><ele>250.99999999999997</ele><time>2026-04-12T08:11:21Z</time></trkpt><trkpt lat="44.609420293228084" lon="7.985154729477031"><ele>251.0</ele><time>2026-04-12T08:11:24Z</time></trkpt><trkpt lat="44.609340247340434" lon="7.985129355500882"><ele>250.99999999999997</ele><time>2026-04-12T08:11:28Z</time></trkpt><trkpt lat="44.60926039699847" lon="7.985113674912431"><ele>250.99999999999997</ele><time>2026-04-12T08:11:32Z</time></trkpt><trkpt lat="44.60919001542582" lon="7.985112561058192"><ele>251.4285714285714</ele><time>2026-04-12T08:11:36Z</time></trkpt><trkpt lat="44.60912290454588" lon="7.985102583990441"><ele>251.85714285714283</ele><time>2026-04-12T08:11:40Z</time></trkpt><trkpt lat="44.609049251275536" lon="7.985094492831"><ele>252.28571428571428</ele><time>2026-04-12T08:11:44Z</time></trkpt><trkpt lat="44.60897448744994" lon="7.985102427128915"><ele>252.7142857142857</ele><time>2026-04-12T08:11:48Z</time></trkpt><trkpt lat="44.60890212254608" lon="7.985084862398408"><ele>253.1428571428571</ele><time>2026-04-12T08:11:52Z</time></trkpt><trkpt lat="44.60882787073722" lon="7.985073095086486"><ele>253.57142857142858</ele><time>2026-04-12T08:11:56Z</time></trkpt><trkpt lat="44.6087545294814" lon="7.985072920503229"><ele>254.0</ele><time>2026-04-12T08:12:00Z</time></trkpt><trkpt lat="44.608681836532135" lon="7.9850761916410296"><ele>254.85714285714286</ele><time>2026-04-12T08:12:04Z</time></trkpt><trkpt lat="44.60860652018055" lon="7.985072099247642"><ele>255.71428571428572</ele><time>2026-04-12T08:12:08Z</time></trkpt><trkpt lat="44.60853521381541" lon="7.985083445326339"><ele>256.57142857142856</ele><time>2026-04-12T08:12:12Z</time></trkpt><trkpt lat="44.60845444011127" lon="7.985098435148993"><ele>257.42857142857144</ele><time>2026-04-12T08:12:16Z</time></trkpt><trkpt lat="44.608390325882084" lon="7.985121209983319"><ele>258.2857142857143</ele><time>2026-04-12T08:12:19Z</time></trkpt><trkpt lat="44.60832975577877" lon="7.985154671589281"><ele>259.14285714285717</ele><time>2026-04-12T08:12:22Z</time></trkpt><trkpt lat="44.60826751306339" lon="7.985175674770014"><ele>260.0</ele><time>2026-04-12T08:12:25Z</time></trkpt><trkpt lat="44.608200559885276" lon="7.9851587222348765"><ele>260.00000000000006</ele><time>2026-04-12T08:12:28Z</time></trkpt><trkpt lat="44.60813667999036" lon="7.98513598922482"><ele>260.0</ele><time>2026-04-12T08:12:31Z</time></trkpt><trkpt lat="44.60807558169274" lon="7.985101252588646"><ele>260.0</ele><time>2026-04-12T08:12:34Z</time></trkpt><trkpt lat="44.608023315922196" lon="7.985046649580909"><ele>260.0</ele><time>2026-04-12T08:12:37Z</time></trkpt><trkpt lat="44.607942140305575" lon="7.985014478152196"><ele>260.0</ele><time>2026-04-12T08:12:41Z</time></trkpt><trkpt lat="44.60787603632272" lon="7.985016386221331"><ele>260.00000000000006</ele><time>2026-04-12T08:12:44Z</time></trkpt><trkpt lat="44.607791961430706" lon="7.985027037539136"><ele>260.0</ele><time>2026-04-12T08:12:48Z</time></trkpt><trkpt lat="44.60772917364527" lon="7.985046751726467"><ele>261.28571428571433</ele><time>2026-04-12T08:12:51Z</time></trkpt><trkpt lat="44.6076689466041" lon="7.98508892945957"><ele>262.57142857142856</ele><time>2026-04-12T08:12:54Z</time></trkpt><trkpt lat="44.607605108666206" lon="7.985109494966554"><ele>263.8571428571429</ele><time>2026-04-12T08:12:57Z</time></trkpt><trkpt lat="44.607540439966414" lon="7.985123655230061"><ele>265.14285714285717</ele><time>2026-04-12T08:13:00Z</time></trkpt><trkpt lat="44.60747898587315" lon="7.985153421196817"><ele>266.42857142857144</ele><time>2026-04-12T08:13:03Z</time></trkpt><trkpt lat="44.60741654382667" lon="7.985175748538582"><ele>267.7142857142857</ele><time>2026-04-12T08:13:06Z</time></trkpt><trkpt lat="44.60735516071841" lon="7.985197713296465"><ele>269.0</ele><time>2026-04-12T08:13:09Z</time></trkpt><trkpt lat="44.60729260426088" lon="7.985219317963657"><ele>269.0</ele><time>2026-04-12T08:13:12Z</time></trkpt><trkpt lat="44.60722820135294" lon="7.985237107456972"><ele>269.0</ele><time>2026-04-12T08:13:15Z</time></trkpt><trkpt lat="44.60716250461816" lon="7.9852477828226816"><ele>269.0</ele><time>2026-04-12T08:13:18Z</time></trkpt><trkpt lat="44.60709635734452" lon="7.985256880137829"><ele>269.0</ele><time>2026-04-12T08:13:21Z</time></trkpt><trkpt lat="44.607030783784374" lon="7.9852772036833795"><ele>269.0</ele><time>2026-04-12T08:13:24Z</time></trkpt><trkpt lat="44.60696323868638" lon="7.985281623731599"><ele>269.0</ele><time>2026-04-12T08:13:27Z</time></trkpt><trkpt lat="44.60689694869411" lon="7.985284865600755"><ele>269.0</ele><time>2026-04-12T08:13:30Z</time></trkpt><trkpt lat="44.60681967467009" lon="7.985296954882078"><ele>269.8571428571429</ele><time>2026-04-12T08:13:34Z</time></trkpt><trkpt lat="44.60674330337562" lon="7.985292689253372"><ele>270.7142857142857</ele><time>2026-04-12T08:13:38Z</time></trkpt><trkpt lat="44.606692127321196" lon="7.985225769365049"><ele>271.57142857142856</ele><time>2026-04-12T08:13:42Z</time></trkpt><trkpt lat="44.60673017619984" lon="7.985131705602149"><ele>272.42857142857144</ele><time>2026-04-12T08:13:46Z</time></trkpt><trkpt lat="44.60679286032045" lon="7.985074189173106"><ele>273.2857142857143</ele><time>2026-04-12T08:13:50Z</time></trkpt><trkpt lat="44.60685695062868" lon="7.985082788810985"><ele>274.14285714285717</ele><time>2026-04-12T08:13:53Z</time></trkpt><trkpt lat="44.60692790712486" lon="7.985036820055556"><ele>275.0</ele><time>2026-04-12T08:13:57Z</time></trkpt><trkpt lat="44.607007305946894" lon="7.985011201855244"><ele>276.57142857142856</ele><time>2026-04-12T08:14:01Z</time></trkpt><trkpt lat="44.607067846091766" lon="7.9849725395322535"><ele>278.1428571428571</ele><time>2026-04-12T08:14:04Z</time></trkpt><trkpt lat="44.60712432763174" lon="7.984926162378014"><ele>279.71428571428567</ele><time>2026-04-12T08:14:07Z</time></trkpt><trkpt lat="44.607179618074106" lon="7.984883719188958"><ele>281.2857142857143</ele><time>2026-04-12T08:14:10Z</time></trkpt><trkpt lat="44.607233673462886" lon="7.984836243811422"><ele>282.85714285714283</ele><time>2026-04-12T08:14:13Z</time></trkpt><trkpt lat="44.607288532368436" lon="7.984791670701632"><ele>284.4285714285714</ele><time>2026-04-12T08:14:16Z</time></trkpt><trkpt lat="44.6073499705397" lon="7.984716042214705"><ele>286.0</ele><time>2026-04-12T08:14:20Z</time></trkpt><trkpt lat="44.60741026187023" lon="7.9846327029603685"><ele>285.99999999999994</ele><time>2026-04-12T08:14:24Z</time></trkpt><trkpt lat="44.6074616269066" lon="7.984578609777882"><ele>286.0</ele><time>2026-04-12T08:14:27Z</time></trkpt><trkpt lat="44.607515959112604" lon="7.984532419766898"><ele>286.0</ele><time>2026-04-12T08:14:30Z</time></trkpt><trkpt lat="44.60757254194146" lon="7.984471575454377"><ele>286.0</ele><time>2026-04-12T08:14:34Z</time></trkpt><trkpt lat="44.60763198856705" lon="7.984412651633185"><ele>286.0</ele><time>2026-04-12T08:14:38Z</time></trkpt><trkpt lat="44.60769129161036" lon="7.984363324600192"><ele>285.99999999999994</ele><time>2026-04-12T08:14:42Z</time></trkpt><trkpt lat="44.60775154623524" lon="7.984313265771953"><ele>286.0</ele><time>2026-04-12T08:14:46Z</time></trkpt><trkpt lat="44.60782300166104" lon="7.98428187582766"><ele>284.71428571428567</ele><time>2026-04-12T08:14:50Z</time></trkpt><trkpt lat="44.6078944639748" lon="7.9842487405827605"><ele>283.42857142857144</ele><time>2026-04-12T08:14:54Z</time></trkpt><trkpt lat="44.60796169584126" lon="7.984217001201508"><ele>282.1428571428571</ele><time>2026-04-12T08:14:58Z</time></trkpt><trkpt lat="44.6080373305972" lon="7.984178249608313"><ele>280.85714285714283</ele><time>2026-04-12T08:15:02Z</time></trkpt><trkpt lat="44.60809920804287" lon="7.984155575926827"><ele>279.57142857142856</ele><time>2026-04-12T08:15:05Z</time></trkpt><trkpt lat="44.60817691753298" lon="7.984115378729165"><ele>278.2857142857143</ele><time>2026-04-12T08:15:09Z</time></trkpt><trkpt lat="44.608238533995305" lon="7.984090435039307"><ele>277.0</ele><time>2026-04-12T08:15:12Z</time></trkpt><trkpt lat="44.60829862265274" lon="7.9840593526921575"><ele>280.42857142857144</ele><time>2026-04-12T08:15:15Z</time></trkpt><trkpt lat="44.60838099603009" lon="7.984033115230615"><ele>283.85714285714283</ele><time>2026-04-12T08:15:19Z</time></trkpt><trkpt lat="44.60844402469594" lon="7.984002086924188"><ele>287.2857142857143</ele><time>2026-04-12T08:15:22Z</time></trkpt><trkpt lat="44.608510237923795" lon="7.983982290190615"><ele>290.7142857142857</ele><time>2026-04-12T08:15:25Z</time></trkpt><trkpt lat="44.608557324709366" lon="7.983911588695393"><ele>294.1428571428571</ele><time>2026-04-12T08:15:28Z</time></trkpt><trkpt lat="44.6085780886386" lon="7.983827215907086"><ele>297.57142857142856</ele><time>2026-04-12T08:15:31Z</time></trkpt><trkpt lat="44.608561890490535" lon="7.983737076525169"><ele>301.0</ele><time>2026-04-12T08:15:34Z</time></trkpt><trkpt lat="44.60852474229455" lon="7.9836625909687635"><ele>301.0</ele><time>2026-04-12T08:15:37Z</time></trkpt><trkpt lat="44.60848328999997" lon="7.983592429001586"><ele>301.0</ele><time>2026-04-12T08:15:40Z</time></trkpt><trkpt lat="44.60842371310414" lon="7.983533674502794"><ele>301.0</ele><time>2026-04-12T08:15:44Z</time></trkpt><trkpt lat="44.60835253416135" lon="7.983532569075581"><ele>301.0</ele><time>2026-04-12T08:15:48Z</time></trkpt><trkpt lat="44.60829368086785" lon="7.983594630264113"><ele>301.0</ele><time>2026-04-12T08:15:52Z</time></trkpt><trkpt lat="44.60824753611421" lon="7.983683562909836"><ele>301.0</ele><time>2026-04-12T08:15:56Z</time></trkpt><trkpt lat="44.608205098818125" lon="7.983755745542009"><ele>301.0</ele><time>2026-04-12T08:15:59Z</time></trkpt><trkpt lat="44.60814416780949" lon="7.983783506984439"><ele>301.0</ele><time>2026-04-12T08:16:02Z</time></trkpt><trkpt lat="44.6080786207151" lon="7.983779389780996"><ele>301.0</ele><time>2026-04-12T08:16:05Z</time></trkpt><trkpt lat="44.60799760943901" lon="7.983769976671049"><ele>301.0</ele><time>2026-04-12T08:16:09Z</time></trkpt><trkpt lat="44.60791885273532" lon="7.9837526530337515"><ele>301.0</ele><time>2026-04-12T08:16:13Z</time></trkpt><trkpt lat="44.607835854477415" lon="7.983737559864959"><ele>301.0</ele><time>2026-04-12T08:16:17Z</time></trkpt><trkpt lat="44.60775465041398" lon="7.983711227758835"><ele>301.0</ele><time>2026-04-12T08:16:21Z</time></trkpt><trkpt lat="44.60767569833673" lon="7.9836705064166"><ele>302.14285714285717</ele><time>2026-04-12T08:16:25Z</time></trkpt><trkpt lat="44.60761112622549" lon="7.98365880244564"><ele>303.2857142857143</ele><time>2026-04-12T08:16:28Z</time></trkpt><trkpt lat="44.607544373292136" lon="7.983660808369164"><ele>304.42857142857144</ele><time>2026-04-12T08:16:31Z</time></trkpt><trkpt lat="44.60747968586832" lon="7.9836678464759805"><ele>305.57142857142856</ele><time>2026-04-12T08:16:34Z</time></trkpt><trkpt lat="44.60741452292053" lon="7.983685068471519"><ele>306.7142857142857</ele><time>2026-04-12T08:16:37Z</time></trkpt><trkpt lat="44.607348323994806" lon="7.983699988584877"><ele>307.8571428571429</ele><time>2026-04-12T08:16:40Z</time></trkpt><trkpt lat="44.60728371639347" lon="7.983707478853074"><ele>309.0</ele><time>2026-04-12T08:16:43Z</time></trkpt><trkpt lat="44.60721582295996" lon="7.983697303098093"><ele>309.00000000000006</ele><time>2026-04-12T08:16:46Z</time></trkpt><trkpt lat="44.607148447578595" lon="7.9836863921426895"><ele>309.0</ele><time>2026-04-12T08:16:49Z</time></trkpt><trkpt lat="44.60708933509697" lon="7.983653537897213"><ele>309.0</ele><time>2026-04-12T08:16:52Z</time></trkpt><trkpt lat="44.60701113657749" lon="7.983623966472685"><ele>309.0</ele><time>2026-04-12T08:16:56Z</time></trkpt><trkpt lat="44.60695503485903" lon="7.983581909240609"><ele>309.0</ele><time>2026-04-12T08:16:59Z</time></trkpt><trkpt lat="44.606898897096706" lon="7.983538532901226"><ele>309.00000000000006</ele><time>2026-04-12T08:17:02Z</time></trkpt><trkpt lat="44.60682982657212" lon="7.983480185613439"><ele>309.0</ele><time>2026-04-12T08:17:06Z</time></trkpt><trkpt lat="44.606760507036064" lon="7.983424536150966"><ele>309.42857142857144</ele><time>2026-04-12T08:17:10Z</time></trkpt><trkpt lat="44.60668971496882" lon="7.983374671306234"><ele>309.8571428571429</ele><time>2026-04-12T08:17:14Z</time></trkpt><trkpt lat="44.60661861981362" lon="7.983311760601473"><ele>310.28571428571433</ele><time>2026-04-12T08:17:18Z</time></trkpt><trkpt lat="44.606566859189954" lon="7.983258393583099"><ele>310.7142857142857</ele><time>2026-04-12T08:17:21Z</time></trkpt><trkpt lat="44.606507756230144" lon="7.983211552828003"><ele>311.1428571428571</ele><time>2026-04-12T08:17:24Z</time></trkpt><trkpt lat="44.6064506916441" lon="7.98316835444098"><ele>311.5714285714286</ele><time>2026-04-12T08:17:27Z</time></trkpt><trkpt lat="44.606396292803836" lon="7.983108185584849"><ele>312.0</ele><time>2026-04-12T08:17:30Z</time></trkpt><trkpt lat="44.60634364324446" lon="7.983033676948452"><ele>313.5</ele><time>2026-04-12T08:17:33Z</time></trkpt><trkpt lat="44.606279007056536" lon="7.982961986637158"><ele>315.0</ele><time>2026-04-12T08:17:36Z</time></trkpt><trkpt lat="44.60620303342353" lon="7.982883132657556"><ele>316.5</ele><time>2026-04-12T08:17:39Z</time></trkpt><trkpt lat="44.60613248667792" lon="7.982802907984809"><ele>318.0</ele><time>2026-04-12T08:17:42Z</time></trkpt><trkpt lat="44.60608412971149" lon="7.9827462020273945"><ele>319.5</ele><time>2026-04-12T08:17:44Z</time></trkpt><trkpt lat="44.6060248251497" lon="7.982645176083776"><ele>321.0</ele><time>2026-04-12T08:17:47Z</time></trkpt><trkpt lat="44.60595186325365" lon="7.982564216967189"><ele>324.6666666666667</ele><time>2026-04-12T08:17:50Z</time></trkpt><trkpt lat="44.605906001684424" lon="7.9825035568818485"><ele>328.3333333333333</ele><time>2026-04-12T08:17:52Z</time></trkpt><trkpt lat="44.60583239393025" lon="7.9824271058226985"><ele>332.0</ele><time>2026-04-12T08:17:55Z</time></trkpt><trkpt lat="44.60575236469475" lon="7.982358461926713"><ele>335.66666666666663</ele><time>2026-04-12T08:17:58Z</time></trkpt><trkpt lat="44.60567050769338" lon="7.982300237087907"><ele>339.3333333333333</ele><time>2026-04-12T08:18:01Z</time></trkpt><trkpt lat="44.605591214765695" lon="7.98223329555503"><ele>343.0</ele><time>2026-04-12T08:18:04Z</time></trkpt><trkpt lat="44.60551146185181" lon="7.982167349021777"><ele>343.0</ele><time>2026-04-12T08:18:07Z</time></trkpt><trkpt lat="44.60543801527601" lon="7.982102651038417"><ele>343.0</ele><time>2026-04-12T08:18:10Z</time></trkpt><trkpt lat="44.605363805891024" lon="7.982050015887206"><ele>343.0</ele><time>2026-04-12T08:18:13Z</time></trkpt><trkpt lat="44.60529659048821" lon="7.981985472804934"><ele>343.0</ele><time>2026-04-12T08:18:16Z</time></trkpt><trkpt lat="44.605235904933686" lon="7.981932684019494"><ele>343.0</ele><time>2026-04-12T08:18:19Z</time></trkpt><trkpt lat="44.60517567892639" lon="7.981883844484149"><ele>343.0</ele><time>2026-04-12T08:18:22Z</time></trkpt><trkpt lat="44.605110270752014" lon="7.981875646643703"><ele>343.7142857142857</ele><time>2026-04-12T08:18:25Z</time></trkpt><trkpt lat="44.60505798584958" lon="7.981819581515415"><ele>344.42857142857144</ele><time>2026-04-12T08:18:28Z</time></trkpt><trkpt lat="44.604998830838596" lon="7.9817740182998484"><ele>345.1428571428571</ele><time>2026-04-12T08:18:31Z</time></trkpt><trkpt lat="44.60494405000231" lon="7.981725380560248"><ele>345.8571428571429</ele><time>2026-04-12T08:18:34Z</time></trkpt><trkpt lat="44.604884696692636" lon="7.981681148561771"><ele>346.57142857142856</ele><time>2026-04-12T08:18:37Z</time></trkpt><trkpt lat="44.60482817356848" lon="7.981628156365748"><ele>347.2857142857143</ele><time>2026-04-12T08:18:40Z</time></trkpt><trkpt lat="44.60476689944488" lon="7.981587039869507"><ele>348.0</ele><time>2026-04-12T08:18:43Z</time></trkpt><trkpt lat="44.60470665741335" lon="7.981543970841722"><ele>348.0</ele><time>2026-04-12T08:18:46Z</time></trkpt><trkpt lat="44.60465210441798" lon="7.9814904166033305"><ele>348.0</ele><time>2026-04-12T08:18:49Z</time></trkpt><trkpt lat="44.60459634604458" lon="7.981440178253707"><ele>348.0</ele><time>2026-04-12T08:18:52Z</time></trkpt><trkpt lat="44.60453835183774" lon="7.9813952689034755"><ele>348.0</ele><time>2026-04-12T08:18:55Z</time></trkpt><trkpt lat="44.604486993733694" lon="7.981336521362428"><ele>348.0</ele><time>2026-04-12T08:18:58Z</time></trkpt><trkpt lat="44.60443401428922" lon="7.981283544582839"><ele>348.0</ele><time>2026-04-12T08:19:01Z</time></trkpt><trkpt lat="44.60438414346909" lon="7.981225256896058"><ele>348.0</ele><time>2026-04-12T08:19:04Z</time></trkpt><trkpt lat="44.604331268456576" lon="7.981169690209525"><ele>349.42857142857144</ele><time>2026-04-12T08:19:07Z</time></trkpt><trkpt lat="44.604277825174684" lon="7.981116502631888"><ele>350.8571428571429</ele><time>2026-04-12T08:19:10Z</time></trkpt><trkpt lat="44.604225000568874" lon="7.981056008511915"><ele>352.28571428571433</ele><time>2026-04-12T08:19:13Z</time></trkpt><trkpt lat="44.60417107203579" lon="7.98100093454624"><ele>353.7142857142857</ele><time>2026-04-12T08:19:16Z</time></trkpt><trkpt lat="44.604100259605694" lon="7.980942060703906"><ele>355.14285714285717</ele><time>2026-04-12T08:19:20Z</time></trkpt><trkpt lat="44.60404353253164" lon="7.980876017267169"><ele>356.5714285714286</ele><time>2026-04-12T08:19:24Z</time></trkpt><trkpt lat="44.603985554597394" lon="7.98081739897994"><ele>358.0</ele><time>2026-04-12T08:19:28Z</time></trkpt><trkpt lat="44.60392663939782" lon="7.980757034859319"><ele>358.00000000000006</ele><time>2026-04-12T08:19:32Z</time></trkpt><trkpt lat="44.6038659338843" lon="7.98069596440818"><ele>358.0</ele><time>2026-04-12T08:19:36Z</time></trkpt><trkpt lat="44.60380951924493" lon="7.980626952551716"><ele>358.0</ele><time>2026-04-12T08:19:40Z</time></trkpt><trkpt lat="44.6037621009909" lon="7.980545740390653"><ele>358.0</ele><time>2026-04-12T08:19:44Z</time></trkpt><trkpt lat="44.60373084371401" lon="7.980453550096571"><ele>358.0</ele><time>2026-04-12T08:19:48Z</time></trkpt><trkpt lat="44.603673230568916" lon="7.980395862215187"><ele>358.00000000000006</ele><time>2026-04-12T08:19:52Z</time></trkpt><trkpt lat="44.60359937114869" lon="7.980376818213011"><ele>358.0</ele><time>2026-04-12T08:19:56Z</time></trkpt><trkpt lat="44.60352754498934" lon="7.980362819298673"><ele>356.66666666666663</ele><time>2026-04-12T08:20:00Z</time></trkpt><trkpt lat="44.603455350405994" lon="7.980373314323671"><ele>355.3333333333333</ele><time>2026-04-12T08:20:04Z</time></trkpt><trkpt lat="44.60337828742496" lon="7.980379047829783"><ele>354.0</ele><time>2026-04-12T08:20:08Z</time></trkpt><trkpt lat="44.603301773914204" lon="7.980410590623463"><ele>352.6666666666667</ele><time>2026-04-12T08:20:12Z</time></trkpt><trkpt lat="44.603225494860695" lon="7.980384200337705"><ele>351.33333333333337</ele><time>2026-04-12T08:20:16Z</time></trkpt><trkpt lat="44.60314913338375" lon="7.98034975941041"><ele>350.0</ele><time>2026-04-12T08:20:20Z</time></trkpt><trkpt lat="44.603075804111995" lon="7.980305352533986"><ele>350.0</ele><time>2026-04-12T08:20:24Z</time></trkpt><trkpt lat="44.6030035782479" lon="7.98025423992"><ele>350.0</ele><time>2026-04-12T08:20:28Z</time></trkpt><trkpt lat="44.602929249384594" lon="7.980204275697229"><ele>350.0</ele><time>2026-04-12T08:20:32Z</time></trkpt><trkpt lat="44.60285833762815" lon="7.980145460297067"><ele>350.0</ele><time>2026-04-12T08:20:36Z</time></trkpt><trkpt lat="44.60277944305428" lon="7.980109026956969"><ele>350.0</ele><time>2026-04-12T08:20:40Z</time></trkpt><trkpt lat="44.60272063673821" lon="7.980074886868339"><ele>350.0</ele><time>2026-04-12T08:20:43Z</time></trkpt><trkpt lat="44.60266208945752" lon="7.980035617865029"><ele>353.2857142857143</ele><time>2026-04-12T08:20:46Z</time></trkpt><trkpt lat="44.60260451583952" lon="7.9799928004554035"><ele>356.57142857142856</ele><time>2026-04-12T08:20:49Z</time></trkpt><trkpt lat="44.60254316943983" lon="7.979954549819599"><ele>359.8571428571429</ele><time>2026-04-12T08:20:52Z</time></trkpt><trkpt lat="44.60248452853995" lon="7.979916724510437"><ele>363.1428571428571</ele><time>2026-04-12T08:20:55Z</time></trkpt><trkpt lat="44.60242313644235" lon="7.979873125430541"><ele>366.42857142857144</ele><time>2026-04-12T08:20:58Z</time></trkpt><trkpt lat="44.60236114363714" lon="7.979836460203555"><ele>369.7142857142857</ele><time>2026-04-12T08:21:01Z</time></trkpt><trkpt lat="44.60230270026726" lon="7.9797924853077635"><ele>373.0</ele><time>2026-04-12T08:21:04Z</time></trkpt><trkpt lat="44.602242844750336" lon="7.979758596520127"><ele>373.0</ele><time>2026-04-12T08:21:07Z</time></trkpt><trkpt lat="44.602184362555576" lon="7.979719205211275"><ele>373.0</ele><time>2026-04-12T08:21:10Z</time></trkpt><trkpt lat="44.60212817362249" lon="7.9796778862208635"><ele>373.0</ele><time>2026-04-12T08:21:13Z</time></trkpt><trkpt lat="44.6020543166626" lon="7.979628309497682"><ele>373.0</ele><time>2026-04-12T08:21:17Z</time></trkpt><trkpt lat="44.60199556666551" lon="7.979588190877884"><ele>373.0</ele><time>2026-04-12T08:21:20Z</time></trkpt><trkpt lat="44.60193742503835" lon="7.9795457737824504"><ele>373.0</ele><time>2026-04-12T08:21:23Z</time></trkpt><trkpt lat="44.60187761487653" lon="7.979481292502592"><ele>373.0</ele><time>2026-04-12T08:21:27Z</time></trkpt><trkpt lat="44.60183718256362" lon="7.979406326364739"><ele>373.8571428571429</ele><time>2026-04-12T08:21:31Z</time></trkpt><trkpt lat="44.60176782386989" lon="7.979375166409987"><ele>374.7142857142857</ele><time>2026-04-12T08:21:35Z</time></trkpt><trkpt lat="44.60170251457569" lon="7.9793429966881"><ele>375.57142857142856</ele><time>2026-04-12T08:21:39Z</time></trkpt><trkpt lat="44.60163623208677" lon="7.979300862763797"><ele>376.42857142857144</ele><time>2026-04-12T08:21:43Z</time></trkpt><trkpt lat="44.60157522511322" lon="7.979261387983"><ele>377.2857142857143</ele><time>2026-04-12T08:21:47Z</time></trkpt><trkpt lat="44.601515321930144" lon="7.979214429063192"><ele>378.14285714285717</ele><time>2026-04-12T08:21:51Z</time></trkpt><trkpt lat="44.60144753302023" lon="7.979190288738749"><ele>379.0</ele><time>2026-04-12T08:21:55Z</time></trkpt><trkpt lat="44.601374827926875" lon="7.97919886611965"><ele>379.0</ele><time>2026-04-12T08:21:59Z</time></trkpt><trkpt lat="44.60130752838609" lon="7.979264894007176"><ele>379.0</ele><time>2026-04-12T08:22:03Z</time></trkpt><trkpt lat="44.60126858558023" lon="7.979339482686895"><ele>379.0</ele><time>2026-04-12T08:22:06Z</time></trkpt><trkpt lat="44.60123036101057" lon="7.979410085897228"><ele>379.0</ele><time>2026-04-12T08:22:09Z</time></trkpt><trkpt lat="44.60118932840055" lon="7.979510414905162"><ele>379.0</ele><time>2026-04-12T08:22:13Z</time></trkpt><trkpt lat="44.60114315853414" lon="7.979607176251307"><ele>379.0</ele><time>2026-04-12T08:22:17Z</time></trkpt><trkpt lat="44.601096713722825" lon="7.9797047572221915"><ele>383.42857142857144</ele><time>2026-04-12T08:22:21Z</time></trkpt><trkpt lat="44.60106426479926" lon="7.979780742401114"><ele>387.8571428571429</ele><time>2026-04-12T08:22:24Z</time></trkpt><trkpt lat="44.601052042438084" lon="7.979870886553673"><ele>392.28571428571433</ele><time>2026-04-12T08:22:27Z</time></trkpt><trkpt lat="44.601048864182566" lon="7.979959258969033"><ele>396.7142857142857</ele><time>2026-04-12T08:22:30Z</time></trkpt><trkpt lat="44.601071613802" lon="7.98004379520751"><ele>401.1428571428571</ele><time>2026-04-12T08:22:33Z</time></trkpt><trkpt lat="44.60108794263027" lon="7.980158945392763"><ele>405.5714285714286</ele><time>2026-04-12T08:22:37Z</time></trkpt><trkpt lat="44.601100774981354" lon="7.980275057355795"><ele>410.0</ele><time>2026-04-12T08:22:41Z</time></trkpt><trkpt lat="44.60110617882361" lon="7.980391287225496"><ele>410.42857142857144</ele><time>2026-04-12T08:22:45Z</time></trkpt><trkpt lat="44.601107022305854" lon="7.980505838894026"><ele>410.85714285714283</ele><time>2026-04-12T08:22:49Z</time></trkpt><trkpt lat="44.601099154674706" lon="7.980597044256684"><ele>411.2857142857143</ele><time>2026-04-12T08:22:52Z</time></trkpt><trkpt lat="44.60108822728506" lon="7.980686753988955"><ele>411.7142857142857</ele><time>2026-04-12T08:22:55Z</time></trkpt><trkpt lat="44.60106025915131" lon="7.980795854808177"><ele>412.1428571428571</ele><time>2026-04-12T08:22:59Z</time></trkpt><trkpt lat="44.60102509163124" lon="7.9809021988079865"><ele>412.57142857142856</ele><time>2026-04-12T08:23:03Z</time></trkpt><trkpt lat="44.601025006985424" lon="7.980994478549901"><ele>413.0</ele><time>2026-04-12T08:23:06Z</time></trkpt><trkpt lat="44.60104599581346" lon="7.9810832111607075"><ele>411.7142857142857</ele><time>2026-04-12T08:23:09Z</time></trkpt><trkpt lat="44.60109948889054" lon="7.981164101943139"><ele>410.42857142857144</ele><time>2026-04-12T08:23:13Z</time></trkpt><trkpt lat="44.60113146331909" lon="7.98125474801007"><ele>409.1428571428571</ele><time>2026-04-12T08:23:17Z</time></trkpt><trkpt lat="44.60116036524203" lon="7.981345903398416"><ele>407.8571428571429</ele><time>2026-04-12T08:23:21Z</time></trkpt><trkpt lat="44.60118261369296" lon="7.981441388037838"><ele>406.57142857142856</ele><time>2026-04-12T08:23:25Z</time></trkpt><trkpt lat="44.60120845413816" lon="7.981533798229067"><ele>405.2857142857143</ele><time>2026-04-12T08:23:29Z</time></trkpt><trkpt lat="44.60117782386396" lon="7.981626208088125"><ele>404.0</ele><time>2026-04-12T08:23:33Z</time></trkpt><trkpt lat="44.60110581558413" lon="7.981600516033126"><ele>404.0</ele><time>2026-04-12T08:23:36Z</time></trkpt><trkpt lat="44.60105945981432" lon="7.981520400248711"><ele>404.0</ele><time>2026-04-12T08:23:39Z</time></trkpt><trkpt lat="44.601040246191246" lon="7.98141699774176"><ele>404.0</ele><time>2026-04-12T08:23:43Z</time></trkpt><trkpt lat="44.60099910615156" lon="7.981325455292779"><ele>404.0</ele><time>2026-04-12T08:23:48Z</time></trkpt><trkpt lat="44.60096707082663" lon="7.98123847755503"><ele>404.0</ele><time>2026-04-12T08:23:52Z</time></trkpt><trkpt lat="44.60093138565444" lon="7.981165585753476"><ele>404.0</ele><time>2026-04-12T08:23:56Z</time></trkpt><trkpt lat="44.60088727037597" lon="7.981087477234079"><ele>404.0</ele><time>2026-04-12T08:24:00Z</time></trkpt><trkpt lat="44.60085513824854" lon="7.980988330832927"><ele>403.99999999999994</ele><time>2026-04-12T08:24:04Z</time></trkpt><trkpt lat="44.600812266949916" lon="7.98088961620503"><ele>404.0</ele><time>2026-04-12T08:24:08Z</time></trkpt><trkpt lat="44.60078868126241" lon="7.980788422478231"><ele>404.0</ele><time>2026-04-12T08:24:12Z</time></trkpt><trkpt lat="44.600794896553346" lon="7.980675892623685"><ele>404.0</ele><time>2026-04-12T08:24:16Z</time></trkpt><trkpt lat="44.60079596507064" lon="7.980562099393809"><ele>403.99999999999994</ele><time>2026-04-12T08:24:20Z</time></trkpt><trkpt lat="44.60076453773785" lon="7.980463502490178"><ele>404.0</ele><time>2026-04-12T08:24:24Z</time></trkpt><trkpt lat="44.60073512916266" lon="7.9803559367569905"><ele>404.85714285714283</ele><time>2026-04-12T08:24:28Z</time></trkpt><trkpt lat="44.60071463811246" lon="7.980271748467557"><ele>405.71428571428567</ele><time>2026-04-12T08:24:31Z</time></trkpt><trkpt lat="44.60067570868122" lon="7.980167775320137"><ele>406.57142857142856</ele><time>2026-04-12T08:24:35Z</time></trkpt><trkpt lat="44.600638949649515" lon="7.980093077830797"><ele>407.42857142857144</ele><time>2026-04-12T08:24:38Z</time></trkpt><trkpt lat="44.600590433340926" lon="7.980032649836322"><ele>408.2857142857143</ele><time>2026-04-12T08:24:41Z</time></trkpt><trkpt lat="44.60054335867913" lon="7.979972263668004"><ele>409.14285714285717</ele><time>2026-04-12T08:24:44Z</time></trkpt><trkpt lat="44.60050258921055" lon="7.979903096454935"><ele>410.0</ele><time>2026-04-12T08:24:47Z</time></trkpt><trkpt lat="44.600459606530514" lon="7.979836675191073"><ele>410.0</ele><time>2026-04-12T08:24:50Z</time></trkpt><trkpt lat="44.600428306288045" lon="7.979758243124703"><ele>410.0</ele><time>2026-04-12T08:24:53Z</time></trkpt><trkpt lat="44.6003939454805" lon="7.979649999800647"><ele>410.0</ele><time>2026-04-12T08:24:57Z</time></trkpt><trkpt lat="44.600384143897436" lon="7.979561087139432"><ele>410.0</ele><time>2026-04-12T08:25:00Z</time></trkpt><trkpt lat="44.600379374940346" lon="7.97946825722221"><ele>410.0</ele><time>2026-04-12T08:25:03Z</time></trkpt><trkpt lat="44.600370911620736" lon="7.979376488314999"><ele>410.0</ele><time>2026-04-12T08:25:06Z</time></trkpt><trkpt lat="44.60036788848363" lon="7.979283419432898"><ele>410.0</ele><time>2026-04-12T08:25:09Z</time></trkpt><trkpt lat="44.60036768717738" lon="7.979168028880661"><ele>411.14285714285717</ele><time>2026-04-12T08:25:13Z</time></trkpt><trkpt lat="44.600375173564544" lon="7.97905198580943"><ele>412.2857142857143</ele><time>2026-04-12T08:25:17Z</time></trkpt><trkpt lat="44.60039349068185" lon="7.97896419233633"><ele>413.42857142857144</ele><time>2026-04-12T08:25:20Z</time></trkpt><trkpt lat="44.60040605628876" lon="7.9788738222850935"><ele>414.57142857142856</ele><time>2026-04-12T08:25:23Z</time></trkpt><trkpt lat="44.600434562554014" lon="7.978791480347267"><ele>415.71428571428567</ele><time>2026-04-12T08:25:26Z</time></trkpt><trkpt lat="44.60049045705102" lon="7.978709007852675"><ele>416.85714285714283</ele><time>2026-04-12T08:25:30Z</time></trkpt><trkpt lat="44.60054587730907" lon="7.978647456772924"><ele>418.0</ele><time>2026-04-12T08:25:33Z</time></trkpt><trkpt lat="44.60059440091058" lon="7.97859050933516"><ele>418.0</ele><time>2026-04-12T08:25:36Z</time></trkpt><trkpt lat="44.60065738558195" lon="7.9785487407492335"><ele>418.0</ele><time>2026-04-12T08:25:39Z</time></trkpt><trkpt lat="44.60073152975711" lon="7.978510460880587"><ele>418.0</ele><time>2026-04-12T08:25:43Z</time></trkpt><trkpt lat="44.600803073650425" lon="7.978457131678717"><ele>418.0</ele><time>2026-04-12T08:25:47Z</time></trkpt><trkpt lat="44.60084889723716" lon="7.978393359342336"><ele>418.0</ele><time>2026-04-12T08:25:50Z</time></trkpt><trkpt lat="44.60088042503342" lon="7.978313996494021"><ele>418.0</ele><time>2026-04-12T08:25:53Z</time></trkpt><trkpt lat="44.600901066849566" lon="7.978228555860041"><ele>418.0</ele><time>2026-04-12T08:25:56Z</time></trkpt><trkpt lat="44.600917416936184" lon="7.978143033455467"><ele>419.1428571428571</ele><time>2026-04-12T08:25:59Z</time></trkpt><trkpt lat="44.60091838602794" lon="7.978044246736839"><ele>420.2857142857143</ele><time>2026-04-12T08:26:03Z</time></trkpt><trkpt lat="44.600928594997754" lon="7.9779447339108716"><ele>421.42857142857144</ele><time>2026-04-12T08:26:07Z</time></trkpt><trkpt lat="44.60096661845559" lon="7.977852098069212"><ele>422.57142857142856</ele><time>2026-04-12T08:26:12Z</time></trkpt><trkpt lat="44.601014232115425" lon="7.97778686278716"><ele>423.7142857142857</ele><time>2026-04-12T08:26:16Z</time></trkpt><trkpt lat="44.601067295830646" lon="7.97773722478363"><ele>424.85714285714283</ele><time>2026-04-12T08:26:20Z</time></trkpt><trkpt lat="44.60112436413" lon="7.977680671515363"><ele>426.0</ele><time>2026-04-12T08:26:24Z</time></trkpt><trkpt lat="44.601203167434015" lon="7.977652594305983"><ele>425.99999999999994</ele><time>2026-04-12T08:26:28Z</time></trkpt><trkpt lat="44.601280995688775" lon="7.977630684797011"><ele>426.0</ele><time>2026-04-12T08:26:32Z</time></trkpt><trkpt lat="44.60135905527406" lon="7.977616481166628"><ele>426.0</ele><time>2026-04-12T08:26:36Z</time></trkpt><trkpt lat="44.60142925184839" lon="7.977588310812777"><ele>426.0</ele><time>2026-04-12T08:26:40Z</time></trkpt><trkpt lat="44.60149232554875" lon="7.977570559520328"><ele>426.0</ele><time>2026-04-12T08:26:43Z</time></trkpt><trkpt lat="44.60155709863647" lon="7.977566788758171"><ele>425.99999999999994</ele><time>2026-04-12T08:26:46Z</time></trkpt><trkpt lat="44.601623408948754" lon="7.977588415398647"><ele>426.0</ele><time>2026-04-12T08:26:49Z</time></trkpt><trkpt lat="44.60169006406418" lon="7.977593415072243"><ele>425.99999999999994</ele><time>2026-04-12T08:26:52Z</time></trkpt><trkpt lat="44.60174403537931" lon="7.977655470090263"><ele>426.0</ele><time>2026-04-12T08:26:55Z</time></trkpt><trkpt lat="44.60179822735299" lon="7.977716160772031"><ele>426.0</ele><time>2026-04-12T08:26:58Z</time></trkpt><trkpt lat="44.60187482704161" lon="7.977753029340506"><ele>426.0</ele><time>2026-04-12T08:27:02Z</time></trkpt><trkpt lat="44.60194084864045" lon="7.977775321923778"><ele>426.0</ele><time>2026-04-12T08:27:05Z</time></trkpt><trkpt lat="44.602019837443095" lon="7.977750267093288"><ele>425.99999999999994</ele><time>2026-04-12T08:27:09Z</time></trkpt><trkpt lat="44.60209102487175" lon="7.9777624404013565"><ele>426.0</ele><time>2026-04-12T08:27:13Z</time></trkpt><trkpt lat="44.60215777443602" lon="7.977803751179114"><ele>427.99999999999994</ele><time>2026-04-12T08:27:17Z</time></trkpt><trkpt lat="44.60222302826725" lon="7.977855270832877"><ele>430.0</ele><time>2026-04-12T08:27:21Z</time></trkpt><trkpt lat="44.60227990093678" lon="7.977940219419825"><ele>432.0</ele><time>2026-04-12T08:27:25Z</time></trkpt><trkpt lat="44.60231900232379" lon="7.978013179860666"><ele>434.0</ele><time>2026-04-12T08:27:28Z</time></trkpt><trkpt lat="44.602390005403656" lon="7.97806303698311"><ele>436.0</ele><time>2026-04-12T08:27:32Z</time></trkpt><trkpt lat="44.602471713297874" lon="7.978074947893909"><ele>437.99999999999994</ele><time>2026-04-12T08:27:36Z</time></trkpt><trkpt lat="44.6025354097691" lon="7.9780802380410725"><ele>440.0</ele><time>2026-04-12T08:27:39Z</time></trkpt><trkpt lat="44.60261960433141" lon="7.978067269763953"><ele>439.99999999999994</ele><time>2026-04-12T08:27:43Z</time></trkpt><trkpt lat="44.6026894205874" lon="7.977999706367353"><ele>440.0</ele><time>2026-04-12T08:27:47Z</time></trkpt><trkpt lat="44.60274360835261" lon="7.977944317539709"><ele>440.0</ele><time>2026-04-12T08:27:50Z</time></trkpt><trkpt lat="44.60278589587151" lon="7.977877750208738"><ele>440.0</ele><time>2026-04-12T08:27:53Z</time></trkpt><trkpt lat="44.60283441702914" lon="7.977814001026358"><ele>440.0</ele><time>2026-04-12T08:27:56Z</time></trkpt><trkpt lat="44.602888297404995" lon="7.977735473814527"><ele>439.99999999999994</ele><time>2026-04-12T08:28:00Z</time></trkpt><trkpt lat="44.6029454422045" lon="7.977677094999216"><ele>440.0</ele><time>2026-04-12T08:28:04Z</time></trkpt><trkpt lat="44.60300655224969" lon="7.9776126632943045"><ele>439.71428571428567</ele><time>2026-04-12T08:28:08Z</time></trkpt><trkpt lat="44.60306051461532" lon="7.977548612989986"><ele>439.42857142857144</ele><time>2026-04-12T08:28:12Z</time></trkpt><trkpt lat="44.6030950751282" lon="7.977459629282006"><ele>439.1428571428571</ele><time>2026-04-12T08:28:16Z</time></trkpt><trkpt lat="44.60310878487721" lon="7.977350428812107"><ele>438.85714285714283</ele><time>2026-04-12T08:28:20Z</time></trkpt><trkpt lat="44.60307614567926" lon="7.977271007853789"><ele>438.57142857142856</ele><time>2026-04-12T08:28:23Z</time></trkpt><trkpt lat="44.60302777548218" lon="7.97720799319197"><ele>438.2857142857143</ele><time>2026-04-12T08:28:26Z</time></trkpt><trkpt lat="44.60295744091179" lon="7.97718436842296"><ele>438.0</ele><time>2026-04-12T08:28:29Z</time></trkpt><trkpt lat="44.60287919911929" lon="7.977185342080704"><ele>441.6666666666667</ele><time>2026-04-12T08:28:32Z</time></trkpt><trkpt lat="44.602796008969456" lon="7.977198412440137"><ele>445.33333333333337</ele><time>2026-04-12T08:28:35Z</time></trkpt><trkpt lat="44.60271312421467" lon="7.977209398683041"><ele>449.0</ele><time>2026-04-12T08:28:38Z</time></trkpt><trkpt lat="44.60263005750523" lon="7.977224113975523"><ele>452.6666666666667</ele><time>2026-04-12T08:28:41Z</time></trkpt><trkpt lat="44.60254543183447" lon="7.9772208539696035"><ele>456.33333333333337</ele><time>2026-04-12T08:28:44Z</time></trkpt><trkpt lat="44.60245751987127" lon="7.977210578462211"><ele>460.0</ele><time>2026-04-12T08:28:47Z</time></trkpt><trkpt lat="44.60237291265548" lon="7.977188949493183"><ele>460.00000000000006</ele><time>2026-04-12T08:28:50Z</time></trkpt><trkpt lat="44.60228933622651" lon="7.977157574516149"><ele>460.0</ele><time>2026-04-12T08:28:53Z</time></trkpt><trkpt lat="44.602203068361796" lon="7.977145973945837"><ele>460.0</ele><time>2026-04-12T08:28:56Z</time></trkpt><trkpt lat="44.6021218231258" lon="7.977131128970944"><ele>460.0</ele><time>2026-04-12T08:28:59Z</time></trkpt><trkpt lat="44.60203689922872" lon="7.977103187946156"><ele>460.00000000000006</ele><time>2026-04-12T08:29:02Z</time></trkpt><trkpt lat="44.601953764589275" lon="7.977083732684982"><ele>460.0</ele><time>2026-04-12T08:29:05Z</time></trkpt><trkpt lat="44.60187140441713" lon="7.977050250591187"><ele>459.1666666666667</ele><time>2026-04-12T08:29:08Z</time></trkpt><trkpt lat="44.60178655107208" lon="7.977028088723944"><ele>458.33333333333337</ele><time>2026-04-12T08:29:11Z</time></trkpt><trkpt lat="44.6016999585037" lon="7.977007337842695"><ele>457.5</ele><time>2026-04-12T08:29:14Z</time></trkpt><trkpt lat="44.60161095661737" lon="7.977013058136637"><ele>456.66666666666663</ele><time>2026-04-12T08:29:17Z</time></trkpt><trkpt lat="44.601523089126374" lon="7.977018239028879"><ele>455.8333333333333</ele><time>2026-04-12T08:29:20Z</time></trkpt><trkpt lat="44.60143647229023" lon="7.977019972167741"><ele>455.0</ele><time>2026-04-12T08:29:23Z</time></trkpt><trkpt lat="44.601352823735986" lon="7.977014957225739"><ele>454.99999999999994</ele><time>2026-04-12T08:29:26Z</time></trkpt><trkpt lat="44.60127101205036" lon="7.977000461419741"><ele>455.0</ele><time>2026-04-12T08:29:29Z</time></trkpt><trkpt lat="44.60118815817892" lon="7.9769943258231555"><ele>455.0</ele><time>2026-04-12T08:29:32Z</time></trkpt><trkpt lat="44.60110489931571" lon="7.9769878811290305"><ele>455.0</ele><time>2026-04-12T08:29:35Z</time></trkpt><trkpt lat="44.60102153290429" lon="7.976972512533209"><ele>454.99999999999994</ele><time>2026-04-12T08:29:38Z</time></trkpt><trkpt lat="44.600937995138814" lon="7.976987956187907"><ele>455.0</ele><time>2026-04-12T08:29:41Z</time></trkpt><trkpt lat="44.600857423554324" lon="7.97701642859895"><ele>456.2857142857143</ele><time>2026-04-12T08:29:44Z</time></trkpt><trkpt lat="44.60078199822488" lon="7.977042062020811"><ele>457.57142857142856</ele><time>2026-04-12T08:29:47Z</time></trkpt><trkpt lat="44.60071354379647" lon="7.9770683179432345"><ele>458.8571428571429</ele><time>2026-04-12T08:29:50Z</time></trkpt><trkpt lat="44.60065160139461" lon="7.977105803946916"><ele>460.14285714285717</ele><time>2026-04-12T08:29:53Z</time></trkpt><trkpt lat="44.60058685475016" lon="7.97714606941427"><ele>461.42857142857144</ele><time>2026-04-12T08:29:56Z</time></trkpt><trkpt lat="44.60052577384777" lon="7.977199510315"><ele>462.7142857142858</ele><time>2026-04-12T08:29:59Z</time></trkpt><trkpt lat="44.60047037896195" lon="7.9772590279676905"><ele>464.00000000000006</ele><time>2026-04-12T08:30:02Z</time></trkpt><trkpt lat="44.60041773317966" lon="7.97731911128345"><ele>464.00000000000006</ele><time>2026-04-12T08:30:05Z</time></trkpt><trkpt lat="44.60037031047824" lon="7.9773909578344115"><ele>464.0</ele><time>2026-04-12T08:30:08Z</time></trkpt><trkpt lat="44.600333054850424" lon="7.977474549025479"><ele>464.00000000000006</ele><time>2026-04-12T08:30:11Z</time></trkpt><trkpt lat="44.6003015511718" lon="7.977562690253732"><ele>464.00000000000006</ele><time>2026-04-12T08:30:14Z</time></trkpt><trkpt lat="44.60026155677775" lon="7.9776435629382005"><ele>464.0</ele><time>2026-04-12T08:30:17Z</time></trkpt><trkpt lat="44.6002115674429" lon="7.977714594172096"><ele>464.00000000000006</ele><time>2026-04-12T08:30:20Z</time></trkpt><trkpt lat="44.60016370579649" lon="7.97778297673513"><ele>464.00000000000006</ele><time>2026-04-12T08:30:23Z</time></trkpt><trkpt lat="44.600097842300634" lon="7.977790283624025"><ele>464.8333333333333</ele><time>2026-04-12T08:30:26Z</time></trkpt><trkpt lat="44.6000244109765" lon="7.977771784925907"><ele>465.66666666666663</ele><time>2026-04-12T08:30:29Z</time></trkpt><trkpt lat="44.59996212381687" lon="7.977817582132145"><ele>466.5</ele><time>2026-04-12T08:30:32Z</time></trkpt><trkpt lat="44.599890933787776" lon="7.977851969387792"><ele>467.33333333333337</ele><time>2026-04-12T08:30:35Z</time></trkpt><trkpt lat="44.599823250250715" lon="7.977899053572156"><ele>468.1666666666667</ele><time>2026-04-12T08:30:38Z</time></trkpt><trkpt lat="44.5997536781331" lon="7.977951169343893"><ele>469.0</ele><time>2026-04-12T08:30:41Z</time></trkpt><trkpt lat="44.59970403953231" lon="7.97804192489302"><ele>469.0</ele><time>2026-04-12T08:30:44Z</time></trkpt><trkpt lat="44.59964483812207" lon="7.978132032378464"><ele>469.0</ele><time>2026-04-12T08:30:47Z</time></trkpt><trkpt lat="44.599555899479505" lon="7.9781511768072715"><ele>469.0</ele><time>2026-04-12T08:30:50Z</time></trkpt><trkpt lat="44.59949584368992" lon="7.97812405950147"><ele>469.0</ele><time>2026-04-12T08:30:52Z</time></trkpt><trkpt lat="44.599438435009304" lon="7.978077909333642"><ele>469.0</ele><time>2026-04-12T08:30:54Z</time></trkpt><trkpt lat="44.599379741825146" lon="7.978028135971828"><ele>469.0</ele><time>2026-04-12T08:30:56Z</time></trkpt><trkpt lat="44.59932139123445" lon="7.977970222267885"><ele>469.0</ele><time>2026-04-12T08:30:58Z</time></trkpt><trkpt lat="44.599265095986745" lon="7.977910706306548"><ele>469.1428571428571</ele><time>2026-04-12T08:31:00Z</time></trkpt><trkpt lat="44.59921014151339" lon="7.977847431845097"><ele>469.2857142857143</ele><time>2026-04-12T08:31:02Z</time></trkpt><trkpt lat="44.59916018936484" lon="7.977782193845359"><ele>469.42857142857144</ele><time>2026-04-12T08:31:04Z</time></trkpt><trkpt lat="44.599111313167256" lon="7.9777164127393805"><ele>469.57142857142856</ele><time>2026-04-12T08:31:06Z</time></trkpt><trkpt lat="44.5990512143886" lon="7.9776861346696775"><ele>469.71428571428567</ele><time>2026-04-12T08:31:08Z</time></trkpt><trkpt lat="44.5989882255369" lon="7.977670138501332"><ele>469.85714285714283</ele><time>2026-04-12T08:31:10Z</time></trkpt><trkpt lat="44.598920237638495" lon="7.977646670544159"><ele>470.0</ele><time>2026-04-12T08:31:12Z</time></trkpt><trkpt lat="44.598834710576334" lon="7.977642135795745"><ele>469.99999999999994</ele><time>2026-04-12T08:31:15Z</time></trkpt><trkpt lat="44.59876645201748" lon="7.977663482941896"><ele>470.0</ele><time>2026-04-12T08:31:18Z</time></trkpt><trkpt lat="44.59869193477979" lon="7.977671328078926"><ele>470.0</ele><time>2026-04-12T08:31:21Z</time></trkpt><trkpt lat="44.598610594220375" lon="7.977658652965174"><ele>470.0</ele><time>2026-04-12T08:31:24Z</time></trkpt><trkpt lat="44.59852873037011" lon="7.977676585360631"><ele>469.99999999999994</ele><time>2026-04-12T08:31:27Z</time></trkpt><trkpt lat="44.59844617200519" lon="7.977712344964168"><ele>470.0</ele><time>2026-04-12T08:31:30Z</time></trkpt><trkpt lat="44.59836264635358" lon="7.977729291219316"><ele>469.49999999999994</ele><time>2026-04-12T08:31:33Z</time></trkpt><trkpt lat="44.59828292457872" lon="7.9777464104942855"><ele>469.0</ele><time>2026-04-12T08:31:36Z</time></trkpt><trkpt lat="44.598206140901844" lon="7.977756745836018"><ele>468.5</ele><time>2026-04-12T08:31:39Z</time></trkpt><trkpt lat="44.59814250865667" lon="7.977739984008013"><ele>468.0</ele><time>2026-04-12T08:31:42Z</time></trkpt><trkpt lat="44.598058392946065" lon="7.977722726053497"><ele>467.49999999999994</ele><time>2026-04-12T08:31:46Z</time></trkpt><trkpt lat="44.597974403107365" lon="7.977687175559932"><ele>467.0</ele><time>2026-04-12T08:31:49Z</time></trkpt><trkpt lat="44.5979123468751" lon="7.977642282993336"><ele>466.99999999999994</ele><time>2026-04-12T08:31:51Z</time></trkpt><trkpt lat="44.59785181881765" lon="7.977578038940588"><ele>467.0</ele><time>2026-04-12T08:31:53Z</time></trkpt><trkpt lat="44.597782247071045" lon="7.977516783414468"><ele>466.99999999999994</ele><time>2026-04-12T08:31:55Z</time></trkpt><trkpt lat="44.59770735179433" lon="7.977466146717714"><ele>466.99999999999994</ele><time>2026-04-12T08:31:58Z</time></trkpt><trkpt lat="44.5976427173036" lon="7.977450486646237"><ele>467.0</ele><time>2026-04-12T08:38:32Z</time></trkpt><trkpt lat="44.597580430144575" lon="7.977430113363495"><ele>466.99999999999994</ele><time>2026-04-12T08:39:03Z</time></trkpt><trkpt lat="44.597510215274816" lon="7.977424434874896"><ele>466.99999999999994</ele><time>2026-04-12T08:39:06Z</time></trkpt><trkpt lat="44.59744508036313" lon="7.977399920460426"><ele>469.16666666666663</ele><time>2026-04-12T08:39:09Z</time></trkpt><trkpt lat="44.59737460504717" lon="7.977391408474923"><ele>471.3333333333333</ele><time>2026-04-12T08:39:12Z</time></trkpt><trkpt lat="44.597305753538585" lon="7.977396520129108"><ele>473.5</ele><time>2026-04-12T08:39:15Z</time></trkpt><trkpt lat="44.59721974810787" lon="7.9773760373590905"><ele>475.66666666666663</ele><time>2026-04-12T08:39:18Z</time></trkpt><trkpt lat="44.59713645398114" lon="7.977349235147845"><ele>477.8333333333333</ele><time>2026-04-12T08:39:21Z</time></trkpt><trkpt lat="44.597044811818165" lon="7.977314450168022"><ele>480.0</ele><time>2026-04-12T08:39:24Z</time></trkpt><trkpt lat="44.59697862089393" lon="7.977294982933281"><ele>482.4</ele><time>2026-04-12T08:39:26Z</time></trkpt><trkpt lat="44.596907036143776" lon="7.977270205688604"><ele>484.8</ele><time>2026-04-12T08:39:28Z</time></trkpt><trkpt lat="44.59683518883364" lon="7.977226775994361"><ele>487.20000000000005</ele><time>2026-04-12T08:39:30Z</time></trkpt><trkpt lat="44.59675979591512" lon="7.977156388827447"><ele>489.6</ele><time>2026-04-12T08:39:32Z</time></trkpt><trkpt lat="44.596676903423884" lon="7.977070168555777"><ele>492.0</ele><time>2026-04-12T08:39:34Z</time></trkpt><trkpt lat="44.59659271101477" lon="7.9769775915020995"><ele>492.0</ele><time>2026-04-12T08:39:36Z</time></trkpt><trkpt lat="44.596503900360624" lon="7.976883413360883"><ele>492.00000000000006</ele><time>2026-04-12T08:39:38Z</time></trkpt><trkpt lat="44.59640955460006" lon="7.976793400978357"><ele>492.00000000000006</ele><time>2026-04-12T08:39:40Z</time></trkpt><trkpt lat="44.59632693621328" lon="7.976731907941806"><ele>492.0</ele><time>2026-04-12T08:39:42Z</time></trkpt><trkpt lat="44.59623796278551" lon="7.976624011143628"><ele>492.0</ele><time>2026-04-12T08:39:44Z</time></trkpt><trkpt lat="44.596164518675096" lon="7.976514233410469"><ele>494.0</ele><time>2026-04-12T08:39:46Z</time></trkpt><trkpt lat="44.59611768812752" lon="7.97638820408951"><ele>496.00000000000006</ele><time>2026-04-12T08:39:48Z</time></trkpt><trkpt lat="44.596129636779644" lon="7.976236444983626"><ele>498.00000000000006</ele><time>2026-04-12T08:39:50Z</time></trkpt><trkpt lat="44.596153277847186" lon="7.976098903258679"><ele>500.0</ele><time>2026-04-12T08:39:52Z</time></trkpt><trkpt lat="44.596188125529494" lon="7.975961648516349"><ele>502.0</ele><time>2026-04-12T08:39:54Z</time></trkpt><trkpt lat="44.5962284884967" lon="7.975829641304805"><ele>495.40000000000003</ele><time>2026-04-12T08:39:56Z</time></trkpt><trkpt lat="44.59628256150726" lon="7.975706778293221"><ele>488.80000000000007</ele><time>2026-04-12T08:39:58Z</time></trkpt><trkpt lat="44.59632419002811" lon="7.975582379524403"><ele>482.2</ele><time>2026-04-12T08:40:00Z</time></trkpt><trkpt lat="44.59634875766475" lon="7.975446738579826"><ele>475.6</ele><time>2026-04-12T08:40:02Z</time></trkpt><trkpt lat="44.596350688025865" lon="7.9753163154717885"><ele>469.0</ele><time>2026-04-12T08:40:04Z</time></trkpt><trkpt lat="44.59632658109964" lon="7.975191631087036"><ele>469.00000000000006</ele><time>2026-04-12T08:40:06Z</time></trkpt><trkpt lat="44.59629406628868" lon="7.97507696133573"><ele>469.0</ele><time>2026-04-12T08:40:08Z</time></trkpt><trkpt lat="44.596258565411965" lon="7.974972137775114"><ele>469.0</ele><time>2026-04-12T08:40:10Z</time></trkpt><trkpt lat="44.5962283851905" lon="7.974870454351423"><ele>469.0</ele><time>2026-04-12T08:40:12Z</time></trkpt><trkpt lat="44.59619545461122" lon="7.97477517639072"><ele>469.00000000000006</ele><time>2026-04-12T08:40:14Z</time></trkpt><trkpt lat="44.59616519856107" lon="7.974679264789792"><ele>469.0</ele><time>2026-04-12T08:40:16Z</time></trkpt><trkpt lat="44.59613352070899" lon="7.97458167304933"><ele>471.8571428571429</ele><time>2026-04-12T08:40:18Z</time></trkpt><trkpt lat="44.59609991233273" lon="7.974489662578578"><ele>474.7142857142857</ele><time>2026-04-12T08:40:20Z</time></trkpt><trkpt lat="44.596070988856674" lon="7.974395433827178"><ele>477.57142857142856</ele><time>2026-04-12T08:40:22Z</time></trkpt><trkpt lat="44.59603366034125" lon="7.974311694825103"><ele>480.42857142857144</ele><time>2026-04-12T08:40:24Z</time></trkpt><trkpt lat="44.59598929436441" lon="7.97423153301298"><ele>483.28571428571433</ele><time>2026-04-12T08:40:26Z</time></trkpt><trkpt lat="44.59594094761113" lon="7.974167489715354"><ele>486.14285714285717</ele><time>2026-04-12T08:40:28Z</time></trkpt><trkpt lat="44.59588580440251" lon="7.9741024162016565"><ele>489.0</ele><time>2026-04-12T08:40:30Z</time></trkpt><trkpt lat="44.59582936968193" lon="7.974023304521465"><ele>489.0</ele><time>2026-04-12T08:40:32Z</time></trkpt><trkpt lat="44.59579022045234" lon="7.973932210439557"><ele>489.0</ele><time>2026-04-12T08:40:34Z</time></trkpt><trkpt lat="44.595776055929164" lon="7.973823103278171"><ele>489.0</ele><time>2026-04-12T08:40:36Z</time></trkpt><trkpt lat="44.5957825031386" lon="7.973712888465234"><ele>489.0</ele><time>2026-04-12T08:40:38Z</time></trkpt><trkpt lat="44.595809464700494" lon="7.973612819549289"><ele>489.0</ele><time>2026-04-12T08:40:40Z</time></trkpt><trkpt lat="44.595812980522744" lon="7.973504604203796"><ele>489.0</ele><time>2026-04-12T08:40:42Z</time></trkpt><trkpt lat="44.595776805346304" lon="7.973399690736418"><ele>490.4</ele><time>2026-04-12T08:40:44Z</time></trkpt><trkpt lat="44.595700502865846" lon="7.973327562805887"><ele>491.79999999999995</ele><time>2026-04-12T08:40:46Z</time></trkpt><trkpt lat="44.59561036435276" lon="7.9732726334309065"><ele>493.20000000000005</ele><time>2026-04-12T08:40:48Z</time></trkpt><trkpt lat="44.59550646563266" lon="7.973239955203303"><ele>494.6</ele><time>2026-04-12T08:40:50Z</time></trkpt><trkpt lat="44.595402795214795" lon="7.973200278525912"><ele>496.0</ele><time>2026-04-12T08:40:52Z</time></trkpt><trkpt lat="44.595304929350796" lon="7.97314112918299"><ele>496.0</ele><time>2026-04-12T08:40:54Z</time></trkpt><trkpt lat="44.59520513860121" lon="7.973086051162708"><ele>496.0</ele><time>2026-04-12T08:40:56Z</time></trkpt><trkpt lat="44.595099056062125" lon="7.973028880580533"><ele>496.0</ele><time>2026-04-12T08:40:58Z</time></trkpt><trkpt lat="44.59500898441257" lon="7.972935598641064"><ele>496.0</ele><time>2026-04-12T08:41:00Z</time></trkpt><trkpt lat="44.59493146842797" lon="7.9728015436546045"><ele>496.0</ele><time>2026-04-12T08:41:02Z</time></trkpt><trkpt lat="44.59486592309181" lon="7.972666313297845"><ele>496.0</ele><time>2026-04-12T08:41:04Z</time></trkpt><trkpt lat="44.594817696667015" lon="7.972529485718213"><ele>496.0</ele><time>2026-04-12T08:41:06Z</time></trkpt><trkpt lat="44.59477059938226" lon="7.972399531330621"><ele>496.0</ele><time>2026-04-12T08:41:08Z</time></trkpt><trkpt lat="44.594724974835735" lon="7.972284327083373"><ele>496.0</ele><time>2026-04-12T08:41:10Z</time></trkpt><trkpt lat="44.59467591360021" lon="7.972183990268003"><ele>496.00000000000006</ele><time>2026-04-12T08:41:12Z</time></trkpt><trkpt lat="44.59462062788096" lon="7.972101819235091"><ele>496.0</ele><time>2026-04-12T08:41:14Z</time></trkpt><trkpt lat="44.59457020226212" lon="7.972024020644878"><ele>496.0</ele><time>2026-04-12T08:41:16Z</time></trkpt><trkpt lat="44.594497217410954" lon="7.971986061222333"><ele>496.0</ele><time>2026-04-12T08:41:18Z</time></trkpt><trkpt lat="44.59441281301556" lon="7.971977583404102"><ele>496.00000000000006</ele><time>2026-04-12T08:41:20Z</time></trkpt><trkpt lat="44.594336392857585" lon="7.9720009581092794"><ele>496.0</ele><time>2026-04-12T08:41:22Z</time></trkpt><trkpt lat="44.59425122551935" lon="7.97200818341373"><ele>496.00000000000006</ele><time>2026-04-12T08:41:24Z</time></trkpt><trkpt lat="44.594167864602085" lon="7.972032550503978"><ele>496.0</ele><time>2026-04-12T08:41:26Z</time></trkpt><trkpt lat="44.59408324187104" lon="7.97205850469498"><ele>496.0</ele><time>2026-04-12T08:41:28Z</time></trkpt><trkpt lat="44.59399967015304" lon="7.9720887589262075"><ele>496.0</ele><time>2026-04-12T08:41:30Z</time></trkpt><trkpt lat="44.593918349986" lon="7.972106528304293"><ele>496.00000000000006</ele><time>2026-04-12T08:41:32Z</time></trkpt><trkpt lat="44.59384543346983" lon="7.972135680844271"><ele>496.0</ele><time>2026-04-12T08:41:34Z</time></trkpt><trkpt lat="44.59377735761689" lon="7.972158368312842"><ele>496.0</ele><time>2026-04-12T08:41:36Z</time></trkpt><trkpt lat="44.5937107564741" lon="7.972128825296445"><ele>496.00000000000006</ele><time>2026-04-12T08:41:38Z</time></trkpt><trkpt lat="44.59364149785315" lon="7.972130868862651"><ele>496.0</ele><time>2026-04-12T08:41:40Z</time></trkpt><trkpt lat="44.593720171227666" lon="7.9721248879788105"><ele>496.0</ele><time>2026-04-12T08:41:54Z</time></trkpt><trkpt lat="44.593797859447314" lon="7.972117704356446"><ele>496.00000000000006</ele><time>2026-04-12T08:41:57Z</time></trkpt><trkpt lat="44.59386094881873" lon="7.972108122253347"><ele>496.0</ele><time>2026-04-12T08:41:59Z</time></trkpt><trkpt lat="44.593940375177034" lon="7.9720846337698"><ele>496.0</ele><time>2026-04-12T08:42:01Z</time></trkpt><trkpt lat="44.59403202116069" lon="7.972061011236117"><ele>496.0</ele><time>2026-04-12T08:42:03Z</time></trkpt><trkpt lat="44.59410753656996" lon="7.972037239827115"><ele>496.00000000000006</ele><time>2026-04-12T08:42:05Z</time></trkpt><trkpt lat="44.59418214969669" lon="7.972013560473893"><ele>496.0</ele><time>2026-04-12T08:42:07Z</time></trkpt><trkpt lat="44.59425109432538" lon="7.971995004369846"><ele>496.0</ele><time>2026-04-12T08:42:09Z</time></trkpt><trkpt lat="44.59431773958724" lon="7.971985693280132"><ele>496.00000000000006</ele><time>2026-04-12T08:42:11Z</time></trkpt><trkpt lat="44.5943974207775" lon="7.972008857177328"><ele>496.0</ele><time>2026-04-12T08:42:14Z</time></trkpt><trkpt lat="44.59436986406368" lon="7.972098113691234"><ele>496.0</ele><time>2026-04-12T08:42:18Z</time></trkpt><trkpt lat="44.594290056027596" lon="7.972105469162528"><ele>496.0</ele><time>2026-04-12T08:42:22Z</time></trkpt><trkpt lat="44.594214975997716" lon="7.972126639970991"><ele>496.00000000000006</ele><time>2026-04-12T08:42:26Z</time></trkpt><trkpt lat="44.59413600581362" lon="7.972159805436431"><ele>496.0</ele><time>2026-04-12T08:42:30Z</time></trkpt><trkpt lat="44.59407292277521" lon="7.97218424175061"><ele>496.0</ele><time>2026-04-12T08:42:33Z</time></trkpt><trkpt lat="44.594009820278465" lon="7.972201687949162"><ele>496.00000000000006</ele><time>2026-04-12T08:42:36Z</time></trkpt><trkpt lat="44.59394453263415" lon="7.972221823795028"><ele>496.0</ele><time>2026-04-12T08:42:39Z</time></trkpt><trkpt lat="44.59387813624577" lon="7.972246029188686"><ele>496.0</ele><time>2026-04-12T08:42:42Z</time></trkpt><trkpt lat="44.59380774580701" lon="7.972264619592248"><ele>496.0</ele><time>2026-04-12T08:42:45Z</time></trkpt><trkpt lat="44.59373906326443" lon="7.972286091156589"><ele>496.00000000000006</ele><time>2026-04-12T08:42:48Z</time></trkpt><trkpt lat="44.593669880274106" lon="7.972281833997377"><ele>496.0</ele><time>2026-04-12T08:42:51Z</time></trkpt><trkpt lat="44.59360063626774" lon="7.972275796593977"><ele>496.0</ele><time>2026-04-12T08:42:54Z</time></trkpt><trkpt lat="44.59352944876701" lon="7.9722441709350145"><ele>496.00000000000006</ele><time>2026-04-12T08:42:57Z</time></trkpt><trkpt lat="44.59346267239458" lon="7.97220719069107"><ele>496.0</ele><time>2026-04-12T08:43:00Z</time></trkpt><trkpt lat="44.59339485807082" lon="7.972158758432443"><ele>496.0</ele><time>2026-04-12T08:43:03Z</time></trkpt><trkpt lat="44.59332841680356" lon="7.972117485011312"><ele>497.14285714285717</ele><time>2026-04-12T08:43:06Z</time></trkpt><trkpt lat="44.59327085562533" lon="7.9720779538964495"><ele>498.28571428571433</ele><time>2026-04-12T08:43:09Z</time></trkpt><trkpt lat="44.59319843614361" lon="7.972037922371666"><ele>499.42857142857144</ele><time>2026-04-12T08:43:12Z</time></trkpt><trkpt lat="44.593127930006766" lon="7.972029214127224"><ele>500.57142857142856</ele><time>2026-04-12T08:43:15Z</time></trkpt><trkpt lat="44.59305842473967" lon="7.972022865343552"><ele>501.7142857142857</ele><time>2026-04-12T08:43:18Z</time></trkpt><trkpt lat="44.59299281192915" lon="7.972056178640712"><ele>502.8571428571429</ele><time>2026-04-12T08:43:21Z</time></trkpt><trkpt lat="44.59291777730624" lon="7.972105036449967"><ele>504.0</ele><time>2026-04-12T08:43:25Z</time></trkpt><trkpt lat="44.59285965842785" lon="7.972163521896494"><ele>504.1428571428571</ele><time>2026-04-12T08:43:28Z</time></trkpt><trkpt lat="44.59280018453223" lon="7.9722286601206696"><ele>504.2857142857143</ele><time>2026-04-12T08:43:31Z</time></trkpt><trkpt lat="44.59275038580103" lon="7.972302278704609"><ele>504.42857142857144</ele><time>2026-04-12T08:43:34Z</time></trkpt><trkpt lat="44.59269945185882" lon="7.972379074177045"><ele>504.57142857142856</ele><time>2026-04-12T08:43:37Z</time></trkpt><trkpt lat="44.59264680104919" lon="7.97244566662005"><ele>504.71428571428567</ele><time>2026-04-12T08:43:40Z</time></trkpt><trkpt lat="44.59259485455063" lon="7.972510800461482"><ele>504.85714285714283</ele><time>2026-04-12T08:43:43Z</time></trkpt><trkpt lat="44.592543083344204" lon="7.972568368234188"><ele>505.0</ele><time>2026-04-12T08:43:46Z</time></trkpt><trkpt lat="44.59248796366327" lon="7.97262772876353"><ele>507.85714285714283</ele><time>2026-04-12T08:43:49Z</time></trkpt><trkpt lat="44.59242743615748" lon="7.972667381343458"><ele>510.71428571428567</ele><time>2026-04-12T08:43:53Z</time></trkpt><trkpt lat="44.59236440401326" lon="7.972687249198938"><ele>513.5714285714286</ele><time>2026-04-12T08:43:57Z</time></trkpt><trkpt lat="44.59230085202948" lon="7.972686715241163"><ele>516.4285714285714</ele><time>2026-04-12T08:44:01Z</time></trkpt><trkpt lat="44.59223309608642" lon="7.972670509265146"><ele>519.2857142857142</ele><time>2026-04-12T08:44:05Z</time></trkpt><trkpt lat="44.592169571665686" lon="7.972656642885233"><ele>522.1428571428571</ele><time>2026-04-12T08:44:09Z</time></trkpt><trkpt lat="44.59209530600089" lon="7.972656175595146"><ele>525.0</ele><time>2026-04-12T08:44:13Z</time></trkpt><trkpt lat="44.59202151690843" lon="7.97264686048104"><ele>523.5714285714286</ele><time>2026-04-12T08:44:17Z</time></trkpt><trkpt lat="44.591948349917736" lon="7.972619373982076"><ele>522.1428571428571</ele><time>2026-04-12T08:44:21Z</time></trkpt><trkpt lat="44.591877987215625" lon="7.972623029687676"><ele>520.7142857142858</ele><time>2026-04-12T08:44:25Z</time></trkpt><trkpt lat="44.59180854634117" lon="7.972612883782354"><ele>519.2857142857142</ele><time>2026-04-12T08:44:29Z</time></trkpt><trkpt lat="44.59173293851645" lon="7.9726066855818125"><ele>517.8571428571429</ele><time>2026-04-12T08:44:34Z</time></trkpt><trkpt lat="44.591664546476814" lon="7.972606158111885"><ele>516.4285714285714</ele><time>2026-04-12T08:44:38Z</time></trkpt><trkpt lat="44.591585657499685" lon="7.972591367630347"><ele>515.0</ele><time>2026-04-12T08:44:42Z</time></trkpt><trkpt lat="44.59150324085648" lon="7.97258094817346"><ele>515.0</ele><time>2026-04-12T08:44:46Z</time></trkpt><trkpt lat="44.59142673838603" lon="7.972568246002858"><ele>515.0</ele><time>2026-04-12T08:44:50Z</time></trkpt><trkpt lat="44.59136125692288" lon="7.972557591569949"><ele>515.0</ele><time>2026-04-12T08:44:53Z</time></trkpt><trkpt lat="44.591288095180225" lon="7.972514321086441"><ele>515.0</ele><time>2026-04-12T08:44:57Z</time></trkpt><trkpt lat="44.59122415044539" lon="7.97245043023033"><ele>515.0</ele><time>2026-04-12T08:45:01Z</time></trkpt><trkpt lat="44.5911644538578" lon="7.972395601727453"><ele>515.0</ele><time>2026-04-12T08:45:05Z</time></trkpt><trkpt lat="44.591110630528725" lon="7.97234386226459"><ele>515.0</ele><time>2026-04-12T08:45:09Z</time></trkpt><trkpt lat="44.591047008029555" lon="7.972299958379375"><ele>514.7142857142858</ele><time>2026-04-12T08:45:13Z</time></trkpt><trkpt lat="44.59098050504032" lon="7.9722527804620285"><ele>514.4285714285714</ele><time>2026-04-12T08:45:17Z</time></trkpt><trkpt lat="44.590914603044475" lon="7.972220708203558"><ele>514.1428571428571</ele><time>2026-04-12T08:45:20Z</time></trkpt><trkpt lat="44.59085293551592" lon="7.972175463569505"><ele>513.8571428571429</ele><time>2026-04-12T08:45:23Z</time></trkpt><trkpt lat="44.59078942397059" lon="7.972142390418485"><ele>513.5714285714286</ele><time>2026-04-12T08:45:26Z</time></trkpt><trkpt lat="44.5907246236201" lon="7.972109396398704"><ele>513.2857142857143</ele><time>2026-04-12T08:45:29Z</time></trkpt><trkpt lat="44.59065787223982" lon="7.972077590981888"><ele>513.0</ele><time>2026-04-12T08:45:32Z</time></trkpt><trkpt lat="44.59058521110867" lon="7.972044235266232"><ele>513.0000000000001</ele><time>2026-04-12T08:45:35Z</time></trkpt><trkpt lat="44.59051329275754" lon="7.972008998431426"><ele>513.0</ele><time>2026-04-12T08:45:38Z</time></trkpt><trkpt lat="44.59044608615867" lon="7.971972934889699"><ele>513.0</ele><time>2026-04-12T08:45:41Z</time></trkpt><trkpt lat="44.590381325971265" lon="7.971924463167984"><ele>513.0</ele><time>2026-04-12T08:45:44Z</time></trkpt><trkpt lat="44.59031423648044" lon="7.971889529000263"><ele>513.0</ele><time>2026-04-12T08:45:47Z</time></trkpt><trkpt lat="44.590248809459766" lon="7.971854455017293"><ele>513.0000000000001</ele><time>2026-04-12T08:45:50Z</time></trkpt><trkpt lat="44.59017910235267" lon="7.9718175707281596"><ele>513.0</ele><time>2026-04-12T08:45:53Z</time></trkpt><trkpt lat="44.59011099438566" lon="7.971780039024148"><ele>513.2857142857143</ele><time>2026-04-12T08:45:56Z</time></trkpt><trkpt lat="44.59004175884645" lon="7.971746613479352"><ele>513.5714285714286</ele><time>2026-04-12T08:45:59Z</time></trkpt><trkpt lat="44.58997085923515" lon="7.971707025469502"><ele>513.8571428571429</ele><time>2026-04-12T08:46:02Z</time></trkpt><trkpt lat="44.5899027314299" lon="7.971670493666311"><ele>514.1428571428571</ele><time>2026-04-12T08:46:05Z</time></trkpt><trkpt lat="44.5898319208056" lon="7.971647461925331"><ele>514.4285714285714</ele><time>2026-04-12T08:46:08Z</time></trkpt><trkpt lat="44.589766411254175" lon="7.971622415360084"><ele>514.7142857142858</ele><time>2026-04-12T08:46:11Z</time></trkpt><trkpt lat="44.58970539683223" lon="7.971578817809023"><ele>515.0</ele><time>2026-04-12T08:46:14Z</time></trkpt><trkpt lat="44.58964190493192" lon="7.971548567270532"><ele>515.4285714285714</ele><time>2026-04-12T08:46:17Z</time></trkpt><trkpt lat="44.58958198291451" lon="7.971514668053849"><ele>515.8571428571429</ele><time>2026-04-12T08:46:20Z</time></trkpt><trkpt lat="44.58950798336902" lon="7.971498946319586"><ele>516.2857142857142</ele><time>2026-04-12T08:46:24Z</time></trkpt><trkpt lat="44.58943413392218" lon="7.971449185814265"><ele>516.7142857142858</ele><time>2026-04-12T08:46:28Z</time></trkpt><trkpt lat="44.589355171485536" lon="7.971418164794738"><ele>517.1428571428571</ele><time>2026-04-12T08:46:33Z</time></trkpt><trkpt lat="44.58932095537703" lon="7.971340372961803"><ele>517.5714285714286</ele><time>2026-04-12T08:46:37Z</time></trkpt><trkpt lat="44.58926089091613" lon="7.971297999373832"><ele>518.0</ele><time>2026-04-12T08:46:41Z</time></trkpt><trkpt lat="44.5891919153968" lon="7.9712125268229554"><ele>518.8</ele><time>2026-04-12T08:46:44Z</time></trkpt><trkpt lat="44.58914054378359" lon="7.971148171976166"><ele>519.5999999999999</ele><time>2026-04-12T08:46:46Z</time></trkpt><trkpt lat="44.58905246980682" lon="7.971079296433715"><ele>520.4000000000001</ele><time>2026-04-12T08:46:48Z</time></trkpt><trkpt lat="44.5889724548243" lon="7.971048822635911"><ele>521.2</ele><time>2026-04-12T08:46:50Z</time></trkpt><trkpt lat="44.58885918304367" lon="7.971035204803096"><ele>522.0</ele><time>2026-04-12T08:46:52Z</time></trkpt><trkpt lat="44.588735987222584" lon="7.971030905682851"><ele>521.2857142857143</ele><time>2026-04-12T08:46:54Z</time></trkpt><trkpt lat="44.58867156439122" lon="7.971040169005703"><ele>520.5714285714286</ele><time>2026-04-12T08:46:55Z</time></trkpt><trkpt lat="44.58860353107467" lon="7.9710628059042925"><ele>519.8571428571429</ele><time>2026-04-12T08:46:56Z</time></trkpt><trkpt lat="44.588530053674454" lon="7.971092351591047"><ele>519.1428571428571</ele><time>2026-04-12T08:46:57Z</time></trkpt><trkpt lat="44.58845957355137" lon="7.971133819879827"><ele>518.4285714285714</ele><time>2026-04-12T08:46:58Z</time></trkpt><trkpt lat="44.588392681938885" lon="7.971183800547747"><ele>517.7142857142858</ele><time>2026-04-12T08:46:59Z</time></trkpt><trkpt lat="44.588323892301005" lon="7.971232192568155"><ele>517.0</ele><time>2026-04-12T08:47:00Z</time></trkpt><trkpt lat="44.58826091765143" lon="7.971272675526717"><ele>517.0</ele><time>2026-04-12T08:47:01Z</time></trkpt><trkpt lat="44.588196626323715" lon="7.971314561644246"><ele>517.0</ele><time>2026-04-12T08:47:02Z</time></trkpt><trkpt lat="44.58813845338913" lon="7.971351210862807"><ele>517.0</ele><time>2026-04-12T08:47:03Z</time></trkpt><trkpt lat="44.58804137545794" lon="7.971436309912147"><ele>517.0</ele><time>2026-04-12T08:47:05Z</time></trkpt><trkpt lat="44.58796450931681" lon="7.971502307439614"><ele>517.0</ele><time>2026-04-12T08:47:07Z</time></trkpt><trkpt lat="44.58791257850399" lon="7.971438295350383"><ele>517.0</ele><time>2026-04-12T08:47:09Z</time></trkpt><trkpt lat="44.58785234582808" lon="7.97138351250479"><ele>518.2857142857143</ele><time>2026-04-12T08:47:12Z</time></trkpt><trkpt lat="44.58778093437355" lon="7.971369387764377"><ele>519.5714285714287</ele><time>2026-04-12T08:47:16Z</time></trkpt><trkpt lat="44.58772411202045" lon="7.97132647806995"><ele>520.8571428571429</ele><time>2026-04-12T08:47:19Z</time></trkpt><trkpt lat="44.58765180752935" lon="7.971291470113194"><ele>522.1428571428571</ele><time>2026-04-12T08:47:23Z</time></trkpt><trkpt lat="44.58757844223757" lon="7.971247615058398"><ele>523.4285714285713</ele><time>2026-04-12T08:47:27Z</time></trkpt><trkpt lat="44.58751057740037" lon="7.971220176801112"><ele>524.7142857142857</ele><time>2026-04-12T08:47:30Z</time></trkpt><trkpt lat="44.58743741691363" lon="7.971221825055302"><ele>526.0</ele><time>2026-04-12T08:47:33Z</time></trkpt><trkpt lat="44.58735602574165" lon="7.971209922260995"><ele>526.0</ele><time>2026-04-12T08:47:36Z</time></trkpt><trkpt lat="44.58726730620836" lon="7.971232055638411"><ele>526.0</ele><time>2026-04-12T08:47:39Z</time></trkpt><trkpt lat="44.587199074027495" lon="7.971243727667774"><ele>526.0</ele><time>2026-04-12T08:47:41Z</time></trkpt><trkpt lat="44.58711169402735" lon="7.971251960273562"><ele>526.0</ele><time>2026-04-12T08:47:44Z</time></trkpt><trkpt lat="44.58703869138914" lon="7.971245555266432"><ele>526.0</ele><time>2026-04-12T08:47:47Z</time></trkpt><trkpt lat="44.586957149913715" lon="7.971248031154919"><ele>526.0</ele><time>2026-04-12T08:47:51Z</time></trkpt><trkpt lat="44.58689485994935" lon="7.971234297706787"><ele>527.7142857142857</ele><time>2026-04-12T08:47:54Z</time></trkpt><trkpt lat="44.58683193251026" lon="7.971227741097795"><ele>529.4285714285713</ele><time>2026-04-12T08:47:57Z</time></trkpt><trkpt lat="44.58676334814521" lon="7.971217679277692"><ele>531.1428571428571</ele><time>2026-04-12T08:48:00Z</time></trkpt><trkpt lat="44.586699275930414" lon="7.9711835611055495"><ele>532.8571428571429</ele><time>2026-04-12T08:48:03Z</time></trkpt><trkpt lat="44.58663496437289" lon="7.97116416761292"><ele>534.5714285714287</ele><time>2026-04-12T08:48:06Z</time></trkpt><trkpt lat="44.58656611584854" lon="7.9711448251351396"><ele>536.2857142857143</ele><time>2026-04-12T08:48:09Z</time></trkpt><trkpt lat="44.586496636605396" lon="7.9711235315278"><ele>538.0</ele><time>2026-04-12T08:48:12Z</time></trkpt><trkpt lat="44.586431607487846" lon="7.971090976011819"><ele>538.0</ele><time>2026-04-12T08:48:15Z</time></trkpt><trkpt lat="44.58635891051325" lon="7.971061917985555"><ele>538.0</ele><time>2026-04-12T08:48:18Z</time></trkpt><trkpt lat="44.58628660521896" lon="7.971020781175789"><ele>538.0</ele><time>2026-04-12T08:48:21Z</time></trkpt><trkpt lat="44.58621090239732" lon="7.970984347967236"><ele>538.0</ele><time>2026-04-12T08:48:24Z</time></trkpt><trkpt lat="44.58614336247476" lon="7.970941935560333"><ele>538.0</ele><time>2026-04-12T08:48:27Z</time></trkpt><trkpt lat="44.58608425518672" lon="7.97089160796639"><ele>538.0</ele><time>2026-04-12T08:48:30Z</time></trkpt><trkpt lat="44.58601447607511" lon="7.970829410702741"><ele>537.6666666666667</ele><time>2026-04-12T08:48:33Z</time></trkpt><trkpt lat="44.58594039730942" lon="7.970759990827883"><ele>537.3333333333334</ele><time>2026-04-12T08:48:36Z</time></trkpt><trkpt lat="44.58587931929103" lon="7.970691785438848"><ele>537.0</ele><time>2026-04-12T08:48:39Z</time></trkpt><trkpt lat="44.585817906137024" lon="7.9706158377834635"><ele>536.6666666666666</ele><time>2026-04-12T08:48:42Z</time></trkpt><trkpt lat="44.58576746401028" lon="7.970561885061929"><ele>536.3333333333333</ele><time>2026-04-12T08:48:44Z</time></trkpt><trkpt lat="44.58572776878013" lon="7.970491043590714"><ele>536.0</ele><time>2026-04-12T08:48:46Z</time></trkpt><trkpt lat="44.585667773268774" lon="7.970381989415953"><ele>536.0</ele><time>2026-04-12T08:48:49Z</time></trkpt><trkpt lat="44.5856212411678" lon="7.970294076823946"><ele>536.0</ele><time>2026-04-12T08:48:51Z</time></trkpt><trkpt lat="44.58557165210971" lon="7.970191266554656"><ele>536.0</ele><time>2026-04-12T08:48:53Z</time></trkpt><trkpt lat="44.58552191054705" lon="7.970105339403789"><ele>536.0</ele><time>2026-04-12T08:48:55Z</time></trkpt><trkpt lat="44.585451881261825" lon="7.97001707502853"><ele>536.0</ele><time>2026-04-12T08:48:57Z</time></trkpt><trkpt lat="44.58540076445406" lon="7.969957202489429"><ele>536.0</ele><time>2026-04-12T08:48:59Z</time></trkpt><trkpt lat="44.58533952294711" lon="7.969923732227567"><ele>534.4285714285714</ele><time>2026-04-12T08:49:02Z</time></trkpt><trkpt lat="44.585275852784164" lon="7.969912959864545"><ele>532.8571428571429</ele><time>2026-04-12T08:49:06Z</time></trkpt><trkpt lat="44.585309975991876" lon="7.9699882301934135"><ele>531.2857142857142</ele><time>2026-04-12T08:51:03Z</time></trkpt><trkpt lat="44.585342226419876" lon="7.969904627791199"><ele>529.7142857142858</ele><time>2026-04-12T08:51:08Z</time></trkpt><trkpt lat="44.585332591153346" lon="7.969811010716593"><ele>528.1428571428571</ele><time>2026-04-12T08:51:10Z</time></trkpt><trkpt lat="44.58531411675503" lon="7.969693228833082"><ele>526.5714285714286</ele><time>2026-04-12T08:51:12Z</time></trkpt><trkpt lat="44.58530433367962" lon="7.969558150284532"><ele>525.0</ele><time>2026-04-12T08:51:14Z</time></trkpt><trkpt lat="44.585305123918545" lon="7.969427649386255"><ele>525.0</ele><time>2026-04-12T08:51:16Z</time></trkpt><trkpt lat="44.585307054193265" lon="7.9693131489766"><ele>525.0</ele><time>2026-04-12T08:51:18Z</time></trkpt><trkpt lat="44.58529038581784" lon="7.969224429932384"><ele>525.0</ele><time>2026-04-12T08:51:20Z</time></trkpt><trkpt lat="44.585272432274515" lon="7.969135392536834"><ele>525.0</ele><time>2026-04-12T08:51:24Z</time></trkpt><trkpt lat="44.585206141431534" lon="7.969053174653712"><ele>525.0</ele><time>2026-04-12T08:51:40Z</time></trkpt><trkpt lat="44.5851227308228" lon="7.968982873653716"><ele>525.0</ele><time>2026-04-12T08:51:42Z</time></trkpt><trkpt lat="44.585011152989246" lon="7.968907642489292"><ele>523.4</ele><time>2026-04-12T08:51:44Z</time></trkpt><trkpt lat="44.58492232148629" lon="7.968829445900066"><ele>521.8</ele><time>2026-04-12T08:51:46Z</time></trkpt><trkpt lat="44.584834727802836" lon="7.968779346143259"><ele>520.2</ele><time>2026-04-12T08:51:48Z</time></trkpt><trkpt lat="44.58476112443731" lon="7.968713546143576"><ele>518.6</ele><time>2026-04-12T08:51:50Z</time></trkpt><trkpt lat="44.58466894797781" lon="7.968666470014048"><ele>517.0</ele><time>2026-04-12T08:51:52Z</time></trkpt><trkpt lat="44.584559389859024" lon="7.968628783808965"><ele>515.0</ele><time>2026-04-12T08:51:54Z</time></trkpt><trkpt lat="44.58448449106154" lon="7.9686029641196345"><ele>513.0</ele><time>2026-04-12T08:51:56Z</time></trkpt><trkpt lat="44.58441200945219" lon="7.9685584576928505"><ele>511.0</ele><time>2026-04-12T08:51:58Z</time></trkpt><trkpt lat="44.5843662646509" lon="7.968494213393994"><ele>509.0</ele><time>2026-04-12T08:52:00Z</time></trkpt><trkpt lat="44.584277835258106" lon="7.9684725875573905"><ele>507.00000000000006</ele><time>2026-04-12T08:52:03Z</time></trkpt><trkpt lat="44.584225900883155" lon="7.968382873764112"><ele>505.0</ele><time>2026-04-12T08:52:07Z</time></trkpt><trkpt lat="44.584218393327205" lon="7.9682852565701285"><ele>505.00000000000006</ele><time>2026-04-12T08:52:11Z</time></trkpt><trkpt lat="44.584209338881664" lon="7.96815709364948"><ele>505.0</ele><time>2026-04-12T08:52:15Z</time></trkpt><trkpt lat="44.58422676569499" lon="7.968042199146924"><ele>505.0</ele><time>2026-04-12T08:52:18Z</time></trkpt><trkpt lat="44.58422361208811" lon="7.967939165441061"><ele>505.0</ele><time>2026-04-12T08:52:22Z</time></trkpt><trkpt lat="44.58416246984752" lon="7.967887566154581"><ele>505.00000000000006</ele><time>2026-04-12T08:52:25Z</time></trkpt><trkpt lat="44.584097119221134" lon="7.9679037468085845"><ele>505.0</ele><time>2026-04-12T08:52:28Z</time></trkpt><trkpt lat="44.58403624297208" lon="7.96796536856391"><ele>505.0</ele><time>2026-04-12T08:52:33Z</time></trkpt><trkpt lat="44.58398120783026" lon="7.968028841528831"><ele>504.99999999999994</ele><time>2026-04-12T08:52:37Z</time></trkpt><trkpt lat="44.583912402082326" lon="7.96803844439417"><ele>505.0</ele><time>2026-04-12T08:52:40Z</time></trkpt><trkpt lat="44.58384561915191" lon="7.967992049460128"><ele>505.0</ele><time>2026-04-12T08:52:46Z</time></trkpt><trkpt lat="44.58385255337838" lon="7.967896696910955"><ele>504.99999999999994</ele><time>2026-04-12T08:52:49Z</time></trkpt><trkpt lat="44.58387567266479" lon="7.967793237592264"><ele>505.0</ele><time>2026-04-12T08:52:54Z</time></trkpt><trkpt lat="44.5838797239275" lon="7.967687374292284"><ele>505.0</ele><time>2026-04-12T08:52:59Z</time></trkpt><trkpt lat="44.58381063581734" lon="7.96767576272358"><ele>505.00000000000006</ele><time>2026-04-12T08:53:04Z</time></trkpt><trkpt lat="44.58373897866297" lon="7.967705760312508"><ele>505.0</ele><time>2026-04-12T08:53:10Z</time></trkpt><trkpt lat="44.583644400378006" lon="7.967723024644797"><ele>505.0</ele><time>2026-04-12T08:53:14Z</time></trkpt><trkpt lat="44.58356938118283" lon="7.967755407117859"><ele>505.0</ele><time>2026-04-12T08:53:16Z</time></trkpt><trkpt lat="44.5835005376481" lon="7.967787015128653"><ele>505.00000000000006</ele><time>2026-04-12T08:53:19Z</time></trkpt><trkpt lat="44.583417715527624" lon="7.967771509429029"><ele>505.0</ele><time>2026-04-12T08:53:23Z</time></trkpt><trkpt lat="44.58335052923142" lon="7.967776863215011"><ele>501.4285714285714</ele><time>2026-04-12T08:53:26Z</time></trkpt><trkpt lat="44.583271482411774" lon="7.967774205916034"><ele>497.8571428571428</ele><time>2026-04-12T08:53:30Z</time></trkpt><trkpt lat="44.5832083435577" lon="7.967769609284717"><ele>494.2857142857143</ele><time>2026-04-12T08:53:38Z</time></trkpt><trkpt lat="44.58313953515138" lon="7.9677337856518875"><ele>490.71428571428567</ele><time>2026-04-12T08:54:41Z</time></trkpt><trkpt lat="44.58310530935245" lon="7.967642361345917"><ele>487.1428571428571</ele><time>2026-04-12T08:58:23Z</time></trkpt><trkpt lat="44.583077543768646" lon="7.967552081531349"><ele>483.57142857142856</ele><time>2026-04-12T08:58:31Z</time></trkpt><trkpt lat="44.58301565848273" lon="7.9675086570026705"><ele>480.0</ele><time>2026-04-12T08:58:38Z</time></trkpt><trkpt lat="44.58293669352461" lon="7.96753097651992"><ele>480.0</ele><time>2026-04-12T08:59:21Z</time></trkpt><trkpt lat="44.58298284930531" lon="7.967624451105571"><ele>480.0</ele><time>2026-04-12T08:59:45Z</time></trkpt><trkpt lat="44.58306200213601" lon="7.9676547383803875"><ele>480.0</ele><time>2026-04-12T09:00:47.026Z</time></trkpt><trkpt lat="44.58291956887405" lon="7.967468974661141"><ele>480.0</ele><time>2026-04-12T09:02:01.225Z</time></trkpt><trkpt lat="44.582772440788574" lon="7.967283788570487"><ele>480.0</ele><time>2026-04-12T09:02:02.176Z</time></trkpt><trkpt lat="44.58271012194584" lon="7.967161297337005"><ele>480.0</ele><time>2026-04-12T09:02:03.126Z</time></trkpt><trkpt lat="44.582762226818716" lon="7.967300103267185"><ele>480.0</ele><time>2026-04-12T09:02:06.026Z</time></trkpt><trkpt lat="44.582880110724986" lon="7.967486518279392"><ele>480.0</ele><time>2026-04-12T09:02:11Z</time></trkpt><trkpt lat="44.58296093544415" lon="7.96761568013347"><ele>480.0</ele><time>2026-04-12T09:02:19.026Z</time></trkpt><trkpt lat="44.58301328308055" lon="7.96768315298713"><ele>480.0</ele><time>2026-04-12T09:02:22.026Z</time></trkpt><trkpt lat="44.5829559883244" lon="7.967735316615146"><ele>480.0</ele><time>2026-04-12T09:02:36.026Z</time></trkpt><trkpt lat="44.58295763525755" lon="7.967642877250435"><ele>480.0</ele><time>2026-04-12T09:02:39.026Z</time></trkpt><trkpt lat="44.58295604232995" lon="7.967489964203448"><ele>480.0</ele><time>2026-04-12T09:03:21.026Z</time></trkpt><trkpt lat="44.58293032656082" lon="7.967408085766635"><ele>480.0</ele><time>2026-04-12T09:03:33Z</time></trkpt><trkpt lat="44.58294494150829" lon="7.967495070618249"><ele>480.0</ele><time>2026-04-12T09:04:24.15Z</time></trkpt><trkpt lat="44.58297254368257" lon="7.967584031338551"><ele>480.0</ele><time>2026-04-12T09:04:32Z</time></trkpt><trkpt lat="44.58309624971857" lon="7.967686318797612"><ele>480.0</ele><time>2026-04-12T09:05:29Z</time></trkpt><trkpt lat="44.582978259647724" lon="7.967702587114655"><ele>480.0</ele><time>2026-04-12T09:08:12Z</time></trkpt><trkpt lat="44.58294100971507" lon="7.967630856800964"><ele>480.0</ele><time>2026-04-12T09:08:18Z</time></trkpt><trkpt lat="44.58298952609368" lon="7.967784360685496"><ele>480.0</ele><time>2026-04-12T09:11:33.675Z</time></trkpt><trkpt lat="44.58298474780321" lon="7.967892015383763"><ele>480.0</ele><time>2026-04-12T09:11:37.325Z</time></trkpt><trkpt lat="44.58300537494148" lon="7.968043359958517"><ele>480.0</ele><time>2026-04-12T09:13:09.625Z</time></trkpt><trkpt lat="44.583040893181746" lon="7.967818836642445"><ele>480.0</ele><time>2026-04-12T09:17:42.176Z</time></trkpt><trkpt lat="44.58306096101548" lon="7.967730544460938"><ele>480.0</ele><time>2026-04-12T09:17:43.126Z</time></trkpt><trkpt lat="44.58284900820564" lon="7.967849861604042"><ele>480.0</ele><time>2026-04-12T09:19:57.826Z</time></trkpt><trkpt lat="44.58288613702801" lon="7.967772843381595"><ele>480.0</ele><time>2026-04-12T09:20:06.35Z</time></trkpt><trkpt lat="44.58293314769736" lon="7.967688590478107"><ele>480.0</ele><time>2026-04-12T09:20:16Z</time></trkpt><trkpt lat="44.582954637506745" lon="7.96757839403121"><ele>480.0</ele><time>2026-04-12T09:20:19Z</time></trkpt><trkpt lat="44.58294802866338" lon="7.967669093954105"><ele>480.0</ele><time>2026-04-12T09:23:42Z</time></trkpt><trkpt lat="44.582872501832114" lon="7.967697394721991"><ele>480.0</ele><time>2026-04-12T09:23:46Z</time></trkpt><trkpt lat="44.582931402409244" lon="7.967629921471304"><ele>480.0</ele><time>2026-04-12T09:23:54.026Z</time></trkpt><trkpt lat="44.58297494708369" lon="7.967522134205193"><ele>479.4</ele><time>2026-04-12T09:23:58.35Z</time></trkpt><trkpt lat="44.582908413011" lon="7.967469803802877"><ele>478.8</ele><time>2026-04-12T09:24:20Z</time></trkpt><trkpt lat="44.58283570464117" lon="7.967308674209282"><ele>478.20000000000005</ele><time>2026-04-12T09:24:25Z</time></trkpt><trkpt lat="44.58281273534138" lon="7.967137182668497"><ele>477.6</ele><time>2026-04-12T09:24:52.025Z</time></trkpt><trkpt lat="44.582873590268754" lon="7.96719235706771"><ele>477.0</ele><time>2026-04-12T09:24:55.425Z</time></trkpt><trkpt lat="44.58290191648484" lon="7.967296866472821"><ele>478.5</ele><time>2026-04-12T09:25:19.917Z</time></trkpt><trkpt lat="44.58299528624968" lon="7.967726116445972"><ele>480.0</ele><time>2026-04-12T09:25:25.367Z</time></trkpt><trkpt lat="44.58310682013108" lon="7.9675625256792015"><ele>480.0</ele><time>2026-04-12T09:25:40.476Z</time></trkpt><trkpt lat="44.5832285584333" lon="7.967512760249122"><ele>480.0</ele><time>2026-04-12T09:25:42.35Z</time></trkpt><trkpt lat="44.58310232020463" lon="7.967702002773479"><ele>480.0</ele><time>2026-04-12T09:25:43.3Z</time></trkpt><trkpt lat="44.58313285988575" lon="7.967611430698935"><ele>480.0</ele><time>2026-04-12T09:25:48.05Z</time></trkpt><trkpt lat="44.58298819844392" lon="7.9675367548540965"><ele>480.0</ele><time>2026-04-12T09:25:54Z</time></trkpt><trkpt lat="44.58305691616846" lon="7.967538253056436"><ele>480.0</ele><time>2026-04-12T09:27:33Z</time></trkpt><trkpt lat="44.58312559965564" lon="7.967479050273774"><ele>480.0</ele><time>2026-04-12T09:27:37Z</time></trkpt><trkpt lat="44.58320685959758" lon="7.9674869805416035"><ele>480.0</ele><time>2026-04-12T09:27:41Z</time></trkpt><trkpt lat="44.58328827694912" lon="7.967472311307274"><ele>480.0</ele><time>2026-04-12T09:27:45Z</time></trkpt><trkpt lat="44.583372616374376" lon="7.967442015205063"><ele>480.0</ele><time>2026-04-12T09:27:50Z</time></trkpt><trkpt lat="44.58345284047343" lon="7.967385792124596"><ele>478.8</ele><time>2026-04-12T09:27:53Z</time></trkpt><trkpt lat="44.58350499370069" lon="7.967314858899434"><ele>477.6</ele><time>2026-04-12T09:27:55Z</time></trkpt><trkpt lat="44.58357487200627" lon="7.967235502536161"><ele>476.4</ele><time>2026-04-12T09:27:57Z</time></trkpt><trkpt lat="44.58365263536949" lon="7.967134883614304"><ele>475.2</ele><time>2026-04-12T09:27:59Z</time></trkpt><trkpt lat="44.583742404979375" lon="7.967038249408179"><ele>474.0</ele><time>2026-04-12T09:28:01Z</time></trkpt><trkpt lat="44.58384375645574" lon="7.966931357300838"><ele>473.1428571428571</ele><time>2026-04-12T09:28:03Z</time></trkpt><trkpt lat="44.58389177172677" lon="7.966868510509065"><ele>472.2857142857143</ele><time>2026-04-12T09:28:04Z</time></trkpt><trkpt lat="44.58394589394456" lon="7.966804213501259"><ele>471.42857142857144</ele><time>2026-04-12T09:28:05Z</time></trkpt><trkpt lat="44.583999358779515" lon="7.966734491751624"><ele>470.57142857142856</ele><time>2026-04-12T09:28:06Z</time></trkpt><trkpt lat="44.58405245052307" lon="7.966664025321463"><ele>469.7142857142858</ele><time>2026-04-12T09:28:07Z</time></trkpt><trkpt lat="44.584103262767464" lon="7.966592214088745"><ele>468.8571428571429</ele><time>2026-04-12T09:28:08Z</time></trkpt><trkpt lat="44.584155138316746" lon="7.966527939861197"><ele>468.0</ele><time>2026-04-12T09:28:09Z</time></trkpt><trkpt lat="44.58421210148275" lon="7.966464135392599"><ele>468.0</ele><time>2026-04-12T09:28:10Z</time></trkpt><trkpt lat="44.58426721341847" lon="7.966391645712352"><ele>468.0</ele><time>2026-04-12T09:28:11Z</time></trkpt><trkpt lat="44.58432245592442" lon="7.966320696590075"><ele>468.0</ele><time>2026-04-12T09:28:12Z</time></trkpt><trkpt lat="44.58438119898664" lon="7.966247469493664"><ele>468.0</ele><time>2026-04-12T09:28:13Z</time></trkpt><trkpt lat="44.58444418786715" lon="7.966178224800384"><ele>468.0</ele><time>2026-04-12T09:28:14Z</time></trkpt><trkpt lat="44.584515357034306" lon="7.9661058684686035"><ele>468.0</ele><time>2026-04-12T09:28:15Z</time></trkpt><trkpt lat="44.58459516296773" lon="7.966045667082554"><ele>466.59999999999997</ele><time>2026-04-12T09:28:16Z</time></trkpt><trkpt lat="44.584679814272775" lon="7.965968117701441"><ele>465.19999999999993</ele><time>2026-04-12T09:28:17Z</time></trkpt><trkpt lat="44.58475669381501" lon="7.965902027718169"><ele>463.8</ele><time>2026-04-12T09:28:18Z</time></trkpt><trkpt lat="44.584857554638134" lon="7.965868942518504"><ele>462.4</ele><time>2026-04-12T09:28:19Z</time></trkpt><trkpt lat="44.5849621586439" lon="7.965845679789161"><ele>461.0</ele><time>2026-04-12T09:28:20Z</time></trkpt><trkpt lat="44.58506349727528" lon="7.965786837335089"><ele>461.0</ele><time>2026-04-12T09:28:21Z</time></trkpt><trkpt lat="44.585161929688866" lon="7.965713411614764"><ele>461.0</ele><time>2026-04-12T09:28:22Z</time></trkpt><trkpt lat="44.585255414669774" lon="7.965624831358898"><ele>461.0</ele><time>2026-04-12T09:28:23Z</time></trkpt><trkpt lat="44.58534388937839" lon="7.965524878725079"><ele>461.0</ele><time>2026-04-12T09:28:24Z</time></trkpt><trkpt lat="44.58542251177001" lon="7.965404788548262"><ele>459.75</ele><time>2026-04-12T09:28:25Z</time></trkpt><trkpt lat="44.585491353167164" lon="7.965270713756299"><ele>458.5</ele><time>2026-04-12T09:28:26Z</time></trkpt><trkpt lat="44.585537903734" lon="7.965108682903288"><ele>457.25</ele><time>2026-04-12T09:28:27Z</time></trkpt><trkpt lat="44.585577672759435" lon="7.964939065758753"><ele>456.0</ele><time>2026-04-12T09:28:28Z</time></trkpt><trkpt lat="44.58562441759276" lon="7.964772244591958"><ele>456.0</ele><time>2026-04-12T09:28:29Z</time></trkpt><trkpt lat="44.58566801060636" lon="7.964605334507112"><ele>456.0</ele><time>2026-04-12T09:28:30Z</time></trkpt><trkpt lat="44.58571725002501" lon="7.964439471028685"><ele>456.0</ele><time>2026-04-12T09:28:31Z</time></trkpt><trkpt lat="44.585768795283954" lon="7.964274478774534"><ele>456.0</ele><time>2026-04-12T09:28:32Z</time></trkpt><trkpt lat="44.58581784108767" lon="7.964104183234401"><ele>453.20000000000005</ele><time>2026-04-12T09:28:33Z</time></trkpt><trkpt lat="44.58586551147034" lon="7.96394990597642"><ele>450.40000000000003</ele><time>2026-04-12T09:28:34Z</time></trkpt><trkpt lat="44.585918718441874" lon="7.96381304055244"><ele>447.6</ele><time>2026-04-12T09:28:35Z</time></trkpt><trkpt lat="44.58596856928835" lon="7.963679348142332"><ele>444.8</ele><time>2026-04-12T09:28:36Z</time></trkpt><trkpt lat="44.58601344146314" lon="7.963566502938839"><ele>442.0</ele><time>2026-04-12T09:28:37Z</time></trkpt><trkpt lat="44.58605202019005" lon="7.963480565408971"><ele>442.00000000000006</ele><time>2026-04-12T09:28:38Z</time></trkpt><trkpt lat="44.58611123871936" lon="7.963374867620006"><ele>442.0</ele><time>2026-04-12T09:28:40Z</time></trkpt><trkpt lat="44.58620329134384" lon="7.963380167684826"><ele>442.0</ele><time>2026-04-12T09:28:44Z</time></trkpt><trkpt lat="44.58626651925709" lon="7.963412543084576"><ele>442.0</ele><time>2026-04-12T09:28:47Z</time></trkpt><trkpt lat="44.58632606450781" lon="7.963445763849682"><ele>442.00000000000006</ele><time>2026-04-12T09:28:52Z</time></trkpt><trkpt lat="44.58626188270498" lon="7.963470267652652"><ele>442.0</ele><time>2026-04-12T09:29:11Z</time></trkpt><trkpt lat="44.58619048915558" lon="7.963451711783512"><ele>442.00000000000006</ele><time>2026-04-12T09:29:14Z</time></trkpt><trkpt lat="44.58612295424242" lon="7.963421742846552"><ele>442.0</ele><time>2026-04-12T09:29:17Z</time></trkpt><trkpt lat="44.58610854481241" lon="7.963315780089528"><ele>442.0</ele><time>2026-04-12T09:30:25Z</time></trkpt><trkpt lat="44.58613533282636" lon="7.963213013621626"><ele>442.0</ele><time>2026-04-12T09:30:30Z</time></trkpt><trkpt lat="44.58616960129133" lon="7.963106988251086"><ele>442.0</ele><time>2026-04-12T09:30:34Z</time></trkpt><trkpt lat="44.58617896596665" lon="7.9630184280695975"><ele>442.00000000000006</ele><time>2026-04-12T09:30:37Z</time></trkpt><trkpt lat="44.58619130729905" lon="7.962931243242202"><ele>442.0</ele><time>2026-04-12T09:30:40Z</time></trkpt><trkpt lat="44.586193516104885" lon="7.96283988108866"><ele>441.8571428571429</ele><time>2026-04-12T09:30:43Z</time></trkpt><trkpt lat="44.58619310472728" lon="7.962732864061017"><ele>441.7142857142857</ele><time>2026-04-12T09:30:46Z</time></trkpt><trkpt lat="44.586200763087334" lon="7.962630776998513"><ele>441.57142857142856</ele><time>2026-04-12T09:30:49Z</time></trkpt><trkpt lat="44.5861986191411" lon="7.962535728108032"><ele>441.42857142857144</ele><time>2026-04-12T09:30:52Z</time></trkpt><trkpt lat="44.586189663538015" lon="7.962438651863796"><ele>441.2857142857143</ele><time>2026-04-12T09:30:56Z</time></trkpt><trkpt lat="44.58616258776128" lon="7.96233783749666"><ele>441.14285714285717</ele><time>2026-04-12T09:31:01Z</time></trkpt><trkpt lat="44.58612639668538" lon="7.9622548341235495"><ele>441.0</ele><time>2026-04-12T09:31:05Z</time></trkpt><trkpt lat="44.58612076617857" lon="7.962161454419725"><ele>439.3333333333333</ele><time>2026-04-12T09:31:09Z</time></trkpt><trkpt lat="44.58607579141778" lon="7.962067886299802"><ele>437.66666666666663</ele><time>2026-04-12T09:31:14Z</time></trkpt><trkpt lat="44.58601125098588" lon="7.962019845576502"><ele>436.0</ele><time>2026-04-12T09:31:18Z</time></trkpt><trkpt lat="44.58604380935505" lon="7.962154364941517"><ele>434.3333333333333</ele><time>2026-04-12T09:31:32Z</time></trkpt><trkpt lat="44.58608171793269" lon="7.962250746352737"><ele>432.66666666666663</ele><time>2026-04-12T09:31:34Z</time></trkpt><trkpt lat="44.58612348452857" lon="7.962371412015241"><ele>431.0</ele><time>2026-04-12T09:31:36Z</time></trkpt><trkpt lat="44.58614224734168" lon="7.962475705625458"><ele>431.2857142857143</ele><time>2026-04-12T09:31:38Z</time></trkpt><trkpt lat="44.58615284583059" lon="7.962568122397969"><ele>431.57142857142856</ele><time>2026-04-12T09:31:40Z</time></trkpt><trkpt lat="44.58615820103984" lon="7.962658119708756"><ele>431.85714285714283</ele><time>2026-04-12T09:31:42Z</time></trkpt><trkpt lat="44.586150285192474" lon="7.96274803582983"><ele>432.1428571428571</ele><time>2026-04-12T09:31:44Z</time></trkpt><trkpt lat="44.58614496137804" lon="7.962844985368104"><ele>432.42857142857144</ele><time>2026-04-12T09:31:46Z</time></trkpt><trkpt lat="44.58613525766797" lon="7.962966901923658"><ele>432.71428571428567</ele><time>2026-04-12T09:31:49Z</time></trkpt><trkpt lat="44.58612745000178" lon="7.963058852587743"><ele>433.0</ele><time>2026-04-12T09:31:52Z</time></trkpt><trkpt lat="44.586127698020995" lon="7.96315570861016"><ele>432.99999999999994</ele><time>2026-04-12T09:31:55Z</time></trkpt><trkpt lat="44.586119118164724" lon="7.9632499923694775"><ele>433.0</ele><time>2026-04-12T09:31:58Z</time></trkpt><trkpt lat="44.5861470773787" lon="7.963329294023714"><ele>433.0</ele><time>2026-04-12T09:32:00Z</time></trkpt><trkpt lat="44.58621956411383" lon="7.963389075548085"><ele>433.0</ele><time>2026-04-12T09:32:03Z</time></trkpt><trkpt lat="44.58628895718348" lon="7.963397987540233"><ele>433.0</ele><time>2026-04-12T09:32:05Z</time></trkpt><trkpt lat="44.586358503961144" lon="7.963425799524779"><ele>432.99999999999994</ele><time>2026-04-12T09:32:07Z</time></trkpt><trkpt lat="44.586436651563446" lon="7.9634784596704336"><ele>433.0</ele><time>2026-04-12T09:32:09Z</time></trkpt><trkpt lat="44.586516153001384" lon="7.963553977219496"><ele>434.0</ele><time>2026-04-12T09:32:11Z</time></trkpt><trkpt lat="44.58660535515811" lon="7.963600735505712"><ele>434.99999999999994</ele><time>2026-04-12T09:32:13Z</time></trkpt><trkpt lat="44.58669297528838" lon="7.963660697792016"><ele>435.99999999999994</ele><time>2026-04-12T09:32:15Z</time></trkpt><trkpt lat="44.5867561564188" lon="7.9637126000638165"><ele>437.0</ele><time>2026-04-12T09:32:17Z</time></trkpt><trkpt lat="44.5868279894003" lon="7.963766589156158"><ele>438.0</ele><time>2026-04-12T09:32:19Z</time></trkpt><trkpt lat="44.58693063733474" lon="7.963835432614997"><ele>436.8333333333333</ele><time>2026-04-12T09:32:21Z</time></trkpt><trkpt lat="44.587030812712584" lon="7.96394522159854"><ele>435.66666666666663</ele><time>2026-04-12T09:32:23Z</time></trkpt><trkpt lat="44.5870881084704" lon="7.963994182399581"><ele>434.5</ele><time>2026-04-12T09:32:24Z</time></trkpt><trkpt lat="44.58714448686336" lon="7.964054994096701"><ele>433.3333333333333</ele><time>2026-04-12T09:32:25Z</time></trkpt><trkpt lat="44.58719931859082" lon="7.96412252493465"><ele>432.16666666666663</ele><time>2026-04-12T09:32:26Z</time></trkpt><trkpt lat="44.58725889324847" lon="7.964191100382773"><ele>431.0</ele><time>2026-04-12T09:32:27Z</time></trkpt><trkpt lat="44.58732560691093" lon="7.964252457139386"><ele>430.99999999999994</ele><time>2026-04-12T09:32:28Z</time></trkpt><trkpt lat="44.58738841924276" lon="7.964319983582715"><ele>431.0</ele><time>2026-04-12T09:32:29Z</time></trkpt><trkpt lat="44.587442448270664" lon="7.964399095322069"><ele>431.0</ele><time>2026-04-12T09:32:30Z</time></trkpt><trkpt lat="44.587496450868116" lon="7.964474173848977"><ele>431.0</ele><time>2026-04-12T09:32:31Z</time></trkpt><trkpt lat="44.58755735772652" lon="7.964545113872243"><ele>430.99999999999994</ele><time>2026-04-12T09:32:32Z</time></trkpt><trkpt lat="44.58762146746002" lon="7.964619416136172"><ele>431.0</ele><time>2026-04-12T09:32:33Z</time></trkpt><trkpt lat="44.587681357581744" lon="7.964697955348052"><ele>430.99999999999994</ele><time>2026-04-12T09:32:34Z</time></trkpt><trkpt lat="44.58774291158386" lon="7.964781509986751"><ele>431.0</ele><time>2026-04-12T09:32:35Z</time></trkpt><trkpt lat="44.587804904314496" lon="7.964862423051064"><ele>431.0</ele><time>2026-04-12T09:32:36Z</time></trkpt><trkpt lat="44.587870485266336" lon="7.964940922241567"><ele>431.0</ele><time>2026-04-12T09:32:37Z</time></trkpt><trkpt lat="44.58792930725526" lon="7.965015312222324"><ele>430.99999999999994</ele><time>2026-04-12T09:32:38Z</time></trkpt><trkpt lat="44.587984600474975" lon="7.965083343927658"><ele>431.0</ele><time>2026-04-12T09:32:39Z</time></trkpt><trkpt lat="44.58802501051953" lon="7.965165540026328"><ele>427.99999999999994</ele><time>2026-04-12T09:32:40Z</time></trkpt><trkpt lat="44.58805852025986" lon="7.965260620185842"><ele>425.0</ele><time>2026-04-12T09:32:41Z</time></trkpt><trkpt lat="44.58807450884538" lon="7.965367008804431"><ele>422.0</ele><time>2026-04-12T09:32:42Z</time></trkpt><trkpt lat="44.58808076314589" lon="7.965481807824574"><ele>419.0</ele><time>2026-04-12T09:32:43Z</time></trkpt><trkpt lat="44.58807280219611" lon="7.965601036518588"><ele>415.99999999999994</ele><time>2026-04-12T09:32:44Z</time></trkpt><trkpt lat="44.58806849159756" lon="7.965723490764894"><ele>413.0</ele><time>2026-04-12T09:32:45Z</time></trkpt><trkpt lat="44.588063154975515" lon="7.965839474062654"><ele>413.99999999999994</ele><time>2026-04-12T09:32:46Z</time></trkpt><trkpt lat="44.58804245297408" lon="7.965965371817973"><ele>415.0</ele><time>2026-04-12T09:32:47Z</time></trkpt><trkpt lat="44.588058446703656" lon="7.966080546907554"><ele>416.0</ele><time>2026-04-12T09:32:48Z</time></trkpt><trkpt lat="44.58807570393639" lon="7.966188151972735"><ele>417.0</ele><time>2026-04-12T09:32:49Z</time></trkpt><trkpt lat="44.58811295014181" lon="7.9662897676995295"><ele>417.99999999999994</ele><time>2026-04-12T09:32:50Z</time></trkpt><trkpt lat="44.58815551548132" lon="7.966382678506564"><ele>419.0</ele><time>2026-04-12T09:32:51Z</time></trkpt><trkpt lat="44.588200263462355" lon="7.966455463033978"><ele>419.0</ele><time>2026-04-12T09:32:52Z</time></trkpt><trkpt lat="44.58829539037837" lon="7.9665089991837625"><ele>419.0</ele><time>2026-04-12T09:32:54Z</time></trkpt><trkpt lat="44.58838057765327" lon="7.966414038767988"><ele>419.0</ele><time>2026-04-12T09:32:56Z</time></trkpt><trkpt lat="44.588408952021005" lon="7.966333816669801"><ele>419.0</ele><time>2026-04-12T09:32:57Z</time></trkpt><trkpt lat="44.58844844992244" lon="7.96618916931159"><ele>419.0</ele><time>2026-04-12T09:32:59Z</time></trkpt><trkpt lat="44.58849325572572" lon="7.966032162681219"><ele>418.99999999999994</ele><time>2026-04-12T09:33:01Z</time></trkpt><trkpt lat="44.58852695036093" lon="7.9659419519079115"><ele>419.0</ele><time>2026-04-12T09:33:02Z</time></trkpt><trkpt lat="44.58858750091836" lon="7.965870212271663"><ele>419.0</ele><time>2026-04-12T09:33:03Z</time></trkpt><trkpt lat="44.58863395177939" lon="7.96577264825635"><ele>419.0</ele><time>2026-04-12T09:33:04Z</time></trkpt><trkpt lat="44.58869690706412" lon="7.965685112139862"><ele>418.99999999999994</ele><time>2026-04-12T09:33:05Z</time></trkpt><trkpt lat="44.58875610129788" lon="7.965588934364064"><ele>419.0</ele><time>2026-04-12T09:33:06Z</time></trkpt><trkpt lat="44.588807559785415" lon="7.96549642040719"><ele>416.99999999999994</ele><time>2026-04-12T09:33:07Z</time></trkpt><trkpt lat="44.588865029130105" lon="7.965422148066086"><ele>415.0</ele><time>2026-04-12T09:33:08Z</time></trkpt><trkpt lat="44.588925372689815" lon="7.965354847719466"><ele>413.0</ele><time>2026-04-12T09:33:09Z</time></trkpt><trkpt lat="44.58899993816898" lon="7.965317745585479"><ele>411.0</ele><time>2026-04-12T09:33:10Z</time></trkpt><trkpt lat="44.589068686423154" lon="7.96526775729845"><ele>408.99999999999994</ele><time>2026-04-12T09:33:11Z</time></trkpt><trkpt lat="44.58913452192424" lon="7.965197584065925"><ele>407.0</ele><time>2026-04-12T09:33:12Z</time></trkpt><trkpt lat="44.58921093953207" lon="7.965145272495808"><ele>406.99999999999994</ele><time>2026-04-12T09:33:13Z</time></trkpt><trkpt lat="44.58929083830516" lon="7.965093168084779"><ele>407.0</ele><time>2026-04-12T09:33:14Z</time></trkpt><trkpt lat="44.58936279325809" lon="7.965053536671378"><ele>407.0</ele><time>2026-04-12T09:33:15Z</time></trkpt><trkpt lat="44.589445264002315" lon="7.964974510285692"><ele>407.0</ele><time>2026-04-12T09:33:16Z</time></trkpt><trkpt lat="44.589525543930606" lon="7.964915454926627"><ele>406.99999999999994</ele><time>2026-04-12T09:33:17Z</time></trkpt><trkpt lat="44.589609268554554" lon="7.964867238283642"><ele>407.0</ele><time>2026-04-12T09:33:18Z</time></trkpt><trkpt lat="44.58968741071415" lon="7.964807421965051"><ele>403.66666666666663</ele><time>2026-04-12T09:33:19Z</time></trkpt><trkpt lat="44.58977133298917" lon="7.964766889163487"><ele>400.3333333333333</ele><time>2026-04-12T09:33:20Z</time></trkpt><trkpt lat="44.58984587885964" lon="7.9647028650001985"><ele>397.0</ele><time>2026-04-12T09:33:21Z</time></trkpt><trkpt lat="44.589910495995206" lon="7.964621702847902"><ele>393.66666666666663</ele><time>2026-04-12T09:33:22Z</time></trkpt><trkpt lat="44.5899597376767" lon="7.964537852042733"><ele>390.3333333333333</ele><time>2026-04-12T09:33:23Z</time></trkpt><trkpt lat="44.590011364062846" lon="7.964446668983852"><ele>387.0</ele><time>2026-04-12T09:33:24Z</time></trkpt><trkpt lat="44.59005692786543" lon="7.96436060542487"><ele>387.0</ele><time>2026-04-12T09:33:25Z</time></trkpt><trkpt lat="44.59009252366822" lon="7.964263563650427"><ele>387.0</ele><time>2026-04-12T09:33:26Z</time></trkpt><trkpt lat="44.59011967977647" lon="7.964159261430375"><ele>387.0</ele><time>2026-04-12T09:33:27Z</time></trkpt><trkpt lat="44.59014743566063" lon="7.964054671344267"><ele>387.0</ele><time>2026-04-12T09:33:28Z</time></trkpt><trkpt lat="44.59018826442113" lon="7.963966783706132"><ele>387.0</ele><time>2026-04-12T09:33:29Z</time></trkpt><trkpt lat="44.5902498009333" lon="7.963907894750426"><ele>387.0</ele><time>2026-04-12T09:33:30Z</time></trkpt><trkpt lat="44.59032176290297" lon="7.963883655056378"><ele>384.6666666666667</ele><time>2026-04-12T09:33:31Z</time></trkpt><trkpt lat="44.59040104172967" lon="7.963924297940262"><ele>382.3333333333333</ele><time>2026-04-12T09:33:32Z</time></trkpt><trkpt lat="44.59048689736217" lon="7.963925251872433"><ele>380.0</ele><time>2026-04-12T09:33:33Z</time></trkpt><trkpt lat="44.590572351013165" lon="7.963949296656309"><ele>377.66666666666663</ele><time>2026-04-12T09:33:34Z</time></trkpt><trkpt lat="44.590665201323915" lon="7.96393969206544"><ele>375.3333333333333</ele><time>2026-04-12T09:33:35Z</time></trkpt><trkpt lat="44.59075916072909" lon="7.963912213225885"><ele>373.0</ele><time>2026-04-12T09:33:36Z</time></trkpt><trkpt lat="44.59085802822304" lon="7.963872630952298"><ele>373.0</ele><time>2026-04-12T09:33:37Z</time></trkpt><trkpt lat="44.59095936743482" lon="7.9638376690804025"><ele>373.0</ele><time>2026-04-12T09:33:38Z</time></trkpt><trkpt lat="44.59105560469325" lon="7.9637892393988645"><ele>373.0</ele><time>2026-04-12T09:33:39Z</time></trkpt><trkpt lat="44.591154643108226" lon="7.963736250788331"><ele>373.0</ele><time>2026-04-12T09:33:40Z</time></trkpt><trkpt lat="44.591250735644465" lon="7.963698921699723"><ele>373.0</ele><time>2026-04-12T09:33:41Z</time></trkpt><trkpt lat="44.591355742235876" lon="7.963689019813116"><ele>372.0</ele><time>2026-04-12T09:33:42Z</time></trkpt><trkpt lat="44.591459892499635" lon="7.963701639383667"><ele>371.0</ele><time>2026-04-12T09:33:43Z</time></trkpt><trkpt lat="44.59155861998454" lon="7.963714675900979"><ele>370.0</ele><time>2026-04-12T09:33:44Z</time></trkpt><trkpt lat="44.591653307278285" lon="7.963756689278144"><ele>369.0</ele><time>2026-04-12T09:33:45Z</time></trkpt><trkpt lat="44.59174882837767" lon="7.963768189342953"><ele>368.0</ele><time>2026-04-12T09:33:46Z</time></trkpt><trkpt lat="44.591840116662674" lon="7.963791269727289"><ele>368.0</ele><time>2026-04-12T09:33:47Z</time></trkpt><trkpt lat="44.59193452425352" lon="7.963789612512471"><ele>368.0</ele><time>2026-04-12T09:33:48Z</time></trkpt><trkpt lat="44.59203805015327" lon="7.963752425871341"><ele>368.0</ele><time>2026-04-12T09:33:49Z</time></trkpt><trkpt lat="44.592141298091505" lon="7.963703374727251"><ele>368.0</ele><time>2026-04-12T09:33:50Z</time></trkpt><trkpt lat="44.5922463991301" lon="7.963636363065201"><ele>368.0</ele><time>2026-04-12T09:33:51Z</time></trkpt><trkpt lat="44.59234767989165" lon="7.963560416314262"><ele>367.0</ele><time>2026-04-12T09:33:52Z</time></trkpt><trkpt lat="44.59243982691925" lon="7.963493841688945"><ele>366.0</ele><time>2026-04-12T09:33:53Z</time></trkpt><trkpt lat="44.59256677090512" lon="7.963433359358811"><ele>365.0</ele><time>2026-04-12T09:33:54Z</time></trkpt><trkpt lat="44.5926710615287" lon="7.96335337265811"><ele>364.0</ele><time>2026-04-12T09:33:55Z</time></trkpt><trkpt lat="44.592775838219424" lon="7.963253376231447"><ele>361.25</ele><time>2026-04-12T09:33:56Z</time></trkpt><trkpt lat="44.59287596966914" lon="7.96314494999405"><ele>358.5</ele><time>2026-04-12T09:33:57Z</time></trkpt><trkpt lat="44.592977550236164" lon="7.963052505812339"><ele>355.75</ele><time>2026-04-12T09:33:58Z</time></trkpt><trkpt lat="44.59308260333703" lon="7.96301286347695"><ele>353.0</ele><time>2026-04-12T09:33:59Z</time></trkpt><trkpt lat="44.5931836049501" lon="7.962999651076631"><ele>353.0</ele><time>2026-04-12T09:34:00Z</time></trkpt><trkpt lat="44.59328861920177" lon="7.9629813241422145"><ele>353.0</ele><time>2026-04-12T09:34:01Z</time></trkpt><trkpt lat="44.59338707210622" lon="7.9629526706719735"><ele>353.0</ele><time>2026-04-12T09:34:02Z</time></trkpt><trkpt lat="44.59348929196351" lon="7.962938524888641"><ele>353.0</ele><time>2026-04-12T09:34:03Z</time></trkpt><trkpt lat="44.59359658305767" lon="7.962914700738939"><ele>353.0</ele><time>2026-04-12T09:34:04Z</time></trkpt><trkpt lat="44.59371205699332" lon="7.962902247493913"><ele>352.5</ele><time>2026-04-12T09:34:05Z</time></trkpt><trkpt lat="44.593826737397656" lon="7.96289324448173"><ele>352.0</ele><time>2026-04-12T09:34:06Z</time></trkpt><trkpt lat="44.593947706612724" lon="7.96288000740264"><ele>351.5</ele><time>2026-04-12T09:34:07Z</time></trkpt><trkpt lat="44.59406654161552" lon="7.962845219568176"><ele>351.0</ele><time>2026-04-12T09:34:08Z</time></trkpt><trkpt lat="44.594197074177146" lon="7.962830254932119"><ele>351.0</ele><time>2026-04-12T09:34:09Z</time></trkpt><trkpt lat="44.59429973977368" lon="7.962759658415165"><ele>351.0</ele><time>2026-04-12T09:34:10Z</time></trkpt><trkpt lat="44.59440102502128" lon="7.962698152857197"><ele>351.0</ele><time>2026-04-12T09:34:11Z</time></trkpt><trkpt lat="44.59449916418727" lon="7.962649686156037"><ele>351.0</ele><time>2026-04-12T09:34:12Z</time></trkpt><trkpt lat="44.59459593462234" lon="7.962601432627328"><ele>351.0</ele><time>2026-04-12T09:34:13Z</time></trkpt><trkpt lat="44.59468497263317" lon="7.962548570495214"><ele>349.0</ele><time>2026-04-12T09:34:14Z</time></trkpt><trkpt lat="44.59477674737458" lon="7.962500779611173"><ele>347.0</ele><time>2026-04-12T09:34:15Z</time></trkpt><trkpt lat="44.59486836028626" lon="7.962458988395226"><ele>345.0</ele><time>2026-04-12T09:34:16Z</time></trkpt><trkpt lat="44.594959874836654" lon="7.962417638310972"><ele>343.0</ele><time>2026-04-12T09:34:17Z</time></trkpt><trkpt lat="44.59505284544091" lon="7.962378436189116"><ele>341.0</ele><time>2026-04-12T09:34:18Z</time></trkpt><trkpt lat="44.595146683598536" lon="7.9623347009590955"><ele>341.0</ele><time>2026-04-12T09:34:19Z</time></trkpt><trkpt lat="44.595231228352" lon="7.962295398293649"><ele>341.0</ele><time>2026-04-12T09:34:20Z</time></trkpt><trkpt lat="44.5953070497021" lon="7.962265481404654"><ele>341.0</ele><time>2026-04-12T09:34:21Z</time></trkpt><trkpt lat="44.595378826808464" lon="7.962251993139396"><ele>341.0</ele><time>2026-04-12T09:34:22Z</time></trkpt><trkpt lat="44.59544543280885" lon="7.962302032072115"><ele>341.0</ele><time>2026-04-12T09:34:23Z</time></trkpt><trkpt lat="44.59551321317003" lon="7.962323163580483"><ele>341.0</ele><time>2026-04-12T09:34:24Z</time></trkpt><trkpt lat="44.59558293365589" lon="7.962348586523036"><ele>341.0</ele><time>2026-04-12T09:34:25Z</time></trkpt><trkpt lat="44.59565506540064" lon="7.962385042207717"><ele>341.0</ele><time>2026-04-12T09:34:26Z</time></trkpt><trkpt lat="44.595720902521016" lon="7.962454545072332"><ele>341.0</ele><time>2026-04-12T09:34:27Z</time></trkpt><trkpt lat="44.5957629939044" lon="7.962554849415521"><ele>341.0</ele><time>2026-04-12T09:34:28Z</time></trkpt><trkpt lat="44.59581980176402" lon="7.962649054364679"><ele>341.0</ele><time>2026-04-12T09:34:29Z</time></trkpt><trkpt lat="44.5958683116746" lon="7.962729500328216"><ele>341.0</ele><time>2026-04-12T09:34:30Z</time></trkpt><trkpt lat="44.595983825621765" lon="7.962726262501973"><ele>341.0</ele><time>2026-04-12T09:34:32Z</time></trkpt><trkpt lat="44.596030773280745" lon="7.962651269337671"><ele>341.0</ele><time>2026-04-12T09:34:34Z</time></trkpt><trkpt lat="44.59606991475012" lon="7.9625678410543825"><ele>341.0</ele><time>2026-04-12T09:34:36Z</time></trkpt><trkpt lat="44.596082119176664" lon="7.962472067330536"><ele>341.0</ele><time>2026-04-12T09:34:38Z</time></trkpt><trkpt lat="44.59609946026775" lon="7.9623405919535575"><ele>341.0</ele><time>2026-04-12T09:34:41Z</time></trkpt><trkpt lat="44.59609505068973" lon="7.962213692562275"><ele>341.0</ele><time>2026-04-12T09:34:44Z</time></trkpt><trkpt lat="44.59609032521043" lon="7.962085938059367"><ele>340.6666666666667</ele><time>2026-04-12T09:34:47Z</time></trkpt><trkpt lat="44.59608826571635" lon="7.961954066152934"><ele>340.33333333333337</ele><time>2026-04-12T09:34:50Z</time></trkpt><trkpt lat="44.5961026586849" lon="7.9618552982093105"><ele>340.0</ele><time>2026-04-12T09:34:52Z</time></trkpt><trkpt lat="44.59613645324235" lon="7.961758515777906"><ele>339.6666666666667</ele><time>2026-04-12T09:34:54Z</time></trkpt><trkpt lat="44.59618667005796" lon="7.961669317087222"><ele>339.3333333333333</ele><time>2026-04-12T09:34:56Z</time></trkpt><trkpt lat="44.596246649768396" lon="7.961586734792392"><ele>339.0</ele><time>2026-04-12T09:34:58Z</time></trkpt><trkpt lat="44.596313106046104" lon="7.96151493861086"><ele>339.0</ele><time>2026-04-12T09:35:00Z</time></trkpt><trkpt lat="44.596377596157424" lon="7.961442527214846"><ele>339.0</ele><time>2026-04-12T09:35:02Z</time></trkpt><trkpt lat="44.59644907039962" lon="7.961379840736624"><ele>339.0</ele><time>2026-04-12T09:35:04Z</time></trkpt><trkpt lat="44.59652213721103" lon="7.961299708048603"><ele>339.0</ele><time>2026-04-12T09:35:06Z</time></trkpt><trkpt lat="44.59658328665058" lon="7.961235456009709"><ele>339.0</ele><time>2026-04-12T09:35:08Z</time></trkpt><trkpt lat="44.596635899473256" lon="7.961180166246397"><ele>339.0</ele><time>2026-04-12T09:35:10Z</time></trkpt><trkpt lat="44.59668843199062" lon="7.961115166675213"><ele>339.0</ele><time>2026-04-12T09:35:12Z</time></trkpt><trkpt lat="44.596759757995954" lon="7.961021209651552"><ele>339.0</ele><time>2026-04-12T09:35:15Z</time></trkpt><trkpt lat="44.59682490926921" lon="7.960964393583824"><ele>339.0</ele><time>2026-04-12T09:35:17Z</time></trkpt><trkpt lat="44.59690369438116" lon="7.960917577386927"><ele>339.0</ele><time>2026-04-12T09:35:19Z</time></trkpt><trkpt lat="44.596985239932714" lon="7.960862104566442"><ele>339.0</ele><time>2026-04-12T09:35:22Z</time></trkpt><trkpt lat="44.597052689090496" lon="7.960816821887026"><ele>339.0</ele><time>2026-04-12T09:35:26Z</time></trkpt><trkpt lat="44.59711876063804" lon="7.960778403752422"><ele>338.2857142857143</ele><time>2026-04-12T09:35:31Z</time></trkpt><trkpt lat="44.59719141397259" lon="7.96073210427485"><ele>337.5714285714286</ele><time>2026-04-12T09:35:35Z</time></trkpt><trkpt lat="44.597250461296476" lon="7.960694475443671"><ele>336.8571428571429</ele><time>2026-04-12T09:35:37Z</time></trkpt><trkpt lat="44.597309280932045" lon="7.960653688065676"><ele>336.1428571428571</ele><time>2026-04-12T09:35:39Z</time></trkpt><trkpt lat="44.59738660814967" lon="7.960652024461881"><ele>335.42857142857144</ele><time>2026-04-12T09:35:41Z</time></trkpt><trkpt lat="44.597459008918" lon="7.960655135469084"><ele>334.7142857142857</ele><time>2026-04-12T09:35:43Z</time></trkpt><trkpt lat="44.59754271566938" lon="7.960651345479391"><ele>334.0</ele><time>2026-04-12T09:35:45Z</time></trkpt><trkpt lat="44.597624038670816" lon="7.9606430305201386"><ele>334.0</ele><time>2026-04-12T09:35:47Z</time></trkpt><trkpt lat="44.5977035143349" lon="7.960629086712885"><ele>334.0</ele><time>2026-04-12T09:35:49Z</time></trkpt><trkpt lat="44.597778678992064" lon="7.9606072338352565"><ele>334.0</ele><time>2026-04-12T09:35:51Z</time></trkpt><trkpt lat="44.597842657419655" lon="7.96057685771582"><ele>334.0</ele><time>2026-04-12T09:35:53Z</time></trkpt><trkpt lat="44.5979180411887" lon="7.9605543801190475"><ele>334.0</ele><time>2026-04-12T09:35:56Z</time></trkpt><trkpt lat="44.59799282363646" lon="7.960531740632091"><ele>334.0</ele><time>2026-04-12T09:35:59Z</time></trkpt><trkpt lat="44.5980680307751" lon="7.960551701361297"><ele>333.8333333333333</ele><time>2026-04-12T09:36:02Z</time></trkpt><trkpt lat="44.598156089975895" lon="7.960584717241539"><ele>333.66666666666663</ele><time>2026-04-12T09:36:05Z</time></trkpt><trkpt lat="44.5982263608753" lon="7.960619754676347"><ele>333.5</ele><time>2026-04-12T09:36:07Z</time></trkpt><trkpt lat="44.59829118792232" lon="7.960655869758853"><ele>333.3333333333333</ele><time>2026-04-12T09:36:09Z</time></trkpt><trkpt lat="44.598350882515184" lon="7.96069414625301"><ele>333.1666666666667</ele><time>2026-04-12T09:36:11Z</time></trkpt><trkpt lat="44.59842179700434" lon="7.960706254857183"><ele>333.0</ele><time>2026-04-12T09:36:13Z</time></trkpt><trkpt lat="44.598509256746176" lon="7.960676843544342"><ele>333.0</ele><time>2026-04-12T09:36:16Z</time></trkpt><trkpt lat="44.59856535046018" lon="7.960630255194588"><ele>333.0</ele><time>2026-04-12T09:36:18Z</time></trkpt><trkpt lat="44.59861671366775" lon="7.960578593577115"><ele>333.0</ele><time>2026-04-12T09:36:20Z</time></trkpt><trkpt lat="44.5986873191479" lon="7.9605156217832835"><ele>333.0</ele><time>2026-04-12T09:36:23Z</time></trkpt><trkpt lat="44.598743927764154" lon="7.960445448812876"><ele>333.0</ele><time>2026-04-12T09:36:26Z</time></trkpt><trkpt lat="44.59877028788387" lon="7.960337587219811"><ele>333.0</ele><time>2026-04-12T09:36:29Z</time></trkpt><trkpt lat="44.598790852415824" lon="7.960230458565746"><ele>333.0</ele><time>2026-04-12T09:36:32Z</time></trkpt><trkpt lat="44.59880731229603" lon="7.960129679549257"><ele>331.3333333333333</ele><time>2026-04-12T09:36:35Z</time></trkpt><trkpt lat="44.598824202545636" lon="7.960024165606519"><ele>329.6666666666667</ele><time>2026-04-12T09:36:38Z</time></trkpt><trkpt lat="44.59883736281384" lon="7.9599126501906445"><ele>328.0</ele><time>2026-04-12T09:36:42Z</time></trkpt><trkpt lat="44.59884440204212" lon="7.959811260598811"><ele>326.33333333333337</ele><time>2026-04-12T09:36:45Z</time></trkpt><trkpt lat="44.59886190066972" lon="7.959703427345243"><ele>324.6666666666667</ele><time>2026-04-12T09:36:48Z</time></trkpt><trkpt lat="44.59887527351186" lon="7.9595840018471264"><ele>323.0</ele><time>2026-04-12T09:36:51Z</time></trkpt><trkpt lat="44.59888958312629" lon="7.959452520827149"><ele>323.0</ele><time>2026-04-12T09:36:54Z</time></trkpt><trkpt lat="44.59889944088982" lon="7.959326811331585"><ele>323.0</ele><time>2026-04-12T09:36:57Z</time></trkpt><trkpt lat="44.598903295816925" lon="7.959212073435688"><ele>323.0</ele><time>2026-04-12T09:37:00Z</time></trkpt><trkpt lat="44.59890926550629" lon="7.959123245281833"><ele>323.0</ele><time>2026-04-12T09:37:03Z</time></trkpt><trkpt lat="44.59894414973029" lon="7.959012684205107"><ele>323.0</ele><time>2026-04-12T09:37:06Z</time></trkpt><trkpt lat="44.59899493255796" lon="7.958936205968795"><ele>323.0</ele><time>2026-04-12T09:37:09Z</time></trkpt><trkpt lat="44.59904267420376" lon="7.9588321357854275"><ele>322.14285714285717</ele><time>2026-04-12T09:37:12Z</time></trkpt><trkpt lat="44.59903649337317" lon="7.958710216050164"><ele>321.2857142857143</ele><time>2026-04-12T09:37:15Z</time></trkpt><trkpt lat="44.599048446364485" lon="7.958595301172329"><ele>320.42857142857144</ele><time>2026-04-12T09:37:18Z</time></trkpt><trkpt lat="44.59905987547706" lon="7.958503153569577"><ele>319.57142857142856</ele><time>2026-04-12T09:37:20Z</time></trkpt><trkpt lat="44.599073846918536" lon="7.958416459844835"><ele>318.7142857142857</ele><time>2026-04-12T09:37:22Z</time></trkpt><trkpt lat="44.59909749670604" lon="7.958325062347774"><ele>317.8571428571429</ele><time>2026-04-12T09:37:24Z</time></trkpt><trkpt lat="44.599128147633024" lon="7.958233764272025"><ele>317.0</ele><time>2026-04-12T09:37:26Z</time></trkpt><trkpt lat="44.59917142691831" lon="7.958150352393275"><ele>317.42857142857144</ele><time>2026-04-12T09:37:28Z</time></trkpt><trkpt lat="44.59921879980608" lon="7.9580753153391015"><ele>317.85714285714283</ele><time>2026-04-12T09:37:30Z</time></trkpt><trkpt lat="44.59927415079867" lon="7.958016055389509"><ele>318.2857142857143</ele><time>2026-04-12T09:37:32Z</time></trkpt><trkpt lat="44.599330267619536" lon="7.957955028180924"><ele>318.7142857142857</ele><time>2026-04-12T09:37:34Z</time></trkpt><trkpt lat="44.599385735229994" lon="7.957885579815638"><ele>319.14285714285717</ele><time>2026-04-12T09:37:36Z</time></trkpt><trkpt lat="44.599434799985204" lon="7.957824799878055"><ele>319.57142857142856</ele><time>2026-04-12T09:37:38Z</time></trkpt><trkpt lat="44.599491918935" lon="7.957755653766279"><ele>320.0</ele><time>2026-04-12T09:37:41Z</time></trkpt><trkpt lat="44.59953319829066" lon="7.957688523577139"><ele>320.0</ele><time>2026-04-12T09:37:43Z</time></trkpt><trkpt lat="44.599583236775864" lon="7.957627197582426"><ele>320.0</ele><time>2026-04-12T09:37:45Z</time></trkpt><trkpt lat="44.599636771322054" lon="7.957565422096387"><ele>320.0</ele><time>2026-04-12T09:37:47Z</time></trkpt><trkpt lat="44.599689684625034" lon="7.957490544863176"><ele>320.0</ele><time>2026-04-12T09:37:49Z</time></trkpt><trkpt lat="44.59974819287039" lon="7.957410331559965"><ele>320.0</ele><time>2026-04-12T09:37:51Z</time></trkpt><trkpt lat="44.59982588668418" lon="7.957320690678654"><ele>320.0</ele><time>2026-04-12T09:37:53Z</time></trkpt><trkpt lat="44.599874775475314" lon="7.957233767292208"><ele>318.5</ele><time>2026-04-12T09:37:55Z</time></trkpt><trkpt lat="44.59993828402523" lon="7.95715440141812"><ele>317.0</ele><time>2026-04-12T09:37:58Z</time></trkpt><trkpt lat="44.60000642434182" lon="7.9570733446861395"><ele>315.5</ele><time>2026-04-12T09:38:01Z</time></trkpt><trkpt lat="44.60007365000199" lon="7.956990037381124"><ele>314.0</ele><time>2026-04-12T09:38:04Z</time></trkpt><trkpt lat="44.600122500291086" lon="7.956920596907664"><ele>312.5</ele><time>2026-04-12T09:38:06Z</time></trkpt><trkpt lat="44.60017789629932" lon="7.956860093597267"><ele>311.0</ele><time>2026-04-12T09:38:08Z</time></trkpt><trkpt lat="44.600248371964675" lon="7.956775390715"><ele>310.1666666666667</ele><time>2026-04-12T09:38:11Z</time></trkpt><trkpt lat="44.60033543191066" lon="7.956716890470745"><ele>309.33333333333337</ele><time>2026-04-12T09:38:14Z</time></trkpt><trkpt lat="44.600409217278745" lon="7.956676674069463"><ele>308.5</ele><time>2026-04-12T09:38:16Z</time></trkpt><trkpt lat="44.600485590420256" lon="7.956635097179131"><ele>307.6666666666667</ele><time>2026-04-12T09:38:18Z</time></trkpt><trkpt lat="44.600556350523235" lon="7.956592602723034"><ele>306.8333333333333</ele><time>2026-04-12T09:38:20Z</time></trkpt><trkpt lat="44.60063049438586" lon="7.956555749863502"><ele>306.0</ele><time>2026-04-12T09:38:22Z</time></trkpt><trkpt lat="44.60069945260474" lon="7.956515743930386"><ele>306.0</ele><time>2026-04-12T09:38:24Z</time></trkpt><trkpt lat="44.60076463061985" lon="7.956482235722222"><ele>306.0</ele><time>2026-04-12T09:38:26Z</time></trkpt><trkpt lat="44.60083117370075" lon="7.956442601519083"><ele>306.0</ele><time>2026-04-12T09:38:28Z</time></trkpt><trkpt lat="44.60090329461852" lon="7.95640343987112"><ele>306.0</ele><time>2026-04-12T09:38:30Z</time></trkpt><trkpt lat="44.60097637623106" lon="7.956369362558934"><ele>306.0</ele><time>2026-04-12T09:38:32Z</time></trkpt><trkpt lat="44.60105081593062" lon="7.956337217975575"><ele>306.0</ele><time>2026-04-12T09:38:34Z</time></trkpt><trkpt lat="44.60112298919705" lon="7.956309559849069"><ele>306.0</ele><time>2026-04-12T09:38:36Z</time></trkpt><trkpt lat="44.6011892628943" lon="7.956276396125055"><ele>305.0</ele><time>2026-04-12T09:38:38Z</time></trkpt><trkpt lat="44.601257033347736" lon="7.956241490238095"><ele>304.0</ele><time>2026-04-12T09:38:40Z</time></trkpt><trkpt lat="44.60133001030892" lon="7.956197358040665"><ele>303.0</ele><time>2026-04-12T09:38:42Z</time></trkpt><trkpt lat="44.60141805391535" lon="7.956173880247222"><ele>302.0</ele><time>2026-04-12T09:38:44Z</time></trkpt><trkpt lat="44.60149317640135" lon="7.956148371545736"><ele>301.0</ele><time>2026-04-12T09:38:46Z</time></trkpt><trkpt lat="44.60156115426709" lon="7.956118809956977"><ele>300.0</ele><time>2026-04-12T09:38:48Z</time></trkpt><trkpt lat="44.6016354130706" lon="7.956098301866672"><ele>300.0</ele><time>2026-04-12T09:38:50Z</time></trkpt><trkpt lat="44.6017170018663" lon="7.956088180411365"><ele>300.0</ele><time>2026-04-12T09:38:52Z</time></trkpt><trkpt lat="44.60178292617192" lon="7.956074130641567"><ele>300.0</ele><time>2026-04-12T09:38:54Z</time></trkpt><trkpt lat="44.60184963085551" lon="7.956058526860517"><ele>300.0</ele><time>2026-04-12T09:38:59Z</time></trkpt><trkpt lat="44.60205503525184" lon="7.955597244934392"><ele>297.5</ele><time>2026-04-12T09:39:24Z</time></trkpt><trkpt lat="44.60210349583701" lon="7.955501471068446"><ele>295.0</ele><time>2026-04-12T09:39:26Z</time></trkpt><trkpt lat="44.602152916125206" lon="7.955413943182929"><ele>292.5</ele><time>2026-04-12T09:39:28Z</time></trkpt><trkpt lat="44.602205694777574" lon="7.955334046863594"><ele>290.0</ele><time>2026-04-12T09:39:30Z</time></trkpt><trkpt lat="44.60226913916414" lon="7.955251611536678"><ele>287.5</ele><time>2026-04-12T09:39:33Z</time></trkpt><trkpt lat="44.602313600339706" lon="7.955180833824842"><ele>285.0</ele><time>2026-04-12T09:39:35Z</time></trkpt><trkpt lat="44.602374214479326" lon="7.955096524570187"><ele>285.0</ele><time>2026-04-12T09:39:38Z</time></trkpt><trkpt lat="44.602430873559605" lon="7.955051945576141"><ele>285.0</ele><time>2026-04-12T09:39:40Z</time></trkpt><trkpt lat="44.60251295369694" lon="7.9550814415181925"><ele>285.0</ele><time>2026-04-12T09:39:42Z</time></trkpt><trkpt lat="44.60259798702578" lon="7.955081158893125"><ele>285.0</ele><time>2026-04-12T09:39:44Z</time></trkpt><trkpt lat="44.6026737132058" lon="7.954940469733311"><ele>285.0</ele><time>2026-04-12T09:39:46Z</time></trkpt><trkpt lat="44.602704118079124" lon="7.954821905396282"><ele>284.5</ele><time>2026-04-12T09:39:47Z</time></trkpt><trkpt lat="44.602736137812016" lon="7.954684488203899"><ele>284.0</ele><time>2026-04-12T09:39:48Z</time></trkpt><trkpt lat="44.60282696588826" lon="7.954725185186008"><ele>283.5</ele><time>2026-04-12T09:39:49Z</time></trkpt><trkpt lat="44.602883762228984" lon="7.954647418799799"><ele>283.0</ele><time>2026-04-12T09:39:50Z</time></trkpt><trkpt lat="44.60293471957432" lon="7.9545711791935805"><ele>282.5</ele><time>2026-04-12T09:39:51Z</time></trkpt><trkpt lat="44.60298422401778" lon="7.95449824969267"><ele>282.0</ele><time>2026-04-12T09:39:52Z</time></trkpt><trkpt lat="44.60302222208447" lon="7.954424974297766"><ele>282.0</ele><time>2026-04-12T09:39:53Z</time></trkpt><trkpt lat="44.60310063485814" lon="7.954327133547206"><ele>282.0</ele><time>2026-04-12T09:39:55Z</time></trkpt><trkpt lat="44.60318440002505" lon="7.954259798150367"><ele>282.0</ele><time>2026-04-12T09:39:57Z</time></trkpt><trkpt lat="44.60327564746759" lon="7.954229565727734"><ele>282.0</ele><time>2026-04-12T09:39:59Z</time></trkpt><trkpt lat="44.60336020509853" lon="7.954175700272497"><ele>282.0</ele><time>2026-04-12T09:40:01Z</time></trkpt><trkpt lat="44.603441213120554" lon="7.9541340316504385"><ele>281.0</ele><time>2026-04-12T09:40:03Z</time></trkpt><trkpt lat="44.60351396256162" lon="7.954061238756252"><ele>280.0</ele><time>2026-04-12T09:40:05Z</time></trkpt><trkpt lat="44.60358387936033" lon="7.9539645537829555"><ele>279.0</ele><time>2026-04-12T09:40:07Z</time></trkpt><trkpt lat="44.60362424391446" lon="7.953818333977886"><ele>278.0</ele><time>2026-04-12T09:40:09Z</time></trkpt><trkpt lat="44.60362736074826" lon="7.953719106377491"><ele>277.0</ele><time>2026-04-12T09:40:10Z</time></trkpt><trkpt lat="44.60364839230324" lon="7.953617776173928"><ele>276.0</ele><time>2026-04-12T09:40:11Z</time></trkpt><trkpt lat="44.60367259595823" lon="7.953528246187697"><ele>275.8333333333333</ele><time>2026-04-12T09:40:12Z</time></trkpt><trkpt lat="44.60371181037767" lon="7.95341286670277"><ele>275.6666666666667</ele><time>2026-04-12T09:40:14Z</time></trkpt><trkpt lat="44.6037392862688" lon="7.953320719653475"><ele>275.5</ele><time>2026-04-12T09:40:17Z</time></trkpt><trkpt lat="44.60377802014337" lon="7.953246394401766"><ele>275.33333333333337</ele><time>2026-04-12T09:40:19Z</time></trkpt><trkpt lat="44.60385071970359" lon="7.9531655324511785"><ele>275.1666666666667</ele><time>2026-04-12T09:40:21Z</time></trkpt><trkpt lat="44.60394944958748" lon="7.953267002867832"><ele>275.0</ele><time>2026-04-12T09:40:22Z</time></trkpt><trkpt lat="44.60400863570913" lon="7.9531953961427835"><ele>274.2</ele><time>2026-04-12T09:40:24Z</time></trkpt><trkpt lat="44.604118271566456" lon="7.953201754062716"><ele>273.4</ele><time>2026-04-12T09:40:26Z</time></trkpt><trkpt lat="44.60422100543286" lon="7.953178314395639"><ele>272.6</ele><time>2026-04-12T09:40:28Z</time></trkpt><trkpt lat="44.604332451534425" lon="7.953163550650312"><ele>271.8</ele><time>2026-04-12T09:40:30Z</time></trkpt><trkpt lat="44.60444862584312" lon="7.953129089740803"><ele>271.0</ele><time>2026-04-12T09:40:32Z</time></trkpt><trkpt lat="44.6045487772371" lon="7.953054587324412"><ele>270.40000000000003</ele><time>2026-04-12T09:40:34Z</time></trkpt><trkpt lat="44.60466443839552" lon="7.95299685619402"><ele>269.8</ele><time>2026-04-12T09:40:36Z</time></trkpt><trkpt lat="44.60472744024104" lon="7.952990844053806"><ele>269.20000000000005</ele><time>2026-04-12T09:40:37Z</time></trkpt><trkpt lat="44.60484496379697" lon="7.952953564695071"><ele>268.6</ele><time>2026-04-12T09:40:39Z</time></trkpt><trkpt lat="44.604966010985585" lon="7.952941660162277"><ele>268.0</ele><time>2026-04-12T09:40:41Z</time></trkpt><trkpt lat="44.60507977344211" lon="7.952947426530613"><ele>268.0</ele><time>2026-04-12T09:40:43Z</time></trkpt><trkpt lat="44.605157195901775" lon="7.952960596287149"><ele>268.0</ele><time>2026-04-12T09:40:44Z</time></trkpt><trkpt lat="44.60523081710902" lon="7.952941641072486"><ele>268.0</ele><time>2026-04-12T09:40:46Z</time></trkpt><trkpt lat="44.60532033091081" lon="7.952907216771213"><ele>268.0</ele><time>2026-04-12T09:40:48Z</time></trkpt><trkpt lat="44.60536971388085" lon="7.95282453897295"><ele>268.0</ele><time>2026-04-12T09:40:52Z</time></trkpt><trkpt lat="44.60533898648664" lon="7.952716685636754"><ele>268.0</ele><time>2026-04-12T09:40:57Z</time></trkpt><trkpt lat="44.605321898124146" lon="7.952631082012394"><ele>268.0</ele><time>2026-04-12T09:41:01Z</time></trkpt><trkpt lat="44.605326298837205" lon="7.95254269069019"><ele>268.0</ele><time>2026-04-12T09:41:06Z</time></trkpt><trkpt lat="44.60536559384225" lon="7.952448255571795"><ele>268.0</ele><time>2026-04-12T09:41:10Z</time></trkpt><trkpt lat="44.60540226564514" lon="7.952371990347464"><ele>268.0</ele><time>2026-04-12T09:41:13Z</time></trkpt><trkpt lat="44.60544301611726" lon="7.952291990740523"><ele>268.0</ele><time>2026-04-12T09:41:16Z</time></trkpt><trkpt lat="44.60549226667258" lon="7.952208168666868"><ele>268.0</ele><time>2026-04-12T09:41:19Z</time></trkpt><trkpt lat="44.60553714284316" lon="7.952142023311031"><ele>268.0</ele><time>2026-04-12T09:41:21Z</time></trkpt><trkpt lat="44.605580737214964" lon="7.952064952718504"><ele>267.0</ele><time>2026-04-12T09:41:23Z</time></trkpt><trkpt lat="44.605636640156234" lon="7.9520214470707105"><ele>266.0</ele><time>2026-04-12T09:41:25Z</time></trkpt><trkpt lat="44.605715744368716" lon="7.951999586251714"><ele>265.0</ele><time>2026-04-12T09:41:27Z</time></trkpt><trkpt lat="44.605814121574745" lon="7.951972716272995"><ele>264.0</ele><time>2026-04-12T09:41:29Z</time></trkpt><trkpt lat="44.60591962918973" lon="7.951890961575296"><ele>263.0</ele><time>2026-04-12T09:41:31Z</time></trkpt><trkpt lat="44.60601365168186" lon="7.951795113097848"><ele>263.0</ele><time>2026-04-12T09:41:33Z</time></trkpt><trkpt lat="44.60610237248747" lon="7.951678859040915"><ele>263.0</ele><time>2026-04-12T09:41:35Z</time></trkpt><trkpt lat="44.60618663619812" lon="7.951579736132859"><ele>263.0</ele><time>2026-04-12T09:41:37Z</time></trkpt><trkpt lat="44.606268644087905" lon="7.951488404238311"><ele>263.0</ele><time>2026-04-12T09:41:39Z</time></trkpt><trkpt lat="44.606355944769454" lon="7.951394616079824"><ele>263.0</ele><time>2026-04-12T09:41:41Z</time></trkpt><trkpt lat="44.606438425411696" lon="7.951312430827774"><ele>262.6666666666667</ele><time>2026-04-12T09:41:43Z</time></trkpt><trkpt lat="44.6065153116969" lon="7.951241465207484"><ele>262.33333333333337</ele><time>2026-04-12T09:41:45Z</time></trkpt><trkpt lat="44.60658097652781" lon="7.951180849536551"><ele>262.0</ele><time>2026-04-12T09:41:47Z</time></trkpt><trkpt lat="44.60665592675741" lon="7.951189401467117"><ele>261.6666666666667</ele><time>2026-04-12T09:41:49Z</time></trkpt><trkpt lat="44.60672916646018" lon="7.951261409401177"><ele>261.3333333333333</ele><time>2026-04-12T09:41:51Z</time></trkpt><trkpt lat="44.606813586759735" lon="7.951328414173812"><ele>261.0</ele><time>2026-04-12T09:41:53Z</time></trkpt><trkpt lat="44.60692516601232" lon="7.951354641430051"><ele>260.8</ele><time>2026-04-12T09:41:55Z</time></trkpt><trkpt lat="44.60703033538715" lon="7.951321253811785"><ele>260.6</ele><time>2026-04-12T09:41:57Z</time></trkpt><trkpt lat="44.60713077466691" lon="7.951273713223043"><ele>260.4</ele><time>2026-04-12T09:41:59Z</time></trkpt><trkpt lat="44.60722791152824" lon="7.951226365303873"><ele>260.2</ele><time>2026-04-12T09:42:01Z</time></trkpt><trkpt lat="44.60731261454588" lon="7.951152458844918"><ele>260.0</ele><time>2026-04-12T09:42:03Z</time></trkpt><trkpt lat="44.60740171510241" lon="7.951090328315785"><ele>260.0</ele><time>2026-04-12T09:42:05Z</time></trkpt><trkpt lat="44.607500817226494" lon="7.951029176454283"><ele>260.0</ele><time>2026-04-12T09:42:07Z</time></trkpt><trkpt lat="44.60761219577431" lon="7.950987790846307"><ele>260.0</ele><time>2026-04-12T09:42:09Z</time></trkpt><trkpt lat="44.60772265057356" lon="7.9509535903737385"><ele>260.0</ele><time>2026-04-12T09:42:11Z</time></trkpt><trkpt lat="44.60783773745845" lon="7.950926704053018"><ele>259.6</ele><time>2026-04-12T09:42:13Z</time></trkpt><trkpt lat="44.60795904467951" lon="7.950901229106532"><ele>259.2</ele><time>2026-04-12T09:42:15Z</time></trkpt><trkpt lat="44.60808187561461" lon="7.950892791557851"><ele>258.8</ele><time>2026-04-12T09:42:17Z</time></trkpt><trkpt lat="44.60820111348941" lon="7.950890893531342"><ele>258.4</ele><time>2026-04-12T09:42:19Z</time></trkpt><trkpt lat="44.608264975209906" lon="7.9508925127039065"><ele>258.0</ele><time>2026-04-12T09:42:20Z</time></trkpt><trkpt lat="44.60839562063944" lon="7.950897485844818"><ele>257.1666666666667</ele><time>2026-04-12T09:42:22Z</time></trkpt><trkpt lat="44.60852250405612" lon="7.950870445781721"><ele>256.3333333333333</ele><time>2026-04-12T09:42:24Z</time></trkpt><trkpt lat="44.60859232147575" lon="7.950855794749482"><ele>255.5</ele><time>2026-04-12T09:42:25Z</time></trkpt><trkpt lat="44.60866033635398" lon="7.950841288998702"><ele>254.66666666666666</ele><time>2026-04-12T09:42:26Z</time></trkpt><trkpt lat="44.60872918127802" lon="7.950858754233828"><ele>253.83333333333331</ele><time>2026-04-12T09:42:27Z</time></trkpt><trkpt lat="44.608798132223356" lon="7.950837996175585"><ele>253.0</ele><time>2026-04-12T09:42:28Z</time></trkpt><trkpt lat="44.6088668079195" lon="7.950834589586771"><ele>252.5714285714286</ele><time>2026-04-12T09:42:29Z</time></trkpt><trkpt lat="44.608935135225025" lon="7.950843332094185"><ele>252.14285714285717</ele><time>2026-04-12T09:42:30Z</time></trkpt><trkpt lat="44.6090037240855" lon="7.950845279521043"><ele>251.71428571428572</ele><time>2026-04-12T09:42:31Z</time></trkpt><trkpt lat="44.609070267940666" lon="7.9508346400585905"><ele>251.2857142857143</ele><time>2026-04-12T09:42:32Z</time></trkpt><trkpt lat="44.609138307120496" lon="7.950828692115126"><ele>250.8571428571429</ele><time>2026-04-12T09:42:33Z</time></trkpt><trkpt lat="44.60920464048264" lon="7.950824233201591"><ele>250.42857142857142</ele><time>2026-04-12T09:42:34Z</time></trkpt><trkpt lat="44.60927006152631" lon="7.950821264131208"><ele>250.0</ele><time>2026-04-12T09:42:35Z</time></trkpt><trkpt lat="44.60933460096031" lon="7.9508126112588675"><ele>249.99999999999997</ele><time>2026-04-12T09:42:36Z</time></trkpt><trkpt lat="44.60939837208223" lon="7.9508019051276975"><ele>250.0</ele><time>2026-04-12T09:42:37Z</time></trkpt><trkpt lat="44.60946141742277" lon="7.950786896710006"><ele>250.0</ele><time>2026-04-12T09:42:38Z</time></trkpt><trkpt lat="44.609526949945526" lon="7.9507766987321675"><ele>250.0</ele><time>2026-04-12T09:42:39Z</time></trkpt><trkpt lat="44.609589604467004" lon="7.950763822969666"><ele>249.99999999999997</ele><time>2026-04-12T09:42:40Z</time></trkpt><trkpt lat="44.609706858160536" lon="7.950726397865359"><ele>250.0</ele><time>2026-04-12T09:42:42Z</time></trkpt><trkpt lat="44.60982622060413" lon="7.950700585548105"><ele>249.4</ele><time>2026-04-12T09:42:44Z</time></trkpt><trkpt lat="44.60988950629757" lon="7.9506859571901005"><ele>248.8</ele><time>2026-04-12T09:42:45Z</time></trkpt><trkpt lat="44.60995469185249" lon="7.950677883511741"><ele>248.2</ele><time>2026-04-12T09:42:46Z</time></trkpt><trkpt lat="44.6100883650708" lon="7.950653452321206"><ele>247.6</ele><time>2026-04-12T09:42:48Z</time></trkpt><trkpt lat="44.610212097818206" lon="7.950638922786862"><ele>247.0</ele><time>2026-04-12T09:42:50Z</time></trkpt><trkpt lat="44.610335178273196" lon="7.950625493799123"><ele>246.66666666666666</ele><time>2026-04-12T09:42:52Z</time></trkpt><trkpt lat="44.610446515804604" lon="7.950590806699738"><ele>246.33333333333331</ele><time>2026-04-12T09:42:54Z</time></trkpt><trkpt lat="44.61051240279918" lon="7.950558949740773"><ele>246.0</ele><time>2026-04-12T09:42:55Z</time></trkpt><trkpt lat="44.61057072664416" lon="7.950524829188688"><ele>245.66666666666669</ele><time>2026-04-12T09:42:56Z</time></trkpt><trkpt lat="44.61064321731041" lon="7.950487592463034"><ele>245.33333333333334</ele><time>2026-04-12T09:42:57Z</time></trkpt><trkpt lat="44.61071663850536" lon="7.950458487780411"><ele>245.0</ele><time>2026-04-12T09:42:58Z</time></trkpt><trkpt lat="44.61079355972295" lon="7.950454883743131"><ele>245.00000000000003</ele><time>2026-04-12T09:42:59Z</time></trkpt><trkpt lat="44.61086772337469" lon="7.950415701438882"><ele>245.0</ele><time>2026-04-12T09:43:00Z</time></trkpt><trkpt lat="44.610944589923" lon="7.950418834475996"><ele>245.0</ele><time>2026-04-12T09:43:01Z</time></trkpt><trkpt lat="44.611022724235916" lon="7.950419027467572"><ele>245.0</ele><time>2026-04-12T09:43:02Z</time></trkpt><trkpt lat="44.61110022973169" lon="7.9504159918132595"><ele>245.00000000000003</ele><time>2026-04-12T09:43:03Z</time></trkpt><trkpt lat="44.61117836329096" lon="7.95041152004805"><ele>245.0</ele><time>2026-04-12T09:43:04Z</time></trkpt><trkpt lat="44.611251096249724" lon="7.95040734836006"><ele>244.50000000000003</ele><time>2026-04-12T09:43:05Z</time></trkpt><trkpt lat="44.61132597429241" lon="7.950383783255075"><ele>244.0</ele><time>2026-04-12T09:43:06Z</time></trkpt><trkpt lat="44.61139769998215" lon="7.950347169631781"><ele>243.5</ele><time>2026-04-12T09:43:07Z</time></trkpt><trkpt lat="44.611468236030525" lon="7.950291734313311"><ele>243.0</ele><time>2026-04-12T09:43:08Z</time></trkpt><trkpt lat="44.611542568648936" lon="7.950247305980575"><ele>242.50000000000003</ele><time>2026-04-12T09:43:09Z</time></trkpt><trkpt lat="44.611608976709" lon="7.950187508321018"><ele>242.0</ele><time>2026-04-12T09:43:10Z</time></trkpt><trkpt lat="44.61167292455473" lon="7.9501311603015345"><ele>242.00000000000003</ele><time>2026-04-12T09:43:11Z</time></trkpt><trkpt lat="44.61173752735109" lon="7.950088501156698"><ele>242.0</ele><time>2026-04-12T09:43:12Z</time></trkpt><trkpt lat="44.61180548313375" lon="7.950059083142764"><ele>242.0</ele><time>2026-04-12T09:43:13Z</time></trkpt><trkpt lat="44.61187155423512" lon="7.950053440095682"><ele>242.0</ele><time>2026-04-12T09:43:14Z</time></trkpt><trkpt lat="44.61193505451522" lon="7.950056089804764"><ele>242.00000000000003</ele><time>2026-04-12T09:43:15Z</time></trkpt><trkpt lat="44.612060758951145" lon="7.950055600170229"><ele>242.0</ele><time>2026-04-12T09:43:17Z</time></trkpt><trkpt lat="44.61217063237648" lon="7.950089690558576"><ele>241.8</ele><time>2026-04-12T09:43:19Z</time></trkpt><trkpt lat="44.612276236423455" lon="7.950120591734254"><ele>241.6</ele><time>2026-04-12T09:43:21Z</time></trkpt><trkpt lat="44.61237164546221" lon="7.950141489977757"><ele>241.40000000000003</ele><time>2026-04-12T09:43:23Z</time></trkpt><trkpt lat="44.612452506348724" lon="7.9501558684708975"><ele>241.20000000000002</ele><time>2026-04-12T09:43:25Z</time></trkpt><trkpt lat="44.612525216295005" lon="7.950163347216992"><ele>241.0</ele><time>2026-04-12T09:43:27Z</time></trkpt><trkpt lat="44.61261655204257" lon="7.9501829617777"><ele>241.0</ele><time>2026-04-12T09:43:30Z</time></trkpt><trkpt lat="44.612695811785954" lon="7.950166958057336"><ele>241.00000000000003</ele><time>2026-04-12T09:43:33Z</time></trkpt><trkpt lat="44.61276672541249" lon="7.95016678924008"><ele>241.0</ele><time>2026-04-12T09:43:36Z</time></trkpt><trkpt lat="44.61284163952145" lon="7.950152511301902"><ele>241.0</ele><time>2026-04-12T09:43:40Z</time></trkpt><trkpt lat="44.6129054166047" lon="7.950152557956706"><ele>241.00000000000003</ele><time>2026-04-12T09:43:43Z</time></trkpt><trkpt lat="44.61297743577911" lon="7.950148441988394"><ele>241.0</ele><time>2026-04-12T09:43:48Z</time></trkpt><trkpt lat="44.61304081530089" lon="7.950149488099734"><ele>241.0</ele><time>2026-04-12T09:43:52Z</time></trkpt><trkpt lat="44.61310747876223" lon="7.950147330953418"><ele>240.85714285714286</ele><time>2026-04-12T09:43:56Z</time></trkpt><trkpt lat="44.6131844016016" lon="7.950151724021274"><ele>240.71428571428572</ele><time>2026-04-12T09:44:00Z</time></trkpt><trkpt lat="44.61325749860195" lon="7.950163133032318"><ele>240.57142857142858</ele><time>2026-04-12T09:44:04Z</time></trkpt><trkpt lat="44.613325659813576" lon="7.950164944045515"><ele>240.42857142857144</ele><time>2026-04-12T09:44:08Z</time></trkpt><trkpt lat="44.61338932806779" lon="7.950182002531557"><ele>240.28571428571428</ele><time>2026-04-12T09:44:12Z</time></trkpt><trkpt lat="44.6134611348334" lon="7.9501862730747"><ele>240.14285714285717</ele><time>2026-04-12T09:44:16Z</time></trkpt><trkpt lat="44.61353449064458" lon="7.950171339205558"><ele>240.0</ele><time>2026-04-12T09:44:20Z</time></trkpt><trkpt lat="44.613599192335855" lon="7.950152112224056"><ele>240.0</ele><time>2026-04-12T09:44:24Z</time></trkpt><trkpt lat="44.61365442192546" lon="7.9500919031559585"><ele>240.0</ele><time>2026-04-12T09:44:28Z</time></trkpt><trkpt lat="44.61370297320353" lon="7.95003293353474"><ele>240.0</ele><time>2026-04-12T09:44:32Z</time></trkpt><trkpt lat="44.61372058693028" lon="7.949943360476304"><ele>240.0</ele><time>2026-04-12T09:44:36Z</time></trkpt><trkpt lat="44.61370298757997" lon="7.949853552535983"><ele>240.0</ele><time>2026-04-12T09:44:40Z</time></trkpt><trkpt lat="44.613678217921475" lon="7.94976554256585"><ele>240.0</ele><time>2026-04-12T09:44:44Z</time></trkpt><trkpt lat="44.61364659360198" lon="7.949673248142307"><ele>240.0</ele><time>2026-04-12T09:44:48Z</time></trkpt><trkpt lat="44.613601937721306" lon="7.949597468745157"><ele>242.28571428571428</ele><time>2026-04-12T09:44:53Z</time></trkpt><trkpt lat="44.6136017709552" lon="7.949501913962276"><ele>244.57142857142856</ele><time>2026-04-12T09:44:58Z</time></trkpt><trkpt lat="44.61356656401985" lon="7.949401605510048"><ele>246.85714285714283</ele><time>2026-04-12T09:45:05Z</time></trkpt><trkpt lat="44.61356882137645" lon="7.949307180508199"><ele>249.14285714285714</ele><time>2026-04-12T09:45:09Z</time></trkpt><trkpt lat="44.61356532866743" lon="7.949213830909673"><ele>251.4285714285714</ele><time>2026-04-12T09:45:12Z</time></trkpt><trkpt lat="44.61355570855469" lon="7.949115350334139"><ele>253.7142857142857</ele><time>2026-04-12T09:45:15Z</time></trkpt><trkpt lat="44.613538169510115" lon="7.949010045010862"><ele>256.0</ele><time>2026-04-12T09:45:18Z</time></trkpt><trkpt lat="44.61352680782501" lon="7.9488793851199615"><ele>255.83333333333331</ele><time>2026-04-12T09:45:21Z</time></trkpt><trkpt lat="44.61352150020913" lon="7.948781900326958"><ele>255.66666666666666</ele><time>2026-04-12T09:45:23Z</time></trkpt><trkpt lat="44.61350880106279" lon="7.948659251392465"><ele>255.5</ele><time>2026-04-12T09:45:26Z</time></trkpt><trkpt lat="44.61348924118912" lon="7.948564076413723"><ele>255.33333333333331</ele><time>2026-04-12T09:45:28Z</time></trkpt><trkpt lat="44.613479638388505" lon="7.948456846915034"><ele>255.16666666666666</ele><time>2026-04-12T09:45:30Z</time></trkpt><trkpt lat="44.613439646032504" lon="7.948338065130446"><ele>255.0</ele><time>2026-04-12T09:45:32Z</time></trkpt><trkpt lat="44.61340652298645" lon="7.948201627650936"><ele>255.0</ele><time>2026-04-12T09:45:34Z</time></trkpt><trkpt lat="44.61336167138333" lon="7.948061819312538"><ele>255.0</ele><time>2026-04-12T09:45:36Z</time></trkpt><trkpt lat="44.61332071414043" lon="7.947900920810452"><ele>255.0</ele><time>2026-04-12T09:45:38Z</time></trkpt><trkpt lat="44.61330199545413" lon="7.947797279505082"><ele>255.0</ele><time>2026-04-12T09:45:39Z</time></trkpt><trkpt lat="44.61327648318718" lon="7.947700796499879"><ele>255.0</ele><time>2026-04-12T09:45:40Z</time></trkpt><trkpt lat="44.61323963011539" lon="7.9476095992208675"><ele>253.83333333333334</ele><time>2026-04-12T09:45:41Z</time></trkpt><trkpt lat="44.61323815084811" lon="7.9475082404003174"><ele>252.66666666666669</ele><time>2026-04-12T09:45:42Z</time></trkpt><trkpt lat="44.61322137479755" lon="7.947416066210022"><ele>251.5</ele><time>2026-04-12T09:45:43Z</time></trkpt><trkpt lat="44.6132327838151" lon="7.947302986678096"><ele>250.33333333333334</ele><time>2026-04-12T09:45:44Z</time></trkpt><trkpt lat="44.61324658804092" lon="7.947195350689292"><ele>249.16666666666669</ele><time>2026-04-12T09:45:45Z</time></trkpt><trkpt lat="44.6132627383848" lon="7.947085422892679"><ele>248.0</ele><time>2026-04-12T09:45:46Z</time></trkpt><trkpt lat="44.6132830747556" lon="7.946973624958485"><ele>248.00000000000003</ele><time>2026-04-12T09:45:47Z</time></trkpt><trkpt lat="44.61330056626628" lon="7.946859808757472"><ele>248.0</ele><time>2026-04-12T09:45:48Z</time></trkpt><trkpt lat="44.61332188342405" lon="7.946744862656407"><ele>248.0</ele><time>2026-04-12T09:45:49Z</time></trkpt><trkpt lat="44.613343579461024" lon="7.946648713496174"><ele>248.0</ele><time>2026-04-12T09:45:50Z</time></trkpt><trkpt lat="44.6133549749203" lon="7.946499009309002"><ele>248.00000000000003</ele><time>2026-04-12T09:45:52Z</time></trkpt><trkpt lat="44.61333601178564" lon="7.946360440981288"><ele>248.0</ele><time>2026-04-12T09:45:54Z</time></trkpt><trkpt lat="44.61330273531582" lon="7.946262788272992"><ele>247.85714285714286</ele><time>2026-04-12T09:45:56Z</time></trkpt><trkpt lat="44.61326642798776" lon="7.9461887271853815"><ele>247.71428571428572</ele><time>2026-04-12T09:45:58Z</time></trkpt><trkpt lat="44.61321164452997" lon="7.946109377846737"><ele>247.57142857142858</ele><time>2026-04-12T09:46:01Z</time></trkpt><trkpt lat="44.613169743414666" lon="7.946029453593088"><ele>247.42857142857144</ele><time>2026-04-12T09:46:04Z</time></trkpt><trkpt lat="44.613116429378074" lon="7.9459758074288365"><ele>247.28571428571428</ele><time>2026-04-12T09:46:07Z</time></trkpt><trkpt lat="44.6130722809778" lon="7.945910869821777"><ele>247.14285714285717</ele><time>2026-04-12T09:46:10Z</time></trkpt><trkpt lat="44.61300189019939" lon="7.945851266430832"><ele>247.0</ele><time>2026-04-12T09:46:14Z</time></trkpt><trkpt lat="44.612922850597485" lon="7.9458098810388"><ele>247.71428571428572</ele><time>2026-04-12T09:46:18Z</time></trkpt><trkpt lat="44.61284413308577" lon="7.945773001269251"><ele>248.42857142857142</ele><time>2026-04-12T09:46:22Z</time></trkpt><trkpt lat="44.612780685797354" lon="7.945768803347914"><ele>249.14285714285714</ele><time>2026-04-12T09:46:25Z</time></trkpt><trkpt lat="44.612702020935004" lon="7.945740479655212"><ele>249.85714285714286</ele><time>2026-04-12T09:46:29Z</time></trkpt><trkpt lat="44.61263761607921" lon="7.94573302432617"><ele>250.57142857142856</ele><time>2026-04-12T09:46:32Z</time></trkpt><trkpt lat="44.612571778111395" lon="7.94570408435888"><ele>251.28571428571428</ele><time>2026-04-12T09:46:35Z</time></trkpt><trkpt lat="44.612517194743695" lon="7.945659699731498"><ele>252.0</ele><time>2026-04-12T09:46:38Z</time></trkpt><trkpt lat="44.61245188309452" lon="7.9456294677510515"><ele>252.0</ele><time>2026-04-12T09:46:41Z</time></trkpt><trkpt lat="44.61238800168852" lon="7.945589034099109"><ele>252.0</ele><time>2026-04-12T09:46:44Z</time></trkpt><trkpt lat="44.612318010408586" lon="7.945552332440724"><ele>252.0</ele><time>2026-04-12T09:46:47Z</time></trkpt><trkpt lat="44.61225202474383" lon="7.945511073277899"><ele>252.0</ele><time>2026-04-12T09:46:50Z</time></trkpt><trkpt lat="44.612190106712525" lon="7.945468273210132"><ele>252.0</ele><time>2026-04-12T09:46:53Z</time></trkpt><trkpt lat="44.61213930363353" lon="7.945415512325232"><ele>252.0</ele><time>2026-04-12T09:46:56Z</time></trkpt><trkpt lat="44.61208012978987" lon="7.945380158426636"><ele>252.0</ele><time>2026-04-12T09:46:58Z</time></trkpt><trkpt lat="44.61201722134513" lon="7.945343809318895"><ele>252.71428571428572</ele><time>2026-04-12T09:47:00Z</time></trkpt><trkpt lat="44.61193442508419" lon="7.945299728343701"><ele>253.42857142857144</ele><time>2026-04-12T09:47:03Z</time></trkpt><trkpt lat="44.61186342761356" lon="7.9452969642942515"><ele>254.14285714285714</ele><time>2026-04-12T09:47:07Z</time></trkpt><trkpt lat="44.611816971988056" lon="7.945236371563668"><ele>254.85714285714286</ele><time>2026-04-12T09:47:13Z</time></trkpt><trkpt lat="44.61174651666877" lon="7.945201875141055"><ele>255.57142857142858</ele><time>2026-04-12T09:47:19Z</time></trkpt><trkpt lat="44.61168410061178" lon="7.945159157863456"><ele>256.2857142857143</ele><time>2026-04-12T09:47:24Z</time></trkpt><trkpt lat="44.611614476589466" lon="7.9451379349986135"><ele>257.0</ele><time>2026-04-12T09:47:29Z</time></trkpt><trkpt lat="44.611558093075665" lon="7.945096839249573"><ele>257.0</ele><time>2026-04-12T09:47:43Z</time></trkpt><trkpt lat="44.6115010757502" lon="7.945055980852988"><ele>257.0</ele><time>2026-04-12T09:47:52Z</time></trkpt><trkpt lat="44.611436235184954" lon="7.945018828225187"><ele>257.0</ele><time>2026-04-12T09:48:03Z</time></trkpt><trkpt lat="44.611377615317565" lon="7.9449801891135845"><ele>257.0</ele><time>2026-04-12T09:48:12Z</time></trkpt><trkpt lat="44.611317222135725" lon="7.944940978886484"><ele>257.0</ele><time>2026-04-12T09:48:21Z</time></trkpt><trkpt lat="44.61125492740651" lon="7.944908038198087"><ele>257.0</ele><time>2026-04-12T09:48:30Z</time></trkpt><trkpt lat="44.61119299827561" lon="7.944868188651889"><ele>257.0</ele><time>2026-04-12T09:48:39Z</time></trkpt><trkpt lat="44.61113213548088" lon="7.944834110895579"><ele>259.1428571428571</ele><time>2026-04-12T09:48:46Z</time></trkpt><trkpt lat="44.61108104728784" lon="7.94477421874859"><ele>261.2857142857143</ele><time>2026-04-12T09:48:55Z</time></trkpt><trkpt lat="44.61102163549424" lon="7.9447256886006326"><ele>263.42857142857144</ele><time>2026-04-12T09:49:05Z</time></trkpt><trkpt lat="44.61096653974209" lon="7.944673843268279"><ele>265.57142857142856</ele><time>2026-04-12T09:49:14Z</time></trkpt><trkpt lat="44.610918562683494" lon="7.94460777584423"><ele>267.7142857142857</ele><time>2026-04-12T09:49:23Z</time></trkpt><trkpt lat="44.61086955297911" lon="7.944539343413499"><ele>269.85714285714283</ele><time>2026-04-12T09:49:33Z</time></trkpt><trkpt lat="44.610833139875254" lon="7.944459199131223"><ele>272.0</ele><time>2026-04-12T09:49:43Z</time></trkpt><trkpt lat="44.610802845045214" lon="7.9443736076329685"><ele>271.99999999999994</ele><time>2026-04-12T09:49:53Z</time></trkpt><trkpt lat="44.610784000336274" lon="7.944280933921519"><ele>272.0</ele><time>2026-04-12T09:50:15Z</time></trkpt><trkpt lat="44.61073628438298" lon="7.944218964003588"><ele>272.0</ele><time>2026-04-12T09:50:22Z</time></trkpt><trkpt lat="44.610675725204246" lon="7.944180832893366"><ele>272.0</ele><time>2026-04-12T09:50:28Z</time></trkpt><trkpt lat="44.61062445160817" lon="7.944119609634459"><ele>272.0</ele><time>2026-04-12T09:50:37Z</time></trkpt><trkpt lat="44.61067219068571" lon="7.944054948525125"><ele>271.99999999999994</ele><time>2026-04-12T09:50:48Z</time></trkpt><trkpt lat="44.61073131258369" lon="7.944008825588391"><ele>272.0</ele><time>2026-04-12T09:50:58Z</time></trkpt><trkpt lat="44.61079622281105" lon="7.943983161155116"><ele>271.99999999999994</ele><time>2026-04-12T09:51:09Z</time></trkpt><trkpt lat="44.610844999456454" lon="7.944057111541807"><ele>272.0</ele><time>2026-04-12T09:53:42Z</time></trkpt><trkpt lat="44.610844647641706" lon="7.944170914650927"><ele>272.0</ele><time>2026-04-12T09:53:45Z</time></trkpt><trkpt lat="44.61084840832831" lon="7.944259915432262"><ele>272.0</ele><time>2026-04-12T09:53:48Z</time></trkpt><trkpt lat="44.61089459358968" lon="7.944332267501425"><ele>272.0</ele><time>2026-04-12T09:53:51Z</time></trkpt><trkpt lat="44.61096131376861" lon="7.944369383501678"><ele>271.99999999999994</ele><time>2026-04-12T09:53:54Z</time></trkpt><trkpt lat="44.61102708353892" lon="7.944385781025785"><ele>272.0</ele><time>2026-04-12T09:53:57Z</time></trkpt><trkpt lat="44.611089695764605" lon="7.94437360716746"><ele>271.99999999999994</ele><time>2026-04-12T09:54:01Z</time></trkpt><trkpt lat="44.611141750363664" lon="7.9443124138811285"><ele>272.0</ele><time>2026-04-12T09:54:06Z</time></trkpt><trkpt lat="44.61120968337098" lon="7.944313041757854"><ele>272.0</ele><time>2026-04-12T09:54:11Z</time></trkpt><trkpt lat="44.61127660217269" lon="7.944346237831746"><ele>272.0</ele><time>2026-04-12T09:54:18Z</time></trkpt><trkpt lat="44.61133943838987" lon="7.944379902948058"><ele>272.0</ele><time>2026-04-12T09:54:24Z</time></trkpt><trkpt lat="44.61140524078876" lon="7.944367598701049"><ele>271.99999999999994</ele><time>2026-04-12T09:54:30Z</time></trkpt><trkpt lat="44.61134981425666" lon="7.944322678471987"><ele>272.0</ele><time>2026-04-12T09:55:07Z</time></trkpt><trkpt lat="44.61129525277349" lon="7.944272476188059"><ele>273.85714285714283</ele><time>2026-04-12T09:55:11Z</time></trkpt><trkpt lat="44.61131026913643" lon="7.944186530675799"><ele>275.7142857142857</ele><time>2026-04-12T09:55:16Z</time></trkpt><trkpt lat="44.61136422306422" lon="7.944121873576015"><ele>277.57142857142856</ele><time>2026-04-12T09:55:21Z</time></trkpt><trkpt lat="44.6114172287354" lon="7.944053766844029"><ele>279.42857142857144</ele><time>2026-04-12T09:55:27Z</time></trkpt><trkpt lat="44.611466777448385" lon="7.943994268408525"><ele>281.2857142857143</ele><time>2026-04-12T09:55:31Z</time></trkpt><trkpt lat="44.61150870433991" lon="7.944060773986694"><ele>283.1428571428571</ele><time>2026-04-12T09:55:45Z</time></trkpt><trkpt lat="44.6114384406707" lon="7.944040545984004"><ele>285.0</ele><time>2026-04-12T09:55:52Z</time></trkpt><trkpt lat="44.61136486312751" lon="7.944110898614104"><ele>285.0</ele><time>2026-04-12T09:55:55Z</time></trkpt><trkpt lat="44.611328594579874" lon="7.944209313565088"><ele>285.0</ele><time>2026-04-12T09:55:58Z</time></trkpt><trkpt lat="44.611308799833274" lon="7.9443022428287655"><ele>285.0</ele><time>2026-04-12T09:56:02Z</time></trkpt><trkpt lat="44.611378977790174" lon="7.94436573849231"><ele>285.0</ele><time>2026-04-12T09:56:05Z</time></trkpt><trkpt lat="44.61144472338983" lon="7.944334398832205"><ele>285.0</ele><time>2026-04-12T09:56:15Z</time></trkpt><trkpt lat="44.611508471813785" lon="7.944289754617747"><ele>285.0</ele><time>2026-04-12T09:56:45Z</time></trkpt><trkpt lat="44.61153685682035" lon="7.944198198014358"><ele>285.0</ele><time>2026-04-12T09:57:04Z</time></trkpt><trkpt lat="44.61153511319023" lon="7.944108162775119"><ele>285.0</ele><time>2026-04-12T09:57:06Z</time></trkpt><trkpt lat="44.61150944034615" lon="7.944015647136323"><ele>285.0</ele><time>2026-04-12T09:57:08Z</time></trkpt><trkpt lat="44.61145826987965" lon="7.943936670279149"><ele>285.0</ele><time>2026-04-12T09:57:10Z</time></trkpt><trkpt lat="44.61140358424122" lon="7.943880344020172"><ele>285.0</ele><time>2026-04-12T09:57:13Z</time></trkpt><trkpt lat="44.611333971732314" lon="7.943827775811352"><ele>285.0</ele><time>2026-04-12T09:57:17Z</time></trkpt><trkpt lat="44.61127171175191" lon="7.9438109433895345"><ele>285.0</ele><time>2026-04-12T09:57:20Z</time></trkpt><trkpt lat="44.611209479957076" lon="7.943796389287267"><ele>285.0</ele><time>2026-04-12T09:57:24Z</time></trkpt><trkpt lat="44.61114205018371" lon="7.943812629454125"><ele>285.0</ele><time>2026-04-12T09:57:32Z</time></trkpt><trkpt lat="44.6111673679441" lon="7.9436991035819755"><ele>285.0</ele><time>2026-04-12T09:57:37Z</time></trkpt><trkpt lat="44.61116677422113" lon="7.943592137020906"><ele>285.0</ele><time>2026-04-12T09:57:40Z</time></trkpt><trkpt lat="44.61115356731996" lon="7.943504312627096"><ele>285.0</ele><time>2026-04-12T09:57:42Z</time></trkpt><trkpt lat="44.611142759106805" lon="7.943359455638543"><ele>285.0</ele><time>2026-04-12T09:57:45Z</time></trkpt><trkpt lat="44.61112906438627" lon="7.943238160650128"><ele>285.0</ele><time>2026-04-12T09:57:48Z</time></trkpt><trkpt lat="44.61109673478124" lon="7.943135541706856"><ele>286.85714285714283</ele><time>2026-04-12T09:57:52Z</time></trkpt><trkpt lat="44.61106912572167" lon="7.943044474251182"><ele>288.7142857142857</ele><time>2026-04-12T09:57:55Z</time></trkpt><trkpt lat="44.61104316428973" lon="7.942953950139503"><ele>290.57142857142856</ele><time>2026-04-12T09:57:59Z</time></trkpt><trkpt lat="44.611007411615844" lon="7.942851723568797"><ele>292.42857142857144</ele><time>2026-04-12T09:58:03Z</time></trkpt><trkpt lat="44.61097204417376" lon="7.9427549963388255"><ele>294.2857142857143</ele><time>2026-04-12T09:58:07Z</time></trkpt><trkpt lat="44.610967778618814" lon="7.942659206043911"><ele>296.1428571428571</ele><time>2026-04-12T09:58:42Z</time></trkpt><trkpt lat="44.6109403777711" lon="7.942570459915132"><ele>298.0</ele><time>2026-04-12T09:58:45Z</time></trkpt><trkpt lat="44.61090917784351" lon="7.942491138160763"><ele>298.0</ele><time>2026-04-12T09:58:47Z</time></trkpt><trkpt lat="44.61088734099685" lon="7.94240536364629"><ele>298.0</ele><time>2026-04-12T09:58:49Z</time></trkpt><trkpt lat="44.610871481983644" lon="7.942316523540755"><ele>298.0</ele><time>2026-04-12T09:58:51Z</time></trkpt><trkpt lat="44.610860443832905" lon="7.942226191431155"><ele>298.0</ele><time>2026-04-12T09:58:53Z</time></trkpt><trkpt lat="44.61084320257629" lon="7.942140978830721"><ele>298.0</ele><time>2026-04-12T09:58:55Z</time></trkpt><trkpt lat="44.61082003165058" lon="7.942019233094565"><ele>298.0</ele><time>2026-04-12T09:58:58Z</time></trkpt><trkpt lat="44.610795820778044" lon="7.941937566403401"><ele>298.0</ele><time>2026-04-12T09:59:00Z</time></trkpt><trkpt lat="44.61079047646022" lon="7.941813847041885"><ele>298.16666666666663</ele><time>2026-04-12T09:59:03Z</time></trkpt><trkpt lat="44.61077987664176" lon="7.941696378626278"><ele>298.3333333333333</ele><time>2026-04-12T09:59:06Z</time></trkpt><trkpt lat="44.61077311957659" lon="7.9415876274066"><ele>298.5</ele><time>2026-04-12T09:59:09Z</time></trkpt><trkpt lat="44.61085548425479" lon="7.941576552870153"><ele>298.6666666666667</ele><time>2026-04-12T09:59:11Z</time></trkpt><trkpt lat="44.61093631018955" lon="7.941576485481015"><ele>298.83333333333337</ele><time>2026-04-12T09:59:14Z</time></trkpt><trkpt lat="44.61100954908976" lon="7.941562604041819"><ele>299.0</ele><time>2026-04-12T09:59:18Z</time></trkpt><trkpt lat="44.61095645286008" lon="7.941468890939487"><ele>299.0</ele><time>2026-04-12T09:59:22Z</time></trkpt><trkpt lat="44.61088722165446" lon="7.9414686122981735"><ele>299.0</ele><time>2026-04-12T09:59:25Z</time></trkpt><trkpt lat="44.61081608048622" lon="7.941458830877982"><ele>299.0</ele><time>2026-04-12T09:59:28Z</time></trkpt><trkpt lat="44.61074610387213" lon="7.941483732326888"><ele>299.0</ele><time>2026-04-12T09:59:31Z</time></trkpt><trkpt lat="44.61068594526955" lon="7.941541522880435"><ele>299.0</ele><time>2026-04-12T09:59:34Z</time></trkpt><trkpt lat="44.61065235459461" lon="7.9416297873914"><ele>299.0</ele><time>2026-04-12T09:59:37Z</time></trkpt><trkpt lat="44.6106271788232" lon="7.941714306277432"><ele>299.0</ele><time>2026-04-12T09:59:40Z</time></trkpt><trkpt lat="44.610633580363434" lon="7.941813229002224"><ele>298.85714285714283</ele><time>2026-04-12T09:59:43Z</time></trkpt><trkpt lat="44.610618244575804" lon="7.9419099589152555"><ele>298.7142857142857</ele><time>2026-04-12T09:59:46Z</time></trkpt><trkpt lat="44.61061713951534" lon="7.942006939196262"><ele>298.57142857142856</ele><time>2026-04-12T09:59:49Z</time></trkpt><trkpt lat="44.61061608080283" lon="7.942097542388335"><ele>298.42857142857144</ele><time>2026-04-12T09:59:52Z</time></trkpt><trkpt lat="44.610612653289266" lon="7.942190021738128"><ele>298.2857142857143</ele><time>2026-04-12T09:59:55Z</time></trkpt><trkpt lat="44.6106115453249" lon="7.9422841916782785"><ele>298.1428571428571</ele><time>2026-04-12T09:59:58Z</time></trkpt><trkpt lat="44.610589959143724" lon="7.942371173857755"><ele>298.0</ele><time>2026-04-12T10:00:01Z</time></trkpt><trkpt lat="44.610532016306706" lon="7.942449749453172"><ele>298.0</ele><time>2026-04-12T10:00:05Z</time></trkpt><trkpt lat="44.61047257532776" lon="7.94251454598183"><ele>298.0</ele><time>2026-04-12T10:00:09Z</time></trkpt><trkpt lat="44.61040288053024" lon="7.94254819135179"><ele>298.0</ele><time>2026-04-12T10:00:13Z</time></trkpt><trkpt lat="44.610344608023986" lon="7.942431728898069"><ele>298.0</ele><time>2026-04-12T10:00:18Z</time></trkpt><trkpt lat="44.6103061790124" lon="7.9423282082882025"><ele>298.0</ele><time>2026-04-12T10:00:22Z</time></trkpt><trkpt lat="44.61027636457585" lon="7.942220254535318"><ele>298.0</ele><time>2026-04-12T10:00:26Z</time></trkpt><trkpt lat="44.6102542478807" lon="7.942137367040819"><ele>298.42857142857144</ele><time>2026-04-12T10:00:29Z</time></trkpt><trkpt lat="44.610223788996116" lon="7.942029219494684"><ele>298.85714285714283</ele><time>2026-04-12T10:00:33Z</time></trkpt><trkpt lat="44.61021193149003" lon="7.941923653182191"><ele>299.2857142857143</ele><time>2026-04-12T10:00:37Z</time></trkpt><trkpt lat="44.61020504664282" lon="7.941832030677561"><ele>299.7142857142857</ele><time>2026-04-12T10:00:40Z</time></trkpt><trkpt lat="44.610198637867846" lon="7.941740052965242"><ele>300.1428571428571</ele><time>2026-04-12T10:00:43Z</time></trkpt><trkpt lat="44.610194206422086" lon="7.941648353793385"><ele>300.57142857142856</ele><time>2026-04-12T10:00:46Z</time></trkpt><trkpt lat="44.61019836520201" lon="7.941558229301227"><ele>301.0</ele><time>2026-04-12T10:00:49Z</time></trkpt><trkpt lat="44.61020848716767" lon="7.941469541530018"><ele>301.2857142857143</ele><time>2026-04-12T10:00:52Z</time></trkpt><trkpt lat="44.61022298726303" lon="7.9413523653247715"><ele>301.57142857142856</ele><time>2026-04-12T10:00:56Z</time></trkpt><trkpt lat="44.61022905051243" lon="7.941264171414648"><ele>301.8571428571429</ele><time>2026-04-12T10:00:59Z</time></trkpt><trkpt lat="44.61023115697044" lon="7.941174320514144"><ele>302.1428571428571</ele><time>2026-04-12T10:01:02Z</time></trkpt><trkpt lat="44.61021805238359" lon="7.941074131395167"><ele>302.42857142857144</ele><time>2026-04-12T10:01:06Z</time></trkpt><trkpt lat="44.61021124765246" lon="7.940971819270985"><ele>302.7142857142857</ele><time>2026-04-12T10:01:09Z</time></trkpt><trkpt lat="44.61019804981965" lon="7.940874991334048"><ele>303.0</ele><time>2026-04-12T10:01:12Z</time></trkpt><trkpt lat="44.61018653389352" lon="7.940769264516282"><ele>303.42857142857144</ele><time>2026-04-12T10:01:15Z</time></trkpt><trkpt lat="44.61018242551078" lon="7.940660204554756"><ele>303.85714285714283</ele><time>2026-04-12T10:01:19Z</time></trkpt><trkpt lat="44.6101842832631" lon="7.940545662304555"><ele>304.2857142857143</ele><time>2026-04-12T10:01:23Z</time></trkpt><trkpt lat="44.61018464022672" lon="7.940443894123152"><ele>304.7142857142857</ele><time>2026-04-12T10:01:27Z</time></trkpt><trkpt lat="44.61016111996152" lon="7.940348169132041"><ele>305.14285714285717</ele><time>2026-04-12T10:01:31Z</time></trkpt><trkpt lat="44.610114388196365" lon="7.940267506341535"><ele>305.57142857142856</ele><time>2026-04-12T10:01:41Z</time></trkpt><trkpt lat="44.610073953550895" lon="7.940185941702616"><ele>306.0</ele><time>2026-04-12T10:01:45Z</time></trkpt><trkpt lat="44.61006355875365" lon="7.940097786051693"><ele>307.1428571428571</ele><time>2026-04-12T10:01:50Z</time></trkpt><trkpt lat="44.610060403094295" lon="7.940000875457075"><ele>308.2857142857143</ele><time>2026-04-12T10:01:56Z</time></trkpt><trkpt lat="44.610031674514865" lon="7.939901656465049"><ele>309.42857142857144</ele><time>2026-04-12T10:02:01Z</time></trkpt><trkpt lat="44.61004728334659" lon="7.939804891690012"><ele>310.57142857142856</ele><time>2026-04-12T10:02:06Z</time></trkpt><trkpt lat="44.61003957332738" lon="7.939716212167101"><ele>311.7142857142857</ele><time>2026-04-12T10:02:10Z</time></trkpt><trkpt lat="44.61000780027612" lon="7.939618568836051"><ele>312.85714285714283</ele><time>2026-04-12T10:02:15Z</time></trkpt><trkpt lat="44.60996548666159" lon="7.9395280469478005"><ele>314.0</ele><time>2026-04-12T10:02:20Z</time></trkpt><trkpt lat="44.609921488407394" lon="7.939464429911058"><ele>313.99999999999994</ele><time>2026-04-12T10:02:24Z</time></trkpt><trkpt lat="44.609875087482926" lon="7.939398935860518"><ele>314.0</ele><time>2026-04-12T10:02:28Z</time></trkpt><trkpt lat="44.60982609213512" lon="7.939342942461735"><ele>314.0</ele><time>2026-04-12T10:02:32Z</time></trkpt><trkpt lat="44.60976194069925" lon="7.939308545574149"><ele>314.0</ele><time>2026-04-12T10:02:36Z</time></trkpt><trkpt lat="44.60969605339665" lon="7.939312117296993"><ele>314.0</ele><time>2026-04-12T10:02:40Z</time></trkpt><trkpt lat="44.60963088439807" lon="7.939309249375509"><ele>313.99999999999994</ele><time>2026-04-12T10:02:44Z</time></trkpt><trkpt lat="44.60956646639653" lon="7.939301907508078"><ele>314.0</ele><time>2026-04-12T10:02:48Z</time></trkpt><trkpt lat="44.60950857197045" lon="7.939257161324894"><ele>315.57142857142856</ele><time>2026-04-12T10:02:52Z</time></trkpt><trkpt lat="44.60945134784562" lon="7.939212123593189"><ele>317.1428571428571</ele><time>2026-04-12T10:02:56Z</time></trkpt><trkpt lat="44.60939583087427" lon="7.939170114797404"><ele>318.71428571428567</ele><time>2026-04-12T10:03:00Z</time></trkpt><trkpt lat="44.60932441381531" lon="7.93913301979804"><ele>320.2857142857143</ele><time>2026-04-12T10:03:05Z</time></trkpt><trkpt lat="44.6092508391955" lon="7.939088579308437"><ele>321.8571428571429</ele><time>2026-04-12T10:03:10Z</time></trkpt><trkpt lat="44.60917634692953" lon="7.9390540956750755"><ele>323.4285714285714</ele><time>2026-04-12T10:03:15Z</time></trkpt><trkpt lat="44.609113330258474" lon="7.939035979185026"><ele>325.0</ele><time>2026-04-12T10:03:19Z</time></trkpt><trkpt lat="44.609106240722646" lon="7.938939067774988"><ele>325.0</ele><time>2026-04-12T10:03:29Z</time></trkpt><trkpt lat="44.60904955403068" lon="7.938864561140499"><ele>325.0</ele><time>2026-04-12T10:03:34Z</time></trkpt><trkpt lat="44.60898818400155" lon="7.938809156495404"><ele>325.0</ele><time>2026-04-12T10:03:39Z</time></trkpt><trkpt lat="44.60892310778014" lon="7.938764791983743"><ele>325.0</ele><time>2026-04-12T10:03:44Z</time></trkpt><trkpt lat="44.608862341996385" lon="7.938726429966182"><ele>325.0</ele><time>2026-04-12T10:03:48Z</time></trkpt><trkpt lat="44.608802172700315" lon="7.93869491762633"><ele>325.0</ele><time>2026-04-12T10:03:52Z</time></trkpt><trkpt lat="44.60873739027623" lon="7.938673158853998"><ele>325.0</ele><time>2026-04-12T10:03:56Z</time></trkpt><trkpt lat="44.60867248873684" lon="7.9386513985415315"><ele>326.1428571428571</ele><time>2026-04-12T10:04:00Z</time></trkpt><trkpt lat="44.60861039004404" lon="7.938608903019127"><ele>327.28571428571433</ele><time>2026-04-12T10:04:04Z</time></trkpt><trkpt lat="44.60854493684345" lon="7.938573511550551"><ele>328.42857142857144</ele><time>2026-04-12T10:04:08Z</time></trkpt><trkpt lat="44.60847709994161" lon="7.938567994127291"><ele>329.57142857142856</ele><time>2026-04-12T10:04:12Z</time></trkpt><trkpt lat="44.60841067700311" lon="7.938548748210202"><ele>330.71428571428567</ele><time>2026-04-12T10:04:31Z</time></trkpt><trkpt lat="44.6083360775071" lon="7.938548048292569"><ele>331.8571428571429</ele><time>2026-04-12T10:04:35Z</time></trkpt><trkpt lat="44.60826205279752" lon="7.938530686334585"><ele>333.0</ele><time>2026-04-12T10:04:39Z</time></trkpt><trkpt lat="44.608182685292896" lon="7.938520484479601"><ele>333.0</ele><time>2026-04-12T10:04:43Z</time></trkpt><trkpt lat="44.60810579502386" lon="7.938488608843241"><ele>333.0</ele><time>2026-04-12T10:04:47Z</time></trkpt><trkpt lat="44.60804357277774" lon="7.938458245399154"><ele>333.0</ele><time>2026-04-12T10:04:50Z</time></trkpt><trkpt lat="44.60796913513418" lon="7.938411174810834"><ele>333.0</ele><time>2026-04-12T10:04:54Z</time></trkpt><trkpt lat="44.60789932023598" lon="7.938372238568396"><ele>333.0</ele><time>2026-04-12T10:04:58Z</time></trkpt><trkpt lat="44.607822951919026" lon="7.938348922753449"><ele>333.0</ele><time>2026-04-12T10:05:02Z</time></trkpt><trkpt lat="44.60776321584092" lon="7.938319685089588"><ele>333.0</ele><time>2026-04-12T10:05:05Z</time></trkpt><trkpt lat="44.607701935846194" lon="7.938288876330581"><ele>334.5714285714286</ele><time>2026-04-12T10:05:08Z</time></trkpt><trkpt lat="44.60763854502417" lon="7.938256244777332"><ele>336.1428571428571</ele><time>2026-04-12T10:05:11Z</time></trkpt><trkpt lat="44.607576679380934" lon="7.938230957450999"><ele>337.7142857142857</ele><time>2026-04-12T10:05:14Z</time></trkpt><trkpt lat="44.60749696808206" lon="7.938193952227242"><ele>339.28571428571433</ele><time>2026-04-12T10:05:18Z</time></trkpt><trkpt lat="44.60744027829168" lon="7.938151341139146"><ele>340.8571428571429</ele><time>2026-04-12T10:05:21Z</time></trkpt><trkpt lat="44.607367397424355" lon="7.938098915910655"><ele>342.42857142857144</ele><time>2026-04-12T10:05:25Z</time></trkpt><trkpt lat="44.60729384789337" lon="7.938041430527818"><ele>344.0</ele><time>2026-04-12T10:05:29Z</time></trkpt><trkpt lat="44.60722867595264" lon="7.937985838658674"><ele>344.00000000000006</ele><time>2026-04-12T10:05:33Z</time></trkpt><trkpt lat="44.60716761029167" lon="7.937929422098451"><ele>344.0</ele><time>2026-04-12T10:05:37Z</time></trkpt><trkpt lat="44.60710957630509" lon="7.937889382357456"><ele>344.0</ele><time>2026-04-12T10:05:41Z</time></trkpt><trkpt lat="44.60705129669174" lon="7.9378522762610535"><ele>344.0</ele><time>2026-04-12T10:05:45Z</time></trkpt><trkpt lat="44.60697331050847" lon="7.937842452720263"><ele>344.0</ele><time>2026-04-12T10:05:49Z</time></trkpt><trkpt lat="44.60689111790853" lon="7.93788546448645"><ele>344.00000000000006</ele><time>2026-04-12T10:05:52Z</time></trkpt><trkpt lat="44.60682829904275" lon="7.937950407506139"><ele>344.0</ele><time>2026-04-12T10:05:54Z</time></trkpt><trkpt lat="44.606765685293986" lon="7.938027356987533"><ele>343.79999999999995</ele><time>2026-04-12T10:05:56Z</time></trkpt><trkpt lat="44.60666659443286" lon="7.938064158644566"><ele>343.59999999999997</ele><time>2026-04-12T10:05:58Z</time></trkpt><trkpt lat="44.60655665112412" lon="7.938058097211616"><ele>343.4</ele><time>2026-04-12T10:06:00Z</time></trkpt><trkpt lat="44.60645117736356" lon="7.938038285855372"><ele>343.2</ele><time>2026-04-12T10:06:02Z</time></trkpt><trkpt lat="44.606346916928814" lon="7.938018256662489"><ele>343.0</ele><time>2026-04-12T10:06:04Z</time></trkpt><trkpt lat="44.60626988418834" lon="7.938018757874998"><ele>343.0</ele><time>2026-04-12T10:06:06Z</time></trkpt><trkpt lat="44.606201773341965" lon="7.938009997467367"><ele>343.0</ele><time>2026-04-12T10:06:08Z</time></trkpt><trkpt lat="44.606114553618426" lon="7.938003973944258"><ele>343.0</ele><time>2026-04-12T10:06:11Z</time></trkpt><trkpt lat="44.60604374515904" lon="7.93799848753954"><ele>343.0</ele><time>2026-04-12T10:06:14Z</time></trkpt><trkpt lat="44.60597543059849" lon="7.937962197628124"><ele>343.0</ele><time>2026-04-12T10:06:18Z</time></trkpt><trkpt lat="44.605907352441" lon="7.937963358142104"><ele>343.0</ele><time>2026-04-12T10:06:22Z</time></trkpt><trkpt lat="44.605842761146306" lon="7.9379575878761095"><ele>343.0</ele><time>2026-04-12T10:06:26Z</time></trkpt><trkpt lat="44.605785328075534" lon="7.937920442077339"><ele>343.16666666666663</ele><time>2026-04-12T10:06:30Z</time></trkpt><trkpt lat="44.6057148996837" lon="7.937920931154536"><ele>343.3333333333333</ele><time>2026-04-12T10:06:34Z</time></trkpt><trkpt lat="44.60563842401715" lon="7.937888879218153"><ele>343.5</ele><time>2026-04-12T10:06:38Z</time></trkpt><trkpt lat="44.60557293260455" lon="7.937886133031024"><ele>343.6666666666667</ele><time>2026-04-12T10:06:41Z</time></trkpt><trkpt lat="44.605502863015964" lon="7.937885174370868"><ele>343.83333333333337</ele><time>2026-04-12T10:06:44Z</time></trkpt><trkpt lat="44.60541311405663" lon="7.937891029094109"><ele>344.0</ele><time>2026-04-12T10:06:47Z</time></trkpt><trkpt lat="44.60531290599714" lon="7.937893819461725"><ele>345.6666666666667</ele><time>2026-04-12T10:06:50Z</time></trkpt><trkpt lat="44.60524617688641" lon="7.937897830110276"><ele>347.33333333333337</ele><time>2026-04-12T10:06:52Z</time></trkpt><trkpt lat="44.605165388927425" lon="7.93790456739954"><ele>349.0</ele><time>2026-04-12T10:06:54Z</time></trkpt><trkpt lat="44.60507864429169" lon="7.937924824578514"><ele>350.6666666666667</ele><time>2026-04-12T10:06:56Z</time></trkpt><trkpt lat="44.60500258340214" lon="7.937979527212347"><ele>352.3333333333333</ele><time>2026-04-12T10:06:58Z</time></trkpt><trkpt lat="44.6049405600696" lon="7.938028788990735"><ele>354.0</ele><time>2026-04-12T10:07:00Z</time></trkpt><trkpt lat="44.60486405481318" lon="7.938098317102275"><ele>354.0</ele><time>2026-04-12T10:07:03Z</time></trkpt><trkpt lat="44.604806695110014" lon="7.938143264787663"><ele>354.0</ele><time>2026-04-12T10:07:05Z</time></trkpt><trkpt lat="44.60474608726868" lon="7.938207975080243"><ele>354.0</ele><time>2026-04-12T10:07:08Z</time></trkpt><trkpt lat="44.604684618059224" lon="7.938253664654094"><ele>354.0</ele><time>2026-04-12T10:07:11Z</time></trkpt><trkpt lat="44.60461007137809" lon="7.9383052691078655"><ele>354.0</ele><time>2026-04-12T10:07:15Z</time></trkpt><trkpt lat="44.604533726182474" lon="7.938345717496274"><ele>354.0</ele><time>2026-04-12T10:07:19Z</time></trkpt><trkpt lat="44.60445986565867" lon="7.9383698744116264"><ele>353.5714285714286</ele><time>2026-04-12T10:07:23Z</time></trkpt><trkpt lat="44.604383348522276" lon="7.938387320444934"><ele>353.1428571428571</ele><time>2026-04-12T10:07:27Z</time></trkpt><trkpt lat="44.604315135671584" lon="7.938386770209899"><ele>352.7142857142857</ele><time>2026-04-12T10:07:31Z</time></trkpt><trkpt lat="44.604241663156074" lon="7.938388941991439"><ele>352.28571428571433</ele><time>2026-04-12T10:07:35Z</time></trkpt><trkpt lat="44.60416815930493" lon="7.938393270809303"><ele>351.8571428571429</ele><time>2026-04-12T10:07:39Z</time></trkpt><trkpt lat="44.60409524070139" lon="7.938396266768969"><ele>351.42857142857144</ele><time>2026-04-12T10:07:43Z</time></trkpt><trkpt lat="44.60402335937499" lon="7.938404620593831"><ele>351.0</ele><time>2026-04-12T10:07:47Z</time></trkpt><trkpt lat="44.60394287902164" lon="7.938425934130062"><ele>351.00000000000006</ele><time>2026-04-12T10:07:51Z</time></trkpt><trkpt lat="44.603863010747155" lon="7.938447355418731"><ele>351.0</ele><time>2026-04-12T10:07:55Z</time></trkpt><trkpt lat="44.603794388982315" lon="7.938458068295403"><ele>351.0</ele><time>2026-04-12T10:07:58Z</time></trkpt><trkpt lat="44.603729185162955" lon="7.938474545829226"><ele>351.0</ele><time>2026-04-12T10:08:01Z</time></trkpt><trkpt lat="44.60364731109785" lon="7.93849253752477"><ele>351.0</ele><time>2026-04-12T10:08:05Z</time></trkpt><trkpt lat="44.603584706722444" lon="7.938504960287328"><ele>351.00000000000006</ele><time>2026-04-12T10:08:08Z</time></trkpt><trkpt lat="44.603502837936006" lon="7.938518207445892"><ele>351.0</ele><time>2026-04-12T10:08:12Z</time></trkpt><trkpt lat="44.603422026859306" lon="7.938528472707385"><ele>352.5714285714286</ele><time>2026-04-12T10:08:16Z</time></trkpt><trkpt lat="44.60334595495244" lon="7.93855555295944"><ele>354.14285714285717</ele><time>2026-04-12T10:08:20Z</time></trkpt><trkpt lat="44.603270991792435" lon="7.938567151616636"><ele>355.7142857142857</ele><time>2026-04-12T10:08:24Z</time></trkpt><trkpt lat="44.60320687811547" lon="7.938575160747264"><ele>357.28571428571433</ele><time>2026-04-12T10:08:28Z</time></trkpt><trkpt lat="44.603142958894914" lon="7.938594258341512"><ele>358.85714285714283</ele><time>2026-04-12T10:08:32Z</time></trkpt><trkpt lat="44.60307908603577" lon="7.938611993052382"><ele>360.42857142857144</ele><time>2026-04-12T10:08:36Z</time></trkpt><trkpt lat="44.60301630773267" lon="7.938637058819153"><ele>362.0</ele><time>2026-04-12T10:08:41Z</time></trkpt><trkpt lat="44.60295169041979" lon="7.9386260920603045"><ele>362.0</ele><time>2026-04-12T10:08:46Z</time></trkpt><trkpt lat="44.60287844739598" lon="7.938606746366998"><ele>362.0</ele><time>2026-04-12T10:09:15Z</time></trkpt><trkpt lat="44.60281536621783" lon="7.938605218373419"><ele>362.0</ele><time>2026-04-12T10:09:23Z</time></trkpt><trkpt lat="44.602749588292944" lon="7.938610525515716"><ele>362.0</ele><time>2026-04-12T10:09:31Z</time></trkpt><trkpt lat="44.60268346184151" lon="7.938616908148437"><ele>362.0</ele><time>2026-04-12T10:10:19Z</time></trkpt><trkpt lat="44.60261336660239" lon="7.938594508083012"><ele>362.0</ele><time>2026-04-12T10:10:28Z</time></trkpt><trkpt lat="44.60254115462563" lon="7.938570106991592"><ele>362.0</ele><time>2026-04-12T10:10:33Z</time></trkpt><trkpt lat="44.60246905765827" lon="7.938542795808069"><ele>363.1666666666667</ele><time>2026-04-12T10:10:37Z</time></trkpt><trkpt lat="44.60240246686735" lon="7.938521337318439"><ele>364.33333333333337</ele><time>2026-04-12T10:10:40Z</time></trkpt><trkpt lat="44.60232469426185" lon="7.93849021634755"><ele>365.5</ele><time>2026-04-12T10:10:43Z</time></trkpt><trkpt lat="44.602263644186" lon="7.938464470934733"><ele>366.6666666666667</ele><time>2026-04-12T10:10:45Z</time></trkpt><trkpt lat="44.60217707377808" lon="7.938421801021695"><ele>367.8333333333333</ele><time>2026-04-12T10:10:48Z</time></trkpt><trkpt lat="44.602095362479666" lon="7.9383927329768635"><ele>369.0</ele><time>2026-04-12T10:10:50Z</time></trkpt><trkpt lat="44.60199851827452" lon="7.938346422969126"><ele>370.0</ele><time>2026-04-12T10:10:52Z</time></trkpt><trkpt lat="44.60189798916094" lon="7.938296349314672"><ele>371.0</ele><time>2026-04-12T10:10:54Z</time></trkpt><trkpt lat="44.60180918096323" lon="7.938250773690152"><ele>372.0</ele><time>2026-04-12T10:10:56Z</time></trkpt><trkpt lat="44.60171584264422" lon="7.9382162933301315"><ele>373.0</ele><time>2026-04-12T10:10:58Z</time></trkpt><trkpt lat="44.60163670625284" lon="7.938180647189486"><ele>374.0</ele><time>2026-04-12T10:11:00Z</time></trkpt><trkpt lat="44.60157898872689" lon="7.938136661273088"><ele>375.0</ele><time>2026-04-12T10:11:02Z</time></trkpt><trkpt lat="44.601497038469944" lon="7.938086892503938"><ele>375.0</ele><time>2026-04-12T10:11:05Z</time></trkpt><trkpt lat="44.60141888833547" lon="7.938051925680423"><ele>375.0</ele><time>2026-04-12T10:11:08Z</time></trkpt><trkpt lat="44.60133679588978" lon="7.938015942875388"><ele>375.0</ele><time>2026-04-12T10:11:11Z</time></trkpt><trkpt lat="44.601275983321734" lon="7.937989099350047"><ele>375.0</ele><time>2026-04-12T10:11:13Z</time></trkpt><trkpt lat="44.60120241193095" lon="7.937962728006732"><ele>375.0</ele><time>2026-04-12T10:11:15Z</time></trkpt><trkpt lat="44.601104310479364" lon="7.93791658783339"><ele>375.0</ele><time>2026-04-12T10:11:17Z</time></trkpt><trkpt lat="44.60097717845809" lon="7.937880571388797"><ele>373.5</ele><time>2026-04-12T10:11:19Z</time></trkpt><trkpt lat="44.60089887132481" lon="7.937869164467214"><ele>372.0</ele><time>2026-04-12T10:11:20Z</time></trkpt><trkpt lat="44.60082056425728" lon="7.937859956241241"><ele>370.5</ele><time>2026-04-12T10:11:21Z</time></trkpt><trkpt lat="44.60073445819275" lon="7.937841673450389"><ele>369.0</ele><time>2026-04-12T10:11:22Z</time></trkpt><trkpt lat="44.60065220156328" lon="7.93781759059623"><ele>367.5</ele><time>2026-04-12T10:11:23Z</time></trkpt><trkpt lat="44.60057149800693" lon="7.9377842883754886"><ele>366.0</ele><time>2026-04-12T10:11:24Z</time></trkpt><trkpt lat="44.600502601130835" lon="7.937741610533295"><ele>366.0</ele><time>2026-04-12T10:11:25Z</time></trkpt><trkpt lat="44.6004411711048" lon="7.93770870457999"><ele>366.0</ele><time>2026-04-12T10:11:26Z</time></trkpt><trkpt lat="44.60033277189092" lon="7.937649147332158"><ele>366.0</ele><time>2026-04-12T10:11:28Z</time></trkpt><trkpt lat="44.60024480947984" lon="7.937611581393615"><ele>366.0</ele><time>2026-04-12T10:11:30Z</time></trkpt><trkpt lat="44.60016768002977" lon="7.937580960525013"><ele>366.0</ele><time>2026-04-12T10:11:32Z</time></trkpt><trkpt lat="44.60009807293193" lon="7.937537637068836"><ele>366.0</ele><time>2026-04-12T10:11:34Z</time></trkpt><trkpt lat="44.600026810909704" lon="7.9374939009244"><ele>367.8333333333333</ele><time>2026-04-12T10:11:36Z</time></trkpt><trkpt lat="44.59994493706084" lon="7.937463565523726"><ele>369.6666666666667</ele><time>2026-04-12T10:11:38Z</time></trkpt><trkpt lat="44.59985818606871" lon="7.937431894496124"><ele>371.5</ele><time>2026-04-12T10:11:40Z</time></trkpt><trkpt lat="44.59977227020038" lon="7.937418038952302"><ele>373.33333333333337</ele><time>2026-04-12T10:11:42Z</time></trkpt><trkpt lat="44.59969448168658" lon="7.937413782020935"><ele>375.1666666666667</ele><time>2026-04-12T10:11:44Z</time></trkpt><trkpt lat="44.59962208863638" lon="7.937412610794272"><ele>377.0</ele><time>2026-04-12T10:11:46Z</time></trkpt><trkpt lat="44.599557325922" lon="7.93742259268598"><ele>377.57142857142856</ele><time>2026-04-12T10:11:48Z</time></trkpt><trkpt lat="44.599488361766426" lon="7.937419106607089"><ele>378.1428571428571</ele><time>2026-04-12T10:11:51Z</time></trkpt><trkpt lat="44.59942576957751" lon="7.937405040912694"><ele>378.71428571428567</ele><time>2026-04-12T10:11:54Z</time></trkpt><trkpt lat="44.59934328723149" lon="7.937371834556846"><ele>379.2857142857143</ele><time>2026-04-12T10:11:58Z</time></trkpt><trkpt lat="44.59928027351683" lon="7.937361699545394"><ele>379.8571428571429</ele><time>2026-04-12T10:12:01Z</time></trkpt><trkpt lat="44.599197560917126" lon="7.9373529025847755"><ele>380.4285714285714</ele><time>2026-04-12T10:12:05Z</time></trkpt><trkpt lat="44.599117922570976" lon="7.93735571239929"><ele>381.0</ele><time>2026-04-12T10:12:09Z</time></trkpt><trkpt lat="44.599054489526985" lon="7.937365466939041"><ele>381.0</ele><time>2026-04-12T10:12:12Z</time></trkpt><trkpt lat="44.598974388229735" lon="7.937350935477932"><ele>381.0</ele><time>2026-04-12T10:12:16Z</time></trkpt><trkpt lat="44.59890014166933" lon="7.937339977144898"><ele>381.0</ele><time>2026-04-12T10:12:20Z</time></trkpt><trkpt lat="44.59883639153383" lon="7.937330013759286"><ele>381.0</ele><time>2026-04-12T10:12:23Z</time></trkpt><trkpt lat="44.5987552650484" lon="7.9373176586622485"><ele>381.0</ele><time>2026-04-12T10:12:27Z</time></trkpt><trkpt lat="44.59869106264355" lon="7.937325199170442"><ele>381.0</ele><time>2026-04-12T10:12:30Z</time></trkpt><trkpt lat="44.59862830885648" lon="7.937340890534243"><ele>381.0</ele><time>2026-04-12T10:12:33Z</time></trkpt><trkpt lat="44.59854327430238" lon="7.937361320574432"><ele>382.2857142857143</ele><time>2026-04-12T10:12:37Z</time></trkpt><trkpt lat="44.59846271353551" lon="7.937373838371372"><ele>383.5714285714286</ele><time>2026-04-12T10:12:41Z</time></trkpt><trkpt lat="44.59838269034692" lon="7.937374888944905"><ele>384.8571428571429</ele><time>2026-04-12T10:12:45Z</time></trkpt><trkpt lat="44.598320073076145" lon="7.937387694133036"><ele>386.1428571428571</ele><time>2026-04-12T10:12:48Z</time></trkpt><trkpt lat="44.5982442311434" lon="7.937403602459834"><ele>387.42857142857144</ele><time>2026-04-12T10:12:52Z</time></trkpt><trkpt lat="44.59816859698007" lon="7.937414158399275"><ele>388.7142857142857</ele><time>2026-04-12T10:12:56Z</time></trkpt><trkpt lat="44.598103455293206" lon="7.937435809395809"><ele>390.0</ele><time>2026-04-12T10:13:01Z</time></trkpt><trkpt lat="44.598041090909945" lon="7.937488637824606"><ele>390.0</ele><time>2026-04-12T10:13:08Z</time></trkpt><trkpt lat="44.59798235147057" lon="7.937456374260019"><ele>390.0</ele><time>2026-04-12T10:13:14Z</time></trkpt><trkpt lat="44.59795382422943" lon="7.937371734781434"><ele>390.0</ele><time>2026-04-12T10:13:21Z</time></trkpt><trkpt lat="44.59790636082669" lon="7.937305969742211"><ele>390.0</ele><time>2026-04-12T10:13:25Z</time></trkpt><trkpt lat="44.59786179024539" lon="7.937240243324562"><ele>390.0</ele><time>2026-04-12T10:13:28Z</time></trkpt><trkpt lat="44.59781597296874" lon="7.9371789367466175"><ele>390.0</ele><time>2026-04-12T10:13:31Z</time></trkpt><trkpt lat="44.597758066163856" lon="7.937090872733572"><ele>390.0</ele><time>2026-04-12T10:13:35Z</time></trkpt><trkpt lat="44.59771539424839" lon="7.937025584047051"><ele>389.2857142857143</ele><time>2026-04-12T10:13:38Z</time></trkpt><trkpt lat="44.597670040984276" lon="7.936960667925781"><ele>388.57142857142856</ele><time>2026-04-12T10:13:41Z</time></trkpt><trkpt lat="44.5976231369965" lon="7.936894603820581"><ele>387.8571428571429</ele><time>2026-04-12T10:13:44Z</time></trkpt><trkpt lat="44.597570596995574" lon="7.936803772738511"><ele>387.1428571428571</ele><time>2026-04-12T10:13:48Z</time></trkpt><trkpt lat="44.59751283704489" lon="7.936726663136434"><ele>386.42857142857144</ele><time>2026-04-12T10:13:52Z</time></trkpt><trkpt lat="44.59744948501348" lon="7.936652176969545"><ele>385.7142857142857</ele><time>2026-04-12T10:13:56Z</time></trkpt><trkpt lat="44.59742058822267" lon="7.936573278717042"><ele>385.0</ele><time>2026-04-12T10:13:59Z</time></trkpt><trkpt lat="44.59736241737009" lon="7.936492929919879"><ele>386.00000000000006</ele><time>2026-04-12T10:14:03Z</time></trkpt><trkpt lat="44.59731626850669" lon="7.936432031133811"><ele>387.0</ele><time>2026-04-12T10:14:06Z</time></trkpt><trkpt lat="44.59725448352343" lon="7.93635437796956"><ele>388.0</ele><time>2026-04-12T10:14:10Z</time></trkpt><trkpt lat="44.597187343635866" lon="7.936286538840339"><ele>389.0</ele><time>2026-04-12T10:14:14Z</time></trkpt><trkpt lat="44.59712356462181" lon="7.936233309285485"><ele>390.00000000000006</ele><time>2026-04-12T10:14:17Z</time></trkpt><trkpt lat="44.597056275189736" lon="7.93616598531593"><ele>391.0</ele><time>2026-04-12T10:14:20Z</time></trkpt><trkpt lat="44.59699090106579" lon="7.936077502966942"><ele>391.00000000000006</ele><time>2026-04-12T10:14:23Z</time></trkpt><trkpt lat="44.596933382076166" lon="7.936021869974491"><ele>391.0</ele><time>2026-04-12T10:14:25Z</time></trkpt><trkpt lat="44.596866857388854" lon="7.93597273738846"><ele>391.0</ele><time>2026-04-12T10:14:27Z</time></trkpt><trkpt lat="44.59679192829482" lon="7.935933735203128"><ele>391.0</ele><time>2026-04-12T10:14:29Z</time></trkpt><trkpt lat="44.59670972915296" lon="7.935919920126952"><ele>391.00000000000006</ele><time>2026-04-12T10:14:31Z</time></trkpt><trkpt lat="44.5966289001937" lon="7.935920609133845"><ele>391.0</ele><time>2026-04-12T10:14:33Z</time></trkpt><trkpt lat="44.59655613496994" lon="7.935936624036647"><ele>391.00000000000006</ele><time>2026-04-12T10:14:35Z</time></trkpt><trkpt lat="44.596466838564815" lon="7.935937903997821"><ele>391.0</ele><time>2026-04-12T10:14:38Z</time></trkpt><trkpt lat="44.596393419969836" lon="7.935946972695125"><ele>391.0</ele><time>2026-04-12T10:14:41Z</time></trkpt><trkpt lat="44.59631435619231" lon="7.935962432618457"><ele>391.0</ele><time>2026-04-12T10:14:45Z</time></trkpt><trkpt lat="44.59624858449036" lon="7.935991521600378"><ele>391.00000000000006</ele><time>2026-04-12T10:14:48Z</time></trkpt><trkpt lat="44.596164980212755" lon="7.936006005784817"><ele>391.0</ele><time>2026-04-12T10:14:52Z</time></trkpt><trkpt lat="44.59608913811021" lon="7.936020363189854"><ele>393.33333333333337</ele><time>2026-04-12T10:14:56Z</time></trkpt><trkpt lat="44.59601267948927" lon="7.936043085783306"><ele>395.6666666666667</ele><time>2026-04-12T10:15:00Z</time></trkpt><trkpt lat="44.5959338781051" lon="7.936061781775957"><ele>398.0</ele><time>2026-04-12T10:15:04Z</time></trkpt><trkpt lat="44.5958533162056" lon="7.936074974318447"><ele>400.33333333333337</ele><time>2026-04-12T10:15:08Z</time></trkpt><trkpt lat="44.59577429584207" lon="7.936084084505114"><ele>402.6666666666667</ele><time>2026-04-12T10:15:12Z</time></trkpt><trkpt lat="44.5956979310852" lon="7.936100782958354"><ele>405.0</ele><time>2026-04-12T10:15:16Z</time></trkpt><trkpt lat="44.595631774276804" lon="7.93612067141445"><ele>404.99999999999994</ele><time>2026-04-12T10:15:20Z</time></trkpt><trkpt lat="44.59557087482903" lon="7.936152902690847"><ele>405.0</ele><time>2026-04-12T10:15:24Z</time></trkpt><trkpt lat="44.595502715171584" lon="7.9361890046386545"><ele>405.0</ele><time>2026-04-12T10:15:28Z</time></trkpt><trkpt lat="44.595442665326516" lon="7.936215851409097"><ele>405.0</ele><time>2026-04-12T10:15:32Z</time></trkpt><trkpt lat="44.595379533173606" lon="7.9362325307840225"><ele>405.0</ele><time>2026-04-12T10:15:36Z</time></trkpt><trkpt lat="44.59531712489518" lon="7.9362502747350705"><ele>404.99999999999994</ele><time>2026-04-12T10:15:40Z</time></trkpt><trkpt lat="44.59524316055644" lon="7.936248694772062"><ele>405.0</ele><time>2026-04-12T10:15:45Z</time></trkpt><trkpt lat="44.59518362336174" lon="7.936215179259335"><ele>406.8333333333333</ele><time>2026-04-12T10:15:49Z</time></trkpt><trkpt lat="44.59512283031697" lon="7.936179122566846"><ele>408.66666666666663</ele><time>2026-04-12T10:15:53Z</time></trkpt><trkpt lat="44.59506528541713" lon="7.936129642391594"><ele>410.5</ele><time>2026-04-12T10:15:57Z</time></trkpt><trkpt lat="44.5950167721326" lon="7.936060804687868"><ele>412.3333333333333</ele><time>2026-04-12T10:16:01Z</time></trkpt><trkpt lat="44.59497522992151" lon="7.935989794928578"><ele>414.16666666666663</ele><time>2026-04-12T10:16:05Z</time></trkpt><trkpt lat="44.594954625672045" lon="7.936089596920103"><ele>416.0</ele><time>2026-04-12T10:16:25Z</time></trkpt><trkpt lat="44.594906330780454" lon="7.936241612335425"><ele>415.99999999999994</ele><time>2026-04-12T10:16:36Z</time></trkpt><trkpt lat="44.59483220962189" lon="7.936282162357237"><ele>416.0</ele><time>2026-04-12T10:16:39Z</time></trkpt><trkpt lat="44.594759781835585" lon="7.936242150716292"><ele>416.0</ele><time>2026-04-12T10:16:42Z</time></trkpt><trkpt lat="44.59468649386507" lon="7.936155816633004"><ele>416.0</ele><time>2026-04-12T10:16:45Z</time></trkpt><trkpt lat="44.59462619851508" lon="7.936094049216318"><ele>415.99999999999994</ele><time>2026-04-12T10:16:47Z</time></trkpt><trkpt lat="44.594585956233075" lon="7.936015832009669"><ele>416.0</ele><time>2026-04-12T10:16:49Z</time></trkpt><trkpt lat="44.59450933451205" lon="7.935988245797375"><ele>413.6</ele><time>2026-04-12T10:16:51Z</time></trkpt><trkpt lat="44.5944306825922" lon="7.935921008650544"><ele>411.20000000000005</ele><time>2026-04-12T10:16:53Z</time></trkpt><trkpt lat="44.594340621795496" lon="7.935896290256541"><ele>408.79999999999995</ele><time>2026-04-12T10:16:55Z</time></trkpt><trkpt lat="44.594236081497506" lon="7.935887340805124"><ele>406.4</ele><time>2026-04-12T10:16:57Z</time></trkpt><trkpt lat="44.59411918558356" lon="7.935859756442521"><ele>404.0</ele><time>2026-04-12T10:16:59Z</time></trkpt><trkpt lat="44.59406953644831" lon="7.935794447204728"><ele>404.0</ele><time>2026-04-12T10:17:00Z</time></trkpt><trkpt lat="44.59400766731484" lon="7.935762554778382"><ele>404.0</ele><time>2026-04-12T10:17:01Z</time></trkpt><trkpt lat="44.59395050690172" lon="7.935718008249389"><ele>404.0</ele><time>2026-04-12T10:17:02Z</time></trkpt><trkpt lat="44.59388819066652" lon="7.935668834629003"><ele>404.0</ele><time>2026-04-12T10:17:03Z</time></trkpt><trkpt lat="44.593833883295815" lon="7.935618604725018"><ele>404.0</ele><time>2026-04-12T10:17:04Z</time></trkpt><trkpt lat="44.59377202370228" lon="7.9355876938877925"><ele>404.0</ele><time>2026-04-12T10:17:05Z</time></trkpt><trkpt lat="44.593727733221485" lon="7.935523543073807"><ele>404.0</ele><time>2026-04-12T10:17:06Z</time></trkpt><trkpt lat="44.5936200955146" lon="7.935456322986836"><ele>400.79999999999995</ele><time>2026-04-12T10:17:08Z</time></trkpt><trkpt lat="44.59352615094977" lon="7.9353718883721145"><ele>397.59999999999997</ele><time>2026-04-12T10:17:10Z</time></trkpt><trkpt lat="44.5934124628765" lon="7.935308606428655"><ele>394.4</ele><time>2026-04-12T10:17:12Z</time></trkpt><trkpt lat="44.59330575433955" lon="7.935308204014329"><ele>391.2</ele><time>2026-04-12T10:17:14Z</time></trkpt><trkpt lat="44.59321316411394" lon="7.935266464310235"><ele>388.0</ele><time>2026-04-12T10:17:16Z</time></trkpt><trkpt lat="44.59312570510382" lon="7.935254143336951"><ele>388.00000000000006</ele><time>2026-04-12T10:17:18Z</time></trkpt><trkpt lat="44.59304747709915" lon="7.935245249744941"><ele>388.0</ele><time>2026-04-12T10:17:20Z</time></trkpt><trkpt lat="44.59296813904692" lon="7.935247201914939"><ele>388.0</ele><time>2026-04-12T10:17:22Z</time></trkpt><trkpt lat="44.592883654527654" lon="7.935271265652952"><ele>388.0</ele><time>2026-04-12T10:17:24Z</time></trkpt><trkpt lat="44.592816882226" lon="7.935354102091516"><ele>388.00000000000006</ele><time>2026-04-12T10:17:26Z</time></trkpt><trkpt lat="44.592767182616676" lon="7.9354215538659085"><ele>388.0</ele><time>2026-04-12T10:17:28Z</time></trkpt><trkpt lat="44.59282009964327" lon="7.935370290610533"><ele>388.0</ele><time>2026-04-12T10:17:52Z</time></trkpt><trkpt lat="44.59286198179408" lon="7.935300880950045"><ele>388.0</ele><time>2026-04-12T10:17:58Z</time></trkpt><trkpt lat="44.592922547626884" lon="7.935261007764154"><ele>388.0</ele><time>2026-04-12T10:18:20Z</time></trkpt><trkpt lat="44.5928786331018" lon="7.934902297274883"><ele>388.0</ele><time>2026-04-12T10:18:52Z</time></trkpt><trkpt lat="44.5928716768723" lon="7.934809999932013"><ele>389.4285714285714</ele><time>2026-04-12T10:19:01Z</time></trkpt><trkpt lat="44.592870342797816" lon="7.934719521986537"><ele>390.8571428571429</ele><time>2026-04-12T10:19:11Z</time></trkpt><trkpt lat="44.59286370917199" lon="7.934601376379641"><ele>392.2857142857143</ele><time>2026-04-12T10:20:47Z</time></trkpt><trkpt lat="44.592871004235896" lon="7.934499956277908"><ele>393.71428571428567</ele><time>2026-04-12T10:20:51Z</time></trkpt><trkpt lat="44.592887393369665" lon="7.934410277813032"><ele>395.1428571428571</ele><time>2026-04-12T10:20:55Z</time></trkpt><trkpt lat="44.592911829569935" lon="7.934320587703808"><ele>396.57142857142856</ele><time>2026-04-12T10:21:00Z</time></trkpt><trkpt lat="44.592916125201036" lon="7.934229543357858"><ele>398.0</ele><time>2026-04-12T10:21:05Z</time></trkpt><trkpt lat="44.592902296671724" lon="7.934127213886533"><ele>399.99999999999994</ele><time>2026-04-12T10:21:10Z</time></trkpt><trkpt lat="44.5928869594094" lon="7.9340334037926095"><ele>402.0</ele><time>2026-04-12T10:21:15Z</time></trkpt><trkpt lat="44.59286175165114" lon="7.933938842820472"><ele>404.0</ele><time>2026-04-12T10:21:20Z</time></trkpt><trkpt lat="44.59284678375952" lon="7.933845044320535"><ele>406.0</ele><time>2026-04-12T10:21:23Z</time></trkpt><trkpt lat="44.59282938106483" lon="7.933734715261038"><ele>408.0</ele><time>2026-04-12T10:21:26Z</time></trkpt><trkpt lat="44.59280932146368" lon="7.933638950722074"><ele>409.99999999999994</ele><time>2026-04-12T10:21:28Z</time></trkpt><trkpt lat="44.592787230864715" lon="7.933544134557101"><ele>412.0</ele><time>2026-04-12T10:21:30Z</time></trkpt><trkpt lat="44.59276556263421" lon="7.9334530595565385"><ele>408.33333333333337</ele><time>2026-04-12T10:21:32Z</time></trkpt><trkpt lat="44.592743066215526" lon="7.933347957266295"><ele>404.6666666666667</ele><time>2026-04-12T10:21:35Z</time></trkpt><trkpt lat="44.59270793075511" lon="7.933251102207133"><ele>401.0</ele><time>2026-04-12T10:21:39Z</time></trkpt><trkpt lat="44.59267841980475" lon="7.933147085661587"><ele>397.33333333333337</ele><time>2026-04-12T10:21:43Z</time></trkpt><trkpt lat="44.592653532347704" lon="7.933045472466234"><ele>393.6666666666667</ele><time>2026-04-12T10:21:47Z</time></trkpt><trkpt lat="44.59263371961243" lon="7.932944095291199"><ele>390.0</ele><time>2026-04-12T10:21:52Z</time></trkpt><trkpt lat="44.59263483306201" lon="7.932852929663843"><ele>390.0</ele><time>2026-04-12T10:21:56Z</time></trkpt><trkpt lat="44.5926714586568" lon="7.932762205651914"><ele>390.0</ele><time>2026-04-12T10:22:01Z</time></trkpt><trkpt lat="44.59268266879392" lon="7.932674888682597"><ele>390.0</ele><time>2026-04-12T10:22:06Z</time></trkpt><trkpt lat="44.59265800096307" lon="7.932576006465026"><ele>390.0</ele><time>2026-04-12T10:22:12Z</time></trkpt><trkpt lat="44.592622698580065" lon="7.932494138025971"><ele>390.0</ele><time>2026-04-12T10:22:17Z</time></trkpt><trkpt lat="44.5925888339184" lon="7.932402313941844"><ele>390.0</ele><time>2026-04-12T10:22:22Z</time></trkpt><trkpt lat="44.59256125031717" lon="7.932322017825885"><ele>390.0</ele><time>2026-04-12T10:22:27Z</time></trkpt><trkpt lat="44.59252969683611" lon="7.93223679809615"><ele>391.2857142857143</ele><time>2026-04-12T10:22:32Z</time></trkpt><trkpt lat="44.5925001815554" lon="7.932151724275082"><ele>392.57142857142856</ele><time>2026-04-12T10:22:37Z</time></trkpt><trkpt lat="44.592478218466816" lon="7.932059911999374"><ele>393.8571428571429</ele><time>2026-04-12T10:22:42Z</time></trkpt><trkpt lat="44.592453349227796" lon="7.931976320436571"><ele>395.1428571428571</ele><time>2026-04-12T10:22:47Z</time></trkpt><trkpt lat="44.59243491267181" lon="7.931885197614657"><ele>396.42857142857144</ele><time>2026-04-12T10:22:52Z</time></trkpt><trkpt lat="44.59241167344974" lon="7.931799733579285"><ele>397.7142857142857</ele><time>2026-04-12T10:22:56Z</time></trkpt><trkpt lat="44.592371902541075" lon="7.9317212067039256"><ele>399.0</ele><time>2026-04-12T10:23:01Z</time></trkpt><trkpt lat="44.59233894118149" lon="7.93164204501444"><ele>397.8333333333333</ele><time>2026-04-12T10:23:05Z</time></trkpt><trkpt lat="44.59228527076847" lon="7.931577664577535"><ele>396.66666666666663</ele><time>2026-04-12T10:23:09Z</time></trkpt><trkpt lat="44.592226949825196" lon="7.931522589760325"><ele>395.5</ele><time>2026-04-12T10:23:13Z</time></trkpt><trkpt lat="44.592162323866596" lon="7.93146294133137"><ele>394.3333333333333</ele><time>2026-04-12T10:23:17Z</time></trkpt><trkpt lat="44.592095363370284" lon="7.931405022425535"><ele>393.16666666666663</ele><time>2026-04-12T10:23:21Z</time></trkpt><trkpt lat="44.59202500285344" lon="7.931345190259943"><ele>392.0</ele><time>2026-04-12T10:23:25Z</time></trkpt><trkpt lat="44.591956946321545" lon="7.931284267693968"><ele>391.99999999999994</ele><time>2026-04-12T10:23:29Z</time></trkpt><trkpt lat="44.59188372710541" lon="7.931244958842061"><ele>392.0</ele><time>2026-04-12T10:23:32Z</time></trkpt><trkpt lat="44.59180085623929" lon="7.931205792653967"><ele>392.0</ele><time>2026-04-12T10:23:35Z</time></trkpt><trkpt lat="44.591724102540454" lon="7.931162006957099"><ele>392.0</ele><time>2026-04-12T10:23:38Z</time></trkpt><trkpt lat="44.59164669220959" lon="7.931096851338556"><ele>391.99999999999994</ele><time>2026-04-12T10:23:41Z</time></trkpt><trkpt lat="44.59157530918549" lon="7.931033903411463"><ele>392.0</ele><time>2026-04-12T10:23:44Z</time></trkpt><trkpt lat="44.591510733620694" lon="7.930978023212836"><ele>392.0</ele><time>2026-04-12T10:23:47Z</time></trkpt><trkpt lat="44.591442025673786" lon="7.9309219253885574"><ele>392.0</ele><time>2026-04-12T10:23:50Z</time></trkpt><trkpt lat="44.591381165129356" lon="7.930875157945705"><ele>392.0</ele><time>2026-04-12T10:23:53Z</time></trkpt><trkpt lat="44.591321826804354" lon="7.930831125065659"><ele>392.0</ele><time>2026-04-12T10:23:56Z</time></trkpt><trkpt lat="44.59125185342957" lon="7.930776576862077"><ele>392.0</ele><time>2026-04-12T10:24:00Z</time></trkpt><trkpt lat="44.59118648636478" lon="7.930746567773756"><ele>392.0</ele><time>2026-04-12T10:24:04Z</time></trkpt><trkpt lat="44.591121609150946" lon="7.930702304243488"><ele>392.0</ele><time>2026-04-12T10:24:08Z</time></trkpt><trkpt lat="44.591044693172215" lon="7.9306729560454485"><ele>393.7142857142857</ele><time>2026-04-12T10:24:12Z</time></trkpt><trkpt lat="44.59096381927269" lon="7.930651495552151"><ele>395.42857142857144</ele><time>2026-04-12T10:24:16Z</time></trkpt><trkpt lat="44.5908902307147" lon="7.930632169581925"><ele>397.1428571428571</ele><time>2026-04-12T10:24:20Z</time></trkpt><trkpt lat="44.59081863433558" lon="7.930607598577592"><ele>398.8571428571429</ele><time>2026-04-12T10:24:24Z</time></trkpt><trkpt lat="44.590746701536084" lon="7.930583372537197"><ele>400.57142857142856</ele><time>2026-04-12T10:24:28Z</time></trkpt><trkpt lat="44.59068133441783" lon="7.930554611468721"><ele>402.2857142857143</ele><time>2026-04-12T10:24:32Z</time></trkpt><trkpt lat="44.59061822089257" lon="7.93054015593958"><ele>404.0</ele><time>2026-04-12T10:24:36Z</time></trkpt><trkpt lat="44.59055158248549" lon="7.930521337942179"><ele>404.0</ele><time>2026-04-12T10:24:40Z</time></trkpt><trkpt lat="44.5904794862215" lon="7.9304957351709255"><ele>404.0</ele><time>2026-04-12T10:24:45Z</time></trkpt><trkpt lat="44.59041312908645" lon="7.930473336005768"><ele>404.0</ele><time>2026-04-12T10:24:50Z</time></trkpt><trkpt lat="44.590342080071295" lon="7.9304531962234845"><ele>404.0</ele><time>2026-04-12T10:24:55Z</time></trkpt><trkpt lat="44.59027647518048" lon="7.9304349631807565"><ele>404.0</ele><time>2026-04-12T10:25:00Z</time></trkpt><trkpt lat="44.59020685381876" lon="7.930417228294038"><ele>404.0</ele><time>2026-04-12T10:25:05Z</time></trkpt><trkpt lat="44.59013841657288" lon="7.930394522891097"><ele>404.0</ele><time>2026-04-12T10:25:10Z</time></trkpt><trkpt lat="44.590068709861605" lon="7.930370621320032"><ele>404.57142857142856</ele><time>2026-04-12T10:25:15Z</time></trkpt><trkpt lat="44.59000691526446" lon="7.9303448066760485"><ele>405.1428571428571</ele><time>2026-04-12T10:25:19Z</time></trkpt><trkpt lat="44.589936069533984" lon="7.930311618803627"><ele>405.7142857142857</ele><time>2026-04-12T10:25:23Z</time></trkpt><trkpt lat="44.589869232200854" lon="7.930277135746986"><ele>406.2857142857143</ele><time>2026-04-12T10:25:27Z</time></trkpt><trkpt lat="44.58979496338347" lon="7.930245385584526"><ele>406.8571428571429</ele><time>2026-04-12T10:25:31Z</time></trkpt><trkpt lat="44.589722952527865" lon="7.930265775466932"><ele>407.42857142857144</ele><time>2026-04-12T10:25:33Z</time></trkpt><trkpt lat="44.58969228247981" lon="7.930179736056105"><ele>408.0</ele><time>2026-04-12T10:25:37Z</time></trkpt><trkpt lat="44.58962772043859" lon="7.930138393521037"><ele>408.0</ele><time>2026-04-12T10:25:41Z</time></trkpt><trkpt lat="44.58958215834129" lon="7.930061693203343"><ele>408.0</ele><time>2026-04-12T10:25:45Z</time></trkpt><trkpt lat="44.58952576690069" lon="7.930007332566315"><ele>408.0</ele><time>2026-04-12T10:25:49Z</time></trkpt><trkpt lat="44.58947212024852" lon="7.929947276255054"><ele>408.0</ele><time>2026-04-12T10:25:53Z</time></trkpt><trkpt lat="44.589419982782616" lon="7.929871116240565"><ele>408.0</ele><time>2026-04-12T10:25:57Z</time></trkpt><trkpt lat="44.58936772521879" lon="7.929796480906831"><ele>408.0</ele><time>2026-04-12T10:26:01Z</time></trkpt><trkpt lat="44.589316539367985" lon="7.929719841854381"><ele>408.0</ele><time>2026-04-12T10:26:05Z</time></trkpt><trkpt lat="44.58927526667998" lon="7.92963520091226"><ele>409.6666666666667</ele><time>2026-04-12T10:26:09Z</time></trkpt><trkpt lat="44.58924487594978" lon="7.9295424521788265"><ele>411.33333333333337</ele><time>2026-04-12T10:26:13Z</time></trkpt><trkpt lat="44.58922037313698" lon="7.929442927097452"><ele>413.0</ele><time>2026-04-12T10:26:17Z</time></trkpt><trkpt lat="44.58919027440952" lon="7.9293418534809685"><ele>414.6666666666667</ele><time>2026-04-12T10:26:21Z</time></trkpt><trkpt lat="44.5891555471176" lon="7.929242513316716"><ele>416.33333333333337</ele><time>2026-04-12T10:26:25Z</time></trkpt><trkpt lat="44.58909817839421" lon="7.9291732441237155"><ele>418.0</ele><time>2026-04-12T10:26:29Z</time></trkpt><trkpt lat="44.58903359642563" lon="7.9291374095964455"><ele>420.42857142857144</ele><time>2026-04-12T10:26:33Z</time></trkpt><trkpt lat="44.58896932545991" lon="7.9290995017716215"><ele>422.85714285714283</ele><time>2026-04-12T10:26:37Z</time></trkpt><trkpt lat="44.588897967499236" lon="7.929054206043281"><ele>425.28571428571433</ele><time>2026-04-12T10:26:42Z</time></trkpt><trkpt lat="44.588837030467786" lon="7.929029580149146"><ele>427.7142857142857</ele><time>2026-04-12T10:26:46Z</time></trkpt><trkpt lat="44.58876450523446" lon="7.929008772068357"><ele>430.14285714285717</ele><time>2026-04-12T10:26:51Z</time></trkpt><trkpt lat="44.58870025810055" lon="7.929002754846477"><ele>432.5714285714286</ele><time>2026-04-12T10:26:55Z</time></trkpt><trkpt lat="44.58863555519015" lon="7.929013176771145"><ele>435.0</ele><time>2026-04-12T10:26:59Z</time></trkpt><trkpt lat="44.58855892648502" lon="7.92903730932534"><ele>436.00000000000006</ele><time>2026-04-12T10:27:04Z</time></trkpt><trkpt lat="44.58849500072523" lon="7.929068971912631"><ele>437.0</ele><time>2026-04-12T10:27:08Z</time></trkpt><trkpt lat="44.58841564485333" lon="7.929093355694308"><ele>438.0</ele><time>2026-04-12T10:27:13Z</time></trkpt><trkpt lat="44.58834364932657" lon="7.929139318820874"><ele>439.0</ele><time>2026-04-12T10:27:18Z</time></trkpt><trkpt lat="44.588280416432326" lon="7.929165040480225"><ele>440.0</ele><time>2026-04-12T10:27:22Z</time></trkpt><trkpt lat="44.58821982743276" lon="7.929198205900147"><ele>441.00000000000006</ele><time>2026-04-12T10:27:26Z</time></trkpt><trkpt lat="44.58814341684784" lon="7.9292261208535155"><ele>442.0</ele><time>2026-04-12T10:27:31Z</time></trkpt><trkpt lat="44.5880789167745" lon="7.929241150547786"><ele>442.42857142857144</ele><time>2026-04-12T10:27:35Z</time></trkpt><trkpt lat="44.58801205578991" lon="7.929251773636506"><ele>442.8571428571429</ele><time>2026-04-12T10:27:39Z</time></trkpt><trkpt lat="44.587948947074416" lon="7.929256069197072"><ele>443.28571428571433</ele><time>2026-04-12T10:27:43Z</time></trkpt><trkpt lat="44.58786722969812" lon="7.929243163073079"><ele>443.7142857142857</ele><time>2026-04-12T10:27:48Z</time></trkpt><trkpt lat="44.58780118188173" lon="7.929236353983247"><ele>444.1428571428571</ele><time>2026-04-12T10:27:52Z</time></trkpt><trkpt lat="44.587733911226145" lon="7.929222181983447"><ele>444.5714285714286</ele><time>2026-04-12T10:27:57Z</time></trkpt><trkpt lat="44.58772645757039" lon="7.92913196441105"><ele>445.0</ele><time>2026-04-12T10:28:01Z</time></trkpt><trkpt lat="44.58778039211575" lon="7.929060173088633"><ele>445.0</ele><time>2026-04-12T10:28:06Z</time></trkpt><trkpt lat="44.587842342039096" lon="7.929004035471501"><ele>445.0</ele><time>2026-04-12T10:28:11Z</time></trkpt><trkpt lat="44.5879019829296" lon="7.9289714987304"><ele>445.0</ele><time>2026-04-12T10:28:16Z</time></trkpt><trkpt lat="44.5879533486857" lon="7.928903507811621"><ele>445.0</ele><time>2026-04-12T10:28:21Z</time></trkpt><trkpt lat="44.588008838718295" lon="7.928845134991306"><ele>445.0</ele><time>2026-04-12T10:28:26Z</time></trkpt><trkpt lat="44.58806449280022" lon="7.92877320539186"><ele>445.0</ele><time>2026-04-12T10:28:31Z</time></trkpt><trkpt lat="44.58811885028284" lon="7.9287106690993205"><ele>445.0</ele><time>2026-04-12T10:28:36Z</time></trkpt><trkpt lat="44.588156249497125" lon="7.9286385265527475"><ele>444.5714285714286</ele><time>2026-04-12T10:28:40Z</time></trkpt><trkpt lat="44.58820811663594" lon="7.928569510217972"><ele>444.1428571428571</ele><time>2026-04-12T10:28:45Z</time></trkpt><trkpt lat="44.58824026214591" lon="7.928469732937054"><ele>443.7142857142857</ele><time>2026-04-12T10:28:50Z</time></trkpt><trkpt lat="44.58828683971041" lon="7.928386719975253"><ele>443.28571428571433</ele><time>2026-04-12T10:28:55Z</time></trkpt><trkpt lat="44.588303914977175" lon="7.928288205983343"><ele>442.8571428571429</ele><time>2026-04-12T10:29:00Z</time></trkpt><trkpt lat="44.58832565407728" lon="7.928202647680204"><ele>442.42857142857144</ele><time>2026-04-12T10:29:04Z</time></trkpt><trkpt lat="44.58836164884518" lon="7.928111356876756"><ele>442.0</ele><time>2026-04-12T10:29:09Z</time></trkpt><trkpt lat="44.58839312263365" lon="7.928012512676034"><ele>444.8571428571429</ele><time>2026-04-12T10:29:14Z</time></trkpt><trkpt lat="44.588428835589674" lon="7.927928098218106"><ele>447.7142857142857</ele><time>2026-04-12T10:29:19Z</time></trkpt><trkpt lat="44.58846971448371" lon="7.927838464133014"><ele>450.57142857142856</ele><time>2026-04-12T10:29:24Z</time></trkpt><trkpt lat="44.58850511312268" lon="7.927759992634869"><ele>453.42857142857144</ele><time>2026-04-12T10:29:28Z</time></trkpt><trkpt lat="44.588551376363796" lon="7.927686257686081"><ele>456.2857142857143</ele><time>2026-04-12T10:29:32Z</time></trkpt><trkpt lat="44.58861388687895" lon="7.927627474275532"><ele>459.14285714285717</ele><time>2026-04-12T10:29:36Z</time></trkpt><trkpt lat="44.5886607694049" lon="7.927554554563469"><ele>462.0</ele><time>2026-04-12T10:29:40Z</time></trkpt><trkpt lat="44.588723723557855" lon="7.927501831180047"><ele>462.0</ele><time>2026-04-12T10:29:45Z</time></trkpt><trkpt lat="44.58877336392373" lon="7.9274394249543185"><ele>462.0</ele><time>2026-04-12T10:29:50Z</time></trkpt><trkpt lat="44.58870130772625" lon="7.927433652888234"><ele>462.0</ele><time>2026-04-12T10:29:59Z</time></trkpt><trkpt lat="44.58863951892981" lon="7.9274952384831865"><ele>462.0</ele><time>2026-04-12T10:30:05Z</time></trkpt><trkpt lat="44.588584431272025" lon="7.927557032734694"><ele>462.0</ele><time>2026-04-12T10:30:10Z</time></trkpt><trkpt lat="44.58852652172087" lon="7.927596788457431"><ele>462.0</ele><time>2026-04-12T10:30:15Z</time></trkpt><trkpt lat="44.588464182018555" lon="7.927581448501281"><ele>462.0</ele><time>2026-04-12T10:30:19Z</time></trkpt><trkpt lat="44.588407889752474" lon="7.927535271575593"><ele>463.1666666666667</ele><time>2026-04-12T10:30:23Z</time></trkpt><trkpt lat="44.58833184867948" lon="7.927539228765903"><ele>464.33333333333337</ele><time>2026-04-12T10:30:28Z</time></trkpt><trkpt lat="44.5882583177896" lon="7.927519436425697"><ele>465.5</ele><time>2026-04-12T10:30:32Z</time></trkpt><trkpt lat="44.588188439668414" lon="7.927531248835687"><ele>466.6666666666667</ele><time>2026-04-12T10:30:37Z</time></trkpt><trkpt lat="44.58815086882187" lon="7.927398768761709"><ele>467.83333333333337</ele><time>2026-04-12T10:30:57Z</time></trkpt><trkpt lat="44.58815072038437" lon="7.927297414509256"><ele>469.0</ele><time>2026-04-12T10:31:03Z</time></trkpt><trkpt lat="44.588117319247374" lon="7.927189693993719"><ele>469.0</ele><time>2026-04-12T10:31:07Z</time></trkpt><trkpt lat="44.588098263744776" lon="7.927103271369753"><ele>469.0</ele><time>2026-04-12T10:31:11Z</time></trkpt><trkpt lat="44.58808928408336" lon="7.926995425769342"><ele>469.0</ele><time>2026-04-12T10:31:28Z</time></trkpt><trkpt lat="44.588102487342056" lon="7.926901520761272"><ele>469.0</ele><time>2026-04-12T10:31:40Z</time></trkpt><trkpt lat="44.58817560161228" lon="7.926911921673082"><ele>469.0</ele><time>2026-04-12T10:31:52Z</time></trkpt><trkpt lat="44.58824218676716" lon="7.9269397177748635"><ele>469.0</ele><time>2026-04-12T10:31:56Z</time></trkpt><trkpt lat="44.58831603488079" lon="7.926970896538168"><ele>469.0</ele><time>2026-04-12T10:32:01Z</time></trkpt><trkpt lat="44.58838893786352" lon="7.926982990686948"><ele>469.0</ele><time>2026-04-12T10:32:06Z</time></trkpt><trkpt lat="44.58843934944032" lon="7.927041998424131"><ele>469.0</ele><time>2026-04-12T10:32:10Z</time></trkpt><trkpt lat="44.58850339008716" lon="7.927062817282457"><ele>469.0</ele><time>2026-04-12T10:32:14Z</time></trkpt><trkpt lat="44.588434610920906" lon="7.927033332265747"><ele>469.0</ele><time>2026-04-12T10:32:26Z</time></trkpt><trkpt lat="44.588366482687896" lon="7.926989161734579"><ele>469.0</ele><time>2026-04-12T10:32:29Z</time></trkpt><trkpt lat="44.58827833790983" lon="7.926981028166256"><ele>469.0</ele><time>2026-04-12T10:32:32Z</time></trkpt><trkpt lat="44.58821061102714" lon="7.9269467409944845"><ele>469.0</ele><time>2026-04-12T10:32:34Z</time></trkpt><trkpt lat="44.588112148516394" lon="7.926942466925999"><ele>469.00000000000006</ele><time>2026-04-12T10:32:37Z</time></trkpt><trkpt lat="44.58803782684375" lon="7.926950803405583"><ele>469.0</ele><time>2026-04-12T10:32:39Z</time></trkpt><trkpt lat="44.58795796500433" lon="7.926949697744133"><ele>469.0</ele><time>2026-04-12T10:32:41Z</time></trkpt><trkpt lat="44.587875945360835" lon="7.926955418733941"><ele>469.0</ele><time>2026-04-12T10:32:43Z</time></trkpt><trkpt lat="44.58779557516408" lon="7.926993236737798"><ele>469.00000000000006</ele><time>2026-04-12T10:32:45Z</time></trkpt><trkpt lat="44.587723360016554" lon="7.9270052479619"><ele>469.0</ele><time>2026-04-12T10:32:47Z</time></trkpt><trkpt lat="44.58764750350667" lon="7.9269503238729895"><ele>469.0</ele><time>2026-04-12T10:32:50Z</time></trkpt><trkpt lat="44.587680116571306" lon="7.926849155325747"><ele>469.0</ele><time>2026-04-12T10:32:54Z</time></trkpt><trkpt lat="44.58774903607741" lon="7.926831198112715"><ele>469.0</ele><time>2026-04-12T10:32:56Z</time></trkpt><trkpt lat="44.587824428116136" lon="7.926825192910852"><ele>469.0</ele><time>2026-04-12T10:32:58Z</time></trkpt><trkpt lat="44.587896351633674" lon="7.92681910362044"><ele>469.0</ele><time>2026-04-12T10:33:00Z</time></trkpt><trkpt lat="44.58796379182021" lon="7.926794160219694"><ele>469.0</ele><time>2026-04-12T10:33:02Z</time></trkpt><trkpt lat="44.588038685150586" lon="7.9267881753386895"><ele>469.0</ele><time>2026-04-12T10:33:04Z</time></trkpt><trkpt lat="44.58811226684219" lon="7.926772180564022"><ele>469.00000000000006</ele><time>2026-04-12T10:33:06Z</time></trkpt><trkpt lat="44.58817800596705" lon="7.926756295822618"><ele>469.0</ele><time>2026-04-12T10:33:08Z</time></trkpt><trkpt lat="44.58825361748198" lon="7.926695719552867"><ele>469.0</ele><time>2026-04-12T10:33:11Z</time></trkpt><trkpt lat="44.58829109156401" lon="7.926615043481433"><ele>469.0</ele><time>2026-04-12T10:33:13Z</time></trkpt><trkpt lat="44.58836246638265" lon="7.926566438302856"><ele>469.00000000000006</ele><time>2026-04-12T10:33:15Z</time></trkpt><trkpt lat="44.588447639833916" lon="7.926522010748642"><ele>469.0</ele><time>2026-04-12T10:33:17Z</time></trkpt><trkpt lat="44.588532116946375" lon="7.92646804074548"><ele>466.83333333333337</ele><time>2026-04-12T10:33:19Z</time></trkpt><trkpt lat="44.588613725888244" lon="7.926405380262453"><ele>464.6666666666667</ele><time>2026-04-12T10:33:21Z</time></trkpt><trkpt lat="44.588692302316794" lon="7.926334742977729"><ele>462.5</ele><time>2026-04-12T10:33:23Z</time></trkpt><trkpt lat="44.58875090307054" lon="7.926282088642473"><ele>460.33333333333337</ele><time>2026-04-12T10:33:25Z</time></trkpt><trkpt lat="44.588804547362756" lon="7.926226420725071"><ele>458.1666666666667</ele><time>2026-04-12T10:33:27Z</time></trkpt><trkpt lat="44.588878728338486" lon="7.926181298490147"><ele>456.0</ele><time>2026-04-12T10:33:29Z</time></trkpt><trkpt lat="44.588973516396734" lon="7.926135610369325"><ele>456.0</ele><time>2026-04-12T10:33:31Z</time></trkpt><trkpt lat="44.58906553379494" lon="7.926116698507975"><ele>456.0</ele><time>2026-04-12T10:33:33Z</time></trkpt><trkpt lat="44.58917112523674" lon="7.926087839437504"><ele>456.0</ele><time>2026-04-12T10:33:35Z</time></trkpt><trkpt lat="44.58928057598663" lon="7.926063822751242"><ele>456.0</ele><time>2026-04-12T10:33:37Z</time></trkpt><trkpt lat="44.58938876603558" lon="7.9260343518819045"><ele>456.0</ele><time>2026-04-12T10:33:39Z</time></trkpt><trkpt lat="44.58949838811205" lon="7.9260092616486855"><ele>454.6</ele><time>2026-04-12T10:33:41Z</time></trkpt><trkpt lat="44.589599986575486" lon="7.926001446346803"><ele>453.20000000000005</ele><time>2026-04-12T10:33:43Z</time></trkpt><trkpt lat="44.58971302166888" lon="7.925992110323539"><ele>451.79999999999995</ele><time>2026-04-12T10:33:45Z</time></trkpt><trkpt lat="44.58981299492309" lon="7.925955411429659"><ele>450.4</ele><time>2026-04-12T10:33:47Z</time></trkpt><trkpt lat="44.58990439332056" lon="7.92591942886686"><ele>449.0</ele><time>2026-04-12T10:33:49Z</time></trkpt><trkpt lat="44.58997233835024" lon="7.925888327896545"><ele>446.0</ele><time>2026-04-12T10:33:51Z</time></trkpt><trkpt lat="44.59006121612869" lon="7.925864310880812"><ele>443.0</ele><time>2026-04-12T10:33:54Z</time></trkpt><trkpt lat="44.59006590615652" lon="7.925676302101004"><ele>440.0</ele><time>2026-04-12T10:33:57Z</time></trkpt><trkpt lat="44.59006327741164" lon="7.925558718973727"><ele>437.0</ele><time>2026-04-12T10:33:59Z</time></trkpt><trkpt lat="44.59005847789418" lon="7.925414126107852"><ele>434.0</ele><time>2026-04-12T10:34:01Z</time></trkpt><trkpt lat="44.59005505931758" lon="7.925276772395501"><ele>433.99999999999994</ele><time>2026-04-12T10:34:03Z</time></trkpt><trkpt lat="44.59005757759042" lon="7.925154804792632"><ele>434.0</ele><time>2026-04-12T10:34:05Z</time></trkpt><trkpt lat="44.59006027698747" lon="7.9250459006610825"><ele>434.0</ele><time>2026-04-12T10:34:07Z</time></trkpt><trkpt lat="44.59006551681234" lon="7.924929305985148"><ele>434.0</ele><time>2026-04-12T10:34:09Z</time></trkpt><trkpt lat="44.59007132332925" lon="7.924795526821816"><ele>433.99999999999994</ele><time>2026-04-12T10:34:11Z</time></trkpt><trkpt lat="44.590072559272244" lon="7.924666642835455"><ele>434.0</ele><time>2026-04-12T10:34:13Z</time></trkpt><trkpt lat="44.590070499654594" lon="7.9245550088159735"><ele>432.66666666666663</ele><time>2026-04-12T10:34:15Z</time></trkpt><trkpt lat="44.59006871783723" lon="7.92443295704639"><ele>431.3333333333333</ele><time>2026-04-12T10:34:17Z</time></trkpt><trkpt lat="44.590067873575755" lon="7.924320715996857"><ele>430.0</ele><time>2026-04-12T10:34:19Z</time></trkpt><trkpt lat="44.590067321078365" lon="7.924209308180734"><ele>428.66666666666663</ele><time>2026-04-12T10:34:21Z</time></trkpt><trkpt lat="44.59006762264549" lon="7.924087501374405"><ele>427.3333333333333</ele><time>2026-04-12T10:34:23Z</time></trkpt><trkpt lat="44.59006075175145" lon="7.923971825202416"><ele>426.0</ele><time>2026-04-12T10:34:25Z</time></trkpt><trkpt lat="44.590021928380644" lon="7.923879852534277"><ele>424.3333333333333</ele><time>2026-04-12T10:34:27Z</time></trkpt><trkpt lat="44.59006691815273" lon="7.923793365136793"><ele>422.66666666666663</ele><time>2026-04-12T10:34:28Z</time></trkpt><trkpt lat="44.59007090844114" lon="7.92366966721364"><ele>421.0</ele><time>2026-04-12T10:34:30Z</time></trkpt><trkpt lat="44.590070270698604" lon="7.923542756090432"><ele>419.3333333333333</ele><time>2026-04-12T10:34:32Z</time></trkpt><trkpt lat="44.59007663597745" lon="7.923422048209021"><ele>417.66666666666663</ele><time>2026-04-12T10:34:34Z</time></trkpt><trkpt lat="44.59007873071412" lon="7.923300398602742"><ele>416.0</ele><time>2026-04-12T10:34:36Z</time></trkpt><trkpt lat="44.59007817701435" lon="7.9231750476710445"><ele>414.49999999999994</ele><time>2026-04-12T10:34:38Z</time></trkpt><trkpt lat="44.59007923335534" lon="7.923056833301357"><ele>413.0</ele><time>2026-04-12T10:34:40Z</time></trkpt><trkpt lat="44.590078793117215" lon="7.922943133874205"><ele>411.5</ele><time>2026-04-12T10:34:42Z</time></trkpt><trkpt lat="44.59007627453273" lon="7.9228334270536225"><ele>410.0</ele><time>2026-04-12T10:34:44Z</time></trkpt><trkpt lat="44.59007961323192" lon="7.922738244037351"><ele>408.49999999999994</ele><time>2026-04-12T10:34:46Z</time></trkpt><trkpt lat="44.59008548288165" lon="7.922604591493033"><ele>407.0</ele><time>2026-04-12T10:34:48Z</time></trkpt><trkpt lat="44.59009305338802" lon="7.92249115509965"><ele>405.49999999999994</ele><time>2026-04-12T10:34:50Z</time></trkpt><trkpt lat="44.59010936954336" lon="7.922374004524918"><ele>404.0</ele><time>2026-04-12T10:34:52Z</time></trkpt><trkpt lat="44.59013166465046" lon="7.922264132577055"><ele>402.5</ele><time>2026-04-12T10:34:54Z</time></trkpt><trkpt lat="44.59014657208247" lon="7.922152513779483"><ele>401.0</ele><time>2026-04-12T10:34:56Z</time></trkpt><trkpt lat="44.59016884788688" lon="7.9220197632120835"><ele>399.49999999999994</ele><time>2026-04-12T10:34:58Z</time></trkpt><trkpt lat="44.59018858594985" lon="7.9218781276493955"><ele>398.0</ele><time>2026-04-12T10:35:00Z</time></trkpt><trkpt lat="44.59021034242724" lon="7.921730976913351"><ele>396.4</ele><time>2026-04-12T10:35:02Z</time></trkpt><trkpt lat="44.590232463148865" lon="7.921574633854505"><ele>394.79999999999995</ele><time>2026-04-12T10:35:04Z</time></trkpt><trkpt lat="44.59025508829894" lon="7.921414785967999"><ele>393.2</ele><time>2026-04-12T10:35:06Z</time></trkpt><trkpt lat="44.59027392473263" lon="7.9212452508076545"><ele>391.6</ele><time>2026-04-12T10:35:08Z</time></trkpt><trkpt lat="44.59028250824744" lon="7.921156295464164"><ele>390.0</ele><time>2026-04-12T10:35:09Z</time></trkpt><trkpt lat="44.59029324075757" lon="7.921065759972496"><ele>390.0</ele><time>2026-04-12T10:35:10Z</time></trkpt><trkpt lat="44.59030043875051" lon="7.920971598717175"><ele>390.0</ele><time>2026-04-12T10:35:11Z</time></trkpt><trkpt lat="44.59030634024178" lon="7.920871921649402"><ele>390.0</ele><time>2026-04-12T10:35:12Z</time></trkpt><trkpt lat="44.590318397639294" lon="7.9207736331300875"><ele>390.0</ele><time>2026-04-12T10:35:13Z</time></trkpt><trkpt lat="44.59033655439875" lon="7.920666140391939"><ele>390.0</ele><time>2026-04-12T10:35:14Z</time></trkpt><trkpt lat="44.59036424734978" lon="7.920559744970157"><ele>390.0</ele><time>2026-04-12T10:35:15Z</time></trkpt><trkpt lat="44.59039036810029" lon="7.920457357757541"><ele>390.0</ele><time>2026-04-12T10:35:16Z</time></trkpt><trkpt lat="44.59041647893529" lon="7.920348111553796"><ele>390.6666666666667</ele><time>2026-04-12T10:35:17Z</time></trkpt><trkpt lat="44.59044631452151" lon="7.9202335611760954"><ele>391.33333333333337</ele><time>2026-04-12T10:35:18Z</time></trkpt><trkpt lat="44.59048011940002" lon="7.920123440447404"><ele>392.0</ele><time>2026-04-12T10:35:19Z</time></trkpt><trkpt lat="44.59051305256672" lon="7.920011550840114"><ele>392.6666666666667</ele><time>2026-04-12T10:35:20Z</time></trkpt><trkpt lat="44.59054471842055" lon="7.919898318837795"><ele>393.33333333333337</ele><time>2026-04-12T10:35:21Z</time></trkpt><trkpt lat="44.59057820337646" lon="7.919790004941262"><ele>394.0</ele><time>2026-04-12T10:35:22Z</time></trkpt><trkpt lat="44.590612649241436" lon="7.919681486962837"><ele>392.33333333333337</ele><time>2026-04-12T10:35:23Z</time></trkpt><trkpt lat="44.59064910081685" lon="7.9195757018190465"><ele>390.6666666666667</ele><time>2026-04-12T10:35:24Z</time></trkpt><trkpt lat="44.590689107596475" lon="7.919473955881336"><ele>389.0</ele><time>2026-04-12T10:35:25Z</time></trkpt><trkpt lat="44.59073325162879" lon="7.919381249281476"><ele>387.33333333333337</ele><time>2026-04-12T10:35:26Z</time></trkpt><trkpt lat="44.59078916169411" lon="7.919291729805901"><ele>385.6666666666667</ele><time>2026-04-12T10:35:27Z</time></trkpt><trkpt lat="44.590844241930355" lon="7.919209926577813"><ele>384.0</ele><time>2026-04-12T10:35:28Z</time></trkpt><trkpt lat="44.590901345179255" lon="7.919130804129612"><ele>383.85714285714283</ele><time>2026-04-12T10:35:29Z</time></trkpt><trkpt lat="44.59095938537056" lon="7.919058919411081"><ele>383.7142857142857</ele><time>2026-04-12T10:35:30Z</time></trkpt><trkpt lat="44.591016804632076" lon="7.918987309187"><ele>383.57142857142856</ele><time>2026-04-12T10:35:31Z</time></trkpt><trkpt lat="44.591072588017745" lon="7.918918487692657"><ele>383.42857142857144</ele><time>2026-04-12T10:35:32Z</time></trkpt><trkpt lat="44.59112632369833" lon="7.918852080852858"><ele>383.2857142857143</ele><time>2026-04-12T10:35:33Z</time></trkpt><trkpt lat="44.59117898509019" lon="7.918786225285597"><ele>383.1428571428571</ele><time>2026-04-12T10:35:34Z</time></trkpt><trkpt lat="44.59123083364838" lon="7.918724036354067"><ele>383.0</ele><time>2026-04-12T10:35:35Z</time></trkpt><trkpt lat="44.59128040997042" lon="7.9186634292672755"><ele>383.0</ele><time>2026-04-12T10:35:36Z</time></trkpt><trkpt lat="44.591328641433634" lon="7.918602401420421"><ele>383.0</ele><time>2026-04-12T10:35:37Z</time></trkpt><trkpt lat="44.591375142633964" lon="7.918542171723503"><ele>383.0</ele><time>2026-04-12T10:35:38Z</time></trkpt><trkpt lat="44.591466265717635" lon="7.9184286671432735"><ele>383.0</ele><time>2026-04-12T10:35:40Z</time></trkpt><trkpt lat="44.5915523545321" lon="7.91831851167927"><ele>383.0</ele><time>2026-04-12T10:35:42Z</time></trkpt><trkpt lat="44.591635570587634" lon="7.918210268236207"><ele>379.5</ele><time>2026-04-12T10:35:44Z</time></trkpt><trkpt lat="44.59171388230984" lon="7.918104905251786"><ele>376.0</ele><time>2026-04-12T10:35:46Z</time></trkpt><trkpt lat="44.59179635652929" lon="7.9180024938248685"><ele>372.5</ele><time>2026-04-12T10:35:48Z</time></trkpt><trkpt lat="44.591880725557026" lon="7.917887891499876"><ele>369.0</ele><time>2026-04-12T10:35:50Z</time></trkpt><trkpt lat="44.59196071613013" lon="7.917760316940987"><ele>369.0</ele><time>2026-04-12T10:35:52Z</time></trkpt><trkpt lat="44.59199962675474" lon="7.917685759727102"><ele>369.0</ele><time>2026-04-12T10:35:53Z</time></trkpt><trkpt lat="44.592039567004164" lon="7.917610355207104"><ele>369.0</ele><time>2026-04-12T10:35:54Z</time></trkpt><trkpt lat="44.59207683260699" lon="7.91753043413989"><ele>369.0</ele><time>2026-04-12T10:35:55Z</time></trkpt><trkpt lat="44.59211153089702" lon="7.917443779359485"><ele>369.0</ele><time>2026-04-12T10:35:56Z</time></trkpt><trkpt lat="44.59214876813808" lon="7.917357348765605"><ele>369.0</ele><time>2026-04-12T10:35:57Z</time></trkpt><trkpt lat="44.59218592528905" lon="7.917269773590348"><ele>369.0</ele><time>2026-04-12T10:35:58Z</time></trkpt><trkpt lat="44.59222111659246" lon="7.91717548604266"><ele>368.1666666666667</ele><time>2026-04-12T10:35:59Z</time></trkpt><trkpt lat="44.59225276917259" lon="7.917076530083037"><ele>367.3333333333333</ele><time>2026-04-12T10:36:00Z</time></trkpt><trkpt lat="44.59228405867339" lon="7.916977815830128"><ele>366.5</ele><time>2026-04-12T10:36:01Z</time></trkpt><trkpt lat="44.59231808485537" lon="7.916878650158136"><ele>365.66666666666663</ele><time>2026-04-12T10:36:02Z</time></trkpt><trkpt lat="44.59235323096278" lon="7.91677990394296"><ele>364.8333333333333</ele><time>2026-04-12T10:36:03Z</time></trkpt><trkpt lat="44.592383632209064" lon="7.916678633426654"><ele>364.0</ele><time>2026-04-12T10:36:04Z</time></trkpt><trkpt lat="44.592414015080756" lon="7.916578864836746"><ele>363.0</ele><time>2026-04-12T10:36:05Z</time></trkpt><trkpt lat="44.59244553708224" lon="7.916487488181712"><ele>362.0</ele><time>2026-04-12T10:36:06Z</time></trkpt><trkpt lat="44.59247679843174" lon="7.916393867676781"><ele>361.0</ele><time>2026-04-12T10:36:07Z</time></trkpt><trkpt lat="44.592502646210754" lon="7.916304288893333"><ele>360.0</ele><time>2026-04-12T10:36:08Z</time></trkpt><trkpt lat="44.592527920329026" lon="7.916215382945783"><ele>359.0</ele><time>2026-04-12T10:36:09Z</time></trkpt><trkpt lat="44.592556980182195" lon="7.916127523619987"><ele>358.0</ele><time>2026-04-12T10:36:10Z</time></trkpt><trkpt lat="44.59258608171439" lon="7.916041014211858"><ele>357.0</ele><time>2026-04-12T10:36:11Z</time></trkpt><trkpt lat="44.592615945750104" lon="7.9159558817570055"><ele>356.0</ele><time>2026-04-12T10:36:12Z</time></trkpt><trkpt lat="44.59264510322852" lon="7.915876597823909"><ele>355.0</ele><time>2026-04-12T10:36:13Z</time></trkpt><trkpt lat="44.592710252272056" lon="7.91573034531408"><ele>354.0</ele><time>2026-04-12T10:36:15Z</time></trkpt><trkpt lat="44.592760352036905" lon="7.9155767952621945"><ele>353.0</ele><time>2026-04-12T10:36:17Z</time></trkpt><trkpt lat="44.59282292086018" lon="7.915441381321516"><ele>352.0</ele><time>2026-04-12T10:36:19Z</time></trkpt><trkpt lat="44.592884992949855" lon="7.915315785623706"><ele>351.8</ele><time>2026-04-12T10:36:21Z</time></trkpt><trkpt lat="44.59294585985314" lon="7.915193044097427"><ele>351.6</ele><time>2026-04-12T10:36:23Z</time></trkpt><trkpt lat="44.592998281793825" lon="7.9150668170601035"><ele>351.40000000000003</ele><time>2026-04-12T10:36:25Z</time></trkpt><trkpt lat="44.593061731954975" lon="7.914934103896733"><ele>351.20000000000005</ele><time>2026-04-12T10:36:27Z</time></trkpt><trkpt lat="44.59313323633791" lon="7.914805098424526"><ele>351.0</ele><time>2026-04-12T10:36:29Z</time></trkpt><trkpt lat="44.59317475598203" lon="7.9147380479223655"><ele>350.7142857142857</ele><time>2026-04-12T10:36:30Z</time></trkpt><trkpt lat="44.59322235409802" lon="7.914676857209591"><ele>350.42857142857144</ele><time>2026-04-12T10:36:31Z</time></trkpt><trkpt lat="44.59327375845762" lon="7.914615184003937"><ele>350.1428571428571</ele><time>2026-04-12T10:36:32Z</time></trkpt><trkpt lat="44.593325160387316" lon="7.9145475549550905"><ele>349.8571428571429</ele><time>2026-04-12T10:36:33Z</time></trkpt><trkpt lat="44.59337747252109" lon="7.914479288256097"><ele>349.57142857142856</ele><time>2026-04-12T10:36:34Z</time></trkpt><trkpt lat="44.59343111522899" lon="7.914412011661252"><ele>349.2857142857143</ele><time>2026-04-12T10:36:35Z</time></trkpt><trkpt lat="44.59348339367654" lon="7.914341802570779"><ele>349.0</ele><time>2026-04-12T10:36:36Z</time></trkpt><trkpt lat="44.59353563275121" lon="7.914272157009521"><ele>349.0</ele><time>2026-04-12T10:36:37Z</time></trkpt><trkpt lat="44.593592204825185" lon="7.914199929374256"><ele>349.0</ele><time>2026-04-12T10:36:38Z</time></trkpt><trkpt lat="44.593650334835644" lon="7.914128470444426"><ele>349.0</ele><time>2026-04-12T10:36:39Z</time></trkpt><trkpt lat="44.5937077418112" lon="7.914059287447931"><ele>349.0</ele><time>2026-04-12T10:36:40Z</time></trkpt><trkpt lat="44.59376595457238" lon="7.913991359546664"><ele>349.0</ele><time>2026-04-12T10:36:41Z</time></trkpt><trkpt lat="44.59382370091271" lon="7.913922953897643"><ele>349.0</ele><time>2026-04-12T10:36:42Z</time></trkpt><trkpt lat="44.59387891593709" lon="7.913852327740187"><ele>347.3333333333333</ele><time>2026-04-12T10:36:43Z</time></trkpt><trkpt lat="44.59393614423875" lon="7.913784438437709"><ele>345.66666666666663</ele><time>2026-04-12T10:36:44Z</time></trkpt><trkpt lat="44.593993691128695" lon="7.913715322507353"><ele>344.0</ele><time>2026-04-12T10:36:45Z</time></trkpt><trkpt lat="44.594050839851015" lon="7.913650318293555"><ele>342.3333333333333</ele><time>2026-04-12T10:36:46Z</time></trkpt><trkpt lat="44.59410741234699" lon="7.913579039771906"><ele>340.6666666666667</ele><time>2026-04-12T10:36:47Z</time></trkpt><trkpt lat="44.59416384886187" lon="7.913510312270309"><ele>339.0</ele><time>2026-04-12T10:36:48Z</time></trkpt><trkpt lat="44.594223014104436" lon="7.913440817096817"><ele>339.2857142857143</ele><time>2026-04-12T10:36:49Z</time></trkpt><trkpt lat="44.59428031580307" lon="7.91337484661238"><ele>339.5714285714286</ele><time>2026-04-12T10:36:50Z</time></trkpt><trkpt lat="44.59433862873268" lon="7.913307488168577"><ele>339.8571428571429</ele><time>2026-04-12T10:36:51Z</time></trkpt><trkpt lat="44.59439269170737" lon="7.913240545210778"><ele>340.1428571428571</ele><time>2026-04-12T10:36:52Z</time></trkpt><trkpt lat="44.59444028659209" lon="7.913166050781287"><ele>340.42857142857144</ele><time>2026-04-12T10:36:53Z</time></trkpt><trkpt lat="44.59448101676927" lon="7.913088211493655"><ele>340.7142857142857</ele><time>2026-04-12T10:36:54Z</time></trkpt><trkpt lat="44.59452027775371" lon="7.913006304514865"><ele>341.0</ele><time>2026-04-12T10:36:55Z</time></trkpt><trkpt lat="44.5945582459773" lon="7.912922328167834"><ele>339.57142857142856</ele><time>2026-04-12T10:36:56Z</time></trkpt><trkpt lat="44.59459638163137" lon="7.912839103022399"><ele>338.14285714285717</ele><time>2026-04-12T10:36:57Z</time></trkpt><trkpt lat="44.59463725283953" lon="7.9127589597547825"><ele>336.7142857142857</ele><time>2026-04-12T10:36:58Z</time></trkpt><trkpt lat="44.59467328232812" lon="7.9126772060085555"><ele>335.2857142857143</ele><time>2026-04-12T10:36:59Z</time></trkpt><trkpt lat="44.59470780109574" lon="7.912591594556757"><ele>333.85714285714283</ele><time>2026-04-12T10:37:00Z</time></trkpt><trkpt lat="44.594741407336656" lon="7.912509172504361"><ele>332.42857142857144</ele><time>2026-04-12T10:37:01Z</time></trkpt><trkpt lat="44.59477140788668" lon="7.912425272870608"><ele>331.0</ele><time>2026-04-12T10:37:02Z</time></trkpt><trkpt lat="44.59479526735199" lon="7.912343023452129"><ele>331.0</ele><time>2026-04-12T10:37:03Z</time></trkpt><trkpt lat="44.59481631741353" lon="7.912250661051127"><ele>331.0</ele><time>2026-04-12T10:37:04Z</time></trkpt><trkpt lat="44.59484200333002" lon="7.912163625094083"><ele>331.0</ele><time>2026-04-12T10:37:05Z</time></trkpt><trkpt lat="44.59487147912956" lon="7.912075499678673"><ele>331.0</ele><time>2026-04-12T10:37:06Z</time></trkpt><trkpt lat="44.59489159421461" lon="7.911988664123316"><ele>331.0</ele><time>2026-04-12T10:37:07Z</time></trkpt><trkpt lat="44.594913768159486" lon="7.9119025563608"><ele>331.0</ele><time>2026-04-12T10:37:08Z</time></trkpt><trkpt lat="44.594937909207935" lon="7.911819423607013"><ele>331.0</ele><time>2026-04-12T10:37:09Z</time></trkpt><trkpt lat="44.59498527169658" lon="7.911658258439859"><ele>330.6</ele><time>2026-04-12T10:37:11Z</time></trkpt><trkpt lat="44.59502707117025" lon="7.9114958278306995"><ele>330.20000000000005</ele><time>2026-04-12T10:37:13Z</time></trkpt><trkpt lat="44.59507068279608" lon="7.911329391100046"><ele>329.79999999999995</ele><time>2026-04-12T10:37:15Z</time></trkpt><trkpt lat="44.595096535639264" lon="7.911236918430379"><ele>329.4</ele><time>2026-04-12T10:37:16Z</time></trkpt><trkpt lat="44.59512155326597" lon="7.9111500249739395"><ele>329.0</ele><time>2026-04-12T10:37:17Z</time></trkpt><trkpt lat="44.5951482837785" lon="7.911065225216035"><ele>329.0</ele><time>2026-04-12T10:37:18Z</time></trkpt><trkpt lat="44.595176516438634" lon="7.910979433097732"><ele>329.0</ele><time>2026-04-12T10:37:19Z</time></trkpt><trkpt lat="44.59520860430316" lon="7.910894537760578"><ele>329.0</ele><time>2026-04-12T10:37:20Z</time></trkpt><trkpt lat="44.5952452620604" lon="7.910814224341607"><ele>329.0</ele><time>2026-04-12T10:37:21Z</time></trkpt><trkpt lat="44.595287697190564" lon="7.9107372403983165"><ele>329.0</ele><time>2026-04-12T10:37:22Z</time></trkpt><trkpt lat="44.59533205532064" lon="7.910663476972478"><ele>329.0</ele><time>2026-04-12T10:37:23Z</time></trkpt><trkpt lat="44.595378729574435" lon="7.910586114880348"><ele>329.0</ele><time>2026-04-12T10:37:24Z</time></trkpt><trkpt lat="44.595430746855" lon="7.910510269008611"><ele>326.33333333333337</ele><time>2026-04-12T10:37:25Z</time></trkpt><trkpt lat="44.59548400308674" lon="7.910433804140005"><ele>323.6666666666667</ele><time>2026-04-12T10:37:26Z</time></trkpt><trkpt lat="44.595539835615725" lon="7.91035245836234"><ele>321.0</ele><time>2026-04-12T10:37:27Z</time></trkpt><trkpt lat="44.59559574440333" lon="7.910274619324839"><ele>318.3333333333333</ele><time>2026-04-12T10:37:28Z</time></trkpt><trkpt lat="44.59565100006899" lon="7.910199203341797"><ele>315.66666666666663</ele><time>2026-04-12T10:37:29Z</time></trkpt><trkpt lat="44.59570342080358" lon="7.910121015943674"><ele>313.0</ele><time>2026-04-12T10:37:30Z</time></trkpt><trkpt lat="44.595750275648605" lon="7.910045142091941"><ele>312.2</ele><time>2026-04-12T10:37:31Z</time></trkpt><trkpt lat="44.59579044443673" lon="7.909974385257934"><ele>311.4</ele><time>2026-04-12T10:37:32Z</time></trkpt><trkpt lat="44.595859414894846" lon="7.909830301108697"><ele>310.59999999999997</ele><time>2026-04-12T10:37:34Z</time></trkpt><trkpt lat="44.595917094442115" lon="7.9096819133419265"><ele>309.8</ele><time>2026-04-12T10:37:36Z</time></trkpt><trkpt lat="44.595949374843485" lon="7.909538103312373"><ele>309.0</ele><time>2026-04-12T10:37:38Z</time></trkpt><trkpt lat="44.595969246531496" lon="7.909374320169245"><ele>308.4</ele><time>2026-04-12T10:37:40Z</time></trkpt><trkpt lat="44.59595932974564" lon="7.909204225330246"><ele>307.79999999999995</ele><time>2026-04-12T10:37:42Z</time></trkpt><trkpt lat="44.595951649693255" lon="7.909043282019828"><ele>307.20000000000005</ele><time>2026-04-12T10:37:44Z</time></trkpt><trkpt lat="44.59593783039555" lon="7.908857098154005"><ele>306.6</ele><time>2026-04-12T10:37:46Z</time></trkpt><trkpt lat="44.59593007708983" lon="7.908752639941727"><ele>306.0</ele><time>2026-04-12T10:37:47Z</time></trkpt><trkpt lat="44.59591052810874" lon="7.908663230773999"><ele>306.0</ele><time>2026-04-12T10:37:48Z</time></trkpt><trkpt lat="44.595901030977295" lon="7.908567361658205"><ele>306.0</ele><time>2026-04-12T10:37:49Z</time></trkpt><trkpt lat="44.595891427464956" lon="7.9084754208800145"><ele>306.0</ele><time>2026-04-12T10:37:50Z</time></trkpt><trkpt lat="44.59588672157723" lon="7.908384029837931"><ele>306.0</ele><time>2026-04-12T10:37:51Z</time></trkpt><trkpt lat="44.59587849464238" lon="7.90828843749921"><ele>306.0</ele><time>2026-04-12T10:37:52Z</time></trkpt><trkpt lat="44.59586844448462" lon="7.908190369418997"><ele>306.0</ele><time>2026-04-12T10:37:53Z</time></trkpt><trkpt lat="44.59586034689156" lon="7.90809450840024"><ele>306.0</ele><time>2026-04-12T10:37:54Z</time></trkpt><trkpt lat="44.59585244554325" lon="7.90800321848956"><ele>305.0</ele><time>2026-04-12T10:37:55Z</time></trkpt><trkpt lat="44.59586012058547" lon="7.907910696636825"><ele>304.0</ele><time>2026-04-12T10:37:56Z</time></trkpt><trkpt lat="44.59583018568945" lon="7.907739574596743"><ele>303.0</ele><time>2026-04-12T10:37:58Z</time></trkpt><trkpt lat="44.59583394071937" lon="7.90756804641585"><ele>302.0</ele><time>2026-04-12T10:38:00Z</time></trkpt><trkpt lat="44.59581133628703" lon="7.907482845854475"><ele>301.0</ele><time>2026-04-12T10:38:01Z</time></trkpt><trkpt lat="44.59580664884804" lon="7.907394159581191"><ele>300.0</ele><time>2026-04-12T10:38:02Z</time></trkpt><trkpt lat="44.59580443296018" lon="7.907304529582784"><ele>299.4285714285714</ele><time>2026-04-12T10:38:03Z</time></trkpt><trkpt lat="44.59579785577815" lon="7.9072083288744235"><ele>298.85714285714283</ele><time>2026-04-12T10:38:04Z</time></trkpt><trkpt lat="44.595791042567946" lon="7.907115355778697"><ele>298.2857142857143</ele><time>2026-04-12T10:38:05Z</time></trkpt><trkpt lat="44.59578334292643" lon="7.907020658844392"><ele>297.71428571428567</ele><time>2026-04-12T10:38:06Z</time></trkpt><trkpt lat="44.59577546777291" lon="7.906927587719042"><ele>297.1428571428571</ele><time>2026-04-12T10:38:07Z</time></trkpt><trkpt lat="44.59575713470104" lon="7.906833746452861"><ele>296.57142857142856</ele><time>2026-04-12T10:38:08Z</time></trkpt><trkpt lat="44.595740579585545" lon="7.906738983219769"><ele>296.0</ele><time>2026-04-12T10:38:09Z</time></trkpt><trkpt lat="44.595715541665164" lon="7.906641823406774"><ele>295.14285714285717</ele><time>2026-04-12T10:38:10Z</time></trkpt><trkpt lat="44.595689072921395" lon="7.906547844576729"><ele>294.2857142857143</ele><time>2026-04-12T10:38:11Z</time></trkpt><trkpt lat="44.595660175552226" lon="7.906458378719837"><ele>293.42857142857144</ele><time>2026-04-12T10:38:12Z</time></trkpt><trkpt lat="44.59562863308203" lon="7.906366601408556"><ele>292.57142857142856</ele><time>2026-04-12T10:38:13Z</time></trkpt><trkpt lat="44.59559725445075" lon="7.906286223005353"><ele>291.7142857142857</ele><time>2026-04-12T10:38:14Z</time></trkpt><trkpt lat="44.59556471688879" lon="7.90620188237417"><ele>290.8571428571429</ele><time>2026-04-12T10:38:15Z</time></trkpt><trkpt lat="44.595533268474405" lon="7.906120111766814"><ele>290.0</ele><time>2026-04-12T10:38:16Z</time></trkpt><trkpt lat="44.59550283091692" lon="7.906037267094581"><ele>290.0</ele><time>2026-04-12T10:38:17Z</time></trkpt><trkpt lat="44.59547394085086" lon="7.905954551768998"><ele>290.0</ele><time>2026-04-12T10:38:18Z</time></trkpt><trkpt lat="44.59544760197958" lon="7.905871096708048"><ele>290.0</ele><time>2026-04-12T10:38:19Z</time></trkpt><trkpt lat="44.59542104271791" lon="7.905785503162504"><ele>290.0</ele><time>2026-04-12T10:38:20Z</time></trkpt><trkpt lat="44.59539497074512" lon="7.905689754068258"><ele>290.0</ele><time>2026-04-12T10:38:21Z</time></trkpt><trkpt lat="44.59537110444175" lon="7.905598606872389"><ele>290.0</ele><time>2026-04-12T10:38:22Z</time></trkpt><trkpt lat="44.595354137981275" lon="7.905510388528503"><ele>290.0</ele><time>2026-04-12T10:38:23Z</time></trkpt><trkpt lat="44.59533997520114" lon="7.9054190013129375"><ele>287.4</ele><time>2026-04-12T10:38:24Z</time></trkpt><trkpt lat="44.59532117472926" lon="7.905334120502455"><ele>284.8</ele><time>2026-04-12T10:38:25Z</time></trkpt><trkpt lat="44.59528911029192" lon="7.905166319764807"><ele>282.2</ele><time>2026-04-12T10:38:27Z</time></trkpt><trkpt lat="44.5952756483128" lon="7.905079368986479"><ele>279.6</ele><time>2026-04-12T10:38:28Z</time></trkpt><trkpt lat="44.5952444690635" lon="7.904921407620622"><ele>277.0</ele><time>2026-04-12T10:38:30Z</time></trkpt><trkpt lat="44.595220722248754" lon="7.904742848058026"><ele>275.8</ele><time>2026-04-12T10:38:32Z</time></trkpt><trkpt lat="44.5952005455721" lon="7.9046566073715185"><ele>274.6</ele><time>2026-04-12T10:38:33Z</time></trkpt><trkpt lat="44.59516371822806" lon="7.904487856843249"><ele>273.40000000000003</ele><time>2026-04-12T10:38:35Z</time></trkpt><trkpt lat="44.5951353876026" lon="7.904383212353766"><ele>272.2</ele><time>2026-04-12T10:38:36Z</time></trkpt><trkpt lat="44.59509805252466" lon="7.904205491791604"><ele>271.0</ele><time>2026-04-12T10:38:38Z</time></trkpt><trkpt lat="44.59508220466562" lon="7.904118628238644"><ele>270.0</ele><time>2026-04-12T10:38:39Z</time></trkpt><trkpt lat="44.595063501634954" lon="7.90402831486082"><ele>269.0</ele><time>2026-04-12T10:38:40Z</time></trkpt><trkpt lat="44.59504208179626" lon="7.903935308174937"><ele>268.0</ele><time>2026-04-12T10:38:41Z</time></trkpt><trkpt lat="44.59502385872329" lon="7.9038461877287265"><ele>267.0</ele><time>2026-04-12T10:38:42Z</time></trkpt><trkpt lat="44.59500428438867" lon="7.903759189510061"><ele>266.0</ele><time>2026-04-12T10:38:43Z</time></trkpt><trkpt lat="44.5949858494192" lon="7.903672870903932"><ele>265.0</ele><time>2026-04-12T10:38:44Z</time></trkpt><trkpt lat="44.59497092751376" lon="7.903583579480595"><ele>264.0</ele><time>2026-04-12T10:38:45Z</time></trkpt><trkpt lat="44.59494152494005" lon="7.9034126881991735"><ele>263.3333333333333</ele><time>2026-04-12T10:38:47Z</time></trkpt><trkpt lat="44.59492712130101" lon="7.903321366565095"><ele>262.6666666666667</ele><time>2026-04-12T10:38:48Z</time></trkpt><trkpt lat="44.59490017225899" lon="7.9031488170651"><ele>262.0</ele><time>2026-04-12T10:38:50Z</time></trkpt><trkpt lat="44.594893897850454" lon="7.903059973529044"><ele>261.33333333333337</ele><time>2026-04-12T10:38:51Z</time></trkpt><trkpt lat="44.59488267042541" lon="7.9029671298670845"><ele>260.6666666666667</ele><time>2026-04-12T10:38:52Z</time></trkpt><trkpt lat="44.59486778766674" lon="7.90287943630834"><ele>260.0</ele><time>2026-04-12T10:38:53Z</time></trkpt><trkpt lat="44.594857548032216" lon="7.902791325698281"><ele>260.0</ele><time>2026-04-12T10:38:54Z</time></trkpt><trkpt lat="44.59485133024447" lon="7.902702086379473"><ele>260.0</ele><time>2026-04-12T10:38:55Z</time></trkpt><trkpt lat="44.594842809053496" lon="7.902531558377122"><ele>260.0</ele><time>2026-04-12T10:38:57Z</time></trkpt><trkpt lat="44.59484481500746" lon="7.902440063768914"><ele>260.0</ele><time>2026-04-12T10:38:58Z</time></trkpt><trkpt lat="44.59484563055003" lon="7.902268714421096"><ele>260.0</ele><time>2026-04-12T10:39:00Z</time></trkpt><trkpt lat="44.594818337959396" lon="7.902117244362364"><ele>259.5</ele><time>2026-04-12T10:39:02Z</time></trkpt><trkpt lat="44.59475135149307" lon="7.901992821667117"><ele>259.0</ele><time>2026-04-12T10:39:04Z</time></trkpt><trkpt lat="44.59469436778056" lon="7.90194408169591"><ele>258.5</ele><time>2026-04-12T10:39:05Z</time></trkpt><trkpt lat="44.59459856457562" lon="7.90185217151649"><ele>258.0</ele><time>2026-04-12T10:39:07Z</time></trkpt><trkpt lat="44.59454073043716" lon="7.901809700849848"><ele>257.5</ele><time>2026-04-12T10:39:08Z</time></trkpt><trkpt lat="44.59448149436442" lon="7.901761892467196"><ele>257.0</ele><time>2026-04-12T10:39:09Z</time></trkpt><trkpt lat="44.59442158557757" lon="7.901718465059986"><ele>254.0</ele><time>2026-04-12T10:39:10Z</time></trkpt><trkpt lat="44.59435937560924" lon="7.9016783146925675"><ele>251.0</ele><time>2026-04-12T10:39:11Z</time></trkpt><trkpt lat="44.59429570521316" lon="7.901639713194378"><ele>248.0</ele><time>2026-04-12T10:39:12Z</time></trkpt><trkpt lat="44.59422955349195" lon="7.901600366711169"><ele>245.0</ele><time>2026-04-12T10:39:13Z</time></trkpt><trkpt lat="44.594162365665035" lon="7.901558270314113"><ele>242.0</ele><time>2026-04-12T10:39:14Z</time></trkpt><trkpt lat="44.59409584894333" lon="7.90151880923264"><ele>239.0</ele><time>2026-04-12T10:39:15Z</time></trkpt><trkpt lat="44.594023240386015" lon="7.9014779683581144"><ele>236.0</ele><time>2026-04-12T10:39:16Z</time></trkpt><trkpt lat="44.593952344152356" lon="7.901434258029492"><ele>236.00000000000003</ele><time>2026-04-12T10:39:17Z</time></trkpt><trkpt lat="44.59387792979877" lon="7.90138674977058"><ele>236.0</ele><time>2026-04-12T10:39:18Z</time></trkpt><trkpt lat="44.593802252855895" lon="7.901331678159891"><ele>236.0</ele><time>2026-04-12T10:39:19Z</time></trkpt><trkpt lat="44.593730917165374" lon="7.9012648056511"><ele>236.0</ele><time>2026-04-12T10:39:20Z</time></trkpt><trkpt lat="44.593660849443665" lon="7.901195286459883"><ele>236.00000000000003</ele><time>2026-04-12T10:39:21Z</time></trkpt><trkpt lat="44.593592446638304" lon="7.9011159320563245"><ele>236.0</ele><time>2026-04-12T10:39:22Z</time></trkpt><trkpt lat="44.593527447057554" lon="7.901036920257811"><ele>234.60000000000002</ele><time>2026-04-12T10:39:23Z</time></trkpt><trkpt lat="44.59345045161379" lon="7.90096228037746"><ele>233.20000000000002</ele><time>2026-04-12T10:39:24Z</time></trkpt><trkpt lat="44.59338255634972" lon="7.900876774906151"><ele>231.79999999999998</ele><time>2026-04-12T10:39:25Z</time></trkpt><trkpt lat="44.593310425394385" lon="7.900796352718281"><ele>230.39999999999998</ele><time>2026-04-12T10:39:26Z</time></trkpt><trkpt lat="44.593238244546754" lon="7.900711815892259"><ele>229.0</ele><time>2026-04-12T10:39:27Z</time></trkpt><trkpt lat="44.59317006791842" lon="7.900620387103419"><ele>229.0</ele><time>2026-04-12T10:39:28Z</time></trkpt><trkpt lat="44.59310213258217" lon="7.900535519437709"><ele>228.99999999999997</ele><time>2026-04-12T10:39:29Z</time></trkpt><trkpt lat="44.5930336119894" lon="7.900446196958991"><ele>228.99999999999997</ele><time>2026-04-12T10:39:30Z</time></trkpt><trkpt lat="44.592964533459025" lon="7.900362341492851"><ele>229.0</ele><time>2026-04-12T10:39:31Z</time></trkpt><trkpt lat="44.592896802493684" lon="7.900284120244167"><ele>229.0</ele><time>2026-04-12T10:39:32Z</time></trkpt><trkpt lat="44.59282688735664" lon="7.900207273340078"><ele>228.33333333333331</ele><time>2026-04-12T10:39:33Z</time></trkpt><trkpt lat="44.592767500362015" lon="7.900121586530639"><ele>227.66666666666666</ele><time>2026-04-12T10:39:34Z</time></trkpt><trkpt lat="44.59269357847878" lon="7.900055342308739"><ele>227.0</ele><time>2026-04-12T10:39:35Z</time></trkpt><trkpt lat="44.592615052495745" lon="7.900012959139207"><ele>226.33333333333331</ele><time>2026-04-12T10:39:36Z</time></trkpt><trkpt lat="44.59254281619778" lon="7.899958578734419"><ele>225.66666666666666</ele><time>2026-04-12T10:39:37Z</time></trkpt><trkpt lat="44.59247156106632" lon="7.899902373671658"><ele>225.0</ele><time>2026-04-12T10:39:38Z</time></trkpt><trkpt lat="44.59240744157973" lon="7.899839912735309"><ele>224.8571428571429</ele><time>2026-04-12T10:39:39Z</time></trkpt><trkpt lat="44.592342332669624" lon="7.899778067442905"><ele>224.71428571428572</ele><time>2026-04-12T10:39:40Z</time></trkpt><trkpt lat="44.59227946182143" lon="7.899709235181044"><ele>224.57142857142858</ele><time>2026-04-12T10:39:41Z</time></trkpt><trkpt lat="44.592230743009246" lon="7.899631325667949"><ele>224.42857142857144</ele><time>2026-04-12T10:39:42Z</time></trkpt><trkpt lat="44.59217756053991" lon="7.899560124621041"><ele>224.28571428571428</ele><time>2026-04-12T10:39:43Z</time></trkpt><trkpt lat="44.59212891280603" lon="7.8994764943551345"><ele>224.14285714285714</ele><time>2026-04-12T10:39:44Z</time></trkpt><trkpt lat="44.59209520814276" lon="7.8994017515733335"><ele>224.0</ele><time>2026-04-12T10:39:45Z</time></trkpt><trkpt lat="44.59205664863848" lon="7.899303214426179"><ele>224.33333333333334</ele><time>2026-04-12T10:39:46Z</time></trkpt><trkpt lat="44.59202098189396" lon="7.899219531406366"><ele>224.66666666666669</ele><time>2026-04-12T10:39:47Z</time></trkpt><trkpt lat="44.59197999160211" lon="7.899138013504964"><ele>225.0</ele><time>2026-04-12T10:39:48Z</time></trkpt><trkpt lat="44.591935481503086" lon="7.899063247936295"><ele>225.33333333333331</ele><time>2026-04-12T10:39:49Z</time></trkpt><trkpt lat="44.59186864997398" lon="7.898936156525381"><ele>225.66666666666666</ele><time>2026-04-12T10:39:51Z</time></trkpt><trkpt lat="44.59185642595015" lon="7.8988346735025905"><ele>226.0</ele><time>2026-04-12T10:39:53Z</time></trkpt><trkpt lat="44.5919113482573" lon="7.898779726576928"><ele>226.0</ele><time>2026-04-12T10:39:54Z</time></trkpt><trkpt lat="44.59199568999245" lon="7.898714568442986"><ele>226.00000000000003</ele><time>2026-04-12T10:39:56Z</time></trkpt><trkpt lat="44.59209334695892" lon="7.898653580893486"><ele>226.00000000000003</ele><time>2026-04-12T10:39:58Z</time></trkpt><trkpt lat="44.592183981716985" lon="7.898590412820587"><ele>226.0</ele><time>2026-04-12T10:40:00Z</time></trkpt><trkpt lat="44.59227904981661" lon="7.898520085843314"><ele>226.0</ele><time>2026-04-12T10:40:02Z</time></trkpt><trkpt lat="44.592383173765384" lon="7.898446900028073"><ele>225.4</ele><time>2026-04-12T10:40:04Z</time></trkpt><trkpt lat="44.592485108518375" lon="7.898366047835786"><ele>224.8</ele><time>2026-04-12T10:40:06Z</time></trkpt><trkpt lat="44.59259354930155" lon="7.898296942966918"><ele>224.20000000000002</ele><time>2026-04-12T10:40:08Z</time></trkpt><trkpt lat="44.592698894180145" lon="7.898215292463944"><ele>223.60000000000002</ele><time>2026-04-12T10:40:10Z</time></trkpt><trkpt lat="44.59275607371921" lon="7.898175012642151"><ele>223.0</ele><time>2026-04-12T10:40:11Z</time></trkpt><trkpt lat="44.5928150258767" lon="7.8981375042469715"><ele>223.0</ele><time>2026-04-12T10:40:12Z</time></trkpt><trkpt lat="44.59287270376166" lon="7.898099090132377"><ele>223.0</ele><time>2026-04-12T10:40:13Z</time></trkpt><trkpt lat="44.59293093060346" lon="7.898051857448448"><ele>223.0</ele><time>2026-04-12T10:40:14Z</time></trkpt><trkpt lat="44.59298741620029" lon="7.89800717456047"><ele>223.0</ele><time>2026-04-12T10:40:15Z</time></trkpt><trkpt lat="44.59304261740102" lon="7.897962870203505"><ele>223.0</ele><time>2026-04-12T10:40:16Z</time></trkpt><trkpt lat="44.593099253710044" lon="7.897915728714497"><ele>223.0</ele><time>2026-04-12T10:40:17Z</time></trkpt><trkpt lat="44.59315897771882" lon="7.897879764596474"><ele>223.0</ele><time>2026-04-12T10:40:18Z</time></trkpt><trkpt lat="44.59322355778643" lon="7.897851155638924"><ele>223.0</ele><time>2026-04-12T10:40:19Z</time></trkpt><trkpt lat="44.59328848238905" lon="7.897829649001605"><ele>223.0</ele><time>2026-04-12T10:40:20Z</time></trkpt><trkpt lat="44.59335498499801" lon="7.897806999961637"><ele>223.0</ele><time>2026-04-12T10:40:21Z</time></trkpt><trkpt lat="44.59341749746186" lon="7.897776127280601"><ele>223.0</ele><time>2026-04-12T10:40:22Z</time></trkpt><trkpt lat="44.59347736714413" lon="7.897739392339343"><ele>223.0</ele><time>2026-04-12T10:40:23Z</time></trkpt><trkpt lat="44.59353555779719" lon="7.897704529532316"><ele>223.0</ele><time>2026-04-12T10:40:24Z</time></trkpt><trkpt lat="44.59360442706377" lon="7.897669679083303"><ele>223.0</ele><time>2026-04-12T10:40:25Z</time></trkpt><trkpt lat="44.593722960862316" lon="7.897605145872052"><ele>222.85714285714286</ele><time>2026-04-12T10:40:27Z</time></trkpt><trkpt lat="44.593784092598156" lon="7.897567386613793"><ele>222.71428571428572</ele><time>2026-04-12T10:40:28Z</time></trkpt><trkpt lat="44.59383951187663" lon="7.897522102584052"><ele>222.57142857142856</ele><time>2026-04-12T10:40:29Z</time></trkpt><trkpt lat="44.59389343885264" lon="7.897466854392504"><ele>222.42857142857144</ele><time>2026-04-12T10:40:30Z</time></trkpt><trkpt lat="44.593944709171545" lon="7.897411055489496"><ele>222.2857142857143</ele><time>2026-04-12T10:40:31Z</time></trkpt><trkpt lat="44.594000820529466" lon="7.897364498918278"><ele>222.14285714285714</ele><time>2026-04-12T10:40:32Z</time></trkpt><trkpt lat="44.594054750625034" lon="7.897308568923264"><ele>222.0</ele><time>2026-04-12T10:40:33Z</time></trkpt><trkpt lat="44.59415316490818" lon="7.897203740765867"><ele>222.0</ele><time>2026-04-12T10:40:35Z</time></trkpt><trkpt lat="44.59420271833423" lon="7.89714714235804"><ele>222.0</ele><time>2026-04-12T10:40:36Z</time></trkpt><trkpt lat="44.594295274163606" lon="7.897025667496129"><ele>222.0</ele><time>2026-04-12T10:40:38Z</time></trkpt><trkpt lat="44.594343130667475" lon="7.896966300232488"><ele>222.0</ele><time>2026-04-12T10:40:39Z</time></trkpt><trkpt lat="44.59444087593817" lon="7.896852395802681"><ele>222.0</ele><time>2026-04-12T10:40:41Z</time></trkpt><trkpt lat="44.594489442538695" lon="7.8967922854277335"><ele>222.0</ele><time>2026-04-12T10:40:42Z</time></trkpt><trkpt lat="44.594580466440135" lon="7.896672675785992"><ele>222.2</ele><time>2026-04-12T10:40:44Z</time></trkpt><trkpt lat="44.59462869112083" lon="7.896615038994976"><ele>222.39999999999998</ele><time>2026-04-12T10:40:45Z</time></trkpt><trkpt lat="44.5947205241985" lon="7.896492805587062"><ele>222.60000000000002</ele><time>2026-04-12T10:40:47Z</time></trkpt><trkpt lat="44.59480889763318" lon="7.896379086308473"><ele>222.8</ele><time>2026-04-12T10:40:49Z</time></trkpt><trkpt lat="44.59489771998522" lon="7.896273579734436"><ele>223.0</ele><time>2026-04-12T10:40:51Z</time></trkpt><trkpt lat="44.59498185715834" lon="7.896163326631917"><ele>223.0</ele><time>2026-04-12T10:40:53Z</time></trkpt><trkpt lat="44.59506332028847" lon="7.896063948843928"><ele>223.0</ele><time>2026-04-12T10:40:55Z</time></trkpt><trkpt lat="44.5951382233488" lon="7.895971745777243"><ele>223.0</ele><time>2026-04-12T10:40:57Z</time></trkpt><trkpt lat="44.595206492301976" lon="7.8958863454313155"><ele>223.0</ele><time>2026-04-12T10:40:59Z</time></trkpt><trkpt lat="44.595268507934534" lon="7.89580757866344"><ele>223.0</ele><time>2026-04-12T10:41:01Z</time></trkpt><trkpt lat="44.59532495854263" lon="7.895735420062344"><ele>224.28571428571428</ele><time>2026-04-12T10:41:03Z</time></trkpt><trkpt lat="44.59537648344571" lon="7.895673027539398"><ele>225.57142857142856</ele><time>2026-04-12T10:41:05Z</time></trkpt><trkpt lat="44.59544455329197" lon="7.895592830559512"><ele>226.8571428571429</ele><time>2026-04-12T10:41:08Z</time></trkpt><trkpt lat="44.5955017781888" lon="7.895521066385717"><ele>228.14285714285717</ele><time>2026-04-12T10:41:11Z</time></trkpt><trkpt lat="44.59555386336183" lon="7.895461909824473"><ele>229.42857142857144</ele><time>2026-04-12T10:41:14Z</time></trkpt><trkpt lat="44.595615783245876" lon="7.895383809174394"><ele>230.71428571428575</ele><time>2026-04-12T10:41:18Z</time></trkpt><trkpt lat="44.595662899149154" lon="7.89532258709307"><ele>232.00000000000003</ele><time>2026-04-12T10:41:21Z</time></trkpt><trkpt lat="44.59570928678255" lon="7.8952608223554765"><ele>231.99999999999997</ele><time>2026-04-12T10:41:24Z</time></trkpt><trkpt lat="44.59576916457047" lon="7.895178077257721"><ele>232.0</ele><time>2026-04-12T10:41:28Z</time></trkpt><trkpt lat="44.595818723661154" lon="7.895115951289143"><ele>232.0</ele><time>2026-04-12T10:41:31Z</time></trkpt><trkpt lat="44.595874408632994" lon="7.89505512706887"><ele>232.0</ele><time>2026-04-12T10:41:34Z</time></trkpt><trkpt lat="44.595934396684065" lon="7.894990609371357"><ele>231.99999999999997</ele><time>2026-04-12T10:41:37Z</time></trkpt><trkpt lat="44.59599700690112" lon="7.894925028785274"><ele>232.0</ele><time>2026-04-12T10:41:40Z</time></trkpt><trkpt lat="44.59606600252457" lon="7.894852317923638"><ele>231.66666666666666</ele><time>2026-04-12T10:41:43Z</time></trkpt><trkpt lat="44.596142969967815" lon="7.894774811475083"><ele>231.33333333333331</ele><time>2026-04-12T10:41:46Z</time></trkpt><trkpt lat="44.5961978999565" lon="7.8947148441819825"><ele>231.0</ele><time>2026-04-12T10:41:48Z</time></trkpt><trkpt lat="44.59625740710701" lon="7.894654593336851"><ele>230.66666666666669</ele><time>2026-04-12T10:41:50Z</time></trkpt><trkpt lat="44.59631794642147" lon="7.89458956257539"><ele>230.33333333333334</ele><time>2026-04-12T10:41:52Z</time></trkpt><trkpt lat="44.59638291861669" lon="7.894526871765005"><ele>230.0</ele><time>2026-04-12T10:41:54Z</time></trkpt><trkpt lat="44.596449256663526" lon="7.894457267829184"><ele>230.00000000000003</ele><time>2026-04-12T10:41:56Z</time></trkpt><trkpt lat="44.59651663102699" lon="7.8943884549915015"><ele>230.0</ele><time>2026-04-12T10:41:58Z</time></trkpt><trkpt lat="44.59658035816853" lon="7.89431595437052"><ele>230.0</ele><time>2026-04-12T10:42:00Z</time></trkpt><trkpt lat="44.59664807742011" lon="7.894243574711335"><ele>230.0</ele><time>2026-04-12T10:42:02Z</time></trkpt><trkpt lat="44.59672384914472" lon="7.894166489112241"><ele>230.00000000000003</ele><time>2026-04-12T10:42:04Z</time></trkpt><trkpt lat="44.596783176648195" lon="7.8940883675197755"><ele>230.0</ele><time>2026-04-12T10:42:06Z</time></trkpt><trkpt lat="44.596850182719656" lon="7.894014606652315"><ele>229.6</ele><time>2026-04-12T10:42:08Z</time></trkpt><trkpt lat="44.596917966860424" lon="7.893935673361971"><ele>229.2</ele><time>2026-04-12T10:42:10Z</time></trkpt><trkpt lat="44.59699179809445" lon="7.893853570583511"><ele>228.8</ele><time>2026-04-12T10:42:12Z</time></trkpt><trkpt lat="44.59706431151967" lon="7.893768593680134"><ele>228.4</ele><time>2026-04-12T10:42:14Z</time></trkpt><trkpt lat="44.59714077664873" lon="7.893687430878003"><ele>228.0</ele><time>2026-04-12T10:42:16Z</time></trkpt><trkpt lat="44.597216418383134" lon="7.893604555443075"><ele>227.8</ele><time>2026-04-12T10:42:18Z</time></trkpt><trkpt lat="44.59728502004601" lon="7.893509400191731"><ele>227.60000000000002</ele><time>2026-04-12T10:42:20Z</time></trkpt><trkpt lat="44.59735796753252" lon="7.893408530171603"><ele>227.39999999999998</ele><time>2026-04-12T10:42:22Z</time></trkpt><trkpt lat="44.59742521664266" lon="7.893307655624902"><ele>227.2</ele><time>2026-04-12T10:42:24Z</time></trkpt><trkpt lat="44.59749009925183" lon="7.893206335408908"><ele>227.0</ele><time>2026-04-12T10:42:26Z</time></trkpt><trkpt lat="44.59755249106124" lon="7.893105241292544"><ele>226.39999999999998</ele><time>2026-04-12T10:42:28Z</time></trkpt><trkpt lat="44.597614725458016" lon="7.893007257031964"><ele>225.79999999999998</ele><time>2026-04-12T10:42:30Z</time></trkpt><trkpt lat="44.59767376361389" lon="7.892908514175999"><ele>225.2</ele><time>2026-04-12T10:42:32Z</time></trkpt><trkpt lat="44.59773045507112" lon="7.892809573350971"><ele>224.6</ele><time>2026-04-12T10:42:34Z</time></trkpt><trkpt lat="44.59778903424379" lon="7.89271368307587"><ele>224.0</ele><time>2026-04-12T10:42:36Z</time></trkpt><trkpt lat="44.59784625896438" lon="7.892615952519448"><ele>224.50000000000003</ele><time>2026-04-12T10:42:38Z</time></trkpt><trkpt lat="44.59790742718217" lon="7.892528547028413"><ele>225.0</ele><time>2026-04-12T10:42:40Z</time></trkpt><trkpt lat="44.59797361283031" lon="7.892452610034471"><ele>225.5</ele><time>2026-04-12T10:42:42Z</time></trkpt><trkpt lat="44.598043647810705" lon="7.892395921232571"><ele>226.0</ele><time>2026-04-12T10:42:44Z</time></trkpt><trkpt lat="44.598111196226135" lon="7.892342845701962"><ele>226.50000000000003</ele><time>2026-04-12T10:42:46Z</time></trkpt><trkpt lat="44.598159816116805" lon="7.892276271119245"><ele>227.0</ele><time>2026-04-12T10:42:48Z</time></trkpt><trkpt lat="44.59820996725299" lon="7.892198372057707"><ele>227.0</ele><time>2026-04-12T10:42:51Z</time></trkpt><trkpt lat="44.59814233835048" lon="7.89209808259818"><ele>227.0</ele><time>2026-04-12T10:42:54Z</time></trkpt><trkpt lat="44.598053369245484" lon="7.892060816144318"><ele>227.0</ele><time>2026-04-12T10:42:56Z</time></trkpt><trkpt lat="44.59795899666935" lon="7.892020468006772"><ele>227.0</ele><time>2026-04-12T10:42:58Z</time></trkpt><trkpt lat="44.5978678761388" lon="7.89197025032385"><ele>227.0</ele><time>2026-04-12T10:43:00Z</time></trkpt><trkpt lat="44.597777604699644" lon="7.891932595571658"><ele>226.83333333333334</ele><time>2026-04-12T10:43:02Z</time></trkpt><trkpt lat="44.59768466128962" lon="7.89189900586758"><ele>226.66666666666669</ele><time>2026-04-12T10:43:04Z</time></trkpt><trkpt lat="44.59759719199851" lon="7.891870690205886"><ele>226.5</ele><time>2026-04-12T10:43:06Z</time></trkpt><trkpt lat="44.59752713423146" lon="7.89184170732603"><ele>226.33333333333331</ele><time>2026-04-12T10:43:08Z</time></trkpt><trkpt lat="44.59746710246296" lon="7.891788471879484"><ele>226.16666666666666</ele><time>2026-04-12T10:43:10Z</time></trkpt><trkpt lat="44.597451190604396" lon="7.891684766380978"><ele>226.0</ele><time>2026-04-12T10:43:12Z</time></trkpt><trkpt lat="44.59753328417244" lon="7.891588042912031"><ele>225.25</ele><time>2026-04-12T10:43:14Z</time></trkpt><trkpt lat="44.59763870778581" lon="7.891534586713403"><ele>224.5</ele><time>2026-04-12T10:43:16Z</time></trkpt><trkpt lat="44.59774995975705" lon="7.891481184227253"><ele>223.75</ele><time>2026-04-12T10:43:18Z</time></trkpt><trkpt lat="44.597846848930445" lon="7.891413165443024"><ele>223.0</ele><time>2026-04-12T10:43:20Z</time></trkpt><trkpt lat="44.59793314476892" lon="7.8912969064212835"><ele>223.0</ele><time>2026-04-12T10:43:22Z</time></trkpt><trkpt lat="44.5979734891757" lon="7.8912228421976485"><ele>223.0</ele><time>2026-04-12T10:43:23Z</time></trkpt><trkpt lat="44.59801461206826" lon="7.891144895219365"><ele>223.0</ele><time>2026-04-12T10:43:24Z</time></trkpt><trkpt lat="44.598049518390624" lon="7.891067460701794"><ele>223.0</ele><time>2026-04-12T10:43:25Z</time></trkpt><trkpt lat="44.598084660240744" lon="7.890993504191625"><ele>223.0</ele><time>2026-04-12T10:43:26Z</time></trkpt><trkpt lat="44.59811223620489" lon="7.890912715658675"><ele>223.0</ele><time>2026-04-12T10:43:27Z</time></trkpt><trkpt lat="44.598133955706714" lon="7.890826386343541"><ele>223.0</ele><time>2026-04-12T10:43:28Z</time></trkpt><trkpt lat="44.59816154529217" lon="7.890740310503485"><ele>222.42857142857142</ele><time>2026-04-12T10:43:29Z</time></trkpt><trkpt lat="44.59818539780766" lon="7.890651316666465"><ele>221.85714285714283</ele><time>2026-04-12T10:43:30Z</time></trkpt><trkpt lat="44.59820462540872" lon="7.890559897097219"><ele>221.28571428571428</ele><time>2026-04-12T10:43:31Z</time></trkpt><trkpt lat="44.59822494724143" lon="7.890466347147714"><ele>220.71428571428572</ele><time>2026-04-12T10:43:32Z</time></trkpt><trkpt lat="44.59824379631382" lon="7.890370686770262"><ele>220.14285714285714</ele><time>2026-04-12T10:43:33Z</time></trkpt><trkpt lat="44.59826255017014" lon="7.890271996214311"><ele>219.57142857142858</ele><time>2026-04-12T10:43:34Z</time></trkpt><trkpt lat="44.598279146312166" lon="7.890169826932872"><ele>219.0</ele><time>2026-04-12T10:43:35Z</time></trkpt><trkpt lat="44.59829027129716" lon="7.890065318127113"><ele>218.83333333333334</ele><time>2026-04-12T10:43:36Z</time></trkpt><trkpt lat="44.598303370163904" lon="7.889957500002663"><ele>218.66666666666669</ele><time>2026-04-12T10:43:37Z</time></trkpt><trkpt lat="44.59831543494795" lon="7.889849007737522"><ele>218.5</ele><time>2026-04-12T10:43:38Z</time></trkpt><trkpt lat="44.598323871282965" lon="7.889739820771055"><ele>218.33333333333334</ele><time>2026-04-12T10:43:39Z</time></trkpt><trkpt lat="44.59833543448207" lon="7.889632604558624"><ele>218.16666666666669</ele><time>2026-04-12T10:43:40Z</time></trkpt><trkpt lat="44.59834494872418" lon="7.889528091295266"><ele>218.0</ele><time>2026-04-12T10:43:41Z</time></trkpt><trkpt lat="44.59834767323787" lon="7.8894267035966"><ele>218.0</ele><time>2026-04-12T10:43:42Z</time></trkpt><trkpt lat="44.598350280754964" lon="7.889328591318014"><ele>218.0</ele><time>2026-04-12T10:43:43Z</time></trkpt><trkpt lat="44.598353361159056" lon="7.889231506974546"><ele>218.0</ele><time>2026-04-12T10:43:44Z</time></trkpt><trkpt lat="44.59835336539779" lon="7.889132465978482"><ele>218.0</ele><time>2026-04-12T10:43:45Z</time></trkpt><trkpt lat="44.59835253453265" lon="7.889033126967426"><ele>218.0</ele><time>2026-04-12T10:43:46Z</time></trkpt><trkpt lat="44.598350040474074" lon="7.88893529089842"><ele>218.0</ele><time>2026-04-12T10:43:47Z</time></trkpt><trkpt lat="44.59834664168372" lon="7.888836775807921"><ele>218.0</ele><time>2026-04-12T10:43:48Z</time></trkpt><trkpt lat="44.598342425724226" lon="7.8887409101314505"><ele>217.57142857142858</ele><time>2026-04-12T10:43:49Z</time></trkpt><trkpt lat="44.59833586404771" lon="7.888641697824486"><ele>217.14285714285717</ele><time>2026-04-12T10:43:50Z</time></trkpt><trkpt lat="44.598326927456974" lon="7.888543797655212"><ele>216.71428571428572</ele><time>2026-04-12T10:43:51Z</time></trkpt><trkpt lat="44.598316837059315" lon="7.888451710944813"><ele>216.28571428571428</ele><time>2026-04-12T10:43:52Z</time></trkpt><trkpt lat="44.598305332161296" lon="7.888354130980155"><ele>215.85714285714286</ele><time>2026-04-12T10:43:53Z</time></trkpt><trkpt lat="44.598294812890565" lon="7.888258634971126"><ele>215.42857142857142</ele><time>2026-04-12T10:43:54Z</time></trkpt><trkpt lat="44.59828443268001" lon="7.888163591700071"><ele>215.0</ele><time>2026-04-12T10:43:55Z</time></trkpt><trkpt lat="44.598270982502456" lon="7.888073095145069"><ele>214.57142857142856</ele><time>2026-04-12T10:43:56Z</time></trkpt><trkpt lat="44.598255840434305" lon="7.887979774102675"><ele>214.14285714285717</ele><time>2026-04-12T10:43:57Z</time></trkpt><trkpt lat="44.598239253595814" lon="7.887888137052159"><ele>213.71428571428572</ele><time>2026-04-12T10:43:58Z</time></trkpt><trkpt lat="44.598221651120284" lon="7.887798793497115"><ele>213.28571428571428</ele><time>2026-04-12T10:43:59Z</time></trkpt><trkpt lat="44.598202807183185" lon="7.887708584542421"><ele>212.85714285714283</ele><time>2026-04-12T10:44:00Z</time></trkpt><trkpt lat="44.59818437999838" lon="7.887616304383562"><ele>212.42857142857144</ele><time>2026-04-12T10:44:01Z</time></trkpt><trkpt lat="44.59816769909146" lon="7.887525787698427"><ele>212.0</ele><time>2026-04-12T10:44:02Z</time></trkpt><trkpt lat="44.598148432678954" lon="7.8874349828386805"><ele>211.57142857142858</ele><time>2026-04-12T10:44:03Z</time></trkpt><trkpt lat="44.59813081732102" lon="7.8873462124614"><ele>211.14285714285714</ele><time>2026-04-12T10:44:04Z</time></trkpt><trkpt lat="44.59811345028091" lon="7.887256540554326"><ele>210.71428571428572</ele><time>2026-04-12T10:44:05Z</time></trkpt><trkpt lat="44.598095124512625" lon="7.887168951266422"><ele>210.28571428571428</ele><time>2026-04-12T10:44:06Z</time></trkpt><trkpt lat="44.59807299167664" lon="7.887081813510921"><ele>209.85714285714283</ele><time>2026-04-12T10:44:07Z</time></trkpt><trkpt lat="44.59805178287871" lon="7.886994142438625"><ele>209.42857142857142</ele><time>2026-04-12T10:44:08Z</time></trkpt><trkpt lat="44.59803053718027" lon="7.886910248627957"><ele>209.0</ele><time>2026-04-12T10:44:09Z</time></trkpt><trkpt lat="44.59801416525827" lon="7.8868217112833685"><ele>208.71428571428572</ele><time>2026-04-12T10:44:10Z</time></trkpt><trkpt lat="44.59800187744404" lon="7.8867317262619085"><ele>208.42857142857142</ele><time>2026-04-12T10:44:11Z</time></trkpt><trkpt lat="44.5979870074671" lon="7.886643964292775"><ele>208.14285714285717</ele><time>2026-04-12T10:44:12Z</time></trkpt><trkpt lat="44.597969603534416" lon="7.886557626632105"><ele>207.85714285714286</ele><time>2026-04-12T10:44:13Z</time></trkpt><trkpt lat="44.597950988860134" lon="7.886471297979888"><ele>207.57142857142858</ele><time>2026-04-12T10:44:14Z</time></trkpt><trkpt lat="44.5979334893894" lon="7.886384833938964"><ele>207.2857142857143</ele><time>2026-04-12T10:44:15Z</time></trkpt><trkpt lat="44.59790148106702" lon="7.88621314880223"><ele>207.0</ele><time>2026-04-12T10:44:17Z</time></trkpt><trkpt lat="44.597874819477994" lon="7.8860473726708795"><ele>207.75</ele><time>2026-04-12T10:44:19Z</time></trkpt><trkpt lat="44.59784228901058" lon="7.885882976968759"><ele>208.5</ele><time>2026-04-12T10:44:21Z</time></trkpt><trkpt lat="44.597817546928745" lon="7.885716198736977"><ele>209.25</ele><time>2026-04-12T10:44:23Z</time></trkpt><trkpt lat="44.597796351833175" lon="7.8855423079719955"><ele>210.0</ele><time>2026-04-12T10:44:25Z</time></trkpt><trkpt lat="44.59777491485737" lon="7.885369071054858"><ele>210.0</ele><time>2026-04-12T10:44:27Z</time></trkpt><trkpt lat="44.59775309381656" lon="7.885198693398561"><ele>210.0</ele><time>2026-04-12T10:44:29Z</time></trkpt><trkpt lat="44.59773729341885" lon="7.885030630337649"><ele>210.0</ele><time>2026-04-12T10:44:31Z</time></trkpt><trkpt lat="44.59772184317807" lon="7.884865145934887"><ele>210.0</ele><time>2026-04-12T10:44:33Z</time></trkpt><trkpt lat="44.597720481944926" lon="7.884691451961063"><ele>210.0</ele><time>2026-04-12T10:44:35Z</time></trkpt><trkpt lat="44.597716166582" lon="7.884522360771666"><ele>210.0</ele><time>2026-04-12T10:44:37Z</time></trkpt><trkpt lat="44.59772030354862" lon="7.884352229536217"><ele>210.0</ele><time>2026-04-12T10:44:39Z</time></trkpt><trkpt lat="44.59772719460563" lon="7.884181546102411"><ele>210.0</ele><time>2026-04-12T10:44:41Z</time></trkpt><trkpt lat="44.597731906219806" lon="7.884017320576949"><ele>210.25</ele><time>2026-04-12T10:44:43Z</time></trkpt><trkpt lat="44.59773575178487" lon="7.883886254831017"><ele>210.5</ele><time>2026-04-12T10:44:45Z</time></trkpt><trkpt lat="44.597729951368365" lon="7.883772594195234"><ele>210.75</ele><time>2026-04-12T10:44:47Z</time></trkpt><trkpt lat="44.597563076133426" lon="7.883775506953792"><ele>211.0</ele><time>2026-04-12T10:44:51Z</time></trkpt><trkpt lat="44.597525308986505" lon="7.883935575412906"><ele>211.0</ele><time>2026-04-12T10:44:53Z</time></trkpt><trkpt lat="44.59751330999848" lon="7.884024811968424"><ele>211.0</ele><time>2026-04-12T10:44:54Z</time></trkpt><trkpt lat="44.59750313445149" lon="7.884115374084086"><ele>211.0</ele><time>2026-04-12T10:44:55Z</time></trkpt><trkpt lat="44.59749765528878" lon="7.884211523459449"><ele>211.0</ele><time>2026-04-12T10:44:56Z</time></trkpt><trkpt lat="44.59747907710029" lon="7.884313241730789"><ele>211.0</ele><time>2026-04-12T10:44:57Z</time></trkpt><trkpt lat="44.59747849881001" lon="7.8844172181155585"><ele>211.0</ele><time>2026-04-12T10:44:58Z</time></trkpt><trkpt lat="44.59747984759835" lon="7.884522889484991"><ele>211.0</ele><time>2026-04-12T10:44:59Z</time></trkpt><trkpt lat="44.59748263390516" lon="7.884629201537911"><ele>210.85714285714286</ele><time>2026-04-12T10:45:00Z</time></trkpt><trkpt lat="44.597482153515934" lon="7.884734579263584"><ele>210.71428571428572</ele><time>2026-04-12T10:45:01Z</time></trkpt><trkpt lat="44.597474999066975" lon="7.884836220034982"><ele>210.57142857142856</ele><time>2026-04-12T10:45:02Z</time></trkpt><trkpt lat="44.59746074023211" lon="7.884939970184713"><ele>210.42857142857144</ele><time>2026-04-12T10:45:03Z</time></trkpt><trkpt lat="44.59743731485022" lon="7.885033654431635"><ele>210.28571428571428</ele><time>2026-04-12T10:45:04Z</time></trkpt><trkpt lat="44.59740434260032" lon="7.885126129096415"><ele>210.14285714285714</ele><time>2026-04-12T10:45:05Z</time></trkpt><trkpt lat="44.5973671606355" lon="7.885218344309215"><ele>210.0</ele><time>2026-04-12T10:45:06Z</time></trkpt><trkpt lat="44.59732779604593" lon="7.885301637796439"><ele>210.0</ele><time>2026-04-12T10:45:07Z</time></trkpt><trkpt lat="44.59728545267455" lon="7.885380103842142"><ele>210.0</ele><time>2026-04-12T10:45:08Z</time></trkpt><trkpt lat="44.597243621621494" lon="7.88545539022173"><ele>210.0</ele><time>2026-04-12T10:45:09Z</time></trkpt><trkpt lat="44.59716518835971" lon="7.885593555224843"><ele>210.0</ele><time>2026-04-12T10:45:11Z</time></trkpt><trkpt lat="44.5970915180459" lon="7.88571940624805"><ele>210.0</ele><time>2026-04-12T10:45:13Z</time></trkpt><trkpt lat="44.59701680904595" lon="7.88584093067643"><ele>209.8</ele><time>2026-04-12T10:45:15Z</time></trkpt><trkpt lat="44.596941085360996" lon="7.885954907505147"><ele>209.6</ele><time>2026-04-12T10:45:17Z</time></trkpt><trkpt lat="44.596862626336716" lon="7.886067250441729"><ele>209.39999999999998</ele><time>2026-04-12T10:45:19Z</time></trkpt><trkpt lat="44.5967829330731" lon="7.886180377486869"><ele>209.2</ele><time>2026-04-12T10:45:21Z</time></trkpt><trkpt lat="44.596705144337704" lon="7.886288681552813"><ele>209.0</ele><time>2026-04-12T10:45:23Z</time></trkpt><trkpt lat="44.59662772678233" lon="7.886394250947686"><ele>209.0</ele><time>2026-04-12T10:45:25Z</time></trkpt><trkpt lat="44.59654973328642" lon="7.886499490736236"><ele>209.0</ele><time>2026-04-12T10:45:27Z</time></trkpt><trkpt lat="44.596467642628724" lon="7.886591421431469"><ele>209.0</ele><time>2026-04-12T10:45:29Z</time></trkpt><trkpt lat="44.59637817349068" lon="7.8866705498770155"><ele>209.0</ele><time>2026-04-12T10:45:31Z</time></trkpt><trkpt lat="44.59627538596445" lon="7.886695047269836"><ele>209.0</ele><time>2026-04-12T10:45:33Z</time></trkpt><trkpt lat="44.59616090086957" lon="7.886707155238756"><ele>209.25</ele><time>2026-04-12T10:45:35Z</time></trkpt><trkpt lat="44.59604484606527" lon="7.8867211789951535"><ele>209.5</ele><time>2026-04-12T10:45:37Z</time></trkpt><trkpt lat="44.59592469309056" lon="7.886736506962819"><ele>209.75</ele><time>2026-04-12T10:45:39Z</time></trkpt><trkpt lat="44.59580528473472" lon="7.8867525528068"><ele>210.0</ele><time>2026-04-12T10:45:41Z</time></trkpt><trkpt lat="44.59567924436946" lon="7.8867703217785445"><ele>210.0</ele><time>2026-04-12T10:45:43Z</time></trkpt><trkpt lat="44.59561653777982" lon="7.886780993218671"><ele>210.0</ele><time>2026-04-12T10:45:44Z</time></trkpt><trkpt lat="44.59555456383871" lon="7.886814689879415"><ele>210.0</ele><time>2026-04-12T10:45:45Z</time></trkpt><trkpt lat="44.59549016609514" lon="7.886814492649399"><ele>210.0</ele><time>2026-04-12T10:45:46Z</time></trkpt><trkpt lat="44.59543103700958" lon="7.88686146597379"><ele>210.0</ele><time>2026-04-12T10:45:47Z</time></trkpt><trkpt lat="44.59536634298293" lon="7.886884471341652"><ele>210.0</ele><time>2026-04-12T10:45:48Z</time></trkpt><trkpt lat="44.595299289574704" lon="7.886896445295205"><ele>210.0</ele><time>2026-04-12T10:45:49Z</time></trkpt><trkpt lat="44.59517941432694" lon="7.8869288253324825"><ele>210.0</ele><time>2026-04-12T10:45:51Z</time></trkpt><trkpt lat="44.595061229222054" lon="7.886943447185675"><ele>210.0</ele><time>2026-04-12T10:45:53Z</time></trkpt><trkpt lat="44.59494589960588" lon="7.88695149720307"><ele>210.0</ele><time>2026-04-12T10:45:55Z</time></trkpt><trkpt lat="44.59483285215465" lon="7.88695515247284"><ele>210.0</ele><time>2026-04-12T10:45:57Z</time></trkpt><trkpt lat="44.59471934782971" lon="7.886953683299309"><ele>210.0</ele><time>2026-04-12T10:45:59Z</time></trkpt><trkpt lat="44.59465641342962" lon="7.886947959708266"><ele>210.0</ele><time>2026-04-12T10:46:00Z</time></trkpt><trkpt lat="44.59454093185967" lon="7.886928416651545"><ele>210.0</ele><time>2026-04-12T10:46:02Z</time></trkpt><trkpt lat="44.59442965606039" lon="7.886899489919151"><ele>210.0</ele><time>2026-04-12T10:46:04Z</time></trkpt><trkpt lat="44.594313699542795" lon="7.8868683683192105"><ele>210.0</ele><time>2026-04-12T10:46:06Z</time></trkpt><trkpt lat="44.59419639340917" lon="7.886838772147221"><ele>210.0</ele><time>2026-04-12T10:46:08Z</time></trkpt><trkpt lat="44.59407714569548" lon="7.886811817086738"><ele>210.0</ele><time>2026-04-12T10:46:10Z</time></trkpt><trkpt lat="44.593958542182094" lon="7.886785007636464"><ele>210.0</ele><time>2026-04-12T10:46:12Z</time></trkpt><trkpt lat="44.59383473988598" lon="7.886757023057012"><ele>210.0</ele><time>2026-04-12T10:46:14Z</time></trkpt><trkpt lat="44.59371746359727" lon="7.886729160988147"><ele>210.25</ele><time>2026-04-12T10:46:16Z</time></trkpt><trkpt lat="44.59359877976213" lon="7.8866990217783295"><ele>210.5</ele><time>2026-04-12T10:46:18Z</time></trkpt><trkpt lat="44.59348260990449" lon="7.886665918387029"><ele>210.75</ele><time>2026-04-12T10:46:20Z</time></trkpt><trkpt lat="44.59336689546922" lon="7.886630996163656"><ele>211.0</ele><time>2026-04-12T10:46:22Z</time></trkpt><trkpt lat="44.59325465392726" lon="7.886596998729038"><ele>211.0</ele><time>2026-04-12T10:46:24Z</time></trkpt><trkpt lat="44.59313871565736" lon="7.886561178364052"><ele>211.0</ele><time>2026-04-12T10:46:26Z</time></trkpt><trkpt lat="44.59302482057334" lon="7.88651926486742"><ele>211.0</ele><time>2026-04-12T10:46:28Z</time></trkpt><trkpt lat="44.5929136270306" lon="7.886464824682004"><ele>211.0</ele><time>2026-04-12T10:46:30Z</time></trkpt><trkpt lat="44.592811593379814" lon="7.886389165999189"><ele>211.0</ele><time>2026-04-12T10:46:32Z</time></trkpt><trkpt lat="44.59272549446119" lon="7.886285232520715"><ele>211.0</ele><time>2026-04-12T10:46:34Z</time></trkpt><trkpt lat="44.59266744823255" lon="7.886146894375436"><ele>211.0</ele><time>2026-04-12T10:46:36Z</time></trkpt><trkpt lat="44.59262973754941" lon="7.886008173275146"><ele>211.0</ele><time>2026-04-12T10:46:38Z</time></trkpt><trkpt lat="44.59261083516941" lon="7.885889108883812"><ele>211.0</ele><time>2026-04-12T10:46:40Z</time></trkpt><trkpt lat="44.59259305433602" lon="7.885772896692873"><ele>211.66666666666666</ele><time>2026-04-12T10:46:42Z</time></trkpt><trkpt lat="44.592577314555115" lon="7.885665104236847"><ele>212.33333333333331</ele><time>2026-04-12T10:46:44Z</time></trkpt><trkpt lat="44.59256415773978" lon="7.885570901452726"><ele>213.0</ele><time>2026-04-12T10:46:46Z</time></trkpt><trkpt lat="44.59254704778211" lon="7.885448394124975"><ele>213.66666666666669</ele><time>2026-04-12T10:46:49Z</time></trkpt><trkpt lat="44.5925197426557" lon="7.885334817295706"><ele>214.33333333333334</ele><time>2026-04-12T10:46:52Z</time></trkpt><trkpt lat="44.59250461962022" lon="7.885220733009511"><ele>215.0</ele><time>2026-04-12T10:46:55Z</time></trkpt><trkpt lat="44.592485714950286" lon="7.885107289660912"><ele>215.33333333333334</ele><time>2026-04-12T10:46:58Z</time></trkpt><trkpt lat="44.592468535301386" lon="7.884993959090251"><ele>215.66666666666669</ele><time>2026-04-12T10:47:01Z</time></trkpt><trkpt lat="44.59244773812484" lon="7.884885655693468"><ele>216.0</ele><time>2026-04-12T10:47:04Z</time></trkpt><trkpt lat="44.59243676001474" lon="7.884775707447395"><ele>216.33333333333331</ele><time>2026-04-12T10:47:07Z</time></trkpt><trkpt lat="44.59241861991166" lon="7.884672135670884"><ele>216.66666666666666</ele><time>2026-04-12T10:47:10Z</time></trkpt><trkpt lat="44.5924172420491" lon="7.88457609268279"><ele>217.0</ele><time>2026-04-12T10:47:13Z</time></trkpt><trkpt lat="44.592396327875285" lon="7.884470971738842"><ele>216.99999999999997</ele><time>2026-04-12T10:47:17Z</time></trkpt><trkpt lat="44.59238046632271" lon="7.8843597477258776"><ele>217.0</ele><time>2026-04-12T10:47:21Z</time></trkpt><trkpt lat="44.5923602577071" lon="7.884249798135607"><ele>217.0</ele><time>2026-04-12T10:47:25Z</time></trkpt><trkpt lat="44.59233725760263" lon="7.884148216010979"><ele>217.0</ele><time>2026-04-12T10:47:29Z</time></trkpt><trkpt lat="44.59232492886878" lon="7.8840439869691075"><ele>216.99999999999997</ele><time>2026-04-12T10:47:33Z</time></trkpt><trkpt lat="44.59230070760824" lon="7.8839374654643954"><ele>217.0</ele><time>2026-04-12T10:47:37Z</time></trkpt><trkpt lat="44.59228566763794" lon="7.883836331664161"><ele>217.85714285714286</ele><time>2026-04-12T10:47:41Z</time></trkpt><trkpt lat="44.592276434414075" lon="7.883725801637716"><ele>218.71428571428572</ele><time>2026-04-12T10:47:45Z</time></trkpt><trkpt lat="44.59227195571881" lon="7.883621672159782"><ele>219.57142857142856</ele><time>2026-04-12T10:47:49Z</time></trkpt><trkpt lat="44.59228977661736" lon="7.883523759859114"><ele>220.42857142857144</ele><time>2026-04-12T10:47:52Z</time></trkpt><trkpt lat="44.59231577256393" lon="7.883422003877022"><ele>221.28571428571428</ele><time>2026-04-12T10:47:55Z</time></trkpt><trkpt lat="44.59232622289024" lon="7.883317609939472"><ele>222.14285714285714</ele><time>2026-04-12T10:47:58Z</time></trkpt><trkpt lat="44.59233687451673" lon="7.883224412856526"><ele>223.0</ele><time>2026-04-12T10:48:01Z</time></trkpt><trkpt lat="44.592355668773784" lon="7.8831362358361465"><ele>223.28571428571428</ele><time>2026-04-12T10:48:04Z</time></trkpt><trkpt lat="44.59237627400676" lon="7.883051624390073"><ele>223.57142857142856</ele><time>2026-04-12T10:48:07Z</time></trkpt><trkpt lat="44.59240780616787" lon="7.8829472424302445"><ele>223.8571428571429</ele><time>2026-04-12T10:48:11Z</time></trkpt><trkpt lat="44.59243121571633" lon="7.882830340022693"><ele>224.14285714285717</ele><time>2026-04-12T10:48:15Z</time></trkpt><trkpt lat="44.59244909401697" lon="7.882742787654298"><ele>224.42857142857144</ele><time>2026-04-12T10:48:18Z</time></trkpt><trkpt lat="44.59247329614362" lon="7.882655128727995"><ele>224.71428571428575</ele><time>2026-04-12T10:48:21Z</time></trkpt><trkpt lat="44.592492692890666" lon="7.882566981763552"><ele>225.00000000000003</ele><time>2026-04-12T10:48:24Z</time></trkpt><trkpt lat="44.59251309606337" lon="7.882481128938811"><ele>225.28571428571433</ele><time>2026-04-12T10:48:27Z</time></trkpt><trkpt lat="44.59253064051572" lon="7.8823941779613484"><ele>225.57142857142858</ele><time>2026-04-12T10:48:30Z</time></trkpt><trkpt lat="44.59254597725063" lon="7.882306587352255"><ele>225.8571428571429</ele><time>2026-04-12T10:48:33Z</time></trkpt><trkpt lat="44.59257162062939" lon="7.882220607414867"><ele>226.14285714285717</ele><time>2026-04-12T10:48:36Z</time></trkpt><trkpt lat="44.59259189869003" lon="7.882133258176644"><ele>226.42857142857144</ele><time>2026-04-12T10:48:39Z</time></trkpt><trkpt lat="44.59261826405177" lon="7.882046152721537"><ele>226.71428571428572</ele><time>2026-04-12T10:48:42Z</time></trkpt><trkpt lat="44.592647465253215" lon="7.881960662690841"><ele>227.0</ele><time>2026-04-12T10:48:45Z</time></trkpt><trkpt lat="44.592667831073264" lon="7.88187341941351"><ele>227.0</ele><time>2026-04-12T10:48:48Z</time></trkpt><trkpt lat="44.59268971259986" lon="7.8817899086218715"><ele>227.00000000000003</ele><time>2026-04-12T10:48:51Z</time></trkpt><trkpt lat="44.59271196244545" lon="7.881690879049329"><ele>227.0</ele><time>2026-04-12T10:48:55Z</time></trkpt><trkpt lat="44.59273609503764" lon="7.88158966120227"><ele>227.0</ele><time>2026-04-12T10:48:59Z</time></trkpt><trkpt lat="44.59276285933863" lon="7.8814957520192745"><ele>227.00000000000003</ele><time>2026-04-12T10:49:03Z</time></trkpt><trkpt lat="44.592789596663856" lon="7.881396509317664"><ele>227.0</ele><time>2026-04-12T10:49:07Z</time></trkpt><trkpt lat="44.59282627149799" lon="7.881299963662209"><ele>227.0</ele><time>2026-04-12T10:49:11Z</time></trkpt><trkpt lat="44.59287472302069" lon="7.881240747526748"><ele>228.14285714285717</ele><time>2026-04-12T10:49:14Z</time></trkpt><trkpt lat="44.59290234173424" lon="7.881158372495445"><ele>229.2857142857143</ele><time>2026-04-12T10:49:17Z</time></trkpt><trkpt lat="44.592965927746036" lon="7.881130110535296"><ele>230.42857142857144</ele><time>2026-04-12T10:49:20Z</time></trkpt><trkpt lat="44.59303337494237" lon="7.881131493285805"><ele>231.57142857142856</ele><time>2026-04-12T10:49:23Z</time></trkpt><trkpt lat="44.59311756266021" lon="7.881122138847782"><ele>232.7142857142857</ele><time>2026-04-12T10:49:27Z</time></trkpt><trkpt lat="44.59318050293554" lon="7.881096949874653"><ele>233.85714285714283</ele><time>2026-04-12T10:49:30Z</time></trkpt><trkpt lat="44.593244989368" lon="7.8811067953124"><ele>235.0</ele><time>2026-04-12T10:49:33Z</time></trkpt><trkpt lat="44.5933245861573" lon="7.881140202017465"><ele>235.0</ele><time>2026-04-12T10:49:37Z</time></trkpt><trkpt lat="44.593397843289544" lon="7.881141299505667"><ele>234.99999999999997</ele><time>2026-04-12T10:49:41Z</time></trkpt><trkpt lat="44.59346643603318" lon="7.881136319571627"><ele>235.0</ele><time>2026-04-12T10:49:45Z</time></trkpt><trkpt lat="44.5935358921177" lon="7.881122858438716"><ele>235.0</ele><time>2026-04-12T10:49:49Z</time></trkpt><trkpt lat="44.593610501036565" lon="7.881113934097881"><ele>234.99999999999997</ele><time>2026-04-12T10:49:53Z</time></trkpt><trkpt lat="44.59368775139091" lon="7.881078642772864"><ele>235.0</ele><time>2026-04-12T10:49:57Z</time></trkpt><trkpt lat="44.59373314242342" lon="7.881009291091529"><ele>235.0</ele><time>2026-04-12T10:50:00Z</time></trkpt><trkpt lat="44.59377040925258" lon="7.880922307158807"><ele>236.42857142857142</ele><time>2026-04-12T10:50:03Z</time></trkpt><trkpt lat="44.59378047380404" lon="7.880824515897086"><ele>237.85714285714283</ele><time>2026-04-12T10:50:06Z</time></trkpt><trkpt lat="44.59377375098865" lon="7.880726217391362"><ele>239.28571428571428</ele><time>2026-04-12T10:50:09Z</time></trkpt><trkpt lat="44.59372865548461" lon="7.880634207673948"><ele>240.71428571428572</ele><time>2026-04-12T10:50:12Z</time></trkpt><trkpt lat="44.59367824020964" lon="7.880558185949098"><ele>242.14285714285714</ele><time>2026-04-12T10:50:15Z</time></trkpt><trkpt lat="44.59364716468617" lon="7.88047503073712"><ele>243.57142857142856</ele><time>2026-04-12T10:50:18Z</time></trkpt><trkpt lat="44.593617341344576" lon="7.880394604353746"><ele>245.0</ele><time>2026-04-12T10:50:21Z</time></trkpt><trkpt lat="44.593587802508495" lon="7.880312513970964"><ele>245.14285714285714</ele><time>2026-04-12T10:50:24Z</time></trkpt><trkpt lat="44.59355979502167" lon="7.880230288835394"><ele>245.28571428571428</ele><time>2026-04-12T10:50:27Z</time></trkpt><trkpt lat="44.593526843892505" lon="7.88014885881813"><ele>245.42857142857144</ele><time>2026-04-12T10:50:30Z</time></trkpt><trkpt lat="44.59349415159784" lon="7.88004262532524"><ele>245.57142857142858</ele><time>2026-04-12T10:50:34Z</time></trkpt><trkpt lat="44.593460551466784" lon="7.879965189649514"><ele>245.71428571428572</ele><time>2026-04-12T10:50:37Z</time></trkpt><trkpt lat="44.59343238805853" lon="7.879878691460064"><ele>245.8571428571429</ele><time>2026-04-12T10:50:40Z</time></trkpt><trkpt lat="44.59340682554109" lon="7.8797939672845185"><ele>246.00000000000003</ele><time>2026-04-12T10:50:43Z</time></trkpt><trkpt lat="44.59338561265858" lon="7.879706808031109"><ele>247.00000000000003</ele><time>2026-04-12T10:50:46Z</time></trkpt><trkpt lat="44.59337882477894" lon="7.879617531159734"><ele>248.0</ele><time>2026-04-12T10:50:49Z</time></trkpt><trkpt lat="44.593369744217384" lon="7.87952237280052"><ele>249.00000000000003</ele><time>2026-04-12T10:50:52Z</time></trkpt><trkpt lat="44.593371775325245" lon="7.879432910812532"><ele>250.00000000000003</ele><time>2026-04-12T10:50:55Z</time></trkpt><trkpt lat="44.593382691092266" lon="7.879338558916029"><ele>251.0</ele><time>2026-04-12T10:50:58Z</time></trkpt><trkpt lat="44.59339496392778" lon="7.879247892560581"><ele>252.00000000000003</ele><time>2026-04-12T10:51:01Z</time></trkpt><trkpt lat="44.59341003219956" lon="7.879156033117028"><ele>253.00000000000003</ele><time>2026-04-12T10:51:04Z</time></trkpt><trkpt lat="44.59342725397166" lon="7.879066092363565"><ele>253.71428571428575</ele><time>2026-04-12T10:51:07Z</time></trkpt><trkpt lat="44.59343781554344" lon="7.878976206520724"><ele>254.42857142857144</ele><time>2026-04-12T10:51:10Z</time></trkpt><trkpt lat="44.59345585969387" lon="7.87888389449503"><ele>255.14285714285714</ele><time>2026-04-12T10:51:13Z</time></trkpt><trkpt lat="44.59347403295071" lon="7.878788300558797"><ele>255.85714285714286</ele><time>2026-04-12T10:51:16Z</time></trkpt><trkpt lat="44.5934862676178" lon="7.878695434655535"><ele>256.57142857142856</ele><time>2026-04-12T10:51:19Z</time></trkpt><trkpt lat="44.5935064641963" lon="7.878606468926997"><ele>257.2857142857143</ele><time>2026-04-12T10:51:22Z</time></trkpt><trkpt lat="44.59352191320269" lon="7.878517138111774"><ele>258.0</ele><time>2026-04-12T10:51:25Z</time></trkpt><trkpt lat="44.593540694286105" lon="7.878427730737455"><ele>258.2857142857143</ele><time>2026-04-12T10:51:28Z</time></trkpt><trkpt lat="44.5935606357747" lon="7.878337239164677"><ele>258.57142857142856</ele><time>2026-04-12T10:51:31Z</time></trkpt><trkpt lat="44.593560312581786" lon="7.878243764126965"><ele>258.8571428571429</ele><time>2026-04-12T10:51:34Z</time></trkpt><trkpt lat="44.59360023621964" lon="7.878137714667554"><ele>259.1428571428571</ele><time>2026-04-12T10:51:38Z</time></trkpt><trkpt lat="44.593617404097465" lon="7.878046125669126"><ele>259.42857142857144</ele><time>2026-04-12T10:51:41Z</time></trkpt><trkpt lat="44.59363522166835" lon="7.877955277727101"><ele>259.7142857142857</ele><time>2026-04-12T10:51:44Z</time></trkpt><trkpt lat="44.593654264996054" lon="7.877864658066915"><ele>260.0</ele><time>2026-04-12T10:51:47Z</time></trkpt><trkpt lat="44.59366902501517" lon="7.877773600684006"><ele>263.7142857142857</ele><time>2026-04-12T10:51:50Z</time></trkpt><trkpt lat="44.59368542478344" lon="7.877681328460694"><ele>267.42857142857144</ele><time>2026-04-12T10:51:53Z</time></trkpt><trkpt lat="44.59370811999707" lon="7.877592428181352"><ele>271.1428571428571</ele><time>2026-04-12T10:51:56Z</time></trkpt><trkpt lat="44.593721935650876" lon="7.877502948049606"><ele>274.8571428571429</ele><time>2026-04-12T10:51:59Z</time></trkpt><trkpt lat="44.59374081510579" lon="7.8774080872154135"><ele>278.57142857142856</ele><time>2026-04-12T10:52:02Z</time></trkpt><trkpt lat="44.59375744731772" lon="7.877310355522053"><ele>282.2857142857143</ele><time>2026-04-12T10:52:05Z</time></trkpt><trkpt lat="44.593735576756906" lon="7.877218092775307"><ele>286.0</ele><time>2026-04-12T10:52:08Z</time></trkpt><trkpt lat="44.593737488643995" lon="7.8771083783190825"><ele>285.99999999999994</ele><time>2026-04-12T10:52:11Z</time></trkpt><trkpt lat="44.593758005340014" lon="7.877017438597692"><ele>286.0</ele><time>2026-04-12T10:52:14Z</time></trkpt><trkpt lat="44.5937675865473" lon="7.876923324280832"><ele>286.0</ele><time>2026-04-12T10:52:17Z</time></trkpt><trkpt lat="44.593777291491854" lon="7.876830989432608"><ele>286.0</ele><time>2026-04-12T10:52:20Z</time></trkpt><trkpt lat="44.5938220385567" lon="7.876729710611231"><ele>286.0</ele><time>2026-04-12T10:52:24Z</time></trkpt><trkpt lat="44.593866956225575" lon="7.876655413948375"><ele>285.99999999999994</ele><time>2026-04-12T10:52:27Z</time></trkpt><trkpt lat="44.593935767865155" lon="7.876629950810174"><ele>286.0</ele><time>2026-04-12T10:52:30Z</time></trkpt><trkpt lat="44.59400632131677" lon="7.876659153509157"><ele>286.0</ele><time>2026-04-12T10:52:33Z</time></trkpt><trkpt lat="44.594052739099084" lon="7.876744914946905"><ele>286.0</ele><time>2026-04-12T10:52:36Z</time></trkpt><trkpt lat="44.59404513295348" lon="7.876853905346953"><ele>286.0</ele><time>2026-04-12T10:52:39Z</time></trkpt><trkpt lat="44.5940277295059" lon="7.87695592824319"><ele>286.0</ele><time>2026-04-12T10:52:42Z</time></trkpt><trkpt lat="44.59404451136084" lon="7.877062885158499"><ele>286.0</ele><time>2026-04-12T10:52:45Z</time></trkpt><trkpt lat="44.594051277870044" lon="7.877167556633213"><ele>286.0</ele><time>2026-04-12T10:52:48Z</time></trkpt><trkpt lat="44.594063591457896" lon="7.877267799710116"><ele>285.99999999999994</ele><time>2026-04-12T10:52:51Z</time></trkpt><trkpt lat="44.594072088490144" lon="7.877368000234864"><ele>286.0</ele><time>2026-04-12T10:52:54Z</time></trkpt><trkpt lat="44.594082935067874" lon="7.877467659791999"><ele>286.0</ele><time>2026-04-12T10:52:57Z</time></trkpt><trkpt lat="44.59408472302968" lon="7.877572261464305"><ele>286.0</ele><time>2026-04-12T10:53:00Z</time></trkpt><trkpt lat="44.594089953143715" lon="7.8776709649262315"><ele>286.0</ele><time>2026-04-12T10:53:03Z</time></trkpt><trkpt lat="44.59409987313661" lon="7.8777695301668516"><ele>285.99999999999994</ele><time>2026-04-12T10:53:06Z</time></trkpt><trkpt lat="44.594110662572625" lon="7.877871965396173"><ele>286.0</ele><time>2026-04-12T10:53:09Z</time></trkpt><trkpt lat="44.59411700085307" lon="7.877981569756637"><ele>285.99999999999994</ele><time>2026-04-12T10:53:12Z</time></trkpt><trkpt lat="44.59412646632211" lon="7.878085753065774"><ele>286.0</ele><time>2026-04-12T10:53:15Z</time></trkpt><trkpt lat="44.594139507557415" lon="7.878193759544551"><ele>286.0</ele><time>2026-04-12T10:53:18Z</time></trkpt><trkpt lat="44.59414429630135" lon="7.878304846617809"><ele>286.0</ele><time>2026-04-12T10:53:21Z</time></trkpt><trkpt lat="44.594152086582184" lon="7.8784080332811754"><ele>286.0</ele><time>2026-04-12T10:53:24Z</time></trkpt><trkpt lat="44.59416669837361" lon="7.878507459764353"><ele>285.99999999999994</ele><time>2026-04-12T10:53:27Z</time></trkpt><trkpt lat="44.5941779706411" lon="7.878605641677612"><ele>286.0</ele><time>2026-04-12T10:53:30Z</time></trkpt><trkpt lat="44.5941991331476" lon="7.878699213004939"><ele>284.57142857142856</ele><time>2026-04-12T10:53:33Z</time></trkpt><trkpt lat="44.59422878805876" lon="7.878791261390022"><ele>283.1428571428571</ele><time>2026-04-12T10:53:36Z</time></trkpt><trkpt lat="44.59429176613668" lon="7.878842342270659"><ele>281.7142857142857</ele><time>2026-04-12T10:53:39Z</time></trkpt><trkpt lat="44.59436388692211" lon="7.878831910163447"><ele>280.2857142857143</ele><time>2026-04-12T10:53:42Z</time></trkpt><trkpt lat="44.59441385819952" lon="7.87874966640952"><ele>278.8571428571429</ele><time>2026-04-12T10:53:45Z</time></trkpt><trkpt lat="44.59442700016601" lon="7.878645950011355"><ele>277.42857142857144</ele><time>2026-04-12T10:53:48Z</time></trkpt><trkpt lat="44.594424791966674" lon="7.878542764302343"><ele>276.0</ele><time>2026-04-12T10:53:51Z</time></trkpt><trkpt lat="44.594415943552704" lon="7.878443138465678"><ele>277.42857142857144</ele><time>2026-04-12T10:53:54Z</time></trkpt><trkpt lat="44.5944273561685" lon="7.878343881559126"><ele>278.8571428571429</ele><time>2026-04-12T10:53:57Z</time></trkpt><trkpt lat="44.59443038095083" lon="7.878244209015987"><ele>280.2857142857143</ele><time>2026-04-12T10:54:00Z</time></trkpt><trkpt lat="44.59443262210617" lon="7.878145431570914"><ele>281.7142857142857</ele><time>2026-04-12T10:54:03Z</time></trkpt><trkpt lat="44.59443891469982" lon="7.878045500851474"><ele>283.1428571428571</ele><time>2026-04-12T10:54:06Z</time></trkpt><trkpt lat="44.594445741164925" lon="7.877947960680914"><ele>284.57142857142856</ele><time>2026-04-12T10:54:09Z</time></trkpt><trkpt lat="44.59445652608957" lon="7.877854079043024"><ele>286.0</ele><time>2026-04-12T10:54:12Z</time></trkpt><trkpt lat="44.594473902537786" lon="7.877763394761288"><ele>285.99999999999994</ele><time>2026-04-12T10:54:15Z</time></trkpt><trkpt lat="44.59448779206358" lon="7.877672008550652"><ele>286.0</ele><time>2026-04-12T10:54:18Z</time></trkpt><trkpt lat="44.594500761258246" lon="7.8775763811901625"><ele>286.0</ele><time>2026-04-12T10:54:21Z</time></trkpt><trkpt lat="44.594517441883916" lon="7.877480652241298"><ele>286.0</ele><time>2026-04-12T10:54:24Z</time></trkpt><trkpt lat="44.59452753328455" lon="7.87738432347764"><ele>286.0</ele><time>2026-04-12T10:54:27Z</time></trkpt><trkpt lat="44.59454342335522" lon="7.877287815363798"><ele>285.99999999999994</ele><time>2026-04-12T10:54:30Z</time></trkpt><trkpt lat="44.59455548074213" lon="7.877192619057634"><ele>286.0</ele><time>2026-04-12T10:54:33Z</time></trkpt><trkpt lat="44.594568116389965" lon="7.877096983383129"><ele>289.2857142857143</ele><time>2026-04-12T10:54:36Z</time></trkpt><trkpt lat="44.59458890708889" lon="7.877002695834868"><ele>292.57142857142856</ele><time>2026-04-12T10:54:39Z</time></trkpt><trkpt lat="44.59460043395639" lon="7.876907413932523"><ele>295.8571428571429</ele><time>2026-04-12T10:54:42Z</time></trkpt><trkpt lat="44.594610230893004" lon="7.876812939040008"><ele>299.1428571428571</ele><time>2026-04-12T10:54:45Z</time></trkpt><trkpt lat="44.59461557128682" lon="7.876714322614961"><ele>302.42857142857144</ele><time>2026-04-12T10:54:48Z</time></trkpt><trkpt lat="44.59461871611988" lon="7.876616794290985"><ele>305.7142857142857</ele><time>2026-04-12T10:54:51Z</time></trkpt><trkpt lat="44.594614949279894" lon="7.876522613857623"><ele>309.0</ele><time>2026-04-12T10:54:54Z</time></trkpt><trkpt lat="44.5945949015815" lon="7.876426200432018"><ele>309.42857142857144</ele><time>2026-04-12T10:54:57Z</time></trkpt><trkpt lat="44.59457671517203" lon="7.876331492507002"><ele>309.8571428571429</ele><time>2026-04-12T10:55:00Z</time></trkpt><trkpt lat="44.59454882011208" lon="7.876247284121223"><ele>310.28571428571433</ele><time>2026-04-12T10:55:03Z</time></trkpt><trkpt lat="44.594516429558446" lon="7.87615866724161"><ele>310.7142857142857</ele><time>2026-04-12T10:55:06Z</time></trkpt><trkpt lat="44.59448352922897" lon="7.876072400790503"><ele>311.1428571428571</ele><time>2026-04-12T10:55:09Z</time></trkpt><trkpt lat="44.59445511049433" lon="7.875982058642911"><ele>311.5714285714286</ele><time>2026-04-12T10:55:12Z</time></trkpt><trkpt lat="44.594427681184975" lon="7.875888463853458"><ele>312.0</ele><time>2026-04-12T10:55:15Z</time></trkpt><trkpt lat="44.59440131873737" lon="7.875796213677139"><ele>310.2857142857143</ele><time>2026-04-12T10:55:18Z</time></trkpt><trkpt lat="44.59438081450231" lon="7.875700469058078"><ele>308.57142857142856</ele><time>2026-04-12T10:55:21Z</time></trkpt><trkpt lat="44.59436268846604" lon="7.875607111696062"><ele>306.85714285714283</ele><time>2026-04-12T10:55:24Z</time></trkpt><trkpt lat="44.59435192303187" lon="7.875511519769448"><ele>305.1428571428571</ele><time>2026-04-12T10:55:27Z</time></trkpt><trkpt lat="44.59434408709445" lon="7.875414422365601"><ele>303.42857142857144</ele><time>2026-04-12T10:55:30Z</time></trkpt><trkpt lat="44.594331061433216" lon="7.875319477224285"><ele>301.71428571428567</ele><time>2026-04-12T10:55:33Z</time></trkpt><trkpt lat="44.59431655936037" lon="7.875222820233942"><ele>300.0</ele><time>2026-04-12T10:55:36Z</time></trkpt><trkpt lat="44.59431006992739" lon="7.875129373635214"><ele>301.2857142857143</ele><time>2026-04-12T10:55:39Z</time></trkpt><trkpt lat="44.59429683445702" lon="7.87503682965733"><ele>302.57142857142856</ele><time>2026-04-12T10:55:42Z</time></trkpt><trkpt lat="44.594287231269334" lon="7.874944140394209"><ele>303.8571428571429</ele><time>2026-04-12T10:55:45Z</time></trkpt><trkpt lat="44.594283068169325" lon="7.874845299487924"><ele>305.1428571428571</ele><time>2026-04-12T10:55:48Z</time></trkpt><trkpt lat="44.59427016193664" lon="7.874744518293049"><ele>306.42857142857144</ele><time>2026-04-12T10:55:51Z</time></trkpt><trkpt lat="44.594265095883664" lon="7.874644202084598"><ele>307.7142857142857</ele><time>2026-04-12T10:55:54Z</time></trkpt><trkpt lat="44.59425571851656" lon="7.874543213287319"><ele>309.0</ele><time>2026-04-12T10:55:57Z</time></trkpt><trkpt lat="44.59424880636806" lon="7.874441655549137"><ele>309.00000000000006</ele><time>2026-04-12T10:56:00Z</time></trkpt><trkpt lat="44.59424271010512" lon="7.874340761362057"><ele>309.0</ele><time>2026-04-12T10:56:03Z</time></trkpt><trkpt lat="44.59422435492508" lon="7.874250040626189"><ele>309.0</ele><time>2026-04-12T10:56:06Z</time></trkpt><trkpt lat="44.594211653554304" lon="7.874147804924202"><ele>309.0</ele><time>2026-04-12T10:56:09Z</time></trkpt><trkpt lat="44.5942056560924" lon="7.874049978307227"><ele>309.0</ele><time>2026-04-12T10:56:12Z</time></trkpt><trkpt lat="44.594196898331354" lon="7.8739466688597615"><ele>309.00000000000006</ele><time>2026-04-12T10:56:15Z</time></trkpt><trkpt lat="44.59419558234616" lon="7.873838926512529"><ele>309.0</ele><time>2026-04-12T10:56:18Z</time></trkpt><trkpt lat="44.59419625981047" lon="7.873732293002815"><ele>310.1666666666667</ele><time>2026-04-12T10:56:21Z</time></trkpt><trkpt lat="44.59421099111519" lon="7.873625831572287"><ele>311.3333333333333</ele><time>2026-04-12T10:56:24Z</time></trkpt><trkpt lat="44.594210644787786" lon="7.873519929838149"><ele>312.5</ele><time>2026-04-12T10:56:27Z</time></trkpt><trkpt lat="44.594225596459395" lon="7.873414685788727"><ele>313.66666666666663</ele><time>2026-04-12T10:56:30Z</time></trkpt><trkpt lat="44.594240430629256" lon="7.873307730415506"><ele>314.8333333333333</ele><time>2026-04-12T10:56:33Z</time></trkpt><trkpt lat="44.59424786427949" lon="7.873185114330237"><ele>316.0</ele><time>2026-04-12T10:56:36Z</time></trkpt><trkpt lat="44.594260411112515" lon="7.8730601244163045"><ele>317.00000000000006</ele><time>2026-04-12T10:56:39Z</time></trkpt><trkpt lat="44.59427150303811" lon="7.872934667437974"><ele>318.0</ele><time>2026-04-12T10:56:42Z</time></trkpt><trkpt lat="44.59427662428925" lon="7.8728443537055846"><ele>319.0</ele><time>2026-04-12T10:56:44Z</time></trkpt><trkpt lat="44.59428466623089" lon="7.872755181695237"><ele>320.0</ele><time>2026-04-12T10:56:46Z</time></trkpt><trkpt lat="44.594290218946576" lon="7.872662334108393"><ele>321.0</ele><time>2026-04-12T10:56:48Z</time></trkpt><trkpt lat="44.59429303008095" lon="7.87256640409622"><ele>322.00000000000006</ele><time>2026-04-12T10:56:50Z</time></trkpt><trkpt lat="44.594302484120554" lon="7.872475794839168"><ele>323.0</ele><time>2026-04-12T10:56:52Z</time></trkpt><trkpt lat="44.59429690629843" lon="7.872376026928622"><ele>323.42857142857144</ele><time>2026-04-12T10:56:54Z</time></trkpt><trkpt lat="44.59429275340769" lon="7.8722827739522145"><ele>323.8571428571429</ele><time>2026-04-12T10:56:56Z</time></trkpt><trkpt lat="44.59429454540615" lon="7.872177736744529"><ele>324.28571428571433</ele><time>2026-04-12T10:56:58Z</time></trkpt><trkpt lat="44.59428598022569" lon="7.872072250079178"><ele>324.7142857142857</ele><time>2026-04-12T10:57:00Z</time></trkpt><trkpt lat="44.59428153081625" lon="7.871967712969577"><ele>325.1428571428571</ele><time>2026-04-12T10:57:02Z</time></trkpt><trkpt lat="44.59427484921979" lon="7.87186340200574"><ele>325.5714285714286</ele><time>2026-04-12T10:57:04Z</time></trkpt><trkpt lat="44.5942624526971" lon="7.871754764793078"><ele>326.0</ele><time>2026-04-12T10:57:06Z</time></trkpt><trkpt lat="44.59425095529128" lon="7.871650827927701"><ele>326.42857142857144</ele><time>2026-04-12T10:57:08Z</time></trkpt><trkpt lat="44.59424115127922" lon="7.871554229411552"><ele>326.85714285714283</ele><time>2026-04-12T10:57:10Z</time></trkpt><trkpt lat="44.59422632747255" lon="7.871422935183112"><ele>327.2857142857143</ele><time>2026-04-12T10:57:13Z</time></trkpt><trkpt lat="44.594212076994225" lon="7.871324831531833"><ele>327.7142857142857</ele><time>2026-04-12T10:57:15Z</time></trkpt><trkpt lat="44.59421305276038" lon="7.871236371080051"><ele>328.1428571428571</ele><time>2026-04-12T10:57:17Z</time></trkpt><trkpt lat="44.594213459041825" lon="7.871145197469971"><ele>328.57142857142856</ele><time>2026-04-12T10:57:19Z</time></trkpt><trkpt lat="44.594211095344086" lon="7.871045511697342"><ele>329.0</ele><time>2026-04-12T10:57:22Z</time></trkpt><trkpt lat="44.59428405478703" lon="7.871021045248509"><ele>329.0</ele><time>2026-04-12T10:57:26Z</time></trkpt><trkpt lat="44.59435832143553" lon="7.871047775890467"><ele>329.0</ele><time>2026-04-12T10:57:29Z</time></trkpt><trkpt lat="44.594432770710924" lon="7.871055121280627"><ele>329.0</ele><time>2026-04-12T10:57:32Z</time></trkpt><trkpt lat="44.59450788220945" lon="7.871067550883111"><ele>329.0</ele><time>2026-04-12T10:57:35Z</time></trkpt><trkpt lat="44.59458321382924" lon="7.871073859328186"><ele>329.0</ele><time>2026-04-12T10:57:38Z</time></trkpt><trkpt lat="44.59464627144374" lon="7.871068660068564"><ele>329.0</ele><time>2026-04-12T10:57:40Z</time></trkpt><trkpt lat="44.594711719868165" lon="7.871046246417776"><ele>329.0</ele><time>2026-04-12T10:57:43Z</time></trkpt><trkpt lat="44.59477959747693" lon="7.871055202571901"><ele>328.33333333333337</ele><time>2026-04-12T10:57:46Z</time></trkpt><trkpt lat="44.59486941005729" lon="7.871060738688447"><ele>327.6666666666667</ele><time>2026-04-12T10:57:49Z</time></trkpt><trkpt lat="44.59494393394294" lon="7.871089964787564"><ele>327.0</ele><time>2026-04-12T10:57:52Z</time></trkpt><trkpt lat="44.59501000305303" lon="7.87109268029712"><ele>326.3333333333333</ele><time>2026-04-12T10:57:55Z</time></trkpt><trkpt lat="44.59508756691931" lon="7.8710813390863485"><ele>325.66666666666663</ele><time>2026-04-12T10:58:00Z</time></trkpt><trkpt lat="44.59516225211469" lon="7.871051932740716"><ele>325.0</ele><time>2026-04-12T10:58:04Z</time></trkpt><trkpt lat="44.59523334673421" lon="7.87102769502918"><ele>325.0</ele><time>2026-04-12T10:58:07Z</time></trkpt><trkpt lat="44.595296388447935" lon="7.87098534793001"><ele>325.0</ele><time>2026-04-12T10:58:10Z</time></trkpt><trkpt lat="44.59535511326009" lon="7.870947893375238"><ele>325.0</ele><time>2026-04-12T10:58:14Z</time></trkpt><trkpt lat="44.59543198620561" lon="7.870904495423335"><ele>325.0</ele><time>2026-04-12T10:58:17Z</time></trkpt><trkpt lat="44.59550363548689" lon="7.870875206775152"><ele>325.0</ele><time>2026-04-12T10:58:20Z</time></trkpt><trkpt lat="44.595582825327824" lon="7.870843022810833"><ele>325.0</ele><time>2026-04-12T10:58:23Z</time></trkpt><trkpt lat="44.59564475144998" lon="7.870820979874857"><ele>325.0</ele><time>2026-04-12T10:58:25Z</time></trkpt><trkpt lat="44.59570804309834" lon="7.870798450891199"><ele>325.5</ele><time>2026-04-12T10:58:27Z</time></trkpt><trkpt lat="44.59577812131167" lon="7.870797092695414"><ele>326.0</ele><time>2026-04-12T10:58:29Z</time></trkpt><trkpt lat="44.595836570174384" lon="7.870753713087845"><ele>326.5</ele><time>2026-04-12T10:58:31Z</time></trkpt><trkpt lat="44.59592481280337" lon="7.870739650415335"><ele>327.0</ele><time>2026-04-12T10:58:34Z</time></trkpt><trkpt lat="44.596009281500166" lon="7.870698633797872"><ele>327.5</ele><time>2026-04-12T10:58:37Z</time></trkpt><trkpt lat="44.59607152316278" lon="7.870680789630024"><ele>328.0</ele><time>2026-04-12T10:58:39Z</time></trkpt><trkpt lat="44.596158741766615" lon="7.87066008067736"><ele>327.8333333333333</ele><time>2026-04-12T10:58:42Z</time></trkpt><trkpt lat="44.59623921329698" lon="7.870672006643953"><ele>327.66666666666663</ele><time>2026-04-12T10:58:45Z</time></trkpt><trkpt lat="44.59632851865" lon="7.8706485704333575"><ele>327.5</ele><time>2026-04-12T10:58:48Z</time></trkpt><trkpt lat="44.59641872779648" lon="7.870636742736565"><ele>327.3333333333333</ele><time>2026-04-12T10:58:51Z</time></trkpt><trkpt lat="44.59650459139711" lon="7.870623994579971"><ele>327.1666666666667</ele><time>2026-04-12T10:58:54Z</time></trkpt><trkpt lat="44.596587475873775" lon="7.870622116132145"><ele>327.0</ele><time>2026-04-12T10:58:57Z</time></trkpt><trkpt lat="44.59667743147148" lon="7.870624627134005"><ele>327.0</ele><time>2026-04-12T10:59:00Z</time></trkpt><trkpt lat="44.596741073055625" lon="7.870604137320501"><ele>327.0</ele><time>2026-04-12T10:59:02Z</time></trkpt><trkpt lat="44.596803950916396" lon="7.870585319585693"><ele>327.0</ele><time>2026-04-12T10:59:04Z</time></trkpt><trkpt lat="44.5968677140855" lon="7.870581144045821"><ele>327.0</ele><time>2026-04-12T10:59:06Z</time></trkpt><trkpt lat="44.59694545549981" lon="7.870550713891644"><ele>327.0</ele><time>2026-04-12T10:59:09Z</time></trkpt><trkpt lat="44.59702003967786" lon="7.870530254207086"><ele>327.0</ele><time>2026-04-12T10:59:12Z</time></trkpt><trkpt lat="44.59710419203763" lon="7.870510981251434"><ele>327.0</ele><time>2026-04-12T10:59:15Z</time></trkpt><trkpt lat="44.59718078183955" lon="7.870508378170531"><ele>327.0</ele><time>2026-04-12T10:59:18Z</time></trkpt><trkpt lat="44.59726232073884" lon="7.870499219895114"><ele>327.0</ele><time>2026-04-12T10:59:21Z</time></trkpt><trkpt lat="44.59733462631148" lon="7.870501034074254"><ele>327.0</ele><time>2026-04-12T10:59:23Z</time></trkpt><trkpt lat="44.59740734836647" lon="7.870485444857379"><ele>327.0</ele><time>2026-04-12T10:59:25Z</time></trkpt><trkpt lat="44.59747276834487" lon="7.870469666790021"><ele>327.0</ele><time>2026-04-12T10:59:27Z</time></trkpt><trkpt lat="44.59757151533294" lon="7.870462836659239"><ele>327.0</ele><time>2026-04-12T10:59:30Z</time></trkpt><trkpt lat="44.597647009679235" lon="7.870459144338899"><ele>327.0</ele><time>2026-04-12T10:59:32Z</time></trkpt><trkpt lat="44.59772749495043" lon="7.870441991518498"><ele>327.0</ele><time>2026-04-12T10:59:34Z</time></trkpt><trkpt lat="44.59780777568673" lon="7.870425855526924"><ele>327.0</ele><time>2026-04-12T10:59:36Z</time></trkpt><trkpt lat="44.597891128445475" lon="7.870411369781998"><ele>327.0</ele><time>2026-04-12T10:59:38Z</time></trkpt><trkpt lat="44.597967557674586" lon="7.870392864729524"><ele>327.0</ele><time>2026-04-12T10:59:40Z</time></trkpt><trkpt lat="44.598050918192435" lon="7.870385165205358"><ele>327.0</ele><time>2026-04-12T10:59:42Z</time></trkpt><trkpt lat="44.59814372597597" lon="7.8703778877332695"><ele>327.0</ele><time>2026-04-12T10:59:44Z</time></trkpt><trkpt lat="44.59822713016211" lon="7.870365811513333"><ele>327.0</ele><time>2026-04-12T10:59:46Z</time></trkpt><trkpt lat="44.59830373000572" lon="7.870367849250935"><ele>327.0</ele><time>2026-04-12T10:59:48Z</time></trkpt><trkpt lat="44.59838530460015" lon="7.870348493860733"><ele>327.0</ele><time>2026-04-12T10:59:50Z</time></trkpt><trkpt lat="44.598471990135806" lon="7.870329299824225"><ele>327.0</ele><time>2026-04-12T10:59:52Z</time></trkpt><trkpt lat="44.59856007139803" lon="7.870314488531548"><ele>327.0</ele><time>2026-04-12T10:59:54Z</time></trkpt><trkpt lat="44.59865193814582" lon="7.87029488048478"><ele>326.8</ele><time>2026-04-12T10:59:56Z</time></trkpt><trkpt lat="44.59874335862819" lon="7.870281344462654"><ele>326.6</ele><time>2026-04-12T10:59:58Z</time></trkpt><trkpt lat="44.59883848893085" lon="7.870255732609603"><ele>326.40000000000003</ele><time>2026-04-12T11:00:00Z</time></trkpt><trkpt lat="44.59893683542033" lon="7.870234086267602"><ele>326.20000000000005</ele><time>2026-04-12T11:00:02Z</time></trkpt><trkpt lat="44.59903645083189" lon="7.870222775986052"><ele>326.0</ele><time>2026-04-12T11:00:04Z</time></trkpt><trkpt lat="44.59913444692903" lon="7.870201646787435"><ele>326.0</ele><time>2026-04-12T11:00:06Z</time></trkpt><trkpt lat="44.59922730769815" lon="7.870184595975389"><ele>326.0</ele><time>2026-04-12T11:00:08Z</time></trkpt><trkpt lat="44.59931731671403" lon="7.8701770060706915"><ele>326.0</ele><time>2026-04-12T11:00:10Z</time></trkpt><trkpt lat="44.59941292510884" lon="7.870168880853328"><ele>326.0</ele><time>2026-04-12T11:00:12Z</time></trkpt><trkpt lat="44.59950838948211" lon="7.870147212279108"><ele>326.0</ele><time>2026-04-12T11:00:14Z</time></trkpt><trkpt lat="44.59960529323404" lon="7.870129895460658"><ele>326.0</ele><time>2026-04-12T11:00:16Z</time></trkpt><trkpt lat="44.59970050856336" lon="7.870119479108398"><ele>326.0</ele><time>2026-04-12T11:00:18Z</time></trkpt><trkpt lat="44.59979303008141" lon="7.870096745181348"><ele>326.0</ele><time>2026-04-12T11:00:20Z</time></trkpt><trkpt lat="44.59989219413757" lon="7.870086279750695"><ele>326.0</ele><time>2026-04-12T11:00:22Z</time></trkpt><trkpt lat="44.59999506950892" lon="7.87007864710684"><ele>326.0</ele><time>2026-04-12T11:00:24Z</time></trkpt><trkpt lat="44.60009499039043" lon="7.870060596564998"><ele>326.20000000000005</ele><time>2026-04-12T11:00:26Z</time></trkpt><trkpt lat="44.60019517709952" lon="7.870034757720677"><ele>326.40000000000003</ele><time>2026-04-12T11:00:28Z</time></trkpt><trkpt lat="44.60029066556876" lon="7.870011769090878"><ele>326.6</ele><time>2026-04-12T11:00:30Z</time></trkpt><trkpt lat="44.60038351560107" lon="7.86999863089868"><ele>326.8</ele><time>2026-04-12T11:00:32Z</time></trkpt><trkpt lat="44.60047680911197" lon="7.869983227916074"><ele>327.0</ele><time>2026-04-12T11:00:34Z</time></trkpt><trkpt lat="44.60056991678578" lon="7.869975852649689"><ele>327.0</ele><time>2026-04-12T11:00:36Z</time></trkpt><trkpt lat="44.600669043600305" lon="7.869957749704383"><ele>327.0</ele><time>2026-04-12T11:00:38Z</time></trkpt><trkpt lat="44.60075797474782" lon="7.869943300349634"><ele>327.0</ele><time>2026-04-12T11:00:40Z</time></trkpt><trkpt lat="44.600847772966475" lon="7.869928010669602"><ele>327.0</ele><time>2026-04-12T11:00:42Z</time></trkpt><trkpt lat="44.600943972815806" lon="7.869916054797009"><ele>327.0</ele><time>2026-04-12T11:00:44Z</time></trkpt><trkpt lat="44.60103720119093" lon="7.869908303778414"><ele>327.0</ele><time>2026-04-12T11:00:46Z</time></trkpt><trkpt lat="44.6011273364207" lon="7.8698894773548105"><ele>327.0</ele><time>2026-04-12T11:00:48Z</time></trkpt><trkpt lat="44.60121479060555" lon="7.869869304726573"><ele>327.0</ele><time>2026-04-12T11:00:50Z</time></trkpt><trkpt lat="44.601300315669455" lon="7.8698515624946745"><ele>327.0</ele><time>2026-04-12T11:00:52Z</time></trkpt><trkpt lat="44.601399468312515" lon="7.869850524039051"><ele>327.0</ele><time>2026-04-12T11:00:54Z</time></trkpt><trkpt lat="44.60149436076704" lon="7.869835168369001"><ele>327.0</ele><time>2026-04-12T11:00:56Z</time></trkpt><trkpt lat="44.601591152821904" lon="7.869813286591879"><ele>327.0</ele><time>2026-04-12T11:00:58Z</time></trkpt><trkpt lat="44.60169167776803" lon="7.869795932513532"><ele>327.0</ele><time>2026-04-12T11:01:00Z</time></trkpt><trkpt lat="44.601779095835745" lon="7.86977234237542"><ele>327.0</ele><time>2026-04-12T11:01:02Z</time></trkpt><trkpt lat="44.60187144052313" lon="7.869756984656587"><ele>327.0</ele><time>2026-04-12T11:01:04Z</time></trkpt><trkpt lat="44.601966118033275" lon="7.869736103984635"><ele>327.0</ele><time>2026-04-12T11:01:06Z</time></trkpt><trkpt lat="44.602051933910495" lon="7.8697106612312755"><ele>327.0</ele><time>2026-04-12T11:01:08Z</time></trkpt><trkpt lat="44.60213276473513" lon="7.869691251529186"><ele>327.0</ele><time>2026-04-12T11:01:10Z</time></trkpt><trkpt lat="44.60221923562009" lon="7.869676625967646"><ele>327.0</ele><time>2026-04-12T11:01:12Z</time></trkpt><trkpt lat="44.602298983917485" lon="7.8696530115854575"><ele>327.0</ele><time>2026-04-12T11:01:14Z</time></trkpt><trkpt lat="44.60236703869195" lon="7.869612335556886"><ele>327.0</ele><time>2026-04-12T11:01:16Z</time></trkpt><trkpt lat="44.60244157487276" lon="7.869582019721554"><ele>327.0</ele><time>2026-04-12T11:01:20Z</time></trkpt><trkpt lat="44.60236983953581" lon="7.869602964263943"><ele>327.0</ele><time>2026-04-12T11:01:26Z</time></trkpt><trkpt lat="44.602294501093596" lon="7.869662994263167"><ele>327.0</ele><time>2026-04-12T11:01:30Z</time></trkpt><trkpt lat="44.60222905167126" lon="7.8696827082069065"><ele>327.0</ele><time>2026-04-12T11:01:32Z</time></trkpt><trkpt lat="44.60215441003601" lon="7.869696689130871"><ele>327.0</ele><time>2026-04-12T11:01:34Z</time></trkpt><trkpt lat="44.60207550717929" lon="7.869709312361454"><ele>327.0</ele><time>2026-04-12T11:01:36Z</time></trkpt><trkpt lat="44.6020010287804" lon="7.869709727979566"><ele>327.0</ele><time>2026-04-12T11:01:38Z</time></trkpt><trkpt lat="44.601924931792425" lon="7.869719442015357"><ele>327.0</ele><time>2026-04-12T11:01:40Z</time></trkpt><trkpt lat="44.60185601062282" lon="7.86974652077528"><ele>327.0</ele><time>2026-04-12T11:01:42Z</time></trkpt><trkpt lat="44.60177684239747" lon="7.869808786471914"><ele>327.0</ele><time>2026-04-12T11:01:45Z</time></trkpt><trkpt lat="44.60180897872848" lon="7.869961964394479"><ele>327.0</ele><time>2026-04-12T11:01:49Z</time></trkpt><trkpt lat="44.601823357500486" lon="7.8700672363027655"><ele>327.0</ele><time>2026-04-12T11:01:52Z</time></trkpt><trkpt lat="44.601842282274426" lon="7.870164666174944"><ele>326.3333333333333</ele><time>2026-04-12T11:02:01Z</time></trkpt><trkpt lat="44.60185961309279" lon="7.870263888927309"><ele>325.6666666666667</ele><time>2026-04-12T11:02:03Z</time></trkpt><trkpt lat="44.60186090369868" lon="7.87037908624687"><ele>325.0</ele><time>2026-04-12T11:02:05Z</time></trkpt><trkpt lat="44.601878879373324" lon="7.8704990114432105"><ele>324.33333333333337</ele><time>2026-04-12T11:02:07Z</time></trkpt><trkpt lat="44.60190528757096" lon="7.870609907423633"><ele>323.6666666666667</ele><time>2026-04-12T11:02:09Z</time></trkpt><trkpt lat="44.60192538734565" lon="7.87071381043262"><ele>323.0</ele><time>2026-04-12T11:02:12Z</time></trkpt><trkpt lat="44.60192385538104" lon="7.870803317931"><ele>322.5</ele><time>2026-04-12T11:02:16Z</time></trkpt><trkpt lat="44.60201675551858" lon="7.870824711072189"><ele>322.0</ele><time>2026-04-12T11:02:20Z</time></trkpt><trkpt lat="44.602090653618525" lon="7.870796182603999"><ele>321.5</ele><time>2026-04-12T11:02:23Z</time></trkpt><trkpt lat="44.60216108617855" lon="7.8707815690904885"><ele>321.0</ele><time>2026-04-12T11:02:26Z</time></trkpt><trkpt lat="44.60224378435535" lon="7.870761612479003"><ele>320.5</ele><time>2026-04-12T11:02:29Z</time></trkpt><trkpt lat="44.60230831038333" lon="7.870755627977828"><ele>320.0</ele><time>2026-04-12T11:02:31Z</time></trkpt><trkpt lat="44.60240219809096" lon="7.870750933873211"><ele>320.0</ele><time>2026-04-12T11:02:34Z</time></trkpt><trkpt lat="44.6024935434388" lon="7.870741219047707"><ele>320.0</ele><time>2026-04-12T11:02:37Z</time></trkpt><trkpt lat="44.602587310117265" lon="7.870725405288081"><ele>320.0</ele><time>2026-04-12T11:02:40Z</time></trkpt><trkpt lat="44.60266768956353" lon="7.870715476137693"><ele>320.0</ele><time>2026-04-12T11:02:43Z</time></trkpt><trkpt lat="44.60275754970627" lon="7.870706084609675"><ele>320.0</ele><time>2026-04-12T11:02:46Z</time></trkpt><trkpt lat="44.60283885251909" lon="7.870713314294837"><ele>320.0</ele><time>2026-04-12T11:02:49Z</time></trkpt><trkpt lat="44.60291967053929" lon="7.870719399964039"><ele>320.33333333333337</ele><time>2026-04-12T11:02:52Z</time></trkpt><trkpt lat="44.602983168629876" lon="7.870709945020071"><ele>320.6666666666667</ele><time>2026-04-12T11:02:54Z</time></trkpt><trkpt lat="44.60307379510814" lon="7.870684199575584"><ele>321.0</ele><time>2026-04-12T11:02:57Z</time></trkpt><trkpt lat="44.603148611969274" lon="7.870639376285484"><ele>321.3333333333333</ele><time>2026-04-12T11:03:00Z</time></trkpt><trkpt lat="44.603227262740276" lon="7.870622289120739"><ele>321.66666666666663</ele><time>2026-04-12T11:03:03Z</time></trkpt><trkpt lat="44.603296099903744" lon="7.870600523212216"><ele>322.0</ele><time>2026-04-12T11:03:06Z</time></trkpt><trkpt lat="44.60336559369904" lon="7.870585327857461"><ele>322.0</ele><time>2026-04-12T11:03:09Z</time></trkpt><trkpt lat="44.603448016871106" lon="7.870558446853529"><ele>322.0</ele><time>2026-04-12T11:03:12Z</time></trkpt><trkpt lat="44.6035263469762" lon="7.8705852480345895"><ele>322.0</ele><time>2026-04-12T11:03:16Z</time></trkpt><trkpt lat="44.603618414678856" lon="7.870582023166391"><ele>322.0</ele><time>2026-04-12T11:03:19Z</time></trkpt><trkpt lat="44.603709247420866" lon="7.870577385933595"><ele>322.0</ele><time>2026-04-12T11:03:22Z</time></trkpt><trkpt lat="44.603783893992585" lon="7.8705843670602444"><ele>322.0</ele><time>2026-04-12T11:03:24Z</time></trkpt><trkpt lat="44.60385391819543" lon="7.870584936991801"><ele>322.0</ele><time>2026-04-12T11:03:26Z</time></trkpt><trkpt lat="44.603925379261895" lon="7.870592414099214"><ele>322.0</ele><time>2026-04-12T11:03:28Z</time></trkpt><trkpt lat="44.60399547104241" lon="7.870587704763051"><ele>322.0</ele><time>2026-04-12T11:03:30Z</time></trkpt><trkpt lat="44.60405998308824" lon="7.870614619491546"><ele>322.0</ele><time>2026-04-12T11:03:32Z</time></trkpt><trkpt lat="44.60412534631224" lon="7.870603725118422"><ele>322.0</ele><time>2026-04-12T11:03:34Z</time></trkpt><trkpt lat="44.6042172690123" lon="7.870629525144026"><ele>322.0</ele><time>2026-04-12T11:03:37Z</time></trkpt><trkpt lat="44.60430303409624" lon="7.870620920692312"><ele>322.0</ele><time>2026-04-12T11:03:40Z</time></trkpt><trkpt lat="44.60439298956906" lon="7.870612319836324"><ele>322.0</ele><time>2026-04-12T11:03:43Z</time></trkpt><trkpt lat="44.60448456138297" lon="7.870613900388869"><ele>322.0</ele><time>2026-04-12T11:03:46Z</time></trkpt><trkpt lat="44.60456298762696" lon="7.870609324142961"><ele>322.0</ele><time>2026-04-12T11:03:48Z</time></trkpt><trkpt lat="44.60464713270309" lon="7.870605927401562"><ele>322.0</ele><time>2026-04-12T11:03:50Z</time></trkpt><trkpt lat="44.604734579767054" lon="7.870599506604935"><ele>322.0</ele><time>2026-04-12T11:03:52Z</time></trkpt><trkpt lat="44.60480616762287" lon="7.87059018162881"><ele>321.6</ele><time>2026-04-12T11:03:54Z</time></trkpt><trkpt lat="44.60488177283999" lon="7.87058507819784"><ele>321.20000000000005</ele><time>2026-04-12T11:03:56Z</time></trkpt><trkpt lat="44.60497984297899" lon="7.87061446718937"><ele>320.8</ele><time>2026-04-12T11:03:58Z</time></trkpt><trkpt lat="44.60509269819574" lon="7.870661155694453"><ele>320.4</ele><time>2026-04-12T11:04:00Z</time></trkpt><trkpt lat="44.60520222631005" lon="7.8707446471311036"><ele>320.0</ele><time>2026-04-12T11:04:02Z</time></trkpt><trkpt lat="44.60525405429085" lon="7.87081003734073"><ele>320.0</ele><time>2026-04-12T11:04:03Z</time></trkpt><trkpt lat="44.60530514640449" lon="7.870884562191214"><ele>320.0</ele><time>2026-04-12T11:04:04Z</time></trkpt><trkpt lat="44.605355130265" lon="7.870973801193377"><ele>320.0</ele><time>2026-04-12T11:04:05Z</time></trkpt><trkpt lat="44.60540253461279" lon="7.87106840582831"><ele>320.0</ele><time>2026-04-12T11:04:06Z</time></trkpt><trkpt lat="44.60544939577759" lon="7.871151099432639"><ele>320.0</ele><time>2026-04-12T11:04:07Z</time></trkpt><trkpt lat="44.60549564422484" lon="7.8712268619646855"><ele>320.0</ele><time>2026-04-12T11:04:08Z</time></trkpt><trkpt lat="44.60554576094779" lon="7.871305337716136"><ele>317.5</ele><time>2026-04-12T11:04:09Z</time></trkpt><trkpt lat="44.60560625861689" lon="7.871380765136623"><ele>315.0</ele><time>2026-04-12T11:04:10Z</time></trkpt><trkpt lat="44.60566817383718" lon="7.871455952543275"><ele>312.5</ele><time>2026-04-12T11:04:11Z</time></trkpt><trkpt lat="44.60573825199644" lon="7.871530065917485"><ele>310.0</ele><time>2026-04-12T11:04:12Z</time></trkpt><trkpt lat="44.60581009519231" lon="7.871612229338686"><ele>307.5</ele><time>2026-04-12T11:04:13Z</time></trkpt><trkpt lat="44.605883954347334" lon="7.871705438362559"><ele>305.0</ele><time>2026-04-12T11:04:14Z</time></trkpt><trkpt lat="44.60596303855341" lon="7.871803126318869"><ele>302.6</ele><time>2026-04-12T11:04:15Z</time></trkpt><trkpt lat="44.60604238695231" lon="7.871902094161425"><ele>300.2</ele><time>2026-04-12T11:04:16Z</time></trkpt><trkpt lat="44.606141634180794" lon="7.872000693769705"><ele>297.8</ele><time>2026-04-12T11:04:17Z</time></trkpt><trkpt lat="44.60621895396603" lon="7.872093221402561"><ele>295.4</ele><time>2026-04-12T11:04:18Z</time></trkpt><trkpt lat="44.606297389987915" lon="7.872165810878606"><ele>293.0</ele><time>2026-04-12T11:04:19Z</time></trkpt><trkpt lat="44.60637699125181" lon="7.87222578519386"><ele>293.0</ele><time>2026-04-12T11:04:20Z</time></trkpt><trkpt lat="44.60646117644757" lon="7.8722584838603"><ele>293.0</ele><time>2026-04-12T11:04:21Z</time></trkpt><trkpt lat="44.60654724422423" lon="7.872252795979966"><ele>293.0</ele><time>2026-04-12T11:04:22Z</time></trkpt><trkpt lat="44.60665724636896" lon="7.872162718267713"><ele>293.0</ele><time>2026-04-12T11:04:24Z</time></trkpt><trkpt lat="44.60672262443122" lon="7.872122910396893"><ele>293.0</ele><time>2026-04-12T11:04:25Z</time></trkpt><trkpt lat="44.60683531596914" lon="7.8720623740392455"><ele>293.0</ele><time>2026-04-12T11:04:27Z</time></trkpt><trkpt lat="44.606945087690164" lon="7.872004765187385"><ele>293.0</ele><time>2026-04-12T11:04:29Z</time></trkpt><trkpt lat="44.60705901852584" lon="7.872001892936092"><ele>293.0</ele><time>2026-04-12T11:04:31Z</time></trkpt><trkpt lat="44.60716796755582" lon="7.872034036307639"><ele>293.0</ele><time>2026-04-12T11:04:33Z</time></trkpt><trkpt lat="44.607273701165184" lon="7.872073058124578"><ele>291.8</ele><time>2026-04-12T11:04:35Z</time></trkpt><trkpt lat="44.607377271912476" lon="7.872107167325791"><ele>290.6</ele><time>2026-04-12T11:04:37Z</time></trkpt><trkpt lat="44.607480056948276" lon="7.872143400027122"><ele>289.4</ele><time>2026-04-12T11:04:39Z</time></trkpt><trkpt lat="44.60758206755148" lon="7.872175937721892"><ele>288.2</ele><time>2026-04-12T11:04:41Z</time></trkpt><trkpt lat="44.60768312781384" lon="7.8722011805498795"><ele>287.0</ele><time>2026-04-12T11:04:43Z</time></trkpt><trkpt lat="44.607777155008236" lon="7.872239068456899"><ele>288.0</ele><time>2026-04-12T11:04:45Z</time></trkpt><trkpt lat="44.60786412211345" lon="7.872273774356953"><ele>289.0</ele><time>2026-04-12T11:04:47Z</time></trkpt><trkpt lat="44.60794946723199" lon="7.872295425883935"><ele>290.0</ele><time>2026-04-12T11:04:49Z</time></trkpt><trkpt lat="44.60803344155099" lon="7.872318874992328"><ele>291.0</ele><time>2026-04-12T11:04:51Z</time></trkpt><trkpt lat="44.60811871457621" lon="7.8723409786976735"><ele>292.0</ele><time>2026-04-12T11:04:53Z</time></trkpt><trkpt lat="44.60820211343372" lon="7.872366971653626"><ele>293.0</ele><time>2026-04-12T11:04:55Z</time></trkpt><trkpt lat="44.60827928608615" lon="7.872387560186591"><ele>293.0</ele><time>2026-04-12T11:04:57Z</time></trkpt><trkpt lat="44.6083563367946" lon="7.872404417847718"><ele>293.0</ele><time>2026-04-12T11:04:59Z</time></trkpt><trkpt lat="44.60843252581013" lon="7.872442455064566"><ele>293.0</ele><time>2026-04-12T11:05:01Z</time></trkpt><trkpt lat="44.60851267628431" lon="7.872467733934378"><ele>293.0</ele><time>2026-04-12T11:05:03Z</time></trkpt><trkpt lat="44.60858662876273" lon="7.872485712013795"><ele>293.0</ele><time>2026-04-12T11:05:05Z</time></trkpt><trkpt lat="44.60865619183834" lon="7.872495105164813"><ele>293.0</ele><time>2026-04-12T11:05:07Z</time></trkpt><trkpt lat="44.60873265094134" lon="7.872481950881217"><ele>294.0</ele><time>2026-04-12T11:05:09Z</time></trkpt><trkpt lat="44.60880719637699" lon="7.87245660072015"><ele>295.0</ele><time>2026-04-12T11:05:11Z</time></trkpt><trkpt lat="44.60886956955752" lon="7.872384289546281"><ele>296.0</ele><time>2026-04-12T11:05:13Z</time></trkpt><trkpt lat="44.60891587812029" lon="7.872291486488676"><ele>297.0</ele><time>2026-04-12T11:05:15Z</time></trkpt><trkpt lat="44.608966419431155" lon="7.872197834803916"><ele>298.0</ele><time>2026-04-12T11:05:17Z</time></trkpt><trkpt lat="44.60901128409552" lon="7.872092845899354"><ele>299.0</ele><time>2026-04-12T11:05:19Z</time></trkpt><trkpt lat="44.60905696120425" lon="7.871983965154413"><ele>299.0</ele><time>2026-04-12T11:05:21Z</time></trkpt><trkpt lat="44.609105293022836" lon="7.871877383034003"><ele>299.0</ele><time>2026-04-12T11:05:23Z</time></trkpt><trkpt lat="44.60915053616399" lon="7.871765962418876"><ele>299.0</ele><time>2026-04-12T11:05:25Z</time></trkpt><trkpt lat="44.60919516650616" lon="7.871660983653412"><ele>299.0</ele><time>2026-04-12T11:05:27Z</time></trkpt><trkpt lat="44.60923784502385" lon="7.8715651256147785"><ele>299.0</ele><time>2026-04-12T11:05:29Z</time></trkpt><trkpt lat="44.609286304519294" lon="7.871467644603939"><ele>299.0</ele><time>2026-04-12T11:05:31Z</time></trkpt><trkpt lat="44.60934835603488" lon="7.871382656898266"><ele>299.2</ele><time>2026-04-12T11:05:33Z</time></trkpt><trkpt lat="44.60943409727929" lon="7.871333340730936"><ele>299.4</ele><time>2026-04-12T11:05:35Z</time></trkpt><trkpt lat="44.60952384793881" lon="7.871346865771444"><ele>299.6</ele><time>2026-04-12T11:05:37Z</time></trkpt><trkpt lat="44.60961530002261" lon="7.871353270449249"><ele>299.8</ele><time>2026-04-12T11:05:39Z</time></trkpt><trkpt lat="44.609707325978626" lon="7.871364438440664"><ele>300.0</ele><time>2026-04-12T11:05:41Z</time></trkpt><trkpt lat="44.609797511075804" lon="7.871353269141146"><ele>299.6666666666667</ele><time>2026-04-12T11:05:43Z</time></trkpt><trkpt lat="44.60987893075789" lon="7.8713534890307795"><ele>299.3333333333333</ele><time>2026-04-12T11:05:45Z</time></trkpt><trkpt lat="44.609965887491505" lon="7.871338378815366"><ele>299.0</ele><time>2026-04-12T11:05:47Z</time></trkpt><trkpt lat="44.61005824621549" lon="7.87132683268215"><ele>298.66666666666663</ele><time>2026-04-12T11:05:49Z</time></trkpt><trkpt lat="44.61015029647441" lon="7.871324782607848"><ele>298.3333333333333</ele><time>2026-04-12T11:05:51Z</time></trkpt><trkpt lat="44.61023709071627" lon="7.871320765045517"><ele>298.0</ele><time>2026-04-12T11:05:53Z</time></trkpt><trkpt lat="44.61031852533823" lon="7.871309540101666"><ele>298.2</ele><time>2026-04-12T11:05:55Z</time></trkpt><trkpt lat="44.61039594191434" lon="7.871318263177235"><ele>298.4</ele><time>2026-04-12T11:05:58Z</time></trkpt><trkpt lat="44.6104849679252" lon="7.871285366773499"><ele>298.59999999999997</ele><time>2026-04-12T11:06:01Z</time></trkpt><trkpt lat="44.61057626021442" lon="7.871263751264322"><ele>298.8</ele><time>2026-04-12T11:06:03Z</time></trkpt><trkpt lat="44.61066848438561" lon="7.871238477188698"><ele>299.0</ele><time>2026-04-12T11:06:05Z</time></trkpt><trkpt lat="44.61076481592587" lon="7.871205670233405"><ele>299.0</ele><time>2026-04-12T11:06:07Z</time></trkpt><trkpt lat="44.61085835744687" lon="7.87119759907636"><ele>299.0</ele><time>2026-04-12T11:06:09Z</time></trkpt><trkpt lat="44.61093947930896" lon="7.87118479330891"><ele>299.0</ele><time>2026-04-12T11:06:11Z</time></trkpt><trkpt lat="44.61102613975256" lon="7.871177133374424"><ele>299.0</ele><time>2026-04-12T11:06:13Z</time></trkpt><trkpt lat="44.61111358236638" lon="7.871163267399098"><ele>299.0</ele><time>2026-04-12T11:06:15Z</time></trkpt><trkpt lat="44.61119973288553" lon="7.871143891378408"><ele>299.0</ele><time>2026-04-12T11:06:17Z</time></trkpt><trkpt lat="44.61128617864579" lon="7.871134500582005"><ele>298.83333333333337</ele><time>2026-04-12T11:06:19Z</time></trkpt><trkpt lat="44.61137364075727" lon="7.871123477484695"><ele>298.6666666666667</ele><time>2026-04-12T11:06:21Z</time></trkpt><trkpt lat="44.61145839539087" lon="7.871117203727604"><ele>298.5</ele><time>2026-04-12T11:06:23Z</time></trkpt><trkpt lat="44.61154188891042" lon="7.871109041893429"><ele>298.3333333333333</ele><time>2026-04-12T11:06:25Z</time></trkpt><trkpt lat="44.61162557257918" lon="7.871105718613428"><ele>298.16666666666663</ele><time>2026-04-12T11:06:27Z</time></trkpt><trkpt lat="44.611707833138375" lon="7.8710941884869365"><ele>298.0</ele><time>2026-04-12T11:06:29Z</time></trkpt><trkpt lat="44.61179580695178" lon="7.871091391608718"><ele>298.0</ele><time>2026-04-12T11:06:31Z</time></trkpt><trkpt lat="44.611880089948485" lon="7.871079716091858"><ele>298.0</ele><time>2026-04-12T11:06:33Z</time></trkpt><trkpt lat="44.61196593459532" lon="7.871063849008199"><ele>298.0</ele><time>2026-04-12T11:06:35Z</time></trkpt><trkpt lat="44.61205331331761" lon="7.871058202013601"><ele>298.0</ele><time>2026-04-12T11:06:37Z</time></trkpt><trkpt lat="44.61213923299665" lon="7.871041490265627"><ele>298.0</ele><time>2026-04-12T11:06:39Z</time></trkpt><trkpt lat="44.61222211980087" lon="7.871022316143493"><ele>298.0</ele><time>2026-04-12T11:06:41Z</time></trkpt><trkpt lat="44.61231019517859" lon="7.871015270704187"><ele>297.66666666666663</ele><time>2026-04-12T11:06:43Z</time></trkpt><trkpt lat="44.612399154650284" lon="7.871007763807827"><ele>297.3333333333333</ele><time>2026-04-12T11:06:45Z</time></trkpt><trkpt lat="44.612490446613776" lon="7.871009818543287"><ele>297.0</ele><time>2026-04-12T11:06:47Z</time></trkpt><trkpt lat="44.61257542014292" lon="7.870994451695941"><ele>296.6666666666667</ele><time>2026-04-12T11:06:49Z</time></trkpt><trkpt lat="44.61266460408606" lon="7.870985970024056"><ele>296.33333333333337</ele><time>2026-04-12T11:06:51Z</time></trkpt><trkpt lat="44.61275427936834" lon="7.870978414052716"><ele>296.0</ele><time>2026-04-12T11:06:53Z</time></trkpt><trkpt lat="44.612847568184016" lon="7.8709611795973125"><ele>296.0</ele><time>2026-04-12T11:06:55Z</time></trkpt><trkpt lat="44.612932088339775" lon="7.870944462573817"><ele>296.0</ele><time>2026-04-12T11:06:57Z</time></trkpt><trkpt lat="44.613019662767236" lon="7.870931379467211"><ele>296.0</ele><time>2026-04-12T11:06:59Z</time></trkpt><trkpt lat="44.61311080919307" lon="7.870912923387707"><ele>296.0</ele><time>2026-04-12T11:07:01Z</time></trkpt><trkpt lat="44.61320251110746" lon="7.870901451944485"><ele>296.0</ele><time>2026-04-12T11:07:03Z</time></trkpt><trkpt lat="44.613294953030874" lon="7.870883686749515"><ele>296.40000000000003</ele><time>2026-04-12T11:07:05Z</time></trkpt><trkpt lat="44.61338855482503" lon="7.870865502775874"><ele>296.8</ele><time>2026-04-12T11:07:07Z</time></trkpt><trkpt lat="44.61347727988661" lon="7.87084073192648"><ele>297.20000000000005</ele><time>2026-04-12T11:07:09Z</time></trkpt><trkpt lat="44.61356941889629" lon="7.870817535428375"><ele>297.6</ele><time>2026-04-12T11:07:11Z</time></trkpt><trkpt lat="44.61365881481885" lon="7.87079297070674"><ele>298.0</ele><time>2026-04-12T11:07:13Z</time></trkpt><trkpt lat="44.613747147282126" lon="7.870762312619972"><ele>298.4</ele><time>2026-04-12T11:07:15Z</time></trkpt><trkpt lat="44.61383872758282" lon="7.870739856104241"><ele>298.8</ele><time>2026-04-12T11:07:17Z</time></trkpt><trkpt lat="44.613933646413955" lon="7.870715320863144"><ele>299.2</ele><time>2026-04-12T11:07:19Z</time></trkpt><trkpt lat="44.61402755860513" lon="7.87068523578156"><ele>299.6</ele><time>2026-04-12T11:07:21Z</time></trkpt><trkpt lat="44.614120727257166" lon="7.870652376113107"><ele>300.0</ele><time>2026-04-12T11:07:23Z</time></trkpt><trkpt lat="44.61423065094094" lon="7.870622336654534"><ele>300.0</ele><time>2026-04-12T11:07:25Z</time></trkpt><trkpt lat="44.614303209382555" lon="7.870614028618505"><ele>300.0</ele><time>2026-04-12T11:07:26Z</time></trkpt><trkpt lat="44.61439669081296" lon="7.87054868487508"><ele>300.0</ele><time>2026-04-12T11:07:29Z</time></trkpt><trkpt lat="44.614492869245396" lon="7.870545043986999"><ele>300.0</ele><time>2026-04-12T11:07:31Z</time></trkpt><trkpt lat="44.61459197129415" lon="7.870499830323514"><ele>300.0</ele><time>2026-04-12T11:07:33Z</time></trkpt><trkpt lat="44.61469809849483" lon="7.870476388642683"><ele>299.8</ele><time>2026-04-12T11:07:35Z</time></trkpt><trkpt lat="44.61480895788282" lon="7.870455875017284"><ele>299.6</ele><time>2026-04-12T11:07:37Z</time></trkpt><trkpt lat="44.61491788909874" lon="7.8704343925443006"><ele>299.4</ele><time>2026-04-12T11:07:39Z</time></trkpt><trkpt lat="44.61502681640914" lon="7.870409800267848"><ele>299.2</ele><time>2026-04-12T11:07:41Z</time></trkpt><trkpt lat="44.61513851619548" lon="7.87038776240483"><ele>299.0</ele><time>2026-04-12T11:07:43Z</time></trkpt><trkpt lat="44.61524694568175" lon="7.870365054080176"><ele>299.2</ele><time>2026-04-12T11:07:45Z</time></trkpt><trkpt lat="44.6153511483364" lon="7.87034363469116"><ele>299.4</ele><time>2026-04-12T11:07:47Z</time></trkpt><trkpt lat="44.61545837186575" lon="7.870320041926491"><ele>299.6</ele><time>2026-04-12T11:07:49Z</time></trkpt><trkpt lat="44.61556727901629" lon="7.870297946210242"><ele>299.8</ele><time>2026-04-12T11:07:51Z</time></trkpt><trkpt lat="44.61566381941827" lon="7.870285090603483"><ele>300.0</ele><time>2026-04-12T11:07:53Z</time></trkpt><trkpt lat="44.615760373335014" lon="7.870260848436898"><ele>300.0</ele><time>2026-04-12T11:07:55Z</time></trkpt><trkpt lat="44.615865625526816" lon="7.870235106027681"><ele>300.0</ele><time>2026-04-12T11:07:57Z</time></trkpt><trkpt lat="44.615979667956765" lon="7.870213637980223"><ele>300.0</ele><time>2026-04-12T11:07:59Z</time></trkpt><trkpt lat="44.61608730653671" lon="7.870188332243337"><ele>300.0</ele><time>2026-04-12T11:08:01Z</time></trkpt><trkpt lat="44.61619816011292" lon="7.87016461496084"><ele>300.0</ele><time>2026-04-12T11:08:03Z</time></trkpt><trkpt lat="44.616306933540116" lon="7.870145477674811"><ele>299.6</ele><time>2026-04-12T11:08:05Z</time></trkpt><trkpt lat="44.61641584252021" lon="7.870123361961098"><ele>299.2</ele><time>2026-04-12T11:08:07Z</time></trkpt><trkpt lat="44.616517898139406" lon="7.870101552217362"><ele>298.8</ele><time>2026-04-12T11:08:09Z</time></trkpt><trkpt lat="44.616623067527485" lon="7.870080095281348"><ele>298.4</ele><time>2026-04-12T11:08:11Z</time></trkpt><trkpt lat="44.61673292932254" lon="7.87006474390475"><ele>298.0</ele><time>2026-04-12T11:08:13Z</time></trkpt><trkpt lat="44.6168339054109" lon="7.870044177753381"><ele>298.0</ele><time>2026-04-12T11:08:15Z</time></trkpt><trkpt lat="44.6169382543852" lon="7.870017964171554"><ele>298.0</ele><time>2026-04-12T11:08:17Z</time></trkpt><trkpt lat="44.61704506180661" lon="7.870013372094424"><ele>298.0</ele><time>2026-04-12T11:08:19Z</time></trkpt><trkpt lat="44.617157342049055" lon="7.86999537035171"><ele>298.0</ele><time>2026-04-12T11:08:21Z</time></trkpt><trkpt lat="44.617261961159166" lon="7.869995048684687"><ele>298.0</ele><time>2026-04-12T11:08:23Z</time></trkpt><trkpt lat="44.61737096302859" lon="7.869993706132682"><ele>297.8</ele><time>2026-04-12T11:08:25Z</time></trkpt><trkpt lat="44.61748172147993" lon="7.869967831649021"><ele>297.6</ele><time>2026-04-12T11:08:27Z</time></trkpt><trkpt lat="44.617581902007466" lon="7.869918942483278"><ele>297.4</ele><time>2026-04-12T11:08:29Z</time></trkpt><trkpt lat="44.617674102548115" lon="7.869852590514153"><ele>297.2</ele><time>2026-04-12T11:08:31Z</time></trkpt><trkpt lat="44.617774839570984" lon="7.869813423875246"><ele>297.0</ele><time>2026-04-12T11:08:33Z</time></trkpt><trkpt lat="44.6178886148426" lon="7.869829972141343"><ele>296.4</ele><time>2026-04-12T11:08:35Z</time></trkpt><trkpt lat="44.61798699041657" lon="7.869876732765665"><ele>295.79999999999995</ele><time>2026-04-12T11:08:37Z</time></trkpt><trkpt lat="44.618084309053145" lon="7.869945727762969"><ele>295.2</ele><time>2026-04-12T11:08:39Z</time></trkpt><trkpt lat="44.61817913729268" lon="7.870005314396807"><ele>294.59999999999997</ele><time>2026-04-12T11:08:41Z</time></trkpt><trkpt lat="44.61827538050453" lon="7.870046162212324"><ele>294.0</ele><time>2026-04-12T11:08:43Z</time></trkpt><trkpt lat="44.61837825001775" lon="7.870075492729907"><ele>294.0</ele><time>2026-04-12T11:08:45Z</time></trkpt><trkpt lat="44.61847890561747" lon="7.870090301955757"><ele>294.0</ele><time>2026-04-12T11:08:47Z</time></trkpt><trkpt lat="44.618580034533544" lon="7.87009893255314"><ele>294.0</ele><time>2026-04-12T11:08:49Z</time></trkpt><trkpt lat="44.61868438802954" lon="7.870081068820102"><ele>294.0</ele><time>2026-04-12T11:08:51Z</time></trkpt><trkpt lat="44.618793277302096" lon="7.870064979103102"><ele>294.0</ele><time>2026-04-12T11:08:53Z</time></trkpt><trkpt lat="44.61890326455737" lon="7.870045468619031"><ele>294.0</ele><time>2026-04-12T11:08:55Z</time></trkpt><trkpt lat="44.619009184710386" lon="7.87003407079435"><ele>294.0</ele><time>2026-04-12T11:08:57Z</time></trkpt><trkpt lat="44.619114214523144" lon="7.870039979391511"><ele>294.0</ele><time>2026-04-12T11:08:59Z</time></trkpt><trkpt lat="44.61921806192581" lon="7.870016228057776"><ele>294.0</ele><time>2026-04-12T11:09:01Z</time></trkpt><trkpt lat="44.619317264946" lon="7.870002251280176"><ele>294.0</ele><time>2026-04-12T11:09:03Z</time></trkpt><trkpt lat="44.619418467265" lon="7.869989595400312"><ele>294.0</ele><time>2026-04-12T11:09:05Z</time></trkpt><trkpt lat="44.619520199399894" lon="7.869975225750269"><ele>294.0</ele><time>2026-04-12T11:09:07Z</time></trkpt><trkpt lat="44.619623875070225" lon="7.869982611527142"><ele>294.0</ele><time>2026-04-12T11:09:09Z</time></trkpt><trkpt lat="44.61971276196266" lon="7.869924720002766"><ele>294.0</ele><time>2026-04-12T11:09:11Z</time></trkpt><trkpt lat="44.61978912187616" lon="7.8698365899009906"><ele>294.0</ele><time>2026-04-12T11:09:13Z</time></trkpt><trkpt lat="44.619861413322845" lon="7.8697300552899065"><ele>294.0</ele><time>2026-04-12T11:09:15Z</time></trkpt><trkpt lat="44.61994108656322" lon="7.869633050035252"><ele>294.0</ele><time>2026-04-12T11:09:17Z</time></trkpt><trkpt lat="44.62002191650412" lon="7.869538575818919"><ele>294.0</ele><time>2026-04-12T11:09:19Z</time></trkpt><trkpt lat="44.620104134834676" lon="7.869457682165405"><ele>294.0</ele><time>2026-04-12T11:09:21Z</time></trkpt><trkpt lat="44.62018631977604" lon="7.869381170094231"><ele>294.0</ele><time>2026-04-12T11:09:23Z</time></trkpt><trkpt lat="44.62026941552372" lon="7.869310469394244"><ele>293.8</ele><time>2026-04-12T11:09:25Z</time></trkpt><trkpt lat="44.62036465654479" lon="7.869237009725217"><ele>293.59999999999997</ele><time>2026-04-12T11:09:27Z</time></trkpt><trkpt lat="44.62045836748157" lon="7.8691575330784564"><ele>293.4</ele><time>2026-04-12T11:09:29Z</time></trkpt><trkpt lat="44.62055162521878" lon="7.869087553220431"><ele>293.2</ele><time>2026-04-12T11:09:31Z</time></trkpt><trkpt lat="44.62064741700328" lon="7.869026788847028"><ele>293.0</ele><time>2026-04-12T11:09:33Z</time></trkpt><trkpt lat="44.62074141414016" lon="7.868962007902712"><ele>293.0</ele><time>2026-04-12T11:09:35Z</time></trkpt><trkpt lat="44.62083201159496" lon="7.868901461456119"><ele>293.0</ele><time>2026-04-12T11:09:37Z</time></trkpt><trkpt lat="44.62092594373265" lon="7.868835571127553"><ele>293.0</ele><time>2026-04-12T11:09:39Z</time></trkpt><trkpt lat="44.62101868685174" lon="7.868774825266104"><ele>293.0</ele><time>2026-04-12T11:09:41Z</time></trkpt><trkpt lat="44.621112634564085" lon="7.868710720623337"><ele>293.0</ele><time>2026-04-12T11:09:43Z</time></trkpt><trkpt lat="44.621211793460844" lon="7.868652921332797"><ele>293.0</ele><time>2026-04-12T11:09:45Z</time></trkpt><trkpt lat="44.62130796614477" lon="7.868600288648299"><ele>293.0</ele><time>2026-04-12T11:09:47Z</time></trkpt><trkpt lat="44.62139140150984" lon="7.868525651093035"><ele>293.0</ele><time>2026-04-12T11:09:49Z</time></trkpt><trkpt lat="44.62148169014746" lon="7.868467196389449"><ele>293.0</ele><time>2026-04-12T11:09:51Z</time></trkpt><trkpt lat="44.621575994802804" lon="7.8684068574030785"><ele>293.0</ele><time>2026-04-12T11:09:53Z</time></trkpt><trkpt lat="44.621669908227666" lon="7.868337655116672"><ele>293.0</ele><time>2026-04-12T11:09:55Z</time></trkpt><trkpt lat="44.6217631547758" lon="7.868270080983703"><ele>293.0</ele><time>2026-04-12T11:09:57Z</time></trkpt><trkpt lat="44.62185562138991" lon="7.868201844743723"><ele>293.0</ele><time>2026-04-12T11:09:59Z</time></trkpt><trkpt lat="44.62194821384949" lon="7.8681358936234025"><ele>293.0</ele><time>2026-04-12T11:10:01Z</time></trkpt><trkpt lat="44.6220439479854" lon="7.868063388458368"><ele>293.0</ele><time>2026-04-12T11:10:03Z</time></trkpt><trkpt lat="44.62213445708283" lon="7.867989763669195"><ele>293.0</ele><time>2026-04-12T11:10:05Z</time></trkpt><trkpt lat="44.62222379560944" lon="7.8679229551687255"><ele>293.0</ele><time>2026-04-12T11:10:07Z</time></trkpt><trkpt lat="44.62231125960506" lon="7.867849151789665"><ele>293.0</ele><time>2026-04-12T11:10:09Z</time></trkpt><trkpt lat="44.62240522596422" lon="7.867779078630689"><ele>293.0</ele><time>2026-04-12T11:10:11Z</time></trkpt><trkpt lat="44.6225045805272" lon="7.867701930465778"><ele>293.0</ele><time>2026-04-12T11:10:13Z</time></trkpt><trkpt lat="44.62260068351275" lon="7.867626795672128"><ele>293.0</ele><time>2026-04-12T11:10:15Z</time></trkpt><trkpt lat="44.622695567650574" lon="7.867548433083381"><ele>293.0</ele><time>2026-04-12T11:10:17Z</time></trkpt><trkpt lat="44.62279497153228" lon="7.867473722439064"><ele>293.0</ele><time>2026-04-12T11:10:19Z</time></trkpt><trkpt lat="44.62289094446023" lon="7.867397093286076"><ele>293.0</ele><time>2026-04-12T11:10:21Z</time></trkpt><trkpt lat="44.622987064485166" lon="7.867324967499"><ele>293.0</ele><time>2026-04-12T11:10:23Z</time></trkpt><trkpt lat="44.62307764259317" lon="7.867253126008357"><ele>293.0</ele><time>2026-04-12T11:10:25Z</time></trkpt><trkpt lat="44.62317348881768" lon="7.867180440376404"><ele>293.0</ele><time>2026-04-12T11:10:27Z</time></trkpt><trkpt lat="44.62326520463403" lon="7.867105654416424"><ele>293.0</ele><time>2026-04-12T11:10:29Z</time></trkpt><trkpt lat="44.62336202788119" lon="7.867037968147961"><ele>293.0</ele><time>2026-04-12T11:10:31Z</time></trkpt><trkpt lat="44.62345663057301" lon="7.866969175167983"><ele>293.0</ele><time>2026-04-12T11:10:33Z</time></trkpt><trkpt lat="44.623546615805054" lon="7.866902590357235"><ele>293.0</ele><time>2026-04-12T11:10:35Z</time></trkpt><trkpt lat="44.62363653726087" lon="7.866826535069915"><ele>293.0</ele><time>2026-04-12T11:10:37Z</time></trkpt><trkpt lat="44.62373302992252" lon="7.866755971885736"><ele>293.0</ele><time>2026-04-12T11:10:39Z</time></trkpt><trkpt lat="44.62382521828249" lon="7.866680977933143"><ele>293.0</ele><time>2026-04-12T11:10:41Z</time></trkpt><trkpt lat="44.62392453067348" lon="7.866607661643626"><ele>293.0</ele><time>2026-04-12T11:10:43Z</time></trkpt><trkpt lat="44.624007524538655" lon="7.866523254682245"><ele>293.0</ele><time>2026-04-12T11:10:45Z</time></trkpt><trkpt lat="44.62408839338035" lon="7.866454344274565"><ele>293.0</ele><time>2026-04-12T11:10:47Z</time></trkpt><trkpt lat="44.62414995433182" lon="7.866360828153761"><ele>293.0</ele><time>2026-04-12T11:10:49Z</time></trkpt><trkpt lat="44.624118137104816" lon="7.866187660624238"><ele>293.0</ele><time>2026-04-12T11:10:51Z</time></trkpt><trkpt lat="44.62408393248046" lon="7.866050516299504"><ele>293.0</ele><time>2026-04-12T11:10:53Z</time></trkpt><trkpt lat="44.62405038228018" lon="7.865911940965517"><ele>293.0</ele><time>2026-04-12T11:10:55Z</time></trkpt><trkpt lat="44.624028678015975" lon="7.86577369318742"><ele>293.0</ele><time>2026-04-12T11:10:57Z</time></trkpt><trkpt lat="44.623952428524206" lon="7.865643658027701"><ele>293.0</ele><time>2026-04-12T11:10:59Z</time></trkpt><trkpt lat="44.62391832663714" lon="7.865500438041341"><ele>293.0</ele><time>2026-04-12T11:11:01Z</time></trkpt><trkpt lat="44.62391655286474" lon="7.865350209845749"><ele>293.0</ele><time>2026-04-12T11:11:03Z</time></trkpt><trkpt lat="44.623891805395274" lon="7.865225907822301"><ele>293.0</ele><time>2026-04-12T11:11:05Z</time></trkpt><trkpt lat="44.62388727724763" lon="7.865127579717927"><ele>293.0</ele><time>2026-04-12T11:11:07Z</time></trkpt><trkpt lat="44.6239314991901" lon="7.865057585107231"><ele>293.0</ele><time>2026-04-12T11:11:09Z</time></trkpt><trkpt lat="44.62401015822438" lon="7.864988095339787"><ele>293.0</ele><time>2026-04-12T11:11:11Z</time></trkpt><trkpt lat="44.62408548764897" lon="7.864896693249629"><ele>293.0</ele><time>2026-04-12T11:11:13Z</time></trkpt><trkpt lat="44.62416865287948" lon="7.864815634132819"><ele>293.0</ele><time>2026-04-12T11:11:15Z</time></trkpt><trkpt lat="44.62426030430963" lon="7.8647334572299625"><ele>293.2</ele><time>2026-04-12T11:11:17Z</time></trkpt><trkpt lat="44.62434484660445" lon="7.864646014002526"><ele>293.4</ele><time>2026-04-12T11:11:19Z</time></trkpt><trkpt lat="44.62443457077617" lon="7.864562163091892"><ele>293.59999999999997</ele><time>2026-04-12T11:11:21Z</time></trkpt><trkpt lat="44.6245190722874" lon="7.864471531640748"><ele>293.8</ele><time>2026-04-12T11:11:23Z</time></trkpt><trkpt lat="44.62460666651761" lon="7.8643915120221335"><ele>294.0</ele><time>2026-04-12T11:11:25Z</time></trkpt><trkpt lat="44.62470141507729" lon="7.864333972470804"><ele>293.59999999999997</ele><time>2026-04-12T11:11:27Z</time></trkpt><trkpt lat="44.62478855048816" lon="7.864260551657959"><ele>293.2</ele><time>2026-04-12T11:11:29Z</time></trkpt><trkpt lat="44.62487886985334" lon="7.864184342065575"><ele>292.79999999999995</ele><time>2026-04-12T11:11:31Z</time></trkpt><trkpt lat="44.62496469758397" lon="7.864111922429956"><ele>292.4</ele><time>2026-04-12T11:11:33Z</time></trkpt><trkpt lat="44.62504481639241" lon="7.864044319820096"><ele>292.0</ele><time>2026-04-12T11:11:35Z</time></trkpt><trkpt lat="44.62512145342653" lon="7.863979655061328"><ele>292.0</ele><time>2026-04-12T11:11:37Z</time></trkpt><trkpt lat="44.6251887362186" lon="7.863925243573078"><ele>292.0</ele><time>2026-04-12T11:11:39Z</time></trkpt><trkpt lat="44.62524525336059" lon="7.863882500010744"><ele>292.0</ele><time>2026-04-12T11:11:41Z</time></trkpt><trkpt lat="44.625301638737916" lon="7.863835241252784"><ele>292.0</ele><time>2026-04-12T11:11:43Z</time></trkpt><trkpt lat="44.62536342071275" lon="7.86377370991166"><ele>292.0</ele><time>2026-04-12T11:11:45Z</time></trkpt><trkpt lat="44.625420852586494" lon="7.8637118011303295"><ele>292.0</ele><time>2026-04-12T11:11:47Z</time></trkpt><trkpt lat="44.62549235377163" lon="7.863637093853123"><ele>292.0</ele><time>2026-04-12T11:11:49Z</time></trkpt><trkpt lat="44.62555753059848" lon="7.86357703523115"><ele>291.8</ele><time>2026-04-12T11:11:51Z</time></trkpt><trkpt lat="44.62563569077608" lon="7.863533616599756"><ele>291.6</ele><time>2026-04-12T11:11:53Z</time></trkpt><trkpt lat="44.62571742491891" lon="7.863555513408047"><ele>291.40000000000003</ele><time>2026-04-12T11:11:55Z</time></trkpt><trkpt lat="44.62581990212598" lon="7.863591007412786"><ele>291.2</ele><time>2026-04-12T11:11:57Z</time></trkpt><trkpt lat="44.625935216291886" lon="7.8636467018703735"><ele>291.0</ele><time>2026-04-12T11:11:59Z</time></trkpt><trkpt lat="44.62599727442826" lon="7.863677387458248"><ele>291.0</ele><time>2026-04-12T11:12:00Z</time></trkpt><trkpt lat="44.62606644428598" lon="7.863695517418271"><ele>291.0</ele><time>2026-04-12T11:12:01Z</time></trkpt><trkpt lat="44.626128954538395" lon="7.863714063718481"><ele>291.0</ele><time>2026-04-12T11:12:02Z</time></trkpt><trkpt lat="44.62626559036511" lon="7.8637566467208115"><ele>291.0</ele><time>2026-04-12T11:12:04Z</time></trkpt><trkpt lat="44.62633107620911" lon="7.863771552112999"><ele>291.0</ele><time>2026-04-12T11:12:05Z</time></trkpt><trkpt lat="44.62640241038896" lon="7.863775180019569"><ele>291.0</ele><time>2026-04-12T11:12:06Z</time></trkpt><trkpt lat="44.62647133411463" lon="7.863754757257962"><ele>290.5</ele><time>2026-04-12T11:12:07Z</time></trkpt><trkpt lat="44.6265386059664" lon="7.863747221863095"><ele>290.0</ele><time>2026-04-12T11:12:08Z</time></trkpt><trkpt lat="44.6266050138676" lon="7.863726885663683"><ele>289.5</ele><time>2026-04-12T11:12:09Z</time></trkpt><trkpt lat="44.62666680354521" lon="7.863706019310272"><ele>289.0</ele><time>2026-04-12T11:12:10Z</time></trkpt><trkpt lat="44.626727752382145" lon="7.863678241299334"><ele>288.5</ele><time>2026-04-12T11:12:11Z</time></trkpt><trkpt lat="44.62678815369587" lon="7.863649545889217"><ele>288.0</ele><time>2026-04-12T11:12:12Z</time></trkpt><trkpt lat="44.62690724173777" lon="7.863594933694355"><ele>289.0</ele><time>2026-04-12T11:12:14Z</time></trkpt><trkpt lat="44.62701328975844" lon="7.863510202557449"><ele>290.0</ele><time>2026-04-12T11:12:16Z</time></trkpt><trkpt lat="44.62712334322909" lon="7.863442983438863"><ele>291.0</ele><time>2026-04-12T11:12:18Z</time></trkpt><trkpt lat="44.62722890742501" lon="7.863371274233409"><ele>292.0</ele><time>2026-04-12T11:12:20Z</time></trkpt><trkpt lat="44.62733351589522" lon="7.863301659877622"><ele>292.0</ele><time>2026-04-12T11:12:22Z</time></trkpt><trkpt lat="44.62743721323994" lon="7.8632311025156385"><ele>292.0</ele><time>2026-04-12T11:12:24Z</time></trkpt><trkpt lat="44.62749458916417" lon="7.863188842079571"><ele>292.0</ele><time>2026-04-12T11:12:25Z</time></trkpt><trkpt lat="44.627590673000434" lon="7.863124198869401"><ele>292.0</ele><time>2026-04-12T11:12:27Z</time></trkpt><trkpt lat="44.62769406175759" lon="7.86304842742584"><ele>292.0</ele><time>2026-04-12T11:12:29Z</time></trkpt><trkpt lat="44.62779651414485" lon="7.862969187612671"><ele>289.75</ele><time>2026-04-12T11:12:31Z</time></trkpt><trkpt lat="44.627897188009975" lon="7.862880966399503"><ele>287.5</ele><time>2026-04-12T11:12:33Z</time></trkpt><trkpt lat="44.62800479578249" lon="7.862825456512341"><ele>285.25</ele><time>2026-04-12T11:12:35Z</time></trkpt><trkpt lat="44.62811300060276" lon="7.862756007194718"><ele>283.0</ele><time>2026-04-12T11:12:37Z</time></trkpt><trkpt lat="44.62822091291992" lon="7.862685098563584"><ele>285.5</ele><time>2026-04-12T11:12:39Z</time></trkpt><trkpt lat="44.62832762748867" lon="7.862613441199358"><ele>288.0</ele><time>2026-04-12T11:12:41Z</time></trkpt><trkpt lat="44.62842487753527" lon="7.8625198132002305"><ele>290.5</ele><time>2026-04-12T11:12:43Z</time></trkpt><trkpt lat="44.62852864560481" lon="7.862450603028065"><ele>293.0</ele><time>2026-04-12T11:12:45Z</time></trkpt><trkpt lat="44.628626674117534" lon="7.862354728926562"><ele>292.0</ele><time>2026-04-12T11:12:47Z</time></trkpt><trkpt lat="44.628727477607065" lon="7.8622676312859205"><ele>291.0</ele><time>2026-04-12T11:12:49Z</time></trkpt><trkpt lat="44.62882987361293" lon="7.862183111090297"><ele>290.0</ele><time>2026-04-12T11:12:51Z</time></trkpt><trkpt lat="44.62893499961929" lon="7.862106277847366"><ele>289.0</ele><time>2026-04-12T11:12:53Z</time></trkpt><trkpt lat="44.62904725796065" lon="7.862047974549179"><ele>289.0</ele><time>2026-04-12T11:12:55Z</time></trkpt><trkpt lat="44.62916762668355" lon="7.862021036180392"><ele>289.0</ele><time>2026-04-12T11:12:57Z</time></trkpt><trkpt lat="44.629289741948604" lon="7.86200568634145"><ele>289.0</ele><time>2026-04-12T11:12:59Z</time></trkpt><trkpt lat="44.62935356238224" lon="7.86199719969436"><ele>289.0</ele><time>2026-04-12T11:13:00Z</time></trkpt><trkpt lat="44.62947146724723" lon="7.861996147527722"><ele>289.0</ele><time>2026-04-12T11:13:02Z</time></trkpt><trkpt lat="44.62958753959463" lon="7.862005413121747"><ele>288.8</ele><time>2026-04-12T11:13:04Z</time></trkpt><trkpt lat="44.62970369809056" lon="7.862024432118548"><ele>288.59999999999997</ele><time>2026-04-12T11:13:06Z</time></trkpt><trkpt lat="44.62981716087487" lon="7.862055262595465"><ele>288.4</ele><time>2026-04-12T11:13:08Z</time></trkpt><trkpt lat="44.6298824282825" lon="7.862068495908596"><ele>288.2</ele><time>2026-04-12T11:13:09Z</time></trkpt><trkpt lat="44.62998558922936" lon="7.862099168012361"><ele>288.0</ele><time>2026-04-12T11:13:11Z</time></trkpt><trkpt lat="44.630099769070966" lon="7.862122700523216"><ele>288.0</ele><time>2026-04-12T11:13:13Z</time></trkpt><trkpt lat="44.630210428697296" lon="7.862119680075931"><ele>288.0</ele><time>2026-04-12T11:13:15Z</time></trkpt><trkpt lat="44.63032030157489" lon="7.862116817705528"><ele>288.0</ele><time>2026-04-12T11:13:17Z</time></trkpt><trkpt lat="44.63043300316143" lon="7.8620975721262045"><ele>288.0</ele><time>2026-04-12T11:13:19Z</time></trkpt><trkpt lat="44.630546914543864" lon="7.86210103065893"><ele>288.0</ele><time>2026-04-12T11:13:21Z</time></trkpt><trkpt lat="44.63066214732084" lon="7.862058852711817"><ele>287.5</ele><time>2026-04-12T11:13:23Z</time></trkpt><trkpt lat="44.63077469065897" lon="7.8620249436120755"><ele>287.0</ele><time>2026-04-12T11:13:25Z</time></trkpt><trkpt lat="44.630884724748476" lon="7.861985127502884"><ele>286.5</ele><time>2026-04-12T11:13:27Z</time></trkpt><trkpt lat="44.63099823108225" lon="7.861967469644805"><ele>286.0</ele><time>2026-04-12T11:13:29Z</time></trkpt><trkpt lat="44.63110909095303" lon="7.861930688447264"><ele>285.75</ele><time>2026-04-12T11:13:31Z</time></trkpt><trkpt lat="44.63121874790966" lon="7.8618743107091085"><ele>285.5</ele><time>2026-04-12T11:13:33Z</time></trkpt><trkpt lat="44.631335163400045" lon="7.86186292056594"><ele>285.25</ele><time>2026-04-12T11:13:35Z</time></trkpt><trkpt lat="44.631450883990254" lon="7.861836092888528"><ele>285.0</ele><time>2026-04-12T11:13:37Z</time></trkpt><trkpt lat="44.63156836648982" lon="7.861793935984103"><ele>285.0</ele><time>2026-04-12T11:13:39Z</time></trkpt><trkpt lat="44.631683783951324" lon="7.861778310893698"><ele>285.0</ele><time>2026-04-12T11:13:41Z</time></trkpt><trkpt lat="44.631800296327924" lon="7.861782664298192"><ele>285.0</ele><time>2026-04-12T11:13:43Z</time></trkpt><trkpt lat="44.631916301970705" lon="7.86177651883389"><ele>285.0</ele><time>2026-04-12T11:13:45Z</time></trkpt><trkpt lat="44.6320233471255" lon="7.861779323056059"><ele>284.4</ele><time>2026-04-12T11:13:47Z</time></trkpt><trkpt lat="44.6321269818648" lon="7.861781277639404"><ele>283.8</ele><time>2026-04-12T11:13:49Z</time></trkpt><trkpt lat="44.632228201755446" lon="7.861756180187461"><ele>283.2</ele><time>2026-04-12T11:13:51Z</time></trkpt><trkpt lat="44.632329332271105" lon="7.861781944249555"><ele>282.6</ele><time>2026-04-12T11:13:53Z</time></trkpt><trkpt lat="44.63243189364603" lon="7.86178809869758"><ele>282.0</ele><time>2026-04-12T11:13:55Z</time></trkpt><trkpt lat="44.6325360714261" lon="7.861782320301463"><ele>282.0</ele><time>2026-04-12T11:13:57Z</time></trkpt><trkpt lat="44.63263975128162" lon="7.86178813208482"><ele>282.0</ele><time>2026-04-12T11:13:59Z</time></trkpt><trkpt lat="44.63274387589417" lon="7.861794447048843"><ele>282.0</ele><time>2026-04-12T11:14:01Z</time></trkpt><trkpt lat="44.63284922387586" lon="7.861798834796781"><ele>282.0</ele><time>2026-04-12T11:14:03Z</time></trkpt><trkpt lat="44.63295506352161" lon="7.861783714271253"><ele>282.0</ele><time>2026-04-12T11:14:05Z</time></trkpt><trkpt lat="44.63306148043315" lon="7.8617544290174575"><ele>283.4</ele><time>2026-04-12T11:14:07Z</time></trkpt><trkpt lat="44.633166714889114" lon="7.861729423698124"><ele>284.79999999999995</ele><time>2026-04-12T11:14:09Z</time></trkpt><trkpt lat="44.63326771985956" lon="7.861692740392366"><ele>286.2</ele><time>2026-04-12T11:14:11Z</time></trkpt><trkpt lat="44.63336432013985" lon="7.861646122851708"><ele>287.59999999999997</ele><time>2026-04-12T11:14:13Z</time></trkpt><trkpt lat="44.6334643846179" lon="7.861603145460875"><ele>289.0</ele><time>2026-04-12T11:14:15Z</time></trkpt><trkpt lat="44.63356296547389" lon="7.861560879574456"><ele>288.2</ele><time>2026-04-12T11:14:17Z</time></trkpt><trkpt lat="44.633666401016356" lon="7.861517476031596"><ele>287.4</ele><time>2026-04-12T11:14:19Z</time></trkpt><trkpt lat="44.63376821176355" lon="7.861471625855864"><ele>286.6</ele><time>2026-04-12T11:14:21Z</time></trkpt><trkpt lat="44.633870237925485" lon="7.86142427727282"><ele>285.8</ele><time>2026-04-12T11:14:23Z</time></trkpt><trkpt lat="44.63397512580344" lon="7.861377079447734"><ele>285.0</ele><time>2026-04-12T11:14:25Z</time></trkpt><trkpt lat="44.63407978710153" lon="7.861328588704643"><ele>285.0</ele><time>2026-04-12T11:14:27Z</time></trkpt><trkpt lat="44.634183898484224" lon="7.861273995470645"><ele>285.0</ele><time>2026-04-12T11:14:29Z</time></trkpt><trkpt lat="44.63428902051196" lon="7.861235123474645"><ele>285.0</ele><time>2026-04-12T11:14:31Z</time></trkpt><trkpt lat="44.634393277964826" lon="7.861186846570422"><ele>285.0</ele><time>2026-04-12T11:14:33Z</time></trkpt><trkpt lat="44.63449727526413" lon="7.861135121396826"><ele>285.0</ele><time>2026-04-12T11:14:35Z</time></trkpt><trkpt lat="44.63459888996599" lon="7.861074357462646"><ele>285.75</ele><time>2026-04-12T11:14:37Z</time></trkpt><trkpt lat="44.63469550997996" lon="7.860990232174961"><ele>286.5</ele><time>2026-04-12T11:14:39Z</time></trkpt><trkpt lat="44.63478906849723" lon="7.860898760698397"><ele>287.25</ele><time>2026-04-12T11:14:41Z</time></trkpt><trkpt lat="44.63487509687923" lon="7.860796534926857"><ele>288.0</ele><time>2026-04-12T11:14:43Z</time></trkpt><trkpt lat="44.634959470684144" lon="7.860682435522684"><ele>288.0</ele><time>2026-04-12T11:14:45Z</time></trkpt><trkpt lat="44.63504688331746" lon="7.860574472720524"><ele>288.0</ele><time>2026-04-12T11:14:47Z</time></trkpt><trkpt lat="44.63513501255844" lon="7.86046647306378"><ele>288.0</ele><time>2026-04-12T11:14:49Z</time></trkpt><trkpt lat="44.63521919938804" lon="7.860354686079961"><ele>288.0</ele><time>2026-04-12T11:14:51Z</time></trkpt><trkpt lat="44.63529858552954" lon="7.860233877989513"><ele>287.75</ele><time>2026-04-12T11:14:53Z</time></trkpt><trkpt lat="44.635373579227334" lon="7.860104668689487"><ele>287.5</ele><time>2026-04-12T11:14:55Z</time></trkpt><trkpt lat="44.63544812806269" lon="7.859971580420409"><ele>287.25</ele><time>2026-04-12T11:14:57Z</time></trkpt><trkpt lat="44.635510497820235" lon="7.859835851299703"><ele>287.0</ele><time>2026-04-12T11:14:59Z</time></trkpt><trkpt lat="44.63558391314196" lon="7.8597203667725895"><ele>287.0</ele><time>2026-04-12T11:15:01Z</time></trkpt><trkpt lat="44.635676857172754" lon="7.859640030412458"><ele>287.0</ele><time>2026-04-12T11:15:03Z</time></trkpt><trkpt lat="44.63578422732944" lon="7.859593935706733"><ele>287.0</ele><time>2026-04-12T11:15:05Z</time></trkpt><trkpt lat="44.63589805245037" lon="7.859583298811732"><ele>287.0</ele><time>2026-04-12T11:15:07Z</time></trkpt><trkpt lat="44.636014801571825" lon="7.859593004510139"><ele>287.0</ele><time>2026-04-12T11:15:09Z</time></trkpt><trkpt lat="44.63613216957159" lon="7.859619403993641"><ele>287.0</ele><time>2026-04-12T11:15:11Z</time></trkpt><trkpt lat="44.636249233208986" lon="7.859653139765549"><ele>287.0</ele><time>2026-04-12T11:15:13Z</time></trkpt><trkpt lat="44.63635964057237" lon="7.859705842625353"><ele>287.0</ele><time>2026-04-12T11:15:15Z</time></trkpt><trkpt lat="44.63646090089385" lon="7.859764882615746"><ele>286.8</ele><time>2026-04-12T11:15:17Z</time></trkpt><trkpt lat="44.636566823608675" lon="7.859798199066742"><ele>286.6</ele><time>2026-04-12T11:15:19Z</time></trkpt><trkpt lat="44.63667936591112" lon="7.859830744458659"><ele>286.40000000000003</ele><time>2026-04-12T11:15:21Z</time></trkpt><trkpt lat="44.63679174423346" lon="7.85985879932323"><ele>286.2</ele><time>2026-04-12T11:15:23Z</time></trkpt><trkpt lat="44.63689905118828" lon="7.859883178803558"><ele>286.0</ele><time>2026-04-12T11:15:25Z</time></trkpt><trkpt lat="44.63700691994427" lon="7.859901226773187"><ele>286.5</ele><time>2026-04-12T11:15:27Z</time></trkpt><trkpt lat="44.63711212690788" lon="7.859940926766793"><ele>287.0</ele><time>2026-04-12T11:15:29Z</time></trkpt><trkpt lat="44.6372300101551" lon="7.8599585433941375"><ele>287.5</ele><time>2026-04-12T11:15:31Z</time></trkpt><trkpt lat="44.63734565502865" lon="7.85995695428916"><ele>288.0</ele><time>2026-04-12T11:15:33Z</time></trkpt><trkpt lat="44.63746347322859" lon="7.859974211246033"><ele>288.0</ele><time>2026-04-12T11:15:35Z</time></trkpt><trkpt lat="44.63758397448543" lon="7.859987984502249"><ele>288.0</ele><time>2026-04-12T11:15:37Z</time></trkpt><trkpt lat="44.63770404744381" lon="7.859994264810356"><ele>288.0</ele><time>2026-04-12T11:15:39Z</time></trkpt><trkpt lat="44.637828723865354" lon="7.859996095877001"><ele>288.0</ele><time>2026-04-12T11:15:41Z</time></trkpt><trkpt lat="44.63789265462181" lon="7.860001329779931"><ele>288.0</ele><time>2026-04-12T11:15:42Z</time></trkpt><trkpt lat="44.638013173160815" lon="7.860009199401727"><ele>287.8</ele><time>2026-04-12T11:15:44Z</time></trkpt><trkpt lat="44.638136732408604" lon="7.8600079360408355"><ele>287.6</ele><time>2026-04-12T11:15:46Z</time></trkpt><trkpt lat="44.63826105273693" lon="7.859999121750938"><ele>287.4</ele><time>2026-04-12T11:15:48Z</time></trkpt><trkpt lat="44.63838392796274" lon="7.8600126302632916"><ele>287.2</ele><time>2026-04-12T11:15:50Z</time></trkpt><trkpt lat="44.63844766348005" lon="7.860009984880928"><ele>287.0</ele><time>2026-04-12T11:15:51Z</time></trkpt><trkpt lat="44.6385088014377" lon="7.859983770375345"><ele>287.0</ele><time>2026-04-12T11:15:52Z</time></trkpt><trkpt lat="44.63863391570803" lon="7.859983742302821"><ele>287.0</ele><time>2026-04-12T11:15:54Z</time></trkpt><trkpt lat="44.638696945776275" lon="7.859985017576133"><ele>287.0</ele><time>2026-04-12T11:15:55Z</time></trkpt><trkpt lat="44.63881846183257" lon="7.8599767610631615"><ele>287.0</ele><time>2026-04-12T11:15:57Z</time></trkpt><trkpt lat="44.63893479726027" lon="7.859956567803598"><ele>287.0</ele><time>2026-04-12T11:15:59Z</time></trkpt><trkpt lat="44.63905554044642" lon="7.859946029169898"><ele>286.8</ele><time>2026-04-12T11:16:01Z</time></trkpt><trkpt lat="44.639177603259064" lon="7.859939183510359"><ele>286.6</ele><time>2026-04-12T11:16:03Z</time></trkpt><trkpt lat="44.63929432932408" lon="7.859934249695934"><ele>286.40000000000003</ele><time>2026-04-12T11:16:05Z</time></trkpt><trkpt lat="44.639399812" lon="7.859920964880664"><ele>286.2</ele><time>2026-04-12T11:16:07Z</time></trkpt><trkpt lat="44.63949485739088" lon="7.8599130828885295"><ele>286.0</ele><time>2026-04-12T11:16:09Z</time></trkpt><trkpt lat="44.63958554168364" lon="7.859903351275826"><ele>286.0</ele><time>2026-04-12T11:16:11Z</time></trkpt><trkpt lat="44.639664376055315" lon="7.8598835104350595"><ele>286.0</ele><time>2026-04-12T11:16:13Z</time></trkpt><trkpt lat="44.63973385557675" lon="7.859852969285371"><ele>286.0</ele><time>2026-04-12T11:16:15Z</time></trkpt><trkpt lat="44.639796678708024" lon="7.859817697134277"><ele>286.0</ele><time>2026-04-12T11:16:17Z</time></trkpt><trkpt lat="44.639881446100155" lon="7.859776231547262"><ele>286.0</ele><time>2026-04-12T11:16:20Z</time></trkpt><trkpt lat="44.64000326776855" lon="7.859830708465057"><ele>286.0</ele><time>2026-04-12T11:16:22Z</time></trkpt><trkpt lat="44.64007491649357" lon="7.859824821335056"><ele>286.0</ele><time>2026-04-12T11:16:24Z</time></trkpt><trkpt lat="44.64015144962664" lon="7.859817355789608"><ele>286.0</ele><time>2026-04-12T11:16:26Z</time></trkpt><trkpt lat="44.64023090599264" lon="7.859826893093719"><ele>286.0</ele><time>2026-04-12T11:16:28Z</time></trkpt><trkpt lat="44.64030851093318" lon="7.859843085433907"><ele>286.0</ele><time>2026-04-12T11:16:30Z</time></trkpt><trkpt lat="44.64038094609912" lon="7.8598656878931115"><ele>286.0</ele><time>2026-04-12T11:16:32Z</time></trkpt><trkpt lat="44.6404598236208" lon="7.859877386903195"><ele>286.0</ele><time>2026-04-12T11:16:34Z</time></trkpt><trkpt lat="44.64054317630128" lon="7.85988995514823"><ele>285.8333333333333</ele><time>2026-04-12T11:16:36Z</time></trkpt><trkpt lat="44.64062623703285" lon="7.859904926705877"><ele>285.66666666666663</ele><time>2026-04-12T11:16:38Z</time></trkpt><trkpt lat="44.64070937475268" lon="7.859908193638323"><ele>285.5</ele><time>2026-04-12T11:16:40Z</time></trkpt><trkpt lat="44.640787769905906" lon="7.859916899634329"><ele>285.3333333333333</ele><time>2026-04-12T11:16:42Z</time></trkpt><trkpt lat="44.64086794678029" lon="7.859931956990777"><ele>285.1666666666667</ele><time>2026-04-12T11:16:44Z</time></trkpt><trkpt lat="44.64095089518396" lon="7.859961374110349"><ele>285.0</ele><time>2026-04-12T11:16:46Z</time></trkpt><trkpt lat="44.64103475023366" lon="7.860006066523805"><ele>285.0</ele><time>2026-04-12T11:16:48Z</time></trkpt><trkpt lat="44.64112019991773" lon="7.860052153319842"><ele>285.0</ele><time>2026-04-12T11:16:50Z</time></trkpt><trkpt lat="44.64120249141676" lon="7.860102048134776"><ele>285.0</ele><time>2026-04-12T11:16:52Z</time></trkpt><trkpt lat="44.641276670697785" lon="7.860159194865791"><ele>285.0</ele><time>2026-04-12T11:16:54Z</time></trkpt><trkpt lat="44.64134675525395" lon="7.860215409086782"><ele>285.0</ele><time>2026-04-12T11:16:56Z</time></trkpt><trkpt lat="44.641419916432284" lon="7.8602692580170235"><ele>285.0</ele><time>2026-04-12T11:16:58Z</time></trkpt><trkpt lat="44.64149277254838" lon="7.860344633259309"><ele>284.0</ele><time>2026-04-12T11:17:00Z</time></trkpt><trkpt lat="44.64158592574143" lon="7.860365501073317"><ele>283.0</ele><time>2026-04-12T11:17:02Z</time></trkpt><trkpt lat="44.6416751016433" lon="7.860403005863359"><ele>282.0</ele><time>2026-04-12T11:17:04Z</time></trkpt><trkpt lat="44.641764427481256" lon="7.860416926330724"><ele>281.0</ele><time>2026-04-12T11:17:06Z</time></trkpt><trkpt lat="44.64185190894417" lon="7.8604305593832215"><ele>280.0</ele><time>2026-04-12T11:17:08Z</time></trkpt><trkpt lat="44.641941336216924" lon="7.860443984107936"><ele>280.6</ele><time>2026-04-12T11:17:10Z</time></trkpt><trkpt lat="44.642033946440066" lon="7.860454698466339"><ele>281.2</ele><time>2026-04-12T11:17:12Z</time></trkpt><trkpt lat="44.642129058419144" lon="7.860465702228048"><ele>281.8</ele><time>2026-04-12T11:17:14Z</time></trkpt><trkpt lat="44.64222380761341" lon="7.8604806686225706"><ele>282.4</ele><time>2026-04-12T11:17:16Z</time></trkpt><trkpt lat="44.64232160460847" lon="7.860495231145783"><ele>283.0</ele><time>2026-04-12T11:17:18Z</time></trkpt><trkpt lat="44.64241388799997" lon="7.8605097277186795"><ele>283.0</ele><time>2026-04-12T11:17:20Z</time></trkpt><trkpt lat="44.64249090285169" lon="7.860523618114697"><ele>283.0</ele><time>2026-04-12T11:17:22Z</time></trkpt><trkpt lat="44.64257121011665" lon="7.860542656508839"><ele>283.0</ele><time>2026-04-12T11:17:24Z</time></trkpt><trkpt lat="44.642653046094836" lon="7.86058040284838"><ele>283.0</ele><time>2026-04-12T11:17:26Z</time></trkpt><trkpt lat="44.64271344542081" lon="7.860524878080461"><ele>283.0</ele><time>2026-04-12T11:17:27Z</time></trkpt><trkpt lat="44.64276096492308" lon="7.860596855826555"><ele>283.0</ele><time>2026-04-12T11:17:30Z</time></trkpt><trkpt lat="44.64277308326789" lon="7.8607168274962165"><ele>282.6</ele><time>2026-04-12T11:17:33Z</time></trkpt><trkpt lat="44.64285029595386" lon="7.86077298411306"><ele>282.20000000000005</ele><time>2026-04-12T11:17:35Z</time></trkpt><trkpt lat="44.64292901050307" lon="7.8608298688426625"><ele>281.8</ele><time>2026-04-12T11:17:37Z</time></trkpt><trkpt lat="44.643006575698685" lon="7.860899343783519"><ele>281.40000000000003</ele><time>2026-04-12T11:17:39Z</time></trkpt><trkpt lat="44.643085841081586" lon="7.860970460212049"><ele>281.0</ele><time>2026-04-12T11:17:41Z</time></trkpt><trkpt lat="44.64316035945149" lon="7.861043438071453"><ele>281.0</ele><time>2026-04-12T11:17:43Z</time></trkpt><trkpt lat="44.643235876696195" lon="7.8611022363132035"><ele>281.0</ele><time>2026-04-12T11:17:45Z</time></trkpt><trkpt lat="44.64331579651401" lon="7.861141522512091"><ele>281.0</ele><time>2026-04-12T11:17:47Z</time></trkpt><trkpt lat="44.643394146951415" lon="7.861170466805928"><ele>281.0</ele><time>2026-04-12T11:17:49Z</time></trkpt><trkpt lat="44.64347024080598" lon="7.861194751790045"><ele>281.0</ele><time>2026-04-12T11:17:51Z</time></trkpt><trkpt lat="44.643545932881274" lon="7.861206839769305"><ele>281.0</ele><time>2026-04-12T11:17:53Z</time></trkpt><trkpt lat="44.64362260594477" lon="7.861238337463041"><ele>281.6666666666667</ele><time>2026-04-12T11:17:55Z</time></trkpt><trkpt lat="44.6437074556242" lon="7.861266726402232"><ele>282.33333333333337</ele><time>2026-04-12T11:17:57Z</time></trkpt><trkpt lat="44.643790407634576" lon="7.861302552046109"><ele>283.0</ele><time>2026-04-12T11:17:59Z</time></trkpt><trkpt lat="44.643871187476826" lon="7.861346599801941"><ele>283.6666666666667</ele><time>2026-04-12T11:18:01Z</time></trkpt><trkpt lat="44.64394657427431" lon="7.861419970341622"><ele>284.3333333333333</ele><time>2026-04-12T11:18:03Z</time></trkpt><trkpt lat="44.6440257544805" lon="7.861485547479436"><ele>285.0</ele><time>2026-04-12T11:18:05Z</time></trkpt><trkpt lat="44.64410276738289" lon="7.861542379671593"><ele>285.0</ele><time>2026-04-12T11:18:07Z</time></trkpt><trkpt lat="44.64418431976095" lon="7.861601437036807"><ele>285.0</ele><time>2026-04-12T11:18:09Z</time></trkpt><trkpt lat="44.644267737762796" lon="7.861662092900169"><ele>285.0</ele><time>2026-04-12T11:18:11Z</time></trkpt><trkpt lat="44.64435424818262" lon="7.861721753179194"><ele>285.0</ele><time>2026-04-12T11:18:13Z</time></trkpt><trkpt lat="44.64444532475863" lon="7.861761752457971"><ele>285.0</ele><time>2026-04-12T11:18:15Z</time></trkpt><trkpt lat="44.64453620390546" lon="7.86181189495385"><ele>283.4</ele><time>2026-04-12T11:18:17Z</time></trkpt><trkpt lat="44.64462924030242" lon="7.8618475228891915"><ele>281.8</ele><time>2026-04-12T11:18:19Z</time></trkpt><trkpt lat="44.644727893940896" lon="7.8618793192592165"><ele>280.2</ele><time>2026-04-12T11:18:21Z</time></trkpt><trkpt lat="44.644817600546695" lon="7.861903391827083"><ele>278.6</ele><time>2026-04-12T11:18:23Z</time></trkpt><trkpt lat="44.64492184241755" lon="7.861926018190846"><ele>277.0</ele><time>2026-04-12T11:18:25Z</time></trkpt><trkpt lat="44.64501551439551" lon="7.8619481975921985"><ele>277.0</ele><time>2026-04-12T11:18:27Z</time></trkpt><trkpt lat="44.64510666378715" lon="7.861974042492159"><ele>277.0</ele><time>2026-04-12T11:18:29Z</time></trkpt><trkpt lat="44.645200526379874" lon="7.861992487538629"><ele>277.0</ele><time>2026-04-12T11:18:31Z</time></trkpt><trkpt lat="44.64529752055329" lon="7.861993619303607"><ele>277.0</ele><time>2026-04-12T11:18:33Z</time></trkpt><trkpt lat="44.64539415230183" lon="7.8619973651898585"><ele>277.0</ele><time>2026-04-12T11:18:35Z</time></trkpt><trkpt lat="44.6454887505532" lon="7.861993151331439"><ele>277.0</ele><time>2026-04-12T11:18:37Z</time></trkpt><trkpt lat="44.64558147484007" lon="7.8619923924199195"><ele>277.0</ele><time>2026-04-12T11:18:39Z</time></trkpt><trkpt lat="44.64567216916491" lon="7.861987015117165"><ele>277.0</ele><time>2026-04-12T11:18:41Z</time></trkpt><trkpt lat="44.645767075531" lon="7.861983383047174"><ele>277.0</ele><time>2026-04-12T11:18:43Z</time></trkpt><trkpt lat="44.6458660783643" lon="7.861992315008067"><ele>277.0</ele><time>2026-04-12T11:18:45Z</time></trkpt><trkpt lat="44.645966602379076" lon="7.862003602683085"><ele>277.0</ele><time>2026-04-12T11:18:47Z</time></trkpt><trkpt lat="44.646066100446305" lon="7.862004670884627"><ele>277.0</ele><time>2026-04-12T11:18:49Z</time></trkpt><trkpt lat="44.646165734103484" lon="7.862003524861026"><ele>277.0</ele><time>2026-04-12T11:18:51Z</time></trkpt><trkpt lat="44.646263021417866" lon="7.861991880925522"><ele>277.0</ele><time>2026-04-12T11:18:53Z</time></trkpt><trkpt lat="44.646356263179904" lon="7.861971411576093"><ele>277.0</ele><time>2026-04-12T11:18:55Z</time></trkpt><trkpt lat="44.64644685482218" lon="7.861944152245361"><ele>276.16666666666663</ele><time>2026-04-12T11:18:57Z</time></trkpt><trkpt lat="44.646529535556944" lon="7.861907974130469"><ele>275.3333333333333</ele><time>2026-04-12T11:18:59Z</time></trkpt><trkpt lat="44.64661572812177" lon="7.861892696071389"><ele>274.5</ele><time>2026-04-12T11:19:01Z</time></trkpt><trkpt lat="44.64669973640207" lon="7.861862457163713"><ele>273.6666666666667</ele><time>2026-04-12T11:19:03Z</time></trkpt><trkpt lat="44.64677914258309" lon="7.861824033186981"><ele>272.83333333333337</ele><time>2026-04-12T11:19:05Z</time></trkpt><trkpt lat="44.64685932423875" lon="7.861791799320482"><ele>272.0</ele><time>2026-04-12T11:19:07Z</time></trkpt><trkpt lat="44.64694609359224" lon="7.86178385898498"><ele>274.6666666666667</ele><time>2026-04-12T11:19:09Z</time></trkpt><trkpt lat="44.647033945486235" lon="7.861768204512982"><ele>277.33333333333337</ele><time>2026-04-12T11:19:11Z</time></trkpt><trkpt lat="44.64712497881419" lon="7.8617631221164155"><ele>280.0</ele><time>2026-04-12T11:19:13Z</time></trkpt><trkpt lat="44.64720795970239" lon="7.861755930257235"><ele>282.6666666666667</ele><time>2026-04-12T11:19:15Z</time></trkpt><trkpt lat="44.647293940827275" lon="7.861751433798022"><ele>285.3333333333333</ele><time>2026-04-12T11:19:17Z</time></trkpt><trkpt lat="44.64737656694703" lon="7.8617397854641675"><ele>288.0</ele><time>2026-04-12T11:19:19Z</time></trkpt><trkpt lat="44.64744902907037" lon="7.861737238102264"><ele>288.00000000000006</ele><time>2026-04-12T11:19:21Z</time></trkpt><trkpt lat="44.64751968755593" lon="7.861715245782927"><ele>288.0</ele><time>2026-04-12T11:19:23Z</time></trkpt><trkpt lat="44.647588875469665" lon="7.861681092401955"><ele>288.0</ele><time>2026-04-12T11:19:25Z</time></trkpt><trkpt lat="44.64765610579792" lon="7.861638516728512"><ele>288.0</ele><time>2026-04-12T11:19:27Z</time></trkpt><trkpt lat="44.64769871603352" lon="7.861557520262875"><ele>288.0</ele><time>2026-04-12T11:19:29Z</time></trkpt><trkpt lat="44.647750054318664" lon="7.861495365989662"><ele>288.00000000000006</ele><time>2026-04-12T11:19:31Z</time></trkpt><trkpt lat="44.64776131540197" lon="7.861382864920526"><ele>288.0</ele><time>2026-04-12T11:19:33Z</time></trkpt><trkpt lat="44.64780032991478" lon="7.8612966888087845"><ele>287.8571428571429</ele><time>2026-04-12T11:19:35Z</time></trkpt><trkpt lat="44.647865943670816" lon="7.861238972143427"><ele>287.7142857142857</ele><time>2026-04-12T11:19:37Z</time></trkpt><trkpt lat="44.647933455930755" lon="7.861216918640749"><ele>287.57142857142856</ele><time>2026-04-12T11:19:39Z</time></trkpt><trkpt lat="44.647999572256936" lon="7.86121441523465"><ele>287.42857142857144</ele><time>2026-04-12T11:19:41Z</time></trkpt><trkpt lat="44.64806649112138" lon="7.861215288383834"><ele>287.2857142857143</ele><time>2026-04-12T11:19:43Z</time></trkpt><trkpt lat="44.64813714532902" lon="7.8612083737957335"><ele>287.14285714285717</ele><time>2026-04-12T11:19:45Z</time></trkpt><trkpt lat="44.64821267522825" lon="7.861206973559261"><ele>287.0</ele><time>2026-04-12T11:19:47Z</time></trkpt><trkpt lat="44.64829791880165" lon="7.861208472183233"><ele>287.0</ele><time>2026-04-12T11:19:49Z</time></trkpt><trkpt lat="44.64838380556733" lon="7.8611975312572495"><ele>287.0</ele><time>2026-04-12T11:19:51Z</time></trkpt><trkpt lat="44.648472239185544" lon="7.861198073918036"><ele>287.0</ele><time>2026-04-12T11:19:53Z</time></trkpt><trkpt lat="44.64855916670605" lon="7.861193046682327"><ele>287.0</ele><time>2026-04-12T11:19:55Z</time></trkpt><trkpt lat="44.648643098308604" lon="7.861190120530597"><ele>287.0</ele><time>2026-04-12T11:19:57Z</time></trkpt><trkpt lat="44.64872679891258" lon="7.861182901997347"><ele>287.0</ele><time>2026-04-12T11:19:59Z</time></trkpt><trkpt lat="44.648814528937244" lon="7.861202848587544"><ele>287.6666666666667</ele><time>2026-04-12T11:20:01Z</time></trkpt><trkpt lat="44.64890405788959" lon="7.861199412405355"><ele>288.33333333333337</ele><time>2026-04-12T11:20:03Z</time></trkpt><trkpt lat="44.64898487279723" lon="7.861193520524471"><ele>289.0</ele><time>2026-04-12T11:20:05Z</time></trkpt><trkpt lat="44.64905845502771" lon="7.861176606247072"><ele>289.6666666666667</ele><time>2026-04-12T11:20:07Z</time></trkpt><trkpt lat="44.649137139153645" lon="7.8611740522506555"><ele>290.3333333333333</ele><time>2026-04-12T11:20:09Z</time></trkpt><trkpt lat="44.64922033869549" lon="7.861165546848752"><ele>291.0</ele><time>2026-04-12T11:20:11Z</time></trkpt><trkpt lat="44.649303602891734" lon="7.861154569622213"><ele>291.0</ele><time>2026-04-12T11:20:13Z</time></trkpt><trkpt lat="44.64938271681486" lon="7.861160302232997"><ele>291.0</ele><time>2026-04-12T11:20:15Z</time></trkpt><trkpt lat="44.64945379461797" lon="7.861157101446233"><ele>291.0</ele><time>2026-04-12T11:20:17Z</time></trkpt><trkpt lat="44.64954404122321" lon="7.861140671399303"><ele>291.0</ele><time>2026-04-12T11:20:20Z</time></trkpt><trkpt lat="44.64959176384728" lon="7.861073453891869"><ele>291.0</ele><time>2026-04-12T11:20:22Z</time></trkpt><trkpt lat="44.649607824261786" lon="7.860931773070326"><ele>291.0</ele><time>2026-04-12T11:20:25Z</time></trkpt><trkpt lat="44.64960818941399" lon="7.86081455350337"><ele>291.0</ele><time>2026-04-12T11:20:27Z</time></trkpt><trkpt lat="44.649614408266" lon="7.860695335296106"><ele>291.0</ele><time>2026-04-12T11:20:29Z</time></trkpt><trkpt lat="44.64960996394989" lon="7.860568369561403"><ele>291.0</ele><time>2026-04-12T11:20:31Z</time></trkpt><trkpt lat="44.64960165234163" lon="7.860437026526395"><ele>291.0</ele><time>2026-04-12T11:20:33Z</time></trkpt><trkpt lat="44.64959205673034" lon="7.860299826113124"><ele>291.0</ele><time>2026-04-12T11:20:35Z</time></trkpt><trkpt lat="44.6495935721981" lon="7.860167602334129"><ele>290.8333333333333</ele><time>2026-04-12T11:20:37Z</time></trkpt><trkpt lat="44.64959021624469" lon="7.860035495729399"><ele>290.6666666666667</ele><time>2026-04-12T11:20:39Z</time></trkpt><trkpt lat="44.649590261347555" lon="7.859907332356991"><ele>290.5</ele><time>2026-04-12T11:20:41Z</time></trkpt><trkpt lat="44.64959131022381" lon="7.859794904773703"><ele>290.33333333333337</ele><time>2026-04-12T11:20:43Z</time></trkpt><trkpt lat="44.64958648430829" lon="7.859680208833452"><ele>290.1666666666667</ele><time>2026-04-12T11:20:45Z</time></trkpt><trkpt lat="44.64958144563295" lon="7.8595518353396"><ele>290.0</ele><time>2026-04-12T11:20:47Z</time></trkpt><trkpt lat="44.64957291518123" lon="7.859421522876744"><ele>290.0</ele><time>2026-04-12T11:20:49Z</time></trkpt><trkpt lat="44.64957516928774" lon="7.859288143498823"><ele>290.0</ele><time>2026-04-12T11:20:51Z</time></trkpt><trkpt lat="44.64956996298393" lon="7.859152258190812"><ele>290.0</ele><time>2026-04-12T11:20:53Z</time></trkpt><trkpt lat="44.649570735884716" lon="7.859014904356547"><ele>290.0</ele><time>2026-04-12T11:20:55Z</time></trkpt><trkpt lat="44.64957093717918" lon="7.858875639333281"><ele>290.0</ele><time>2026-04-12T11:20:57Z</time></trkpt><trkpt lat="44.64957192516765" lon="7.858746381329699"><ele>290.0</ele><time>2026-04-12T11:20:59Z</time></trkpt><trkpt lat="44.64956452516116" lon="7.858620583225359"><ele>290.0</ele><time>2026-04-12T11:21:01Z</time></trkpt><trkpt lat="44.64956982121077" lon="7.858516312434339"><ele>290.0</ele><time>2026-04-12T11:21:03Z</time></trkpt><trkpt lat="44.649557902663005" lon="7.858396464589487"><ele>290.0</ele><time>2026-04-12T11:21:06Z</time></trkpt><trkpt lat="44.64955593490983" lon="7.8582855391897475"><ele>290.0</ele><time>2026-04-12T11:21:09Z</time></trkpt><trkpt lat="44.64957044340021" lon="7.8581833777308585"><ele>290.0</ele><time>2026-04-12T11:21:12Z</time></trkpt><trkpt lat="44.64968649338016" lon="7.858182734476623"><ele>290.33333333333337</ele><time>2026-04-12T11:21:14Z</time></trkpt><trkpt lat="44.64977429421211" lon="7.858194158713292"><ele>290.6666666666667</ele><time>2026-04-12T11:21:16Z</time></trkpt><trkpt lat="44.64985641774568" lon="7.858185716820507"><ele>291.0</ele><time>2026-04-12T11:21:18Z</time></trkpt><trkpt lat="44.64993362165455" lon="7.858182323372825"><ele>291.3333333333333</ele><time>2026-04-12T11:21:20Z</time></trkpt><trkpt lat="44.65002219683912" lon="7.858202101104799"><ele>291.66666666666663</ele><time>2026-04-12T11:21:22Z</time></trkpt><trkpt lat="44.65011483080204" lon="7.858178675314079"><ele>292.0</ele><time>2026-04-12T11:21:24Z</time></trkpt><trkpt lat="44.65020982731275" lon="7.8581843017257205"><ele>292.4</ele><time>2026-04-12T11:21:26Z</time></trkpt><trkpt lat="44.65031016557177" lon="7.8581829301779065"><ele>292.79999999999995</ele><time>2026-04-12T11:21:28Z</time></trkpt><trkpt lat="44.65041289172311" lon="7.858193678403936"><ele>293.2</ele><time>2026-04-12T11:21:30Z</time></trkpt><trkpt lat="44.65051289626298" lon="7.858169849442953"><ele>293.59999999999997</ele><time>2026-04-12T11:21:32Z</time></trkpt><trkpt lat="44.65061526717608" lon="7.858154947290567"><ele>294.0</ele><time>2026-04-12T11:21:34Z</time></trkpt><trkpt lat="44.65071130914599" lon="7.858154283557735"><ele>294.0</ele><time>2026-04-12T11:21:36Z</time></trkpt><trkpt lat="44.65080454812934" lon="7.858145139562228"><ele>294.0</ele><time>2026-04-12T11:21:38Z</time></trkpt><trkpt lat="44.65089486801938" lon="7.858136437353962"><ele>294.0</ele><time>2026-04-12T11:21:40Z</time></trkpt><trkpt lat="44.65098954499973" lon="7.858129370479262"><ele>294.0</ele><time>2026-04-12T11:21:42Z</time></trkpt><trkpt lat="44.65108741393931" lon="7.858121034655167"><ele>294.0</ele><time>2026-04-12T11:21:44Z</time></trkpt><trkpt lat="44.65118613425628" lon="7.858115141165448"><ele>293.8</ele><time>2026-04-12T11:21:46Z</time></trkpt><trkpt lat="44.651286383357224" lon="7.858106657036469"><ele>293.59999999999997</ele><time>2026-04-12T11:21:48Z</time></trkpt><trkpt lat="44.6513877417965" lon="7.858100028791624"><ele>293.4</ele><time>2026-04-12T11:21:50Z</time></trkpt><trkpt lat="44.65148628999203" lon="7.858095459947348"><ele>293.2</ele><time>2026-04-12T11:21:52Z</time></trkpt><trkpt lat="44.651588765650644" lon="7.858082222231412"><ele>293.0</ele><time>2026-04-12T11:21:54Z</time></trkpt><trkpt lat="44.65167796957399" lon="7.858073607977946"><ele>293.0</ele><time>2026-04-12T11:21:56Z</time></trkpt><trkpt lat="44.65176923892766" lon="7.858088469154167"><ele>293.0</ele><time>2026-04-12T11:21:58Z</time></trkpt><trkpt lat="44.6518501332355" lon="7.858084247367348"><ele>293.0</ele><time>2026-04-12T11:22:00Z</time></trkpt><trkpt lat="44.65192438444617" lon="7.858080489082867"><ele>293.0</ele><time>2026-04-12T11:22:02Z</time></trkpt><trkpt lat="44.65199595300471" lon="7.858059095298393"><ele>293.0</ele><time>2026-04-12T11:22:04Z</time></trkpt><trkpt lat="44.652082723556916" lon="7.858057360232246"><ele>293.0</ele><time>2026-04-12T11:22:07Z</time></trkpt><trkpt lat="44.65217213511398" lon="7.858068484297554"><ele>293.0</ele><time>2026-04-12T11:22:10Z</time></trkpt><trkpt lat="44.652251570772236" lon="7.858064535989536"><ele>293.0</ele><time>2026-04-12T11:22:12Z</time></trkpt><trkpt lat="44.65233338604265" lon="7.858048083192933"><ele>293.0</ele><time>2026-04-12T11:22:14Z</time></trkpt><trkpt lat="44.65242332269222" lon="7.858041528302757"><ele>293.0</ele><time>2026-04-12T11:22:16Z</time></trkpt><trkpt lat="44.6525089284119" lon="7.85802702133215"><ele>293.0</ele><time>2026-04-12T11:22:18Z</time></trkpt><trkpt lat="44.652594063530145" lon="7.85802071406788"><ele>293.0</ele><time>2026-04-12T11:22:20Z</time></trkpt><trkpt lat="44.65267216189668" lon="7.858038838155525"><ele>293.0</ele><time>2026-04-12T11:22:22Z</time></trkpt><trkpt lat="44.65274531540682" lon="7.858033706625848"><ele>293.0</ele><time>2026-04-12T11:22:24Z</time></trkpt><trkpt lat="44.65282402177279" lon="7.858014626070925"><ele>293.0</ele><time>2026-04-12T11:22:26Z</time></trkpt><trkpt lat="44.65290617784672" lon="7.858008522114277"><ele>293.0</ele><time>2026-04-12T11:22:28Z</time></trkpt><trkpt lat="44.65297942047824" lon="7.858023039071258"><ele>293.0</ele><time>2026-04-12T11:22:30Z</time></trkpt><trkpt lat="44.653063215054985" lon="7.858034194189339"><ele>293.0</ele><time>2026-04-12T11:22:32Z</time></trkpt><trkpt lat="44.65315309031497" lon="7.858011497748993"><ele>292.8</ele><time>2026-04-12T11:22:34Z</time></trkpt><trkpt lat="44.65324910548908" lon="7.858002486229714"><ele>292.6</ele><time>2026-04-12T11:22:36Z</time></trkpt><trkpt lat="44.653345060933965" lon="7.857990155632633"><ele>292.4</ele><time>2026-04-12T11:22:38Z</time></trkpt><trkpt lat="44.65344240945359" lon="7.857976556189294"><ele>292.2</ele><time>2026-04-12T11:22:40Z</time></trkpt><trkpt lat="44.65353862942371" lon="7.857956287070494"><ele>292.0</ele><time>2026-04-12T11:22:42Z</time></trkpt><trkpt lat="44.65363577095556" lon="7.857956594613023"><ele>292.0</ele><time>2026-04-12T11:22:44Z</time></trkpt><trkpt lat="44.65373670244209" lon="7.857956871729662"><ele>292.0</ele><time>2026-04-12T11:22:46Z</time></trkpt><trkpt lat="44.65381937673669" lon="7.857950117268667"><ele>292.0</ele><time>2026-04-12T11:22:48Z</time></trkpt><trkpt lat="44.65389357050106" lon="7.857955407557817"><ele>292.0</ele><time>2026-04-12T11:22:50Z</time></trkpt><trkpt lat="44.653867274701014" lon="7.857793608715619"><ele>292.0</ele><time>2026-04-12T11:22:55Z</time></trkpt><trkpt lat="44.65384587661312" lon="7.857680530761134"><ele>292.0</ele><time>2026-04-12T11:23:00Z</time></trkpt><trkpt lat="44.653840570007134" lon="7.857552236209934"><ele>292.0</ele><time>2026-04-12T11:23:02Z</time></trkpt><trkpt lat="44.6538199599795" lon="7.857418136691269"><ele>292.0</ele><time>2026-04-12T11:23:04Z</time></trkpt><trkpt lat="44.65381870698077" lon="7.857284890594679"><ele>292.0</ele><time>2026-04-12T11:23:06Z</time></trkpt><trkpt lat="44.65381459824464" lon="7.857125019203108"><ele>292.0</ele><time>2026-04-12T11:23:08Z</time></trkpt><trkpt lat="44.653817571782945" lon="7.856961279321176"><ele>292.0</ele><time>2026-04-12T11:23:10Z</time></trkpt><trkpt lat="44.653823397636366" lon="7.856813060978382"><ele>292.0</ele><time>2026-04-12T11:23:12Z</time></trkpt><trkpt lat="44.653819582619754" lon="7.856654591582971"><ele>292.0</ele><time>2026-04-12T11:23:14Z</time></trkpt><trkpt lat="44.65381478914451" lon="7.856488857435825"><ele>292.0</ele><time>2026-04-12T11:23:16Z</time></trkpt><trkpt lat="44.65381278779842" lon="7.856328689310904"><ele>292.16666666666663</ele><time>2026-04-12T11:23:18Z</time></trkpt><trkpt lat="44.65379080325141" lon="7.856183983537101"><ele>292.3333333333333</ele><time>2026-04-12T11:23:20Z</time></trkpt><trkpt lat="44.653776823110235" lon="7.856050283961903"><ele>292.5</ele><time>2026-04-12T11:23:22Z</time></trkpt><trkpt lat="44.65377399743593" lon="7.855932410523378"><ele>292.6666666666667</ele><time>2026-04-12T11:23:24Z</time></trkpt><trkpt lat="44.653799850174664" lon="7.855818809158901"><ele>292.83333333333337</ele><time>2026-04-12T11:23:26Z</time></trkpt><trkpt lat="44.653793021363946" lon="7.85571314535598"><ele>293.0</ele><time>2026-04-12T11:23:28Z</time></trkpt><trkpt lat="44.65378217717049" lon="7.855570967118333"><ele>292.2</ele><time>2026-04-12T11:23:30Z</time></trkpt><trkpt lat="44.65376918677987" lon="7.855430171606932"><ele>291.4</ele><time>2026-04-12T11:23:32Z</time></trkpt><trkpt lat="44.65375611914883" lon="7.855290956525454"><ele>290.59999999999997</ele><time>2026-04-12T11:23:34Z</time></trkpt><trkpt lat="44.653735616445296" lon="7.855167400916206"><ele>289.8</ele><time>2026-04-12T11:23:36Z</time></trkpt><trkpt lat="44.6537231550424" lon="7.855048235837005"><ele>289.0</ele><time>2026-04-12T11:23:38Z</time></trkpt><trkpt lat="44.653717383235666" lon="7.85493410332624"><ele>287.8333333333333</ele><time>2026-04-12T11:23:40Z</time></trkpt><trkpt lat="44.65371701228953" lon="7.854841428728527"><ele>286.66666666666663</ele><time>2026-04-12T11:23:42Z</time></trkpt><trkpt lat="44.65379935677924" lon="7.854761074507427"><ele>285.5</ele><time>2026-04-12T11:23:44Z</time></trkpt><trkpt lat="44.65392036156928" lon="7.854700067991441"><ele>284.3333333333333</ele><time>2026-04-12T11:23:46Z</time></trkpt><trkpt lat="44.65398994100648" lon="7.854662299438529"><ele>283.1666666666667</ele><time>2026-04-12T11:23:47Z</time></trkpt><trkpt lat="44.65406422795755" lon="7.854628059346614"><ele>282.0</ele><time>2026-04-12T11:23:48Z</time></trkpt><trkpt lat="44.65413722665287" lon="7.854591057038679"><ele>282.0</ele><time>2026-04-12T11:23:49Z</time></trkpt><trkpt lat="44.65420378411552" lon="7.8545430910066045"><ele>282.0</ele><time>2026-04-12T11:23:50Z</time></trkpt><trkpt lat="44.65427104267804" lon="7.854481574615941"><ele>282.0</ele><time>2026-04-12T11:23:51Z</time></trkpt><trkpt lat="44.65433543858598" lon="7.854410096076446"><ele>282.0</ele><time>2026-04-12T11:23:52Z</time></trkpt><trkpt lat="44.654399472415186" lon="7.854335153231189"><ele>282.0</ele><time>2026-04-12T11:23:53Z</time></trkpt><trkpt lat="44.65445667700474" lon="7.854258736214202"><ele>282.0</ele><time>2026-04-12T11:23:54Z</time></trkpt><trkpt lat="44.65451052832513" lon="7.854182369408884"><ele>279.5</ele><time>2026-04-12T11:23:55Z</time></trkpt><trkpt lat="44.6545602648403" lon="7.854105204492083"><ele>277.0</ele><time>2026-04-12T11:23:56Z</time></trkpt><trkpt lat="44.65462311141932" lon="7.854050636794856"><ele>274.5</ele><time>2026-04-12T11:23:57Z</time></trkpt><trkpt lat="44.654686170927334" lon="7.854001599769529"><ele>272.0</ele><time>2026-04-12T11:23:58Z</time></trkpt><trkpt lat="44.65475554538954" lon="7.853953395270821"><ele>269.5</ele><time>2026-04-12T11:23:59Z</time></trkpt><trkpt lat="44.65483186488692" lon="7.853941959272618"><ele>267.0</ele><time>2026-04-12T11:24:00Z</time></trkpt><trkpt lat="44.65490713364415" lon="7.853969629233447"><ele>267.0</ele><time>2026-04-12T11:24:01Z</time></trkpt><trkpt lat="44.654977740432656" lon="7.8540237571593785"><ele>267.0</ele><time>2026-04-12T11:24:02Z</time></trkpt><trkpt lat="44.65504293294037" lon="7.85410302830293"><ele>267.0</ele><time>2026-04-12T11:24:03Z</time></trkpt><trkpt lat="44.655097119840306" lon="7.854203522215449"><ele>267.0</ele><time>2026-04-12T11:24:04Z</time></trkpt><trkpt lat="44.65513141554684" lon="7.854311303556592"><ele>267.0</ele><time>2026-04-12T11:24:05Z</time></trkpt><trkpt lat="44.65516027263295" lon="7.854410942102699"><ele>267.0</ele><time>2026-04-12T11:24:06Z</time></trkpt><trkpt lat="44.65518072470095" lon="7.854497197959503"><ele>267.0</ele><time>2026-04-12T11:24:07Z</time></trkpt><trkpt lat="44.65524945916117" lon="7.8545955926412665"><ele>267.0</ele><time>2026-04-12T11:24:09Z</time></trkpt><trkpt lat="44.6553431455337" lon="7.854527743237195"><ele>267.0</ele><time>2026-04-12T11:24:11Z</time></trkpt><trkpt lat="44.655350375037884" lon="7.854355690085671"><ele>267.0</ele><time>2026-04-12T11:24:13Z</time></trkpt><trkpt lat="44.65531461980397" lon="7.854265933593105"><ele>267.0</ele><time>2026-04-12T11:24:14Z</time></trkpt><trkpt lat="44.65527506758959" lon="7.854181976158334"><ele>267.0</ele><time>2026-04-12T11:24:15Z</time></trkpt><trkpt lat="44.65524134416935" lon="7.854088743787636"><ele>267.0</ele><time>2026-04-12T11:24:16Z</time></trkpt><trkpt lat="44.655208976043774" lon="7.853992086450017"><ele>267.0</ele><time>2026-04-12T11:24:17Z</time></trkpt><trkpt lat="44.655164980405765" lon="7.853894685142992"><ele>267.0</ele><time>2026-04-12T11:24:18Z</time></trkpt><trkpt lat="44.65512360401082" lon="7.853808295767873"><ele>267.0</ele><time>2026-04-12T11:24:19Z</time></trkpt><trkpt lat="44.655084971693526" lon="7.853733655492698"><ele>267.0</ele><time>2026-04-12T11:24:20Z</time></trkpt><trkpt lat="44.655066644054116" lon="7.853621541093442"><ele>267.0</ele><time>2026-04-12T11:24:22Z</time></trkpt><trkpt lat="44.65515134808164" lon="7.853573187143445"><ele>267.0</ele><time>2026-04-12T11:24:24Z</time></trkpt><trkpt lat="44.65522056052021" lon="7.853597154068062"><ele>267.0</ele><time>2026-04-12T11:24:25Z</time></trkpt><trkpt lat="44.65528117178707" lon="7.853673079906084"><ele>267.0</ele><time>2026-04-12T11:24:26Z</time></trkpt><trkpt lat="44.65530593630128" lon="7.853789637731523"><ele>267.0</ele><time>2026-04-12T11:24:27Z</time></trkpt><trkpt lat="44.65535988239576" lon="7.853882504230858"><ele>267.0</ele><time>2026-04-12T11:24:28Z</time></trkpt><trkpt lat="44.65540538313884" lon="7.853988264306965"><ele>264.0</ele><time>2026-04-12T11:24:29Z</time></trkpt><trkpt lat="44.655459114823515" lon="7.854094781044455"><ele>261.0</ele><time>2026-04-12T11:24:30Z</time></trkpt><trkpt lat="44.65551716559922" lon="7.854203704028913"><ele>258.0</ele><time>2026-04-12T11:24:31Z</time></trkpt><trkpt lat="44.65557448467694" lon="7.854321190047085"><ele>255.0</ele><time>2026-04-12T11:24:32Z</time></trkpt><trkpt lat="44.65562776037194" lon="7.854446974809245"><ele>252.0</ele><time>2026-04-12T11:24:33Z</time></trkpt><trkpt lat="44.65568608101849" lon="7.854572823292712"><ele>252.0</ele><time>2026-04-12T11:24:34Z</time></trkpt><trkpt lat="44.65575199608958" lon="7.854694356914095"><ele>252.0</ele><time>2026-04-12T11:24:35Z</time></trkpt><trkpt lat="44.655814147798914" lon="7.854818004973581"><ele>252.0</ele><time>2026-04-12T11:24:36Z</time></trkpt><trkpt lat="44.655865178349735" lon="7.854948911593001"><ele>252.0</ele><time>2026-04-12T11:24:37Z</time></trkpt><trkpt lat="44.65589162867095" lon="7.855099460449036"><ele>252.0</ele><time>2026-04-12T11:24:38Z</time></trkpt><trkpt lat="44.655934213872854" lon="7.855243341963634"><ele>254.0</ele><time>2026-04-12T11:24:39Z</time></trkpt><trkpt lat="44.65595068723387" lon="7.855397487723854"><ele>256.0</ele><time>2026-04-12T11:24:40Z</time></trkpt><trkpt lat="44.65597824848112" lon="7.855550727857732"><ele>258.0</ele><time>2026-04-12T11:24:41Z</time></trkpt><trkpt lat="44.65600637052794" lon="7.855707747887607"><ele>260.0</ele><time>2026-04-12T11:24:42Z</time></trkpt><trkpt lat="44.65602722615207" lon="7.855871292832921"><ele>259.0</ele><time>2026-04-12T11:24:43Z</time></trkpt><trkpt lat="44.65605441236749" lon="7.8560223156874684"><ele>258.0</ele><time>2026-04-12T11:24:44Z</time></trkpt><trkpt lat="44.656075563674044" lon="7.856165119634464"><ele>257.0</ele><time>2026-04-12T11:24:45Z</time></trkpt><trkpt lat="44.65609663869379" lon="7.8563006752667945"><ele>256.0</ele><time>2026-04-12T11:24:46Z</time></trkpt><trkpt lat="44.65610729913818" lon="7.856427016728315"><ele>255.0</ele><time>2026-04-12T11:24:47Z</time></trkpt><trkpt lat="44.65612725314419" lon="7.856537208670323"><ele>247.6</ele><time>2026-04-12T11:24:48Z</time></trkpt><trkpt lat="44.6561449173652" lon="7.856628388445851"><ele>240.2</ele><time>2026-04-12T11:24:49Z</time></trkpt><trkpt lat="44.656257536229475" lon="7.856714407506417"><ele>232.8</ele><time>2026-04-12T11:24:51Z</time></trkpt><trkpt lat="44.6563434050061" lon="7.856709236105058"><ele>225.4</ele><time>2026-04-12T11:24:52Z</time></trkpt><trkpt lat="44.656427211751954" lon="7.856669298214198"><ele>218.0</ele><time>2026-04-12T11:24:53Z</time></trkpt><trkpt lat="44.65650965354457" lon="7.856606280711533"><ele>218.0</ele><time>2026-04-12T11:24:54Z</time></trkpt><trkpt lat="44.656596698540866" lon="7.856549309712652"><ele>218.0</ele><time>2026-04-12T11:24:55Z</time></trkpt><trkpt lat="44.656691665275694" lon="7.856493570807638"><ele>218.0</ele><time>2026-04-12T11:24:56Z</time></trkpt><trkpt lat="44.656785093979195" lon="7.856432139463937"><ele>218.0</ele><time>2026-04-12T11:24:57Z</time></trkpt><trkpt lat="44.65687666696736" lon="7.856378866151601"><ele>218.0</ele><time>2026-04-12T11:24:58Z</time></trkpt><trkpt lat="44.65696640013831" lon="7.8563244439090205"><ele>216.8</ele><time>2026-04-12T11:24:59Z</time></trkpt><trkpt lat="44.65705356976256" lon="7.856260089486766"><ele>215.60000000000002</ele><time>2026-04-12T11:25:00Z</time></trkpt><trkpt lat="44.657146775891434" lon="7.856204038295619"><ele>214.39999999999998</ele><time>2026-04-12T11:25:01Z</time></trkpt><trkpt lat="44.657250796733585" lon="7.856206841877402"><ele>213.2</ele><time>2026-04-12T11:25:02Z</time></trkpt><trkpt lat="44.65734317225715" lon="7.856154950047041"><ele>212.0</ele><time>2026-04-12T11:25:03Z</time></trkpt><trkpt lat="44.657442681034205" lon="7.856124317328521"><ele>212.0</ele><time>2026-04-12T11:25:04Z</time></trkpt><trkpt lat="44.65752774080785" lon="7.856067981650722"><ele>212.0</ele><time>2026-04-12T11:25:05Z</time></trkpt><trkpt lat="44.65761528341477" lon="7.856025701778841"><ele>212.0</ele><time>2026-04-12T11:25:06Z</time></trkpt><trkpt lat="44.65770312285721" lon="7.855993647118675"><ele>212.0</ele><time>2026-04-12T11:25:07Z</time></trkpt><trkpt lat="44.65778646982761" lon="7.855962131051549"><ele>212.0</ele><time>2026-04-12T11:25:08Z</time></trkpt><trkpt lat="44.65786965503218" lon="7.855928165346932"><ele>211.66666666666669</ele><time>2026-04-12T11:25:09Z</time></trkpt><trkpt lat="44.65795266780609" lon="7.855897306865742"><ele>211.33333333333334</ele><time>2026-04-12T11:25:10Z</time></trkpt><trkpt lat="44.658033410130244" lon="7.855862085946587"><ele>211.0</ele><time>2026-04-12T11:25:11Z</time></trkpt><trkpt lat="44.6581151173747" lon="7.855829887157104"><ele>210.66666666666669</ele><time>2026-04-12T11:25:12Z</time></trkpt><trkpt lat="44.65819661364321" lon="7.855802896771143"><ele>210.33333333333334</ele><time>2026-04-12T11:25:13Z</time></trkpt><trkpt lat="44.65827280157314" lon="7.85577525042264"><ele>210.0</ele><time>2026-04-12T11:25:14Z</time></trkpt><trkpt lat="44.658350197869055" lon="7.855745596137402"><ele>210.0</ele><time>2026-04-12T11:25:15Z</time></trkpt><trkpt lat="44.65842607634113" lon="7.855717104518856"><ele>210.0</ele><time>2026-04-12T11:25:16Z</time></trkpt><trkpt lat="44.65850146608507" lon="7.8556883886511635"><ele>210.0</ele><time>2026-04-12T11:25:17Z</time></trkpt><trkpt lat="44.658575480092956" lon="7.8556618275987615"><ele>210.0</ele><time>2026-04-12T11:25:18Z</time></trkpt><trkpt lat="44.65864957587619" lon="7.855635303320391"><ele>210.0</ele><time>2026-04-12T11:25:19Z</time></trkpt><trkpt lat="44.658724668851534" lon="7.855603401946404"><ele>210.0</ele><time>2026-04-12T11:25:20Z</time></trkpt><trkpt lat="44.65879923243536" lon="7.855571730140687"><ele>208.83333333333334</ele><time>2026-04-12T11:25:21Z</time></trkpt><trkpt lat="44.6588745078343" lon="7.855544236505824"><ele>207.66666666666669</ele><time>2026-04-12T11:25:22Z</time></trkpt><trkpt lat="44.65895198342636" lon="7.855511899392953"><ele>206.5</ele><time>2026-04-12T11:25:23Z</time></trkpt><trkpt lat="44.65902500271679" lon="7.8554823006579015"><ele>205.33333333333334</ele><time>2026-04-12T11:25:24Z</time></trkpt><trkpt lat="44.65910065205599" lon="7.855450898322627"><ele>204.16666666666669</ele><time>2026-04-12T11:25:25Z</time></trkpt><trkpt lat="44.659178280494984" lon="7.855422126148981"><ele>203.0</ele><time>2026-04-12T11:25:26Z</time></trkpt><trkpt lat="44.65925486322604" lon="7.855398816290026"><ele>203.00000000000003</ele><time>2026-04-12T11:25:27Z</time></trkpt><trkpt lat="44.65933476090845" lon="7.855371186747378"><ele>203.0</ele><time>2026-04-12T11:25:28Z</time></trkpt><trkpt lat="44.65941137368643" lon="7.855339099031115"><ele>203.0</ele><time>2026-04-12T11:25:29Z</time></trkpt><trkpt lat="44.65948756571294" lon="7.855309333562274"><ele>203.0</ele><time>2026-04-12T11:25:30Z</time></trkpt><trkpt lat="44.659565608676296" lon="7.85528106428216"><ele>203.00000000000003</ele><time>2026-04-12T11:25:31Z</time></trkpt><trkpt lat="44.65964233797871" lon="7.855249995109541"><ele>203.0</ele><time>2026-04-12T11:25:32Z</time></trkpt><trkpt lat="44.65971999573269" lon="7.855220884160374"><ele>203.33333333333334</ele><time>2026-04-12T11:25:33Z</time></trkpt><trkpt lat="44.65979874588313" lon="7.855192700005792"><ele>203.66666666666669</ele><time>2026-04-12T11:25:34Z</time></trkpt><trkpt lat="44.659878530210015" lon="7.85516219296873"><ele>204.0</ele><time>2026-04-12T11:25:35Z</time></trkpt><trkpt lat="44.659956810655665" lon="7.855129369820294"><ele>204.33333333333331</ele><time>2026-04-12T11:25:36Z</time></trkpt><trkpt lat="44.66003484769035" lon="7.855098315353926"><ele>204.66666666666666</ele><time>2026-04-12T11:25:37Z</time></trkpt><trkpt lat="44.660116487112425" lon="7.855070429475591"><ele>205.0</ele><time>2026-04-12T11:25:38Z</time></trkpt><trkpt lat="44.660192855186395" lon="7.855042486400027"><ele>205.49999999999997</ele><time>2026-04-12T11:25:39Z</time></trkpt><trkpt lat="44.6602693969044" lon="7.855010897580694"><ele>206.0</ele><time>2026-04-12T11:25:40Z</time></trkpt><trkpt lat="44.660345821185125" lon="7.854983405660131"><ele>206.5</ele><time>2026-04-12T11:25:41Z</time></trkpt><trkpt lat="44.66041841744102" lon="7.854950192250308"><ele>207.0</ele><time>2026-04-12T11:25:42Z</time></trkpt><trkpt lat="44.66049450685716" lon="7.854926059381636"><ele>207.49999999999997</ele><time>2026-04-12T11:25:43Z</time></trkpt><trkpt lat="44.660569944129314" lon="7.854892518303326"><ele>208.0</ele><time>2026-04-12T11:25:44Z</time></trkpt><trkpt lat="44.66064339755274" lon="7.854861729124058"><ele>208.0</ele><time>2026-04-12T11:25:45Z</time></trkpt><trkpt lat="44.66071597711611" lon="7.854834777635098"><ele>208.0</ele><time>2026-04-12T11:25:46Z</time></trkpt><trkpt lat="44.66079013214054" lon="7.854810654942826"><ele>208.0</ele><time>2026-04-12T11:25:47Z</time></trkpt><trkpt lat="44.66085949694726" lon="7.854788120545454"><ele>208.0</ele><time>2026-04-12T11:25:48Z</time></trkpt><trkpt lat="44.660929972993344" lon="7.854765215218846"><ele>208.0</ele><time>2026-04-12T11:25:49Z</time></trkpt><trkpt lat="44.66099995164986" lon="7.854749026183625"><ele>208.0</ele><time>2026-04-12T11:25:50Z</time></trkpt><trkpt lat="44.66106792843694" lon="7.854738162584377"><ele>208.0</ele><time>2026-04-12T11:25:51Z</time></trkpt><trkpt lat="44.66113400822979" lon="7.854725435523112"><ele>210.0</ele><time>2026-04-12T11:25:52Z</time></trkpt><trkpt lat="44.661196853152724" lon="7.854714464585493"><ele>212.0</ele><time>2026-04-12T11:25:53Z</time></trkpt><trkpt lat="44.66131821340334" lon="7.854700799951516"><ele>214.0</ele><time>2026-04-12T11:25:55Z</time></trkpt><trkpt lat="44.66143317904991" lon="7.854686420059522"><ele>216.0</ele><time>2026-04-12T11:25:57Z</time></trkpt><trkpt lat="44.661545821126666" lon="7.854672764073559"><ele>218.0</ele><time>2026-04-12T11:25:59Z</time></trkpt><trkpt lat="44.6616608598174" lon="7.854656713842445"><ele>218.0</ele><time>2026-04-12T11:26:01Z</time></trkpt><trkpt lat="44.66177546101958" lon="7.854642037856925"><ele>218.0</ele><time>2026-04-12T11:26:03Z</time></trkpt><trkpt lat="44.661889117247256" lon="7.8546325028203015"><ele>218.0</ele><time>2026-04-12T11:26:05Z</time></trkpt><trkpt lat="44.66200035690629" lon="7.854642263193845"><ele>218.0</ele><time>2026-04-12T11:26:07Z</time></trkpt><trkpt lat="44.66212378082965" lon="7.854684638235073"><ele>217.8</ele><time>2026-04-12T11:26:09Z</time></trkpt><trkpt lat="44.66220138569992" lon="7.854798385367005"><ele>217.60000000000002</ele><time>2026-04-12T11:26:11Z</time></trkpt><trkpt lat="44.662299691945066" lon="7.85487026709676"><ele>217.39999999999998</ele><time>2026-04-12T11:26:13Z</time></trkpt><trkpt lat="44.662401236176564" lon="7.854888291433663"><ele>217.2</ele><time>2026-04-12T11:26:15Z</time></trkpt><trkpt lat="44.66249371855524" lon="7.8548406414522995"><ele>217.0</ele><time>2026-04-12T11:26:17Z</time></trkpt><trkpt lat="44.662616901912365" lon="7.854875986763467"><ele>217.0</ele><time>2026-04-12T11:26:19Z</time></trkpt><trkpt lat="44.662702950903046" lon="7.854931731847791"><ele>217.0</ele><time>2026-04-12T11:26:21Z</time></trkpt><trkpt lat="44.66276738732064" lon="7.855026227999976"><ele>217.0</ele><time>2026-04-12T11:26:23Z</time></trkpt><trkpt lat="44.66280566881115" lon="7.8551612520524445"><ele>217.0</ele><time>2026-04-12T11:26:25Z</time></trkpt><trkpt lat="44.66276155733413" lon="7.8552345026333725"><ele>217.0</ele><time>2026-04-12T11:26:26Z</time></trkpt><trkpt lat="44.66275754967567" lon="7.855375197182029"><ele>216.8</ele><time>2026-04-12T11:26:28Z</time></trkpt><trkpt lat="44.662769079058975" lon="7.855515992895531"><ele>216.6</ele><time>2026-04-12T11:26:30Z</time></trkpt><trkpt lat="44.66277920501386" lon="7.855657166299378"><ele>216.40000000000003</ele><time>2026-04-12T11:26:32Z</time></trkpt><trkpt lat="44.6627946795184" lon="7.8557999625685"><ele>216.20000000000002</ele><time>2026-04-12T11:26:34Z</time></trkpt><trkpt lat="44.6628106808205" lon="7.855956740671445"><ele>216.0</ele><time>2026-04-12T11:26:36Z</time></trkpt><trkpt lat="44.66283300047515" lon="7.856119087285074"><ele>216.0</ele><time>2026-04-12T11:26:38Z</time></trkpt><trkpt lat="44.66285902272356" lon="7.856283327499947"><ele>216.00000000000003</ele><time>2026-04-12T11:26:40Z</time></trkpt><trkpt lat="44.66288994447696" lon="7.856443146736749"><ele>216.00000000000003</ele><time>2026-04-12T11:26:42Z</time></trkpt><trkpt lat="44.66290570333267" lon="7.856532286130099"><ele>216.0</ele><time>2026-04-12T11:26:43Z</time></trkpt><trkpt lat="44.66294042861246" lon="7.856692483040345"><ele>216.0</ele><time>2026-04-12T11:26:45Z</time></trkpt><trkpt lat="44.66294481835826" lon="7.856781159978201"><ele>216.0</ele><time>2026-04-12T11:26:46Z</time></trkpt><trkpt lat="44.66297073200126" lon="7.856949878875438"><ele>216.0</ele><time>2026-04-12T11:26:48Z</time></trkpt><trkpt lat="44.66297661765861" lon="7.857038634336194"><ele>216.0</ele><time>2026-04-12T11:26:49Z</time></trkpt><trkpt lat="44.66297939047167" lon="7.85713462272863"><ele>216.0</ele><time>2026-04-12T11:26:50Z</time></trkpt><trkpt lat="44.66298156829235" lon="7.85722772459628"><ele>216.0</ele><time>2026-04-12T11:26:51Z</time></trkpt><trkpt lat="44.662998545579235" lon="7.85732267796209"><ele>216.0</ele><time>2026-04-12T11:26:52Z</time></trkpt><trkpt lat="44.66300104764757" lon="7.857417679186297"><ele>216.0</ele><time>2026-04-12T11:26:53Z</time></trkpt><trkpt lat="44.663005313427554" lon="7.857510879551138"><ele>216.0</ele><time>2026-04-12T11:26:54Z</time></trkpt><trkpt lat="44.66300956610375" lon="7.857607220013755"><ele>216.0</ele><time>2026-04-12T11:26:55Z</time></trkpt><trkpt lat="44.66301900373345" lon="7.85770225964846"><ele>216.0</ele><time>2026-04-12T11:26:56Z</time></trkpt><trkpt lat="44.663027047791374" lon="7.857794687239938"><ele>216.0</ele><time>2026-04-12T11:26:57Z</time></trkpt><trkpt lat="44.66303456902153" lon="7.857891698681429"><ele>216.0</ele><time>2026-04-12T11:26:58Z</time></trkpt><trkpt lat="44.66304396148578" lon="7.85799106993753"><ele>216.0</ele><time>2026-04-12T11:26:59Z</time></trkpt><trkpt lat="44.66305450028987" lon="7.858086607410517"><ele>216.0</ele><time>2026-04-12T11:27:00Z</time></trkpt><trkpt lat="44.66306329001271" lon="7.858179765049785"><ele>216.0</ele><time>2026-04-12T11:27:01Z</time></trkpt><trkpt lat="44.66307328882502" lon="7.8582761773134875"><ele>216.0</ele><time>2026-04-12T11:27:02Z</time></trkpt><trkpt lat="44.6630846019624" lon="7.8583653576608885"><ele>216.0</ele><time>2026-04-12T11:27:03Z</time></trkpt><trkpt lat="44.66310176620441" lon="7.858455300685284"><ele>216.0</ele><time>2026-04-12T11:27:04Z</time></trkpt><trkpt lat="44.66312400660806" lon="7.858637774461984"><ele>216.0</ele><time>2026-04-12T11:27:06Z</time></trkpt><trkpt lat="44.66314902959046" lon="7.858804800614777"><ele>215.83333333333334</ele><time>2026-04-12T11:27:08Z</time></trkpt><trkpt lat="44.66316640347885" lon="7.858975325797853"><ele>215.66666666666669</ele><time>2026-04-12T11:27:10Z</time></trkpt><trkpt lat="44.663174216733914" lon="7.859064483239741"><ele>215.5</ele><time>2026-04-12T11:27:11Z</time></trkpt><trkpt lat="44.663203422816196" lon="7.859230654633315"><ele>215.33333333333334</ele><time>2026-04-12T11:27:13Z</time></trkpt><trkpt lat="44.66323423929834" lon="7.8593170800789265"><ele>215.16666666666669</ele><time>2026-04-12T11:27:14Z</time></trkpt><trkpt lat="44.66326752108702" lon="7.8593922627961454"><ele>215.0</ele><time>2026-04-12T11:27:15Z</time></trkpt><trkpt lat="44.66330024936102" lon="7.859468897129005"><ele>215.00000000000003</ele><time>2026-04-12T11:27:16Z</time></trkpt><trkpt lat="44.66333554836649" lon="7.859543873636762"><ele>215.0</ele><time>2026-04-12T11:27:17Z</time></trkpt><trkpt lat="44.66336888706306" lon="7.85962298289349"><ele>215.0</ele><time>2026-04-12T11:27:18Z</time></trkpt><trkpt lat="44.66338063028066" lon="7.8597122944785545"><ele>215.0</ele><time>2026-04-12T11:27:19Z</time></trkpt><trkpt lat="44.66340725336324" lon="7.859796185103314"><ele>215.00000000000003</ele><time>2026-04-12T11:27:20Z</time></trkpt><trkpt lat="44.66345655755306" lon="7.859953895305944"><ele>215.0</ele><time>2026-04-12T11:27:22Z</time></trkpt><trkpt lat="44.66352481059971" lon="7.860098329104044"><ele>215.0</ele><time>2026-04-12T11:27:24Z</time></trkpt><trkpt lat="44.663576250549184" lon="7.860234440847167"><ele>215.0</ele><time>2026-04-12T11:27:26Z</time></trkpt><trkpt lat="44.66364314606602" lon="7.860341512768409"><ele>215.0</ele><time>2026-04-12T11:27:28Z</time></trkpt><trkpt lat="44.66370836598303" lon="7.86045607826606"><ele>215.0</ele><time>2026-04-12T11:27:30Z</time></trkpt><trkpt lat="44.66369819585402" lon="7.860561219819117"><ele>215.0</ele><time>2026-04-12T11:27:31Z</time></trkpt><trkpt lat="44.66374150683849" lon="7.860691930860446"><ele>215.0</ele><time>2026-04-12T11:27:33Z</time></trkpt><trkpt lat="44.66378882566362" lon="7.860825421515529"><ele>215.0</ele><time>2026-04-12T11:27:35Z</time></trkpt><trkpt lat="44.66383683979201" lon="7.860963533797521"><ele>215.0</ele><time>2026-04-12T11:27:37Z</time></trkpt><trkpt lat="44.66390028054252" lon="7.86110265661519"><ele>215.0</ele><time>2026-04-12T11:27:39Z</time></trkpt><trkpt lat="44.66395278733332" lon="7.861232580878721"><ele>215.0</ele><time>2026-04-12T11:27:41Z</time></trkpt><trkpt lat="44.664010974623366" lon="7.861358021284719"><ele>215.0</ele><time>2026-04-12T11:27:43Z</time></trkpt><trkpt lat="44.664069538522185" lon="7.861480736164231"><ele>215.0</ele><time>2026-04-12T11:27:45Z</time></trkpt><trkpt lat="44.66413765510466" lon="7.861593763723536"><ele>215.0</ele><time>2026-04-12T11:27:47Z</time></trkpt><trkpt lat="44.66418394051056" lon="7.861721840154916"><ele>215.0</ele><time>2026-04-12T11:27:49Z</time></trkpt><trkpt lat="44.66422230099112" lon="7.861863335732157"><ele>215.0</ele><time>2026-04-12T11:27:51Z</time></trkpt><trkpt lat="44.66426858089576" lon="7.8619978207828325"><ele>214.8</ele><time>2026-04-12T11:27:53Z</time></trkpt><trkpt lat="44.664308056834315" lon="7.862136224687888"><ele>214.6</ele><time>2026-04-12T11:27:55Z</time></trkpt><trkpt lat="44.66435204438865" lon="7.8622660027203155"><ele>214.39999999999998</ele><time>2026-04-12T11:27:57Z</time></trkpt><trkpt lat="44.6643951614553" lon="7.862410468476457"><ele>214.2</ele><time>2026-04-12T11:27:59Z</time></trkpt><trkpt lat="44.66443773114212" lon="7.86253722053501"><ele>214.0</ele><time>2026-04-12T11:28:01Z</time></trkpt><trkpt lat="44.66447751460842" lon="7.862656598737078"><ele>213.83333333333331</ele><time>2026-04-12T11:28:03Z</time></trkpt><trkpt lat="44.664515811184145" lon="7.862772714700866"><ele>213.66666666666666</ele><time>2026-04-12T11:28:05Z</time></trkpt><trkpt lat="44.66455363633116" lon="7.862892274437874"><ele>213.5</ele><time>2026-04-12T11:28:07Z</time></trkpt><trkpt lat="44.66458762607351" lon="7.863010923055874"><ele>213.33333333333331</ele><time>2026-04-12T11:28:09Z</time></trkpt><trkpt lat="44.66462606546052" lon="7.863111871052303"><ele>213.16666666666666</ele><time>2026-04-12T11:28:11Z</time></trkpt><trkpt lat="44.664659262009316" lon="7.863232700386961"><ele>213.0</ele><time>2026-04-12T11:28:13Z</time></trkpt><trkpt lat="44.664701505695966" lon="7.863359774721914"><ele>213.0</ele><time>2026-04-12T11:28:15Z</time></trkpt><trkpt lat="44.6647415148941" lon="7.863483556780226"><ele>213.0</ele><time>2026-04-12T11:28:17Z</time></trkpt><trkpt lat="44.664780943680796" lon="7.863598041157501"><ele>213.0</ele><time>2026-04-12T11:28:19Z</time></trkpt><trkpt lat="44.66482863687902" lon="7.863716425229528"><ele>213.0</ele><time>2026-04-12T11:28:21Z</time></trkpt><trkpt lat="44.66487220140375" lon="7.863829391478294"><ele>213.0</ele><time>2026-04-12T11:28:23Z</time></trkpt><trkpt lat="44.66491871461035" lon="7.8639487545390185"><ele>213.0</ele><time>2026-04-12T11:28:25Z</time></trkpt><trkpt lat="44.66496148896653" lon="7.864071612090989"><ele>213.0</ele><time>2026-04-12T11:28:27Z</time></trkpt><trkpt lat="44.66500878277396" lon="7.864195271315067"><ele>213.0</ele><time>2026-04-12T11:28:29Z</time></trkpt><trkpt lat="44.66505458343298" lon="7.8643243360145"><ele>213.0</ele><time>2026-04-12T11:28:31Z</time></trkpt><trkpt lat="44.66510043785776" lon="7.8644651149599705"><ele>213.0</ele><time>2026-04-12T11:28:33Z</time></trkpt><trkpt lat="44.665143863404786" lon="7.864596605285603"><ele>213.0</ele><time>2026-04-12T11:28:35Z</time></trkpt><trkpt lat="44.66519355077057" lon="7.86473570457793"><ele>213.0</ele><time>2026-04-12T11:28:37Z</time></trkpt><trkpt lat="44.665237982209355" lon="7.864855400303858"><ele>213.0</ele><time>2026-04-12T11:28:39Z</time></trkpt><trkpt lat="44.665278955122325" lon="7.86497013462252"><ele>213.0</ele><time>2026-04-12T11:28:41Z</time></trkpt><trkpt lat="44.66532729801904" lon="7.865092444339659"><ele>213.0</ele><time>2026-04-12T11:28:43Z</time></trkpt><trkpt lat="44.66538327076044" lon="7.865227296079112"><ele>212.8</ele><time>2026-04-12T11:28:45Z</time></trkpt><trkpt lat="44.665441954672296" lon="7.865354931672611"><ele>212.60000000000002</ele><time>2026-04-12T11:28:47Z</time></trkpt><trkpt lat="44.66548224216716" lon="7.86548788792931"><ele>212.39999999999998</ele><time>2026-04-12T11:28:49Z</time></trkpt><trkpt lat="44.66552748279281" lon="7.86562231108912"><ele>212.2</ele><time>2026-04-12T11:28:51Z</time></trkpt><trkpt lat="44.66557409408627" lon="7.865756868322434"><ele>212.0</ele><time>2026-04-12T11:28:53Z</time></trkpt><trkpt lat="44.665625613124185" lon="7.865888331107381"><ele>212.0</ele><time>2026-04-12T11:28:55Z</time></trkpt><trkpt lat="44.66567480755769" lon="7.866032640681086"><ele>212.0</ele><time>2026-04-12T11:28:57Z</time></trkpt><trkpt lat="44.66573031138144" lon="7.866159682898876"><ele>212.0</ele><time>2026-04-12T11:28:59Z</time></trkpt><trkpt lat="44.6657841779838" lon="7.8662857171889735"><ele>212.0</ele><time>2026-04-12T11:29:01Z</time></trkpt><trkpt lat="44.665846954654356" lon="7.866408118799713"><ele>212.0</ele><time>2026-04-12T11:29:03Z</time></trkpt><trkpt lat="44.665905475656764" lon="7.866528422115216"><ele>212.00000000000003</ele><time>2026-04-12T11:29:05Z</time></trkpt><trkpt lat="44.66595160212616" lon="7.866636132980158"><ele>212.0</ele><time>2026-04-12T11:29:07Z</time></trkpt><trkpt lat="44.66599720018517" lon="7.866748641504905"><ele>212.0</ele><time>2026-04-12T11:29:09Z</time></trkpt><trkpt lat="44.666044468459546" lon="7.866822442928912"><ele>212.0</ele><time>2026-04-12T11:29:13Z</time></trkpt><trkpt lat="44.66607345855461" lon="7.8669073194581305"><ele>212.00000000000003</ele><time>2026-04-12T11:37:57Z</time></trkpt><trkpt lat="44.666108065370835" lon="7.867000076210556"><ele>212.0</ele><time>2026-04-12T11:38:00Z</time></trkpt><trkpt lat="44.66612834325835" lon="7.867091453033666"><ele>212.00000000000003</ele><time>2026-04-12T11:38:03Z</time></trkpt><trkpt lat="44.66617908288879" lon="7.867202428591501"><ele>212.0</ele><time>2026-04-12T11:38:06Z</time></trkpt><trkpt lat="44.66621846459552" lon="7.867313231347215"><ele>212.0</ele><time>2026-04-12T11:38:09Z</time></trkpt><trkpt lat="44.666250808021566" lon="7.8673935802279695"><ele>212.0</ele><time>2026-04-12T11:38:11Z</time></trkpt><trkpt lat="44.666283311931174" lon="7.867477185183107"><ele>212.00000000000003</ele><time>2026-04-12T11:38:13Z</time></trkpt><trkpt lat="44.666328479010836" lon="7.867580572124793"><ele>212.0</ele><time>2026-04-12T11:38:16Z</time></trkpt><trkpt lat="44.666373373237874" lon="7.867696522022152"><ele>212.00000000000003</ele><time>2026-04-12T11:38:19Z</time></trkpt><trkpt lat="44.66640291229222" lon="7.867783732093684"><ele>212.0</ele><time>2026-04-12T11:38:21Z</time></trkpt><trkpt lat="44.66642931579824" lon="7.867868089678052"><ele>212.0</ele><time>2026-04-12T11:38:23Z</time></trkpt><trkpt lat="44.666472337948164" lon="7.86798805388069"><ele>212.0</ele><time>2026-04-12T11:38:26Z</time></trkpt><trkpt lat="44.66649295276124" lon="7.868077710332063"><ele>212.00000000000003</ele><time>2026-04-12T11:38:28Z</time></trkpt><trkpt lat="44.66651576218816" lon="7.86821089359068"><ele>212.0</ele><time>2026-04-12T11:38:31Z</time></trkpt><trkpt lat="44.66652714824843" lon="7.868311068537412"><ele>212.0</ele><time>2026-04-12T11:38:33Z</time></trkpt><trkpt lat="44.66653260817761" lon="7.868407864552789"><ele>212.0</ele><time>2026-04-12T11:38:35Z</time></trkpt><trkpt lat="44.666553481186156" lon="7.868506775704975"><ele>212.0</ele><time>2026-04-12T11:38:37Z</time></trkpt><trkpt lat="44.666575382479756" lon="7.8686047563292725"><ele>212.0</ele><time>2026-04-12T11:38:39Z</time></trkpt><trkpt lat="44.666606567755714" lon="7.868704563412748"><ele>212.0</ele><time>2026-04-12T11:38:41Z</time></trkpt><trkpt lat="44.66663171253101" lon="7.868802685864839"><ele>212.0</ele><time>2026-04-12T11:38:43Z</time></trkpt><trkpt lat="44.666662737886035" lon="7.868904622420373"><ele>212.0</ele><time>2026-04-12T11:38:45Z</time></trkpt><trkpt lat="44.66669149047227" lon="7.869005572345516"><ele>211.85714285714286</ele><time>2026-04-12T11:38:47Z</time></trkpt><trkpt lat="44.66671243620951" lon="7.8691024411807025"><ele>211.7142857142857</ele><time>2026-04-12T11:38:49Z</time></trkpt><trkpt lat="44.66674919004195" lon="7.869190399122998"><ele>211.57142857142856</ele><time>2026-04-12T11:38:51Z</time></trkpt><trkpt lat="44.66677457792705" lon="7.8692765491314285"><ele>211.42857142857144</ele><time>2026-04-12T11:38:53Z</time></trkpt><trkpt lat="44.66679878295699" lon="7.86935912615217"><ele>211.28571428571428</ele><time>2026-04-12T11:38:55Z</time></trkpt><trkpt lat="44.666817298699115" lon="7.869454805137284"><ele>211.14285714285714</ele><time>2026-04-12T11:38:57Z</time></trkpt><trkpt lat="44.66683481482227" lon="7.869547210777707"><ele>211.0</ele><time>2026-04-12T11:38:59Z</time></trkpt><trkpt lat="44.666873603913125" lon="7.86964659150113"><ele>210.99999999999997</ele><time>2026-04-12T11:39:02Z</time></trkpt><trkpt lat="44.666875971580794" lon="7.869739076307052"><ele>211.0</ele><time>2026-04-12T11:39:04Z</time></trkpt><trkpt lat="44.66689179520726" lon="7.869865540770073"><ele>211.0</ele><time>2026-04-12T11:39:07Z</time></trkpt><trkpt lat="44.66690405969978" lon="7.869967396032326"><ele>211.0</ele><time>2026-04-12T11:39:09Z</time></trkpt><trkpt lat="44.666915393393495" lon="7.870068251602877"><ele>210.99999999999997</ele><time>2026-04-12T11:39:11Z</time></trkpt><trkpt lat="44.66693005902745" lon="7.870183207835008"><ele>211.0</ele><time>2026-04-12T11:39:13Z</time></trkpt><trkpt lat="44.666952453278604" lon="7.870287619032274"><ele>211.0</ele><time>2026-04-12T11:39:15Z</time></trkpt><trkpt lat="44.66697356503257" lon="7.870380255423615"><ele>211.0</ele><time>2026-04-12T11:39:17Z</time></trkpt><trkpt lat="44.667001967470334" lon="7.870478768599832"><ele>211.0</ele><time>2026-04-12T11:39:19Z</time></trkpt><trkpt lat="44.667024908647825" lon="7.870565393277479"><ele>211.0</ele><time>2026-04-12T11:39:21Z</time></trkpt><trkpt lat="44.66704826332482" lon="7.870659920661595"><ele>211.0</ele><time>2026-04-12T11:39:24Z</time></trkpt><trkpt lat="44.667066293718435" lon="7.870751859296226"><ele>211.0</ele><time>2026-04-12T11:39:32Z</time></trkpt><trkpt lat="44.66709053814695" lon="7.870838612210588"><ele>211.0</ele><time>2026-04-12T11:39:34Z</time></trkpt><trkpt lat="44.667103219847746" lon="7.870947164377346"><ele>210.99999999999997</ele><time>2026-04-12T11:39:36Z</time></trkpt><trkpt lat="44.667123045618354" lon="7.8710759116883375"><ele>211.0</ele><time>2026-04-12T11:39:39Z</time></trkpt><trkpt lat="44.667146003936494" lon="7.871160200467118"><ele>211.0</ele><time>2026-04-12T11:39:41Z</time></trkpt><trkpt lat="44.66719587207305" lon="7.871236184855356"><ele>211.0</ele><time>2026-04-12T11:39:44Z</time></trkpt><trkpt lat="44.66725890242678" lon="7.871190076762259"><ele>210.99999999999997</ele><time>2026-04-12T11:39:47Z</time></trkpt><trkpt lat="44.66730488086422" lon="7.871263453490043"><ele>211.0</ele><time>2026-04-12T11:39:51Z</time></trkpt><trkpt lat="44.667359171246986" lon="7.871349910738658"><ele>210.99999999999997</ele><time>2026-04-12T11:39:54Z</time></trkpt><trkpt lat="44.66740515232345" lon="7.871458959428967"><ele>211.0</ele><time>2026-04-12T11:39:57Z</time></trkpt><trkpt lat="44.66745638978136" lon="7.871567991263564"><ele>211.0</ele><time>2026-04-12T11:40:00Z</time></trkpt><trkpt lat="44.667495571532534" lon="7.87164791085193"><ele>211.0</ele><time>2026-04-12T11:40:02Z</time></trkpt><trkpt lat="44.66752897807958" lon="7.8717375707984205"><ele>210.99999999999997</ele><time>2026-04-12T11:40:04Z</time></trkpt><trkpt lat="44.66757906802812" lon="7.871854362037269"><ele>211.0</ele><time>2026-04-12T11:40:07Z</time></trkpt><trkpt lat="44.66761757523559" lon="7.87193905327102"><ele>210.85714285714286</ele><time>2026-04-12T11:40:09Z</time></trkpt><trkpt lat="44.667659818452606" lon="7.872023936008589"><ele>210.71428571428572</ele><time>2026-04-12T11:40:11Z</time></trkpt><trkpt lat="44.66769838185833" lon="7.872104548246156"><ele>210.57142857142856</ele><time>2026-04-12T11:40:13Z</time></trkpt><trkpt lat="44.66773610925362" lon="7.872179386328235"><ele>210.42857142857144</ele><time>2026-04-12T11:40:15Z</time></trkpt><trkpt lat="44.66776979900175" lon="7.872255626998886"><ele>210.28571428571428</ele><time>2026-04-12T11:40:17Z</time></trkpt><trkpt lat="44.66780969604779" lon="7.872334454162345"><ele>210.14285714285714</ele><time>2026-04-12T11:40:19Z</time></trkpt><trkpt lat="44.667845723339056" lon="7.872420053672625"><ele>210.0</ele><time>2026-04-12T11:40:21Z</time></trkpt><trkpt lat="44.667881034469424" lon="7.872518226889042"><ele>210.0</ele><time>2026-04-12T11:40:23Z</time></trkpt><trkpt lat="44.667911933924984" lon="7.872615604882103"><ele>210.0</ele><time>2026-04-12T11:40:25Z</time></trkpt><trkpt lat="44.667941400455305" lon="7.872720321015971"><ele>210.0</ele><time>2026-04-12T11:40:27Z</time></trkpt><trkpt lat="44.667969771999566" lon="7.87281597784095"><ele>210.0</ele><time>2026-04-12T11:40:29Z</time></trkpt><trkpt lat="44.668004092248424" lon="7.872913122352044"><ele>210.0</ele><time>2026-04-12T11:40:31Z</time></trkpt><trkpt lat="44.66803530364141" lon="7.87301728393092"><ele>210.0</ele><time>2026-04-12T11:40:33Z</time></trkpt><trkpt lat="44.66806800844685" lon="7.873122525919303"><ele>210.0</ele><time>2026-04-12T11:40:35Z</time></trkpt><trkpt lat="44.668097487426714" lon="7.873217709273871"><ele>210.0</ele><time>2026-04-12T11:40:37Z</time></trkpt><trkpt lat="44.668128783719816" lon="7.873318076913424"><ele>210.0</ele><time>2026-04-12T11:40:39Z</time></trkpt><trkpt lat="44.66815831375999" lon="7.873433705008957"><ele>210.0</ele><time>2026-04-12T11:40:41Z</time></trkpt><trkpt lat="44.668187932831955" lon="7.873534288110287"><ele>210.0</ele><time>2026-04-12T11:40:43Z</time></trkpt><trkpt lat="44.66821357721413" lon="7.873643793020203"><ele>210.0</ele><time>2026-04-12T11:40:45Z</time></trkpt><trkpt lat="44.66823949312635" lon="7.873752200946176"><ele>210.0</ele><time>2026-04-12T11:40:47Z</time></trkpt><trkpt lat="44.668260990786905" lon="7.873863073390901"><ele>210.0</ele><time>2026-04-12T11:40:49Z</time></trkpt><trkpt lat="44.66829132646646" lon="7.873974467626344"><ele>210.0</ele><time>2026-04-12T11:40:51Z</time></trkpt><trkpt lat="44.66831642481573" lon="7.874087738144439"><ele>210.0</ele><time>2026-04-12T11:40:53Z</time></trkpt><trkpt lat="44.66833985241664" lon="7.874186519940498"><ele>210.0</ele><time>2026-04-12T11:40:55Z</time></trkpt><trkpt lat="44.66837165130751" lon="7.874283553806279"><ele>210.0</ele><time>2026-04-12T11:40:57Z</time></trkpt><trkpt lat="44.66840387635627" lon="7.874388998238915"><ele>210.16666666666666</ele><time>2026-04-12T11:40:59Z</time></trkpt><trkpt lat="44.668432990529105" lon="7.874483367306703"><ele>210.33333333333331</ele><time>2026-04-12T11:41:01Z</time></trkpt><trkpt lat="44.668464856191015" lon="7.874581214215828"><ele>210.5</ele><time>2026-04-12T11:41:03Z</time></trkpt><trkpt lat="44.66848765055966" lon="7.8746787722245575"><ele>210.66666666666666</ele><time>2026-04-12T11:41:05Z</time></trkpt><trkpt lat="44.668518966914164" lon="7.874777643930285"><ele>210.83333333333331</ele><time>2026-04-12T11:41:07Z</time></trkpt><trkpt lat="44.66855249218836" lon="7.874881744787541"><ele>211.0</ele><time>2026-04-12T11:41:09Z</time></trkpt><trkpt lat="44.66859057361539" lon="7.874982046849631"><ele>211.0</ele><time>2026-04-12T11:41:11Z</time></trkpt><trkpt lat="44.66862216955616" lon="7.875075877706081"><ele>211.0</ele><time>2026-04-12T11:41:13Z</time></trkpt><trkpt lat="44.66865355526084" lon="7.87516626540652"><ele>211.0</ele><time>2026-04-12T11:41:15Z</time></trkpt><trkpt lat="44.66868817233587" lon="7.875240412119869"><ele>211.0</ele><time>2026-04-12T11:41:17Z</time></trkpt><trkpt lat="44.6687207644432" lon="7.8753349632557414"><ele>211.0</ele><time>2026-04-12T11:41:19Z</time></trkpt><trkpt lat="44.668746651794656" lon="7.87544121204895"><ele>211.0</ele><time>2026-04-12T11:41:21Z</time></trkpt><trkpt lat="44.668772997999376" lon="7.875542221067073"><ele>211.0</ele><time>2026-04-12T11:41:23Z</time></trkpt><trkpt lat="44.66880542825526" lon="7.875642778515557"><ele>210.99999999999997</ele><time>2026-04-12T11:41:25Z</time></trkpt><trkpt lat="44.668839394131155" lon="7.875740358831892"><ele>211.0</ele><time>2026-04-12T11:41:27Z</time></trkpt><trkpt lat="44.668870897896426" lon="7.875835848616084"><ele>211.0</ele><time>2026-04-12T11:41:29Z</time></trkpt><trkpt lat="44.668900751095876" lon="7.875931192131499"><ele>211.0</ele><time>2026-04-12T11:41:31Z</time></trkpt><trkpt lat="44.66893299963472" lon="7.876032159163017"><ele>210.99999999999997</ele><time>2026-04-12T11:41:33Z</time></trkpt><trkpt lat="44.66896792638275" lon="7.876150553488112"><ele>211.0</ele><time>2026-04-12T11:41:36Z</time></trkpt><trkpt lat="44.66900025599552" lon="7.876234996872185"><ele>211.0</ele><time>2026-04-12T11:41:38Z</time></trkpt><trkpt lat="44.66903361797098" lon="7.8763224036871735"><ele>211.0</ele><time>2026-04-12T11:41:40Z</time></trkpt><trkpt lat="44.66907094221049" lon="7.876411506239901"><ele>211.0</ele><time>2026-04-12T11:41:42Z</time></trkpt><trkpt lat="44.669096385933415" lon="7.876495339920508"><ele>211.0</ele><time>2026-04-12T11:41:44Z</time></trkpt><trkpt lat="44.669133103113545" lon="7.876568942959616"><ele>211.0</ele><time>2026-04-12T11:41:46Z</time></trkpt><trkpt lat="44.66915125979878" lon="7.87665636636114"><ele>211.0</ele><time>2026-04-12T11:41:48Z</time></trkpt><trkpt lat="44.66917953076358" lon="7.876743144936706"><ele>211.0</ele><time>2026-04-12T11:41:50Z</time></trkpt><trkpt lat="44.669199137773134" lon="7.8768385680916975"><ele>211.0</ele><time>2026-04-12T11:41:52Z</time></trkpt><trkpt lat="44.66921733985604" lon="7.876929669399498"><ele>211.0</ele><time>2026-04-12T11:41:54Z</time></trkpt><trkpt lat="44.66924386306171" lon="7.8770347868520805"><ele>211.0</ele><time>2026-04-12T11:41:56Z</time></trkpt><trkpt lat="44.66925515644858" lon="7.8771287015749225"><ele>211.0</ele><time>2026-04-12T11:41:58Z</time></trkpt><trkpt lat="44.6692695755053" lon="7.8772281351561375"><ele>211.0</ele><time>2026-04-12T11:42:00Z</time></trkpt><trkpt lat="44.66930277404537" lon="7.87732304291416"><ele>211.0</ele><time>2026-04-12T11:42:02Z</time></trkpt><trkpt lat="44.66933360558715" lon="7.877403051950202"><ele>211.0</ele><time>2026-04-12T11:42:04Z</time></trkpt><trkpt lat="44.669350491188666" lon="7.87749218217691"><ele>211.0</ele><time>2026-04-12T11:42:06Z</time></trkpt><trkpt lat="44.6693772935837" lon="7.8775792761743615"><ele>211.0</ele><time>2026-04-12T11:42:08Z</time></trkpt><trkpt lat="44.669405428819225" lon="7.877659875142779"><ele>211.0</ele><time>2026-04-12T11:42:10Z</time></trkpt><trkpt lat="44.6694386393636" lon="7.877751602182037"><ele>211.0</ele><time>2026-04-12T11:42:12Z</time></trkpt><trkpt lat="44.669470544920706" lon="7.877832999828832"><ele>211.0</ele><time>2026-04-12T11:42:14Z</time></trkpt><trkpt lat="44.66949779040238" lon="7.877913663143446"><ele>211.0</ele><time>2026-04-12T11:42:16Z</time></trkpt><trkpt lat="44.669539483360104" lon="7.877996012095195"><ele>211.0</ele><time>2026-04-12T11:42:18Z</time></trkpt><trkpt lat="44.66957664845842" lon="7.878081452363337"><ele>210.83333333333331</ele><time>2026-04-12T11:42:20Z</time></trkpt><trkpt lat="44.66961827837837" lon="7.878160944700194"><ele>210.66666666666666</ele><time>2026-04-12T11:42:22Z</time></trkpt><trkpt lat="44.66965603860742" lon="7.878236095483696"><ele>210.5</ele><time>2026-04-12T11:42:24Z</time></trkpt><trkpt lat="44.669717505043714" lon="7.878332103022257"><ele>210.33333333333331</ele><time>2026-04-12T11:42:27Z</time></trkpt><trkpt lat="44.669763196877035" lon="7.878399970523818"><ele>210.16666666666666</ele><time>2026-04-12T11:42:29Z</time></trkpt><trkpt lat="44.66983480657369" lon="7.878485748222486"><ele>210.0</ele><time>2026-04-12T11:42:32Z</time></trkpt><trkpt lat="44.669914123673074" lon="7.878527316448724"><ele>210.0</ele><time>2026-04-12T11:42:35Z</time></trkpt><trkpt lat="44.66999352720638" lon="7.878524762961891"><ele>210.0</ele><time>2026-04-12T11:42:38Z</time></trkpt><trkpt lat="44.67006439836347" lon="7.878560162618054"><ele>210.0</ele><time>2026-04-12T11:42:42Z</time></trkpt><trkpt lat="44.67011372846014" lon="7.87862191423702"><ele>210.0</ele><time>2026-04-12T11:42:45Z</time></trkpt><trkpt lat="44.670202175171035" lon="7.878578465818229"><ele>210.0</ele><time>2026-04-12T11:42:48Z</time></trkpt><trkpt lat="44.670264105326204" lon="7.878532530039886"><ele>210.0</ele><time>2026-04-12T11:42:50Z</time></trkpt><trkpt lat="44.67032861978844" lon="7.878493734325644"><ele>209.33333333333334</ele><time>2026-04-12T11:42:52Z</time></trkpt><trkpt lat="44.67039877047382" lon="7.87845283572345"><ele>208.66666666666669</ele><time>2026-04-12T11:42:54Z</time></trkpt><trkpt lat="44.670459290193136" lon="7.878410586519785"><ele>208.0</ele><time>2026-04-12T11:42:56Z</time></trkpt><trkpt lat="44.670522992195195" lon="7.878369242742908"><ele>207.33333333333334</ele><time>2026-04-12T11:42:58Z</time></trkpt><trkpt lat="44.67060837553909" lon="7.878318559879093"><ele>206.66666666666669</ele><time>2026-04-12T11:43:01Z</time></trkpt><trkpt lat="44.67067664803824" lon="7.87827753921352"><ele>206.0</ele><time>2026-04-12T11:43:03Z</time></trkpt><trkpt lat="44.67074219293206" lon="7.878238246254961"><ele>206.00000000000003</ele><time>2026-04-12T11:43:05Z</time></trkpt><trkpt lat="44.67081195191159" lon="7.878188556726793"><ele>206.0</ele><time>2026-04-12T11:43:07Z</time></trkpt><trkpt lat="44.67086918144355" lon="7.878151408176684"><ele>206.0</ele><time>2026-04-12T11:43:09Z</time></trkpt><trkpt lat="44.670939664133996" lon="7.878094199518009"><ele>206.0</ele><time>2026-04-12T11:43:12Z</time></trkpt><trkpt lat="44.67100240707921" lon="7.878048157482949"><ele>206.00000000000003</ele><time>2026-04-12T11:43:14Z</time></trkpt><trkpt lat="44.671070689476664" lon="7.878007222752815"><ele>206.0</ele><time>2026-04-12T11:43:16Z</time></trkpt><trkpt lat="44.67115825789623" lon="7.877957130308071"><ele>206.16666666666669</ele><time>2026-04-12T11:43:19Z</time></trkpt><trkpt lat="44.671243896136836" lon="7.877899273775823"><ele>206.33333333333334</ele><time>2026-04-12T11:43:22Z</time></trkpt><trkpt lat="44.67130714839584" lon="7.877857074966478"><ele>206.5</ele><time>2026-04-12T11:43:24Z</time></trkpt><trkpt lat="44.6713778392204" lon="7.877816283172058"><ele>206.66666666666669</ele><time>2026-04-12T11:43:26Z</time></trkpt><trkpt lat="44.67144333649913" lon="7.877771669514955"><ele>206.83333333333334</ele><time>2026-04-12T11:43:28Z</time></trkpt><trkpt lat="44.671510417719546" lon="7.877721391391606"><ele>207.0</ele><time>2026-04-12T11:43:30Z</time></trkpt><trkpt lat="44.671573768184096" lon="7.877683850301524"><ele>207.0</ele><time>2026-04-12T11:43:32Z</time></trkpt><trkpt lat="44.671636289959544" lon="7.8776467769590095"><ele>207.0</ele><time>2026-04-12T11:43:34Z</time></trkpt><trkpt lat="44.67170125953895" lon="7.877602101401698"><ele>207.0</ele><time>2026-04-12T11:43:36Z</time></trkpt><trkpt lat="44.671785100122925" lon="7.877541719046412"><ele>207.0</ele><time>2026-04-12T11:43:39Z</time></trkpt><trkpt lat="44.671846533261984" lon="7.877507015505245"><ele>207.0</ele><time>2026-04-12T11:43:41Z</time></trkpt><trkpt lat="44.67190498983411" lon="7.877467018485101"><ele>207.0</ele><time>2026-04-12T11:43:43Z</time></trkpt><trkpt lat="44.671998612549515" lon="7.877418977187482"><ele>207.00000000000003</ele><time>2026-04-12T11:43:46Z</time></trkpt><trkpt lat="44.67205989808678" lon="7.877377731584991"><ele>207.0</ele><time>2026-04-12T11:43:48Z</time></trkpt><trkpt lat="44.67214362757564" lon="7.877321670694627"><ele>207.0</ele><time>2026-04-12T11:43:51Z</time></trkpt><trkpt lat="44.67220542139732" lon="7.877289456249248"><ele>207.0</ele><time>2026-04-12T11:43:53Z</time></trkpt><trkpt lat="44.672263188467774" lon="7.877247483523131"><ele>207.0</ele><time>2026-04-12T11:43:55Z</time></trkpt><trkpt lat="44.67232480877311" lon="7.87721106305062"><ele>207.00000000000003</ele><time>2026-04-12T11:43:57Z</time></trkpt><trkpt lat="44.67238914175713" lon="7.877177216967542"><ele>207.0</ele><time>2026-04-12T11:43:59Z</time></trkpt><trkpt lat="44.67244479347636" lon="7.877131539987737"><ele>207.00000000000003</ele><time>2026-04-12T11:44:01Z</time></trkpt><trkpt lat="44.67250827145666" lon="7.877094755268885"><ele>207.0</ele><time>2026-04-12T11:44:03Z</time></trkpt><trkpt lat="44.67257505801703" lon="7.877056928308331"><ele>207.0</ele><time>2026-04-12T11:44:05Z</time></trkpt><trkpt lat="44.67263800280461" lon="7.877012922702523"><ele>207.0</ele><time>2026-04-12T11:44:07Z</time></trkpt><trkpt lat="44.672699772316946" lon="7.876980719294755"><ele>207.0</ele><time>2026-04-12T11:44:09Z</time></trkpt><trkpt lat="44.672760493482166" lon="7.876939011537182"><ele>207.00000000000003</ele><time>2026-04-12T11:44:11Z</time></trkpt><trkpt lat="44.67282292669451" lon="7.876899870099875"><ele>207.0</ele><time>2026-04-12T11:44:13Z</time></trkpt><trkpt lat="44.6728857949567" lon="7.87686070109955"><ele>207.16666666666666</ele><time>2026-04-12T11:44:15Z</time></trkpt><trkpt lat="44.672945202631226" lon="7.876823438595146"><ele>207.33333333333331</ele><time>2026-04-12T11:44:17Z</time></trkpt><trkpt lat="44.67300402749399" lon="7.876787135492525"><ele>207.5</ele><time>2026-04-12T11:44:19Z</time></trkpt><trkpt lat="44.673090219536476" lon="7.876724989347723"><ele>207.66666666666666</ele><time>2026-04-12T11:44:22Z</time></trkpt><trkpt lat="44.67317960860703" lon="7.876674434686135"><ele>207.83333333333331</ele><time>2026-04-12T11:44:25Z</time></trkpt><trkpt lat="44.67323947786041" lon="7.876635869348645"><ele>208.0</ele><time>2026-04-12T11:44:27Z</time></trkpt><trkpt lat="44.67329813598048" lon="7.87659972677602"><ele>208.0</ele><time>2026-04-12T11:44:29Z</time></trkpt><trkpt lat="44.67335778135092" lon="7.876561818519469"><ele>208.0</ele><time>2026-04-12T11:44:31Z</time></trkpt><trkpt lat="44.673421521939574" lon="7.876525399895737"><ele>208.0</ele><time>2026-04-12T11:44:33Z</time></trkpt><trkpt lat="44.67349857174358" lon="7.8764755732740825"><ele>208.0</ele><time>2026-04-12T11:44:36Z</time></trkpt><trkpt lat="44.673558115166465" lon="7.876442573048607"><ele>208.0</ele><time>2026-04-12T11:44:38Z</time></trkpt><trkpt lat="44.673622283228255" lon="7.876404623714069"><ele>208.0</ele><time>2026-04-12T11:44:40Z</time></trkpt><trkpt lat="44.67368576330527" lon="7.876365226882085"><ele>208.0</ele><time>2026-04-12T11:44:42Z</time></trkpt><trkpt lat="44.67374644955123" lon="7.876322628713031"><ele>208.14285714285714</ele><time>2026-04-12T11:44:44Z</time></trkpt><trkpt lat="44.67380784131549" lon="7.876287437637162"><ele>208.2857142857143</ele><time>2026-04-12T11:44:46Z</time></trkpt><trkpt lat="44.67386720424424" lon="7.876252021625561"><ele>208.42857142857144</ele><time>2026-04-12T11:44:48Z</time></trkpt><trkpt lat="44.673928716197004" lon="7.876214645206138"><ele>208.57142857142856</ele><time>2026-04-12T11:44:50Z</time></trkpt><trkpt lat="44.67399120432101" lon="7.876172185902128"><ele>208.71428571428572</ele><time>2026-04-12T11:44:52Z</time></trkpt><trkpt lat="44.674053504012065" lon="7.876142639263274"><ele>208.85714285714286</ele><time>2026-04-12T11:44:54Z</time></trkpt><trkpt lat="44.6741179026762" lon="7.876100256809045"><ele>209.0</ele><time>2026-04-12T11:44:56Z</time></trkpt><trkpt lat="44.67417547492877" lon="7.876055874429694"><ele>209.0</ele><time>2026-04-12T11:44:58Z</time></trkpt><trkpt lat="44.67424286706282" lon="7.876016285699633"><ele>209.0</ele><time>2026-04-12T11:45:00Z</time></trkpt><trkpt lat="44.67431156581621" lon="7.87597624766416"><ele>209.0</ele><time>2026-04-12T11:45:02Z</time></trkpt><trkpt lat="44.67437733580569" lon="7.875933396242633"><ele>209.0</ele><time>2026-04-12T11:45:04Z</time></trkpt><trkpt lat="44.67444515010713" lon="7.875890782246968"><ele>209.0</ele><time>2026-04-12T11:45:06Z</time></trkpt><trkpt lat="44.67451523725063" lon="7.875851323381779"><ele>209.0</ele><time>2026-04-12T11:45:08Z</time></trkpt><trkpt lat="44.67458341168825" lon="7.87580262676852"><ele>209.0</ele><time>2026-04-12T11:45:10Z</time></trkpt><trkpt lat="44.67465371516782" lon="7.875763319711149"><ele>208.57142857142856</ele><time>2026-04-12T11:45:12Z</time></trkpt><trkpt lat="44.674719816396006" lon="7.875719024763286"><ele>208.14285714285714</ele><time>2026-04-12T11:45:14Z</time></trkpt><trkpt lat="44.674780952323935" lon="7.8756791035725735"><ele>207.71428571428572</ele><time>2026-04-12T11:45:16Z</time></trkpt><trkpt lat="44.67484805320649" lon="7.875644786397948"><ele>207.28571428571428</ele><time>2026-04-12T11:45:18Z</time></trkpt><trkpt lat="44.67490855602334" lon="7.875601313062788"><ele>206.85714285714286</ele><time>2026-04-12T11:45:20Z</time></trkpt><trkpt lat="44.67496594259606" lon="7.8755618855216625"><ele>206.42857142857142</ele><time>2026-04-12T11:45:22Z</time></trkpt><trkpt lat="44.67502979741564" lon="7.875525628969652"><ele>206.0</ele><time>2026-04-12T11:45:24Z</time></trkpt><trkpt lat="44.67509731425645" lon="7.875486105615452"><ele>205.99999999999997</ele><time>2026-04-12T11:45:26Z</time></trkpt><trkpt lat="44.67518764213892" lon="7.875427306140535"><ele>206.0</ele><time>2026-04-12T11:45:29Z</time></trkpt><trkpt lat="44.67525110454167" lon="7.875392857034263"><ele>206.0</ele><time>2026-04-12T11:45:31Z</time></trkpt><trkpt lat="44.67531509907994" lon="7.875359011139482"><ele>206.0</ele><time>2026-04-12T11:45:33Z</time></trkpt><trkpt lat="44.675371962464986" lon="7.875317618525826"><ele>206.0</ele><time>2026-04-12T11:45:35Z</time></trkpt><trkpt lat="44.675440443682646" lon="7.875274797295497"><ele>205.99999999999997</ele><time>2026-04-12T11:45:37Z</time></trkpt><trkpt lat="44.67550058368224" lon="7.8752377950532475"><ele>206.0</ele><time>2026-04-12T11:45:39Z</time></trkpt><trkpt lat="44.67558704253097" lon="7.875183253023035"><ele>206.28571428571428</ele><time>2026-04-12T11:45:42Z</time></trkpt><trkpt lat="44.67565053652816" lon="7.875138422649183"><ele>206.57142857142856</ele><time>2026-04-12T11:45:44Z</time></trkpt><trkpt lat="44.67571614651528" lon="7.875095233661355"><ele>206.85714285714283</ele><time>2026-04-12T11:45:46Z</time></trkpt><trkpt lat="44.675782274202525" lon="7.875049353166253"><ele>207.14285714285714</ele><time>2026-04-12T11:45:48Z</time></trkpt><trkpt lat="44.67585157381959" lon="7.875004558281739"><ele>207.42857142857144</ele><time>2026-04-12T11:45:50Z</time></trkpt><trkpt lat="44.6759173010414" lon="7.87494776880085"><ele>207.7142857142857</ele><time>2026-04-12T11:45:52Z</time></trkpt><trkpt lat="44.67598616604322" lon="7.874919165636735"><ele>208.0</ele><time>2026-04-12T11:45:54Z</time></trkpt><trkpt lat="44.676051647118335" lon="7.874876596192899"><ele>208.16666666666666</ele><time>2026-04-12T11:45:56Z</time></trkpt><trkpt lat="44.67612105319295" lon="7.874831427127114"><ele>208.33333333333331</ele><time>2026-04-12T11:45:58Z</time></trkpt><trkpt lat="44.676190029414656" lon="7.874781907457301"><ele>208.5</ele><time>2026-04-12T11:46:00Z</time></trkpt><trkpt lat="44.676250082668524" lon="7.87474811288439"><ele>208.66666666666669</ele><time>2026-04-12T11:46:02Z</time></trkpt><trkpt lat="44.676317463458055" lon="7.874701303802875"><ele>208.83333333333334</ele><time>2026-04-12T11:46:04Z</time></trkpt><trkpt lat="44.67641259021481" lon="7.874647863598267"><ele>209.0</ele><time>2026-04-12T11:46:07Z</time></trkpt><trkpt lat="44.67647909480389" lon="7.874621751112211"><ele>209.0</ele><time>2026-04-12T11:46:09Z</time></trkpt><trkpt lat="44.676540610309786" lon="7.8745757361560855"><ele>209.0</ele><time>2026-04-12T11:46:11Z</time></trkpt><trkpt lat="44.676607063824676" lon="7.874536000568477"><ele>209.0</ele><time>2026-04-12T11:46:13Z</time></trkpt><trkpt lat="44.67667089187229" lon="7.874494182730375"><ele>209.0</ele><time>2026-04-12T11:46:15Z</time></trkpt><trkpt lat="44.67673260407592" lon="7.874457370176486"><ele>209.0</ele><time>2026-04-12T11:46:17Z</time></trkpt><trkpt lat="44.67679539796965" lon="7.874417081258102"><ele>209.0</ele><time>2026-04-12T11:46:19Z</time></trkpt><trkpt lat="44.676866523578134" lon="7.874375804751722"><ele>209.0</ele><time>2026-04-12T11:46:21Z</time></trkpt><trkpt lat="44.676924759418924" lon="7.874333327220802"><ele>209.16666666666669</ele><time>2026-04-12T11:46:23Z</time></trkpt><trkpt lat="44.67699687862364" lon="7.874299773923006"><ele>209.33333333333334</ele><time>2026-04-12T11:46:25Z</time></trkpt><trkpt lat="44.677056342334296" lon="7.874255689923416"><ele>209.5</ele><time>2026-04-12T11:46:27Z</time></trkpt><trkpt lat="44.67714517942672" lon="7.874204486198055"><ele>209.66666666666669</ele><time>2026-04-12T11:46:30Z</time></trkpt><trkpt lat="44.67722036790874" lon="7.874178215434406"><ele>209.83333333333334</ele><time>2026-04-12T11:46:33Z</time></trkpt><trkpt lat="44.67728660385445" lon="7.874135873456062"><ele>210.0</ele><time>2026-04-12T11:46:39Z</time></trkpt><trkpt lat="44.67728890772809" lon="7.874010528769893"><ele>210.0</ele><time>2026-04-12T11:46:42Z</time></trkpt><trkpt lat="44.6772777407216" lon="7.873916581974784"><ele>210.0</ele><time>2026-04-12T11:46:44Z</time></trkpt><trkpt lat="44.67725580883515" lon="7.873813737916113"><ele>210.0</ele><time>2026-04-12T11:46:46Z</time></trkpt><trkpt lat="44.6772273462604" lon="7.8737108708143415"><ele>210.0</ele><time>2026-04-12T11:46:48Z</time></trkpt><trkpt lat="44.67720277728956" lon="7.873602986647687"><ele>210.0</ele><time>2026-04-12T11:46:50Z</time></trkpt><trkpt lat="44.677177719084995" lon="7.873493528661711"><ele>210.0</ele><time>2026-04-12T11:46:52Z</time></trkpt><trkpt lat="44.67715048183099" lon="7.873382651721881"><ele>210.0</ele><time>2026-04-12T11:46:54Z</time></trkpt><trkpt lat="44.677121102665474" lon="7.87327011499075"><ele>210.0</ele><time>2026-04-12T11:46:56Z</time></trkpt><trkpt lat="44.677090723677665" lon="7.873154119191594"><ele>210.0</ele><time>2026-04-12T11:46:58Z</time></trkpt><trkpt lat="44.67706320367119" lon="7.8730277073505865"><ele>210.0</ele><time>2026-04-12T11:47:00Z</time></trkpt><trkpt lat="44.67702913751552" lon="7.872897536404097"><ele>210.0</ele><time>2026-04-12T11:47:02Z</time></trkpt><trkpt lat="44.67700106545654" lon="7.87276603680155"><ele>210.0</ele><time>2026-04-12T11:47:04Z</time></trkpt><trkpt lat="44.676970099803306" lon="7.872635442585594"><ele>210.0</ele><time>2026-04-12T11:47:06Z</time></trkpt><trkpt lat="44.67693845263701" lon="7.872507532676093"><ele>210.0</ele><time>2026-04-12T11:47:08Z</time></trkpt><trkpt lat="44.67689861448214" lon="7.872376592692145"><ele>210.0</ele><time>2026-04-12T11:47:10Z</time></trkpt><trkpt lat="44.67687098746994" lon="7.8722588178477695"><ele>210.0</ele><time>2026-04-12T11:47:12Z</time></trkpt><trkpt lat="44.67696821127556" lon="7.872194464372986"><ele>210.2</ele><time>2026-04-12T11:47:15Z</time></trkpt><trkpt lat="44.67703060534549" lon="7.8721785408007845"><ele>210.4</ele><time>2026-04-12T11:47:16Z</time></trkpt><trkpt lat="44.677122447444155" lon="7.872115613980417"><ele>210.60000000000002</ele><time>2026-04-12T11:47:18Z</time></trkpt><trkpt lat="44.67721269567265" lon="7.872039135515099"><ele>210.8</ele><time>2026-04-12T11:47:20Z</time></trkpt><trkpt lat="44.67730568140127" lon="7.871966954991132"><ele>211.0</ele><time>2026-04-12T11:47:22Z</time></trkpt><trkpt lat="44.67739525439676" lon="7.8718934233395075"><ele>211.0</ele><time>2026-04-12T11:47:24Z</time></trkpt><trkpt lat="44.677483140845425" lon="7.87183933562271"><ele>211.0</ele><time>2026-04-12T11:47:26Z</time></trkpt><trkpt lat="44.677566526185174" lon="7.871773479702466"><ele>211.0</ele><time>2026-04-12T11:47:28Z</time></trkpt><trkpt lat="44.67764613477505" lon="7.871710475175685"><ele>211.0</ele><time>2026-04-12T11:47:30Z</time></trkpt><trkpt lat="44.677728308696416" lon="7.871667130686891"><ele>211.0</ele><time>2026-04-12T11:47:32Z</time></trkpt><trkpt lat="44.677806444621886" lon="7.871621540799304"><ele>211.16666666666666</ele><time>2026-04-12T11:47:34Z</time></trkpt><trkpt lat="44.67789105058012" lon="7.8715658269479585"><ele>211.33333333333331</ele><time>2026-04-12T11:47:36Z</time></trkpt><trkpt lat="44.677979791568944" lon="7.871525081384295"><ele>211.5</ele><time>2026-04-12T11:47:38Z</time></trkpt><trkpt lat="44.678051974821926" lon="7.871468865878191"><ele>211.66666666666669</ele><time>2026-04-12T11:47:40Z</time></trkpt><trkpt lat="44.67813216058392" lon="7.871408525592084"><ele>211.83333333333334</ele><time>2026-04-12T11:47:42Z</time></trkpt><trkpt lat="44.67820060019378" lon="7.871352918995344"><ele>212.0</ele><time>2026-04-12T11:47:44Z</time></trkpt><trkpt lat="44.67827602006276" lon="7.871316725659066"><ele>212.00000000000003</ele><time>2026-04-12T11:47:46Z</time></trkpt><trkpt lat="44.67834457246266" lon="7.871247871419966"><ele>212.0</ele><time>2026-04-12T11:47:48Z</time></trkpt><trkpt lat="44.678418443897016" lon="7.87119412535794"><ele>212.0</ele><time>2026-04-12T11:47:50Z</time></trkpt><trkpt lat="44.678493303564544" lon="7.871145693161151"><ele>212.0</ele><time>2026-04-12T11:47:52Z</time></trkpt><trkpt lat="44.67856776607606" lon="7.871091658216644"><ele>212.00000000000003</ele><time>2026-04-12T11:47:54Z</time></trkpt><trkpt lat="44.67864177503051" lon="7.871049314731471"><ele>212.0</ele><time>2026-04-12T11:47:56Z</time></trkpt><trkpt lat="44.67872085320669" lon="7.8710112571121105"><ele>211.66666666666669</ele><time>2026-04-12T11:47:58Z</time></trkpt><trkpt lat="44.678797210822786" lon="7.870973306158315"><ele>211.33333333333334</ele><time>2026-04-12T11:48:00Z</time></trkpt><trkpt lat="44.678868707609105" lon="7.870912566276047"><ele>211.0</ele><time>2026-04-12T11:48:02Z</time></trkpt><trkpt lat="44.678945603678486" lon="7.870862007288213"><ele>210.66666666666669</ele><time>2026-04-12T11:48:04Z</time></trkpt><trkpt lat="44.679027199368186" lon="7.870818114803665"><ele>210.33333333333334</ele><time>2026-04-12T11:48:06Z</time></trkpt><trkpt lat="44.67910571596899" lon="7.87076771419132"><ele>210.0</ele><time>2026-04-12T11:48:08Z</time></trkpt><trkpt lat="44.67918391571056" lon="7.870717359222656"><ele>210.0</ele><time>2026-04-12T11:48:10Z</time></trkpt><trkpt lat="44.679259329266785" lon="7.870670188206736"><ele>210.0</ele><time>2026-04-12T11:48:12Z</time></trkpt><trkpt lat="44.67933507437163" lon="7.870620422536009"><ele>210.0</ele><time>2026-04-12T11:48:14Z</time></trkpt><trkpt lat="44.679412627415424" lon="7.870590577976201"><ele>210.0</ele><time>2026-04-12T11:48:16Z</time></trkpt><trkpt lat="44.679485771294175" lon="7.870549995734033"><ele>210.0</ele><time>2026-04-12T11:48:18Z</time></trkpt><trkpt lat="44.67959979025162" lon="7.870486895706761"><ele>210.0</ele><time>2026-04-12T11:48:21Z</time></trkpt><trkpt lat="44.679677793867796" lon="7.870447017665681"><ele>210.16666666666666</ele><time>2026-04-12T11:48:23Z</time></trkpt><trkpt lat="44.6797594846131" lon="7.870409660878728"><ele>210.33333333333331</ele><time>2026-04-12T11:48:25Z</time></trkpt><trkpt lat="44.679841933170295" lon="7.870369572300836"><ele>210.5</ele><time>2026-04-12T11:48:27Z</time></trkpt><trkpt lat="44.6799234068732" lon="7.870339615419862"><ele>210.66666666666666</ele><time>2026-04-12T11:48:29Z</time></trkpt><trkpt lat="44.6800003444541" lon="7.870299892105685"><ele>210.83333333333331</ele><time>2026-04-12T11:48:31Z</time></trkpt><trkpt lat="44.68007530763543" lon="7.870246726292355"><ele>211.0</ele><time>2026-04-12T11:48:33Z</time></trkpt><trkpt lat="44.680148286394754" lon="7.870193967811999"><ele>210.99999999999997</ele><time>2026-04-12T11:48:35Z</time></trkpt><trkpt lat="44.6802211907572" lon="7.870144340994081"><ele>211.0</ele><time>2026-04-12T11:48:37Z</time></trkpt><trkpt lat="44.6802909165188" lon="7.870092313447663"><ele>211.0</ele><time>2026-04-12T11:48:39Z</time></trkpt><trkpt lat="44.68036372233837" lon="7.870045665461475"><ele>211.0</ele><time>2026-04-12T11:48:41Z</time></trkpt><trkpt lat="44.68043880079567" lon="7.869994219448705"><ele>210.99999999999997</ele><time>2026-04-12T11:48:43Z</time></trkpt><trkpt lat="44.68051507490917" lon="7.869939814217128"><ele>211.0</ele><time>2026-04-12T11:48:45Z</time></trkpt><trkpt lat="44.68058805739736" lon="7.869873311035843"><ele>211.33333333333331</ele><time>2026-04-12T11:48:47Z</time></trkpt><trkpt lat="44.68066584897233" lon="7.869821162669364"><ele>211.66666666666666</ele><time>2026-04-12T11:48:49Z</time></trkpt><trkpt lat="44.680743384559165" lon="7.869760824283795"><ele>212.0</ele><time>2026-04-12T11:48:51Z</time></trkpt><trkpt lat="44.68081820789349" lon="7.8696998094191075"><ele>212.33333333333331</ele><time>2026-04-12T11:48:53Z</time></trkpt><trkpt lat="44.68089335364602" lon="7.869631588129733"><ele>212.66666666666666</ele><time>2026-04-12T11:48:55Z</time></trkpt><trkpt lat="44.680967291518854" lon="7.869574979110898"><ele>213.0</ele><time>2026-04-12T11:48:57Z</time></trkpt><trkpt lat="44.68104456824896" lon="7.869511876943734"><ele>212.8</ele><time>2026-04-12T11:48:59Z</time></trkpt><trkpt lat="44.68110567917194" lon="7.869430170437639"><ele>212.60000000000002</ele><time>2026-04-12T11:49:01Z</time></trkpt><trkpt lat="44.68111993959837" lon="7.869285063566617"><ele>212.39999999999998</ele><time>2026-04-12T11:49:03Z</time></trkpt><trkpt lat="44.68117396032624" lon="7.869180057745213"><ele>212.2</ele><time>2026-04-12T11:49:05Z</time></trkpt><trkpt lat="44.68121293506279" lon="7.869064417383248"><ele>212.0</ele><time>2026-04-12T11:49:07Z</time></trkpt><trkpt lat="44.6812539091567" lon="7.868952412463891"><ele>212.0</ele><time>2026-04-12T11:49:09Z</time></trkpt><trkpt lat="44.68129277984252" lon="7.868837998759058"><ele>212.0</ele><time>2026-04-12T11:49:11Z</time></trkpt><trkpt lat="44.6813273597917" lon="7.868719179525194"><ele>212.0</ele><time>2026-04-12T11:49:13Z</time></trkpt><trkpt lat="44.681356385099264" lon="7.868596895814559"><ele>212.0</ele><time>2026-04-12T11:49:15Z</time></trkpt><trkpt lat="44.681378826554486" lon="7.868472276833032"><ele>212.0</ele><time>2026-04-12T11:49:17Z</time></trkpt><trkpt lat="44.681402572026705" lon="7.868344823632935"><ele>212.2</ele><time>2026-04-12T11:49:19Z</time></trkpt><trkpt lat="44.681433576309125" lon="7.868224082867122"><ele>212.39999999999998</ele><time>2026-04-12T11:49:21Z</time></trkpt><trkpt lat="44.68145813355381" lon="7.868100834036382"><ele>212.60000000000002</ele><time>2026-04-12T11:49:23Z</time></trkpt><trkpt lat="44.681492263895635" lon="7.8679778048144"><ele>212.8</ele><time>2026-04-12T11:49:25Z</time></trkpt><trkpt lat="44.681512723902074" lon="7.867861004923645"><ele>213.0</ele><time>2026-04-12T11:49:27Z</time></trkpt><trkpt lat="44.681541117033824" lon="7.867738052550285"><ele>213.0</ele><time>2026-04-12T11:49:29Z</time></trkpt><trkpt lat="44.681565230698524" lon="7.867622593098835"><ele>213.0</ele><time>2026-04-12T11:49:31Z</time></trkpt><trkpt lat="44.68158493661754" lon="7.867501581222783"><ele>213.0</ele><time>2026-04-12T11:49:33Z</time></trkpt><trkpt lat="44.681607386603986" lon="7.867379719172462"><ele>213.0</ele><time>2026-04-12T11:49:35Z</time></trkpt><trkpt lat="44.68162615853548" lon="7.867256865243748"><ele>213.0</ele><time>2026-04-12T11:49:37Z</time></trkpt><trkpt lat="44.68165060946225" lon="7.867138798481379"><ele>213.0</ele><time>2026-04-12T11:49:39Z</time></trkpt><trkpt lat="44.681671918124" lon="7.867028179441908"><ele>213.0</ele><time>2026-04-12T11:49:41Z</time></trkpt><trkpt lat="44.68169048832806" lon="7.866912848253187"><ele>213.0</ele><time>2026-04-12T11:49:43Z</time></trkpt><trkpt lat="44.68171262149967" lon="7.866789453757809"><ele>213.0</ele><time>2026-04-12T11:49:45Z</time></trkpt><trkpt lat="44.681744480949746" lon="7.8666654068845485"><ele>213.0</ele><time>2026-04-12T11:49:47Z</time></trkpt><trkpt lat="44.68176988150439" lon="7.866536738696847"><ele>213.0</ele><time>2026-04-12T11:49:49Z</time></trkpt><trkpt lat="44.681805166562874" lon="7.866412306873266"><ele>213.0</ele><time>2026-04-12T11:49:51Z</time></trkpt><trkpt lat="44.68183315813072" lon="7.866281184850137"><ele>213.0</ele><time>2026-04-12T11:49:53Z</time></trkpt><trkpt lat="44.68186707121021" lon="7.8661500319771385"><ele>213.0</ele><time>2026-04-12T11:49:55Z</time></trkpt><trkpt lat="44.681892745040614" lon="7.866019979671657"><ele>213.0</ele><time>2026-04-12T11:49:57Z</time></trkpt><trkpt lat="44.68192493523457" lon="7.8658928708444735"><ele>213.0</ele><time>2026-04-12T11:49:59Z</time></trkpt><trkpt lat="44.68195415135376" lon="7.865760601646401"><ele>212.60000000000002</ele><time>2026-04-12T11:50:01Z</time></trkpt><trkpt lat="44.681983503528336" lon="7.86562829063885"><ele>212.20000000000002</ele><time>2026-04-12T11:50:03Z</time></trkpt><trkpt lat="44.682008737896716" lon="7.865497402481918"><ele>211.8</ele><time>2026-04-12T11:50:05Z</time></trkpt><trkpt lat="44.68206002815908" lon="7.865382323494967"><ele>211.4</ele><time>2026-04-12T11:50:07Z</time></trkpt><trkpt lat="44.682135912707274" lon="7.8652964841916315"><ele>211.0</ele><time>2026-04-12T11:50:09Z</time></trkpt><trkpt lat="44.68222343866972" lon="7.8652372081774775"><ele>211.0</ele><time>2026-04-12T11:50:11Z</time></trkpt><trkpt lat="44.682301151563536" lon="7.865166261978611"><ele>211.0</ele><time>2026-04-12T11:50:13Z</time></trkpt><trkpt lat="44.68238465867911" lon="7.8651126954991915"><ele>211.0</ele><time>2026-04-12T11:50:15Z</time></trkpt><trkpt lat="44.68246765712431" lon="7.865055357208456"><ele>211.0</ele><time>2026-04-12T11:50:17Z</time></trkpt><trkpt lat="44.682549506902575" lon="7.864991717325708"><ele>211.0</ele><time>2026-04-12T11:50:19Z</time></trkpt><trkpt lat="44.68263362719287" lon="7.864925047787767"><ele>211.4</ele><time>2026-04-12T11:50:21Z</time></trkpt><trkpt lat="44.6827188817385" lon="7.864861419099708"><ele>211.8</ele><time>2026-04-12T11:50:23Z</time></trkpt><trkpt lat="44.682805877506404" lon="7.86479834588016"><ele>212.20000000000002</ele><time>2026-04-12T11:50:25Z</time></trkpt><trkpt lat="44.68288972611711" lon="7.864731209533565"><ele>212.60000000000002</ele><time>2026-04-12T11:50:27Z</time></trkpt><trkpt lat="44.68293546899793" lon="7.8646068701554475"><ele>213.0</ele><time>2026-04-12T11:50:29Z</time></trkpt><trkpt lat="44.68292923925323" lon="7.8644557839562905"><ele>213.0</ele><time>2026-04-12T11:50:31Z</time></trkpt><trkpt lat="44.682915011813385" lon="7.864316206906779"><ele>213.0</ele><time>2026-04-12T11:50:33Z</time></trkpt><trkpt lat="44.682930724762016" lon="7.864175764172694"><ele>213.0</ele><time>2026-04-12T11:50:35Z</time></trkpt><trkpt lat="44.68298448552004" lon="7.864063899747328"><ele>213.0</ele><time>2026-04-12T11:50:37Z</time></trkpt><trkpt lat="44.68305579607201" lon="7.86395956000134"><ele>213.0</ele><time>2026-04-12T11:50:39Z</time></trkpt><trkpt lat="44.683131602608924" lon="7.8638625844294205"><ele>213.0</ele><time>2026-04-12T11:50:41Z</time></trkpt><trkpt lat="44.683205988925565" lon="7.863763012769938"><ele>213.0</ele><time>2026-04-12T11:50:43Z</time></trkpt><trkpt lat="44.68326929722997" lon="7.863650370489434"><ele>213.0</ele><time>2026-04-12T11:50:45Z</time></trkpt><trkpt lat="44.6833287266534" lon="7.863531779881301"><ele>213.0</ele><time>2026-04-12T11:50:47Z</time></trkpt><trkpt lat="44.683403478073046" lon="7.863429891316042"><ele>213.0</ele><time>2026-04-12T11:50:49Z</time></trkpt><trkpt lat="44.6834752045391" lon="7.863319807066922"><ele>213.2</ele><time>2026-04-12T11:50:51Z</time></trkpt><trkpt lat="44.683547340226106" lon="7.8632106529553605"><ele>213.4</ele><time>2026-04-12T11:50:53Z</time></trkpt><trkpt lat="44.683613881352656" lon="7.863102633469949"><ele>213.59999999999997</ele><time>2026-04-12T11:50:55Z</time></trkpt><trkpt lat="44.68368102455856" lon="7.863005602146028"><ele>213.79999999999998</ele><time>2026-04-12T11:50:57Z</time></trkpt><trkpt lat="44.68374829692441" lon="7.862901296975678"><ele>214.0</ele><time>2026-04-12T11:50:59Z</time></trkpt><trkpt lat="44.68381316749044" lon="7.862794763180125"><ele>213.79999999999998</ele><time>2026-04-12T11:51:01Z</time></trkpt><trkpt lat="44.68388255854173" lon="7.86268683311803"><ele>213.59999999999997</ele><time>2026-04-12T11:51:03Z</time></trkpt><trkpt lat="44.68395297414039" lon="7.8625846788899105"><ele>213.4</ele><time>2026-04-12T11:51:05Z</time></trkpt><trkpt lat="44.6840229775869" lon="7.8624764858054865"><ele>213.2</ele><time>2026-04-12T11:51:07Z</time></trkpt><trkpt lat="44.684086362558205" lon="7.862360845981579"><ele>213.0</ele><time>2026-04-12T11:51:09Z</time></trkpt><trkpt lat="44.6841487434561" lon="7.862240554747545"><ele>213.0</ele><time>2026-04-12T11:51:11Z</time></trkpt><trkpt lat="44.68420749532595" lon="7.8621271417650895"><ele>213.0</ele><time>2026-04-12T11:51:13Z</time></trkpt><trkpt lat="44.68427136796145" lon="7.8620152122106965"><ele>213.0</ele><time>2026-04-12T11:51:15Z</time></trkpt><trkpt lat="44.68434226392391" lon="7.861911212720767"><ele>213.0</ele><time>2026-04-12T11:51:17Z</time></trkpt><trkpt lat="44.68442518768766" lon="7.8618204723000975"><ele>213.0</ele><time>2026-04-12T11:51:19Z</time></trkpt><trkpt lat="44.68452562348044" lon="7.86177430440567"><ele>213.2</ele><time>2026-04-12T11:51:21Z</time></trkpt><trkpt lat="44.68462752972279" lon="7.8617694007633725"><ele>213.4</ele><time>2026-04-12T11:51:23Z</time></trkpt><trkpt lat="44.68473366720198" lon="7.861758391246396"><ele>213.59999999999997</ele><time>2026-04-12T11:51:25Z</time></trkpt><trkpt lat="44.684844900059545" lon="7.861742419056153"><ele>213.79999999999998</ele><time>2026-04-12T11:51:27Z</time></trkpt><trkpt lat="44.684951774215335" lon="7.861716654760659"><ele>214.0</ele><time>2026-04-12T11:51:29Z</time></trkpt><trkpt lat="44.68505847566636" lon="7.8616846014641295"><ele>214.0</ele><time>2026-04-12T11:51:31Z</time></trkpt><trkpt lat="44.68516255231276" lon="7.861643556931445"><ele>213.99999999999997</ele><time>2026-04-12T11:51:33Z</time></trkpt><trkpt lat="44.6852631346991" lon="7.861614461263641"><ele>213.99999999999997</ele><time>2026-04-12T11:51:35Z</time></trkpt><trkpt lat="44.685369693413634" lon="7.861577648653288"><ele>214.0</ele><time>2026-04-12T11:51:37Z</time></trkpt><trkpt lat="44.68547777870537" lon="7.861548497321691"><ele>214.0</ele><time>2026-04-12T11:51:39Z</time></trkpt><trkpt lat="44.68558142803736" lon="7.861529483975824"><ele>214.2</ele><time>2026-04-12T11:51:41Z</time></trkpt><trkpt lat="44.68567642047649" lon="7.861510492136793"><ele>214.39999999999998</ele><time>2026-04-12T11:51:43Z</time></trkpt><trkpt lat="44.685743841728076" lon="7.861503544442165"><ele>214.6</ele><time>2026-04-12T11:51:44Z</time></trkpt><trkpt lat="44.68582924697528" lon="7.861480241391492"><ele>214.8</ele><time>2026-04-12T11:51:46Z</time></trkpt><trkpt lat="44.685930483196536" lon="7.861469451024859"><ele>215.0</ele><time>2026-04-12T11:51:48Z</time></trkpt><trkpt lat="44.686030283949854" lon="7.861447385410774"><ele>215.0</ele><time>2026-04-12T11:51:50Z</time></trkpt><trkpt lat="44.686128198143095" lon="7.8614213954439816"><ele>215.0</ele><time>2026-04-12T11:51:52Z</time></trkpt><trkpt lat="44.68622735667182" lon="7.861395535147927"><ele>215.0</ele><time>2026-04-12T11:51:54Z</time></trkpt><trkpt lat="44.686324070571025" lon="7.861357584761426"><ele>215.0</ele><time>2026-04-12T11:51:56Z</time></trkpt><trkpt lat="44.686419511067456" lon="7.86132013234599"><ele>215.0</ele><time>2026-04-12T11:51:58Z</time></trkpt><trkpt lat="44.6865131739282" lon="7.861290782687042"><ele>215.00000000000003</ele><time>2026-04-12T11:52:00Z</time></trkpt><trkpt lat="44.68660216891425" lon="7.86126452393825"><ele>215.0</ele><time>2026-04-12T11:52:02Z</time></trkpt><trkpt lat="44.686680908482906" lon="7.861230084986043"><ele>215.0</ele><time>2026-04-12T11:52:04Z</time></trkpt><trkpt lat="44.68676113194769" lon="7.861222780111435"><ele>215.0</ele><time>2026-04-12T11:52:06Z</time></trkpt><trkpt lat="44.686847509253624" lon="7.861207747644578"><ele>215.00000000000003</ele><time>2026-04-12T11:52:08Z</time></trkpt><trkpt lat="44.68693326417932" lon="7.861194772738151"><ele>215.0</ele><time>2026-04-12T11:52:10Z</time></trkpt><trkpt lat="44.68700848929499" lon="7.861154471206828"><ele>215.50000000000003</ele><time>2026-04-12T11:52:12Z</time></trkpt><trkpt lat="44.68707360803633" lon="7.86110102575023"><ele>216.0</ele><time>2026-04-12T11:52:14Z</time></trkpt><trkpt lat="44.68713760702208" lon="7.861058773282144"><ele>216.5</ele><time>2026-04-12T11:52:16Z</time></trkpt><trkpt lat="44.68719826675726" lon="7.861027526386491"><ele>217.0</ele><time>2026-04-12T11:52:18Z</time></trkpt><trkpt lat="44.68725761144154" lon="7.860987443620766"><ele>217.50000000000003</ele><time>2026-04-12T11:52:20Z</time></trkpt><trkpt lat="44.68732524174826" lon="7.860910669277248"><ele>218.0</ele><time>2026-04-12T11:52:23Z</time></trkpt><trkpt lat="44.687413867059156" lon="7.86088569657811"><ele>218.16666666666669</ele><time>2026-04-12T11:52:26Z</time></trkpt><trkpt lat="44.68747942737209" lon="7.860822980064303"><ele>218.33333333333334</ele><time>2026-04-12T11:52:29Z</time></trkpt><trkpt lat="44.687554078856984" lon="7.860765423671821"><ele>218.5</ele><time>2026-04-12T11:52:32Z</time></trkpt><trkpt lat="44.68763258320766" lon="7.860724745872917"><ele>218.66666666666669</ele><time>2026-04-12T11:52:35Z</time></trkpt><trkpt lat="44.687706075198975" lon="7.860674258950098"><ele>218.83333333333334</ele><time>2026-04-12T11:52:38Z</time></trkpt><trkpt lat="44.6877812184115" lon="7.8606291943568065"><ele>219.0</ele><time>2026-04-12T11:52:41Z</time></trkpt><trkpt lat="44.6878427361661" lon="7.860579767741078"><ele>220.57142857142858</ele><time>2026-04-12T11:52:44Z</time></trkpt><trkpt lat="44.68790772382299" lon="7.860567226782507"><ele>222.1428571428571</ele><time>2026-04-12T11:52:47Z</time></trkpt><trkpt lat="44.687972926704234" lon="7.860569428270144"><ele>223.7142857142857</ele><time>2026-04-12T11:52:50Z</time></trkpt><trkpt lat="44.6880406272648" lon="7.8605620897369715"><ele>225.28571428571428</ele><time>2026-04-12T11:52:53Z</time></trkpt><trkpt lat="44.688105225837376" lon="7.860547899253054"><ele>226.85714285714283</ele><time>2026-04-12T11:52:56Z</time></trkpt><trkpt lat="44.68816677351424" lon="7.860512901974018"><ele>228.4285714285714</ele><time>2026-04-12T11:52:59Z</time></trkpt><trkpt lat="44.688228399650804" lon="7.860460206755989"><ele>229.99999999999997</ele><time>2026-04-12T11:53:02Z</time></trkpt><trkpt lat="44.68828787106564" lon="7.860399617314169"><ele>229.99999999999997</ele><time>2026-04-12T11:53:05Z</time></trkpt><trkpt lat="44.6883419249673" lon="7.86033649182385"><ele>230.0</ele><time>2026-04-12T11:53:08Z</time></trkpt><trkpt lat="44.68838846092926" lon="7.860263002360354"><ele>229.99999999999997</ele><time>2026-04-12T11:53:11Z</time></trkpt><trkpt lat="44.68842702318564" lon="7.86018461938394"><ele>229.99999999999997</ele><time>2026-04-12T11:53:14Z</time></trkpt><trkpt lat="44.68844688503884" lon="7.86009556332817"><ele>230.0</ele><time>2026-04-12T11:53:17Z</time></trkpt><trkpt lat="44.688471941573326" lon="7.859984567107428"><ele>229.99999999999997</ele><time>2026-04-12T11:53:21Z</time></trkpt><trkpt lat="44.68847334434055" lon="7.859870894582318"><ele>229.99999999999997</ele><time>2026-04-12T11:53:25Z</time></trkpt><trkpt lat="44.6884639492091" lon="7.859763508224491"><ele>230.33333333333334</ele><time>2026-04-12T11:53:29Z</time></trkpt><trkpt lat="44.688452334202665" lon="7.859657807091406"><ele>230.66666666666669</ele><time>2026-04-12T11:53:33Z</time></trkpt><trkpt lat="44.6884291239459" lon="7.859546657357"><ele>231.0</ele><time>2026-04-12T11:53:37Z</time></trkpt><trkpt lat="44.68839948709203" lon="7.859445707054819"><ele>231.33333333333331</ele><time>2026-04-12T11:53:41Z</time></trkpt><trkpt lat="44.68836927132516" lon="7.859344495709951"><ele>231.66666666666666</ele><time>2026-04-12T11:53:45Z</time></trkpt><trkpt lat="44.688346354420005" lon="7.859243030140665"><ele>232.0</ele><time>2026-04-12T11:53:49Z</time></trkpt><trkpt lat="44.68833901705945" lon="7.85914994410137"><ele>232.83333333333331</ele><time>2026-04-12T11:53:53Z</time></trkpt><trkpt lat="44.68831315371416" lon="7.859054714081257"><ele>233.66666666666666</ele><time>2026-04-12T11:53:57Z</time></trkpt><trkpt lat="44.68829800732859" lon="7.858947400361731"><ele>234.5</ele><time>2026-04-12T11:54:01Z</time></trkpt><trkpt lat="44.688269944356996" lon="7.858852115708412"><ele>235.33333333333331</ele><time>2026-04-12T11:54:05Z</time></trkpt><trkpt lat="44.68823752310908" lon="7.85875471786176"><ele>236.16666666666666</ele><time>2026-04-12T11:54:09Z</time></trkpt><trkpt lat="44.68822612594454" lon="7.858647124500464"><ele>237.0</ele><time>2026-04-12T11:54:13Z</time></trkpt><trkpt lat="44.68822188107605" lon="7.85854394473658"><ele>238.1428571428571</ele><time>2026-04-12T11:54:17Z</time></trkpt><trkpt lat="44.688199090874484" lon="7.858446731815285"><ele>239.28571428571428</ele><time>2026-04-12T11:54:21Z</time></trkpt><trkpt lat="44.688179253536326" lon="7.858353732128981"><ele>240.42857142857142</ele><time>2026-04-12T11:54:25Z</time></trkpt><trkpt lat="44.688160758988026" lon="7.858251567443768"><ele>241.57142857142856</ele><time>2026-04-12T11:54:29Z</time></trkpt><trkpt lat="44.688127905077735" lon="7.858161449657001"><ele>242.71428571428572</ele><time>2026-04-12T11:54:33Z</time></trkpt><trkpt lat="44.68811265777485" lon="7.858063350299967"><ele>243.85714285714286</ele><time>2026-04-12T11:54:37Z</time></trkpt><trkpt lat="44.688088266978184" lon="7.857965883321803"><ele>245.0</ele><time>2026-04-12T11:54:41Z</time></trkpt><trkpt lat="44.688066795563" lon="7.857866834016104"><ele>245.0</ele><time>2026-04-12T11:54:45Z</time></trkpt><trkpt lat="44.68806149685915" lon="7.85776410116831"><ele>245.0</ele><time>2026-04-12T11:54:49Z</time></trkpt><trkpt lat="44.68806373994992" lon="7.857653294041964"><ele>245.0</ele><time>2026-04-12T11:54:53Z</time></trkpt><trkpt lat="44.68807476067353" lon="7.857547788460538"><ele>245.0</ele><time>2026-04-12T11:54:57Z</time></trkpt><trkpt lat="44.68809636446754" lon="7.857442036448958"><ele>245.0</ele><time>2026-04-12T11:55:02Z</time></trkpt><trkpt lat="44.688106863630004" lon="7.857349878266661"><ele>245.0</ele><time>2026-04-12T11:55:06Z</time></trkpt><trkpt lat="44.6881068168782" lon="7.85725174424489"><ele>245.0</ele><time>2026-04-12T11:55:10Z</time></trkpt><trkpt lat="44.68810458134821" lon="7.857159729232479"><ele>246.14285714285714</ele><time>2026-04-12T11:55:14Z</time></trkpt><trkpt lat="44.68809734348807" lon="7.857069883949711"><ele>247.28571428571428</ele><time>2026-04-12T11:55:18Z</time></trkpt><trkpt lat="44.68809365033885" lon="7.856974608695916"><ele>248.42857142857144</ele><time>2026-04-12T11:55:22Z</time></trkpt><trkpt lat="44.68809137490464" lon="7.856877918328009"><ele>249.57142857142858</ele><time>2026-04-12T11:55:26Z</time></trkpt><trkpt lat="44.68808342573911" lon="7.856788047452802"><ele>250.71428571428572</ele><time>2026-04-12T11:55:30Z</time></trkpt><trkpt lat="44.688084986189835" lon="7.856684688928518"><ele>251.8571428571429</ele><time>2026-04-12T11:55:34Z</time></trkpt><trkpt lat="44.68808069454421" lon="7.856593571384643"><ele>253.00000000000003</ele><time>2026-04-12T11:55:38Z</time></trkpt><trkpt lat="44.68807352728508" lon="7.856491737043948"><ele>254.66666666666666</ele><time>2026-04-12T11:55:42Z</time></trkpt><trkpt lat="44.68803880499315" lon="7.85640276834825"><ele>256.3333333333333</ele><time>2026-04-12T11:55:46Z</time></trkpt><trkpt lat="44.68798608988754" lon="7.856320620887471"><ele>258.0</ele><time>2026-04-12T11:55:50Z</time></trkpt><trkpt lat="44.68792305024302" lon="7.856247642680528"><ele>259.6666666666667</ele><time>2026-04-12T11:55:54Z</time></trkpt><trkpt lat="44.687880738595766" lon="7.856159427335366"><ele>261.33333333333337</ele><time>2026-04-12T11:55:58Z</time></trkpt><trkpt lat="44.68783648432776" lon="7.8560763785455565"><ele>263.0</ele><time>2026-04-12T11:56:02Z</time></trkpt><trkpt lat="44.68784716348826" lon="7.855961589256014"><ele>263.0</ele><time>2026-04-12T11:56:06Z</time></trkpt><trkpt lat="44.68789939943033" lon="7.8558971749863185"><ele>263.0</ele><time>2026-04-12T11:56:09Z</time></trkpt><trkpt lat="44.687961954109085" lon="7.855879978683251"><ele>263.0</ele><time>2026-04-12T11:56:12Z</time></trkpt><trkpt lat="44.688020857766595" lon="7.855954657489885"><ele>263.0</ele><time>2026-04-12T11:56:16Z</time></trkpt><trkpt lat="44.688078607659016" lon="7.856010483029036"><ele>263.0</ele><time>2026-04-12T11:56:20Z</time></trkpt><trkpt lat="44.68813722831082" lon="7.85607051827275"><ele>263.0</ele><time>2026-04-12T11:56:24Z</time></trkpt><trkpt lat="44.68820771416317" lon="7.856129797526187"><ele>263.0</ele><time>2026-04-12T11:56:29Z</time></trkpt><trkpt lat="44.688282026924334" lon="7.856113924362914"><ele>263.0</ele><time>2026-04-12T11:56:33Z</time></trkpt><trkpt lat="44.688318437194035" lon="7.856030392051187"><ele>263.0</ele><time>2026-04-12T11:56:36Z</time></trkpt><trkpt lat="44.68832945735591" lon="7.8559418929445615"><ele>263.0</ele><time>2026-04-12T11:56:39Z</time></trkpt><trkpt lat="44.6883346118427" lon="7.8558510755259165"><ele>263.0</ele><time>2026-04-12T11:56:42Z</time></trkpt><trkpt lat="44.68834793750221" lon="7.855742497943873"><ele>263.0</ele><time>2026-04-12T11:56:46Z</time></trkpt><trkpt lat="44.688372812462646" lon="7.855643689055642"><ele>263.0</ele><time>2026-04-12T11:56:50Z</time></trkpt><trkpt lat="44.688404385491545" lon="7.855554306038137"><ele>263.0</ele><time>2026-04-12T11:56:54Z</time></trkpt><trkpt lat="44.68842975589705" lon="7.855465468092607"><ele>264.0</ele><time>2026-04-12T11:56:58Z</time></trkpt><trkpt lat="44.68850604275374" lon="7.8554237335271955"><ele>265.0</ele><time>2026-04-12T11:57:02Z</time></trkpt><trkpt lat="44.68858337518778" lon="7.855416341645588"><ele>266.0</ele><time>2026-04-12T11:57:06Z</time></trkpt><trkpt lat="44.68864729829256" lon="7.855454851186029"><ele>267.0</ele><time>2026-04-12T11:57:10Z</time></trkpt><trkpt lat="44.68871883984757" lon="7.855479220780628"><ele>268.0</ele><time>2026-04-12T11:57:14Z</time></trkpt><trkpt lat="44.68878350984447" lon="7.855425197716982"><ele>269.0</ele><time>2026-04-12T11:57:18Z</time></trkpt><trkpt lat="44.688819360015664" lon="7.855349392013338"><ele>270.0</ele><time>2026-04-12T11:57:21Z</time></trkpt><trkpt lat="44.68883533703926" lon="7.8552393831766"><ele>271.2857142857143</ele><time>2026-04-12T11:57:25Z</time></trkpt><trkpt lat="44.688814284030684" lon="7.855140379710387"><ele>272.57142857142856</ele><time>2026-04-12T11:57:29Z</time></trkpt><trkpt lat="44.68877955226107" lon="7.855066473674837"><ele>273.85714285714283</ele><time>2026-04-12T11:57:34Z</time></trkpt><trkpt lat="44.688841414372476" lon="7.855046320169418"><ele>275.1428571428571</ele><time>2026-04-12T11:57:39Z</time></trkpt><trkpt lat="44.68890570508071" lon="7.8550689326707195"><ele>276.42857142857144</ele><time>2026-04-12T11:57:42Z</time></trkpt><trkpt lat="44.688970871269504" lon="7.855087628440011"><ele>277.71428571428567</ele><time>2026-04-12T11:57:45Z</time></trkpt><trkpt lat="44.68904222428119" lon="7.85510408893527"><ele>279.0</ele><time>2026-04-12T11:57:48Z</time></trkpt><trkpt lat="44.689114309288186" lon="7.85512821622963"><ele>279.3333333333333</ele><time>2026-04-12T11:57:51Z</time></trkpt><trkpt lat="44.68918928870932" lon="7.855151387186199"><ele>279.6666666666667</ele><time>2026-04-12T11:57:54Z</time></trkpt><trkpt lat="44.68926165544886" lon="7.85516440834567"><ele>280.0</ele><time>2026-04-12T11:57:57Z</time></trkpt><trkpt lat="44.68933513834594" lon="7.855165264657152"><ele>280.33333333333337</ele><time>2026-04-12T11:58:00Z</time></trkpt><trkpt lat="44.68940956107642" lon="7.855170776622802"><ele>280.6666666666667</ele><time>2026-04-12T11:58:03Z</time></trkpt><trkpt lat="44.68949056708937" lon="7.85517418897742"><ele>281.0</ele><time>2026-04-12T11:58:06Z</time></trkpt><trkpt lat="44.6895695434658" lon="7.855169122195613"><ele>281.0</ele><time>2026-04-12T11:58:09Z</time></trkpt><trkpt lat="44.689652624155144" lon="7.855157976729298"><ele>281.0</ele><time>2026-04-12T11:58:12Z</time></trkpt><trkpt lat="44.689732654850054" lon="7.855148790625084"><ele>281.0</ele><time>2026-04-12T11:58:15Z</time></trkpt><trkpt lat="44.68980939824142" lon="7.855124810406695"><ele>281.0</ele><time>2026-04-12T11:58:18Z</time></trkpt><trkpt lat="44.689887321996764" lon="7.855103498007622"><ele>281.0</ele><time>2026-04-12T11:58:21Z</time></trkpt><trkpt lat="44.689961640234436" lon="7.855085871854939"><ele>281.0</ele><time>2026-04-12T11:58:24Z</time></trkpt><trkpt lat="44.6900398310641" lon="7.8550623726878825"><ele>280.8571428571429</ele><time>2026-04-12T11:58:27Z</time></trkpt><trkpt lat="44.690121009529655" lon="7.855039197839274"><ele>280.7142857142857</ele><time>2026-04-12T11:58:30Z</time></trkpt><trkpt lat="44.69019345984365" lon="7.855010082191967"><ele>280.57142857142856</ele><time>2026-04-12T11:58:33Z</time></trkpt><trkpt lat="44.690252703703" lon="7.854978995996029"><ele>280.42857142857144</ele><time>2026-04-12T11:58:36Z</time></trkpt><trkpt lat="44.69033028156752" lon="7.854953888338086"><ele>280.2857142857143</ele><time>2026-04-12T11:58:39Z</time></trkpt><trkpt lat="44.69039240297501" lon="7.854930635616061"><ele>280.14285714285717</ele><time>2026-04-12T11:58:41Z</time></trkpt><trkpt lat="44.690449714268524" lon="7.854871584223798"><ele>280.0</ele><time>2026-04-12T11:58:43Z</time></trkpt><trkpt lat="44.690513488690456" lon="7.854852959278775"><ele>280.0</ele><time>2026-04-12T11:58:45Z</time></trkpt><trkpt lat="44.690603541916644" lon="7.8548234268231925"><ele>280.0</ele><time>2026-04-12T11:58:48Z</time></trkpt><trkpt lat="44.69068508640926" lon="7.854831414309548"><ele>280.0</ele><time>2026-04-12T11:58:51Z</time></trkpt><trkpt lat="44.69077268498351" lon="7.854849124891437"><ele>280.0</ele><time>2026-04-12T11:58:54Z</time></trkpt><trkpt lat="44.69084312906457" lon="7.854855997410282"><ele>280.0</ele><time>2026-04-12T11:58:56Z</time></trkpt><trkpt lat="44.690911969625546" lon="7.854862396308903"><ele>280.0</ele><time>2026-04-12T11:58:58Z</time></trkpt><trkpt lat="44.69098420167989" lon="7.854868596968901"><ele>280.0</ele><time>2026-04-12T11:59:00Z</time></trkpt><trkpt lat="44.691055333161955" lon="7.854873317705636"><ele>280.0</ele><time>2026-04-12T11:59:02Z</time></trkpt><trkpt lat="44.6911244070328" lon="7.854874439531"><ele>280.0</ele><time>2026-04-12T11:59:04Z</time></trkpt><trkpt lat="44.691192729551105" lon="7.854884679390917"><ele>280.0</ele><time>2026-04-12T11:59:06Z</time></trkpt><trkpt lat="44.69126668767668" lon="7.854887023493958"><ele>280.0</ele><time>2026-04-12T11:59:08Z</time></trkpt><trkpt lat="44.69134282770353" lon="7.854896261635564"><ele>280.0</ele><time>2026-04-12T11:59:10Z</time></trkpt><trkpt lat="44.69141518264416" lon="7.854853027643073"><ele>280.0</ele><time>2026-04-12T11:59:12Z</time></trkpt><trkpt lat="44.691491438822105" lon="7.854872746107786"><ele>280.0</ele><time>2026-04-12T11:59:14Z</time></trkpt><trkpt lat="44.69157860542534" lon="7.854904928492735"><ele>280.0</ele><time>2026-04-12T11:59:17Z</time></trkpt><trkpt lat="44.69164873505882" lon="7.854922138275457"><ele>280.0</ele><time>2026-04-12T11:59:19Z</time></trkpt><trkpt lat="44.691735238537774" lon="7.854931124231442"><ele>280.0</ele><time>2026-04-12T11:59:21Z</time></trkpt><trkpt lat="44.691821427460944" lon="7.854947583273897"><ele>280.0</ele><time>2026-04-12T11:59:23Z</time></trkpt><trkpt lat="44.6918997423888" lon="7.854980887973301"><ele>280.0</ele><time>2026-04-12T11:59:25Z</time></trkpt><trkpt lat="44.69197183364802" lon="7.854986987763419"><ele>279.85714285714283</ele><time>2026-04-12T11:59:27Z</time></trkpt><trkpt lat="44.6920400300839" lon="7.85498562342413"><ele>279.7142857142857</ele><time>2026-04-12T11:59:29Z</time></trkpt><trkpt lat="44.692102592337015" lon="7.8549748466075995"><ele>279.57142857142856</ele><time>2026-04-12T11:59:31Z</time></trkpt><trkpt lat="44.692175284607764" lon="7.855020798483676"><ele>279.42857142857144</ele><time>2026-04-12T11:59:33Z</time></trkpt><trkpt lat="44.69223950043546" lon="7.8550473902325475"><ele>279.2857142857143</ele><time>2026-04-12T11:59:35Z</time></trkpt><trkpt lat="44.69230335446978" lon="7.855093193646513"><ele>279.1428571428571</ele><time>2026-04-12T11:59:37Z</time></trkpt><trkpt lat="44.69238780759821" lon="7.8551104326105055"><ele>279.0</ele><time>2026-04-12T11:59:40Z</time></trkpt><trkpt lat="44.69246208892965" lon="7.855064982332849"><ele>279.0</ele><time>2026-04-12T11:59:42Z</time></trkpt><trkpt lat="44.692540870398275" lon="7.855065354697017"><ele>279.0</ele><time>2026-04-12T11:59:44Z</time></trkpt><trkpt lat="44.6926169165681" lon="7.855063752676895"><ele>279.0</ele><time>2026-04-12T11:59:46Z</time></trkpt><trkpt lat="44.69271083215328" lon="7.855081835896491"><ele>279.0</ele><time>2026-04-12T11:59:48Z</time></trkpt><trkpt lat="44.69280057307126" lon="7.855086772190099"><ele>279.0</ele><time>2026-04-12T11:59:50Z</time></trkpt><trkpt lat="44.69288100556569" lon="7.855057250810233"><ele>279.0</ele><time>2026-04-12T11:59:52Z</time></trkpt><trkpt lat="44.69296383410775" lon="7.855020614266009"><ele>279.4285714285714</ele><time>2026-04-12T11:59:54Z</time></trkpt><trkpt lat="44.69303796452892" lon="7.855006196648441"><ele>279.85714285714283</ele><time>2026-04-12T11:59:56Z</time></trkpt><trkpt lat="44.69311689311886" lon="7.854989994962008"><ele>280.2857142857143</ele><time>2026-04-12T11:59:59Z</time></trkpt><trkpt lat="44.69318378988124" lon="7.855000151494529"><ele>280.71428571428567</ele><time>2026-04-12T12:00:01Z</time></trkpt><trkpt lat="44.693250439103636" lon="7.855012888776421"><ele>281.1428571428571</ele><time>2026-04-12T12:00:03Z</time></trkpt><trkpt lat="44.69332149034887" lon="7.8550176074539735"><ele>281.57142857142856</ele><time>2026-04-12T12:00:05Z</time></trkpt><trkpt lat="44.6933947671903" lon="7.855023213062651"><ele>282.0</ele><time>2026-04-12T12:00:07Z</time></trkpt><trkpt lat="44.693490259249465" lon="7.855027091114154"><ele>282.0</ele><time>2026-04-12T12:00:10Z</time></trkpt><trkpt lat="44.693562763887265" lon="7.855000022892983"><ele>282.0</ele><time>2026-04-12T12:00:12Z</time></trkpt><trkpt lat="44.69364094888784" lon="7.8549885797894445"><ele>282.0</ele><time>2026-04-12T12:00:14Z</time></trkpt><trkpt lat="44.69371800854802" lon="7.854953511286886"><ele>282.0</ele><time>2026-04-12T12:00:16Z</time></trkpt><trkpt lat="44.693790468914315" lon="7.854939635376449"><ele>282.0</ele><time>2026-04-12T12:00:18Z</time></trkpt><trkpt lat="44.69386216042162" lon="7.854920801890514"><ele>282.0</ele><time>2026-04-12T12:00:20Z</time></trkpt><trkpt lat="44.69393419423762" lon="7.854911611368265"><ele>282.1666666666667</ele><time>2026-04-12T12:00:22Z</time></trkpt><trkpt lat="44.69400693072192" lon="7.854901527698484"><ele>282.3333333333333</ele><time>2026-04-12T12:00:24Z</time></trkpt><trkpt lat="44.69408260860373" lon="7.854890274907655"><ele>282.5</ele><time>2026-04-12T12:00:26Z</time></trkpt><trkpt lat="44.694158148659476" lon="7.854872000773879"><ele>282.66666666666663</ele><time>2026-04-12T12:00:28Z</time></trkpt><trkpt lat="44.69423584585396" lon="7.854856653468785"><ele>282.8333333333333</ele><time>2026-04-12T12:00:30Z</time></trkpt><trkpt lat="44.694316567248606" lon="7.854837326574278"><ele>283.0</ele><time>2026-04-12T12:00:32Z</time></trkpt><trkpt lat="44.69439879308686" lon="7.854891798848134"><ele>283.3333333333333</ele><time>2026-04-12T12:00:34Z</time></trkpt><trkpt lat="44.69447152410285" lon="7.854822213554754"><ele>283.66666666666663</ele><time>2026-04-12T12:00:36Z</time></trkpt><trkpt lat="44.694551804858435" lon="7.854778537794485"><ele>284.0</ele><time>2026-04-12T12:00:38Z</time></trkpt><trkpt lat="44.69462622968124" lon="7.854744258135281"><ele>284.3333333333333</ele><time>2026-04-12T12:00:40Z</time></trkpt><trkpt lat="44.6947024638516" lon="7.854705539526393"><ele>284.6666666666667</ele><time>2026-04-12T12:00:42Z</time></trkpt><trkpt lat="44.69477887986049" lon="7.854675876827065"><ele>285.0</ele><time>2026-04-12T12:00:44Z</time></trkpt><trkpt lat="44.694844146719426" lon="7.854629263005899"><ele>285.0</ele><time>2026-04-12T12:00:46Z</time></trkpt><trkpt lat="44.694927202525676" lon="7.854604092412218"><ele>285.0</ele><time>2026-04-12T12:00:48Z</time></trkpt><trkpt lat="44.69502090425166" lon="7.854580668011733"><ele>285.0</ele><time>2026-04-12T12:00:51Z</time></trkpt><trkpt lat="44.69509425985112" lon="7.854555756247664"><ele>285.0</ele><time>2026-04-12T12:00:53Z</time></trkpt><trkpt lat="44.695156729449664" lon="7.854508973996391"><ele>285.0</ele><time>2026-04-12T12:00:55Z</time></trkpt><trkpt lat="44.69522051673799" lon="7.854455363432196"><ele>285.0</ele><time>2026-04-12T12:00:57Z</time></trkpt><trkpt lat="44.695293263681044" lon="7.854402324159719"><ele>285.0</ele><time>2026-04-12T12:00:59Z</time></trkpt><trkpt lat="44.695362707790174" lon="7.8543559341139435"><ele>285.0</ele><time>2026-04-12T12:01:01Z</time></trkpt><trkpt lat="44.695418493032115" lon="7.854303040606212"><ele>285.0</ele><time>2026-04-12T12:01:03Z</time></trkpt><trkpt lat="44.69548067522677" lon="7.854262882423038"><ele>285.0</ele><time>2026-04-12T12:01:05Z</time></trkpt><trkpt lat="44.695544523683644" lon="7.854238665708092"><ele>285.0</ele><time>2026-04-12T12:01:07Z</time></trkpt><trkpt lat="44.69560524018098" lon="7.854196010361895"><ele>285.0</ele><time>2026-04-12T12:01:09Z</time></trkpt><trkpt lat="44.69567202241294" lon="7.8541587725168975"><ele>285.0</ele><time>2026-04-12T12:01:11Z</time></trkpt><trkpt lat="44.69573201748978" lon="7.854115021841572"><ele>285.1666666666667</ele><time>2026-04-12T12:01:13Z</time></trkpt><trkpt lat="44.69580661752549" lon="7.854062257565594"><ele>285.3333333333333</ele><time>2026-04-12T12:01:16Z</time></trkpt><trkpt lat="44.69587393038493" lon="7.854022610741202"><ele>285.5</ele><time>2026-04-12T12:01:19Z</time></trkpt><trkpt lat="44.69593695597684" lon="7.853967819993634"><ele>285.66666666666663</ele><time>2026-04-12T12:01:22Z</time></trkpt><trkpt lat="44.69602450050245" lon="7.853907741368453"><ele>285.8333333333333</ele><time>2026-04-12T12:01:24Z</time></trkpt><trkpt lat="44.6960872205327" lon="7.853892046673257"><ele>286.0</ele><time>2026-04-12T12:01:26Z</time></trkpt><trkpt lat="44.696152989048706" lon="7.853857035849231"><ele>286.5</ele><time>2026-04-12T12:01:28Z</time></trkpt><trkpt lat="44.69621571083089" lon="7.853828275998919"><ele>287.0</ele><time>2026-04-12T12:01:30Z</time></trkpt><trkpt lat="44.69630051646536" lon="7.853784248798626"><ele>287.5</ele><time>2026-04-12T12:01:33Z</time></trkpt><trkpt lat="44.69638866871281" lon="7.853745311060866"><ele>288.0</ele><time>2026-04-12T12:01:36Z</time></trkpt><trkpt lat="44.69644457108962" lon="7.85369860173657"><ele>288.5</ele><time>2026-04-12T12:01:38Z</time></trkpt><trkpt lat="44.69653290004073" lon="7.853652276100326"><ele>289.0</ele><time>2026-04-12T12:01:41Z</time></trkpt><trkpt lat="44.69660179386854" lon="7.853599137272914"><ele>289.0</ele><time>2026-04-12T12:01:44Z</time></trkpt><trkpt lat="44.696661403580514" lon="7.853566731970782"><ele>289.0</ele><time>2026-04-12T12:01:46Z</time></trkpt><trkpt lat="44.69672580312685" lon="7.853515321566417"><ele>289.0</ele><time>2026-04-12T12:01:48Z</time></trkpt><trkpt lat="44.69678714414163" lon="7.853466790551012"><ele>289.0</ele><time>2026-04-12T12:01:50Z</time></trkpt><trkpt lat="44.69684671221984" lon="7.85342191765617"><ele>289.0</ele><time>2026-04-12T12:01:52Z</time></trkpt><trkpt lat="44.69691417868179" lon="7.853388303623046"><ele>289.0</ele><time>2026-04-12T12:01:54Z</time></trkpt><trkpt lat="44.69698520455189" lon="7.853358348763209"><ele>289.0</ele><time>2026-04-12T12:01:56Z</time></trkpt><trkpt lat="44.69704440921163" lon="7.853318167771885"><ele>289.16666666666663</ele><time>2026-04-12T12:01:58Z</time></trkpt><trkpt lat="44.69709851037139" lon="7.853268415609205"><ele>289.3333333333333</ele><time>2026-04-12T12:02:01Z</time></trkpt><trkpt lat="44.69716188390944" lon="7.853231222118569"><ele>289.5</ele><time>2026-04-12T12:02:06Z</time></trkpt><trkpt lat="44.697228130195796" lon="7.853191713134547"><ele>289.6666666666667</ele><time>2026-04-12T12:02:09Z</time></trkpt><trkpt lat="44.697312099957735" lon="7.853152979621941"><ele>289.83333333333337</ele><time>2026-04-12T12:02:12Z</time></trkpt><trkpt lat="44.69738637588517" lon="7.853106573548916"><ele>290.0</ele><time>2026-04-12T12:02:15Z</time></trkpt><trkpt lat="44.69745392987609" lon="7.8530585320487125"><ele>290.0</ele><time>2026-04-12T12:02:18Z</time></trkpt><trkpt lat="44.69753933307442" lon="7.852999909204873"><ele>290.0</ele><time>2026-04-12T12:02:21Z</time></trkpt><trkpt lat="44.697603845466226" lon="7.852962704560071"><ele>290.0</ele><time>2026-04-12T12:02:23Z</time></trkpt><trkpt lat="44.697664908579185" lon="7.852913144573129"><ele>290.0</ele><time>2026-04-12T12:02:25Z</time></trkpt><trkpt lat="44.697725243773995" lon="7.852879208971308"><ele>290.0</ele><time>2026-04-12T12:02:27Z</time></trkpt><trkpt lat="44.69780873741408" lon="7.852809688988426"><ele>290.0</ele><time>2026-04-12T12:02:30Z</time></trkpt><trkpt lat="44.697866213956495" lon="7.852764909344832"><ele>289.8571428571429</ele><time>2026-04-12T12:02:32Z</time></trkpt><trkpt lat="44.69792466036161" lon="7.8527150777838015"><ele>289.7142857142857</ele><time>2026-04-12T12:02:34Z</time></trkpt><trkpt lat="44.69796293038139" lon="7.8526402967536795"><ele>289.57142857142856</ele><time>2026-04-12T12:02:36Z</time></trkpt><trkpt lat="44.6980040938536" lon="7.852566219202585"><ele>289.42857142857144</ele><time>2026-04-12T12:02:38Z</time></trkpt><trkpt lat="44.69803046306186" lon="7.852479954760985"><ele>289.2857142857143</ele><time>2026-04-12T12:02:40Z</time></trkpt><trkpt lat="44.69807348909361" lon="7.852393842112629"><ele>289.14285714285717</ele><time>2026-04-12T12:02:42Z</time></trkpt><trkpt lat="44.69811975051902" lon="7.852305454386796"><ele>289.0</ele><time>2026-04-12T12:02:44Z</time></trkpt><trkpt lat="44.69813327386209" lon="7.852208633439958"><ele>288.8571428571429</ele><time>2026-04-12T12:02:46Z</time></trkpt><trkpt lat="44.69818582766587" lon="7.852120665896276"><ele>288.7142857142857</ele><time>2026-04-12T12:02:48Z</time></trkpt><trkpt lat="44.6982177700301" lon="7.852030795831981"><ele>288.57142857142856</ele><time>2026-04-12T12:02:50Z</time></trkpt><trkpt lat="44.69825361858213" lon="7.8519536569890445"><ele>288.42857142857144</ele><time>2026-04-12T12:02:52Z</time></trkpt><trkpt lat="44.698255695457675" lon="7.851860048065928"><ele>288.2857142857143</ele><time>2026-04-12T12:02:54Z</time></trkpt><trkpt lat="44.69828841923824" lon="7.851776310014287"><ele>288.14285714285717</ele><time>2026-04-12T12:02:56Z</time></trkpt><trkpt lat="44.698338642195715" lon="7.851670147611652"><ele>288.0</ele><time>2026-04-12T12:02:58Z</time></trkpt><trkpt lat="44.6983862383358" lon="7.851566240615435"><ele>287.8</ele><time>2026-04-12T12:03:00Z</time></trkpt><trkpt lat="44.69842320239841" lon="7.851450822439469"><ele>287.6</ele><time>2026-04-12T12:03:02Z</time></trkpt><trkpt lat="44.69847853552565" lon="7.8513255460217"><ele>287.4</ele><time>2026-04-12T12:03:04Z</time></trkpt><trkpt lat="44.698516834634546" lon="7.851191559896281"><ele>287.2</ele><time>2026-04-12T12:03:06Z</time></trkpt><trkpt lat="44.698566361306426" lon="7.8510642744247185"><ele>287.0</ele><time>2026-04-12T12:03:08Z</time></trkpt><trkpt lat="44.6986039119782" lon="7.850925420762433"><ele>286.8</ele><time>2026-04-12T12:03:10Z</time></trkpt><trkpt lat="44.69864802578399" lon="7.850799459747959"><ele>286.6</ele><time>2026-04-12T12:03:12Z</time></trkpt><trkpt lat="44.69870038483525" lon="7.850670166145035"><ele>286.40000000000003</ele><time>2026-04-12T12:03:14Z</time></trkpt><trkpt lat="44.69875780573202" lon="7.8505557824878665"><ele>286.2</ele><time>2026-04-12T12:03:16Z</time></trkpt><trkpt lat="44.698815358682005" lon="7.8504393886380335"><ele>286.0</ele><time>2026-04-12T12:03:18Z</time></trkpt><trkpt lat="44.69886980914449" lon="7.850316910058158"><ele>286.0</ele><time>2026-04-12T12:03:20Z</time></trkpt><trkpt lat="44.69892921857958" lon="7.850207545648903"><ele>286.0</ele><time>2026-04-12T12:03:22Z</time></trkpt><trkpt lat="44.69900047315971" lon="7.85010465471999"><ele>286.0</ele><time>2026-04-12T12:03:24Z</time></trkpt><trkpt lat="44.69906880722849" lon="7.850011900864763"><ele>286.0</ele><time>2026-04-12T12:03:26Z</time></trkpt><trkpt lat="44.69913319127664" lon="7.849930827103784"><ele>286.0</ele><time>2026-04-12T12:03:28Z</time></trkpt><trkpt lat="44.69919717895326" lon="7.849855884144172"><ele>285.8333333333333</ele><time>2026-04-12T12:03:30Z</time></trkpt><trkpt lat="44.69926275018094" lon="7.8497789477600515"><ele>285.66666666666663</ele><time>2026-04-12T12:03:32Z</time></trkpt><trkpt lat="44.699326217394564" lon="7.8497042835915405"><ele>285.5</ele><time>2026-04-12T12:03:34Z</time></trkpt><trkpt lat="44.69938892335945" lon="7.8496237888675795"><ele>285.3333333333333</ele><time>2026-04-12T12:03:36Z</time></trkpt><trkpt lat="44.69945601077832" lon="7.8495483895383"><ele>285.1666666666667</ele><time>2026-04-12T12:03:38Z</time></trkpt><trkpt lat="44.6995123979685" lon="7.849458615829485"><ele>285.0</ele><time>2026-04-12T12:03:40Z</time></trkpt><trkpt lat="44.69956862772312" lon="7.849368383875458"><ele>285.1666666666667</ele><time>2026-04-12T12:03:42Z</time></trkpt><trkpt lat="44.69962126287073" lon="7.849278905840759"><ele>285.3333333333333</ele><time>2026-04-12T12:03:44Z</time></trkpt><trkpt lat="44.69967550019615" lon="7.849187396413958"><ele>285.5</ele><time>2026-04-12T12:03:46Z</time></trkpt><trkpt lat="44.6997268098881" lon="7.84910043136889"><ele>285.66666666666663</ele><time>2026-04-12T12:03:48Z</time></trkpt><trkpt lat="44.69977840300597" lon="7.8490195930915805"><ele>285.8333333333333</ele><time>2026-04-12T12:03:50Z</time></trkpt><trkpt lat="44.69982222951577" lon="7.848934639666635"><ele>286.0</ele><time>2026-04-12T12:03:52Z</time></trkpt><trkpt lat="44.69986998277444" lon="7.848869344480583"><ele>285.99999999999994</ele><time>2026-04-12T12:03:54Z</time></trkpt><trkpt lat="44.699916095407154" lon="7.848801103851611"><ele>286.0</ele><time>2026-04-12T12:03:56Z</time></trkpt><trkpt lat="44.69996927118484" lon="7.848735428684671"><ele>286.0</ele><time>2026-04-12T12:03:58Z</time></trkpt><trkpt lat="44.70002048604313" lon="7.848675441844213"><ele>286.0</ele><time>2026-04-12T12:04:00Z</time></trkpt><trkpt lat="44.70007003180264" lon="7.848615911773394"><ele>286.0</ele><time>2026-04-12T12:04:02Z</time></trkpt><trkpt lat="44.70013668983381" lon="7.84857856109325"><ele>285.99999999999994</ele><time>2026-04-12T12:04:04Z</time></trkpt><trkpt lat="44.700203234844565" lon="7.848525882249286"><ele>286.0</ele><time>2026-04-12T12:04:06Z</time></trkpt><trkpt lat="44.700266964939374" lon="7.848469839360244"><ele>285.99999999999994</ele><time>2026-04-12T12:04:08Z</time></trkpt><trkpt lat="44.700337471751496" lon="7.848429513091281"><ele>286.0</ele><time>2026-04-12T12:04:10Z</time></trkpt><trkpt lat="44.70040653361412" lon="7.848383713822697"><ele>286.0</ele><time>2026-04-12T12:04:12Z</time></trkpt><trkpt lat="44.70047498198611" lon="7.8483470206349715"><ele>286.0</ele><time>2026-04-12T12:04:14Z</time></trkpt><trkpt lat="44.7005417292355" lon="7.848305520600056"><ele>286.0</ele><time>2026-04-12T12:04:16Z</time></trkpt><trkpt lat="44.700613972472674" lon="7.848278114018532"><ele>285.99999999999994</ele><time>2026-04-12T12:04:18Z</time></trkpt><trkpt lat="44.70067985140992" lon="7.848250567038847"><ele>286.0</ele><time>2026-04-12T12:04:20Z</time></trkpt><trkpt lat="44.70074735379768" lon="7.84823214410177"><ele>285.99999999999994</ele><time>2026-04-12T12:04:22Z</time></trkpt><trkpt lat="44.7008120828306" lon="7.848198256142828"><ele>286.0</ele><time>2026-04-12T12:04:24Z</time></trkpt><trkpt lat="44.70087624422409" lon="7.8481794854687985"><ele>286.0</ele><time>2026-04-12T12:04:26Z</time></trkpt><trkpt lat="44.70094562737819" lon="7.848170445595021"><ele>286.0</ele><time>2026-04-12T12:04:28Z</time></trkpt><trkpt lat="44.701008350823614" lon="7.848156743824212"><ele>286.0</ele><time>2026-04-12T12:04:30Z</time></trkpt><trkpt lat="44.701075637718404" lon="7.848145778267014"><ele>285.99999999999994</ele><time>2026-04-12T12:04:32Z</time></trkpt><trkpt lat="44.701141515379796" lon="7.848124947312883"><ele>286.0</ele><time>2026-04-12T12:04:34Z</time></trkpt><trkpt lat="44.70120248239613" lon="7.848100983150538"><ele>286.71428571428567</ele><time>2026-04-12T12:04:36Z</time></trkpt><trkpt lat="44.70126414622859" lon="7.848077721401694"><ele>287.42857142857144</ele><time>2026-04-12T12:04:38Z</time></trkpt><trkpt lat="44.70132698908281" lon="7.84805556434571"><ele>288.1428571428571</ele><time>2026-04-12T12:04:40Z</time></trkpt><trkpt lat="44.701386538880996" lon="7.84801797516842"><ele>288.85714285714283</ele><time>2026-04-12T12:04:42Z</time></trkpt><trkpt lat="44.701433299549976" lon="7.847943037183608"><ele>289.57142857142856</ele><time>2026-04-12T12:04:44Z</time></trkpt><trkpt lat="44.70151567903473" lon="7.847861716160947"><ele>290.2857142857143</ele><time>2026-04-12T12:04:47Z</time></trkpt><trkpt lat="44.7015711556552" lon="7.847801052105343"><ele>291.0</ele><time>2026-04-12T12:04:49Z</time></trkpt><trkpt lat="44.701629412875576" lon="7.847743221747224"><ele>291.0</ele><time>2026-04-12T12:04:51Z</time></trkpt><trkpt lat="44.70168406350076" lon="7.847689200195608"><ele>291.0</ele><time>2026-04-12T12:04:53Z</time></trkpt><trkpt lat="44.70173300561581" lon="7.847630245484251"><ele>291.0</ele><time>2026-04-12T12:04:55Z</time></trkpt><trkpt lat="44.70178899826824" lon="7.847583674752463"><ele>291.0</ele><time>2026-04-12T12:04:57Z</time></trkpt><trkpt lat="44.70186819688132" lon="7.84750991517002"><ele>291.0</ele><time>2026-04-12T12:05:00Z</time></trkpt><trkpt lat="44.70191889777892" lon="7.847450888331567"><ele>291.0</ele><time>2026-04-12T12:05:02Z</time></trkpt><trkpt lat="44.701971298909235" lon="7.847391623255548"><ele>291.0</ele><time>2026-04-12T12:05:04Z</time></trkpt><trkpt lat="44.702029190432135" lon="7.84733710525865"><ele>291.0</ele><time>2026-04-12T12:05:06Z</time></trkpt><trkpt lat="44.702085418641026" lon="7.847283910424426"><ele>291.0</ele><time>2026-04-12T12:05:08Z</time></trkpt><trkpt lat="44.702139150366364" lon="7.847230140958578"><ele>291.0</ele><time>2026-04-12T12:05:10Z</time></trkpt><trkpt lat="44.70219648164999" lon="7.847181282807147"><ele>291.0</ele><time>2026-04-12T12:05:12Z</time></trkpt><trkpt lat="44.702253241467794" lon="7.847133222713147"><ele>291.0</ele><time>2026-04-12T12:05:14Z</time></trkpt><trkpt lat="44.70230660407951" lon="7.847085351544206"><ele>291.0</ele><time>2026-04-12T12:05:16Z</time></trkpt><trkpt lat="44.70237063278826" lon="7.84702069999089"><ele>291.0</ele><time>2026-04-12T12:05:19Z</time></trkpt><trkpt lat="44.70244144105105" lon="7.84696120800491"><ele>291.0</ele><time>2026-04-12T12:05:22Z</time></trkpt><trkpt lat="44.70250952536448" lon="7.8469443751340116"><ele>291.0</ele><time>2026-04-12T12:05:24Z</time></trkpt><trkpt lat="44.702578567504595" lon="7.846892207219895"><ele>291.0</ele><time>2026-04-12T12:05:26Z</time></trkpt><trkpt lat="44.70265936591402" lon="7.846806819113901"><ele>291.0</ele><time>2026-04-12T12:05:28Z</time></trkpt><trkpt lat="44.70273343809432" lon="7.84674309459064"><ele>291.0</ele><time>2026-04-12T12:05:30Z</time></trkpt><trkpt lat="44.702817308564526" lon="7.846673616147031"><ele>291.0</ele><time>2026-04-12T12:05:33Z</time></trkpt><trkpt lat="44.70287376075522" lon="7.84662157607815"><ele>290.85714285714283</ele><time>2026-04-12T12:05:35Z</time></trkpt><trkpt lat="44.70292795297905" lon="7.84656859994947"><ele>290.71428571428567</ele><time>2026-04-12T12:05:37Z</time></trkpt><trkpt lat="44.702984768576854" lon="7.846516924613541"><ele>290.57142857142856</ele><time>2026-04-12T12:05:39Z</time></trkpt><trkpt lat="44.70304715703859" lon="7.846459309441926"><ele>290.42857142857144</ele><time>2026-04-12T12:05:41Z</time></trkpt><trkpt lat="44.7031070615027" lon="7.846405815235822"><ele>290.28571428571433</ele><time>2026-04-12T12:05:43Z</time></trkpt><trkpt lat="44.703162446569706" lon="7.846352506220288"><ele>290.14285714285717</ele><time>2026-04-12T12:05:45Z</time></trkpt><trkpt lat="44.70321373113698" lon="7.846293872960059"><ele>290.0</ele><time>2026-04-12T12:05:47Z</time></trkpt><trkpt lat="44.70328799222039" lon="7.846234442874078"><ele>290.0</ele><time>2026-04-12T12:05:50Z</time></trkpt><trkpt lat="44.70335382944469" lon="7.846181620710216"><ele>290.0</ele><time>2026-04-12T12:05:53Z</time></trkpt><trkpt lat="44.70341370004508" lon="7.846105144493866"><ele>290.0</ele><time>2026-04-12T12:05:56Z</time></trkpt><trkpt lat="44.70345317283966" lon="7.846008838588681"><ele>290.0</ele><time>2026-04-12T12:05:59Z</time></trkpt><trkpt lat="44.70345272448012" lon="7.845918343408378"><ele>290.0</ele><time>2026-04-12T12:06:02Z</time></trkpt><trkpt lat="44.703407798868426" lon="7.84584094492448"><ele>290.0</ele><time>2026-04-12T12:06:05Z</time></trkpt><trkpt lat="44.70346394135731" lon="7.845773397846025"><ele>290.0</ele><time>2026-04-12T12:06:08Z</time></trkpt><trkpt lat="44.703536684460445" lon="7.845746495345527"><ele>289.6666666666667</ele><time>2026-04-12T12:06:11Z</time></trkpt><trkpt lat="44.70357208510152" lon="7.845650934904258"><ele>289.33333333333337</ele><time>2026-04-12T12:06:14Z</time></trkpt><trkpt lat="44.70353129099257" lon="7.845561310006368"><ele>289.0</ele><time>2026-04-12T12:06:16Z</time></trkpt><trkpt lat="44.70346910146637" lon="7.845497146618264"><ele>288.6666666666667</ele><time>2026-04-12T12:06:18Z</time></trkpt><trkpt lat="44.703433418496154" lon="7.845403876633269"><ele>288.3333333333333</ele><time>2026-04-12T12:06:20Z</time></trkpt><trkpt lat="44.70338372290977" lon="7.845310639382474"><ele>288.0</ele><time>2026-04-12T12:06:22Z</time></trkpt><trkpt lat="44.703339821633904" lon="7.845206854505868"><ele>287.6</ele><time>2026-04-12T12:06:24Z</time></trkpt><trkpt lat="44.703295359904956" lon="7.845099815467156"><ele>287.20000000000005</ele><time>2026-04-12T12:06:26Z</time></trkpt><trkpt lat="44.70330245281136" lon="7.84497477169052"><ele>286.8</ele><time>2026-04-12T12:06:28Z</time></trkpt><trkpt lat="44.7033896580814" lon="7.8449029664781715"><ele>286.40000000000003</ele><time>2026-04-12T12:06:30Z</time></trkpt><trkpt lat="44.70345824967931" lon="7.844809066001477"><ele>286.0</ele><time>2026-04-12T12:06:32Z</time></trkpt><trkpt lat="44.70349782334497" lon="7.84468558943109"><ele>286.0</ele><time>2026-04-12T12:06:34Z</time></trkpt><trkpt lat="44.703465685517585" lon="7.844546774262935"><ele>286.0</ele><time>2026-04-12T12:06:36Z</time></trkpt><trkpt lat="44.703448580816705" lon="7.844424005542556"><ele>286.0</ele><time>2026-04-12T12:06:38Z</time></trkpt><trkpt lat="44.70341576756081" lon="7.844306725407023"><ele>286.0</ele><time>2026-04-12T12:06:40Z</time></trkpt><trkpt lat="44.703424947599416" lon="7.844184716732736"><ele>286.0</ele><time>2026-04-12T12:06:42Z</time></trkpt><trkpt lat="44.70346604890922" lon="7.844072338718479"><ele>285.8333333333333</ele><time>2026-04-12T12:06:44Z</time></trkpt><trkpt lat="44.703533120620605" lon="7.843986485081014"><ele>285.66666666666663</ele><time>2026-04-12T12:06:46Z</time></trkpt><trkpt lat="44.7035838273612" lon="7.843903876079275"><ele>285.5</ele><time>2026-04-12T12:06:48Z</time></trkpt><trkpt lat="44.703647955788064" lon="7.843833831363753"><ele>285.3333333333333</ele><time>2026-04-12T12:06:50Z</time></trkpt><trkpt lat="44.703700864207676" lon="7.84377127320378"><ele>285.1666666666667</ele><time>2026-04-12T12:06:52Z</time></trkpt><trkpt lat="44.7037237933684" lon="7.843672439410458"><ele>285.0</ele><time>2026-04-12T12:06:54Z</time></trkpt><trkpt lat="44.70367394826731" lon="7.843561028820646"><ele>285.0</ele><time>2026-04-12T12:06:56Z</time></trkpt><trkpt lat="44.70360674251129" lon="7.843478679505734"><ele>285.0</ele><time>2026-04-12T12:06:58Z</time></trkpt><trkpt lat="44.703579581023554" lon="7.843362690520509"><ele>285.0</ele><time>2026-04-12T12:07:00Z</time></trkpt><trkpt lat="44.70353234884383" lon="7.8432679449860565"><ele>285.0</ele><time>2026-04-12T12:07:02Z</time></trkpt><trkpt lat="44.70350129475986" lon="7.843171395788951"><ele>285.0</ele><time>2026-04-12T12:07:04Z</time></trkpt><trkpt lat="44.70345743761652" lon="7.843085044437286"><ele>285.0</ele><time>2026-04-12T12:07:06Z</time></trkpt><trkpt lat="44.703424172667646" lon="7.843007971089725"><ele>284.6666666666667</ele><time>2026-04-12T12:07:08Z</time></trkpt><trkpt lat="44.703459256134224" lon="7.842927852349437"><ele>284.3333333333333</ele><time>2026-04-12T12:07:10Z</time></trkpt><trkpt lat="44.70350364370224" lon="7.842850091759255"><ele>284.0</ele><time>2026-04-12T12:07:12Z</time></trkpt><trkpt lat="44.703460446060255" lon="7.842736062862531"><ele>283.66666666666663</ele><time>2026-04-12T12:07:14Z</time></trkpt><trkpt lat="44.703416308723064" lon="7.842640498178625"><ele>283.3333333333333</ele><time>2026-04-12T12:07:16Z</time></trkpt><trkpt lat="44.703375811111634" lon="7.8425347242912276"><ele>283.0</ele><time>2026-04-12T12:07:18Z</time></trkpt><trkpt lat="44.70333460906045" lon="7.842428622639657"><ele>282.8333333333333</ele><time>2026-04-12T12:07:20Z</time></trkpt><trkpt lat="44.70328683296192" lon="7.842331523081801"><ele>282.66666666666663</ele><time>2026-04-12T12:07:22Z</time></trkpt><trkpt lat="44.70324385126752" lon="7.842232037053691"><ele>282.5</ele><time>2026-04-12T12:07:24Z</time></trkpt><trkpt lat="44.703202346150974" lon="7.842138915843859"><ele>282.3333333333333</ele><time>2026-04-12T12:07:26Z</time></trkpt><trkpt lat="44.70317298886073" lon="7.842043470326093"><ele>282.1666666666667</ele><time>2026-04-12T12:07:28Z</time></trkpt><trkpt lat="44.70312498102007" lon="7.841933148927455"><ele>282.0</ele><time>2026-04-12T12:07:31Z</time></trkpt><trkpt lat="44.70316324523526" lon="7.84183763596154"><ele>282.0</ele><time>2026-04-12T12:07:34Z</time></trkpt><trkpt lat="44.703234074007916" lon="7.8418110097442115"><ele>282.0</ele><time>2026-04-12T12:07:36Z</time></trkpt><trkpt lat="44.70330132181907" lon="7.841765694396026"><ele>282.0</ele><time>2026-04-12T12:07:38Z</time></trkpt><trkpt lat="44.70336959933705" lon="7.841711420782751"><ele>282.0</ele><time>2026-04-12T12:07:40Z</time></trkpt><trkpt lat="44.70343726084281" lon="7.841661076226361"><ele>282.0</ele><time>2026-04-12T12:07:42Z</time></trkpt><trkpt lat="44.70349964458091" lon="7.841604692869954"><ele>282.0</ele><time>2026-04-12T12:07:44Z</time></trkpt><trkpt lat="44.70356660458723" lon="7.8415495530800685"><ele>281.6666666666667</ele><time>2026-04-12T12:07:46Z</time></trkpt><trkpt lat="44.703634110891485" lon="7.841493432111502"><ele>281.3333333333333</ele><time>2026-04-12T12:07:48Z</time></trkpt><trkpt lat="44.70369943227846" lon="7.84141931548205"><ele>281.0</ele><time>2026-04-12T12:07:50Z</time></trkpt><trkpt lat="44.70377243802295" lon="7.8413655114819"><ele>280.66666666666663</ele><time>2026-04-12T12:07:52Z</time></trkpt><trkpt lat="44.70383824351039" lon="7.841301794952707"><ele>280.3333333333333</ele><time>2026-04-12T12:07:54Z</time></trkpt><trkpt lat="44.70390678834526" lon="7.8412218821763755"><ele>280.0</ele><time>2026-04-12T12:07:56Z</time></trkpt><trkpt lat="44.70398788165847" lon="7.841158214162246"><ele>280.0</ele><time>2026-04-12T12:07:58Z</time></trkpt><trkpt lat="44.70406482692859" lon="7.841087109340486"><ele>280.0</ele><time>2026-04-12T12:08:00Z</time></trkpt><trkpt lat="44.70414401883995" lon="7.841021579946962"><ele>280.0</ele><time>2026-04-12T12:08:02Z</time></trkpt><trkpt lat="44.70422043005881" lon="7.840955795426122"><ele>280.0</ele><time>2026-04-12T12:08:04Z</time></trkpt><trkpt lat="44.70429351738078" lon="7.84087741781525"><ele>280.0</ele><time>2026-04-12T12:08:06Z</time></trkpt><trkpt lat="44.70436707421462" lon="7.840827661226536"><ele>280.0</ele><time>2026-04-12T12:08:08Z</time></trkpt><trkpt lat="44.70444494599809" lon="7.8407673374849365"><ele>280.0</ele><time>2026-04-12T12:08:10Z</time></trkpt><trkpt lat="44.70451372484054" lon="7.8407072055389575"><ele>280.0</ele><time>2026-04-12T12:08:12Z</time></trkpt><trkpt lat="44.70458710111269" lon="7.8406547295786"><ele>280.0</ele><time>2026-04-12T12:08:14Z</time></trkpt><trkpt lat="44.70465778850673" lon="7.840584579068202"><ele>280.0</ele><time>2026-04-12T12:08:16Z</time></trkpt><trkpt lat="44.70473561062108" lon="7.840532994690216"><ele>280.0</ele><time>2026-04-12T12:08:18Z</time></trkpt><trkpt lat="44.70480831282868" lon="7.84047041798296"><ele>280.0</ele><time>2026-04-12T12:08:20Z</time></trkpt><trkpt lat="44.70487249732511" lon="7.84039137131976"><ele>280.0</ele><time>2026-04-12T12:08:22Z</time></trkpt><trkpt lat="44.704915462834535" lon="7.8403056364321335"><ele>280.0</ele><time>2026-04-12T12:08:24Z</time></trkpt><trkpt lat="44.70496383924805" lon="7.8402254496428245"><ele>280.0</ele><time>2026-04-12T12:08:26Z</time></trkpt><trkpt lat="44.70495883670748" lon="7.84010786446521"><ele>280.0</ele><time>2026-04-12T12:08:28Z</time></trkpt><trkpt lat="44.704892314768855" lon="7.840016316602427"><ele>280.0</ele><time>2026-04-12T12:08:30Z</time></trkpt><trkpt lat="44.70484413205422" lon="7.839925558696838"><ele>280.0</ele><time>2026-04-12T12:08:32Z</time></trkpt><trkpt lat="44.70482882926553" lon="7.839818926066151"><ele>279.66666666666663</ele><time>2026-04-12T12:08:34Z</time></trkpt><trkpt lat="44.704855950886" lon="7.839703079394749"><ele>279.3333333333333</ele><time>2026-04-12T12:08:36Z</time></trkpt><trkpt lat="44.704904924543925" lon="7.839606159133633"><ele>279.0</ele><time>2026-04-12T12:08:38Z</time></trkpt><trkpt lat="44.70495470480369" lon="7.839508948001243"><ele>278.6666666666667</ele><time>2026-04-12T12:08:40Z</time></trkpt><trkpt lat="44.70497074350237" lon="7.839403803175618"><ele>278.33333333333337</ele><time>2026-04-12T12:08:42Z</time></trkpt><trkpt lat="44.70498347109717" lon="7.8392965055664146"><ele>278.0</ele><time>2026-04-12T12:08:44Z</time></trkpt><trkpt lat="44.70499508401391" lon="7.839181729583676"><ele>277.7142857142857</ele><time>2026-04-12T12:08:46Z</time></trkpt><trkpt lat="44.70499290430345" lon="7.839064098603489"><ele>277.42857142857144</ele><time>2026-04-12T12:08:48Z</time></trkpt><trkpt lat="44.70498544508038" lon="7.838950974001357"><ele>277.14285714285717</ele><time>2026-04-12T12:08:50Z</time></trkpt><trkpt lat="44.704969780933745" lon="7.83884642798955"><ele>276.8571428571429</ele><time>2026-04-12T12:08:52Z</time></trkpt><trkpt lat="44.70493711410243" lon="7.838756110627361"><ele>276.5714285714286</ele><time>2026-04-12T12:08:54Z</time></trkpt><trkpt lat="44.7049031222047" lon="7.838670452383136"><ele>276.2857142857143</ele><time>2026-04-12T12:08:56Z</time></trkpt><trkpt lat="44.70488583570498" lon="7.838580846209937"><ele>276.0</ele><time>2026-04-12T12:08:58Z</time></trkpt><trkpt lat="44.7048444248183" lon="7.838513071675412"><ele>275.8333333333333</ele><time>2026-04-12T12:09:00Z</time></trkpt><trkpt lat="44.70485932795247" lon="7.838420838983229"><ele>275.6666666666667</ele><time>2026-04-12T12:09:02Z</time></trkpt><trkpt lat="44.70492473638259" lon="7.838360309541937"><ele>275.5</ele><time>2026-04-12T12:09:04Z</time></trkpt><trkpt lat="44.70498382560943" lon="7.8382959878513985"><ele>275.33333333333337</ele><time>2026-04-12T12:09:06Z</time></trkpt><trkpt lat="44.70504146418206" lon="7.838222056742515"><ele>275.1666666666667</ele><time>2026-04-12T12:09:08Z</time></trkpt><trkpt lat="44.70510487521248" lon="7.838132874681273"><ele>275.0</ele><time>2026-04-12T12:09:10Z</time></trkpt><trkpt lat="44.705176732269976" lon="7.838044614195265"><ele>275.6</ele><time>2026-04-12T12:09:12Z</time></trkpt><trkpt lat="44.70525494005957" lon="7.8379557013833745"><ele>276.2</ele><time>2026-04-12T12:09:14Z</time></trkpt><trkpt lat="44.70533632414674" lon="7.837869478216488"><ele>276.8</ele><time>2026-04-12T12:09:16Z</time></trkpt><trkpt lat="44.70540923494433" lon="7.837761275413306"><ele>277.4</ele><time>2026-04-12T12:09:18Z</time></trkpt><trkpt lat="44.70548259963196" lon="7.8376557265085385"><ele>278.0</ele><time>2026-04-12T12:09:20Z</time></trkpt><trkpt lat="44.70554834091964" lon="7.8375510806222115"><ele>278.0</ele><time>2026-04-12T12:09:22Z</time></trkpt><trkpt lat="44.70561713775718" lon="7.837453642269889"><ele>278.0</ele><time>2026-04-12T12:09:24Z</time></trkpt><trkpt lat="44.70567628827124" lon="7.8373441551997"><ele>278.0</ele><time>2026-04-12T12:09:26Z</time></trkpt><trkpt lat="44.705756591376996" lon="7.837252277534832"><ele>278.0</ele><time>2026-04-12T12:09:28Z</time></trkpt><trkpt lat="44.70583304489748" lon="7.837157353949457"><ele>278.0</ele><time>2026-04-12T12:09:30Z</time></trkpt><trkpt lat="44.70590604108119" lon="7.837061099375672"><ele>278.0</ele><time>2026-04-12T12:09:32Z</time></trkpt><trkpt lat="44.70597816990143" lon="7.836962769412358"><ele>278.0</ele><time>2026-04-12T12:09:34Z</time></trkpt><trkpt lat="44.70604986645614" lon="7.836873188307409"><ele>278.0</ele><time>2026-04-12T12:09:36Z</time></trkpt><trkpt lat="44.706119279325776" lon="7.836792198279267"><ele>278.0</ele><time>2026-04-12T12:09:38Z</time></trkpt><trkpt lat="44.70618933874026" lon="7.836717003429007"><ele>278.0</ele><time>2026-04-12T12:09:40Z</time></trkpt><trkpt lat="44.70626518512891" lon="7.836648134471796"><ele>278.33333333333337</ele><time>2026-04-12T12:09:42Z</time></trkpt><trkpt lat="44.706342380591636" lon="7.8365950987598065"><ele>278.6666666666667</ele><time>2026-04-12T12:09:44Z</time></trkpt><trkpt lat="44.70641125853935" lon="7.8365281488844625"><ele>279.0</ele><time>2026-04-12T12:09:46Z</time></trkpt><trkpt lat="44.706481690072934" lon="7.8364696857257465"><ele>279.3333333333333</ele><time>2026-04-12T12:09:48Z</time></trkpt><trkpt lat="44.706548909838745" lon="7.836409186568946"><ele>279.66666666666663</ele><time>2026-04-12T12:09:50Z</time></trkpt><trkpt lat="44.706613151819255" lon="7.836342529145241"><ele>280.0</ele><time>2026-04-12T12:09:52Z</time></trkpt><trkpt lat="44.70668291623777" lon="7.836288195047107"><ele>280.0</ele><time>2026-04-12T12:09:54Z</time></trkpt><trkpt lat="44.70675297007801" lon="7.836237218699006"><ele>280.0</ele><time>2026-04-12T12:09:56Z</time></trkpt><trkpt lat="44.70682209345255" lon="7.836178765422211"><ele>280.0</ele><time>2026-04-12T12:09:58Z</time></trkpt><trkpt lat="44.706884026492034" lon="7.836128221642336"><ele>280.0</ele><time>2026-04-12T12:10:00Z</time></trkpt><trkpt lat="44.70696385030214" lon="7.8360653317717555"><ele>280.0</ele><time>2026-04-12T12:10:03Z</time></trkpt><trkpt lat="44.70703066635325" lon="7.836003781282484"><ele>280.0</ele><time>2026-04-12T12:10:07Z</time></trkpt><trkpt lat="44.707027100286176" lon="7.835869019387097"><ele>280.0</ele><time>2026-04-12T12:10:10Z</time></trkpt><trkpt lat="44.7069923355058" lon="7.835777299893511"><ele>280.0</ele><time>2026-04-12T12:10:12Z</time></trkpt><trkpt lat="44.70696208995439" lon="7.835674274529485"><ele>280.0</ele><time>2026-04-12T12:10:14Z</time></trkpt><trkpt lat="44.70693566829821" lon="7.835558289569813"><ele>280.0</ele><time>2026-04-12T12:10:16Z</time></trkpt><trkpt lat="44.70690669481311" lon="7.835435924497003"><ele>280.0</ele><time>2026-04-12T12:10:18Z</time></trkpt><trkpt lat="44.70687942485781" lon="7.835315225227935"><ele>280.0</ele><time>2026-04-12T12:10:20Z</time></trkpt><trkpt lat="44.70685462046592" lon="7.835201824884868"><ele>280.0</ele><time>2026-04-12T12:10:22Z</time></trkpt><trkpt lat="44.70682811868167" lon="7.835086057525661"><ele>280.0</ele><time>2026-04-12T12:10:24Z</time></trkpt><trkpt lat="44.70681332245486" lon="7.834972229120938"><ele>280.0</ele><time>2026-04-12T12:10:26Z</time></trkpt><trkpt lat="44.706793622231984" lon="7.8348610736391056"><ele>280.0</ele><time>2026-04-12T12:10:28Z</time></trkpt><trkpt lat="44.70677778996824" lon="7.834739183383146"><ele>280.0</ele><time>2026-04-12T12:10:30Z</time></trkpt><trkpt lat="44.70676431805444" lon="7.83462543746326"><ele>280.0</ele><time>2026-04-12T12:10:32Z</time></trkpt><trkpt lat="44.70675961983626" lon="7.834506140615228"><ele>280.0</ele><time>2026-04-12T12:10:34Z</time></trkpt><trkpt lat="44.70676614240057" lon="7.834384893828653"><ele>280.0</ele><time>2026-04-12T12:10:36Z</time></trkpt><trkpt lat="44.706777985094554" lon="7.834257731325388"><ele>280.0</ele><time>2026-04-12T12:10:38Z</time></trkpt><trkpt lat="44.706791607269665" lon="7.834132196069545"><ele>280.0</ele><time>2026-04-12T12:10:40Z</time></trkpt><trkpt lat="44.70680203091873" lon="7.834015677066277"><ele>280.0</ele><time>2026-04-12T12:10:42Z</time></trkpt><trkpt lat="44.70682363373557" lon="7.833896244601295"><ele>280.0</ele><time>2026-04-12T12:10:44Z</time></trkpt><trkpt lat="44.70685092571851" lon="7.833779519640798"><ele>279.8333333333333</ele><time>2026-04-12T12:10:46Z</time></trkpt><trkpt lat="44.706875437225726" lon="7.833656879146141"><ele>279.66666666666663</ele><time>2026-04-12T12:10:48Z</time></trkpt><trkpt lat="44.70690501274389" lon="7.833538223106589"><ele>279.5</ele><time>2026-04-12T12:10:50Z</time></trkpt><trkpt lat="44.70692829138479" lon="7.833422067797537"><ele>279.3333333333333</ele><time>2026-04-12T12:10:52Z</time></trkpt><trkpt lat="44.706956460680466" lon="7.833313965440685"><ele>279.1666666666667</ele><time>2026-04-12T12:10:54Z</time></trkpt><trkpt lat="44.706974943696565" lon="7.833200044760088"><ele>279.0</ele><time>2026-04-12T12:10:56Z</time></trkpt><trkpt lat="44.70700192270832" lon="7.833087181303243"><ele>278.6666666666667</ele><time>2026-04-12T12:10:58Z</time></trkpt><trkpt lat="44.70702980718391" lon="7.832970675045784"><ele>278.3333333333333</ele><time>2026-04-12T12:11:00Z</time></trkpt><trkpt lat="44.70705994567925" lon="7.832854439930883"><ele>278.0</ele><time>2026-04-12T12:11:02Z</time></trkpt><trkpt lat="44.707085093211425" lon="7.83274552086022"><ele>277.66666666666663</ele><time>2026-04-12T12:11:04Z</time></trkpt><trkpt lat="44.707109023685554" lon="7.832637257835186"><ele>277.3333333333333</ele><time>2026-04-12T12:11:06Z</time></trkpt><trkpt lat="44.70713735802172" lon="7.83253387336634"><ele>277.0</ele><time>2026-04-12T12:11:08Z</time></trkpt><trkpt lat="44.70715033120502" lon="7.832423561199187"><ele>276.8333333333333</ele><time>2026-04-12T12:11:10Z</time></trkpt><trkpt lat="44.70717817262383" lon="7.832311769754615"><ele>276.66666666666663</ele><time>2026-04-12T12:11:12Z</time></trkpt><trkpt lat="44.707207044348365" lon="7.832196295184282"><ele>276.5</ele><time>2026-04-12T12:11:14Z</time></trkpt><trkpt lat="44.70723220746891" lon="7.832077234006073"><ele>276.3333333333333</ele><time>2026-04-12T12:11:16Z</time></trkpt><trkpt lat="44.707260257734106" lon="7.8319702209329005"><ele>276.1666666666667</ele><time>2026-04-12T12:11:18Z</time></trkpt><trkpt lat="44.70727706506757" lon="7.8318700740676315"><ele>276.0</ele><time>2026-04-12T12:11:20Z</time></trkpt><trkpt lat="44.707316991530504" lon="7.831760760367593"><ele>276.3333333333333</ele><time>2026-04-12T12:11:23Z</time></trkpt><trkpt lat="44.707373704554534" lon="7.831715587489353"><ele>276.6666666666667</ele><time>2026-04-12T12:11:25Z</time></trkpt><trkpt lat="44.7074563010091" lon="7.831675494197873"><ele>277.0</ele><time>2026-04-12T12:11:27Z</time></trkpt><trkpt lat="44.707524513797814" lon="7.831619446900068"><ele>277.33333333333337</ele><time>2026-04-12T12:11:29Z</time></trkpt><trkpt lat="44.707601159851016" lon="7.831581721183578"><ele>277.6666666666667</ele><time>2026-04-12T12:11:31Z</time></trkpt><trkpt lat="44.70767714576752" lon="7.831551232211245"><ele>278.0</ele><time>2026-04-12T12:11:33Z</time></trkpt><trkpt lat="44.70775177969172" lon="7.831566213589422"><ele>278.33333333333337</ele><time>2026-04-12T12:11:35Z</time></trkpt><trkpt lat="44.70781960098579" lon="7.8316424377187355"><ele>278.6666666666667</ele><time>2026-04-12T12:11:37Z</time></trkpt><trkpt lat="44.707888847400305" lon="7.8317057650559505"><ele>279.0</ele><time>2026-04-12T12:11:39Z</time></trkpt><trkpt lat="44.707948198124676" lon="7.831780454119175"><ele>279.3333333333333</ele><time>2026-04-12T12:11:41Z</time></trkpt><trkpt lat="44.70800792887891" lon="7.831847294202949"><ele>279.66666666666663</ele><time>2026-04-12T12:11:43Z</time></trkpt><trkpt lat="44.70806002150823" lon="7.831907056572689"><ele>280.0</ele><time>2026-04-12T12:11:45Z</time></trkpt><trkpt lat="44.70813492674924" lon="7.831951237790104"><ele>280.0</ele><time>2026-04-12T12:11:48Z</time></trkpt><trkpt lat="44.70820797475897" lon="7.8319383525977955"><ele>280.0</ele><time>2026-04-12T12:11:51Z</time></trkpt><trkpt lat="44.708288478106105" lon="7.831950523663063"><ele>280.0</ele><time>2026-04-12T12:11:54Z</time></trkpt><trkpt lat="44.708344852581746" lon="7.832042717880285"><ele>280.0</ele><time>2026-04-12T12:11:57Z</time></trkpt><trkpt lat="44.70839163146033" lon="7.832110064588906"><ele>280.0</ele><time>2026-04-12T12:11:59Z</time></trkpt><trkpt lat="44.708450567202874" lon="7.832154564589266"><ele>280.0</ele><time>2026-04-12T12:12:01Z</time></trkpt><trkpt lat="44.70852380335652" lon="7.832218124878714"><ele>280.3333333333333</ele><time>2026-04-12T12:12:04Z</time></trkpt><trkpt lat="44.70861185882721" lon="7.83226377243062"><ele>280.66666666666663</ele><time>2026-04-12T12:12:07Z</time></trkpt><trkpt lat="44.70867792919609" lon="7.832333354717745"><ele>281.0</ele><time>2026-04-12T12:12:10Z</time></trkpt><trkpt lat="44.70875211119551" lon="7.832402523736184"><ele>281.3333333333333</ele><time>2026-04-12T12:12:13Z</time></trkpt><trkpt lat="44.70880489726983" lon="7.8324650791095305"><ele>281.6666666666667</ele><time>2026-04-12T12:12:15Z</time></trkpt><trkpt lat="44.70886873241083" lon="7.83250287400226"><ele>282.0</ele><time>2026-04-12T12:12:17Z</time></trkpt><trkpt lat="44.708936690129526" lon="7.832532851453613"><ele>282.0</ele><time>2026-04-12T12:12:19Z</time></trkpt><trkpt lat="44.708990336953825" lon="7.8325877927137375"><ele>282.0</ele><time>2026-04-12T12:12:21Z</time></trkpt><trkpt lat="44.70904501745495" lon="7.83263689954542"><ele>282.0</ele><time>2026-04-12T12:12:23Z</time></trkpt><trkpt lat="44.70912250832879" lon="7.8326910052150565"><ele>282.0</ele><time>2026-04-12T12:12:26Z</time></trkpt><trkpt lat="44.70921047402705" lon="7.832713283010143"><ele>282.0</ele><time>2026-04-12T12:12:29Z</time></trkpt><trkpt lat="44.709299990735325" lon="7.832749468399597"><ele>282.0</ele><time>2026-04-12T12:12:32Z</time></trkpt><trkpt lat="44.709363029800066" lon="7.832769706683253"><ele>281.6666666666667</ele><time>2026-04-12T12:12:34Z</time></trkpt><trkpt lat="44.70943424720086" lon="7.832783897403602"><ele>281.3333333333333</ele><time>2026-04-12T12:12:36Z</time></trkpt><trkpt lat="44.70952554267417" lon="7.832821154106344"><ele>281.0</ele><time>2026-04-12T12:12:39Z</time></trkpt><trkpt lat="44.70957771691235" lon="7.832884091776771"><ele>280.66666666666663</ele><time>2026-04-12T12:12:41Z</time></trkpt><trkpt lat="44.709663081801104" lon="7.832942204579542"><ele>280.3333333333333</ele><time>2026-04-12T12:12:44Z</time></trkpt><trkpt lat="44.70972986707549" lon="7.8329699678594755"><ele>280.0</ele><time>2026-04-12T12:12:46Z</time></trkpt><trkpt lat="44.7097888823549" lon="7.833007574565299"><ele>280.0</ele><time>2026-04-12T12:12:48Z</time></trkpt><trkpt lat="44.709842854003284" lon="7.83305511252284"><ele>280.0</ele><time>2026-04-12T12:12:50Z</time></trkpt><trkpt lat="44.70992945315033" lon="7.833081210595178"><ele>280.0</ele><time>2026-04-12T12:12:53Z</time></trkpt><trkpt lat="44.70999433756889" lon="7.8330740250987025"><ele>280.0</ele><time>2026-04-12T12:12:57Z</time></trkpt><trkpt lat="44.71008454164791" lon="7.833086722000501"><ele>280.0</ele><time>2026-04-12T12:13:00Z</time></trkpt><trkpt lat="44.71016113209514" lon="7.833083435606206"><ele>280.0</ele><time>2026-04-12T12:13:03Z</time></trkpt><trkpt lat="44.710244454300835" lon="7.833118546539511"><ele>280.42857142857144</ele><time>2026-04-12T12:13:07Z</time></trkpt><trkpt lat="44.710293245436596" lon="7.833177102190646"><ele>280.8571428571429</ele><time>2026-04-12T12:13:11Z</time></trkpt><trkpt lat="44.7103675552419" lon="7.83310370479588"><ele>281.2857142857143</ele><time>2026-04-12T12:13:14Z</time></trkpt><trkpt lat="44.71039190466245" lon="7.833015554430208"><ele>281.7142857142857</ele><time>2026-04-12T12:13:17Z</time></trkpt><trkpt lat="44.710423430269394" lon="7.832930264069901"><ele>282.14285714285717</ele><time>2026-04-12T12:13:21Z</time></trkpt><trkpt lat="44.71044863145053" lon="7.83284279631322"><ele>282.57142857142856</ele><time>2026-04-12T12:13:26Z</time></trkpt><trkpt lat="44.710511844655976" lon="7.832833075959161"><ele>283.0</ele><time>2026-04-12T12:13:30Z</time></trkpt><trkpt lat="44.71058358092457" lon="7.832838716075366"><ele>283.0</ele><time>2026-04-12T12:13:33Z</time></trkpt><trkpt lat="44.710655980704495" lon="7.8327980521637235"><ele>283.0</ele><time>2026-04-12T12:13:36Z</time></trkpt><trkpt lat="44.71071669746852" lon="7.832740168206857"><ele>283.0</ele><time>2026-04-12T12:13:38Z</time></trkpt><trkpt lat="44.710786426187624" lon="7.832670992211055"><ele>283.0</ele><time>2026-04-12T12:13:40Z</time></trkpt><trkpt lat="44.71085787351382" lon="7.832596832721364"><ele>283.0</ele><time>2026-04-12T12:13:42Z</time></trkpt><trkpt lat="44.71092399526715" lon="7.832520982255237"><ele>283.0</ele><time>2026-04-12T12:13:44Z</time></trkpt><trkpt lat="44.71098929756181" lon="7.832441638903713"><ele>282.3333333333333</ele><time>2026-04-12T12:13:46Z</time></trkpt><trkpt lat="44.71105687264131" lon="7.832373178930229"><ele>281.66666666666663</ele><time>2026-04-12T12:13:48Z</time></trkpt><trkpt lat="44.7111242244331" lon="7.832303872838481"><ele>281.0</ele><time>2026-04-12T12:13:50Z</time></trkpt><trkpt lat="44.71119546972782" lon="7.8322358687925515"><ele>280.3333333333333</ele><time>2026-04-12T12:13:52Z</time></trkpt><trkpt lat="44.711260658000235" lon="7.83216256112012"><ele>279.6666666666667</ele><time>2026-04-12T12:13:54Z</time></trkpt><trkpt lat="44.7113327552297" lon="7.832089178679387"><ele>279.0</ele><time>2026-04-12T12:13:56Z</time></trkpt><trkpt lat="44.71139720405314" lon="7.832008854914789"><ele>279.0</ele><time>2026-04-12T12:13:58Z</time></trkpt><trkpt lat="44.71147112085839" lon="7.831936291476785"><ele>279.0</ele><time>2026-04-12T12:14:00Z</time></trkpt><trkpt lat="44.71155478173078" lon="7.831860932679907"><ele>279.0</ele><time>2026-04-12T12:14:02Z</time></trkpt><trkpt lat="44.711640770889126" lon="7.831778882767304"><ele>279.0</ele><time>2026-04-12T12:14:04Z</time></trkpt><trkpt lat="44.711724399092994" lon="7.831693764781948"><ele>279.0</ele><time>2026-04-12T12:14:06Z</time></trkpt><trkpt lat="44.7118104849706" lon="7.8316122855915316"><ele>278.2</ele><time>2026-04-12T12:14:08Z</time></trkpt><trkpt lat="44.711898517169004" lon="7.831528724434575"><ele>277.4</ele><time>2026-04-12T12:14:10Z</time></trkpt><trkpt lat="44.71199040271535" lon="7.831448023291509"><ele>276.6</ele><time>2026-04-12T12:14:12Z</time></trkpt><trkpt lat="44.71207906859618" lon="7.831371178839812"><ele>275.8</ele><time>2026-04-12T12:14:14Z</time></trkpt><trkpt lat="44.71216614898561" lon="7.831301151368325"><ele>275.0</ele><time>2026-04-12T12:14:16Z</time></trkpt><trkpt lat="44.712252749523564" lon="7.831229433960659"><ele>275.0</ele><time>2026-04-12T12:14:18Z</time></trkpt><trkpt lat="44.71233953710023" lon="7.831144112865777"><ele>275.0</ele><time>2026-04-12T12:14:20Z</time></trkpt><trkpt lat="44.71243027274282" lon="7.8310541189042775"><ele>275.0</ele><time>2026-04-12T12:14:22Z</time></trkpt><trkpt lat="44.71252593851259" lon="7.830955380271469"><ele>275.0</ele><time>2026-04-12T12:14:24Z</time></trkpt><trkpt lat="44.71261569347184" lon="7.83085795879669"><ele>275.0</ele><time>2026-04-12T12:14:26Z</time></trkpt><trkpt lat="44.71271369740891" lon="7.830757782007348"><ele>274.75</ele><time>2026-04-12T12:14:28Z</time></trkpt><trkpt lat="44.7128056489451" lon="7.830664057849273"><ele>274.5</ele><time>2026-04-12T12:14:30Z</time></trkpt><trkpt lat="44.71289862311379" lon="7.830564591763182"><ele>274.25</ele><time>2026-04-12T12:14:32Z</time></trkpt><trkpt lat="44.71298955558738" lon="7.830461955781046"><ele>274.0</ele><time>2026-04-12T12:14:34Z</time></trkpt><trkpt lat="44.713082825964165" lon="7.830361691361222"><ele>274.0</ele><time>2026-04-12T12:14:36Z</time></trkpt><trkpt lat="44.713168056754256" lon="7.83026398787044"><ele>274.0</ele><time>2026-04-12T12:14:38Z</time></trkpt><trkpt lat="44.71325578219486" lon="7.830165746228757"><ele>274.0</ele><time>2026-04-12T12:14:40Z</time></trkpt><trkpt lat="44.71334129435587" lon="7.8300714801386135"><ele>274.0</ele><time>2026-04-12T12:14:42Z</time></trkpt><trkpt lat="44.713421513952184" lon="7.829979713752378"><ele>274.0</ele><time>2026-04-12T12:14:44Z</time></trkpt><trkpt lat="44.71350561581955" lon="7.82989209165667"><ele>274.59999999999997</ele><time>2026-04-12T12:14:46Z</time></trkpt><trkpt lat="44.71359024865135" lon="7.829807913186797"><ele>275.2</ele><time>2026-04-12T12:14:48Z</time></trkpt><trkpt lat="44.713675897136504" lon="7.829726259969364"><ele>275.79999999999995</ele><time>2026-04-12T12:14:50Z</time></trkpt><trkpt lat="44.713763005100176" lon="7.829647029123791"><ele>276.4</ele><time>2026-04-12T12:14:52Z</time></trkpt><trkpt lat="44.71384939206171" lon="7.829566802354272"><ele>277.0</ele><time>2026-04-12T12:14:54Z</time></trkpt><trkpt lat="44.71393896903058" lon="7.829495619555677"><ele>277.0</ele><time>2026-04-12T12:14:56Z</time></trkpt><trkpt lat="44.714027041215886" lon="7.829423809536463"><ele>277.0</ele><time>2026-04-12T12:14:58Z</time></trkpt><trkpt lat="44.71411629446043" lon="7.829359945009619"><ele>277.0</ele><time>2026-04-12T12:15:00Z</time></trkpt><trkpt lat="44.714203624780964" lon="7.829292064338681"><ele>277.0</ele><time>2026-04-12T12:15:02Z</time></trkpt><trkpt lat="44.714300208918814" lon="7.829255259361969"><ele>277.0</ele><time>2026-04-12T12:15:04Z</time></trkpt><trkpt lat="44.71439447986452" lon="7.829230488757092"><ele>276.4</ele><time>2026-04-12T12:15:06Z</time></trkpt><trkpt lat="44.71448362014832" lon="7.829171039759558"><ele>275.79999999999995</ele><time>2026-04-12T12:15:08Z</time></trkpt><trkpt lat="44.714569969212405" lon="7.829079661876363"><ele>275.2</ele><time>2026-04-12T12:15:10Z</time></trkpt><trkpt lat="44.71465516319913" lon="7.82898062491948"><ele>274.59999999999997</ele><time>2026-04-12T12:15:12Z</time></trkpt><trkpt lat="44.71473422367189" lon="7.828865395727692"><ele>274.0</ele><time>2026-04-12T12:15:14Z</time></trkpt><trkpt lat="44.714810110820515" lon="7.828744581960932"><ele>274.0</ele><time>2026-04-12T12:15:16Z</time></trkpt><trkpt lat="44.71490117937782" lon="7.828637863889281"><ele>274.0</ele><time>2026-04-12T12:15:18Z</time></trkpt><trkpt lat="44.71499476958648" lon="7.828532525662191"><ele>274.0</ele><time>2026-04-12T12:15:20Z</time></trkpt><trkpt lat="44.71508740536919" lon="7.82842664976154"><ele>274.0</ele><time>2026-04-12T12:15:22Z</time></trkpt><trkpt lat="44.7151786956582" lon="7.828320160127928"><ele>273.75</ele><time>2026-04-12T12:15:24Z</time></trkpt><trkpt lat="44.71526760324183" lon="7.8282082491704825"><ele>273.5</ele><time>2026-04-12T12:15:26Z</time></trkpt><trkpt lat="44.71536026247777" lon="7.828108500118901"><ele>273.25</ele><time>2026-04-12T12:15:28Z</time></trkpt><trkpt lat="44.71545510227066" lon="7.828011198020985"><ele>273.0</ele><time>2026-04-12T12:15:30Z</time></trkpt><trkpt lat="44.71554961060867" lon="7.8279152859988415"><ele>273.0</ele><time>2026-04-12T12:15:32Z</time></trkpt><trkpt lat="44.71564492165613" lon="7.827823445048587"><ele>273.0</ele><time>2026-04-12T12:15:34Z</time></trkpt><trkpt lat="44.715735926060866" lon="7.827731875791354"><ele>273.0</ele><time>2026-04-12T12:15:36Z</time></trkpt><trkpt lat="44.71583105833544" lon="7.82763825339479"><ele>273.0</ele><time>2026-04-12T12:15:38Z</time></trkpt><trkpt lat="44.71592520405679" lon="7.827549708268525"><ele>273.2</ele><time>2026-04-12T12:15:40Z</time></trkpt><trkpt lat="44.71602066798741" lon="7.827469119303944"><ele>273.4</ele><time>2026-04-12T12:15:42Z</time></trkpt><trkpt lat="44.71611096776954" lon="7.827380949866938"><ele>273.59999999999997</ele><time>2026-04-12T12:15:44Z</time></trkpt><trkpt lat="44.716197542906826" lon="7.82729834813854"><ele>273.8</ele><time>2026-04-12T12:15:46Z</time></trkpt><trkpt lat="44.71628916344327" lon="7.827204006396972"><ele>274.0</ele><time>2026-04-12T12:15:48Z</time></trkpt><trkpt lat="44.71636684566898" lon="7.827125695062519"><ele>274.2</ele><time>2026-04-12T12:15:50Z</time></trkpt><trkpt lat="44.71645028786407" lon="7.827037837637428"><ele>274.4</ele><time>2026-04-12T12:15:52Z</time></trkpt><trkpt lat="44.71653368790002" lon="7.826956782330062"><ele>274.6</ele><time>2026-04-12T12:15:54Z</time></trkpt><trkpt lat="44.71661949648972" lon="7.826879617410118"><ele>274.8</ele><time>2026-04-12T12:15:56Z</time></trkpt><trkpt lat="44.71669773729876" lon="7.8267951969026015"><ele>275.0</ele><time>2026-04-12T12:15:58Z</time></trkpt><trkpt lat="44.71677425541364" lon="7.826707353493849"><ele>275.0</ele><time>2026-04-12T12:16:00Z</time></trkpt><trkpt lat="44.71685299423237" lon="7.8266105028596105"><ele>275.0</ele><time>2026-04-12T12:16:02Z</time></trkpt><trkpt lat="44.71693307307148" lon="7.826511415049041"><ele>275.0</ele><time>2026-04-12T12:16:04Z</time></trkpt><trkpt lat="44.71702014416631" lon="7.826423499726093"><ele>275.0</ele><time>2026-04-12T12:16:06Z</time></trkpt><trkpt lat="44.717100376916505" lon="7.826333284811101"><ele>275.0</ele><time>2026-04-12T12:16:08Z</time></trkpt><trkpt lat="44.717187632905635" lon="7.826244714436039"><ele>275.2</ele><time>2026-04-12T12:16:10Z</time></trkpt><trkpt lat="44.71726810146883" lon="7.826148753174134"><ele>275.4</ele><time>2026-04-12T12:16:12Z</time></trkpt><trkpt lat="44.7173508833574" lon="7.826063592645772"><ele>275.6</ele><time>2026-04-12T12:16:14Z</time></trkpt><trkpt lat="44.71743121763703" lon="7.825987732912667"><ele>275.8</ele><time>2026-04-12T12:16:16Z</time></trkpt><trkpt lat="44.717504929861825" lon="7.82592278159283"><ele>276.0</ele><time>2026-04-12T12:16:18Z</time></trkpt><trkpt lat="44.71757079967932" lon="7.825870904673125"><ele>276.0</ele><time>2026-04-12T12:16:20Z</time></trkpt><trkpt lat="44.717625070221025" lon="7.825822892095973"><ele>276.0</ele><time>2026-04-12T12:16:22Z</time></trkpt><trkpt lat="44.71769243436701" lon="7.82578327759856"><ele>276.0</ele><time>2026-04-12T12:16:25Z</time></trkpt><trkpt lat="44.71776452965126" lon="7.825767938546961"><ele>276.0</ele><time>2026-04-12T12:16:28Z</time></trkpt><trkpt lat="44.71783127110896" lon="7.825737457103141"><ele>276.0</ele><time>2026-04-12T12:16:30Z</time></trkpt><trkpt lat="44.71789887169929" lon="7.825660753983413"><ele>276.0</ele><time>2026-04-12T12:16:32Z</time></trkpt><trkpt lat="44.71796844230007" lon="7.825578272155724"><ele>276.40000000000003</ele><time>2026-04-12T12:16:34Z</time></trkpt><trkpt lat="44.71803816173034" lon="7.825496328029662"><ele>276.8</ele><time>2026-04-12T12:16:36Z</time></trkpt><trkpt lat="44.71811224226437" lon="7.825413536774475"><ele>277.20000000000005</ele><time>2026-04-12T12:16:38Z</time></trkpt><trkpt lat="44.718193409900906" lon="7.825331046745447"><ele>277.6</ele><time>2026-04-12T12:16:40Z</time></trkpt><trkpt lat="44.718274815152256" lon="7.825239749062872"><ele>278.0</ele><time>2026-04-12T12:16:42Z</time></trkpt><trkpt lat="44.71835778620809" lon="7.82515331995607"><ele>277.8</ele><time>2026-04-12T12:16:44Z</time></trkpt><trkpt lat="44.71843909076168" lon="7.82506931629625"><ele>277.6</ele><time>2026-04-12T12:16:46Z</time></trkpt><trkpt lat="44.71851229166217" lon="7.824981971025707"><ele>277.4</ele><time>2026-04-12T12:16:48Z</time></trkpt><trkpt lat="44.718587729277765" lon="7.824902524207157"><ele>277.2</ele><time>2026-04-12T12:16:50Z</time></trkpt><trkpt lat="44.718666406050154" lon="7.824821697861014"><ele>277.0</ele><time>2026-04-12T12:16:52Z</time></trkpt><trkpt lat="44.718744129251064" lon="7.8247423864840355"><ele>277.0</ele><time>2026-04-12T12:16:54Z</time></trkpt><trkpt lat="44.71881943858736" lon="7.8246614155456555"><ele>277.0</ele><time>2026-04-12T12:16:56Z</time></trkpt><trkpt lat="44.718897687731314" lon="7.8245749928666095"><ele>277.0</ele><time>2026-04-12T12:16:58Z</time></trkpt><trkpt lat="44.71897717814805" lon="7.82448709588666"><ele>277.0</ele><time>2026-04-12T12:17:00Z</time></trkpt><trkpt lat="44.71906168180571" lon="7.824400765897214"><ele>277.0</ele><time>2026-04-12T12:17:02Z</time></trkpt><trkpt lat="44.71914245942857" lon="7.824307691583986"><ele>277.2</ele><time>2026-04-12T12:17:04Z</time></trkpt><trkpt lat="44.71922758111745" lon="7.824218754431086"><ele>277.4</ele><time>2026-04-12T12:17:06Z</time></trkpt><trkpt lat="44.719310848058" lon="7.824127968526027"><ele>277.6</ele><time>2026-04-12T12:17:08Z</time></trkpt><trkpt lat="44.71939350954102" lon="7.824038490364861"><ele>277.8</ele><time>2026-04-12T12:17:10Z</time></trkpt><trkpt lat="44.71947772005742" lon="7.823946053852079"><ele>278.0</ele><time>2026-04-12T12:17:12Z</time></trkpt><trkpt lat="44.71956414282808" lon="7.823870272149605"><ele>278.0</ele><time>2026-04-12T12:17:14Z</time></trkpt><trkpt lat="44.71963444036736" lon="7.823762017870126"><ele>278.0</ele><time>2026-04-12T12:17:16Z</time></trkpt><trkpt lat="44.719720174365705" lon="7.823675801122815"><ele>278.0</ele><time>2026-04-12T12:17:18Z</time></trkpt><trkpt lat="44.719804772668205" lon="7.823580096952509"><ele>278.0</ele><time>2026-04-12T12:17:20Z</time></trkpt><trkpt lat="44.719897524977554" lon="7.823493629941683"><ele>278.0</ele><time>2026-04-12T12:17:22Z</time></trkpt><trkpt lat="44.719983005744716" lon="7.82340251026264"><ele>277.8</ele><time>2026-04-12T12:17:24Z</time></trkpt><trkpt lat="44.720074349528396" lon="7.823334165630255"><ele>277.6</ele><time>2026-04-12T12:17:26Z</time></trkpt><trkpt lat="44.720157233366706" lon="7.823244726185756"><ele>277.4</ele><time>2026-04-12T12:17:28Z</time></trkpt><trkpt lat="44.72023874153401" lon="7.823157522141454"><ele>277.2</ele><time>2026-04-12T12:17:30Z</time></trkpt><trkpt lat="44.72032801052147" lon="7.823066557013683"><ele>277.0</ele><time>2026-04-12T12:17:32Z</time></trkpt><trkpt lat="44.720415753711926" lon="7.82297426883837"><ele>277.0</ele><time>2026-04-12T12:17:34Z</time></trkpt><trkpt lat="44.72046498247444" lon="7.822916631296607"><ele>277.0</ele><time>2026-04-12T12:17:35Z</time></trkpt><trkpt lat="44.720562111706776" lon="7.822821311899708"><ele>277.0</ele><time>2026-04-12T12:17:37Z</time></trkpt><trkpt lat="44.72066642847845" lon="7.822729831867451"><ele>277.0</ele><time>2026-04-12T12:17:39Z</time></trkpt><trkpt lat="44.720770769818536" lon="7.822637791366686"><ele>277.0</ele><time>2026-04-12T12:17:41Z</time></trkpt><trkpt lat="44.720864473704566" lon="7.822551252937284"><ele>276.6</ele><time>2026-04-12T12:17:43Z</time></trkpt><trkpt lat="44.720951419819485" lon="7.822465689946616"><ele>276.2</ele><time>2026-04-12T12:17:45Z</time></trkpt><trkpt lat="44.72103492432273" lon="7.822388423931706"><ele>275.8</ele><time>2026-04-12T12:17:47Z</time></trkpt><trkpt lat="44.72112278826316" lon="7.822299971228607"><ele>275.4</ele><time>2026-04-12T12:17:49Z</time></trkpt><trkpt lat="44.721224807006315" lon="7.822208430225989"><ele>275.0</ele><time>2026-04-12T12:17:51Z</time></trkpt><trkpt lat="44.72128055363729" lon="7.822165233216747"><ele>275.0</ele><time>2026-04-12T12:17:52Z</time></trkpt><trkpt lat="44.72133580829466" lon="7.82212192998614"><ele>275.0</ele><time>2026-04-12T12:17:53Z</time></trkpt><trkpt lat="44.7214383225707" lon="7.822034815175229"><ele>275.0</ele><time>2026-04-12T12:17:55Z</time></trkpt><trkpt lat="44.72155324229831" lon="7.821955981378573"><ele>275.0</ele><time>2026-04-12T12:17:57Z</time></trkpt><trkpt lat="44.721610254331836" lon="7.821908614255528"><ele>275.0</ele><time>2026-04-12T12:17:58Z</time></trkpt><trkpt lat="44.7216633134872" lon="7.8218599378577895"><ele>275.0</ele><time>2026-04-12T12:17:59Z</time></trkpt><trkpt lat="44.721757601260386" lon="7.821761897145064"><ele>274.75</ele><time>2026-04-12T12:18:01Z</time></trkpt><trkpt lat="44.721858868264164" lon="7.821663150314234"><ele>274.5</ele><time>2026-04-12T12:18:03Z</time></trkpt><trkpt lat="44.721959565984506" lon="7.82156769982947"><ele>274.25</ele><time>2026-04-12T12:18:05Z</time></trkpt><trkpt lat="44.72205766233541" lon="7.821468302520243"><ele>274.0</ele><time>2026-04-12T12:18:07Z</time></trkpt><trkpt lat="44.72215250144837" lon="7.8213671202148065"><ele>274.0</ele><time>2026-04-12T12:18:09Z</time></trkpt><trkpt lat="44.72224800263131" lon="7.821264357075297"><ele>274.0</ele><time>2026-04-12T12:18:11Z</time></trkpt><trkpt lat="44.72233791720107" lon="7.821160179650523"><ele>274.0</ele><time>2026-04-12T12:18:13Z</time></trkpt><trkpt lat="44.722432998502256" lon="7.821068297890086"><ele>274.0</ele><time>2026-04-12T12:18:15Z</time></trkpt><trkpt lat="44.72251957771969" lon="7.820962422266051"><ele>274.0</ele><time>2026-04-12T12:18:17Z</time></trkpt><trkpt lat="44.72260480056378" lon="7.820858989391908"><ele>274.0</ele><time>2026-04-12T12:18:19Z</time></trkpt><trkpt lat="44.722690535944714" lon="7.8207526117423924"><ele>274.0</ele><time>2026-04-12T12:18:21Z</time></trkpt><trkpt lat="44.72278053206206" lon="7.820646757736534"><ele>274.0</ele><time>2026-04-12T12:18:23Z</time></trkpt><trkpt lat="44.72287108498154" lon="7.820533619231018"><ele>274.0</ele><time>2026-04-12T12:18:25Z</time></trkpt><trkpt lat="44.722973400346575" lon="7.820431805661155"><ele>274.0</ele><time>2026-04-12T12:18:27Z</time></trkpt><trkpt lat="44.72307619675448" lon="7.820327449793732"><ele>274.0</ele><time>2026-04-12T12:18:29Z</time></trkpt><trkpt lat="44.723128848056184" lon="7.820273257584257"><ele>274.0</ele><time>2026-04-12T12:18:30Z</time></trkpt><trkpt lat="44.7231792711341" lon="7.820213029592328"><ele>274.0</ele><time>2026-04-12T12:18:31Z</time></trkpt><trkpt lat="44.72322894584972" lon="7.820152309554742"><ele>274.0</ele><time>2026-04-12T12:18:32Z</time></trkpt><trkpt lat="44.72327811337705" lon="7.820088916696603"><ele>273.8571428571429</ele><time>2026-04-12T12:18:33Z</time></trkpt><trkpt lat="44.723335564715086" lon="7.820034968561497"><ele>273.7142857142857</ele><time>2026-04-12T12:18:34Z</time></trkpt><trkpt lat="44.72339244480584" lon="7.819985350055328"><ele>273.57142857142856</ele><time>2026-04-12T12:18:35Z</time></trkpt><trkpt lat="44.72344509951168" lon="7.819926320303548"><ele>273.42857142857144</ele><time>2026-04-12T12:18:36Z</time></trkpt><trkpt lat="44.7234994344914" lon="7.819868079633527"><ele>273.2857142857143</ele><time>2026-04-12T12:18:37Z</time></trkpt><trkpt lat="44.72355558843223" lon="7.819814411389963"><ele>273.14285714285717</ele><time>2026-04-12T12:18:38Z</time></trkpt><trkpt lat="44.72361121017287" lon="7.819757941251519"><ele>273.0</ele><time>2026-04-12T12:18:39Z</time></trkpt><trkpt lat="44.72366693804546" lon="7.819702509459812"><ele>273.0</ele><time>2026-04-12T12:18:40Z</time></trkpt><trkpt lat="44.72372316575678" lon="7.819651389089974"><ele>273.0</ele><time>2026-04-12T12:18:41Z</time></trkpt><trkpt lat="44.72377874185124" lon="7.819595576625937"><ele>273.0</ele><time>2026-04-12T12:18:42Z</time></trkpt><trkpt lat="44.723833793802086" lon="7.81953919855227"><ele>273.0</ele><time>2026-04-12T12:18:43Z</time></trkpt><trkpt lat="44.72389051014724" lon="7.819486986865975"><ele>273.0</ele><time>2026-04-12T12:18:44Z</time></trkpt><trkpt lat="44.723946409055856" lon="7.819434687296189"><ele>273.0</ele><time>2026-04-12T12:18:45Z</time></trkpt><trkpt lat="44.723997197294125" lon="7.819376945975793"><ele>273.0</ele><time>2026-04-12T12:18:46Z</time></trkpt><trkpt lat="44.724049200367595" lon="7.819320317491179"><ele>273.0</ele><time>2026-04-12T12:18:47Z</time></trkpt><trkpt lat="44.724102537013344" lon="7.819269869843051"><ele>273.0</ele><time>2026-04-12T12:18:48Z</time></trkpt><trkpt lat="44.72415452673207" lon="7.819216014194213"><ele>273.0</ele><time>2026-04-12T12:18:49Z</time></trkpt><trkpt lat="44.724206113956136" lon="7.8191623937543175"><ele>273.0</ele><time>2026-04-12T12:18:50Z</time></trkpt><trkpt lat="44.724259408540604" lon="7.819112719888236"><ele>273.0</ele><time>2026-04-12T12:18:51Z</time></trkpt><trkpt lat="44.72431272377626" lon="7.819063304676"><ele>273.0</ele><time>2026-04-12T12:18:52Z</time></trkpt><trkpt lat="44.72436476822818" lon="7.819011176609287"><ele>273.0</ele><time>2026-04-12T12:18:53Z</time></trkpt><trkpt lat="44.724414957996075" lon="7.81895360515815"><ele>273.0</ele><time>2026-04-12T12:18:54Z</time></trkpt><trkpt lat="44.7244671017093" lon="7.81890285539144"><ele>273.0</ele><time>2026-04-12T12:18:55Z</time></trkpt><trkpt lat="44.724519323396095" lon="7.8188513841335805"><ele>273.0</ele><time>2026-04-12T12:18:56Z</time></trkpt><trkpt lat="44.72457189850841" lon="7.818798001704866"><ele>273.0</ele><time>2026-04-12T12:18:57Z</time></trkpt><trkpt lat="44.72467232846802" lon="7.818694367194844"><ele>273.0</ele><time>2026-04-12T12:18:59Z</time></trkpt><trkpt lat="44.72477540378548" lon="7.818602328300406"><ele>273.0</ele><time>2026-04-12T12:19:01Z</time></trkpt><trkpt lat="44.72486875279433" lon="7.81850853370207"><ele>272.8</ele><time>2026-04-12T12:19:03Z</time></trkpt><trkpt lat="44.72495684849073" lon="7.818422835919497"><ele>272.6</ele><time>2026-04-12T12:19:05Z</time></trkpt><trkpt lat="44.725043394465985" lon="7.818343416129536"><ele>272.4</ele><time>2026-04-12T12:19:07Z</time></trkpt><trkpt lat="44.72512263151828" lon="7.818264402034301"><ele>272.2</ele><time>2026-04-12T12:19:09Z</time></trkpt><trkpt lat="44.72519575867379" lon="7.818188906396474"><ele>272.0</ele><time>2026-04-12T12:19:11Z</time></trkpt><trkpt lat="44.72525435028959" lon="7.818119563846244"><ele>272.5</ele><time>2026-04-12T12:19:13Z</time></trkpt><trkpt lat="44.72532171526181" lon="7.818080188216114"><ele>273.0</ele><time>2026-04-12T12:19:15Z</time></trkpt><trkpt lat="44.72538709871456" lon="7.818106652201431"><ele>273.5</ele><time>2026-04-12T12:19:17Z</time></trkpt><trkpt lat="44.72545216387198" lon="7.818110697280344"><ele>274.0</ele><time>2026-04-12T12:19:20Z</time></trkpt><trkpt lat="44.72542412871744" lon="7.818000681757501"><ele>274.5</ele><time>2026-04-12T12:19:23Z</time></trkpt><trkpt lat="44.72551644234139" lon="7.817948268363232"><ele>275.0</ele><time>2026-04-12T12:19:26Z</time></trkpt><trkpt lat="44.72557995491941" lon="7.817908690538178"><ele>275.0</ele><time>2026-04-12T12:19:28Z</time></trkpt><trkpt lat="44.725633606518635" lon="7.817839198835027"><ele>275.0</ele><time>2026-04-12T12:19:30Z</time></trkpt><trkpt lat="44.725691371679396" lon="7.81778716101178"><ele>275.0</ele><time>2026-04-12T12:19:32Z</time></trkpt><trkpt lat="44.72575310443872" lon="7.817717527500938"><ele>275.0</ele><time>2026-04-12T12:19:35Z</time></trkpt><trkpt lat="44.72582410855612" lon="7.817759750823482"><ele>275.0</ele><time>2026-04-12T12:19:38Z</time></trkpt><trkpt lat="44.725847805362065" lon="7.817857508430238"><ele>275.0</ele><time>2026-04-12T12:19:40Z</time></trkpt><trkpt lat="44.72588646994552" lon="7.817934546428601"><ele>275.0</ele><time>2026-04-12T12:19:42Z</time></trkpt><trkpt lat="44.725935717152595" lon="7.818012551805831"><ele>275.0</ele><time>2026-04-12T12:19:44Z</time></trkpt><trkpt lat="44.72598247120273" lon="7.818092092582814"><ele>275.0</ele><time>2026-04-12T12:19:46Z</time></trkpt><trkpt lat="44.72603373832101" lon="7.81816126950383"><ele>275.0</ele><time>2026-04-12T12:19:48Z</time></trkpt><trkpt lat="44.72607816812245" lon="7.818244378079178"><ele>275.0</ele><time>2026-04-12T12:19:50Z</time></trkpt><trkpt lat="44.72612275904037" lon="7.818329654135274"><ele>275.0</ele><time>2026-04-12T12:19:52Z</time></trkpt><trkpt lat="44.72617763042032" lon="7.818397124754095"><ele>275.0</ele><time>2026-04-12T12:19:54Z</time></trkpt><trkpt lat="44.726227074623495" lon="7.818472278019161"><ele>275.0</ele><time>2026-04-12T12:19:56Z</time></trkpt><trkpt lat="44.72627096487848" lon="7.818553862112875"><ele>275.2857142857143</ele><time>2026-04-12T12:19:58Z</time></trkpt><trkpt lat="44.726311104214076" lon="7.818638184206245"><ele>275.57142857142856</ele><time>2026-04-12T12:20:00Z</time></trkpt><trkpt lat="44.72635415615509" lon="7.8187166239091495"><ele>275.85714285714283</ele><time>2026-04-12T12:20:02Z</time></trkpt><trkpt lat="44.72639950663978" lon="7.8187960783741195"><ele>276.1428571428571</ele><time>2026-04-12T12:20:04Z</time></trkpt><trkpt lat="44.72644763431236" lon="7.818870874160575"><ele>276.4285714285714</ele><time>2026-04-12T12:20:06Z</time></trkpt><trkpt lat="44.726484858868695" lon="7.81895166679351"><ele>276.7142857142857</ele><time>2026-04-12T12:20:08Z</time></trkpt><trkpt lat="44.726530506987686" lon="7.819022357361115"><ele>277.0</ele><time>2026-04-12T12:20:10Z</time></trkpt><trkpt lat="44.72656782992227" lon="7.819095284262386"><ele>277.0</ele><time>2026-04-12T12:20:12Z</time></trkpt><trkpt lat="44.72662381636659" lon="7.8191972468689475"><ele>277.0</ele><time>2026-04-12T12:20:15Z</time></trkpt><trkpt lat="44.72666572618024" lon="7.819270215627671"><ele>277.0</ele><time>2026-04-12T12:20:17Z</time></trkpt><trkpt lat="44.726703646608776" lon="7.819342774628154"><ele>277.0</ele><time>2026-04-12T12:20:19Z</time></trkpt><trkpt lat="44.72677364008785" lon="7.819431635193692"><ele>277.0</ele><time>2026-04-12T12:20:22Z</time></trkpt><trkpt lat="44.72683046639751" lon="7.819516993758893"><ele>277.0</ele><time>2026-04-12T12:20:25Z</time></trkpt><trkpt lat="44.72687975318339" lon="7.81961135943148"><ele>277.8333333333333</ele><time>2026-04-12T12:20:28Z</time></trkpt><trkpt lat="44.72694485736195" lon="7.819703773051963"><ele>278.66666666666663</ele><time>2026-04-12T12:20:31Z</time></trkpt><trkpt lat="44.72698601813658" lon="7.819776309633213"><ele>279.5</ele><time>2026-04-12T12:20:33Z</time></trkpt><trkpt lat="44.72703115513447" lon="7.819845761498916"><ele>280.3333333333333</ele><time>2026-04-12T12:20:35Z</time></trkpt><trkpt lat="44.72707142633023" lon="7.819914863371107"><ele>281.1666666666667</ele><time>2026-04-12T12:20:37Z</time></trkpt><trkpt lat="44.72712466409938" lon="7.820005630601853"><ele>282.0</ele><time>2026-04-12T12:20:40Z</time></trkpt><trkpt lat="44.72717045603253" lon="7.820097111909239"><ele>282.0</ele><time>2026-04-12T12:20:43Z</time></trkpt><trkpt lat="44.72722045959466" lon="7.820216907443744"><ele>282.0</ele><time>2026-04-12T12:20:46Z</time></trkpt><trkpt lat="44.72729879644731" lon="7.820251988259481"><ele>282.0</ele><time>2026-04-12T12:20:48Z</time></trkpt><trkpt lat="44.727371688748995" lon="7.8202113052169135"><ele>282.0</ele><time>2026-04-12T12:20:50Z</time></trkpt><trkpt lat="44.72744226941162" lon="7.820161846439987"><ele>282.0</ele><time>2026-04-12T12:20:52Z</time></trkpt><trkpt lat="44.72751731874769" lon="7.820098385114435"><ele>282.0</ele><time>2026-04-12T12:20:54Z</time></trkpt><trkpt lat="44.72759046305245" lon="7.820038866697885"><ele>282.0</ele><time>2026-04-12T12:20:56Z</time></trkpt><trkpt lat="44.72766370643282" lon="7.81999009953839"><ele>282.0</ele><time>2026-04-12T12:20:58Z</time></trkpt><trkpt lat="44.727734096792034" lon="7.819938571500681"><ele>282.0</ele><time>2026-04-12T12:21:00Z</time></trkpt><trkpt lat="44.72781071292998" lon="7.819892890539362"><ele>282.0</ele><time>2026-04-12T12:21:02Z</time></trkpt><trkpt lat="44.72788794694598" lon="7.819872859347124"><ele>282.0</ele><time>2026-04-12T12:21:04Z</time></trkpt><trkpt lat="44.727951741926454" lon="7.81988566795467"><ele>282.0</ele><time>2026-04-12T12:21:06Z</time></trkpt><trkpt lat="44.72804568627094" lon="7.819898908297899"><ele>283.8333333333333</ele><time>2026-04-12T12:21:09Z</time></trkpt><trkpt lat="44.72813356230721" lon="7.81992342106122"><ele>285.6666666666667</ele><time>2026-04-12T12:21:12Z</time></trkpt><trkpt lat="44.7282170498574" lon="7.819935182162783"><ele>287.5</ele><time>2026-04-12T12:21:15Z</time></trkpt><trkpt lat="44.72828906301121" lon="7.819956092106427"><ele>289.33333333333337</ele><time>2026-04-12T12:21:18Z</time></trkpt><trkpt lat="44.72836247275308" lon="7.819980053665279"><ele>291.1666666666667</ele><time>2026-04-12T12:21:21Z</time></trkpt><trkpt lat="44.7284307984379" lon="7.819979087114466"><ele>293.0</ele><time>2026-04-12T12:21:24Z</time></trkpt><trkpt lat="44.728495597510204" lon="7.819992152958044"><ele>293.99999999999994</ele><time>2026-04-12T12:21:27Z</time></trkpt><trkpt lat="44.72856115887429" lon="7.820020357701025"><ele>295.0</ele><time>2026-04-12T12:21:31Z</time></trkpt><trkpt lat="44.72862129321785" lon="7.82005832636876"><ele>296.0</ele><time>2026-04-12T12:21:35Z</time></trkpt><trkpt lat="44.72868674963966" lon="7.820075011984544"><ele>297.0</ele><time>2026-04-12T12:21:39Z</time></trkpt><trkpt lat="44.728760465372886" lon="7.820105208873278"><ele>298.0</ele><time>2026-04-12T12:21:44Z</time></trkpt><trkpt lat="44.728831247690046" lon="7.82010977228431"><ele>298.99999999999994</ele><time>2026-04-12T12:21:48Z</time></trkpt><trkpt lat="44.72889848139244" lon="7.820124919985927"><ele>300.0</ele><time>2026-04-12T12:21:52Z</time></trkpt><trkpt lat="44.7289654470022" lon="7.820148457533371"><ele>302.57142857142856</ele><time>2026-04-12T12:21:56Z</time></trkpt><trkpt lat="44.729022753554474" lon="7.820209645403595"><ele>305.1428571428571</ele><time>2026-04-12T12:22:00Z</time></trkpt><trkpt lat="44.729056320432505" lon="7.820297543441211"><ele>307.71428571428567</ele><time>2026-04-12T12:22:04Z</time></trkpt><trkpt lat="44.72904831383241" lon="7.820391413807003"><ele>310.2857142857143</ele><time>2026-04-12T12:22:08Z</time></trkpt><trkpt lat="44.72900662623483" lon="7.820474823810139"><ele>312.8571428571429</ele><time>2026-04-12T12:22:13Z</time></trkpt><trkpt lat="44.72896165387013" lon="7.8205372755247"><ele>315.4285714285714</ele><time>2026-04-12T12:22:17Z</time></trkpt><trkpt lat="44.72891596361552" lon="7.820609958856484"><ele>318.0</ele><time>2026-04-12T12:22:22Z</time></trkpt><trkpt lat="44.72888199195062" lon="7.820707327011622"><ele>318.0</ele><time>2026-04-12T12:22:27Z</time></trkpt><trkpt lat="44.72885679345696" lon="7.820813941439812"><ele>318.0</ele><time>2026-04-12T12:22:31Z</time></trkpt><trkpt lat="44.72881564743604" lon="7.820889930822096"><ele>318.0</ele><time>2026-04-12T12:22:34Z</time></trkpt><trkpt lat="44.72876644616764" lon="7.820970242029257"><ele>318.0</ele><time>2026-04-12T12:22:37Z</time></trkpt><trkpt lat="44.728707316320396" lon="7.821054331076964"><ele>318.0</ele><time>2026-04-12T12:22:40Z</time></trkpt><trkpt lat="44.72864183943122" lon="7.821130339152637"><ele>318.0</ele><time>2026-04-12T12:22:43Z</time></trkpt><trkpt lat="44.72858362711784" lon="7.821215730806578"><ele>317.6666666666667</ele><time>2026-04-12T12:22:46Z</time></trkpt><trkpt lat="44.72851085025766" lon="7.821272072597797"><ele>317.3333333333333</ele><time>2026-04-12T12:22:49Z</time></trkpt><trkpt lat="44.72843865410417" lon="7.821323489904973"><ele>317.0</ele><time>2026-04-12T12:22:52Z</time></trkpt><trkpt lat="44.728355815034384" lon="7.82135264231534"><ele>316.66666666666663</ele><time>2026-04-12T12:22:55Z</time></trkpt><trkpt lat="44.728263930331494" lon="7.821365836335018"><ele>316.3333333333333</ele><time>2026-04-12T12:22:58Z</time></trkpt><trkpt lat="44.72817315188949" lon="7.821379628674182"><ele>316.0</ele><time>2026-04-12T12:23:01Z</time></trkpt><trkpt lat="44.72811019610754" lon="7.821381525105762"><ele>316.0</ele><time>2026-04-12T12:23:03Z</time></trkpt><trkpt lat="44.7280278450042" lon="7.82140650901263"><ele>316.0</ele><time>2026-04-12T12:23:06Z</time></trkpt><trkpt lat="44.72794354025257" lon="7.8214170276784625"><ele>316.0</ele><time>2026-04-12T12:23:09Z</time></trkpt><trkpt lat="44.7278566264872" lon="7.821437619109504"><ele>316.0</ele><time>2026-04-12T12:23:11Z</time></trkpt><trkpt lat="44.72777531288509" lon="7.821486080222477"><ele>316.0</ele><time>2026-04-12T12:23:13Z</time></trkpt><trkpt lat="44.72770976311272" lon="7.8215963881985"><ele>316.0</ele><time>2026-04-12T12:23:15Z</time></trkpt><trkpt lat="44.727657732129686" lon="7.821703368353742"><ele>308.0</ele><time>2026-04-12T12:23:17Z</time></trkpt><trkpt lat="44.72766076715483" lon="7.8218297772529874"><ele>320.0</ele><time>2026-04-12T12:23:19Z</time></trkpt><trkpt lat="44.72772928823008" lon="7.821919656414641"><ele>330.0</ele><time>2026-04-12T12:23:21Z</time></trkpt><trkpt lat="44.727754059385326" lon="7.822026832981583"><ele>330.0</ele><time>2026-04-12T12:23:23Z</time></trkpt><trkpt lat="44.72779824052964" lon="7.822102167663757"><ele>330.0</ele><time>2026-04-12T12:23:25Z</time></trkpt></trkseg></trk></gpx>